<?xml version='1.0' encoding='UTF-8'?><gpx version="1.1" creator="JPX - https://github.com/jenetics/jpx" xmlns="http://www.topografix.com/GPX/1/1"><trk><trkseg><trkpt lat="38.1127211" lon="13.371395"><ele>21.0</ele><time>2026-05-06T08:19:04.036Z</time></trkpt><trkpt lat="38.1127859" lon="13.3713891"><ele>21.0</ele><time>2026-05-06T08:19:07.036Z</time></trkpt><trkpt lat="38.1127185" lon="13.3713654"><ele>21.0</ele><time>2026-05-06T08:19:23.036Z</time></trkpt><trkpt lat="38.1126873" lon="13.3712914"><ele>21.0</ele><time>2026-05-06T08:19:53.036Z</time></trkpt><trkpt lat="38.1127606" lon="13.3712891"><ele>21.0</ele><time>2026-05-06T08:21:14.036Z</time></trkpt><trkpt lat="38.1128274" lon="13.3712724"><ele>21.0</ele><time>2026-05-06T08:21:26.036Z</time></trkpt><trkpt lat="38.1128996" lon="13.3713295"><ele>21.0</ele><time>2026-05-06T08:21:31.036Z</time></trkpt><trkpt lat="38.1129347" lon="13.3714077"><ele>21.0</ele><time>2026-05-06T08:21:33.036Z</time></trkpt><trkpt lat="38.1129751" lon="13.3714868"><ele>21.0</ele><time>2026-05-06T08:21:35.036Z</time></trkpt><trkpt lat="38.1130274" lon="13.3715636"><ele>21.0</ele><time>2026-05-06T08:21:37.036Z</time></trkpt><trkpt lat="38.1130773" lon="13.3716548"><ele>21.0</ele><time>2026-05-06T08:21:39.036Z</time></trkpt><trkpt lat="38.113123" lon="13.3717537"><ele>21.0</ele><time>2026-05-06T08:21:41.036Z</time></trkpt><trkpt lat="38.1131636" lon="13.371854"><ele>21.0</ele><time>2026-05-06T08:21:43.036Z</time></trkpt><trkpt lat="38.113199" lon="13.3719455"><ele>21.0</ele><time>2026-05-06T08:21:45.036Z</time></trkpt><trkpt lat="38.113228" lon="13.3720199"><ele>21.0</ele><time>2026-05-06T08:21:47.036Z</time></trkpt><trkpt lat="38.1132682" lon="13.3720917"><ele>21.0</ele><time>2026-05-06T08:21:50.036Z</time></trkpt><trkpt lat="38.113293" lon="13.3721666"><ele>21.0</ele><time>2026-05-06T08:21:54.036Z</time></trkpt><trkpt lat="38.113325" lon="13.37225"><ele>21.0</ele><time>2026-05-06T08:21:58.036Z</time></trkpt><trkpt lat="38.1133533" lon="13.3723233"><ele>21.0</ele><time>2026-05-06T08:22:01.036Z</time></trkpt><trkpt lat="38.113395" lon="13.37241"><ele>21.0</ele><time>2026-05-06T08:22:06.036Z</time></trkpt><trkpt lat="38.1134317" lon="13.3724917"><ele>20.5</ele><time>2026-05-06T08:22:09.036Z</time></trkpt><trkpt lat="38.11347" lon="13.372575"><ele>20.0</ele><time>2026-05-06T08:22:13.035Z</time></trkpt><trkpt lat="38.11351" lon="13.37265"><ele>19.5</ele><time>2026-05-06T08:22:17.036Z</time></trkpt><trkpt lat="38.1135517" lon="13.3727283"><ele>19.0</ele><time>2026-05-06T08:22:26.036Z</time></trkpt><trkpt lat="38.11359" lon="13.3728017"><ele>18.5</ele><time>2026-05-06T08:22:28.036Z</time></trkpt><trkpt lat="38.1136417" lon="13.3729"><ele>18.0</ele><time>2026-05-06T08:22:31.036Z</time></trkpt><trkpt lat="38.1136833" lon="13.372975"><ele>17.6</ele><time>2026-05-06T08:22:33.036Z</time></trkpt><trkpt lat="38.1137317" lon="13.373065"><ele>17.200000000000003</ele><time>2026-05-06T08:22:35.036Z</time></trkpt><trkpt lat="38.1137817" lon="13.373185"><ele>16.8</ele><time>2026-05-06T08:22:37.036Z</time></trkpt><trkpt lat="38.11384" lon="13.373325"><ele>16.400000000000002</ele><time>2026-05-06T08:22:39.036Z</time></trkpt><trkpt lat="38.113905" lon="13.3734533"><ele>16.0</ele><time>2026-05-06T08:22:41.036Z</time></trkpt><trkpt lat="38.1139667" lon="13.3735883"><ele>15.999999999999998</ele><time>2026-05-06T08:22:43.036Z</time></trkpt><trkpt lat="38.1140317" lon="13.37372"><ele>16.0</ele><time>2026-05-06T08:22:45.036Z</time></trkpt><trkpt lat="38.11407" lon="13.3737883"><ele>16.0</ele><time>2026-05-06T08:22:46.036Z</time></trkpt><trkpt lat="38.1141033" lon="13.3738567"><ele>16.0</ele><time>2026-05-06T08:22:47.036Z</time></trkpt><trkpt lat="38.1141717" lon="13.3739967"><ele>15.999999999999998</ele><time>2026-05-06T08:22:49.036Z</time></trkpt><trkpt lat="38.1142067" lon="13.37407"><ele>16.0</ele><time>2026-05-06T08:22:50.036Z</time></trkpt><trkpt lat="38.114245" lon="13.374135"><ele>16.400000000000002</ele><time>2026-05-06T08:22:51.036Z</time></trkpt><trkpt lat="38.1143167" lon="13.3742667"><ele>16.8</ele><time>2026-05-06T08:22:53.036Z</time></trkpt><trkpt lat="38.1143783" lon="13.3744033"><ele>17.200000000000003</ele><time>2026-05-06T08:22:55.036Z</time></trkpt><trkpt lat="38.1144417" lon="13.3745433"><ele>17.6</ele><time>2026-05-06T08:22:57.036Z</time></trkpt><trkpt lat="38.114475" lon="13.3746167"><ele>18.0</ele><time>2026-05-06T08:22:58.036Z</time></trkpt><trkpt lat="38.1145083" lon="13.374695"><ele>16.833333333333332</ele><time>2026-05-06T08:22:59.036Z</time></trkpt><trkpt lat="38.1145433" lon="13.3747767"><ele>15.666666666666666</ele><time>2026-05-06T08:23:00.036Z</time></trkpt><trkpt lat="38.1145767" lon="13.3748633"><ele>14.5</ele><time>2026-05-06T08:23:01.036Z</time></trkpt><trkpt lat="38.114625" lon="13.37495"><ele>13.333333333333332</ele><time>2026-05-06T08:23:02.036Z</time></trkpt><trkpt lat="38.114665" lon="13.3750333"><ele>12.166666666666666</ele><time>2026-05-06T08:23:03.035Z</time></trkpt><trkpt lat="38.1146983" lon="13.3751283"><ele>11.0</ele><time>2026-05-06T08:23:04.036Z</time></trkpt><trkpt lat="38.114735" lon="13.375225"><ele>11.0</ele><time>2026-05-06T08:23:05.036Z</time></trkpt><trkpt lat="38.1147783" lon="13.3753217"><ele>11.0</ele><time>2026-05-06T08:23:06.036Z</time></trkpt><trkpt lat="38.1148167" lon="13.3754117"><ele>11.0</ele><time>2026-05-06T08:23:07.036Z</time></trkpt><trkpt lat="38.114865" lon="13.3754983"><ele>11.0</ele><time>2026-05-06T08:23:08.036Z</time></trkpt><trkpt lat="38.1149117" lon="13.37559"><ele>11.0</ele><time>2026-05-06T08:23:09.036Z</time></trkpt><trkpt lat="38.114955" lon="13.3756683"><ele>11.0</ele><time>2026-05-06T08:23:10.036Z</time></trkpt><trkpt lat="38.1149883" lon="13.3757517"><ele>10.4</ele><time>2026-05-06T08:23:11.036Z</time></trkpt><trkpt lat="38.1150217" lon="13.3758283"><ele>9.8</ele><time>2026-05-06T08:23:12.036Z</time></trkpt><trkpt lat="38.1150733" lon="13.3759583"><ele>9.200000000000001</ele><time>2026-05-06T08:23:14.036Z</time></trkpt><trkpt lat="38.115105" lon="13.376075"><ele>8.600000000000001</ele><time>2026-05-06T08:23:16.036Z</time></trkpt><trkpt lat="38.115075" lon="13.3761933"><ele>8.0</ele><time>2026-05-06T08:23:18.036Z</time></trkpt><trkpt lat="38.1149833" lon="13.3763233"><ele>7.800000000000001</ele><time>2026-05-06T08:23:20.036Z</time></trkpt><trkpt lat="38.11491" lon="13.3763917"><ele>7.6000000000000005</ele><time>2026-05-06T08:23:21.035Z</time></trkpt><trkpt lat="38.1148317" lon="13.3764567"><ele>7.3999999999999995</ele><time>2026-05-06T08:23:22.036Z</time></trkpt><trkpt lat="38.1147483" lon="13.3765233"><ele>7.199999999999999</ele><time>2026-05-06T08:23:23.036Z</time></trkpt><trkpt lat="38.1146633" lon="13.37659"><ele>7.0</ele><time>2026-05-06T08:23:24.036Z</time></trkpt><trkpt lat="38.1145767" lon="13.3766533"><ele>7.3999999999999995</ele><time>2026-05-06T08:23:25.036Z</time></trkpt><trkpt lat="38.1145" lon="13.3767183"><ele>7.799999999999999</ele><time>2026-05-06T08:23:26.036Z</time></trkpt><trkpt lat="38.114415" lon="13.3767767"><ele>8.2</ele><time>2026-05-06T08:23:27.036Z</time></trkpt><trkpt lat="38.114335" lon="13.3768383"><ele>8.6</ele><time>2026-05-06T08:23:28.036Z</time></trkpt><trkpt lat="38.1142517" lon="13.3768967"><ele>9.0</ele><time>2026-05-06T08:23:29.035Z</time></trkpt><trkpt lat="38.1141767" lon="13.3769517"><ele>9.000000000000002</ele><time>2026-05-06T08:23:30.036Z</time></trkpt><trkpt lat="38.1141033" lon="13.3770017"><ele>9.0</ele><time>2026-05-06T08:23:31.036Z</time></trkpt><trkpt lat="38.1140333" lon="13.377055"><ele>9.0</ele><time>2026-05-06T08:23:32.036Z</time></trkpt><trkpt lat="38.1139667" lon="13.3771"><ele>9.0</ele><time>2026-05-06T08:23:33.036Z</time></trkpt><trkpt lat="38.113905" lon="13.3771517"><ele>9.0</ele><time>2026-05-06T08:23:34.036Z</time></trkpt><trkpt lat="38.1138467" lon="13.3772033"><ele>9.000000000000002</ele><time>2026-05-06T08:23:35.036Z</time></trkpt><trkpt lat="38.1137933" lon="13.3772467"><ele>9.0</ele><time>2026-05-06T08:23:36.035Z</time></trkpt><trkpt lat="38.1137083" lon="13.3773133"><ele>8.666666666666666</ele><time>2026-05-06T08:23:38.036Z</time></trkpt><trkpt lat="38.1136417" lon="13.3773633"><ele>8.333333333333334</ele><time>2026-05-06T08:23:40.036Z</time></trkpt><trkpt lat="38.113585" lon="13.3774083"><ele>8.0</ele><time>2026-05-06T08:23:43.036Z</time></trkpt><trkpt lat="38.1135167" lon="13.3774767"><ele>7.666666666666667</ele><time>2026-05-06T08:23:52.036Z</time></trkpt><trkpt lat="38.1135767" lon="13.3775383"><ele>7.333333333333334</ele><time>2026-05-06T08:23:59.036Z</time></trkpt><trkpt lat="38.1136817" lon="13.3774867"><ele>7.0</ele><time>2026-05-06T08:24:01.036Z</time></trkpt><trkpt lat="38.11374" lon="13.377435"><ele>7.0</ele><time>2026-05-06T08:24:02.036Z</time></trkpt><trkpt lat="38.1138067" lon="13.37737"><ele>6.999999999999999</ele><time>2026-05-06T08:24:03.036Z</time></trkpt><trkpt lat="38.11389" lon="13.3772933"><ele>6.999999999999999</ele><time>2026-05-06T08:24:04.036Z</time></trkpt><trkpt lat="38.1139833" lon="13.3772217"><ele>7.0</ele><time>2026-05-06T08:24:05.036Z</time></trkpt><trkpt lat="38.114085" lon="13.377155"><ele>7.0</ele><time>2026-05-06T08:24:06.036Z</time></trkpt><trkpt lat="38.1141883" lon="13.3770883"><ele>7.5</ele><time>2026-05-06T08:24:07.036Z</time></trkpt><trkpt lat="38.1142917" lon="13.37702"><ele>8.0</ele><time>2026-05-06T08:24:08.036Z</time></trkpt><trkpt lat="38.1143933" lon="13.376945"><ele>8.5</ele><time>2026-05-06T08:24:09.036Z</time></trkpt><trkpt lat="38.114495" lon="13.3768683"><ele>9.0</ele><time>2026-05-06T08:24:10.036Z</time></trkpt><trkpt lat="38.114595" lon="13.3767933"><ele>9.0</ele><time>2026-05-06T08:24:11.036Z</time></trkpt><trkpt lat="38.114695" lon="13.37672"><ele>9.0</ele><time>2026-05-06T08:24:12.036Z</time></trkpt><trkpt lat="38.114795" lon="13.376645"><ele>9.0</ele><time>2026-05-06T08:24:13.036Z</time></trkpt><trkpt lat="38.11489" lon="13.37657"><ele>9.0</ele><time>2026-05-06T08:24:14.036Z</time></trkpt><trkpt lat="38.11498" lon="13.3764983"><ele>8.8</ele><time>2026-05-06T08:24:15.036Z</time></trkpt><trkpt lat="38.1150717" lon="13.37642"><ele>8.600000000000001</ele><time>2026-05-06T08:24:16.036Z</time></trkpt><trkpt lat="38.1151633" lon="13.3763533"><ele>8.4</ele><time>2026-05-06T08:24:17.036Z</time></trkpt><trkpt lat="38.1152483" lon="13.3762783"><ele>8.200000000000001</ele><time>2026-05-06T08:24:18.036Z</time></trkpt><trkpt lat="38.1153267" lon="13.3761917"><ele>8.0</ele><time>2026-05-06T08:24:19.036Z</time></trkpt><trkpt lat="38.1154" lon="13.3761"><ele>8.0</ele><time>2026-05-06T08:24:20.036Z</time></trkpt><trkpt lat="38.1154733" lon="13.3760017"><ele>8.0</ele><time>2026-05-06T08:24:21.036Z</time></trkpt><trkpt lat="38.115545" lon="13.3759033"><ele>8.0</ele><time>2026-05-06T08:24:22.036Z</time></trkpt><trkpt lat="38.115615" lon="13.3757967"><ele>8.0</ele><time>2026-05-06T08:24:23.036Z</time></trkpt><trkpt lat="38.115685" lon="13.375695"><ele>8.0</ele><time>2026-05-06T08:24:24.036Z</time></trkpt><trkpt lat="38.11575" lon="13.3755917"><ele>7.800000000000001</ele><time>2026-05-06T08:24:25.036Z</time></trkpt><trkpt lat="38.1158217" lon="13.3754883"><ele>7.6000000000000005</ele><time>2026-05-06T08:24:26.036Z</time></trkpt><trkpt lat="38.1158767" lon="13.3753917"><ele>7.3999999999999995</ele><time>2026-05-06T08:24:27.036Z</time></trkpt><trkpt lat="38.1159317" lon="13.3753117"><ele>7.199999999999999</ele><time>2026-05-06T08:24:28.035Z</time></trkpt><trkpt lat="38.1159917" lon="13.3752317"><ele>7.0</ele><time>2026-05-06T08:24:29.036Z</time></trkpt><trkpt lat="38.116045" lon="13.37516"><ele>7.000000000000001</ele><time>2026-05-06T08:24:30.036Z</time></trkpt><trkpt lat="38.1160883" lon="13.37509"><ele>7.0</ele><time>2026-05-06T08:24:31.036Z</time></trkpt><trkpt lat="38.1161283" lon="13.3750233"><ele>7.0</ele><time>2026-05-06T08:24:32.036Z</time></trkpt><trkpt lat="38.1161983" lon="13.3749167"><ele>7.0</ele><time>2026-05-06T08:24:34.036Z</time></trkpt><trkpt lat="38.1162567" lon="13.3748383"><ele>7.000000000000001</ele><time>2026-05-06T08:24:36.036Z</time></trkpt><trkpt lat="38.1163217" lon="13.3747583"><ele>7.0</ele><time>2026-05-06T08:24:38.036Z</time></trkpt><trkpt lat="38.1163817" lon="13.3746683"><ele>6.6</ele><time>2026-05-06T08:24:40.035Z</time></trkpt><trkpt lat="38.1164417" lon="13.374605"><ele>6.199999999999999</ele><time>2026-05-06T08:24:42.035Z</time></trkpt><trkpt lat="38.1165033" lon="13.3745233"><ele>5.8</ele><time>2026-05-06T08:24:44.035Z</time></trkpt><trkpt lat="38.1165817" lon="13.3744033"><ele>5.4</ele><time>2026-05-06T08:24:46.035Z</time></trkpt><trkpt lat="38.1166683" lon="13.3742717"><ele>5.0</ele><time>2026-05-06T08:24:48.035Z</time></trkpt><trkpt lat="38.1167233" lon="13.3742"><ele>5.0</ele><time>2026-05-06T08:24:49.035Z</time></trkpt><trkpt lat="38.1167833" lon="13.3741217"><ele>5.0</ele><time>2026-05-06T08:24:50.035Z</time></trkpt><trkpt lat="38.1168483" lon="13.374045"><ele>5.0</ele><time>2026-05-06T08:24:51.035Z</time></trkpt><trkpt lat="38.11691" lon="13.3739633"><ele>5.0</ele><time>2026-05-06T08:24:52.035Z</time></trkpt><trkpt lat="38.1169767" lon="13.37388"><ele>5.0</ele><time>2026-05-06T08:24:53.035Z</time></trkpt><trkpt lat="38.1170367" lon="13.3738"><ele>5.0</ele><time>2026-05-06T08:24:54.035Z</time></trkpt><trkpt lat="38.1171" lon="13.373725"><ele>5.2</ele><time>2026-05-06T08:24:55.035Z</time></trkpt><trkpt lat="38.1171683" lon="13.3736467"><ele>5.4</ele><time>2026-05-06T08:24:56.035Z</time></trkpt><trkpt lat="38.1172367" lon="13.3735617"><ele>5.6</ele><time>2026-05-06T08:24:57.035Z</time></trkpt><trkpt lat="38.1173083" lon="13.3734867"><ele>5.8</ele><time>2026-05-06T08:24:58.035Z</time></trkpt><trkpt lat="38.1173733" lon="13.3734133"><ele>6.0</ele><time>2026-05-06T08:24:59.035Z</time></trkpt><trkpt lat="38.1174467" lon="13.3733383"><ele>6.0</ele><time>2026-05-06T08:25:00.035Z</time></trkpt><trkpt lat="38.11752" lon="13.3732717"><ele>6.0</ele><time>2026-05-06T08:25:01.035Z</time></trkpt><trkpt lat="38.1176017" lon="13.373205"><ele>6.0</ele><time>2026-05-06T08:25:02.035Z</time></trkpt><trkpt lat="38.1176817" lon="13.3731383"><ele>6.0</ele><time>2026-05-06T08:25:03.035Z</time></trkpt><trkpt lat="38.117755" lon="13.37306"><ele>6.0</ele><time>2026-05-06T08:25:04.035Z</time></trkpt><trkpt lat="38.1178333" lon="13.372985"><ele>6.4</ele><time>2026-05-06T08:25:05.035Z</time></trkpt><trkpt lat="38.1179117" lon="13.37292"><ele>6.8</ele><time>2026-05-06T08:25:06.035Z</time></trkpt><trkpt lat="38.1179917" lon="13.372855"><ele>7.200000000000001</ele><time>2026-05-06T08:25:07.035Z</time></trkpt><trkpt lat="38.1180767" lon="13.3727967"><ele>7.6000000000000005</ele><time>2026-05-06T08:25:08.035Z</time></trkpt><trkpt lat="38.1181617" lon="13.3727283"><ele>8.0</ele><time>2026-05-06T08:25:09.035Z</time></trkpt><trkpt lat="38.1182517" lon="13.3726683"><ele>8.0</ele><time>2026-05-06T08:25:10.035Z</time></trkpt><trkpt lat="38.1183383" lon="13.372605"><ele>8.0</ele><time>2026-05-06T08:25:11.035Z</time></trkpt><trkpt lat="38.1184217" lon="13.372545"><ele>8.0</ele><time>2026-05-06T08:25:12.035Z</time></trkpt><trkpt lat="38.1185" lon="13.3724867"><ele>8.0</ele><time>2026-05-06T08:25:13.035Z</time></trkpt><trkpt lat="38.11858" lon="13.3724267"><ele>8.0</ele><time>2026-05-06T08:25:14.035Z</time></trkpt><trkpt lat="38.118665" lon="13.37237"><ele>8.0</ele><time>2026-05-06T08:25:15.035Z</time></trkpt><trkpt lat="38.1187483" lon="13.372305"><ele>8.0</ele><time>2026-05-06T08:25:16.035Z</time></trkpt><trkpt lat="38.118835" lon="13.37225"><ele>8.0</ele><time>2026-05-06T08:25:17.035Z</time></trkpt><trkpt lat="38.1189217" lon="13.3721967"><ele>8.0</ele><time>2026-05-06T08:25:18.035Z</time></trkpt><trkpt lat="38.1190067" lon="13.372135"><ele>8.0</ele><time>2026-05-06T08:25:19.035Z</time></trkpt><trkpt lat="38.11909" lon="13.3720783"><ele>8.4</ele><time>2026-05-06T08:25:20.034Z</time></trkpt><trkpt lat="38.1191733" lon="13.3720117"><ele>8.8</ele><time>2026-05-06T08:25:21.035Z</time></trkpt><trkpt lat="38.1192583" lon="13.3719533"><ele>9.2</ele><time>2026-05-06T08:25:22.035Z</time></trkpt><trkpt lat="38.119345" lon="13.3718917"><ele>9.6</ele><time>2026-05-06T08:25:23.035Z</time></trkpt><trkpt lat="38.1194283" lon="13.3718283"><ele>10.0</ele><time>2026-05-06T08:25:24.035Z</time></trkpt><trkpt lat="38.1195083" lon="13.3717517"><ele>10.0</ele><time>2026-05-06T08:25:25.035Z</time></trkpt><trkpt lat="38.1195933" lon="13.3716983"><ele>10.0</ele><time>2026-05-06T08:25:26.035Z</time></trkpt><trkpt lat="38.11968" lon="13.3716333"><ele>10.0</ele><time>2026-05-06T08:25:27.023Z</time></trkpt><trkpt lat="38.1197667" lon="13.3715733"><ele>10.0</ele><time>2026-05-06T08:25:28.034Z</time></trkpt><trkpt lat="38.1198517" lon="13.3715117"><ele>10.0</ele><time>2026-05-06T08:25:29.035Z</time></trkpt><trkpt lat="38.1199383" lon="13.3714383"><ele>9.6</ele><time>2026-05-06T08:25:30.035Z</time></trkpt><trkpt lat="38.1200233" lon="13.3713583"><ele>9.2</ele><time>2026-05-06T08:25:31.035Z</time></trkpt><trkpt lat="38.1200867" lon="13.3712683"><ele>8.8</ele><time>2026-05-06T08:25:32.035Z</time></trkpt><trkpt lat="38.12013" lon="13.3711683"><ele>8.4</ele><time>2026-05-06T08:25:33.035Z</time></trkpt><trkpt lat="38.1201533" lon="13.3710567"><ele>8.0</ele><time>2026-05-06T08:25:34.035Z</time></trkpt><trkpt lat="38.120155" lon="13.3709383"><ele>7.800000000000001</ele><time>2026-05-06T08:25:35.035Z</time></trkpt><trkpt lat="38.12015" lon="13.3708217"><ele>7.6000000000000005</ele><time>2026-05-06T08:25:36.035Z</time></trkpt><trkpt lat="38.1201317" lon="13.3707167"><ele>7.3999999999999995</ele><time>2026-05-06T08:25:37.035Z</time></trkpt><trkpt lat="38.1200817" lon="13.3706133"><ele>7.199999999999999</ele><time>2026-05-06T08:25:38.035Z</time></trkpt><trkpt lat="38.1200283" lon="13.3704967"><ele>7.0</ele><time>2026-05-06T08:25:39.035Z</time></trkpt><trkpt lat="38.119985" lon="13.3703967"><ele>6.8</ele><time>2026-05-06T08:25:40.035Z</time></trkpt><trkpt lat="38.119935" lon="13.3702867"><ele>6.6</ele><time>2026-05-06T08:25:41.035Z</time></trkpt><trkpt lat="38.1198917" lon="13.3701833"><ele>6.3999999999999995</ele><time>2026-05-06T08:25:42.035Z</time></trkpt><trkpt lat="38.1198533" lon="13.3700817"><ele>6.199999999999999</ele><time>2026-05-06T08:25:43.035Z</time></trkpt><trkpt lat="38.1198117" lon="13.369985"><ele>6.0</ele><time>2026-05-06T08:25:44.035Z</time></trkpt><trkpt lat="38.119775" lon="13.3698883"><ele>6.666666666666667</ele><time>2026-05-06T08:25:45.035Z</time></trkpt><trkpt lat="38.1197433" lon="13.36979"><ele>7.333333333333334</ele><time>2026-05-06T08:25:46.035Z</time></trkpt><trkpt lat="38.119705" lon="13.36969"><ele>8.0</ele><time>2026-05-06T08:25:47.035Z</time></trkpt><trkpt lat="38.1196667" lon="13.3695883"><ele>8.666666666666668</ele><time>2026-05-06T08:25:48.035Z</time></trkpt><trkpt lat="38.1196183" lon="13.3694833"><ele>9.333333333333334</ele><time>2026-05-06T08:25:49.035Z</time></trkpt><trkpt lat="38.1195733" lon="13.3693867"><ele>10.0</ele><time>2026-05-06T08:25:50.035Z</time></trkpt><trkpt lat="38.1195267" lon="13.369295"><ele>10.0</ele><time>2026-05-06T08:25:51.035Z</time></trkpt><trkpt lat="38.1194717" lon="13.3691967"><ele>10.0</ele><time>2026-05-06T08:25:52.035Z</time></trkpt><trkpt lat="38.1194083" lon="13.369095"><ele>10.0</ele><time>2026-05-06T08:25:53.035Z</time></trkpt><trkpt lat="38.1193433" lon="13.369005"><ele>10.0</ele><time>2026-05-06T08:25:54.035Z</time></trkpt><trkpt lat="38.1192717" lon="13.3689133"><ele>10.0</ele><time>2026-05-06T08:25:55.035Z</time></trkpt><trkpt lat="38.1192017" lon="13.3688233"><ele>10.0</ele><time>2026-05-06T08:25:56.035Z</time></trkpt><trkpt lat="38.1191333" lon="13.3687267"><ele>10.0</ele><time>2026-05-06T08:25:57.035Z</time></trkpt><trkpt lat="38.1190717" lon="13.3686267"><ele>10.0</ele><time>2026-05-06T08:25:58.035Z</time></trkpt><trkpt lat="38.1190067" lon="13.36851"><ele>10.0</ele><time>2026-05-06T08:25:59.035Z</time></trkpt><trkpt lat="38.11895" lon="13.3684"><ele>10.0</ele><time>2026-05-06T08:26:00.035Z</time></trkpt><trkpt lat="38.1188983" lon="13.36828"><ele>10.0</ele><time>2026-05-06T08:26:01.035Z</time></trkpt><trkpt lat="38.1188583" lon="13.3681717"><ele>10.0</ele><time>2026-05-06T08:26:02.035Z</time></trkpt><trkpt lat="38.1188233" lon="13.3680583"><ele>10.0</ele><time>2026-05-06T08:26:03.035Z</time></trkpt><trkpt lat="38.118795" lon="13.3679467"><ele>10.0</ele><time>2026-05-06T08:26:04.035Z</time></trkpt><trkpt lat="38.118785" lon="13.3678417"><ele>10.0</ele><time>2026-05-06T08:26:05.035Z</time></trkpt><trkpt lat="38.1187917" lon="13.36774"><ele>10.0</ele><time>2026-05-06T08:26:06.035Z</time></trkpt><trkpt lat="38.1188033" lon="13.3676417"><ele>10.0</ele><time>2026-05-06T08:26:07.035Z</time></trkpt><trkpt lat="38.118825" lon="13.367545"><ele>10.0</ele><time>2026-05-06T08:26:08.035Z</time></trkpt><trkpt lat="38.118855" lon="13.3674433"><ele>10.0</ele><time>2026-05-06T08:26:09.035Z</time></trkpt><trkpt lat="38.1188917" lon="13.3673483"><ele>10.0</ele><time>2026-05-06T08:26:10.035Z</time></trkpt><trkpt lat="38.1189283" lon="13.3672667"><ele>10.0</ele><time>2026-05-06T08:26:11.035Z</time></trkpt><trkpt lat="38.1189667" lon="13.3672"><ele>10.0</ele><time>2026-05-06T08:26:12.035Z</time></trkpt><trkpt lat="38.1190167" lon="13.3671467"><ele>9.6</ele><time>2026-05-06T08:26:13.035Z</time></trkpt><trkpt lat="38.119115" lon="13.3670617"><ele>9.2</ele><time>2026-05-06T08:26:15.035Z</time></trkpt><trkpt lat="38.1191767" lon="13.3670033"><ele>8.8</ele><time>2026-05-06T08:26:17.035Z</time></trkpt><trkpt lat="38.1192383" lon="13.3669633"><ele>8.4</ele><time>2026-05-06T08:26:37.035Z</time></trkpt><trkpt lat="38.1193167" lon="13.366895"><ele>8.0</ele><time>2026-05-06T08:26:40.035Z</time></trkpt><trkpt lat="38.1194283" lon="13.3668067"><ele>8.0</ele><time>2026-05-06T08:26:42.035Z</time></trkpt><trkpt lat="38.1195167" lon="13.3667583"><ele>8.0</ele><time>2026-05-06T08:26:43.035Z</time></trkpt><trkpt lat="38.119635" lon="13.3667183"><ele>8.0</ele><time>2026-05-06T08:26:44.035Z</time></trkpt><trkpt lat="38.1198033" lon="13.3666883"><ele>8.0</ele><time>2026-05-06T08:26:45.035Z</time></trkpt><trkpt lat="38.1199633" lon="13.3666567"><ele>8.25</ele><time>2026-05-06T08:26:46.035Z</time></trkpt><trkpt lat="38.1201183" lon="13.3666283"><ele>8.5</ele><time>2026-05-06T08:26:47.035Z</time></trkpt><trkpt lat="38.1202633" lon="13.36659"><ele>8.75</ele><time>2026-05-06T08:26:48.035Z</time></trkpt><trkpt lat="38.120395" lon="13.36655"><ele>9.0</ele><time>2026-05-06T08:26:49.035Z</time></trkpt><trkpt lat="38.12052" lon="13.3664983"><ele>9.0</ele><time>2026-05-06T08:26:50.035Z</time></trkpt><trkpt lat="38.1206333" lon="13.3664267"><ele>9.0</ele><time>2026-05-06T08:26:51.035Z</time></trkpt><trkpt lat="38.1207417" lon="13.36634"><ele>9.0</ele><time>2026-05-06T08:26:52.035Z</time></trkpt><trkpt lat="38.1208567" lon="13.3662583"><ele>9.0</ele><time>2026-05-06T08:26:53.035Z</time></trkpt><trkpt lat="38.120975" lon="13.3661867"><ele>9.25</ele><time>2026-05-06T08:26:54.035Z</time></trkpt><trkpt lat="38.1210933" lon="13.3661167"><ele>9.5</ele><time>2026-05-06T08:26:55.035Z</time></trkpt><trkpt lat="38.1212167" lon="13.3660367"><ele>9.75</ele><time>2026-05-06T08:26:56.035Z</time></trkpt><trkpt lat="38.12135" lon="13.3659633"><ele>10.0</ele><time>2026-05-06T08:26:57.035Z</time></trkpt><trkpt lat="38.1214783" lon="13.365885"><ele>10.333333333333334</ele><time>2026-05-06T08:26:58.034Z</time></trkpt><trkpt lat="38.1216083" lon="13.3658067"><ele>10.666666666666666</ele><time>2026-05-06T08:26:59.035Z</time></trkpt><trkpt lat="38.1217483" lon="13.3657283"><ele>11.0</ele><time>2026-05-06T08:27:00.035Z</time></trkpt><trkpt lat="38.1218933" lon="13.3656467"><ele>11.0</ele><time>2026-05-06T08:27:01.035Z</time></trkpt><trkpt lat="38.12204" lon="13.3655633"><ele>11.0</ele><time>2026-05-06T08:27:02.035Z</time></trkpt><trkpt lat="38.12219" lon="13.3654633"><ele>11.0</ele><time>2026-05-06T08:27:03.035Z</time></trkpt><trkpt lat="38.1223383" lon="13.3653733"><ele>10.666666666666666</ele><time>2026-05-06T08:27:04.035Z</time></trkpt><trkpt lat="38.1224867" lon="13.3652783"><ele>10.333333333333334</ele><time>2026-05-06T08:27:05.035Z</time></trkpt><trkpt lat="38.1226433" lon="13.36518"><ele>10.0</ele><time>2026-05-06T08:27:06.035Z</time></trkpt><trkpt lat="38.1228083" lon="13.3650917"><ele>10.0</ele><time>2026-05-06T08:27:07.035Z</time></trkpt><trkpt lat="38.1229733" lon="13.3649917"><ele>10.0</ele><time>2026-05-06T08:27:08.035Z</time></trkpt><trkpt lat="38.1231317" lon="13.3649"><ele>10.0</ele><time>2026-05-06T08:27:09.035Z</time></trkpt><trkpt lat="38.1232867" lon="13.364815"><ele>11.0</ele><time>2026-05-06T08:27:10.035Z</time></trkpt><trkpt lat="38.1234283" lon="13.3647417"><ele>12.0</ele><time>2026-05-06T08:27:11.035Z</time></trkpt><trkpt lat="38.1235517" lon="13.364675"><ele>13.0</ele><time>2026-05-06T08:27:12.035Z</time></trkpt><trkpt lat="38.1236733" lon="13.3646133"><ele>14.0</ele><time>2026-05-06T08:27:13.035Z</time></trkpt><trkpt lat="38.1237983" lon="13.3645533"><ele>14.75</ele><time>2026-05-06T08:27:14.035Z</time></trkpt><trkpt lat="38.1239317" lon="13.364485"><ele>15.5</ele><time>2026-05-06T08:27:15.035Z</time></trkpt><trkpt lat="38.1240633" lon="13.3643917"><ele>16.25</ele><time>2026-05-06T08:27:16.035Z</time></trkpt><trkpt lat="38.1241983" lon="13.364295"><ele>17.0</ele><time>2026-05-06T08:27:17.035Z</time></trkpt><trkpt lat="38.1243283" lon="13.36421"><ele>17.2</ele><time>2026-05-06T08:27:18.035Z</time></trkpt><trkpt lat="38.124445" lon="13.3641383"><ele>17.4</ele><time>2026-05-06T08:27:19.035Z</time></trkpt><trkpt lat="38.124545" lon="13.3640783"><ele>17.6</ele><time>2026-05-06T08:27:20.035Z</time></trkpt><trkpt lat="38.12463" lon="13.3640333"><ele>17.8</ele><time>2026-05-06T08:27:21.035Z</time></trkpt><trkpt lat="38.1246967" lon="13.36399"><ele>18.0</ele><time>2026-05-06T08:27:22.035Z</time></trkpt><trkpt lat="38.1247667" lon="13.363945"><ele>18.0</ele><time>2026-05-06T08:27:23.035Z</time></trkpt><trkpt lat="38.1248483" lon="13.3638983"><ele>18.0</ele><time>2026-05-06T08:27:24.035Z</time></trkpt><trkpt lat="38.1249533" lon="13.363835"><ele>18.0</ele><time>2026-05-06T08:27:25.034Z</time></trkpt><trkpt lat="38.1250633" lon="13.3637767"><ele>18.0</ele><time>2026-05-06T08:27:26.034Z</time></trkpt><trkpt lat="38.12516" lon="13.3637217"><ele>18.0</ele><time>2026-05-06T08:27:27.035Z</time></trkpt><trkpt lat="38.1252367" lon="13.3636667"><ele>18.166666666666668</ele><time>2026-05-06T08:27:28.035Z</time></trkpt><trkpt lat="38.1253" lon="13.3636217"><ele>18.333333333333332</ele><time>2026-05-06T08:27:29.035Z</time></trkpt><trkpt lat="38.1253783" lon="13.363565"><ele>18.5</ele><time>2026-05-06T08:27:31.035Z</time></trkpt><trkpt lat="38.1254633" lon="13.3635217"><ele>18.666666666666664</ele><time>2026-05-06T08:27:47.035Z</time></trkpt><trkpt lat="38.1255217" lon="13.3634817"><ele>18.833333333333332</ele><time>2026-05-06T08:27:48.035Z</time></trkpt><trkpt lat="38.1255917" lon="13.36343"><ele>19.0</ele><time>2026-05-06T08:27:49.035Z</time></trkpt><trkpt lat="38.1256767" lon="13.3633717"><ele>16.75</ele><time>2026-05-06T08:27:50.035Z</time></trkpt><trkpt lat="38.125785" lon="13.3633017"><ele>14.5</ele><time>2026-05-06T08:27:51.035Z</time></trkpt><trkpt lat="38.1259033" lon="13.3632183"><ele>12.25</ele><time>2026-05-06T08:27:52.034Z</time></trkpt><trkpt lat="38.1260367" lon="13.36313"><ele>10.0</ele><time>2026-05-06T08:27:53.035Z</time></trkpt><trkpt lat="38.1261883" lon="13.3630917"><ele>10.0</ele><time>2026-05-06T08:27:54.034Z</time></trkpt><trkpt lat="38.1263017" lon="13.36304"><ele>10.0</ele><time>2026-05-06T08:27:55.035Z</time></trkpt><trkpt lat="38.1264" lon="13.3629767"><ele>10.0</ele><time>2026-05-06T08:27:56.035Z</time></trkpt><trkpt lat="38.1264883" lon="13.3629117"><ele>10.0</ele><time>2026-05-06T08:27:57.035Z</time></trkpt><trkpt lat="38.1265733" lon="13.362855"><ele>10.0</ele><time>2026-05-06T08:27:58.035Z</time></trkpt><trkpt lat="38.12665" lon="13.3628083"><ele>11.0</ele><time>2026-05-06T08:27:59.035Z</time></trkpt><trkpt lat="38.126715" lon="13.362765"><ele>12.0</ele><time>2026-05-06T08:28:00.035Z</time></trkpt><trkpt lat="38.12678" lon="13.3627233"><ele>13.0</ele><time>2026-05-06T08:28:01.035Z</time></trkpt><trkpt lat="38.1268483" lon="13.3626867"><ele>14.0</ele><time>2026-05-06T08:28:02.035Z</time></trkpt><trkpt lat="38.126905" lon="13.36265"><ele>14.999999999999998</ele><time>2026-05-06T08:28:03.035Z</time></trkpt><trkpt lat="38.127035" lon="13.36257"><ele>16.0</ele><time>2026-05-06T08:28:05.034Z</time></trkpt><trkpt lat="38.1271167" lon="13.36252"><ele>16.0</ele><time>2026-05-06T08:28:06.035Z</time></trkpt><trkpt lat="38.1272067" lon="13.3624633"><ele>16.0</ele><time>2026-05-06T08:28:07.035Z</time></trkpt><trkpt lat="38.1273" lon="13.3624067"><ele>16.0</ele><time>2026-05-06T08:28:08.035Z</time></trkpt><trkpt lat="38.127395" lon="13.3623467"><ele>16.0</ele><time>2026-05-06T08:28:09.035Z</time></trkpt><trkpt lat="38.1274883" lon="13.3622917"><ele>16.0</ele><time>2026-05-06T08:28:10.035Z</time></trkpt><trkpt lat="38.127575" lon="13.3622367"><ele>15.5</ele><time>2026-05-06T08:28:11.035Z</time></trkpt><trkpt lat="38.127665" lon="13.36218"><ele>15.0</ele><time>2026-05-06T08:28:12.035Z</time></trkpt><trkpt lat="38.127765" lon="13.3621217"><ele>14.5</ele><time>2026-05-06T08:28:13.035Z</time></trkpt><trkpt lat="38.127875" lon="13.36205"><ele>14.0</ele><time>2026-05-06T08:28:14.035Z</time></trkpt><trkpt lat="38.12799" lon="13.36197"><ele>14.0</ele><time>2026-05-06T08:28:15.035Z</time></trkpt><trkpt lat="38.1281083" lon="13.3618917"><ele>14.0</ele><time>2026-05-06T08:28:16.035Z</time></trkpt><trkpt lat="38.1282283" lon="13.3618183"><ele>14.0</ele><time>2026-05-06T08:28:17.035Z</time></trkpt><trkpt lat="38.1283483" lon="13.36175"><ele>14.0</ele><time>2026-05-06T08:28:18.035Z</time></trkpt><trkpt lat="38.128465" lon="13.36169"><ele>13.25</ele><time>2026-05-06T08:28:19.035Z</time></trkpt><trkpt lat="38.1285817" lon="13.3616267"><ele>12.5</ele><time>2026-05-06T08:28:20.035Z</time></trkpt><trkpt lat="38.1286967" lon="13.361555"><ele>11.75</ele><time>2026-05-06T08:28:21.035Z</time></trkpt><trkpt lat="38.128815" lon="13.36148"><ele>11.0</ele><time>2026-05-06T08:28:22.035Z</time></trkpt><trkpt lat="38.1289367" lon="13.3614083"><ele>11.25</ele><time>2026-05-06T08:28:23.035Z</time></trkpt><trkpt lat="38.1290533" lon="13.36133"><ele>11.5</ele><time>2026-05-06T08:28:24.035Z</time></trkpt><trkpt lat="38.1291717" lon="13.36126"><ele>11.75</ele><time>2026-05-06T08:28:25.035Z</time></trkpt><trkpt lat="38.1292883" lon="13.361195"><ele>12.0</ele><time>2026-05-06T08:28:26.035Z</time></trkpt><trkpt lat="38.1294017" lon="13.36113"><ele>11.5</ele><time>2026-05-06T08:28:27.035Z</time></trkpt><trkpt lat="38.1295133" lon="13.3610617"><ele>11.0</ele><time>2026-05-06T08:28:28.035Z</time></trkpt><trkpt lat="38.129615" lon="13.360985"><ele>10.5</ele><time>2026-05-06T08:28:29.034Z</time></trkpt><trkpt lat="38.1297267" lon="13.3609133"><ele>10.0</ele><time>2026-05-06T08:28:30.035Z</time></trkpt><trkpt lat="38.1298367" lon="13.3608533"><ele>10.0</ele><time>2026-05-06T08:28:31.035Z</time></trkpt><trkpt lat="38.1299433" lon="13.3607883"><ele>10.0</ele><time>2026-05-06T08:28:32.035Z</time></trkpt><trkpt lat="38.13005" lon="13.36073"><ele>10.0</ele><time>2026-05-06T08:28:33.035Z</time></trkpt><trkpt lat="38.1301583" lon="13.3606733"><ele>10.0</ele><time>2026-05-06T08:28:34.035Z</time></trkpt><trkpt lat="38.130265" lon="13.3606217"><ele>10.0</ele><time>2026-05-06T08:28:35.035Z</time></trkpt><trkpt lat="38.13038" lon="13.360575"><ele>10.0</ele><time>2026-05-06T08:28:36.035Z</time></trkpt><trkpt lat="38.1305133" lon="13.360555"><ele>10.0</ele><time>2026-05-06T08:28:37.035Z</time></trkpt><trkpt lat="38.130635" lon="13.3605267"><ele>10.0</ele><time>2026-05-06T08:28:38.035Z</time></trkpt><trkpt lat="38.130755" lon="13.36052"><ele>9.0</ele><time>2026-05-06T08:28:39.035Z</time></trkpt><trkpt lat="38.1308783" lon="13.3605067"><ele>8.0</ele><time>2026-05-06T08:28:40.035Z</time></trkpt><trkpt lat="38.130995" lon="13.3604767"><ele>7.0</ele><time>2026-05-06T08:28:41.035Z</time></trkpt><trkpt lat="38.1311233" lon="13.3604333"><ele>6.0</ele><time>2026-05-06T08:28:42.035Z</time></trkpt><trkpt lat="38.1312417" lon="13.36038"><ele>6.0</ele><time>2026-05-06T08:28:43.035Z</time></trkpt><trkpt lat="38.13136" lon="13.3603183"><ele>6.0</ele><time>2026-05-06T08:28:44.035Z</time></trkpt><trkpt lat="38.13148" lon="13.3602583"><ele>6.0</ele><time>2026-05-06T08:28:45.035Z</time></trkpt><trkpt lat="38.131595" lon="13.3602"><ele>6.0</ele><time>2026-05-06T08:28:46.035Z</time></trkpt><trkpt lat="38.1317017" lon="13.360145"><ele>5.6</ele><time>2026-05-06T08:28:47.035Z</time></trkpt><trkpt lat="38.1318033" lon="13.360095"><ele>5.199999999999999</ele><time>2026-05-06T08:28:48.035Z</time></trkpt><trkpt lat="38.131905" lon="13.3600533"><ele>4.800000000000001</ele><time>2026-05-06T08:28:49.035Z</time></trkpt><trkpt lat="38.1320017" lon="13.360005"><ele>4.4</ele><time>2026-05-06T08:28:50.035Z</time></trkpt><trkpt lat="38.13209" lon="13.359955"><ele>4.0</ele><time>2026-05-06T08:28:51.035Z</time></trkpt><trkpt lat="38.1321833" lon="13.3599067"><ele>4.0</ele><time>2026-05-06T08:28:52.035Z</time></trkpt><trkpt lat="38.1322667" lon="13.3598667"><ele>4.0</ele><time>2026-05-06T08:28:53.035Z</time></trkpt><trkpt lat="38.132335" lon="13.3598317"><ele>4.0</ele><time>2026-05-06T08:28:54.034Z</time></trkpt><trkpt lat="38.132425" lon="13.359785"><ele>4.0</ele><time>2026-05-06T08:28:56.035Z</time></trkpt><trkpt lat="38.1325217" lon="13.3597517"><ele>4.0</ele><time>2026-05-06T08:28:58.035Z</time></trkpt><trkpt lat="38.1326417" lon="13.3596983"><ele>4.5</ele><time>2026-05-06T08:29:00.035Z</time></trkpt><trkpt lat="38.13271" lon="13.3596667"><ele>5.0</ele><time>2026-05-06T08:29:01.035Z</time></trkpt><trkpt lat="38.132785" lon="13.3596267"><ele>5.5</ele><time>2026-05-06T08:29:02.035Z</time></trkpt><trkpt lat="38.1328617" lon="13.3595883"><ele>6.0</ele><time>2026-05-06T08:29:03.034Z</time></trkpt><trkpt lat="38.132935" lon="13.3595433"><ele>6.500000000000001</ele><time>2026-05-06T08:29:04.035Z</time></trkpt><trkpt lat="38.133005" lon="13.3595"><ele>7.0</ele><time>2026-05-06T08:29:05.035Z</time></trkpt><trkpt lat="38.1330817" lon="13.3594567"><ele>7.0</ele><time>2026-05-06T08:29:06.035Z</time></trkpt><trkpt lat="38.1331583" lon="13.35942"><ele>6.999999999999999</ele><time>2026-05-06T08:29:07.035Z</time></trkpt><trkpt lat="38.1332417" lon="13.3593767"><ele>6.999999999999999</ele><time>2026-05-06T08:29:08.035Z</time></trkpt><trkpt lat="38.1333267" lon="13.35933"><ele>7.0</ele><time>2026-05-06T08:29:09.035Z</time></trkpt><trkpt lat="38.133415" lon="13.3592833"><ele>7.0</ele><time>2026-05-06T08:29:10.035Z</time></trkpt><trkpt lat="38.1335017" lon="13.35923"><ele>7.000000000000001</ele><time>2026-05-06T08:29:11.035Z</time></trkpt><trkpt lat="38.13359" lon="13.359175"><ele>7.0</ele><time>2026-05-06T08:29:12.035Z</time></trkpt><trkpt lat="38.133675" lon="13.3591217"><ele>7.0</ele><time>2026-05-06T08:29:13.035Z</time></trkpt><trkpt lat="38.1337517" lon="13.3590667"><ele>7.0</ele><time>2026-05-06T08:29:14.035Z</time></trkpt><trkpt lat="38.13382" lon="13.3590233"><ele>7.000000000000001</ele><time>2026-05-06T08:29:15.035Z</time></trkpt><trkpt lat="38.1338833" lon="13.358975"><ele>7.0</ele><time>2026-05-06T08:29:16.034Z</time></trkpt><trkpt lat="38.133945" lon="13.3589267"><ele>7.000000000000001</ele><time>2026-05-06T08:29:17.035Z</time></trkpt><trkpt lat="38.13401" lon="13.3588817"><ele>7.0</ele><time>2026-05-06T08:29:18.035Z</time></trkpt><trkpt lat="38.1340783" lon="13.35884"><ele>7.0</ele><time>2026-05-06T08:29:19.035Z</time></trkpt><trkpt lat="38.1341467" lon="13.3588033"><ele>7.0</ele><time>2026-05-06T08:29:20.035Z</time></trkpt><trkpt lat="38.1342217" lon="13.35877"><ele>7.000000000000001</ele><time>2026-05-06T08:29:21.035Z</time></trkpt><trkpt lat="38.1343017" lon="13.358745"><ele>7.0</ele><time>2026-05-06T08:29:22.035Z</time></trkpt><trkpt lat="38.1343767" lon="13.3587317"><ele>7.833333333333334</ele><time>2026-05-06T08:29:23.034Z</time></trkpt><trkpt lat="38.1344617" lon="13.35872"><ele>8.666666666666668</ele><time>2026-05-06T08:29:24.035Z</time></trkpt><trkpt lat="38.13455" lon="13.3587117"><ele>9.5</ele><time>2026-05-06T08:29:25.035Z</time></trkpt><trkpt lat="38.1346367" lon="13.3587117"><ele>10.333333333333334</ele><time>2026-05-06T08:29:26.035Z</time></trkpt><trkpt lat="38.1347267" lon="13.35871"><ele>11.166666666666666</ele><time>2026-05-06T08:29:27.035Z</time></trkpt><trkpt lat="38.13482" lon="13.3587083"><ele>12.0</ele><time>2026-05-06T08:29:28.035Z</time></trkpt><trkpt lat="38.134915" lon="13.358695"><ele>12.2</ele><time>2026-05-06T08:29:29.035Z</time></trkpt><trkpt lat="38.135005" lon="13.3586767"><ele>12.399999999999999</ele><time>2026-05-06T08:29:30.035Z</time></trkpt><trkpt lat="38.1351067" lon="13.35866"><ele>12.600000000000001</ele><time>2026-05-06T08:29:31.035Z</time></trkpt><trkpt lat="38.1352083" lon="13.3586417"><ele>12.8</ele><time>2026-05-06T08:29:32.035Z</time></trkpt><trkpt lat="38.1353017" lon="13.3586217"><ele>13.0</ele><time>2026-05-06T08:29:33.035Z</time></trkpt><trkpt lat="38.1353867" lon="13.3586117"><ele>13.0</ele><time>2026-05-06T08:29:34.035Z</time></trkpt><trkpt lat="38.1354583" lon="13.3585967"><ele>13.0</ele><time>2026-05-06T08:29:35.035Z</time></trkpt><trkpt lat="38.1355217" lon="13.3585817"><ele>13.0</ele><time>2026-05-06T08:29:36.035Z</time></trkpt><trkpt lat="38.1356383" lon="13.3585467"><ele>13.0</ele><time>2026-05-06T08:29:38.035Z</time></trkpt><trkpt lat="38.1357367" lon="13.358545"><ele>13.0</ele><time>2026-05-06T08:29:40.035Z</time></trkpt><trkpt lat="38.1358283" lon="13.3585033"><ele>12.999999999999998</ele><time>2026-05-06T08:29:42.035Z</time></trkpt><trkpt lat="38.135865" lon="13.358385"><ele>13.0</ele><time>2026-05-06T08:29:44.035Z</time></trkpt><trkpt lat="38.135865" lon="13.3582983"><ele>13.0</ele><time>2026-05-06T08:29:45.035Z</time></trkpt><trkpt lat="38.1358467" lon="13.3582017"><ele>13.0</ele><time>2026-05-06T08:29:46.035Z</time></trkpt><trkpt lat="38.1358233" lon="13.3581033"><ele>12.999999999999998</ele><time>2026-05-06T08:29:47.035Z</time></trkpt><trkpt lat="38.1358" lon="13.3579983"><ele>13.0</ele><time>2026-05-06T08:29:48.035Z</time></trkpt><trkpt lat="38.1357783" lon="13.3578783"><ele>13.0</ele><time>2026-05-06T08:29:49.035Z</time></trkpt><trkpt lat="38.1357483" lon="13.3577617"><ele>13.0</ele><time>2026-05-06T08:29:50.035Z</time></trkpt><trkpt lat="38.1357233" lon="13.35765"><ele>13.0</ele><time>2026-05-06T08:29:51.034Z</time></trkpt><trkpt lat="38.1356967" lon="13.3575367"><ele>13.0</ele><time>2026-05-06T08:29:52.035Z</time></trkpt><trkpt lat="38.1356617" lon="13.3574367"><ele>13.0</ele><time>2026-05-06T08:29:53.035Z</time></trkpt><trkpt lat="38.13563" lon="13.3573367"><ele>13.166666666666666</ele><time>2026-05-06T08:29:54.035Z</time></trkpt><trkpt lat="38.1356033" lon="13.3572417"><ele>13.333333333333332</ele><time>2026-05-06T08:29:55.035Z</time></trkpt><trkpt lat="38.13558" lon="13.357155"><ele>13.5</ele><time>2026-05-06T08:29:56.035Z</time></trkpt><trkpt lat="38.1355617" lon="13.357015"><ele>13.666666666666668</ele><time>2026-05-06T08:29:58.035Z</time></trkpt><trkpt lat="38.135545" lon="13.3569133"><ele>13.833333333333334</ele><time>2026-05-06T08:30:00.035Z</time></trkpt><trkpt lat="38.1355183" lon="13.35681"><ele>14.0</ele><time>2026-05-06T08:30:03.035Z</time></trkpt><trkpt lat="38.135485" lon="13.356645"><ele>14.0</ele><time>2026-05-06T08:30:35.035Z</time></trkpt><trkpt lat="38.1354567" lon="13.3565417"><ele>13.999999999999998</ele><time>2026-05-06T08:30:36.035Z</time></trkpt><trkpt lat="38.135425" lon="13.3564233"><ele>13.999999999999998</ele><time>2026-05-06T08:30:37.035Z</time></trkpt><trkpt lat="38.13538" lon="13.356285"><ele>14.0</ele><time>2026-05-06T08:30:38.035Z</time></trkpt><trkpt lat="38.1353383" lon="13.3561433"><ele>14.0</ele><time>2026-05-06T08:30:39.035Z</time></trkpt><trkpt lat="38.135305" lon="13.356005"><ele>15.0</ele><time>2026-05-06T08:30:40.035Z</time></trkpt><trkpt lat="38.1352767" lon="13.3558733"><ele>15.999999999999998</ele><time>2026-05-06T08:30:41.035Z</time></trkpt><trkpt lat="38.1352467" lon="13.3557417"><ele>17.0</ele><time>2026-05-06T08:30:42.035Z</time></trkpt><trkpt lat="38.1352117" lon="13.3556167"><ele>18.0</ele><time>2026-05-06T08:30:43.035Z</time></trkpt><trkpt lat="38.1351783" lon="13.355495"><ele>19.0</ele><time>2026-05-06T08:30:44.035Z</time></trkpt><trkpt lat="38.13515" lon="13.355375"><ele>19.0</ele><time>2026-05-06T08:30:45.035Z</time></trkpt><trkpt lat="38.1351217" lon="13.355245"><ele>19.0</ele><time>2026-05-06T08:30:46.035Z</time></trkpt><trkpt lat="38.1350883" lon="13.3551067"><ele>19.0</ele><time>2026-05-06T08:30:47.035Z</time></trkpt><trkpt lat="38.1350517" lon="13.35497"><ele>19.0</ele><time>2026-05-06T08:30:48.035Z</time></trkpt><trkpt lat="38.1350233" lon="13.35484"><ele>19.0</ele><time>2026-05-06T08:30:49.035Z</time></trkpt><trkpt lat="38.1349933" lon="13.35471"><ele>19.0</ele><time>2026-05-06T08:30:50.035Z</time></trkpt><trkpt lat="38.1349633" lon="13.35458"><ele>19.0</ele><time>2026-05-06T08:30:51.035Z</time></trkpt><trkpt lat="38.1349267" lon="13.3544533"><ele>19.0</ele><time>2026-05-06T08:30:52.034Z</time></trkpt><trkpt lat="38.1349" lon="13.354325"><ele>19.0</ele><time>2026-05-06T08:30:53.035Z</time></trkpt><trkpt lat="38.1348717" lon="13.3541983"><ele>19.0</ele><time>2026-05-06T08:30:54.035Z</time></trkpt><trkpt lat="38.1348467" lon="13.35407"><ele>20.4</ele><time>2026-05-06T08:30:55.035Z</time></trkpt><trkpt lat="38.1348167" lon="13.3539517"><ele>21.799999999999997</ele><time>2026-05-06T08:30:56.035Z</time></trkpt><trkpt lat="38.1347883" lon="13.3538417"><ele>23.200000000000003</ele><time>2026-05-06T08:30:57.034Z</time></trkpt><trkpt lat="38.1347567" lon="13.3537367"><ele>24.6</ele><time>2026-05-06T08:30:58.035Z</time></trkpt><trkpt lat="38.1347333" lon="13.35364"><ele>26.0</ele><time>2026-05-06T08:30:59.035Z</time></trkpt><trkpt lat="38.1346933" lon="13.3535183"><ele>26.333333333333332</ele><time>2026-05-06T08:31:01.035Z</time></trkpt><trkpt lat="38.134665" lon="13.3534317"><ele>26.666666666666664</ele><time>2026-05-06T08:31:03.035Z</time></trkpt><trkpt lat="38.134635" lon="13.3533167"><ele>27.0</ele><time>2026-05-06T08:31:05.035Z</time></trkpt><trkpt lat="38.1346117" lon="13.353235"><ele>27.333333333333336</ele><time>2026-05-06T08:31:06.035Z</time></trkpt><trkpt lat="38.1345917" lon="13.35313"><ele>27.666666666666668</ele><time>2026-05-06T08:31:07.035Z</time></trkpt><trkpt lat="38.1345667" lon="13.3530233"><ele>28.0</ele><time>2026-05-06T08:31:08.035Z</time></trkpt><trkpt lat="38.1345467" lon="13.3529267"><ele>28.000000000000004</ele><time>2026-05-06T08:31:09.035Z</time></trkpt><trkpt lat="38.134525" lon="13.3528417"><ele>28.0</ele><time>2026-05-06T08:31:10.035Z</time></trkpt><trkpt lat="38.1345" lon="13.3527167"><ele>28.0</ele><time>2026-05-06T08:31:12.034Z</time></trkpt><trkpt lat="38.134525" lon="13.3526133"><ele>28.0</ele><time>2026-05-06T08:31:29.035Z</time></trkpt><trkpt lat="38.134495" lon="13.352515"><ele>28.000000000000004</ele><time>2026-05-06T08:31:31.035Z</time></trkpt><trkpt lat="38.1344833" lon="13.3523933"><ele>28.0</ele><time>2026-05-06T08:31:33.035Z</time></trkpt><trkpt lat="38.1345283" lon="13.35229"><ele>28.333333333333336</ele><time>2026-05-06T08:31:35.035Z</time></trkpt><trkpt lat="38.1346183" lon="13.352205"><ele>28.666666666666668</ele><time>2026-05-06T08:31:37.035Z</time></trkpt><trkpt lat="38.1346817" lon="13.3521667"><ele>29.0</ele><time>2026-05-06T08:31:38.035Z</time></trkpt><trkpt lat="38.1347483" lon="13.3521233"><ele>29.333333333333336</ele><time>2026-05-06T08:31:39.035Z</time></trkpt><trkpt lat="38.1348133" lon="13.35208"><ele>29.666666666666668</ele><time>2026-05-06T08:31:40.035Z</time></trkpt><trkpt lat="38.1348733" lon="13.3520417"><ele>30.0</ele><time>2026-05-06T08:31:41.035Z</time></trkpt><trkpt lat="38.13493" lon="13.3520067"><ele>30.333333333333332</ele><time>2026-05-06T08:31:42.035Z</time></trkpt><trkpt lat="38.1350283" lon="13.351945"><ele>30.666666666666664</ele><time>2026-05-06T08:31:44.034Z</time></trkpt><trkpt lat="38.1351083" lon="13.3518967"><ele>31.0</ele><time>2026-05-06T08:31:46.035Z</time></trkpt><trkpt lat="38.1351633" lon="13.35185"><ele>31.333333333333332</ele><time>2026-05-06T08:31:48.035Z</time></trkpt><trkpt lat="38.1352267" lon="13.3517867"><ele>31.666666666666664</ele><time>2026-05-06T08:31:52.035Z</time></trkpt><trkpt lat="38.1352867" lon="13.3517483"><ele>32.0</ele><time>2026-05-06T08:31:56.035Z</time></trkpt><trkpt lat="38.135355" lon="13.3516917"><ele>32.0</ele><time>2026-05-06T08:32:02.035Z</time></trkpt><trkpt lat="38.1354233" lon="13.3516367"><ele>31.999999999999996</ele><time>2026-05-06T08:32:04.035Z</time></trkpt><trkpt lat="38.1354833" lon="13.35159"><ele>32.0</ele><time>2026-05-06T08:32:06.035Z</time></trkpt><trkpt lat="38.13555" lon="13.3515283"><ele>32.0</ele><time>2026-05-06T08:32:09.035Z</time></trkpt><trkpt lat="38.1356217" lon="13.3514733"><ele>31.999999999999996</ele><time>2026-05-06T08:32:12.035Z</time></trkpt><trkpt lat="38.1356767" lon="13.3514333"><ele>32.0</ele><time>2026-05-06T08:32:14.035Z</time></trkpt><trkpt lat="38.13573" lon="13.3513883"><ele>32.0</ele><time>2026-05-06T08:32:16.035Z</time></trkpt><trkpt lat="38.1357967" lon="13.35133"><ele>31.666666666666664</ele><time>2026-05-06T08:32:19.035Z</time></trkpt><trkpt lat="38.1358533" lon="13.3512883"><ele>31.333333333333332</ele><time>2026-05-06T08:32:22.035Z</time></trkpt><trkpt lat="38.1359183" lon="13.351245"><ele>31.0</ele><time>2026-05-06T08:32:25.035Z</time></trkpt><trkpt lat="38.13598" lon="13.3512"><ele>30.666666666666664</ele><time>2026-05-06T08:32:27.035Z</time></trkpt><trkpt lat="38.1360667" lon="13.3511633"><ele>30.333333333333332</ele><time>2026-05-06T08:32:29.035Z</time></trkpt><trkpt lat="38.136165" lon="13.3511133"><ele>30.0</ele><time>2026-05-06T08:32:31.035Z</time></trkpt><trkpt lat="38.1362783" lon="13.3510483"><ele>30.0</ele><time>2026-05-06T08:32:33.035Z</time></trkpt><trkpt lat="38.136385" lon="13.3509833"><ele>30.0</ele><time>2026-05-06T08:32:35.035Z</time></trkpt><trkpt lat="38.1364917" lon="13.3509167"><ele>30.0</ele><time>2026-05-06T08:32:37.035Z</time></trkpt><trkpt lat="38.1365433" lon="13.35087"><ele>30.0</ele><time>2026-05-06T08:32:38.035Z</time></trkpt><trkpt lat="38.1366" lon="13.35083"><ele>30.0</ele><time>2026-05-06T08:32:39.035Z</time></trkpt><trkpt lat="38.13666" lon="13.3507883"><ele>30.0</ele><time>2026-05-06T08:32:40.035Z</time></trkpt><trkpt lat="38.1367183" lon="13.35075"><ele>29.833333333333332</ele><time>2026-05-06T08:32:41.035Z</time></trkpt><trkpt lat="38.136775" lon="13.35071"><ele>29.666666666666664</ele><time>2026-05-06T08:32:42.035Z</time></trkpt><trkpt lat="38.1368317" lon="13.3506717"><ele>29.5</ele><time>2026-05-06T08:32:43.035Z</time></trkpt><trkpt lat="38.13694" lon="13.3506067"><ele>29.333333333333332</ele><time>2026-05-06T08:32:45.035Z</time></trkpt><trkpt lat="38.1370517" lon="13.35053"><ele>29.166666666666664</ele><time>2026-05-06T08:32:47.035Z</time></trkpt><trkpt lat="38.13711" lon="13.3504983"><ele>29.0</ele><time>2026-05-06T08:32:48.035Z</time></trkpt><trkpt lat="38.1372217" lon="13.350435"><ele>29.285714285714292</ele><time>2026-05-06T08:32:50.035Z</time></trkpt><trkpt lat="38.1372833" lon="13.3504017"><ele>29.571428571428573</ele><time>2026-05-06T08:32:51.035Z</time></trkpt><trkpt lat="38.13735" lon="13.3503667"><ele>29.85714285714286</ele><time>2026-05-06T08:32:52.035Z</time></trkpt><trkpt lat="38.1374167" lon="13.35033"><ele>30.142857142857146</ele><time>2026-05-06T08:32:53.035Z</time></trkpt><trkpt lat="38.1374733" lon="13.3502883"><ele>30.42857142857143</ele><time>2026-05-06T08:32:54.035Z</time></trkpt><trkpt lat="38.13753" lon="13.350245"><ele>30.714285714285715</ele><time>2026-05-06T08:32:55.035Z</time></trkpt><trkpt lat="38.1375933" lon="13.3502033"><ele>31.0</ele><time>2026-05-06T08:32:56.035Z</time></trkpt><trkpt lat="38.1376633" lon="13.3501567"><ele>30.333333333333336</ele><time>2026-05-06T08:32:57.035Z</time></trkpt><trkpt lat="38.1377383" lon="13.3501083"><ele>29.666666666666668</ele><time>2026-05-06T08:32:58.035Z</time></trkpt><trkpt lat="38.137815" lon="13.35005"><ele>29.0</ele><time>2026-05-06T08:32:59.035Z</time></trkpt><trkpt lat="38.1378933" lon="13.3499983"><ele>28.333333333333336</ele><time>2026-05-06T08:33:00.035Z</time></trkpt><trkpt lat="38.1379717" lon="13.3499483"><ele>27.666666666666668</ele><time>2026-05-06T08:33:01.035Z</time></trkpt><trkpt lat="38.1380517" lon="13.3498967"><ele>27.0</ele><time>2026-05-06T08:33:02.035Z</time></trkpt><trkpt lat="38.1381333" lon="13.3498467"><ele>27.0</ele><time>2026-05-06T08:33:03.035Z</time></trkpt><trkpt lat="38.1382083" lon="13.3498"><ele>27.0</ele><time>2026-05-06T08:33:04.035Z</time></trkpt><trkpt lat="38.138275" lon="13.349755"><ele>27.0</ele><time>2026-05-06T08:33:05.035Z</time></trkpt><trkpt lat="38.1383317" lon="13.3497183"><ele>27.0</ele><time>2026-05-06T08:33:06.035Z</time></trkpt><trkpt lat="38.1384183" lon="13.3496633"><ele>27.0</ele><time>2026-05-06T08:33:08.035Z</time></trkpt><trkpt lat="38.1384933" lon="13.349615"><ele>27.0</ele><time>2026-05-06T08:33:11.035Z</time></trkpt><trkpt lat="38.138575" lon="13.349575"><ele>27.0</ele><time>2026-05-06T08:33:45.035Z</time></trkpt><trkpt lat="38.1386583" lon="13.349555"><ele>27.000000000000004</ele><time>2026-05-06T08:33:47.035Z</time></trkpt><trkpt lat="38.1387633" lon="13.3495067"><ele>27.000000000000004</ele><time>2026-05-06T08:33:49.035Z</time></trkpt><trkpt lat="38.1388767" lon="13.3494467"><ele>27.0</ele><time>2026-05-06T08:33:51.035Z</time></trkpt><trkpt lat="38.138945" lon="13.3494033"><ele>27.0</ele><time>2026-05-06T08:33:52.035Z</time></trkpt><trkpt lat="38.1390167" lon="13.3493567"><ele>27.8</ele><time>2026-05-06T08:33:53.035Z</time></trkpt><trkpt lat="38.1390933" lon="13.3493"><ele>28.6</ele><time>2026-05-06T08:33:54.035Z</time></trkpt><trkpt lat="38.139175" lon="13.3492417"><ele>29.400000000000002</ele><time>2026-05-06T08:33:55.035Z</time></trkpt><trkpt lat="38.1392617" lon="13.34918"><ele>30.200000000000003</ele><time>2026-05-06T08:33:56.035Z</time></trkpt><trkpt lat="38.139355" lon="13.3491183"><ele>31.0</ele><time>2026-05-06T08:33:57.035Z</time></trkpt><trkpt lat="38.1394517" lon="13.3490533"><ele>31.0</ele><time>2026-05-06T08:33:58.035Z</time></trkpt><trkpt lat="38.13955" lon="13.34899"><ele>31.0</ele><time>2026-05-06T08:33:59.034Z</time></trkpt><trkpt lat="38.1396467" lon="13.3489267"><ele>31.0</ele><time>2026-05-06T08:34:00.035Z</time></trkpt><trkpt lat="38.139745" lon="13.34886"><ele>31.0</ele><time>2026-05-06T08:34:01.035Z</time></trkpt><trkpt lat="38.1398467" lon="13.3487883"><ele>31.0</ele><time>2026-05-06T08:34:02.035Z</time></trkpt><trkpt lat="38.1399533" lon="13.348715"><ele>30.25</ele><time>2026-05-06T08:34:03.035Z</time></trkpt><trkpt lat="38.14006" lon="13.3486417"><ele>29.5</ele><time>2026-05-06T08:34:04.035Z</time></trkpt><trkpt lat="38.140165" lon="13.3485683"><ele>28.75</ele><time>2026-05-06T08:34:05.035Z</time></trkpt><trkpt lat="38.14027" lon="13.3484967"><ele>28.0</ele><time>2026-05-06T08:34:06.035Z</time></trkpt><trkpt lat="38.140375" lon="13.3484283"><ele>28.0</ele><time>2026-05-06T08:34:07.035Z</time></trkpt><trkpt lat="38.1404817" lon="13.3483583"><ele>28.0</ele><time>2026-05-06T08:34:08.035Z</time></trkpt><trkpt lat="38.1405917" lon="13.3482833"><ele>28.0</ele><time>2026-05-06T08:34:09.035Z</time></trkpt><trkpt lat="38.140705" lon="13.3482083"><ele>28.0</ele><time>2026-05-06T08:34:10.035Z</time></trkpt><trkpt lat="38.1408217" lon="13.3481317"><ele>28.0</ele><time>2026-05-06T08:34:11.035Z</time></trkpt><trkpt lat="38.1409367" lon="13.3480633"><ele>28.0</ele><time>2026-05-06T08:34:12.035Z</time></trkpt><trkpt lat="38.1410417" lon="13.3479983"><ele>28.0</ele><time>2026-05-06T08:34:13.035Z</time></trkpt><trkpt lat="38.1411417" lon="13.34794"><ele>28.0</ele><time>2026-05-06T08:34:14.035Z</time></trkpt><trkpt lat="38.1412383" lon="13.347885"><ele>28.4</ele><time>2026-05-06T08:34:15.035Z</time></trkpt><trkpt lat="38.1413283" lon="13.34783"><ele>28.799999999999997</ele><time>2026-05-06T08:34:16.035Z</time></trkpt><trkpt lat="38.141415" lon="13.34778"><ele>29.2</ele><time>2026-05-06T08:34:17.035Z</time></trkpt><trkpt lat="38.1414967" lon="13.34773"><ele>29.6</ele><time>2026-05-06T08:34:18.035Z</time></trkpt><trkpt lat="38.1415767" lon="13.3476833"><ele>30.0</ele><time>2026-05-06T08:34:19.034Z</time></trkpt><trkpt lat="38.141655" lon="13.3476333"><ele>30.42857142857143</ele><time>2026-05-06T08:34:20.035Z</time></trkpt><trkpt lat="38.1417283" lon="13.3475883"><ele>30.857142857142854</ele><time>2026-05-06T08:34:21.035Z</time></trkpt><trkpt lat="38.1417983" lon="13.3475433"><ele>31.285714285714285</ele><time>2026-05-06T08:34:22.035Z</time></trkpt><trkpt lat="38.1418683" lon="13.3475"><ele>31.714285714285715</ele><time>2026-05-06T08:34:23.035Z</time></trkpt><trkpt lat="38.1419317" lon="13.347455"><ele>32.142857142857146</ele><time>2026-05-06T08:34:24.035Z</time></trkpt><trkpt lat="38.1419917" lon="13.3474133"><ele>32.57142857142857</ele><time>2026-05-06T08:34:25.035Z</time></trkpt><trkpt lat="38.14205" lon="13.347375"><ele>33.0</ele><time>2026-05-06T08:34:26.035Z</time></trkpt><trkpt lat="38.1421067" lon="13.3473333"><ele>33.0</ele><time>2026-05-06T08:34:27.035Z</time></trkpt><trkpt lat="38.142165" lon="13.3472917"><ele>33.0</ele><time>2026-05-06T08:34:28.035Z</time></trkpt><trkpt lat="38.1422517" lon="13.3472183"><ele>33.0</ele><time>2026-05-06T08:34:30.035Z</time></trkpt><trkpt lat="38.142305" lon="13.347165"><ele>33.0</ele><time>2026-05-06T08:34:32.035Z</time></trkpt><trkpt lat="38.14236" lon="13.347125"><ele>33.0</ele><time>2026-05-06T08:34:34.035Z</time></trkpt><trkpt lat="38.1424283" lon="13.3470867"><ele>33.0</ele><time>2026-05-06T08:34:36.035Z</time></trkpt><trkpt lat="38.1424883" lon="13.34705"><ele>33.0</ele><time>2026-05-06T08:34:38.035Z</time></trkpt><trkpt lat="38.1425683" lon="13.34699"><ele>34.333333333333336</ele><time>2026-05-06T08:34:41.035Z</time></trkpt><trkpt lat="38.1426367" lon="13.3469333"><ele>35.666666666666664</ele><time>2026-05-06T08:34:44.035Z</time></trkpt><trkpt lat="38.1427133" lon="13.3468783"><ele>37.0</ele><time>2026-05-06T08:34:48.035Z</time></trkpt><trkpt lat="38.1427717" lon="13.3468217"><ele>38.33333333333333</ele><time>2026-05-06T08:34:50.035Z</time></trkpt><trkpt lat="38.1428317" lon="13.3467417"><ele>39.666666666666664</ele><time>2026-05-06T08:34:52.035Z</time></trkpt><trkpt lat="38.1429033" lon="13.346705"><ele>41.0</ele><time>2026-05-06T08:34:54.035Z</time></trkpt><trkpt lat="38.14298" lon="13.3467"><ele>41.0</ele><time>2026-05-06T08:34:56.033Z</time></trkpt><trkpt lat="38.14306" lon="13.3466733"><ele>41.0</ele><time>2026-05-06T08:34:59.035Z</time></trkpt><trkpt lat="38.1431283" lon="13.34663"><ele>41.0</ele><time>2026-05-06T08:35:01.035Z</time></trkpt><trkpt lat="38.14322" lon="13.346565"><ele>41.0</ele><time>2026-05-06T08:35:03.035Z</time></trkpt><trkpt lat="38.1433233" lon="13.3464933"><ele>41.0</ele><time>2026-05-06T08:35:05.035Z</time></trkpt><trkpt lat="38.1434233" lon="13.346425"><ele>41.0</ele><time>2026-05-06T08:35:07.035Z</time></trkpt><trkpt lat="38.143515" lon="13.3463633"><ele>41.0</ele><time>2026-05-06T08:35:09.035Z</time></trkpt><trkpt lat="38.14358" lon="13.3463133"><ele>41.0</ele><time>2026-05-06T08:35:11.035Z</time></trkpt><trkpt lat="38.1436483" lon="13.3462767"><ele>41.0</ele><time>2026-05-06T08:35:14.035Z</time></trkpt><trkpt lat="38.1437233" lon="13.3462233"><ele>41.0</ele><time>2026-05-06T08:35:18.035Z</time></trkpt><trkpt lat="38.143795" lon="13.3461517"><ele>41.0</ele><time>2026-05-06T08:35:21.035Z</time></trkpt><trkpt lat="38.1438567" lon="13.3460867"><ele>41.0</ele><time>2026-05-06T08:35:23.035Z</time></trkpt><trkpt lat="38.1439117" lon="13.3460367"><ele>41.0</ele><time>2026-05-06T08:35:25.035Z</time></trkpt><trkpt lat="38.1439833" lon="13.3459833"><ele>41.0</ele><time>2026-05-06T08:35:27.035Z</time></trkpt><trkpt lat="38.1440717" lon="13.34592"><ele>41.0</ele><time>2026-05-06T08:35:29.035Z</time></trkpt><trkpt lat="38.144185" lon="13.345865"><ele>41.0</ele><time>2026-05-06T08:35:31.034Z</time></trkpt><trkpt lat="38.1442483" lon="13.3458317"><ele>41.0</ele><time>2026-05-06T08:35:32.035Z</time></trkpt><trkpt lat="38.1443083" lon="13.3458033"><ele>40.666666666666664</ele><time>2026-05-06T08:35:33.035Z</time></trkpt><trkpt lat="38.1443683" lon="13.3457767"><ele>40.33333333333333</ele><time>2026-05-06T08:35:34.035Z</time></trkpt><trkpt lat="38.14447" lon="13.34574"><ele>40.0</ele><time>2026-05-06T08:35:36.035Z</time></trkpt><trkpt lat="38.1445383" lon="13.3457133"><ele>39.666666666666664</ele><time>2026-05-06T08:35:39.035Z</time></trkpt><trkpt lat="38.1445833" lon="13.34562"><ele>39.333333333333336</ele><time>2026-05-06T08:35:43.035Z</time></trkpt><trkpt lat="38.1445633" lon="13.3454767"><ele>39.0</ele><time>2026-05-06T08:35:45.035Z</time></trkpt><trkpt lat="38.1445483" lon="13.3453633"><ele>38.6</ele><time>2026-05-06T08:35:46.035Z</time></trkpt><trkpt lat="38.1445217" lon="13.3452417"><ele>38.2</ele><time>2026-05-06T08:35:47.035Z</time></trkpt><trkpt lat="38.1444933" lon="13.3451233"><ele>37.800000000000004</ele><time>2026-05-06T08:35:48.035Z</time></trkpt><trkpt lat="38.1444633" lon="13.3450083"><ele>37.4</ele><time>2026-05-06T08:35:49.035Z</time></trkpt><trkpt lat="38.1444333" lon="13.3448983"><ele>37.0</ele><time>2026-05-06T08:35:50.035Z</time></trkpt><trkpt lat="38.1443967" lon="13.3447933"><ele>37.0</ele><time>2026-05-06T08:35:51.035Z</time></trkpt><trkpt lat="38.144365" lon="13.344685"><ele>37.0</ele><time>2026-05-06T08:35:52.035Z</time></trkpt><trkpt lat="38.1443233" lon="13.3445783"><ele>37.0</ele><time>2026-05-06T08:35:53.035Z</time></trkpt><trkpt lat="38.144295" lon="13.3444733"><ele>37.0</ele><time>2026-05-06T08:35:54.035Z</time></trkpt><trkpt lat="38.144265" lon="13.3443767"><ele>37.0</ele><time>2026-05-06T08:35:55.035Z</time></trkpt><trkpt lat="38.14424" lon="13.3442783"><ele>37.0</ele><time>2026-05-06T08:35:56.034Z</time></trkpt><trkpt lat="38.144215" lon="13.3441817"><ele>37.0</ele><time>2026-05-06T08:35:57.035Z</time></trkpt><trkpt lat="38.1441867" lon="13.3440833"><ele>37.0</ele><time>2026-05-06T08:35:58.035Z</time></trkpt><trkpt lat="38.1441633" lon="13.3439883"><ele>37.0</ele><time>2026-05-06T08:35:59.035Z</time></trkpt><trkpt lat="38.1441367" lon="13.34389"><ele>37.0</ele><time>2026-05-06T08:36:00.035Z</time></trkpt><trkpt lat="38.1441133" lon="13.3438"><ele>37.0</ele><time>2026-05-06T08:36:01.035Z</time></trkpt><trkpt lat="38.1440883" lon="13.3436767"><ele>37.0</ele><time>2026-05-06T08:36:03.035Z</time></trkpt><trkpt lat="38.144075" lon="13.343585"><ele>37.0</ele><time>2026-05-06T08:36:05.035Z</time></trkpt><trkpt lat="38.1440517" lon="13.3434967"><ele>37.0</ele><time>2026-05-06T08:36:07.035Z</time></trkpt><trkpt lat="38.1439867" lon="13.343425"><ele>37.0</ele><time>2026-05-06T08:36:21.035Z</time></trkpt><trkpt lat="38.143945" lon="13.3433117"><ele>37.0</ele><time>2026-05-06T08:36:23.035Z</time></trkpt><trkpt lat="38.1439" lon="13.3431983"><ele>37.0</ele><time>2026-05-06T08:36:24.035Z</time></trkpt><trkpt lat="38.1438583" lon="13.3430867"><ele>37.2</ele><time>2026-05-06T08:36:25.035Z</time></trkpt><trkpt lat="38.14382" lon="13.3429767"><ele>37.400000000000006</ele><time>2026-05-06T08:36:26.035Z</time></trkpt><trkpt lat="38.1437817" lon="13.3428633"><ele>37.599999999999994</ele><time>2026-05-06T08:36:27.035Z</time></trkpt><trkpt lat="38.1437467" lon="13.3427467"><ele>37.8</ele><time>2026-05-06T08:36:28.035Z</time></trkpt><trkpt lat="38.143715" lon="13.3426367"><ele>38.0</ele><time>2026-05-06T08:36:29.035Z</time></trkpt><trkpt lat="38.1436867" lon="13.34253"><ele>38.0</ele><time>2026-05-06T08:36:30.035Z</time></trkpt><trkpt lat="38.1436533" lon="13.34243"><ele>38.0</ele><time>2026-05-06T08:36:31.035Z</time></trkpt><trkpt lat="38.1436217" lon="13.3423317"><ele>38.0</ele><time>2026-05-06T08:36:32.035Z</time></trkpt><trkpt lat="38.1435917" lon="13.3422283"><ele>38.0</ele><time>2026-05-06T08:36:33.035Z</time></trkpt><trkpt lat="38.1435617" lon="13.3421283"><ele>38.0</ele><time>2026-05-06T08:36:34.035Z</time></trkpt><trkpt lat="38.143535" lon="13.3420317"><ele>38.0</ele><time>2026-05-06T08:36:35.035Z</time></trkpt><trkpt lat="38.1435067" lon="13.3419383"><ele>38.5</ele><time>2026-05-06T08:36:36.035Z</time></trkpt><trkpt lat="38.1434767" lon="13.34184"><ele>39.0</ele><time>2026-05-06T08:36:37.035Z</time></trkpt><trkpt lat="38.1434467" lon="13.3417417"><ele>39.5</ele><time>2026-05-06T08:36:38.035Z</time></trkpt><trkpt lat="38.1434117" lon="13.3416417"><ele>40.0</ele><time>2026-05-06T08:36:39.035Z</time></trkpt><trkpt lat="38.1433783" lon="13.3415417"><ele>40.5</ele><time>2026-05-06T08:36:40.035Z</time></trkpt><trkpt lat="38.143345" lon="13.341445"><ele>41.0</ele><time>2026-05-06T08:36:41.035Z</time></trkpt><trkpt lat="38.1433083" lon="13.34135"><ele>41.166666666666664</ele><time>2026-05-06T08:36:42.035Z</time></trkpt><trkpt lat="38.1432717" lon="13.34126"><ele>41.33333333333333</ele><time>2026-05-06T08:36:43.035Z</time></trkpt><trkpt lat="38.1432367" lon="13.3411717"><ele>41.5</ele><time>2026-05-06T08:36:44.035Z</time></trkpt><trkpt lat="38.1432083" lon="13.3410817"><ele>41.666666666666664</ele><time>2026-05-06T08:36:45.035Z</time></trkpt><trkpt lat="38.1431767" lon="13.341"><ele>41.833333333333336</ele><time>2026-05-06T08:36:46.035Z</time></trkpt><trkpt lat="38.1431417" lon="13.3409267"><ele>42.0</ele><time>2026-05-06T08:36:47.035Z</time></trkpt><trkpt lat="38.1430983" lon="13.3407967"><ele>42.333333333333336</ele><time>2026-05-06T08:36:49.035Z</time></trkpt><trkpt lat="38.1430683" lon="13.3407167"><ele>42.666666666666664</ele><time>2026-05-06T08:36:51.035Z</time></trkpt><trkpt lat="38.1430433" lon="13.3406333"><ele>43.0</ele><time>2026-05-06T08:36:53.035Z</time></trkpt><trkpt lat="38.1429883" lon="13.34052"><ele>43.33333333333333</ele><time>2026-05-06T08:36:55.035Z</time></trkpt><trkpt lat="38.1429433" lon="13.34037"><ele>43.666666666666664</ele><time>2026-05-06T08:36:57.035Z</time></trkpt><trkpt lat="38.1429167" lon="13.340285"><ele>44.0</ele><time>2026-05-06T08:36:58.035Z</time></trkpt><trkpt lat="38.1428833" lon="13.3401967"><ele>44.0</ele><time>2026-05-06T08:36:59.035Z</time></trkpt><trkpt lat="38.1428433" lon="13.3401067"><ele>44.0</ele><time>2026-05-06T08:37:00.035Z</time></trkpt><trkpt lat="38.1428017" lon="13.340005"><ele>44.0</ele><time>2026-05-06T08:37:01.035Z</time></trkpt><trkpt lat="38.1427683" lon="13.3398983"><ele>44.0</ele><time>2026-05-06T08:37:02.035Z</time></trkpt><trkpt lat="38.1427283" lon="13.3397767"><ele>44.0</ele><time>2026-05-06T08:37:03.035Z</time></trkpt><trkpt lat="38.1426867" lon="13.3396433"><ele>42.800000000000004</ele><time>2026-05-06T08:37:04.035Z</time></trkpt><trkpt lat="38.142645" lon="13.339515"><ele>41.6</ele><time>2026-05-06T08:37:05.035Z</time></trkpt><trkpt lat="38.1426033" lon="13.3393883"><ele>40.4</ele><time>2026-05-06T08:37:06.035Z</time></trkpt><trkpt lat="38.1425583" lon="13.3392667"><ele>39.2</ele><time>2026-05-06T08:37:07.035Z</time></trkpt><trkpt lat="38.142515" lon="13.3391417"><ele>38.0</ele><time>2026-05-06T08:37:08.035Z</time></trkpt><trkpt lat="38.1424717" lon="13.3390183"><ele>38.0</ele><time>2026-05-06T08:37:09.035Z</time></trkpt><trkpt lat="38.1424233" lon="13.3389033"><ele>38.0</ele><time>2026-05-06T08:37:10.035Z</time></trkpt><trkpt lat="38.1423883" lon="13.338785"><ele>38.0</ele><time>2026-05-06T08:37:11.035Z</time></trkpt><trkpt lat="38.142355" lon="13.3386717"><ele>38.0</ele><time>2026-05-06T08:37:12.034Z</time></trkpt><trkpt lat="38.14232" lon="13.3385683"><ele>38.0</ele><time>2026-05-06T08:37:13.034Z</time></trkpt><trkpt lat="38.1422833" lon="13.33848"><ele>38.83333333333333</ele><time>2026-05-06T08:37:14.034Z</time></trkpt><trkpt lat="38.1422483" lon="13.3383983"><ele>39.666666666666664</ele><time>2026-05-06T08:37:15.034Z</time></trkpt><trkpt lat="38.1422" lon="13.3382717"><ele>40.5</ele><time>2026-05-06T08:37:17.034Z</time></trkpt><trkpt lat="38.1421733" lon="13.3381767"><ele>41.333333333333336</ele><time>2026-05-06T08:37:19.034Z</time></trkpt><trkpt lat="38.142145" lon="13.3380817"><ele>42.16666666666667</ele><time>2026-05-06T08:37:21.034Z</time></trkpt><trkpt lat="38.1421017" lon="13.3379767"><ele>43.0</ele><time>2026-05-06T08:37:23.034Z</time></trkpt><trkpt lat="38.1420567" lon="13.33788"><ele>43.0</ele><time>2026-05-06T08:37:25.034Z</time></trkpt><trkpt lat="38.1420367" lon="13.337785"><ele>43.0</ele><time>2026-05-06T08:37:27.033Z</time></trkpt><trkpt lat="38.14198" lon="13.337625"><ele>43.0</ele><time>2026-05-06T08:37:36.034Z</time></trkpt><trkpt lat="38.1419383" lon="13.3374983"><ele>43.0</ele><time>2026-05-06T08:37:38.034Z</time></trkpt><trkpt lat="38.1419" lon="13.3373617"><ele>43.0</ele><time>2026-05-06T08:37:40.034Z</time></trkpt><trkpt lat="38.1418533" lon="13.3372233"><ele>43.0</ele><time>2026-05-06T08:37:42.034Z</time></trkpt><trkpt lat="38.1418" lon="13.3370967"><ele>43.0</ele><time>2026-05-06T08:37:44.033Z</time></trkpt><trkpt lat="38.1417517" lon="13.3369717"><ele>43.0</ele><time>2026-05-06T08:37:46.034Z</time></trkpt><trkpt lat="38.1417033" lon="13.3368317"><ele>43.0</ele><time>2026-05-06T08:37:48.034Z</time></trkpt><trkpt lat="38.1416733" lon="13.3367417"><ele>43.0</ele><time>2026-05-06T08:37:49.034Z</time></trkpt><trkpt lat="38.141645" lon="13.33664"><ele>43.0</ele><time>2026-05-06T08:37:50.034Z</time></trkpt><trkpt lat="38.14161" lon="13.3365367"><ele>43.0</ele><time>2026-05-06T08:37:51.034Z</time></trkpt><trkpt lat="38.141575" lon="13.3364317"><ele>43.0</ele><time>2026-05-06T08:37:52.034Z</time></trkpt><trkpt lat="38.1415417" lon="13.33633"><ele>43.0</ele><time>2026-05-06T08:37:53.034Z</time></trkpt><trkpt lat="38.14151" lon="13.336235"><ele>43.0</ele><time>2026-05-06T08:37:54.034Z</time></trkpt><trkpt lat="38.1414833" lon="13.3361483"><ele>43.0</ele><time>2026-05-06T08:37:55.034Z</time></trkpt><trkpt lat="38.1414533" lon="13.336075"><ele>43.0</ele><time>2026-05-06T08:37:56.034Z</time></trkpt><trkpt lat="38.1414017" lon="13.3359433"><ele>43.0</ele><time>2026-05-06T08:37:58.034Z</time></trkpt><trkpt lat="38.1413683" lon="13.335825"><ele>43.0</ele><time>2026-05-06T08:38:00.034Z</time></trkpt><trkpt lat="38.141335" lon="13.3357267"><ele>43.0</ele><time>2026-05-06T08:38:02.034Z</time></trkpt><trkpt lat="38.1413017" lon="13.335635"><ele>43.0</ele><time>2026-05-06T08:38:05.034Z</time></trkpt><trkpt lat="38.1412967" lon="13.335555"><ele>43.0</ele><time>2026-05-06T08:38:41.034Z</time></trkpt><trkpt lat="38.141265" lon="13.335465"><ele>42.833333333333336</ele><time>2026-05-06T08:38:44.034Z</time></trkpt><trkpt lat="38.1412133" lon="13.3353667"><ele>42.66666666666667</ele><time>2026-05-06T08:38:47.034Z</time></trkpt><trkpt lat="38.1411867" lon="13.3352783"><ele>42.5</ele><time>2026-05-06T08:38:50.034Z</time></trkpt><trkpt lat="38.14116" lon="13.3351833"><ele>42.333333333333336</ele><time>2026-05-06T08:38:53.034Z</time></trkpt><trkpt lat="38.1411417" lon="13.3350883"><ele>42.166666666666664</ele><time>2026-05-06T08:38:55.034Z</time></trkpt><trkpt lat="38.1411117" lon="13.33495"><ele>42.0</ele><time>2026-05-06T08:38:57.034Z</time></trkpt><trkpt lat="38.1410967" lon="13.3348633"><ele>42.0</ele><time>2026-05-06T08:38:58.033Z</time></trkpt><trkpt lat="38.14108" lon="13.33478"><ele>42.0</ele><time>2026-05-06T08:38:59.033Z</time></trkpt><trkpt lat="38.1410533" lon="13.3346933"><ele>42.0</ele><time>2026-05-06T08:39:00.033Z</time></trkpt><trkpt lat="38.14103" lon="13.3346083"><ele>42.0</ele><time>2026-05-06T08:39:01.034Z</time></trkpt><trkpt lat="38.1410067" lon="13.334525"><ele>42.0</ele><time>2026-05-06T08:39:02.034Z</time></trkpt><trkpt lat="38.1409817" lon="13.3344467"><ele>42.0</ele><time>2026-05-06T08:39:03.034Z</time></trkpt><trkpt lat="38.1409583" lon="13.33437"><ele>42.0</ele><time>2026-05-06T08:39:04.034Z</time></trkpt><trkpt lat="38.1409283" lon="13.3342217"><ele>44.2</ele><time>2026-05-06T08:39:06.034Z</time></trkpt><trkpt lat="38.140925" lon="13.3341067"><ele>46.400000000000006</ele><time>2026-05-06T08:39:08.034Z</time></trkpt><trkpt lat="38.1410017" lon="13.33399"><ele>48.599999999999994</ele><time>2026-05-06T08:39:10.034Z</time></trkpt><trkpt lat="38.1410583" lon="13.3339317"><ele>50.8</ele><time>2026-05-06T08:39:11.034Z</time></trkpt><trkpt lat="38.1411533" lon="13.3338467"><ele>53.0</ele><time>2026-05-06T08:39:13.034Z</time></trkpt><trkpt lat="38.1412367" lon="13.3337617"><ele>52.8</ele><time>2026-05-06T08:39:15.034Z</time></trkpt><trkpt lat="38.1413133" lon="13.333685"><ele>52.599999999999994</ele><time>2026-05-06T08:39:17.034Z</time></trkpt><trkpt lat="38.141365" lon="13.3336283"><ele>52.400000000000006</ele><time>2026-05-06T08:39:19.034Z</time></trkpt><trkpt lat="38.1414967" lon="13.3336217"><ele>52.2</ele><time>2026-05-06T08:46:03.034Z</time></trkpt><trkpt lat="38.1415617" lon="13.3337233"><ele>52.0</ele><time>2026-05-06T08:48:37.034Z</time></trkpt><trkpt lat="38.141495" lon="13.333665"><ele>52.6</ele><time>2026-05-06T09:18:00.034Z</time></trkpt><trkpt lat="38.1414117" lon="13.3336133"><ele>53.2</ele><time>2026-05-06T09:18:01.034Z</time></trkpt><trkpt lat="38.1413333" lon="13.33354"><ele>53.8</ele><time>2026-05-06T09:22:16.034Z</time></trkpt><trkpt lat="38.14137" lon="13.3334467"><ele>54.4</ele><time>2026-05-06T09:36:34.031Z</time></trkpt><trkpt lat="38.141355" lon="13.3335667"><ele>55.0</ele><time>2026-05-06T09:38:52.031Z</time></trkpt><trkpt lat="38.1412667" lon="13.33365"><ele>55.0</ele><time>2026-05-06T09:38:59.031Z</time></trkpt><trkpt lat="38.141195" lon="13.33372"><ele>55.0</ele><time>2026-05-06T09:39:01.03Z</time></trkpt><trkpt lat="38.1411017" lon="13.3337867"><ele>55.0</ele><time>2026-05-06T09:39:03.031Z</time></trkpt><trkpt lat="38.1409983" lon="13.3338483"><ele>55.0</ele><time>2026-05-06T09:39:05.031Z</time></trkpt><trkpt lat="38.140945" lon="13.3339067"><ele>55.0</ele><time>2026-05-06T09:39:07.031Z</time></trkpt><trkpt lat="38.1408983" lon="13.33399"><ele>54.6</ele><time>2026-05-06T09:39:10.031Z</time></trkpt><trkpt lat="38.1408167" lon="13.3340683"><ele>54.2</ele><time>2026-05-06T09:39:12.031Z</time></trkpt><trkpt lat="38.14071" lon="13.3341533"><ele>53.8</ele><time>2026-05-06T09:39:14.031Z</time></trkpt><trkpt lat="38.14065" lon="13.3342017"><ele>53.4</ele><time>2026-05-06T09:39:15.031Z</time></trkpt><trkpt lat="38.140585" lon="13.33425"><ele>53.0</ele><time>2026-05-06T09:39:16.031Z</time></trkpt><trkpt lat="38.140515" lon="13.3343067"><ele>52.66666666666667</ele><time>2026-05-06T09:39:17.031Z</time></trkpt><trkpt lat="38.1404433" lon="13.334365"><ele>52.333333333333336</ele><time>2026-05-06T09:39:18.031Z</time></trkpt><trkpt lat="38.1403733" lon="13.334415"><ele>52.0</ele><time>2026-05-06T09:39:19.031Z</time></trkpt><trkpt lat="38.1403133" lon="13.3344733"><ele>51.66666666666667</ele><time>2026-05-06T09:39:20.031Z</time></trkpt><trkpt lat="38.14025" lon="13.3345433"><ele>51.333333333333336</ele><time>2026-05-06T09:39:21.031Z</time></trkpt><trkpt lat="38.1401817" lon="13.33461"><ele>51.0</ele><time>2026-05-06T09:39:22.031Z</time></trkpt><trkpt lat="38.140115" lon="13.3346767"><ele>50.166666666666664</ele><time>2026-05-06T09:39:23.031Z</time></trkpt><trkpt lat="38.14005" lon="13.3347467"><ele>49.333333333333336</ele><time>2026-05-06T09:39:24.031Z</time></trkpt><trkpt lat="38.1399883" lon="13.3348117"><ele>48.5</ele><time>2026-05-06T09:39:25.031Z</time></trkpt><trkpt lat="38.1399317" lon="13.3348767"><ele>47.66666666666667</ele><time>2026-05-06T09:39:26.031Z</time></trkpt><trkpt lat="38.1398783" lon="13.334935"><ele>46.833333333333336</ele><time>2026-05-06T09:39:27.031Z</time></trkpt><trkpt lat="38.1397833" lon="13.335035"><ele>46.0</ele><time>2026-05-06T09:39:29.031Z</time></trkpt><trkpt lat="38.1396983" lon="13.3351167"><ele>46.0</ele><time>2026-05-06T09:39:31.031Z</time></trkpt><trkpt lat="38.1396283" lon="13.33518"><ele>46.0</ele><time>2026-05-06T09:39:33.031Z</time></trkpt><trkpt lat="38.139555" lon="13.33522"><ele>46.0</ele><time>2026-05-06T09:39:35.031Z</time></trkpt><trkpt lat="38.1394783" lon="13.3352483"><ele>46.0</ele><time>2026-05-06T09:39:38.031Z</time></trkpt><trkpt lat="38.1394433" lon="13.3353333"><ele>46.0</ele><time>2026-05-06T09:39:42.031Z</time></trkpt><trkpt lat="38.1395083" lon="13.33537"><ele>46.0</ele><time>2026-05-06T09:43:07.03Z</time></trkpt><trkpt lat="38.139575" lon="13.3353217"><ele>46.0</ele><time>2026-05-06T09:45:49.03Z</time></trkpt><trkpt lat="38.1396667" lon="13.3352833"><ele>46.0</ele><time>2026-05-06T09:45:52.03Z</time></trkpt><trkpt lat="38.1397333" lon="13.3352483"><ele>46.0</ele><time>2026-05-06T09:45:54.03Z</time></trkpt><trkpt lat="38.139795" lon="13.33521"><ele>46.0</ele><time>2026-05-06T09:45:56.03Z</time></trkpt><trkpt lat="38.13985" lon="13.33516"><ele>46.0</ele><time>2026-05-06T09:45:58.03Z</time></trkpt><trkpt lat="38.1399067" lon="13.3350933"><ele>46.0</ele><time>2026-05-06T09:46:01.03Z</time></trkpt><trkpt lat="38.13998" lon="13.33505"><ele>45.8</ele><time>2026-05-06T09:47:21.03Z</time></trkpt><trkpt lat="38.1400533" lon="13.3349767"><ele>45.599999999999994</ele><time>2026-05-06T09:47:23.03Z</time></trkpt><trkpt lat="38.1401233" lon="13.3348667"><ele>45.4</ele><time>2026-05-06T09:47:25.03Z</time></trkpt><trkpt lat="38.140175" lon="13.3348"><ele>45.2</ele><time>2026-05-06T09:47:27.03Z</time></trkpt><trkpt lat="38.1402517" lon="13.3347433"><ele>45.0</ele><time>2026-05-06T09:47:29.03Z</time></trkpt><trkpt lat="38.1403417" lon="13.334665"><ele>46.2</ele><time>2026-05-06T09:47:31.03Z</time></trkpt><trkpt lat="38.1404417" lon="13.33457"><ele>47.4</ele><time>2026-05-06T09:47:33.03Z</time></trkpt><trkpt lat="38.14052" lon="13.33448"><ele>48.599999999999994</ele><time>2026-05-06T09:47:35.029Z</time></trkpt><trkpt lat="38.1405533" lon="13.3343867"><ele>49.8</ele><time>2026-05-06T09:48:44.029Z</time></trkpt><trkpt lat="38.1406267" lon="13.33434"><ele>51.0</ele><time>2026-05-06T09:48:47.029Z</time></trkpt><trkpt lat="38.1406933" lon="13.3342817"><ele>50.833333333333336</ele><time>2026-05-06T09:48:49.029Z</time></trkpt><trkpt lat="38.14075" lon="13.33421"><ele>50.66666666666667</ele><time>2026-05-06T09:48:51.029Z</time></trkpt><trkpt lat="38.1407883" lon="13.33414"><ele>50.5</ele><time>2026-05-06T09:48:54.029Z</time></trkpt><trkpt lat="38.1407833" lon="13.3340333"><ele>50.333333333333336</ele><time>2026-05-06T09:48:58.029Z</time></trkpt><trkpt lat="38.1407383" lon="13.3338733"><ele>50.16666666666667</ele><time>2026-05-06T09:49:00.029Z</time></trkpt><trkpt lat="38.1407067" lon="13.333775"><ele>50.0</ele><time>2026-05-06T09:49:01.029Z</time></trkpt><trkpt lat="38.1406717" lon="13.3336667"><ele>50.00000000000001</ele><time>2026-05-06T09:49:02.029Z</time></trkpt><trkpt lat="38.1406383" lon="13.3335583"><ele>50.0</ele><time>2026-05-06T09:49:03.029Z</time></trkpt><trkpt lat="38.1406183" lon="13.33345"><ele>50.0</ele><time>2026-05-06T09:49:04.029Z</time></trkpt><trkpt lat="38.1405983" lon="13.3333667"><ele>50.0</ele><time>2026-05-06T09:49:05.029Z</time></trkpt><trkpt lat="38.14057" lon="13.333295"><ele>50.00000000000001</ele><time>2026-05-06T09:49:06.029Z</time></trkpt><trkpt lat="38.1405367" lon="13.3331717"><ele>50.0</ele><time>2026-05-06T09:49:08.029Z</time></trkpt><trkpt lat="38.1404967" lon="13.3330433"><ele>49.2</ele><time>2026-05-06T09:49:10.029Z</time></trkpt><trkpt lat="38.14046" lon="13.3329233"><ele>48.4</ele><time>2026-05-06T09:49:12.029Z</time></trkpt><trkpt lat="38.1404267" lon="13.3328233"><ele>47.599999999999994</ele><time>2026-05-06T09:49:14.029Z</time></trkpt><trkpt lat="38.14039" lon="13.332705"><ele>46.8</ele><time>2026-05-06T09:49:16.029Z</time></trkpt><trkpt lat="38.1403383" lon="13.33258"><ele>46.0</ele><time>2026-05-06T09:49:18.029Z</time></trkpt><trkpt lat="38.1402783" lon="13.33244"><ele>46.0</ele><time>2026-05-06T09:49:20.029Z</time></trkpt><trkpt lat="38.1402517" lon="13.33236"><ele>46.0</ele><time>2026-05-06T09:49:21.029Z</time></trkpt><trkpt lat="38.1402317" lon="13.3322717"><ele>46.0</ele><time>2026-05-06T09:49:22.029Z</time></trkpt><trkpt lat="38.1402133" lon="13.3321633"><ele>46.0</ele><time>2026-05-06T09:49:23.029Z</time></trkpt><trkpt lat="38.1402133" lon="13.332065"><ele>46.0</ele><time>2026-05-06T09:49:24.029Z</time></trkpt><trkpt lat="38.1402283" lon="13.3319717"><ele>46.0</ele><time>2026-05-06T09:49:25.029Z</time></trkpt><trkpt lat="38.1402467" lon="13.331885"><ele>45.199999999999996</ele><time>2026-05-06T09:49:26.029Z</time></trkpt><trkpt lat="38.1403183" lon="13.3317967"><ele>44.4</ele><time>2026-05-06T09:49:28.029Z</time></trkpt><trkpt lat="38.140385" lon="13.3317567"><ele>43.6</ele><time>2026-05-06T09:49:30.029Z</time></trkpt><trkpt lat="38.1404633" lon="13.3317333"><ele>42.8</ele><time>2026-05-06T09:49:32.029Z</time></trkpt><trkpt lat="38.14055" lon="13.3316833"><ele>42.0</ele><time>2026-05-06T09:49:34.028Z</time></trkpt><trkpt lat="38.14064" lon="13.3316033"><ele>42.0</ele><time>2026-05-06T09:49:36.029Z</time></trkpt><trkpt lat="38.1407083" lon="13.331495"><ele>42.0</ele><time>2026-05-06T09:49:38.028Z</time></trkpt><trkpt lat="38.1407417" lon="13.3313583"><ele>42.0</ele><time>2026-05-06T09:49:40.029Z</time></trkpt><trkpt lat="38.1407433" lon="13.33124"><ele>42.0</ele><time>2026-05-06T09:49:42.029Z</time></trkpt><trkpt lat="38.1407167" lon="13.3311317"><ele>42.0</ele><time>2026-05-06T09:49:44.029Z</time></trkpt><trkpt lat="38.1406733" lon="13.33105"><ele>42.333333333333336</ele><time>2026-05-06T09:49:46.029Z</time></trkpt><trkpt lat="38.140605" lon="13.3309733"><ele>42.666666666666664</ele><time>2026-05-06T09:49:49.029Z</time></trkpt><trkpt lat="38.1405417" lon="13.33093"><ele>43.0</ele><time>2026-05-06T09:49:51.028Z</time></trkpt><trkpt lat="38.1404617" lon="13.3308983"><ele>43.33333333333333</ele><time>2026-05-06T09:49:53.029Z</time></trkpt><trkpt lat="38.1403633" lon="13.33087"><ele>43.666666666666664</ele><time>2026-05-06T09:49:55.029Z</time></trkpt><trkpt lat="38.1402917" lon="13.3308583"><ele>44.0</ele><time>2026-05-06T09:49:56.029Z</time></trkpt><trkpt lat="38.1402033" lon="13.3308533"><ele>44.0</ele><time>2026-05-06T09:49:57.029Z</time></trkpt><trkpt lat="38.140095" lon="13.3308567"><ele>44.0</ele><time>2026-05-06T09:49:58.029Z</time></trkpt><trkpt lat="38.1399833" lon="13.33087"><ele>44.0</ele><time>2026-05-06T09:49:59.029Z</time></trkpt><trkpt lat="38.1398583" lon="13.3308867"><ele>44.0</ele><time>2026-05-06T09:50:00.029Z</time></trkpt><trkpt lat="38.139735" lon="13.3309"><ele>44.0</ele><time>2026-05-06T09:50:01.029Z</time></trkpt><trkpt lat="38.139605" lon="13.330905"><ele>44.0</ele><time>2026-05-06T09:50:02.029Z</time></trkpt><trkpt lat="38.13947" lon="13.3309033"><ele>44.0</ele><time>2026-05-06T09:50:03.029Z</time></trkpt><trkpt lat="38.13932" lon="13.3308867"><ele>44.0</ele><time>2026-05-06T09:50:04.029Z</time></trkpt><trkpt lat="38.139175" lon="13.33087"><ele>44.0</ele><time>2026-05-06T09:50:05.029Z</time></trkpt><trkpt lat="38.139025" lon="13.3308617"><ele>44.0</ele><time>2026-05-06T09:50:06.029Z</time></trkpt><trkpt lat="38.1388667" lon="13.3308383"><ele>44.0</ele><time>2026-05-06T09:50:07.029Z</time></trkpt><trkpt lat="38.1387167" lon="13.3308183"><ele>44.0</ele><time>2026-05-06T09:50:08.029Z</time></trkpt><trkpt lat="38.138565" lon="13.3308067"><ele>44.0</ele><time>2026-05-06T09:50:09.029Z</time></trkpt><trkpt lat="38.1384183" lon="13.3307883"><ele>44.0</ele><time>2026-05-06T09:50:10.029Z</time></trkpt><trkpt lat="38.1382717" lon="13.3307717"><ele>44.0</ele><time>2026-05-06T09:50:11.029Z</time></trkpt><trkpt lat="38.1381333" lon="13.33076"><ele>44.0</ele><time>2026-05-06T09:50:12.029Z</time></trkpt><trkpt lat="38.1379983" lon="13.33074"><ele>44.0</ele><time>2026-05-06T09:50:13.029Z</time></trkpt><trkpt lat="38.1378733" lon="13.3307183"><ele>44.0</ele><time>2026-05-06T09:50:14.029Z</time></trkpt><trkpt lat="38.13775" lon="13.3307"><ele>44.0</ele><time>2026-05-06T09:50:15.029Z</time></trkpt><trkpt lat="38.1376367" lon="13.33069"><ele>44.0</ele><time>2026-05-06T09:50:16.029Z</time></trkpt><trkpt lat="38.13753" lon="13.3306717"><ele>44.0</ele><time>2026-05-06T09:50:17.029Z</time></trkpt><trkpt lat="38.1374267" lon="13.330655"><ele>44.0</ele><time>2026-05-06T09:50:18.029Z</time></trkpt><trkpt lat="38.1373283" lon="13.3306383"><ele>44.0</ele><time>2026-05-06T09:50:19.029Z</time></trkpt><trkpt lat="38.1372217" lon="13.3306217"><ele>44.0</ele><time>2026-05-06T09:50:20.029Z</time></trkpt><trkpt lat="38.1371267" lon="13.33061"><ele>44.2</ele><time>2026-05-06T09:50:21.029Z</time></trkpt><trkpt lat="38.137025" lon="13.3305917"><ele>44.400000000000006</ele><time>2026-05-06T09:50:22.029Z</time></trkpt><trkpt lat="38.136935" lon="13.3305783"><ele>44.6</ele><time>2026-05-06T09:50:23.029Z</time></trkpt><trkpt lat="38.136845" lon="13.3305633"><ele>44.8</ele><time>2026-05-06T09:50:24.028Z</time></trkpt><trkpt lat="38.1367617" lon="13.330545"><ele>45.0</ele><time>2026-05-06T09:50:25.029Z</time></trkpt><trkpt lat="38.1366817" lon="13.3305267"><ele>45.166666666666664</ele><time>2026-05-06T09:50:26.028Z</time></trkpt><trkpt lat="38.136605" lon="13.330515"><ele>45.333333333333336</ele><time>2026-05-06T09:50:27.028Z</time></trkpt><trkpt lat="38.1365283" lon="13.3305083"><ele>45.5</ele><time>2026-05-06T09:50:28.029Z</time></trkpt><trkpt lat="38.1364433" lon="13.3304983"><ele>45.66666666666667</ele><time>2026-05-06T09:50:29.029Z</time></trkpt><trkpt lat="38.1363633" lon="13.3304883"><ele>45.833333333333336</ele><time>2026-05-06T09:50:30.029Z</time></trkpt><trkpt lat="38.136295" lon="13.3304783"><ele>46.0</ele><time>2026-05-06T09:50:31.029Z</time></trkpt><trkpt lat="38.1361867" lon="13.3304683"><ele>46.0</ele><time>2026-05-06T09:50:33.029Z</time></trkpt><trkpt lat="38.1360917" lon="13.3304683"><ele>46.0</ele><time>2026-05-06T09:50:35.029Z</time></trkpt><trkpt lat="38.1359817" lon="13.33045"><ele>46.0</ele><time>2026-05-06T09:50:37.029Z</time></trkpt><trkpt lat="38.13586" lon="13.3304317"><ele>46.0</ele><time>2026-05-06T09:50:39.028Z</time></trkpt><trkpt lat="38.1357967" lon="13.3304333"><ele>46.0</ele><time>2026-05-06T09:50:40.029Z</time></trkpt><trkpt lat="38.1357067" lon="13.3304267"><ele>46.0</ele><time>2026-05-06T09:50:41.029Z</time></trkpt><trkpt lat="38.1356117" lon="13.3304217"><ele>46.0</ele><time>2026-05-06T09:50:42.029Z</time></trkpt><trkpt lat="38.1355283" lon="13.3304167"><ele>46.0</ele><time>2026-05-06T09:50:43.029Z</time></trkpt><trkpt lat="38.1354483" lon="13.3304067"><ele>46.0</ele><time>2026-05-06T09:50:44.029Z</time></trkpt><trkpt lat="38.135375" lon="13.330395"><ele>46.0</ele><time>2026-05-06T09:50:45.029Z</time></trkpt><trkpt lat="38.1353083" lon="13.3303833"><ele>46.0</ele><time>2026-05-06T09:50:46.029Z</time></trkpt><trkpt lat="38.1352" lon="13.3303767"><ele>46.0</ele><time>2026-05-06T09:50:48.029Z</time></trkpt><trkpt lat="38.1351333" lon="13.3303933"><ele>46.0</ele><time>2026-05-06T09:50:50.029Z</time></trkpt><trkpt lat="38.1350217" lon="13.3304117"><ele>46.0</ele><time>2026-05-06T09:50:53.028Z</time></trkpt><trkpt lat="38.1349517" lon="13.3304083"><ele>46.0</ele><time>2026-05-06T09:50:54.029Z</time></trkpt><trkpt lat="38.13487" lon="13.3303983"><ele>46.0</ele><time>2026-05-06T09:50:55.029Z</time></trkpt><trkpt lat="38.134785" lon="13.33039"><ele>46.0</ele><time>2026-05-06T09:50:56.029Z</time></trkpt><trkpt lat="38.1346883" lon="13.3303767"><ele>46.25</ele><time>2026-05-06T09:50:57.029Z</time></trkpt><trkpt lat="38.13458" lon="13.33036"><ele>46.5</ele><time>2026-05-06T09:50:58.029Z</time></trkpt><trkpt lat="38.1344633" lon="13.3303467"><ele>46.75</ele><time>2026-05-06T09:50:59.029Z</time></trkpt><trkpt lat="38.1343367" lon="13.3303317"><ele>47.0</ele><time>2026-05-06T09:51:00.029Z</time></trkpt><trkpt lat="38.1342" lon="13.3303067"><ele>47.0</ele><time>2026-05-06T09:51:01.029Z</time></trkpt><trkpt lat="38.1340633" lon="13.3302917"><ele>47.0</ele><time>2026-05-06T09:51:02.029Z</time></trkpt><trkpt lat="38.1339367" lon="13.330275"><ele>47.0</ele><time>2026-05-06T09:51:03.029Z</time></trkpt><trkpt lat="38.133805" lon="13.3302533"><ele>47.0</ele><time>2026-05-06T09:51:04.029Z</time></trkpt><trkpt lat="38.13368" lon="13.33023"><ele>47.0</ele><time>2026-05-06T09:51:05.029Z</time></trkpt><trkpt lat="38.133555" lon="13.33021"><ele>47.0</ele><time>2026-05-06T09:51:06.028Z</time></trkpt><trkpt lat="38.1334383" lon="13.3301933"><ele>47.0</ele><time>2026-05-06T09:51:07.029Z</time></trkpt><trkpt lat="38.1333233" lon="13.3301817"><ele>47.0</ele><time>2026-05-06T09:51:08.029Z</time></trkpt><trkpt lat="38.133215" lon="13.3301717"><ele>47.0</ele><time>2026-05-06T09:51:09.029Z</time></trkpt><trkpt lat="38.133105" lon="13.3301617"><ele>47.0</ele><time>2026-05-06T09:51:10.029Z</time></trkpt><trkpt lat="38.1329833" lon="13.3301533"><ele>47.0</ele><time>2026-05-06T09:51:11.029Z</time></trkpt><trkpt lat="38.1328567" lon="13.330145"><ele>47.0</ele><time>2026-05-06T09:51:12.029Z</time></trkpt><trkpt lat="38.1327317" lon="13.3301333"><ele>47.0</ele><time>2026-05-06T09:51:13.029Z</time></trkpt><trkpt lat="38.1326067" lon="13.33013"><ele>47.0</ele><time>2026-05-06T09:51:14.029Z</time></trkpt><trkpt lat="38.1324883" lon="13.3301167"><ele>47.0</ele><time>2026-05-06T09:51:15.029Z</time></trkpt><trkpt lat="38.1323717" lon="13.33011"><ele>47.0</ele><time>2026-05-06T09:51:16.029Z</time></trkpt><trkpt lat="38.1322567" lon="13.3300967"><ele>47.5</ele><time>2026-05-06T09:51:17.029Z</time></trkpt><trkpt lat="38.132145" lon="13.33008"><ele>48.0</ele><time>2026-05-06T09:51:18.029Z</time></trkpt><trkpt lat="38.1320333" lon="13.3300583"><ele>48.5</ele><time>2026-05-06T09:51:19.029Z</time></trkpt><trkpt lat="38.1319217" lon="13.3300333"><ele>49.0</ele><time>2026-05-06T09:51:20.029Z</time></trkpt><trkpt lat="38.131805" lon="13.3300217"><ele>49.0</ele><time>2026-05-06T09:51:21.029Z</time></trkpt><trkpt lat="38.1316867" lon="13.3300067"><ele>49.0</ele><time>2026-05-06T09:51:22.029Z</time></trkpt><trkpt lat="38.1315683" lon="13.3299833"><ele>49.0</ele><time>2026-05-06T09:51:23.029Z</time></trkpt><trkpt lat="38.1314483" lon="13.3299667"><ele>49.0</ele><time>2026-05-06T09:51:24.029Z</time></trkpt><trkpt lat="38.131325" lon="13.32995"><ele>48.5</ele><time>2026-05-06T09:51:25.029Z</time></trkpt><trkpt lat="38.13121" lon="13.3299383"><ele>48.0</ele><time>2026-05-06T09:51:26.029Z</time></trkpt><trkpt lat="38.1310933" lon="13.329925"><ele>47.5</ele><time>2026-05-06T09:51:27.029Z</time></trkpt><trkpt lat="38.130975" lon="13.3299117"><ele>47.0</ele><time>2026-05-06T09:51:28.029Z</time></trkpt><trkpt lat="38.130855" lon="13.3298967"><ele>47.0</ele><time>2026-05-06T09:51:29.029Z</time></trkpt><trkpt lat="38.1307283" lon="13.329885"><ele>47.0</ele><time>2026-05-06T09:51:30.029Z</time></trkpt><trkpt lat="38.1306017" lon="13.329875"><ele>47.0</ele><time>2026-05-06T09:51:31.029Z</time></trkpt><trkpt lat="38.1304767" lon="13.3298667"><ele>47.0</ele><time>2026-05-06T09:51:32.029Z</time></trkpt><trkpt lat="38.1303533" lon="13.3298483"><ele>47.75</ele><time>2026-05-06T09:51:33.029Z</time></trkpt><trkpt lat="38.13023" lon="13.3298317"><ele>48.5</ele><time>2026-05-06T09:51:34.029Z</time></trkpt><trkpt lat="38.13011" lon="13.3298133"><ele>49.25</ele><time>2026-05-06T09:51:35.029Z</time></trkpt><trkpt lat="38.12999" lon="13.3297983"><ele>50.0</ele><time>2026-05-06T09:51:36.029Z</time></trkpt><trkpt lat="38.129875" lon="13.329785"><ele>50.25</ele><time>2026-05-06T09:51:37.029Z</time></trkpt><trkpt lat="38.1297633" lon="13.329775"><ele>50.5</ele><time>2026-05-06T09:51:38.029Z</time></trkpt><trkpt lat="38.1296483" lon="13.3297617"><ele>50.75</ele><time>2026-05-06T09:51:39.029Z</time></trkpt><trkpt lat="38.1295133" lon="13.3297533"><ele>51.0</ele><time>2026-05-06T09:51:40.029Z</time></trkpt><trkpt lat="38.129395" lon="13.32974"><ele>50.5</ele><time>2026-05-06T09:51:41.029Z</time></trkpt><trkpt lat="38.1292783" lon="13.3297217"><ele>50.0</ele><time>2026-05-06T09:51:42.029Z</time></trkpt><trkpt lat="38.1291567" lon="13.3297"><ele>49.5</ele><time>2026-05-06T09:51:43.029Z</time></trkpt><trkpt lat="38.1290267" lon="13.3296783"><ele>49.0</ele><time>2026-05-06T09:51:44.029Z</time></trkpt><trkpt lat="38.1289" lon="13.329665"><ele>49.0</ele><time>2026-05-06T09:51:45.029Z</time></trkpt><trkpt lat="38.128765" lon="13.32965"><ele>49.0</ele><time>2026-05-06T09:51:46.029Z</time></trkpt><trkpt lat="38.12864" lon="13.3296383"><ele>49.0</ele><time>2026-05-06T09:51:47.029Z</time></trkpt><trkpt lat="38.128505" lon="13.3296167"><ele>49.0</ele><time>2026-05-06T09:51:48.029Z</time></trkpt><trkpt lat="38.1283717" lon="13.3296017"><ele>49.0</ele><time>2026-05-06T09:51:49.029Z</time></trkpt><trkpt lat="38.1282517" lon="13.32958"><ele>49.0</ele><time>2026-05-06T09:51:50.029Z</time></trkpt><trkpt lat="38.12813" lon="13.32956"><ele>49.0</ele><time>2026-05-06T09:51:51.029Z</time></trkpt><trkpt lat="38.128005" lon="13.329535"><ele>49.0</ele><time>2026-05-06T09:51:52.029Z</time></trkpt><trkpt lat="38.1278833" lon="13.3295233"><ele>50.0</ele><time>2026-05-06T09:51:53.029Z</time></trkpt><trkpt lat="38.1277733" lon="13.329505"><ele>51.0</ele><time>2026-05-06T09:51:54.029Z</time></trkpt><trkpt lat="38.12767" lon="13.3294933"><ele>52.00000000000001</ele><time>2026-05-06T09:51:55.029Z</time></trkpt><trkpt lat="38.1275667" lon="13.3294817"><ele>53.0</ele><time>2026-05-06T09:51:56.029Z</time></trkpt><trkpt lat="38.1274633" lon="13.3294667"><ele>54.0</ele><time>2026-05-06T09:51:57.029Z</time></trkpt><trkpt lat="38.1273533" lon="13.3294467"><ele>54.0</ele><time>2026-05-06T09:51:58.029Z</time></trkpt><trkpt lat="38.1272383" lon="13.32943"><ele>54.0</ele><time>2026-05-06T09:51:59.029Z</time></trkpt><trkpt lat="38.12712" lon="13.3294183"><ele>54.0</ele><time>2026-05-06T09:52:00.029Z</time></trkpt><trkpt lat="38.1270017" lon="13.3294083"><ele>54.0</ele><time>2026-05-06T09:52:01.029Z</time></trkpt><trkpt lat="38.1268833" lon="13.3293967"><ele>54.0</ele><time>2026-05-06T09:52:02.029Z</time></trkpt><trkpt lat="38.1267667" lon="13.3293867"><ele>54.0</ele><time>2026-05-06T09:52:03.029Z</time></trkpt><trkpt lat="38.1266483" lon="13.329375"><ele>54.0</ele><time>2026-05-06T09:52:04.029Z</time></trkpt><trkpt lat="38.1265283" lon="13.3293617"><ele>54.0</ele><time>2026-05-06T09:52:05.029Z</time></trkpt><trkpt lat="38.12641" lon="13.3293483"><ele>55.400000000000006</ele><time>2026-05-06T09:52:06.029Z</time></trkpt><trkpt lat="38.126295" lon="13.3293383"><ele>56.800000000000004</ele><time>2026-05-06T09:52:07.029Z</time></trkpt><trkpt lat="38.12618" lon="13.3293183"><ele>58.199999999999996</ele><time>2026-05-06T09:52:08.029Z</time></trkpt><trkpt lat="38.1260733" lon="13.3293017"><ele>59.599999999999994</ele><time>2026-05-06T09:52:09.029Z</time></trkpt><trkpt lat="38.1259667" lon="13.3292783"><ele>61.0</ele><time>2026-05-06T09:52:10.029Z</time></trkpt><trkpt lat="38.1258633" lon="13.3292633"><ele>61.0</ele><time>2026-05-06T09:52:11.029Z</time></trkpt><trkpt lat="38.12576" lon="13.32925"><ele>60.99999999999999</ele><time>2026-05-06T09:52:12.029Z</time></trkpt><trkpt lat="38.1256567" lon="13.329235"><ele>60.99999999999999</ele><time>2026-05-06T09:52:13.029Z</time></trkpt><trkpt lat="38.1255533" lon="13.3292233"><ele>61.0</ele><time>2026-05-06T09:52:14.029Z</time></trkpt><trkpt lat="38.12545" lon="13.3292133"><ele>61.0</ele><time>2026-05-06T09:52:15.029Z</time></trkpt><trkpt lat="38.1253467" lon="13.3292067"><ele>60.8</ele><time>2026-05-06T09:52:16.029Z</time></trkpt><trkpt lat="38.1252383" lon="13.32919"><ele>60.599999999999994</ele><time>2026-05-06T09:52:17.029Z</time></trkpt><trkpt lat="38.125135" lon="13.329185"><ele>60.4</ele><time>2026-05-06T09:52:18.029Z</time></trkpt><trkpt lat="38.1250383" lon="13.32918"><ele>60.2</ele><time>2026-05-06T09:52:19.029Z</time></trkpt><trkpt lat="38.124945" lon="13.3291667"><ele>60.0</ele><time>2026-05-06T09:52:20.029Z</time></trkpt><trkpt lat="38.1248617" lon="13.3291533"><ele>61.0</ele><time>2026-05-06T09:52:21.029Z</time></trkpt><trkpt lat="38.12479" lon="13.32914"><ele>62.0</ele><time>2026-05-06T09:52:22.029Z</time></trkpt><trkpt lat="38.1247267" lon="13.329135"><ele>63.0</ele><time>2026-05-06T09:52:23.029Z</time></trkpt><trkpt lat="38.1246533" lon="13.32912"><ele>64.0</ele><time>2026-05-06T09:52:24.029Z</time></trkpt><trkpt lat="38.1245683" lon="13.3291067"><ele>65.0</ele><time>2026-05-06T09:52:25.029Z</time></trkpt><trkpt lat="38.1244767" lon="13.3290933"><ele>66.0</ele><time>2026-05-06T09:52:26.029Z</time></trkpt><trkpt lat="38.1243783" lon="13.3290783"><ele>66.0</ele><time>2026-05-06T09:52:27.029Z</time></trkpt><trkpt lat="38.1242733" lon="13.3290567"><ele>66.0</ele><time>2026-05-06T09:52:28.029Z</time></trkpt><trkpt lat="38.1241733" lon="13.3290467"><ele>66.0</ele><time>2026-05-06T09:52:29.029Z</time></trkpt><trkpt lat="38.1240767" lon="13.3290417"><ele>66.0</ele><time>2026-05-06T09:52:30.029Z</time></trkpt><trkpt lat="38.12398" lon="13.3290283"><ele>66.0</ele><time>2026-05-06T09:52:31.029Z</time></trkpt><trkpt lat="38.12388" lon="13.3290183"><ele>64.6</ele><time>2026-05-06T09:52:32.029Z</time></trkpt><trkpt lat="38.123775" lon="13.3290083"><ele>63.199999999999996</ele><time>2026-05-06T09:52:33.029Z</time></trkpt><trkpt lat="38.1236733" lon="13.32899"><ele>61.800000000000004</ele><time>2026-05-06T09:52:34.029Z</time></trkpt><trkpt lat="38.1235667" lon="13.3289833"><ele>60.400000000000006</ele><time>2026-05-06T09:52:35.029Z</time></trkpt><trkpt lat="38.123465" lon="13.3289783"><ele>59.0</ele><time>2026-05-06T09:52:36.029Z</time></trkpt><trkpt lat="38.1233717" lon="13.3289683"><ele>59.0</ele><time>2026-05-06T09:52:37.028Z</time></trkpt><trkpt lat="38.12328" lon="13.32896"><ele>59.00000000000001</ele><time>2026-05-06T09:52:38.028Z</time></trkpt><trkpt lat="38.1231883" lon="13.32895"><ele>59.00000000000001</ele><time>2026-05-06T09:52:39.029Z</time></trkpt><trkpt lat="38.1230933" lon="13.3289417"><ele>59.0</ele><time>2026-05-06T09:52:40.029Z</time></trkpt><trkpt lat="38.1229933" lon="13.32893"><ele>59.0</ele><time>2026-05-06T09:52:41.029Z</time></trkpt><trkpt lat="38.122885" lon="13.3289167"><ele>59.75</ele><time>2026-05-06T09:52:42.029Z</time></trkpt><trkpt lat="38.1227717" lon="13.3289083"><ele>60.5</ele><time>2026-05-06T09:52:43.029Z</time></trkpt><trkpt lat="38.1226617" lon="13.3289"><ele>61.25</ele><time>2026-05-06T09:52:44.028Z</time></trkpt><trkpt lat="38.12255" lon="13.3288867"><ele>62.0</ele><time>2026-05-06T09:52:45.029Z</time></trkpt><trkpt lat="38.1224333" lon="13.3288733"><ele>61.75</ele><time>2026-05-06T09:52:46.029Z</time></trkpt><trkpt lat="38.1223133" lon="13.328855"><ele>61.5</ele><time>2026-05-06T09:52:47.029Z</time></trkpt><trkpt lat="38.1221967" lon="13.3288383"><ele>61.25</ele><time>2026-05-06T09:52:48.029Z</time></trkpt><trkpt lat="38.1220933" lon="13.3288283"><ele>61.0</ele><time>2026-05-06T09:52:49.029Z</time></trkpt><trkpt lat="38.1219817" lon="13.3288217"><ele>61.0</ele><time>2026-05-06T09:52:50.029Z</time></trkpt><trkpt lat="38.121865" lon="13.3288083"><ele>61.0</ele><time>2026-05-06T09:52:51.029Z</time></trkpt><trkpt lat="38.1217367" lon="13.3287933"><ele>61.0</ele><time>2026-05-06T09:52:52.029Z</time></trkpt><trkpt lat="38.1216133" lon="13.32878"><ele>61.0</ele><time>2026-05-06T09:52:53.029Z</time></trkpt><trkpt lat="38.1214867" lon="13.3287667"><ele>61.25</ele><time>2026-05-06T09:52:54.029Z</time></trkpt><trkpt lat="38.1213633" lon="13.3287567"><ele>61.5</ele><time>2026-05-06T09:52:55.029Z</time></trkpt><trkpt lat="38.1212417" lon="13.3287383"><ele>61.75</ele><time>2026-05-06T09:52:56.029Z</time></trkpt><trkpt lat="38.1211217" lon="13.3287267"><ele>62.0</ele><time>2026-05-06T09:52:57.029Z</time></trkpt><trkpt lat="38.1210033" lon="13.32872"><ele>62.0</ele><time>2026-05-06T09:52:58.029Z</time></trkpt><trkpt lat="38.1208833" lon="13.3287033"><ele>62.0</ele><time>2026-05-06T09:52:59.029Z</time></trkpt><trkpt lat="38.1207683" lon="13.3286917"><ele>62.0</ele><time>2026-05-06T09:53:00.029Z</time></trkpt><trkpt lat="38.1206533" lon="13.3286767"><ele>62.0</ele><time>2026-05-06T09:53:01.029Z</time></trkpt><trkpt lat="38.12055" lon="13.328665"><ele>62.16666666666667</ele><time>2026-05-06T09:53:02.029Z</time></trkpt><trkpt lat="38.1204517" lon="13.3286517"><ele>62.333333333333336</ele><time>2026-05-06T09:53:03.029Z</time></trkpt><trkpt lat="38.120355" lon="13.3286417"><ele>62.5</ele><time>2026-05-06T09:53:04.029Z</time></trkpt><trkpt lat="38.12026" lon="13.3286283"><ele>62.66666666666667</ele><time>2026-05-06T09:53:05.028Z</time></trkpt><trkpt lat="38.1201817" lon="13.32862"><ele>62.833333333333336</ele><time>2026-05-06T09:53:06.029Z</time></trkpt><trkpt lat="38.120115" lon="13.32861"><ele>63.0</ele><time>2026-05-06T09:53:07.029Z</time></trkpt><trkpt lat="38.1199967" lon="13.3285933"><ele>63.0</ele><time>2026-05-06T09:53:09.028Z</time></trkpt><trkpt lat="38.1199067" lon="13.3285783"><ele>63.0</ele><time>2026-05-06T09:53:11.028Z</time></trkpt><trkpt lat="38.11983" lon="13.3285733"><ele>63.0</ele><time>2026-05-06T09:53:13.028Z</time></trkpt><trkpt lat="38.1197433" lon="13.328575"><ele>63.0</ele><time>2026-05-06T09:53:15.028Z</time></trkpt><trkpt lat="38.1196767" lon="13.3285683"><ele>63.0</ele><time>2026-05-06T09:53:17.028Z</time></trkpt><trkpt lat="38.1195833" lon="13.328565"><ele>63.0</ele><time>2026-05-06T09:53:30.028Z</time></trkpt><trkpt lat="38.11947" lon="13.3285717"><ele>64.0</ele><time>2026-05-06T09:53:32.028Z</time></trkpt><trkpt lat="38.1193983" lon="13.32858"><ele>65.0</ele><time>2026-05-06T09:53:33.028Z</time></trkpt><trkpt lat="38.1193183" lon="13.3285867"><ele>66.0</ele><time>2026-05-06T09:53:34.028Z</time></trkpt><trkpt lat="38.1192283" lon="13.3285867"><ele>67.0</ele><time>2026-05-06T09:53:35.028Z</time></trkpt><trkpt lat="38.119125" lon="13.32859"><ele>68.0</ele><time>2026-05-06T09:53:36.028Z</time></trkpt><trkpt lat="38.11902" lon="13.328595"><ele>68.75</ele><time>2026-05-06T09:53:37.028Z</time></trkpt><trkpt lat="38.1189033" lon="13.3285933"><ele>69.5</ele><time>2026-05-06T09:53:38.028Z</time></trkpt><trkpt lat="38.1187917" lon="13.328605"><ele>70.25</ele><time>2026-05-06T09:53:39.028Z</time></trkpt><trkpt lat="38.118665" lon="13.328615"><ele>71.0</ele><time>2026-05-06T09:53:40.028Z</time></trkpt><trkpt lat="38.118545" lon="13.32863"><ele>71.0</ele><time>2026-05-06T09:53:41.027Z</time></trkpt><trkpt lat="38.1184183" lon="13.3286483"><ele>71.0</ele><time>2026-05-06T09:53:42.028Z</time></trkpt><trkpt lat="38.1182817" lon="13.328665"><ele>71.0</ele><time>2026-05-06T09:53:43.028Z</time></trkpt><trkpt lat="38.1181567" lon="13.32868"><ele>71.0</ele><time>2026-05-06T09:53:44.028Z</time></trkpt><trkpt lat="38.1180333" lon="13.3286933"><ele>72.0</ele><time>2026-05-06T09:53:45.028Z</time></trkpt><trkpt lat="38.1179083" lon="13.3287117"><ele>73.0</ele><time>2026-05-06T09:53:46.028Z</time></trkpt><trkpt lat="38.1177733" lon="13.3287217"><ele>74.0</ele><time>2026-05-06T09:53:47.028Z</time></trkpt><trkpt lat="38.117645" lon="13.3287433"><ele>75.0</ele><time>2026-05-06T09:53:48.028Z</time></trkpt><trkpt lat="38.1175117" lon="13.3287617"><ele>74.5</ele><time>2026-05-06T09:53:49.028Z</time></trkpt><trkpt lat="38.1173733" lon="13.3287867"><ele>74.0</ele><time>2026-05-06T09:53:50.028Z</time></trkpt><trkpt lat="38.1172283" lon="13.3288133"><ele>73.5</ele><time>2026-05-06T09:53:51.028Z</time></trkpt><trkpt lat="38.11709" lon="13.3288317"><ele>73.0</ele><time>2026-05-06T09:53:52.028Z</time></trkpt><trkpt lat="38.11695" lon="13.3288517"><ele>73.0</ele><time>2026-05-06T09:53:53.028Z</time></trkpt><trkpt lat="38.1168133" lon="13.328875"><ele>73.0</ele><time>2026-05-06T09:53:54.028Z</time></trkpt><trkpt lat="38.1166667" lon="13.3288983"><ele>73.0</ele><time>2026-05-06T09:53:55.028Z</time></trkpt><trkpt lat="38.1165183" lon="13.3289233"><ele>73.0</ele><time>2026-05-06T09:53:56.028Z</time></trkpt><trkpt lat="38.1163767" lon="13.3289417"><ele>72.0</ele><time>2026-05-06T09:53:57.028Z</time></trkpt><trkpt lat="38.1162367" lon="13.3289567"><ele>71.0</ele><time>2026-05-06T09:53:58.028Z</time></trkpt><trkpt lat="38.116095" lon="13.32897"><ele>70.0</ele><time>2026-05-06T09:53:59.028Z</time></trkpt><trkpt lat="38.1159533" lon="13.3289867"><ele>69.0</ele><time>2026-05-06T09:54:00.027Z</time></trkpt><trkpt lat="38.115815" lon="13.3290083"><ele>69.0</ele><time>2026-05-06T09:54:01.028Z</time></trkpt><trkpt lat="38.11568" lon="13.32903"><ele>69.0</ele><time>2026-05-06T09:54:02.028Z</time></trkpt><trkpt lat="38.1155417" lon="13.3290483"><ele>69.0</ele><time>2026-05-06T09:54:03.028Z</time></trkpt><trkpt lat="38.1154" lon="13.3290617"><ele>69.0</ele><time>2026-05-06T09:54:04.028Z</time></trkpt><trkpt lat="38.115255" lon="13.32907"><ele>69.0</ele><time>2026-05-06T09:54:05.028Z</time></trkpt><trkpt lat="38.11511" lon="13.3290883"><ele>69.0</ele><time>2026-05-06T09:54:06.028Z</time></trkpt><trkpt lat="38.114975" lon="13.329105"><ele>69.0</ele><time>2026-05-06T09:54:07.028Z</time></trkpt><trkpt lat="38.1148317" lon="13.329125"><ele>69.0</ele><time>2026-05-06T09:54:08.028Z</time></trkpt><trkpt lat="38.11469" lon="13.3291433"><ele>69.5</ele><time>2026-05-06T09:54:09.028Z</time></trkpt><trkpt lat="38.1145533" lon="13.32916"><ele>70.0</ele><time>2026-05-06T09:54:10.028Z</time></trkpt><trkpt lat="38.1144233" lon="13.32918"><ele>70.5</ele><time>2026-05-06T09:54:11.028Z</time></trkpt><trkpt lat="38.1142867" lon="13.3292067"><ele>71.0</ele><time>2026-05-06T09:54:12.028Z</time></trkpt><trkpt lat="38.11415" lon="13.3292267"><ele>72.0</ele><time>2026-05-06T09:54:13.028Z</time></trkpt><trkpt lat="38.114015" lon="13.32924"><ele>73.0</ele><time>2026-05-06T09:54:14.028Z</time></trkpt><trkpt lat="38.1138817" lon="13.3292583"><ele>74.0</ele><time>2026-05-06T09:54:15.028Z</time></trkpt><trkpt lat="38.1137467" lon="13.3292733"><ele>75.0</ele><time>2026-05-06T09:54:16.028Z</time></trkpt><trkpt lat="38.1136133" lon="13.3292933"><ele>75.0</ele><time>2026-05-06T09:54:17.028Z</time></trkpt><trkpt lat="38.1134833" lon="13.3293083"><ele>75.0</ele><time>2026-05-06T09:54:18.028Z</time></trkpt><trkpt lat="38.1133533" lon="13.3293317"><ele>75.0</ele><time>2026-05-06T09:54:19.028Z</time></trkpt><trkpt lat="38.1132183" lon="13.3293483"><ele>75.0</ele><time>2026-05-06T09:54:20.028Z</time></trkpt><trkpt lat="38.1130883" lon="13.3293533"><ele>74.25</ele><time>2026-05-06T09:54:21.028Z</time></trkpt><trkpt lat="38.1129583" lon="13.32937"><ele>73.5</ele><time>2026-05-06T09:54:22.028Z</time></trkpt><trkpt lat="38.1128217" lon="13.329385"><ele>72.75</ele><time>2026-05-06T09:54:23.028Z</time></trkpt><trkpt lat="38.1126783" lon="13.3293983"><ele>72.0</ele><time>2026-05-06T09:54:24.028Z</time></trkpt><trkpt lat="38.1125333" lon="13.32942"><ele>72.25</ele><time>2026-05-06T09:54:25.028Z</time></trkpt><trkpt lat="38.11239" lon="13.3294367"><ele>72.5</ele><time>2026-05-06T09:54:26.028Z</time></trkpt><trkpt lat="38.112245" lon="13.32946"><ele>72.75</ele><time>2026-05-06T09:54:27.028Z</time></trkpt><trkpt lat="38.1120883" lon="13.32948"><ele>73.0</ele><time>2026-05-06T09:54:28.027Z</time></trkpt><trkpt lat="38.1119317" lon="13.3294967"><ele>73.0</ele><time>2026-05-06T09:54:29.028Z</time></trkpt><trkpt lat="38.111775" lon="13.3295183"><ele>73.0</ele><time>2026-05-06T09:54:30.028Z</time></trkpt><trkpt lat="38.111615" lon="13.3295417"><ele>73.0</ele><time>2026-05-06T09:54:31.028Z</time></trkpt><trkpt lat="38.1114517" lon="13.3295683"><ele>73.33333333333333</ele><time>2026-05-06T09:54:32.028Z</time></trkpt><trkpt lat="38.1112883" lon="13.3295883"><ele>73.66666666666667</ele><time>2026-05-06T09:54:33.028Z</time></trkpt><trkpt lat="38.1111233" lon="13.3296183"><ele>74.0</ele><time>2026-05-06T09:54:34.028Z</time></trkpt><trkpt lat="38.11096" lon="13.3296383"><ele>74.0</ele><time>2026-05-06T09:54:35.028Z</time></trkpt><trkpt lat="38.110795" lon="13.329675"><ele>74.0</ele><time>2026-05-06T09:54:36.028Z</time></trkpt><trkpt lat="38.1106283" lon="13.3296983"><ele>74.0</ele><time>2026-05-06T09:54:37.028Z</time></trkpt><trkpt lat="38.1104467" lon="13.32972"><ele>73.66666666666667</ele><time>2026-05-06T09:54:38.028Z</time></trkpt><trkpt lat="38.1102767" lon="13.3297283"><ele>73.33333333333333</ele><time>2026-05-06T09:54:39.028Z</time></trkpt><trkpt lat="38.1100883" lon="13.32976"><ele>73.0</ele><time>2026-05-06T09:54:40.028Z</time></trkpt><trkpt lat="38.1099083" lon="13.329775"><ele>74.0</ele><time>2026-05-06T09:54:41.028Z</time></trkpt><trkpt lat="38.1097333" lon="13.3297917"><ele>75.0</ele><time>2026-05-06T09:54:42.028Z</time></trkpt><trkpt lat="38.1095667" lon="13.3297967"><ele>76.0</ele><time>2026-05-06T09:54:43.028Z</time></trkpt><trkpt lat="38.1093983" lon="13.3298083"><ele>76.0</ele><time>2026-05-06T09:54:44.028Z</time></trkpt><trkpt lat="38.1092367" lon="13.329815"><ele>76.0</ele><time>2026-05-06T09:54:45.027Z</time></trkpt><trkpt lat="38.1090867" lon="13.329825"><ele>76.0</ele><time>2026-05-06T09:54:46.028Z</time></trkpt><trkpt lat="38.10894" lon="13.329835"><ele>75.0</ele><time>2026-05-06T09:54:47.028Z</time></trkpt><trkpt lat="38.1087917" lon="13.329855"><ele>74.0</ele><time>2026-05-06T09:54:48.028Z</time></trkpt><trkpt lat="38.1086483" lon="13.3298733"><ele>73.0</ele><time>2026-05-06T09:54:49.028Z</time></trkpt><trkpt lat="38.10851" lon="13.3298933"><ele>72.0</ele><time>2026-05-06T09:54:50.028Z</time></trkpt><trkpt lat="38.1083717" lon="13.3299017"><ele>72.25</ele><time>2026-05-06T09:54:51.028Z</time></trkpt><trkpt lat="38.10823" lon="13.3299183"><ele>72.5</ele><time>2026-05-06T09:54:52.028Z</time></trkpt><trkpt lat="38.1080983" lon="13.3299283"><ele>72.75</ele><time>2026-05-06T09:54:53.028Z</time></trkpt><trkpt lat="38.1079633" lon="13.3299467"><ele>73.0</ele><time>2026-05-06T09:54:54.028Z</time></trkpt><trkpt lat="38.10783" lon="13.3299617"><ele>73.0</ele><time>2026-05-06T09:54:55.028Z</time></trkpt><trkpt lat="38.1076933" lon="13.3299667"><ele>73.0</ele><time>2026-05-06T09:54:56.028Z</time></trkpt><trkpt lat="38.10756" lon="13.3299717"><ele>73.0</ele><time>2026-05-06T09:54:57.028Z</time></trkpt><trkpt lat="38.1074233" lon="13.3299783"><ele>73.0</ele><time>2026-05-06T09:54:58.028Z</time></trkpt><trkpt lat="38.1072833" lon="13.3299867"><ele>73.5</ele><time>2026-05-06T09:54:59.028Z</time></trkpt><trkpt lat="38.107145" lon="13.3299983"><ele>74.0</ele><time>2026-05-06T09:55:00.028Z</time></trkpt><trkpt lat="38.1070083" lon="13.330015"><ele>74.5</ele><time>2026-05-06T09:55:01.028Z</time></trkpt><trkpt lat="38.1068817" lon="13.3300233"><ele>75.0</ele><time>2026-05-06T09:55:02.028Z</time></trkpt><trkpt lat="38.1067533" lon="13.330035"><ele>75.0</ele><time>2026-05-06T09:55:03.028Z</time></trkpt><trkpt lat="38.1066317" lon="13.330045"><ele>75.0</ele><time>2026-05-06T09:55:04.028Z</time></trkpt><trkpt lat="38.1065" lon="13.3300533"><ele>75.0</ele><time>2026-05-06T09:55:05.028Z</time></trkpt><trkpt lat="38.10637" lon="13.3300633"><ele>75.0</ele><time>2026-05-06T09:55:06.028Z</time></trkpt><trkpt lat="38.1062417" lon="13.3300767"><ele>76.0</ele><time>2026-05-06T09:55:07.028Z</time></trkpt><trkpt lat="38.10611" lon="13.3300917"><ele>77.0</ele><time>2026-05-06T09:55:08.028Z</time></trkpt><trkpt lat="38.10598" lon="13.3301067"><ele>78.0</ele><time>2026-05-06T09:55:09.028Z</time></trkpt><trkpt lat="38.10585" lon="13.3301183"><ele>79.0</ele><time>2026-05-06T09:55:10.028Z</time></trkpt><trkpt lat="38.1057217" lon="13.3301283"><ele>79.5</ele><time>2026-05-06T09:55:11.028Z</time></trkpt><trkpt lat="38.105595" lon="13.3301367"><ele>80.0</ele><time>2026-05-06T09:55:12.028Z</time></trkpt><trkpt lat="38.1054617" lon="13.3301533"><ele>80.5</ele><time>2026-05-06T09:55:13.028Z</time></trkpt><trkpt lat="38.1053283" lon="13.33017"><ele>81.0</ele><time>2026-05-06T09:55:14.028Z</time></trkpt><trkpt lat="38.1051883" lon="13.3301817"><ele>81.0</ele><time>2026-05-06T09:55:15.028Z</time></trkpt><trkpt lat="38.1050483" lon="13.3301917"><ele>81.0</ele><time>2026-05-06T09:55:16.028Z</time></trkpt><trkpt lat="38.104905" lon="13.3302067"><ele>81.0</ele><time>2026-05-06T09:55:17.028Z</time></trkpt><trkpt lat="38.1047583" lon="13.3302183"><ele>81.0</ele><time>2026-05-06T09:55:18.028Z</time></trkpt><trkpt lat="38.1046117" lon="13.3302267"><ele>80.75</ele><time>2026-05-06T09:55:19.028Z</time></trkpt><trkpt lat="38.104465" lon="13.3302267"><ele>80.5</ele><time>2026-05-06T09:55:20.028Z</time></trkpt><trkpt lat="38.1043133" lon="13.33024"><ele>80.25</ele><time>2026-05-06T09:55:21.028Z</time></trkpt><trkpt lat="38.1041633" lon="13.330255"><ele>80.0</ele><time>2026-05-06T09:55:22.028Z</time></trkpt><trkpt lat="38.1040067" lon="13.330265"><ele>80.0</ele><time>2026-05-06T09:55:23.028Z</time></trkpt><trkpt lat="38.103845" lon="13.330275"><ele>80.0</ele><time>2026-05-06T09:55:24.028Z</time></trkpt><trkpt lat="38.1036783" lon="13.330285"><ele>80.0</ele><time>2026-05-06T09:55:25.028Z</time></trkpt><trkpt lat="38.10352" lon="13.3302983"><ele>80.0</ele><time>2026-05-06T09:55:26.028Z</time></trkpt><trkpt lat="38.1033533" lon="13.3303117"><ele>80.0</ele><time>2026-05-06T09:55:27.028Z</time></trkpt><trkpt lat="38.1031867" lon="13.3303133"><ele>80.0</ele><time>2026-05-06T09:55:28.028Z</time></trkpt><trkpt lat="38.10301" lon="13.3303167"><ele>79.33333333333334</ele><time>2026-05-06T09:55:29.028Z</time></trkpt><trkpt lat="38.102835" lon="13.3303383"><ele>78.66666666666667</ele><time>2026-05-06T09:55:30.028Z</time></trkpt><trkpt lat="38.1026667" lon="13.3303483"><ele>78.0</ele><time>2026-05-06T09:55:31.028Z</time></trkpt><trkpt lat="38.1025017" lon="13.3303667"><ele>79.33333333333333</ele><time>2026-05-06T09:55:32.027Z</time></trkpt><trkpt lat="38.102335" lon="13.33038"><ele>80.66666666666666</ele><time>2026-05-06T09:55:33.028Z</time></trkpt><trkpt lat="38.1021683" lon="13.3304083"><ele>82.0</ele><time>2026-05-06T09:55:34.027Z</time></trkpt><trkpt lat="38.102" lon="13.3304317"><ele>82.0</ele><time>2026-05-06T09:55:35.028Z</time></trkpt><trkpt lat="38.1018317" lon="13.3304667"><ele>82.0</ele><time>2026-05-06T09:55:36.027Z</time></trkpt><trkpt lat="38.101665" lon="13.3305117"><ele>82.0</ele><time>2026-05-06T09:55:37.028Z</time></trkpt><trkpt lat="38.1014983" lon="13.3305667"><ele>83.0</ele><time>2026-05-06T09:55:38.028Z</time></trkpt><trkpt lat="38.10133" lon="13.3306333"><ele>84.0</ele><time>2026-05-06T09:55:39.028Z</time></trkpt><trkpt lat="38.10117" lon="13.3307133"><ele>85.0</ele><time>2026-05-06T09:55:40.028Z</time></trkpt><trkpt lat="38.1010167" lon="13.3308067"><ele>85.0</ele><time>2026-05-06T09:55:41.028Z</time></trkpt><trkpt lat="38.100855" lon="13.3309083"><ele>85.0</ele><time>2026-05-06T09:55:42.027Z</time></trkpt><trkpt lat="38.1007017" lon="13.331025"><ele>85.0</ele><time>2026-05-06T09:55:43.028Z</time></trkpt><trkpt lat="38.1005533" lon="13.3311567"><ele>85.0</ele><time>2026-05-06T09:55:44.028Z</time></trkpt><trkpt lat="38.1004083" lon="13.331295"><ele>85.0</ele><time>2026-05-06T09:55:45.028Z</time></trkpt><trkpt lat="38.1002583" lon="13.3314367"><ele>85.0</ele><time>2026-05-06T09:55:46.027Z</time></trkpt><trkpt lat="38.10012" lon="13.3315783"><ele>84.0</ele><time>2026-05-06T09:55:47.028Z</time></trkpt><trkpt lat="38.0999767" lon="13.3317117"><ele>83.0</ele><time>2026-05-06T09:55:48.028Z</time></trkpt><trkpt lat="38.0998333" lon="13.3318433"><ele>82.0</ele><time>2026-05-06T09:55:49.028Z</time></trkpt><trkpt lat="38.0996917" lon="13.3319883"><ele>81.66666666666666</ele><time>2026-05-06T09:55:50.028Z</time></trkpt><trkpt lat="38.0995517" lon="13.3321283"><ele>81.33333333333333</ele><time>2026-05-06T09:55:51.028Z</time></trkpt><trkpt lat="38.09941" lon="13.33226"><ele>81.0</ele><time>2026-05-06T09:55:52.028Z</time></trkpt><trkpt lat="38.0992683" lon="13.3323883"><ele>81.66666666666667</ele><time>2026-05-06T09:55:53.028Z</time></trkpt><trkpt lat="38.099125" lon="13.3325167"><ele>82.33333333333334</ele><time>2026-05-06T09:55:54.028Z</time></trkpt><trkpt lat="38.0989817" lon="13.3326367"><ele>83.0</ele><time>2026-05-06T09:55:55.028Z</time></trkpt><trkpt lat="38.098845" lon="13.33275"><ele>82.0</ele><time>2026-05-06T09:55:56.028Z</time></trkpt><trkpt lat="38.0987067" lon="13.33287"><ele>81.0</ele><time>2026-05-06T09:55:57.028Z</time></trkpt><trkpt lat="38.0985733" lon="13.3329867"><ele>80.0</ele><time>2026-05-06T09:55:58.028Z</time></trkpt><trkpt lat="38.098445" lon="13.3331083"><ele>80.0</ele><time>2026-05-06T09:55:59.028Z</time></trkpt><trkpt lat="38.0983183" lon="13.33323"><ele>80.0</ele><time>2026-05-06T09:56:00.028Z</time></trkpt><trkpt lat="38.0981933" lon="13.3333517"><ele>80.0</ele><time>2026-05-06T09:56:01.028Z</time></trkpt><trkpt lat="38.0980683" lon="13.3334683"><ele>80.66666666666667</ele><time>2026-05-06T09:56:02.028Z</time></trkpt><trkpt lat="38.0979383" lon="13.3335883"><ele>81.33333333333333</ele><time>2026-05-06T09:56:03.028Z</time></trkpt><trkpt lat="38.0978117" lon="13.3337117"><ele>82.0</ele><time>2026-05-06T09:56:04.028Z</time></trkpt><trkpt lat="38.0976833" lon="13.3338383"><ele>82.0</ele><time>2026-05-06T09:56:05.028Z</time></trkpt><trkpt lat="38.0975533" lon="13.333965"><ele>82.0</ele><time>2026-05-06T09:56:06.028Z</time></trkpt><trkpt lat="38.0974233" lon="13.3340917"><ele>82.0</ele><time>2026-05-06T09:56:07.028Z</time></trkpt><trkpt lat="38.0973017" lon="13.3342133"><ele>80.33333333333333</ele><time>2026-05-06T09:56:08.028Z</time></trkpt><trkpt lat="38.097185" lon="13.3343383"><ele>78.66666666666667</ele><time>2026-05-06T09:56:09.028Z</time></trkpt><trkpt lat="38.0970583" lon="13.33447"><ele>77.0</ele><time>2026-05-06T09:56:10.028Z</time></trkpt><trkpt lat="38.09695" lon="13.3346183"><ele>77.0</ele><time>2026-05-06T09:56:11.028Z</time></trkpt><trkpt lat="38.0968417" lon="13.3347683"><ele>77.0</ele><time>2026-05-06T09:56:12.028Z</time></trkpt><trkpt lat="38.09673" lon="13.3349267"><ele>77.0</ele><time>2026-05-06T09:56:13.028Z</time></trkpt><trkpt lat="38.0966167" lon="13.33508"><ele>77.66666666666667</ele><time>2026-05-06T09:56:14.028Z</time></trkpt><trkpt lat="38.0964983" lon="13.3352367"><ele>78.33333333333333</ele><time>2026-05-06T09:56:15.028Z</time></trkpt><trkpt lat="38.096385" lon="13.3353917"><ele>79.0</ele><time>2026-05-06T09:56:16.028Z</time></trkpt><trkpt lat="38.0962733" lon="13.3355517"><ele>78.33333333333333</ele><time>2026-05-06T09:56:17.028Z</time></trkpt><trkpt lat="38.096165" lon="13.3357083"><ele>77.66666666666667</ele><time>2026-05-06T09:56:18.027Z</time></trkpt><trkpt lat="38.0960567" lon="13.335855"><ele>77.0</ele><time>2026-05-06T09:56:19.028Z</time></trkpt><trkpt lat="38.0959517" lon="13.336"><ele>77.0</ele><time>2026-05-06T09:56:20.028Z</time></trkpt><trkpt lat="38.0958483" lon="13.336145"><ele>77.0</ele><time>2026-05-06T09:56:21.028Z</time></trkpt><trkpt lat="38.095745" lon="13.3362883"><ele>77.0</ele><time>2026-05-06T09:56:22.028Z</time></trkpt><trkpt lat="38.0956467" lon="13.3364283"><ele>77.0</ele><time>2026-05-06T09:56:23.028Z</time></trkpt><trkpt lat="38.0955433" lon="13.3365667"><ele>77.0</ele><time>2026-05-06T09:56:24.028Z</time></trkpt><trkpt lat="38.0954367" lon="13.3367"><ele>77.0</ele><time>2026-05-06T09:56:25.028Z</time></trkpt><trkpt lat="38.09534" lon="13.3368433"><ele>77.0</ele><time>2026-05-06T09:56:26.028Z</time></trkpt><trkpt lat="38.0952317" lon="13.33698"><ele>77.0</ele><time>2026-05-06T09:56:27.028Z</time></trkpt><trkpt lat="38.09513" lon="13.3371217"><ele>77.0</ele><time>2026-05-06T09:56:28.028Z</time></trkpt><trkpt lat="38.0950283" lon="13.3372567"><ele>77.0</ele><time>2026-05-06T09:56:29.028Z</time></trkpt><trkpt lat="38.0949217" lon="13.337395"><ele>77.25</ele><time>2026-05-06T09:56:30.028Z</time></trkpt><trkpt lat="38.0948167" lon="13.337535"><ele>77.5</ele><time>2026-05-06T09:56:31.028Z</time></trkpt><trkpt lat="38.0947183" lon="13.3376783"><ele>77.75</ele><time>2026-05-06T09:56:32.028Z</time></trkpt><trkpt lat="38.0946217" lon="13.3378183"><ele>78.0</ele><time>2026-05-06T09:56:33.028Z</time></trkpt><trkpt lat="38.0945233" lon="13.33795"><ele>77.75</ele><time>2026-05-06T09:56:34.028Z</time></trkpt><trkpt lat="38.094425" lon="13.338085"><ele>77.5</ele><time>2026-05-06T09:56:35.028Z</time></trkpt><trkpt lat="38.0943183" lon="13.3382167"><ele>77.25</ele><time>2026-05-06T09:56:36.028Z</time></trkpt><trkpt lat="38.0942233" lon="13.33835"><ele>77.0</ele><time>2026-05-06T09:56:37.028Z</time></trkpt><trkpt lat="38.09413" lon="13.3384883"><ele>77.0</ele><time>2026-05-06T09:56:38.028Z</time></trkpt><trkpt lat="38.0940417" lon="13.338625"><ele>77.0</ele><time>2026-05-06T09:56:39.028Z</time></trkpt><trkpt lat="38.09395" lon="13.3387583"><ele>77.0</ele><time>2026-05-06T09:56:40.028Z</time></trkpt><trkpt lat="38.0938533" lon="13.3388867"><ele>77.0</ele><time>2026-05-06T09:56:41.028Z</time></trkpt><trkpt lat="38.0937617" lon="13.3390283"><ele>77.0</ele><time>2026-05-06T09:56:42.028Z</time></trkpt><trkpt lat="38.0936333" lon="13.3391483"><ele>77.0</ele><time>2026-05-06T09:56:43.028Z</time></trkpt><trkpt lat="38.09354" lon="13.3392883"><ele>77.0</ele><time>2026-05-06T09:56:44.028Z</time></trkpt><trkpt lat="38.0934467" lon="13.339425"><ele>77.0</ele><time>2026-05-06T09:56:45.028Z</time></trkpt><trkpt lat="38.0933483" lon="13.339555"><ele>76.25</ele><time>2026-05-06T09:56:46.028Z</time></trkpt><trkpt lat="38.09325" lon="13.33969"><ele>75.5</ele><time>2026-05-06T09:56:47.028Z</time></trkpt><trkpt lat="38.0931467" lon="13.3398233"><ele>74.75</ele><time>2026-05-06T09:56:48.028Z</time></trkpt><trkpt lat="38.0930433" lon="13.339965"><ele>74.0</ele><time>2026-05-06T09:56:49.028Z</time></trkpt><trkpt lat="38.0929417" lon="13.3401067"><ele>73.75</ele><time>2026-05-06T09:56:50.028Z</time></trkpt><trkpt lat="38.092845" lon="13.34025"><ele>73.5</ele><time>2026-05-06T09:56:51.028Z</time></trkpt><trkpt lat="38.09274" lon="13.3403883"><ele>73.25</ele><time>2026-05-06T09:56:52.028Z</time></trkpt><trkpt lat="38.0926333" lon="13.3405217"><ele>73.0</ele><time>2026-05-06T09:56:53.028Z</time></trkpt><trkpt lat="38.0925333" lon="13.34066"><ele>73.0</ele><time>2026-05-06T09:56:54.028Z</time></trkpt><trkpt lat="38.092435" lon="13.3407917"><ele>73.0</ele><time>2026-05-06T09:56:55.028Z</time></trkpt><trkpt lat="38.0923383" lon="13.340935"><ele>73.0</ele><time>2026-05-06T09:56:56.028Z</time></trkpt><trkpt lat="38.092235" lon="13.3410683"><ele>73.0</ele><time>2026-05-06T09:56:57.028Z</time></trkpt><trkpt lat="38.092145" lon="13.3412033"><ele>73.25</ele><time>2026-05-06T09:56:58.028Z</time></trkpt><trkpt lat="38.0920533" lon="13.3413333"><ele>73.5</ele><time>2026-05-06T09:56:59.028Z</time></trkpt><trkpt lat="38.0919617" lon="13.3414533"><ele>73.75</ele><time>2026-05-06T09:57:00.028Z</time></trkpt><trkpt lat="38.09188" lon="13.34157"><ele>74.0</ele><time>2026-05-06T09:57:01.028Z</time></trkpt><trkpt lat="38.0918017" lon="13.3416833"><ele>74.0</ele><time>2026-05-06T09:57:02.028Z</time></trkpt><trkpt lat="38.09172" lon="13.341795"><ele>74.0</ele><time>2026-05-06T09:57:03.028Z</time></trkpt><trkpt lat="38.09164" lon="13.3419067"><ele>74.0</ele><time>2026-05-06T09:57:04.028Z</time></trkpt><trkpt lat="38.0915567" lon="13.342015"><ele>74.0</ele><time>2026-05-06T09:57:05.028Z</time></trkpt><trkpt lat="38.0914717" lon="13.3421283"><ele>74.5</ele><time>2026-05-06T09:57:06.028Z</time></trkpt><trkpt lat="38.091385" lon="13.34223"><ele>75.0</ele><time>2026-05-06T09:57:07.028Z</time></trkpt><trkpt lat="38.0912917" lon="13.3423483"><ele>75.5</ele><time>2026-05-06T09:57:08.028Z</time></trkpt><trkpt lat="38.091185" lon="13.3424783"><ele>76.0</ele><time>2026-05-06T09:57:09.028Z</time></trkpt><trkpt lat="38.09109" lon="13.3426217"><ele>76.0</ele><time>2026-05-06T09:57:10.028Z</time></trkpt><trkpt lat="38.0910033" lon="13.342755"><ele>76.0</ele><time>2026-05-06T09:57:11.027Z</time></trkpt><trkpt lat="38.0909167" lon="13.3428783"><ele>76.0</ele><time>2026-05-06T09:57:12.028Z</time></trkpt><trkpt lat="38.0908283" lon="13.3429867"><ele>76.0</ele><time>2026-05-06T09:57:13.028Z</time></trkpt><trkpt lat="38.0907467" lon="13.3430983"><ele>75.2</ele><time>2026-05-06T09:57:14.027Z</time></trkpt><trkpt lat="38.0906733" lon="13.3432017"><ele>74.39999999999999</ele><time>2026-05-06T09:57:15.028Z</time></trkpt><trkpt lat="38.090605" lon="13.3433067"><ele>73.6</ele><time>2026-05-06T09:57:16.028Z</time></trkpt><trkpt lat="38.090535" lon="13.3434017"><ele>72.8</ele><time>2026-05-06T09:57:17.028Z</time></trkpt><trkpt lat="38.0904717" lon="13.3434967"><ele>72.0</ele><time>2026-05-06T09:57:18.028Z</time></trkpt><trkpt lat="38.090405" lon="13.3435933"><ele>72.0</ele><time>2026-05-06T09:57:19.028Z</time></trkpt><trkpt lat="38.0903383" lon="13.3436917"><ele>72.0</ele><time>2026-05-06T09:57:20.028Z</time></trkpt><trkpt lat="38.090275" lon="13.3437983"><ele>72.0</ele><time>2026-05-06T09:57:21.028Z</time></trkpt><trkpt lat="38.0902017" lon="13.3438917"><ele>72.0</ele><time>2026-05-06T09:57:22.028Z</time></trkpt><trkpt lat="38.0901267" lon="13.3439917"><ele>72.0</ele><time>2026-05-06T09:57:23.028Z</time></trkpt><trkpt lat="38.0900517" lon="13.3440917"><ele>69.5</ele><time>2026-05-06T09:57:24.028Z</time></trkpt><trkpt lat="38.089975" lon="13.3441967"><ele>67.0</ele><time>2026-05-06T09:57:25.028Z</time></trkpt><trkpt lat="38.0898983" lon="13.3443067"><ele>64.5</ele><time>2026-05-06T09:57:26.028Z</time></trkpt><trkpt lat="38.0898183" lon="13.3444117"><ele>62.0</ele><time>2026-05-06T09:57:27.028Z</time></trkpt><trkpt lat="38.0897433" lon="13.3445183"><ele>60.5</ele><time>2026-05-06T09:57:28.028Z</time></trkpt><trkpt lat="38.0896667" lon="13.344625"><ele>59.0</ele><time>2026-05-06T09:57:29.028Z</time></trkpt><trkpt lat="38.0895867" lon="13.344735"><ele>57.5</ele><time>2026-05-06T09:57:30.028Z</time></trkpt><trkpt lat="38.08951" lon="13.3448433"><ele>56.0</ele><time>2026-05-06T09:57:31.028Z</time></trkpt><trkpt lat="38.08943" lon="13.3449533"><ele>60.0</ele><time>2026-05-06T09:57:32.028Z</time></trkpt><trkpt lat="38.089345" lon="13.3450617"><ele>64.0</ele><time>2026-05-06T09:57:33.028Z</time></trkpt><trkpt lat="38.0892633" lon="13.3451783"><ele>68.0</ele><time>2026-05-06T09:57:34.028Z</time></trkpt><trkpt lat="38.08918" lon="13.345295"><ele>72.0</ele><time>2026-05-06T09:57:35.028Z</time></trkpt><trkpt lat="38.0891" lon="13.3454117"><ele>72.5</ele><time>2026-05-06T09:57:36.028Z</time></trkpt><trkpt lat="38.0890217" lon="13.34552"><ele>73.0</ele><time>2026-05-06T09:57:37.028Z</time></trkpt><trkpt lat="38.0889333" lon="13.3456417"><ele>73.5</ele><time>2026-05-06T09:57:38.028Z</time></trkpt><trkpt lat="38.088845" lon="13.34576"><ele>74.0</ele><time>2026-05-06T09:57:39.028Z</time></trkpt><trkpt lat="38.0887533" lon="13.34588"><ele>74.0</ele><time>2026-05-06T09:57:40.028Z</time></trkpt><trkpt lat="38.08866" lon="13.3460017"><ele>74.0</ele><time>2026-05-06T09:57:41.028Z</time></trkpt><trkpt lat="38.0885717" lon="13.34613"><ele>74.0</ele><time>2026-05-06T09:57:42.028Z</time></trkpt><trkpt lat="38.0884817" lon="13.34626"><ele>74.0</ele><time>2026-05-06T09:57:43.028Z</time></trkpt><trkpt lat="38.088385" lon="13.34639"><ele>74.25</ele><time>2026-05-06T09:57:44.027Z</time></trkpt><trkpt lat="38.0882917" lon="13.34652"><ele>74.5</ele><time>2026-05-06T09:57:45.027Z</time></trkpt><trkpt lat="38.0882" lon="13.3466533"><ele>74.75</ele><time>2026-05-06T09:57:46.028Z</time></trkpt><trkpt lat="38.0881067" lon="13.346785"><ele>75.0</ele><time>2026-05-06T09:57:47.028Z</time></trkpt><trkpt lat="38.0880017" lon="13.3469183"><ele>75.25</ele><time>2026-05-06T09:57:48.028Z</time></trkpt><trkpt lat="38.0879017" lon="13.34706"><ele>75.5</ele><time>2026-05-06T09:57:49.028Z</time></trkpt><trkpt lat="38.08781" lon="13.3472"><ele>75.75</ele><time>2026-05-06T09:57:50.028Z</time></trkpt><trkpt lat="38.0877233" lon="13.347345"><ele>76.0</ele><time>2026-05-06T09:57:51.028Z</time></trkpt><trkpt lat="38.0876317" lon="13.3474783"><ele>76.25</ele><time>2026-05-06T09:57:52.028Z</time></trkpt><trkpt lat="38.0875467" lon="13.34762"><ele>76.5</ele><time>2026-05-06T09:57:53.028Z</time></trkpt><trkpt lat="38.0874667" lon="13.34777"><ele>76.75</ele><time>2026-05-06T09:57:54.028Z</time></trkpt><trkpt lat="38.087385" lon="13.3479133"><ele>77.0</ele><time>2026-05-06T09:57:55.028Z</time></trkpt><trkpt lat="38.0873133" lon="13.3480633"><ele>77.5</ele><time>2026-05-06T09:57:56.028Z</time></trkpt><trkpt lat="38.0872433" lon="13.3482067"><ele>78.0</ele><time>2026-05-06T09:57:57.028Z</time></trkpt><trkpt lat="38.08717" lon="13.34835"><ele>78.5</ele><time>2026-05-06T09:57:58.028Z</time></trkpt><trkpt lat="38.0871017" lon="13.3484833"><ele>79.0</ele><time>2026-05-06T09:57:59.028Z</time></trkpt><trkpt lat="38.0870383" lon="13.3486283"><ele>79.0</ele><time>2026-05-06T09:58:00.028Z</time></trkpt><trkpt lat="38.086975" lon="13.348775"><ele>79.0</ele><time>2026-05-06T09:58:01.028Z</time></trkpt><trkpt lat="38.086915" lon="13.34893"><ele>79.0</ele><time>2026-05-06T09:58:02.028Z</time></trkpt><trkpt lat="38.0868567" lon="13.3490783"><ele>79.0</ele><time>2026-05-06T09:58:03.028Z</time></trkpt><trkpt lat="38.0868" lon="13.3492383"><ele>78.25</ele><time>2026-05-06T09:58:04.028Z</time></trkpt><trkpt lat="38.0867383" lon="13.34939"><ele>77.5</ele><time>2026-05-06T09:58:05.028Z</time></trkpt><trkpt lat="38.0866717" lon="13.34954"><ele>76.75</ele><time>2026-05-06T09:58:06.028Z</time></trkpt><trkpt lat="38.0866033" lon="13.3497"><ele>76.0</ele><time>2026-05-06T09:58:07.028Z</time></trkpt><trkpt lat="38.08654" lon="13.3498683"><ele>76.0</ele><time>2026-05-06T09:58:08.028Z</time></trkpt><trkpt lat="38.0864767" lon="13.3500417"><ele>76.0</ele><time>2026-05-06T09:58:09.028Z</time></trkpt><trkpt lat="38.0864183" lon="13.3502167"><ele>76.0</ele><time>2026-05-06T09:58:10.028Z</time></trkpt><trkpt lat="38.0863717" lon="13.3503933"><ele>76.0</ele><time>2026-05-06T09:58:11.027Z</time></trkpt><trkpt lat="38.0863317" lon="13.35057"><ele>75.5</ele><time>2026-05-06T09:58:12.028Z</time></trkpt><trkpt lat="38.08629" lon="13.35075"><ele>75.0</ele><time>2026-05-06T09:58:13.028Z</time></trkpt><trkpt lat="38.086255" lon="13.3509317"><ele>74.5</ele><time>2026-05-06T09:58:14.028Z</time></trkpt><trkpt lat="38.086235" lon="13.35112"><ele>74.0</ele><time>2026-05-06T09:58:15.028Z</time></trkpt><trkpt lat="38.0862183" lon="13.3513067"><ele>74.0</ele><time>2026-05-06T09:58:16.028Z</time></trkpt><trkpt lat="38.0862133" lon="13.3514967"><ele>74.0</ele><time>2026-05-06T09:58:17.028Z</time></trkpt><trkpt lat="38.0862117" lon="13.35169"><ele>74.0</ele><time>2026-05-06T09:58:18.027Z</time></trkpt><trkpt lat="38.0862133" lon="13.351885"><ele>74.0</ele><time>2026-05-06T09:58:19.028Z</time></trkpt><trkpt lat="38.0862133" lon="13.35208"><ele>74.0</ele><time>2026-05-06T09:58:20.028Z</time></trkpt><trkpt lat="38.086215" lon="13.35227"><ele>74.0</ele><time>2026-05-06T09:58:21.028Z</time></trkpt><trkpt lat="38.0862267" lon="13.352465"><ele>74.0</ele><time>2026-05-06T09:58:22.028Z</time></trkpt><trkpt lat="38.08623" lon="13.352655"><ele>74.0</ele><time>2026-05-06T09:58:23.028Z</time></trkpt><trkpt lat="38.0862367" lon="13.3528483"><ele>74.0</ele><time>2026-05-06T09:58:24.028Z</time></trkpt><trkpt lat="38.0862533" lon="13.3530433"><ele>73.66666666666667</ele><time>2026-05-06T09:58:25.028Z</time></trkpt><trkpt lat="38.0862817" lon="13.35324"><ele>73.33333333333333</ele><time>2026-05-06T09:58:26.028Z</time></trkpt><trkpt lat="38.0863067" lon="13.35343"><ele>73.0</ele><time>2026-05-06T09:58:27.028Z</time></trkpt><trkpt lat="38.0863383" lon="13.35362"><ele>73.0</ele><time>2026-05-06T09:58:28.028Z</time></trkpt><trkpt lat="38.0863717" lon="13.3538133"><ele>73.0</ele><time>2026-05-06T09:58:29.028Z</time></trkpt><trkpt lat="38.0863983" lon="13.3540067"><ele>73.0</ele><time>2026-05-06T09:58:30.028Z</time></trkpt><trkpt lat="38.08643" lon="13.354195"><ele>73.0</ele><time>2026-05-06T09:58:31.028Z</time></trkpt><trkpt lat="38.0864633" lon="13.3543833"><ele>73.0</ele><time>2026-05-06T09:58:32.028Z</time></trkpt><trkpt lat="38.08649" lon="13.3545667"><ele>73.0</ele><time>2026-05-06T09:58:33.028Z</time></trkpt><trkpt lat="38.0865167" lon="13.3547533"><ele>73.0</ele><time>2026-05-06T09:58:34.028Z</time></trkpt><trkpt lat="38.0865467" lon="13.3549417"><ele>73.0</ele><time>2026-05-06T09:58:35.028Z</time></trkpt><trkpt lat="38.086575" lon="13.3551267"><ele>73.0</ele><time>2026-05-06T09:58:36.028Z</time></trkpt><trkpt lat="38.0866" lon="13.3553117"><ele>73.0</ele><time>2026-05-06T09:58:37.028Z</time></trkpt><trkpt lat="38.0866267" lon="13.3554967"><ele>73.0</ele><time>2026-05-06T09:58:38.028Z</time></trkpt><trkpt lat="38.0866583" lon="13.355685"><ele>71.66666666666666</ele><time>2026-05-06T09:58:39.028Z</time></trkpt><trkpt lat="38.08669" lon="13.3558817"><ele>70.33333333333333</ele><time>2026-05-06T09:58:40.028Z</time></trkpt><trkpt lat="38.086715" lon="13.3560733"><ele>69.0</ele><time>2026-05-06T09:58:41.028Z</time></trkpt><trkpt lat="38.086745" lon="13.3562717"><ele>69.33333333333333</ele><time>2026-05-06T09:58:42.028Z</time></trkpt><trkpt lat="38.08678" lon="13.356475"><ele>69.66666666666666</ele><time>2026-05-06T09:58:43.028Z</time></trkpt><trkpt lat="38.0868133" lon="13.35668"><ele>70.0</ele><time>2026-05-06T09:58:44.028Z</time></trkpt><trkpt lat="38.0868383" lon="13.3568767"><ele>70.0</ele><time>2026-05-06T09:58:45.028Z</time></trkpt><trkpt lat="38.086875" lon="13.3570633"><ele>70.0</ele><time>2026-05-06T09:58:46.028Z</time></trkpt><trkpt lat="38.0869017" lon="13.357255"><ele>70.0</ele><time>2026-05-06T09:58:47.028Z</time></trkpt><trkpt lat="38.0869267" lon="13.357435"><ele>70.0</ele><time>2026-05-06T09:58:48.028Z</time></trkpt><trkpt lat="38.086955" lon="13.3576117"><ele>69.75</ele><time>2026-05-06T09:58:49.028Z</time></trkpt><trkpt lat="38.0869783" lon="13.3577933"><ele>69.5</ele><time>2026-05-06T09:58:50.028Z</time></trkpt><trkpt lat="38.08701" lon="13.3579767"><ele>69.25</ele><time>2026-05-06T09:58:51.028Z</time></trkpt><trkpt lat="38.08705" lon="13.358165"><ele>69.0</ele><time>2026-05-06T09:58:52.028Z</time></trkpt><trkpt lat="38.0870733" lon="13.3583417"><ele>68.75</ele><time>2026-05-06T09:58:53.028Z</time></trkpt><trkpt lat="38.087105" lon="13.3585167"><ele>68.5</ele><time>2026-05-06T09:58:54.027Z</time></trkpt><trkpt lat="38.0871333" lon="13.358695"><ele>68.25</ele><time>2026-05-06T09:58:55.028Z</time></trkpt><trkpt lat="38.087165" lon="13.3588717"><ele>68.0</ele><time>2026-05-06T09:58:56.028Z</time></trkpt><trkpt lat="38.0871983" lon="13.3590617"><ele>67.33333333333334</ele><time>2026-05-06T09:58:57.028Z</time></trkpt><trkpt lat="38.0872333" lon="13.35926"><ele>66.66666666666667</ele><time>2026-05-06T09:58:58.028Z</time></trkpt><trkpt lat="38.0872667" lon="13.35946"><ele>66.0</ele><time>2026-05-06T09:58:59.028Z</time></trkpt><trkpt lat="38.0872917" lon="13.3596583"><ele>66.0</ele><time>2026-05-06T09:59:00.028Z</time></trkpt><trkpt lat="38.0873233" lon="13.359855"><ele>66.0</ele><time>2026-05-06T09:59:01.027Z</time></trkpt><trkpt lat="38.0873517" lon="13.36004"><ele>66.0</ele><time>2026-05-06T09:59:02.028Z</time></trkpt><trkpt lat="38.0873833" lon="13.36022"><ele>66.0</ele><time>2026-05-06T09:59:03.028Z</time></trkpt><trkpt lat="38.0874133" lon="13.3603917"><ele>66.0</ele><time>2026-05-06T09:59:04.028Z</time></trkpt><trkpt lat="38.0874433" lon="13.3605617"><ele>66.0</ele><time>2026-05-06T09:59:05.028Z</time></trkpt><trkpt lat="38.0874667" lon="13.3607283"><ele>66.0</ele><time>2026-05-06T09:59:06.028Z</time></trkpt><trkpt lat="38.0874967" lon="13.3608917"><ele>64.75</ele><time>2026-05-06T09:59:07.028Z</time></trkpt><trkpt lat="38.0875183" lon="13.3610567"><ele>63.5</ele><time>2026-05-06T09:59:08.027Z</time></trkpt><trkpt lat="38.0875433" lon="13.361225"><ele>62.25</ele><time>2026-05-06T09:59:09.028Z</time></trkpt><trkpt lat="38.0875633" lon="13.36141"><ele>61.0</ele><time>2026-05-06T09:59:10.028Z</time></trkpt><trkpt lat="38.08761" lon="13.3615917"><ele>61.0</ele><time>2026-05-06T09:59:11.028Z</time></trkpt><trkpt lat="38.08765" lon="13.3617733"><ele>61.0</ele><time>2026-05-06T09:59:12.028Z</time></trkpt><trkpt lat="38.0876767" lon="13.36196"><ele>61.0</ele><time>2026-05-06T09:59:13.028Z</time></trkpt><trkpt lat="38.0877067" lon="13.3621433"><ele>61.0</ele><time>2026-05-06T09:59:14.028Z</time></trkpt><trkpt lat="38.0877317" lon="13.36233"><ele>60.75</ele><time>2026-05-06T09:59:15.028Z</time></trkpt><trkpt lat="38.0877567" lon="13.3625183"><ele>60.5</ele><time>2026-05-06T09:59:16.028Z</time></trkpt><trkpt lat="38.08779" lon="13.3627067"><ele>60.25</ele><time>2026-05-06T09:59:17.028Z</time></trkpt><trkpt lat="38.0878233" lon="13.3628867"><ele>60.0</ele><time>2026-05-06T09:59:18.028Z</time></trkpt><trkpt lat="38.08786" lon="13.363065"><ele>60.0</ele><time>2026-05-06T09:59:19.027Z</time></trkpt><trkpt lat="38.0878983" lon="13.3632483"><ele>60.0</ele><time>2026-05-06T09:59:20.028Z</time></trkpt><trkpt lat="38.087925" lon="13.36343"><ele>60.0</ele><time>2026-05-06T09:59:21.028Z</time></trkpt><trkpt lat="38.08796" lon="13.3636117"><ele>60.0</ele><time>2026-05-06T09:59:22.028Z</time></trkpt><trkpt lat="38.0879917" lon="13.3638"><ele>59.33333333333333</ele><time>2026-05-06T09:59:23.028Z</time></trkpt><trkpt lat="38.08803" lon="13.36399"><ele>58.666666666666664</ele><time>2026-05-06T09:59:24.028Z</time></trkpt><trkpt lat="38.088065" lon="13.364175"><ele>58.0</ele><time>2026-05-06T09:59:25.028Z</time></trkpt><trkpt lat="38.088095" lon="13.3643633"><ele>58.0</ele><time>2026-05-06T09:59:26.028Z</time></trkpt><trkpt lat="38.0881217" lon="13.3645567"><ele>58.0</ele><time>2026-05-06T09:59:27.028Z</time></trkpt><trkpt lat="38.088155" lon="13.36475"><ele>58.0</ele><time>2026-05-06T09:59:28.028Z</time></trkpt><trkpt lat="38.0881883" lon="13.364935"><ele>58.0</ele><time>2026-05-06T09:59:29.028Z</time></trkpt><trkpt lat="38.0882183" lon="13.365125"><ele>58.0</ele><time>2026-05-06T09:59:30.028Z</time></trkpt><trkpt lat="38.088245" lon="13.3653083"><ele>58.0</ele><time>2026-05-06T09:59:31.028Z</time></trkpt><trkpt lat="38.0882767" lon="13.36549"><ele>58.0</ele><time>2026-05-06T09:59:32.028Z</time></trkpt><trkpt lat="38.0883033" lon="13.36567"><ele>57.666666666666664</ele><time>2026-05-06T09:59:33.028Z</time></trkpt><trkpt lat="38.0883333" lon="13.36585"><ele>57.33333333333333</ele><time>2026-05-06T09:59:34.028Z</time></trkpt><trkpt lat="38.0883583" lon="13.3660533"><ele>57.0</ele><time>2026-05-06T09:59:35.028Z</time></trkpt><trkpt lat="38.0883917" lon="13.366265"><ele>57.0</ele><time>2026-05-06T09:59:36.028Z</time></trkpt><trkpt lat="38.0884217" lon="13.366455"><ele>57.0</ele><time>2026-05-06T09:59:37.028Z</time></trkpt><trkpt lat="38.08845" lon="13.3666483"><ele>57.0</ele><time>2026-05-06T09:59:38.028Z</time></trkpt><trkpt lat="38.0884783" lon="13.3668633"><ele>57.0</ele><time>2026-05-06T09:59:39.028Z</time></trkpt><trkpt lat="38.088515" lon="13.36707"><ele>57.0</ele><time>2026-05-06T09:59:40.028Z</time></trkpt><trkpt lat="38.0885517" lon="13.367275"><ele>57.0</ele><time>2026-05-06T09:59:41.028Z</time></trkpt><trkpt lat="38.0885867" lon="13.3674933"><ele>56.66666666666667</ele><time>2026-05-06T09:59:42.028Z</time></trkpt><trkpt lat="38.0886233" lon="13.36772"><ele>56.333333333333336</ele><time>2026-05-06T09:59:43.028Z</time></trkpt><trkpt lat="38.088665" lon="13.3679383"><ele>56.0</ele><time>2026-05-06T09:59:44.028Z</time></trkpt><trkpt lat="38.0887" lon="13.3681617"><ele>55.333333333333336</ele><time>2026-05-06T09:59:45.028Z</time></trkpt><trkpt lat="38.0887367" lon="13.3683917"><ele>54.66666666666667</ele><time>2026-05-06T09:59:46.028Z</time></trkpt><trkpt lat="38.088775" lon="13.36861"><ele>54.0</ele><time>2026-05-06T09:59:47.028Z</time></trkpt><trkpt lat="38.088815" lon="13.3688283"><ele>53.66666666666667</ele><time>2026-05-06T09:59:48.028Z</time></trkpt><trkpt lat="38.0888617" lon="13.3690433"><ele>53.333333333333336</ele><time>2026-05-06T09:59:49.028Z</time></trkpt><trkpt lat="38.0888983" lon="13.36927"><ele>53.0</ele><time>2026-05-06T09:59:50.028Z</time></trkpt><trkpt lat="38.08894" lon="13.3694917"><ele>53.0</ele><time>2026-05-06T09:59:51.028Z</time></trkpt><trkpt lat="38.0889867" lon="13.369705"><ele>53.0</ele><time>2026-05-06T09:59:52.028Z</time></trkpt><trkpt lat="38.0890433" lon="13.3699233"><ele>53.0</ele><time>2026-05-06T09:59:53.028Z</time></trkpt><trkpt lat="38.0890867" lon="13.3701383"><ele>52.66666666666667</ele><time>2026-05-06T09:59:54.028Z</time></trkpt><trkpt lat="38.089135" lon="13.370365"><ele>52.33333333333333</ele><time>2026-05-06T09:59:55.028Z</time></trkpt><trkpt lat="38.0891867" lon="13.3705783"><ele>52.0</ele><time>2026-05-06T09:59:56.028Z</time></trkpt><trkpt lat="38.089235" lon="13.3707833"><ele>51.666666666666664</ele><time>2026-05-06T09:59:57.028Z</time></trkpt><trkpt lat="38.0892733" lon="13.3709917"><ele>51.33333333333333</ele><time>2026-05-06T09:59:58.028Z</time></trkpt><trkpt lat="38.0893217" lon="13.3712083"><ele>51.0</ele><time>2026-05-06T09:59:59.028Z</time></trkpt><trkpt lat="38.089365" lon="13.37142"><ele>51.0</ele><time>2026-05-06T10:00:00.028Z</time></trkpt><trkpt lat="38.0894117" lon="13.3716417"><ele>51.0</ele><time>2026-05-06T10:00:01.028Z</time></trkpt><trkpt lat="38.0894533" lon="13.3718567"><ele>51.0</ele><time>2026-05-06T10:00:02.028Z</time></trkpt><trkpt lat="38.089495" lon="13.3720583"><ele>52.0</ele><time>2026-05-06T10:00:03.028Z</time></trkpt><trkpt lat="38.0895433" lon="13.3722533"><ele>53.0</ele><time>2026-05-06T10:00:04.028Z</time></trkpt><trkpt lat="38.08959" lon="13.372465"><ele>54.0</ele><time>2026-05-06T10:00:05.028Z</time></trkpt><trkpt lat="38.0896367" lon="13.3726683"><ele>54.0</ele><time>2026-05-06T10:00:06.028Z</time></trkpt><trkpt lat="38.0896733" lon="13.37288"><ele>54.0</ele><time>2026-05-06T10:00:07.028Z</time></trkpt><trkpt lat="38.089715" lon="13.3730867"><ele>54.0</ele><time>2026-05-06T10:00:08.028Z</time></trkpt><trkpt lat="38.0897617" lon="13.3732867"><ele>52.66666666666667</ele><time>2026-05-06T10:00:09.028Z</time></trkpt><trkpt lat="38.0898067" lon="13.3734967"><ele>51.333333333333336</ele><time>2026-05-06T10:00:10.028Z</time></trkpt><trkpt lat="38.0898517" lon="13.3737117"><ele>50.0</ele><time>2026-05-06T10:00:11.028Z</time></trkpt><trkpt lat="38.0899083" lon="13.3739167"><ele>49.333333333333336</ele><time>2026-05-06T10:00:12.028Z</time></trkpt><trkpt lat="38.0899567" lon="13.37412"><ele>48.66666666666667</ele><time>2026-05-06T10:00:13.028Z</time></trkpt><trkpt lat="38.08999" lon="13.3743317"><ele>48.0</ele><time>2026-05-06T10:00:14.028Z</time></trkpt><trkpt lat="38.0900333" lon="13.3745317"><ele>47.666666666666664</ele><time>2026-05-06T10:00:15.028Z</time></trkpt><trkpt lat="38.0900767" lon="13.3747333"><ele>47.33333333333333</ele><time>2026-05-06T10:00:16.028Z</time></trkpt><trkpt lat="38.0901283" lon="13.3749417"><ele>47.0</ele><time>2026-05-06T10:00:17.028Z</time></trkpt><trkpt lat="38.0901733" lon="13.3751533"><ele>47.0</ele><time>2026-05-06T10:00:18.027Z</time></trkpt><trkpt lat="38.0902167" lon="13.3753667"><ele>47.0</ele><time>2026-05-06T10:00:19.027Z</time></trkpt><trkpt lat="38.0902633" lon="13.3755733"><ele>47.0</ele><time>2026-05-06T10:00:20.027Z</time></trkpt><trkpt lat="38.0903117" lon="13.3757817"><ele>46.33333333333333</ele><time>2026-05-06T10:00:21.027Z</time></trkpt><trkpt lat="38.0903617" lon="13.375985"><ele>45.666666666666664</ele><time>2026-05-06T10:00:22.027Z</time></trkpt><trkpt lat="38.09041" lon="13.3761817"><ele>45.0</ele><time>2026-05-06T10:00:23.027Z</time></trkpt><trkpt lat="38.0904517" lon="13.3763883"><ele>44.0</ele><time>2026-05-06T10:00:24.027Z</time></trkpt><trkpt lat="38.0904967" lon="13.3765867"><ele>43.0</ele><time>2026-05-06T10:00:25.027Z</time></trkpt><trkpt lat="38.09054" lon="13.3767883"><ele>42.0</ele><time>2026-05-06T10:00:26.027Z</time></trkpt><trkpt lat="38.0905833" lon="13.3769867"><ele>42.333333333333336</ele><time>2026-05-06T10:00:27.027Z</time></trkpt><trkpt lat="38.0906317" lon="13.37719"><ele>42.66666666666667</ele><time>2026-05-06T10:00:28.026Z</time></trkpt><trkpt lat="38.090675" lon="13.3774"><ele>43.0</ele><time>2026-05-06T10:00:29.027Z</time></trkpt><trkpt lat="38.0907167" lon="13.37762"><ele>42.333333333333336</ele><time>2026-05-06T10:00:30.027Z</time></trkpt><trkpt lat="38.0907667" lon="13.3778317"><ele>41.666666666666664</ele><time>2026-05-06T10:00:31.026Z</time></trkpt><trkpt lat="38.0908133" lon="13.378055"><ele>41.0</ele><time>2026-05-06T10:00:32.027Z</time></trkpt><trkpt lat="38.0908467" lon="13.3782717"><ele>41.0</ele><time>2026-05-06T10:00:33.027Z</time></trkpt><trkpt lat="38.090875" lon="13.3784917"><ele>41.0</ele><time>2026-05-06T10:00:34.027Z</time></trkpt><trkpt lat="38.0909" lon="13.3787117"><ele>41.0</ele><time>2026-05-06T10:00:35.027Z</time></trkpt><trkpt lat="38.090915" lon="13.3789283"><ele>40.33333333333333</ele><time>2026-05-06T10:00:36.027Z</time></trkpt><trkpt lat="38.0909233" lon="13.3791517"><ele>39.666666666666664</ele><time>2026-05-06T10:00:37.027Z</time></trkpt><trkpt lat="38.0909283" lon="13.3793817"><ele>39.0</ele><time>2026-05-06T10:00:38.027Z</time></trkpt><trkpt lat="38.0909283" lon="13.3796017"><ele>38.333333333333336</ele><time>2026-05-06T10:00:39.027Z</time></trkpt><trkpt lat="38.09092" lon="13.3798233"><ele>37.66666666666667</ele><time>2026-05-06T10:00:40.027Z</time></trkpt><trkpt lat="38.0909083" lon="13.3800483"><ele>37.0</ele><time>2026-05-06T10:00:41.027Z</time></trkpt><trkpt lat="38.0908933" lon="13.380275"><ele>37.0</ele><time>2026-05-06T10:00:42.027Z</time></trkpt><trkpt lat="38.09087" lon="13.3805017"><ele>37.0</ele><time>2026-05-06T10:00:43.027Z</time></trkpt><trkpt lat="38.0908417" lon="13.3807217"><ele>37.0</ele><time>2026-05-06T10:00:44.027Z</time></trkpt><trkpt lat="38.0908067" lon="13.38093"><ele>36.333333333333336</ele><time>2026-05-06T10:00:45.027Z</time></trkpt><trkpt lat="38.0907683" lon="13.38115"><ele>35.666666666666664</ele><time>2026-05-06T10:00:46.027Z</time></trkpt><trkpt lat="38.09072" lon="13.3813633"><ele>35.0</ele><time>2026-05-06T10:00:47.027Z</time></trkpt><trkpt lat="38.090665" lon="13.3815783"><ele>35.0</ele><time>2026-05-06T10:00:48.027Z</time></trkpt><trkpt lat="38.0906033" lon="13.3817983"><ele>35.0</ele><time>2026-05-06T10:00:49.026Z</time></trkpt><trkpt lat="38.09053" lon="13.3820217"><ele>35.0</ele><time>2026-05-06T10:00:50.027Z</time></trkpt><trkpt lat="38.0904483" lon="13.3822467"><ele>35.0</ele><time>2026-05-06T10:00:51.027Z</time></trkpt><trkpt lat="38.0903717" lon="13.3824783"><ele>35.0</ele><time>2026-05-06T10:00:52.027Z</time></trkpt><trkpt lat="38.0902867" lon="13.3827083"><ele>35.0</ele><time>2026-05-06T10:00:53.026Z</time></trkpt><trkpt lat="38.0902" lon="13.3829367"><ele>34.666666666666664</ele><time>2026-05-06T10:00:54.027Z</time></trkpt><trkpt lat="38.09011" lon="13.38316"><ele>34.333333333333336</ele><time>2026-05-06T10:00:55.027Z</time></trkpt><trkpt lat="38.0900217" lon="13.3833933"><ele>34.0</ele><time>2026-05-06T10:00:56.027Z</time></trkpt><trkpt lat="38.0899367" lon="13.38362"><ele>33.0</ele><time>2026-05-06T10:00:57.027Z</time></trkpt><trkpt lat="38.0898583" lon="13.3838517"><ele>32.0</ele><time>2026-05-06T10:00:58.027Z</time></trkpt><trkpt lat="38.0897767" lon="13.3840767"><ele>31.0</ele><time>2026-05-06T10:00:59.027Z</time></trkpt><trkpt lat="38.0896883" lon="13.384315"><ele>31.0</ele><time>2026-05-06T10:01:00.027Z</time></trkpt><trkpt lat="38.0896033" lon="13.38454"><ele>31.0</ele><time>2026-05-06T10:01:01.027Z</time></trkpt><trkpt lat="38.0895183" lon="13.3847667"><ele>31.0</ele><time>2026-05-06T10:01:02.026Z</time></trkpt><trkpt lat="38.0894333" lon="13.384995"><ele>30.333333333333336</ele><time>2026-05-06T10:01:03.027Z</time></trkpt><trkpt lat="38.0893433" lon="13.385215"><ele>29.666666666666664</ele><time>2026-05-06T10:01:04.027Z</time></trkpt><trkpt lat="38.089265" lon="13.385445"><ele>29.0</ele><time>2026-05-06T10:01:05.027Z</time></trkpt><trkpt lat="38.0891833" lon="13.3856783"><ele>29.0</ele><time>2026-05-06T10:01:06.027Z</time></trkpt><trkpt lat="38.08911" lon="13.3859117"><ele>29.0</ele><time>2026-05-06T10:01:07.027Z</time></trkpt><trkpt lat="38.0890383" lon="13.3861417"><ele>29.0</ele><time>2026-05-06T10:01:08.027Z</time></trkpt><trkpt lat="38.08897" lon="13.3863767"><ele>31.666666666666664</ele><time>2026-05-06T10:01:09.027Z</time></trkpt><trkpt lat="38.0889" lon="13.38662"><ele>34.333333333333336</ele><time>2026-05-06T10:01:10.027Z</time></trkpt><trkpt lat="38.0888417" lon="13.38686"><ele>37.0</ele><time>2026-05-06T10:01:11.027Z</time></trkpt><trkpt lat="38.0887817" lon="13.3870967"><ele>38.333333333333336</ele><time>2026-05-06T10:01:12.027Z</time></trkpt><trkpt lat="38.0887333" lon="13.3873383"><ele>39.666666666666664</ele><time>2026-05-06T10:01:13.027Z</time></trkpt><trkpt lat="38.08868" lon="13.3875783"><ele>41.0</ele><time>2026-05-06T10:01:14.027Z</time></trkpt><trkpt lat="38.0886367" lon="13.3878217"><ele>40.0</ele><time>2026-05-06T10:01:15.027Z</time></trkpt><trkpt lat="38.0885833" lon="13.3880617"><ele>39.0</ele><time>2026-05-06T10:01:16.027Z</time></trkpt><trkpt lat="38.088525" lon="13.3883083"><ele>38.0</ele><time>2026-05-06T10:01:17.027Z</time></trkpt><trkpt lat="38.08847" lon="13.38855"><ele>38.0</ele><time>2026-05-06T10:01:18.027Z</time></trkpt><trkpt lat="38.0884167" lon="13.3887983"><ele>38.0</ele><time>2026-05-06T10:01:19.027Z</time></trkpt><trkpt lat="38.0883633" lon="13.3890367"><ele>38.0</ele><time>2026-05-06T10:01:20.027Z</time></trkpt><trkpt lat="38.0883133" lon="13.389285"><ele>36.666666666666664</ele><time>2026-05-06T10:01:21.027Z</time></trkpt><trkpt lat="38.088265" lon="13.389525"><ele>35.333333333333336</ele><time>2026-05-06T10:01:22.027Z</time></trkpt><trkpt lat="38.0882167" lon="13.3897667"><ele>34.0</ele><time>2026-05-06T10:01:23.027Z</time></trkpt><trkpt lat="38.0881633" lon="13.39001"><ele>34.0</ele><time>2026-05-06T10:01:24.027Z</time></trkpt><trkpt lat="38.0881133" lon="13.3902533"><ele>34.0</ele><time>2026-05-06T10:01:25.027Z</time></trkpt><trkpt lat="38.0880617" lon="13.3904967"><ele>34.0</ele><time>2026-05-06T10:01:26.027Z</time></trkpt><trkpt lat="38.08801" lon="13.3907433"><ele>33.0</ele><time>2026-05-06T10:01:27.027Z</time></trkpt><trkpt lat="38.087965" lon="13.39099"><ele>32.0</ele><time>2026-05-06T10:01:28.027Z</time></trkpt><trkpt lat="38.0879167" lon="13.39123"><ele>31.0</ele><time>2026-05-06T10:01:29.027Z</time></trkpt><trkpt lat="38.0878633" lon="13.3914783"><ele>31.0</ele><time>2026-05-06T10:01:30.027Z</time></trkpt><trkpt lat="38.0878117" lon="13.3917267"><ele>31.0</ele><time>2026-05-06T10:01:31.027Z</time></trkpt><trkpt lat="38.08776" lon="13.3919733"><ele>31.0</ele><time>2026-05-06T10:01:32.027Z</time></trkpt><trkpt lat="38.08771" lon="13.3922217"><ele>31.0</ele><time>2026-05-06T10:01:33.027Z</time></trkpt><trkpt lat="38.0876617" lon="13.3924717"><ele>31.0</ele><time>2026-05-06T10:01:34.027Z</time></trkpt><trkpt lat="38.0876133" lon="13.39273"><ele>31.0</ele><time>2026-05-06T10:01:35.027Z</time></trkpt><trkpt lat="38.0875617" lon="13.392985"><ele>31.0</ele><time>2026-05-06T10:01:36.027Z</time></trkpt><trkpt lat="38.0875183" lon="13.3932383"><ele>31.0</ele><time>2026-05-06T10:01:37.027Z</time></trkpt><trkpt lat="38.0874733" lon="13.3934967"><ele>31.0</ele><time>2026-05-06T10:01:38.027Z</time></trkpt><trkpt lat="38.0874367" lon="13.3937567"><ele>30.666666666666668</ele><time>2026-05-06T10:01:39.027Z</time></trkpt><trkpt lat="38.0874017" lon="13.3940133"><ele>30.333333333333336</ele><time>2026-05-06T10:01:40.027Z</time></trkpt><trkpt lat="38.08737" lon="13.394275"><ele>30.0</ele><time>2026-05-06T10:01:41.027Z</time></trkpt><trkpt lat="38.0873367" lon="13.3945417"><ele>30.333333333333336</ele><time>2026-05-06T10:01:42.027Z</time></trkpt><trkpt lat="38.0873117" lon="13.39482"><ele>30.666666666666668</ele><time>2026-05-06T10:01:43.027Z</time></trkpt><trkpt lat="38.087285" lon="13.3950983"><ele>31.0</ele><time>2026-05-06T10:01:44.027Z</time></trkpt><trkpt lat="38.08726" lon="13.3953783"><ele>31.5</ele><time>2026-05-06T10:01:45.027Z</time></trkpt><trkpt lat="38.087235" lon="13.3956667"><ele>32.0</ele><time>2026-05-06T10:01:46.027Z</time></trkpt><trkpt lat="38.087215" lon="13.3959633"><ele>32.0</ele><time>2026-05-06T10:01:47.027Z</time></trkpt><trkpt lat="38.0871917" lon="13.3962667"><ele>32.0</ele><time>2026-05-06T10:01:48.027Z</time></trkpt><trkpt lat="38.0871733" lon="13.3965617"><ele>32.5</ele><time>2026-05-06T10:01:49.027Z</time></trkpt><trkpt lat="38.0871517" lon="13.3968567"><ele>33.0</ele><time>2026-05-06T10:01:50.027Z</time></trkpt><trkpt lat="38.0871283" lon="13.39715"><ele>33.5</ele><time>2026-05-06T10:01:51.027Z</time></trkpt><trkpt lat="38.0871" lon="13.3974417"><ele>34.0</ele><time>2026-05-06T10:01:52.027Z</time></trkpt><trkpt lat="38.0870717" lon="13.39774"><ele>32.5</ele><time>2026-05-06T10:01:53.027Z</time></trkpt><trkpt lat="38.08705" lon="13.3980283"><ele>31.0</ele><time>2026-05-06T10:01:54.027Z</time></trkpt><trkpt lat="38.087025" lon="13.39832"><ele>31.0</ele><time>2026-05-06T10:01:55.027Z</time></trkpt><trkpt lat="38.0869983" lon="13.398615"><ele>31.0</ele><time>2026-05-06T10:01:56.027Z</time></trkpt><trkpt lat="38.0869717" lon="13.398905"><ele>30.5</ele><time>2026-05-06T10:01:57.027Z</time></trkpt><trkpt lat="38.0869483" lon="13.3991933"><ele>30.0</ele><time>2026-05-06T10:01:58.027Z</time></trkpt><trkpt lat="38.086925" lon="13.399485"><ele>30.0</ele><time>2026-05-06T10:01:59.027Z</time></trkpt><trkpt lat="38.0868983" lon="13.39978"><ele>30.0</ele><time>2026-05-06T10:02:00.027Z</time></trkpt><trkpt lat="38.0868683" lon="13.4000767"><ele>30.0</ele><time>2026-05-06T10:02:01.027Z</time></trkpt><trkpt lat="38.0868367" lon="13.4003683"><ele>30.0</ele><time>2026-05-06T10:02:02.027Z</time></trkpt><trkpt lat="38.08681" lon="13.4006583"><ele>29.5</ele><time>2026-05-06T10:02:03.027Z</time></trkpt><trkpt lat="38.08678" lon="13.40095"><ele>29.0</ele><time>2026-05-06T10:02:04.027Z</time></trkpt><trkpt lat="38.0867567" lon="13.4012417"><ele>30.5</ele><time>2026-05-06T10:02:05.027Z</time></trkpt><trkpt lat="38.08673" lon="13.4015333"><ele>32.0</ele><time>2026-05-06T10:02:06.027Z</time></trkpt><trkpt lat="38.0867083" lon="13.4018233"><ele>32.0</ele><time>2026-05-06T10:02:07.027Z</time></trkpt><trkpt lat="38.0866817" lon="13.4021033"><ele>32.0</ele><time>2026-05-06T10:02:08.027Z</time></trkpt><trkpt lat="38.086655" lon="13.402375"><ele>32.0</ele><time>2026-05-06T10:02:09.027Z</time></trkpt><trkpt lat="38.0866233" lon="13.402645"><ele>32.0</ele><time>2026-05-06T10:02:10.027Z</time></trkpt><trkpt lat="38.0866017" lon="13.4029217"><ele>32.0</ele><time>2026-05-06T10:02:11.027Z</time></trkpt><trkpt lat="38.0865817" lon="13.4031883"><ele>32.0</ele><time>2026-05-06T10:02:12.027Z</time></trkpt><trkpt lat="38.0865667" lon="13.4034683"><ele>32.0</ele><time>2026-05-06T10:02:13.027Z</time></trkpt><trkpt lat="38.0865417" lon="13.40374"><ele>32.0</ele><time>2026-05-06T10:02:14.027Z</time></trkpt><trkpt lat="38.0865133" lon="13.4040167"><ele>32.0</ele><time>2026-05-06T10:02:15.027Z</time></trkpt><trkpt lat="38.08649" lon="13.4042917"><ele>32.0</ele><time>2026-05-06T10:02:16.027Z</time></trkpt><trkpt lat="38.086465" lon="13.4045667"><ele>32.0</ele><time>2026-05-06T10:02:17.027Z</time></trkpt><trkpt lat="38.086445" lon="13.40484"><ele>32.0</ele><time>2026-05-06T10:02:18.027Z</time></trkpt><trkpt lat="38.0864217" lon="13.40511"><ele>32.0</ele><time>2026-05-06T10:02:19.027Z</time></trkpt><trkpt lat="38.086405" lon="13.40538"><ele>32.0</ele><time>2026-05-06T10:02:20.027Z</time></trkpt><trkpt lat="38.0863783" lon="13.40565"><ele>32.0</ele><time>2026-05-06T10:02:21.027Z</time></trkpt><trkpt lat="38.086345" lon="13.405915"><ele>31.666666666666664</ele><time>2026-05-06T10:02:22.027Z</time></trkpt><trkpt lat="38.0863217" lon="13.406185"><ele>31.333333333333336</ele><time>2026-05-06T10:02:23.027Z</time></trkpt><trkpt lat="38.0863" lon="13.4064567"><ele>31.0</ele><time>2026-05-06T10:02:24.027Z</time></trkpt><trkpt lat="38.0862767" lon="13.4067283"><ele>31.0</ele><time>2026-05-06T10:02:25.027Z</time></trkpt><trkpt lat="38.0862533" lon="13.4069967"><ele>31.0</ele><time>2026-05-06T10:02:26.027Z</time></trkpt><trkpt lat="38.0862333" lon="13.4072717"><ele>31.0</ele><time>2026-05-06T10:02:27.027Z</time></trkpt><trkpt lat="38.0862133" lon="13.4075417"><ele>31.0</ele><time>2026-05-06T10:02:28.027Z</time></trkpt><trkpt lat="38.08619" lon="13.40781"><ele>31.0</ele><time>2026-05-06T10:02:29.027Z</time></trkpt><trkpt lat="38.0861683" lon="13.408075"><ele>31.0</ele><time>2026-05-06T10:02:30.027Z</time></trkpt><trkpt lat="38.086145" lon="13.408345"><ele>31.0</ele><time>2026-05-06T10:02:31.027Z</time></trkpt><trkpt lat="38.086125" lon="13.4086183"><ele>31.0</ele><time>2026-05-06T10:02:32.027Z</time></trkpt><trkpt lat="38.086105" lon="13.4088833"><ele>31.0</ele><time>2026-05-06T10:02:33.027Z</time></trkpt><trkpt lat="38.0860833" lon="13.4091533"><ele>31.333333333333336</ele><time>2026-05-06T10:02:34.027Z</time></trkpt><trkpt lat="38.08606" lon="13.4094283"><ele>31.666666666666664</ele><time>2026-05-06T10:02:35.027Z</time></trkpt><trkpt lat="38.086035" lon="13.409695"><ele>32.0</ele><time>2026-05-06T10:02:36.027Z</time></trkpt><trkpt lat="38.0860083" lon="13.4099633"><ele>31.333333333333332</ele><time>2026-05-06T10:02:37.027Z</time></trkpt><trkpt lat="38.085985" lon="13.4102317"><ele>30.666666666666664</ele><time>2026-05-06T10:02:38.027Z</time></trkpt><trkpt lat="38.08596" lon="13.4104883"><ele>30.0</ele><time>2026-05-06T10:02:39.027Z</time></trkpt><trkpt lat="38.08594" lon="13.41074"><ele>29.666666666666664</ele><time>2026-05-06T10:02:40.027Z</time></trkpt><trkpt lat="38.0859167" lon="13.4110017"><ele>29.333333333333332</ele><time>2026-05-06T10:02:41.027Z</time></trkpt><trkpt lat="38.0858933" lon="13.4112667"><ele>29.0</ele><time>2026-05-06T10:02:42.027Z</time></trkpt><trkpt lat="38.08587" lon="13.4115233"><ele>29.666666666666664</ele><time>2026-05-06T10:02:43.027Z</time></trkpt><trkpt lat="38.0858517" lon="13.4117883"><ele>30.333333333333336</ele><time>2026-05-06T10:02:44.027Z</time></trkpt><trkpt lat="38.085835" lon="13.41205"><ele>31.0</ele><time>2026-05-06T10:02:45.027Z</time></trkpt><trkpt lat="38.0858217" lon="13.4123117"><ele>31.0</ele><time>2026-05-06T10:02:46.027Z</time></trkpt><trkpt lat="38.0858117" lon="13.4125783"><ele>31.0</ele><time>2026-05-06T10:02:47.027Z</time></trkpt><trkpt lat="38.0858017" lon="13.4128417"><ele>31.0</ele><time>2026-05-06T10:02:48.027Z</time></trkpt><trkpt lat="38.0857983" lon="13.4131083"><ele>31.0</ele><time>2026-05-06T10:02:49.026Z</time></trkpt><trkpt lat="38.085795" lon="13.4133733"><ele>31.0</ele><time>2026-05-06T10:02:50.027Z</time></trkpt><trkpt lat="38.0857983" lon="13.4136383"><ele>31.0</ele><time>2026-05-06T10:02:51.027Z</time></trkpt><trkpt lat="38.0857967" lon="13.4138983"><ele>31.0</ele><time>2026-05-06T10:02:52.027Z</time></trkpt><trkpt lat="38.0857983" lon="13.4141617"><ele>31.0</ele><time>2026-05-06T10:02:53.027Z</time></trkpt><trkpt lat="38.085805" lon="13.4144267"><ele>31.0</ele><time>2026-05-06T10:02:54.027Z</time></trkpt><trkpt lat="38.0858083" lon="13.41469"><ele>31.333333333333336</ele><time>2026-05-06T10:02:55.027Z</time></trkpt><trkpt lat="38.0858083" lon="13.41495"><ele>31.666666666666664</ele><time>2026-05-06T10:02:56.027Z</time></trkpt><trkpt lat="38.08581" lon="13.415215"><ele>32.0</ele><time>2026-05-06T10:02:57.027Z</time></trkpt><trkpt lat="38.0858083" lon="13.4154717"><ele>32.0</ele><time>2026-05-06T10:02:58.026Z</time></trkpt><trkpt lat="38.08581" lon="13.4157333"><ele>32.0</ele><time>2026-05-06T10:02:59.027Z</time></trkpt><trkpt lat="38.08581" lon="13.4159917"><ele>32.0</ele><time>2026-05-06T10:03:00.027Z</time></trkpt><trkpt lat="38.0858133" lon="13.41625"><ele>31.333333333333332</ele><time>2026-05-06T10:03:01.027Z</time></trkpt><trkpt lat="38.08581" lon="13.4165133"><ele>30.666666666666664</ele><time>2026-05-06T10:03:02.027Z</time></trkpt><trkpt lat="38.08581" lon="13.4167733"><ele>30.0</ele><time>2026-05-06T10:03:03.027Z</time></trkpt><trkpt lat="38.0858133" lon="13.4170333"><ele>30.333333333333336</ele><time>2026-05-06T10:03:04.027Z</time></trkpt><trkpt lat="38.085815" lon="13.4172967"><ele>30.666666666666668</ele><time>2026-05-06T10:03:05.027Z</time></trkpt><trkpt lat="38.0858167" lon="13.4175583"><ele>31.0</ele><time>2026-05-06T10:03:06.026Z</time></trkpt><trkpt lat="38.085825" lon="13.4178183"><ele>31.333333333333336</ele><time>2026-05-06T10:03:07.026Z</time></trkpt><trkpt lat="38.085825" lon="13.418085"><ele>31.666666666666664</ele><time>2026-05-06T10:03:08.027Z</time></trkpt><trkpt lat="38.0858283" lon="13.41836"><ele>32.0</ele><time>2026-05-06T10:03:09.027Z</time></trkpt><trkpt lat="38.0858283" lon="13.4186667"><ele>31.0</ele><time>2026-05-06T10:03:10.027Z</time></trkpt><trkpt lat="38.0858283" lon="13.4189867"><ele>30.0</ele><time>2026-05-06T10:03:11.027Z</time></trkpt><trkpt lat="38.0858317" lon="13.4193067"><ele>30.0</ele><time>2026-05-06T10:03:12.027Z</time></trkpt><trkpt lat="38.085835" lon="13.419615"><ele>30.0</ele><time>2026-05-06T10:03:13.027Z</time></trkpt><trkpt lat="38.0858383" lon="13.41991"><ele>30.0</ele><time>2026-05-06T10:03:14.027Z</time></trkpt><trkpt lat="38.0858467" lon="13.4201967"><ele>30.0</ele><time>2026-05-06T10:03:15.027Z</time></trkpt><trkpt lat="38.085845" lon="13.4204783"><ele>30.0</ele><time>2026-05-06T10:03:16.027Z</time></trkpt><trkpt lat="38.0858467" lon="13.420755"><ele>30.0</ele><time>2026-05-06T10:03:17.027Z</time></trkpt><trkpt lat="38.085855" lon="13.421025"><ele>30.0</ele><time>2026-05-06T10:03:18.027Z</time></trkpt><trkpt lat="38.0858567" lon="13.421295"><ele>30.0</ele><time>2026-05-06T10:03:19.027Z</time></trkpt><trkpt lat="38.0858583" lon="13.421565"><ele>30.0</ele><time>2026-05-06T10:03:20.027Z</time></trkpt><trkpt lat="38.0858533" lon="13.42183"><ele>30.0</ele><time>2026-05-06T10:03:21.027Z</time></trkpt><trkpt lat="38.085845" lon="13.4220983"><ele>30.0</ele><time>2026-05-06T10:03:22.027Z</time></trkpt><trkpt lat="38.0858533" lon="13.4223617"><ele>30.0</ele><time>2026-05-06T10:03:23.027Z</time></trkpt><trkpt lat="38.0858517" lon="13.4226267"><ele>30.0</ele><time>2026-05-06T10:03:24.027Z</time></trkpt><trkpt lat="38.0858517" lon="13.4228867"><ele>30.0</ele><time>2026-05-06T10:03:25.027Z</time></trkpt><trkpt lat="38.0858583" lon="13.4231517"><ele>30.0</ele><time>2026-05-06T10:03:26.027Z</time></trkpt><trkpt lat="38.0858517" lon="13.4234133"><ele>30.0</ele><time>2026-05-06T10:03:27.027Z</time></trkpt><trkpt lat="38.085855" lon="13.4236717"><ele>30.0</ele><time>2026-05-06T10:03:28.027Z</time></trkpt><trkpt lat="38.0858633" lon="13.42393"><ele>29.666666666666664</ele><time>2026-05-06T10:03:29.027Z</time></trkpt><trkpt lat="38.0858733" lon="13.42419"><ele>29.333333333333332</ele><time>2026-05-06T10:03:30.027Z</time></trkpt><trkpt lat="38.085875" lon="13.4244517"><ele>29.0</ele><time>2026-05-06T10:03:31.027Z</time></trkpt><trkpt lat="38.08588" lon="13.424715"><ele>28.333333333333332</ele><time>2026-05-06T10:03:32.027Z</time></trkpt><trkpt lat="38.0858867" lon="13.4249783"><ele>27.666666666666664</ele><time>2026-05-06T10:03:33.027Z</time></trkpt><trkpt lat="38.0858883" lon="13.4252433"><ele>27.0</ele><time>2026-05-06T10:03:34.027Z</time></trkpt><trkpt lat="38.0858883" lon="13.42551"><ele>26.666666666666664</ele><time>2026-05-06T10:03:35.027Z</time></trkpt><trkpt lat="38.0858883" lon="13.4257717"><ele>26.333333333333332</ele><time>2026-05-06T10:03:36.027Z</time></trkpt><trkpt lat="38.08589" lon="13.4260317"><ele>26.0</ele><time>2026-05-06T10:03:37.027Z</time></trkpt><trkpt lat="38.0858983" lon="13.4262883"><ele>26.333333333333332</ele><time>2026-05-06T10:03:38.027Z</time></trkpt><trkpt lat="38.0859033" lon="13.42655"><ele>26.666666666666664</ele><time>2026-05-06T10:03:39.027Z</time></trkpt><trkpt lat="38.0858983" lon="13.4268167"><ele>27.0</ele><time>2026-05-06T10:03:40.027Z</time></trkpt><trkpt lat="38.0859" lon="13.427075"><ele>28.0</ele><time>2026-05-06T10:03:41.027Z</time></trkpt><trkpt lat="38.0859017" lon="13.427335"><ele>29.0</ele><time>2026-05-06T10:03:42.027Z</time></trkpt><trkpt lat="38.0859017" lon="13.4276"><ele>30.0</ele><time>2026-05-06T10:03:43.027Z</time></trkpt><trkpt lat="38.0859017" lon="13.42786"><ele>30.666666666666664</ele><time>2026-05-06T10:03:44.027Z</time></trkpt><trkpt lat="38.0859117" lon="13.428125"><ele>31.333333333333332</ele><time>2026-05-06T10:03:45.027Z</time></trkpt><trkpt lat="38.085915" lon="13.4283883"><ele>32.0</ele><time>2026-05-06T10:03:46.027Z</time></trkpt><trkpt lat="38.08592" lon="13.4286483"><ele>33.0</ele><time>2026-05-06T10:03:47.027Z</time></trkpt><trkpt lat="38.08593" lon="13.4289133"><ele>34.0</ele><time>2026-05-06T10:03:48.027Z</time></trkpt><trkpt lat="38.0859317" lon="13.429175"><ele>35.0</ele><time>2026-05-06T10:03:49.027Z</time></trkpt><trkpt lat="38.08594" lon="13.4294417"><ele>34.33333333333333</ele><time>2026-05-06T10:03:50.027Z</time></trkpt><trkpt lat="38.0859517" lon="13.4297067"><ele>33.666666666666664</ele><time>2026-05-06T10:03:51.027Z</time></trkpt><trkpt lat="38.0859583" lon="13.429965"><ele>33.0</ele><time>2026-05-06T10:03:52.027Z</time></trkpt><trkpt lat="38.0859733" lon="13.4302267"><ele>33.333333333333336</ele><time>2026-05-06T10:03:53.027Z</time></trkpt><trkpt lat="38.0859867" lon="13.43048"><ele>33.66666666666667</ele><time>2026-05-06T10:03:54.027Z</time></trkpt><trkpt lat="38.0859917" lon="13.4307433"><ele>34.0</ele><time>2026-05-06T10:03:55.027Z</time></trkpt><trkpt lat="38.0859983" lon="13.4310033"><ele>34.0</ele><time>2026-05-06T10:03:56.027Z</time></trkpt><trkpt lat="38.0860083" lon="13.43125"><ele>34.0</ele><time>2026-05-06T10:03:57.027Z</time></trkpt><trkpt lat="38.08602" lon="13.4314933"><ele>34.0</ele><time>2026-05-06T10:03:58.027Z</time></trkpt><trkpt lat="38.0860333" lon="13.4317333"><ele>34.0</ele><time>2026-05-06T10:03:59.027Z</time></trkpt><trkpt lat="38.0860433" lon="13.43197"><ele>34.0</ele><time>2026-05-06T10:04:00.027Z</time></trkpt><trkpt lat="38.0860567" lon="13.432205"><ele>34.0</ele><time>2026-05-06T10:04:01.027Z</time></trkpt><trkpt lat="38.0860617" lon="13.4324317"><ele>35.0</ele><time>2026-05-06T10:04:02.027Z</time></trkpt><trkpt lat="38.0860683" lon="13.4326633"><ele>36.0</ele><time>2026-05-06T10:04:03.027Z</time></trkpt><trkpt lat="38.0860683" lon="13.43289"><ele>37.0</ele><time>2026-05-06T10:04:04.027Z</time></trkpt><trkpt lat="38.086065" lon="13.4331167"><ele>37.66666666666667</ele><time>2026-05-06T10:04:05.027Z</time></trkpt><trkpt lat="38.0860533" lon="13.4333433"><ele>38.333333333333336</ele><time>2026-05-06T10:04:06.027Z</time></trkpt><trkpt lat="38.08604" lon="13.4335717"><ele>39.0</ele><time>2026-05-06T10:04:07.027Z</time></trkpt><trkpt lat="38.0860233" lon="13.4337917"><ele>38.333333333333336</ele><time>2026-05-06T10:04:08.027Z</time></trkpt><trkpt lat="38.08599" lon="13.4340183"><ele>37.66666666666667</ele><time>2026-05-06T10:04:09.027Z</time></trkpt><trkpt lat="38.08595" lon="13.4342367"><ele>37.0</ele><time>2026-05-06T10:04:10.027Z</time></trkpt><trkpt lat="38.0859" lon="13.4344583"><ele>37.0</ele><time>2026-05-06T10:04:11.027Z</time></trkpt><trkpt lat="38.0858333" lon="13.434675"><ele>37.0</ele><time>2026-05-06T10:04:12.027Z</time></trkpt><trkpt lat="38.0857533" lon="13.4348833"><ele>37.0</ele><time>2026-05-06T10:04:13.027Z</time></trkpt><trkpt lat="38.0856567" lon="13.4350867"><ele>37.0</ele><time>2026-05-06T10:04:14.027Z</time></trkpt><trkpt lat="38.0855383" lon="13.435275"><ele>37.0</ele><time>2026-05-06T10:04:15.027Z</time></trkpt><trkpt lat="38.0854" lon="13.435445"><ele>37.0</ele><time>2026-05-06T10:04:16.027Z</time></trkpt><trkpt lat="38.08526" lon="13.4356117"><ele>36.66666666666667</ele><time>2026-05-06T10:04:17.027Z</time></trkpt><trkpt lat="38.0851183" lon="13.4357733"><ele>36.333333333333336</ele><time>2026-05-06T10:04:18.027Z</time></trkpt><trkpt lat="38.0849833" lon="13.4359383"><ele>36.0</ele><time>2026-05-06T10:04:19.027Z</time></trkpt><trkpt lat="38.0848433" lon="13.436115"><ele>36.0</ele><time>2026-05-06T10:04:20.027Z</time></trkpt><trkpt lat="38.0847083" lon="13.4362967"><ele>36.0</ele><time>2026-05-06T10:04:21.027Z</time></trkpt><trkpt lat="38.0845817" lon="13.4364783"><ele>36.0</ele><time>2026-05-06T10:04:22.027Z</time></trkpt><trkpt lat="38.0844617" lon="13.43667"><ele>35.666666666666664</ele><time>2026-05-06T10:04:23.027Z</time></trkpt><trkpt lat="38.08435" lon="13.43687"><ele>35.33333333333333</ele><time>2026-05-06T10:04:24.027Z</time></trkpt><trkpt lat="38.0842467" lon="13.4370733"><ele>35.0</ele><time>2026-05-06T10:04:25.027Z</time></trkpt><trkpt lat="38.0841467" lon="13.4372883"><ele>35.0</ele><time>2026-05-06T10:04:26.027Z</time></trkpt><trkpt lat="38.0840533" lon="13.4375067"><ele>35.0</ele><time>2026-05-06T10:04:27.027Z</time></trkpt><trkpt lat="38.0839683" lon="13.4377267"><ele>35.0</ele><time>2026-05-06T10:04:28.027Z</time></trkpt><trkpt lat="38.0838967" lon="13.4379567"><ele>34.666666666666664</ele><time>2026-05-06T10:04:29.027Z</time></trkpt><trkpt lat="38.0838283" lon="13.4381917"><ele>34.333333333333336</ele><time>2026-05-06T10:04:30.027Z</time></trkpt><trkpt lat="38.0837533" lon="13.4384267"><ele>34.0</ele><time>2026-05-06T10:04:31.027Z</time></trkpt><trkpt lat="38.0836833" lon="13.43866"><ele>34.66666666666667</ele><time>2026-05-06T10:04:32.027Z</time></trkpt><trkpt lat="38.0836083" lon="13.4388917"><ele>35.333333333333336</ele><time>2026-05-06T10:04:33.027Z</time></trkpt><trkpt lat="38.0835367" lon="13.4391217"><ele>36.0</ele><time>2026-05-06T10:04:34.027Z</time></trkpt><trkpt lat="38.0834567" lon="13.439355"><ele>36.0</ele><time>2026-05-06T10:04:35.027Z</time></trkpt><trkpt lat="38.0833783" lon="13.4395883"><ele>36.0</ele><time>2026-05-06T10:04:36.027Z</time></trkpt><trkpt lat="38.0833033" lon="13.4398183"><ele>36.0</ele><time>2026-05-06T10:04:37.027Z</time></trkpt><trkpt lat="38.0832333" lon="13.4400533"><ele>35.666666666666664</ele><time>2026-05-06T10:04:38.027Z</time></trkpt><trkpt lat="38.08316" lon="13.440295"><ele>35.33333333333333</ele><time>2026-05-06T10:04:39.027Z</time></trkpt><trkpt lat="38.0830967" lon="13.4405283"><ele>35.0</ele><time>2026-05-06T10:04:40.027Z</time></trkpt><trkpt lat="38.0830417" lon="13.4407717"><ele>35.0</ele><time>2026-05-06T10:04:41.027Z</time></trkpt><trkpt lat="38.083" lon="13.441025"><ele>35.0</ele><time>2026-05-06T10:04:42.027Z</time></trkpt><trkpt lat="38.08297" lon="13.4412833"><ele>35.0</ele><time>2026-05-06T10:04:43.027Z</time></trkpt><trkpt lat="38.0829567" lon="13.4415367"><ele>35.0</ele><time>2026-05-06T10:04:44.027Z</time></trkpt><trkpt lat="38.0829433" lon="13.441795"><ele>35.0</ele><time>2026-05-06T10:04:45.027Z</time></trkpt><trkpt lat="38.0829467" lon="13.442055"><ele>35.0</ele><time>2026-05-06T10:04:46.027Z</time></trkpt><trkpt lat="38.0829533" lon="13.4423117"><ele>34.33333333333333</ele><time>2026-05-06T10:04:47.027Z</time></trkpt><trkpt lat="38.0829633" lon="13.442575"><ele>33.666666666666664</ele><time>2026-05-06T10:04:48.027Z</time></trkpt><trkpt lat="38.0829833" lon="13.44283"><ele>33.0</ele><time>2026-05-06T10:04:49.027Z</time></trkpt><trkpt lat="38.083005" lon="13.443085"><ele>33.0</ele><time>2026-05-06T10:04:50.027Z</time></trkpt><trkpt lat="38.0830217" lon="13.4433483"><ele>33.0</ele><time>2026-05-06T10:04:51.027Z</time></trkpt><trkpt lat="38.0830383" lon="13.4436083"><ele>33.0</ele><time>2026-05-06T10:04:52.027Z</time></trkpt><trkpt lat="38.0830567" lon="13.4438683"><ele>32.666666666666664</ele><time>2026-05-06T10:04:53.027Z</time></trkpt><trkpt lat="38.0830717" lon="13.4441317"><ele>32.33333333333333</ele><time>2026-05-06T10:04:54.027Z</time></trkpt><trkpt lat="38.083085" lon="13.4443933"><ele>32.0</ele><time>2026-05-06T10:04:55.027Z</time></trkpt><trkpt lat="38.0830983" lon="13.4446533"><ele>32.0</ele><time>2026-05-06T10:04:56.027Z</time></trkpt><trkpt lat="38.08312" lon="13.4449083"><ele>32.0</ele><time>2026-05-06T10:04:57.027Z</time></trkpt><trkpt lat="38.0831367" lon="13.445165"><ele>32.0</ele><time>2026-05-06T10:04:58.027Z</time></trkpt><trkpt lat="38.0831483" lon="13.44542"><ele>31.333333333333332</ele><time>2026-05-06T10:04:59.027Z</time></trkpt><trkpt lat="38.08316" lon="13.44568"><ele>30.666666666666664</ele><time>2026-05-06T10:05:00.027Z</time></trkpt><trkpt lat="38.0831767" lon="13.4459383"><ele>30.0</ele><time>2026-05-06T10:05:01.027Z</time></trkpt><trkpt lat="38.08319" lon="13.4461983"><ele>31.333333333333336</ele><time>2026-05-06T10:05:02.026Z</time></trkpt><trkpt lat="38.0832033" lon="13.44646"><ele>32.66666666666667</ele><time>2026-05-06T10:05:03.027Z</time></trkpt><trkpt lat="38.0832183" lon="13.4467283"><ele>34.0</ele><time>2026-05-06T10:05:04.027Z</time></trkpt><trkpt lat="38.083235" lon="13.446995"><ele>34.66666666666667</ele><time>2026-05-06T10:05:05.027Z</time></trkpt><trkpt lat="38.0832533" lon="13.4472633"><ele>35.333333333333336</ele><time>2026-05-06T10:05:06.027Z</time></trkpt><trkpt lat="38.083275" lon="13.447525"><ele>36.0</ele><time>2026-05-06T10:05:07.027Z</time></trkpt><trkpt lat="38.0832933" lon="13.4477883"><ele>35.333333333333336</ele><time>2026-05-06T10:05:08.027Z</time></trkpt><trkpt lat="38.0833083" lon="13.448055"><ele>34.66666666666667</ele><time>2026-05-06T10:05:09.027Z</time></trkpt><trkpt lat="38.0833267" lon="13.4483167"><ele>34.0</ele><time>2026-05-06T10:05:10.027Z</time></trkpt><trkpt lat="38.083345" lon="13.448575"><ele>33.66666666666667</ele><time>2026-05-06T10:05:11.027Z</time></trkpt><trkpt lat="38.083355" lon="13.44884"><ele>33.333333333333336</ele><time>2026-05-06T10:05:12.027Z</time></trkpt><trkpt lat="38.0833633" lon="13.4491017"><ele>33.0</ele><time>2026-05-06T10:05:13.027Z</time></trkpt><trkpt lat="38.08338" lon="13.4493667"><ele>33.333333333333336</ele><time>2026-05-06T10:05:14.027Z</time></trkpt><trkpt lat="38.0833817" lon="13.44963"><ele>33.66666666666667</ele><time>2026-05-06T10:05:15.027Z</time></trkpt><trkpt lat="38.0833767" lon="13.44989"><ele>34.0</ele><time>2026-05-06T10:05:16.027Z</time></trkpt><trkpt lat="38.0833683" lon="13.4501533"><ele>34.0</ele><time>2026-05-06T10:05:17.027Z</time></trkpt><trkpt lat="38.0833517" lon="13.45042"><ele>34.0</ele><time>2026-05-06T10:05:18.027Z</time></trkpt><trkpt lat="38.0833267" lon="13.45068"><ele>34.0</ele><time>2026-05-06T10:05:19.027Z</time></trkpt><trkpt lat="38.0833017" lon="13.4509483"><ele>33.66666666666667</ele><time>2026-05-06T10:05:20.027Z</time></trkpt><trkpt lat="38.083275" lon="13.451205"><ele>33.333333333333336</ele><time>2026-05-06T10:05:21.027Z</time></trkpt><trkpt lat="38.0832483" lon="13.45146"><ele>33.0</ele><time>2026-05-06T10:05:22.026Z</time></trkpt><trkpt lat="38.0832183" lon="13.45172"><ele>33.0</ele><time>2026-05-06T10:05:23.027Z</time></trkpt><trkpt lat="38.08318" lon="13.4519817"><ele>33.0</ele><time>2026-05-06T10:05:24.027Z</time></trkpt><trkpt lat="38.0831517" lon="13.4522483"><ele>33.0</ele><time>2026-05-06T10:05:25.027Z</time></trkpt><trkpt lat="38.08312" lon="13.45251"><ele>33.666666666666664</ele><time>2026-05-06T10:05:26.027Z</time></trkpt><trkpt lat="38.0830867" lon="13.45277"><ele>34.33333333333333</ele><time>2026-05-06T10:05:27.027Z</time></trkpt><trkpt lat="38.0830567" lon="13.45303"><ele>35.0</ele><time>2026-05-06T10:05:28.027Z</time></trkpt><trkpt lat="38.0830267" lon="13.45329"><ele>35.666666666666664</ele><time>2026-05-06T10:05:29.027Z</time></trkpt><trkpt lat="38.0829933" lon="13.4535467"><ele>36.333333333333336</ele><time>2026-05-06T10:05:30.026Z</time></trkpt><trkpt lat="38.0829683" lon="13.45381"><ele>37.0</ele><time>2026-05-06T10:05:31.027Z</time></trkpt><trkpt lat="38.0829383" lon="13.4540667"><ele>37.0</ele><time>2026-05-06T10:05:32.027Z</time></trkpt><trkpt lat="38.0829067" lon="13.4543317"><ele>37.0</ele><time>2026-05-06T10:05:33.027Z</time></trkpt><trkpt lat="38.0828767" lon="13.4546117"><ele>37.0</ele><time>2026-05-06T10:05:34.026Z</time></trkpt><trkpt lat="38.0828433" lon="13.4548967"><ele>37.0</ele><time>2026-05-06T10:05:35.027Z</time></trkpt><trkpt lat="38.08281" lon="13.4551767"><ele>37.0</ele><time>2026-05-06T10:05:36.027Z</time></trkpt><trkpt lat="38.0827733" lon="13.4554533"><ele>37.0</ele><time>2026-05-06T10:05:37.027Z</time></trkpt><trkpt lat="38.08273" lon="13.4557333"><ele>36.66666666666667</ele><time>2026-05-06T10:05:38.027Z</time></trkpt><trkpt lat="38.082695" lon="13.4560067"><ele>36.333333333333336</ele><time>2026-05-06T10:05:39.027Z</time></trkpt><trkpt lat="38.0826633" lon="13.4562783"><ele>36.0</ele><time>2026-05-06T10:05:40.027Z</time></trkpt><trkpt lat="38.0826367" lon="13.4565517"><ele>36.0</ele><time>2026-05-06T10:05:41.027Z</time></trkpt><trkpt lat="38.082605" lon="13.456835"><ele>36.0</ele><time>2026-05-06T10:05:42.027Z</time></trkpt><trkpt lat="38.08257" lon="13.4571233"><ele>37.0</ele><time>2026-05-06T10:05:43.027Z</time></trkpt><trkpt lat="38.082535" lon="13.45741"><ele>38.0</ele><time>2026-05-06T10:05:44.027Z</time></trkpt><trkpt lat="38.0825033" lon="13.45769"><ele>38.5</ele><time>2026-05-06T10:05:45.027Z</time></trkpt><trkpt lat="38.08247" lon="13.457975"><ele>39.0</ele><time>2026-05-06T10:05:46.027Z</time></trkpt><trkpt lat="38.0824367" lon="13.458255"><ele>40.0</ele><time>2026-05-06T10:05:47.027Z</time></trkpt><trkpt lat="38.0824033" lon="13.458535"><ele>41.0</ele><time>2026-05-06T10:05:48.027Z</time></trkpt><trkpt lat="38.082365" lon="13.4588117"><ele>42.0</ele><time>2026-05-06T10:05:49.027Z</time></trkpt><trkpt lat="38.0823317" lon="13.459085"><ele>42.0</ele><time>2026-05-06T10:05:50.027Z</time></trkpt><trkpt lat="38.0823067" lon="13.45936"><ele>42.0</ele><time>2026-05-06T10:05:51.027Z</time></trkpt><trkpt lat="38.082275" lon="13.45963"><ele>42.0</ele><time>2026-05-06T10:05:52.027Z</time></trkpt><trkpt lat="38.08225" lon="13.4599"><ele>42.0</ele><time>2026-05-06T10:05:53.027Z</time></trkpt><trkpt lat="38.0822183" lon="13.460175"><ele>42.0</ele><time>2026-05-06T10:05:54.027Z</time></trkpt><trkpt lat="38.0822" lon="13.4604483"><ele>42.0</ele><time>2026-05-06T10:05:55.027Z</time></trkpt><trkpt lat="38.0821833" lon="13.46072"><ele>42.666666666666664</ele><time>2026-05-06T10:05:56.027Z</time></trkpt><trkpt lat="38.0821717" lon="13.461"><ele>43.33333333333333</ele><time>2026-05-06T10:05:57.027Z</time></trkpt><trkpt lat="38.0821517" lon="13.461275"><ele>44.0</ele><time>2026-05-06T10:05:58.027Z</time></trkpt><trkpt lat="38.08214" lon="13.46155"><ele>44.0</ele><time>2026-05-06T10:05:59.027Z</time></trkpt><trkpt lat="38.0821267" lon="13.4618267"><ele>44.0</ele><time>2026-05-06T10:06:00.027Z</time></trkpt><trkpt lat="38.0821067" lon="13.46211"><ele>44.0</ele><time>2026-05-06T10:06:01.027Z</time></trkpt><trkpt lat="38.0820883" lon="13.4623883"><ele>44.33333333333333</ele><time>2026-05-06T10:06:02.027Z</time></trkpt><trkpt lat="38.0820683" lon="13.4626633"><ele>44.666666666666664</ele><time>2026-05-06T10:06:03.027Z</time></trkpt><trkpt lat="38.0820517" lon="13.4629417"><ele>45.0</ele><time>2026-05-06T10:06:04.027Z</time></trkpt><trkpt lat="38.082035" lon="13.463225"><ele>45.333333333333336</ele><time>2026-05-06T10:06:05.027Z</time></trkpt><trkpt lat="38.0820133" lon="13.4635017"><ele>45.66666666666667</ele><time>2026-05-06T10:06:06.027Z</time></trkpt><trkpt lat="38.0820067" lon="13.4637883"><ele>46.0</ele><time>2026-05-06T10:06:07.027Z</time></trkpt><trkpt lat="38.0819917" lon="13.464075"><ele>46.333333333333336</ele><time>2026-05-06T10:06:08.027Z</time></trkpt><trkpt lat="38.0819683" lon="13.4643517"><ele>46.666666666666664</ele><time>2026-05-06T10:06:09.027Z</time></trkpt><trkpt lat="38.081955" lon="13.4646317"><ele>47.0</ele><time>2026-05-06T10:06:10.027Z</time></trkpt><trkpt lat="38.0819383" lon="13.46492"><ele>46.666666666666664</ele><time>2026-05-06T10:06:11.027Z</time></trkpt><trkpt lat="38.0819167" lon="13.4652017"><ele>46.333333333333336</ele><time>2026-05-06T10:06:12.027Z</time></trkpt><trkpt lat="38.081905" lon="13.4654867"><ele>46.0</ele><time>2026-05-06T10:06:13.027Z</time></trkpt><trkpt lat="38.0818917" lon="13.4657683"><ele>46.0</ele><time>2026-05-06T10:06:14.027Z</time></trkpt><trkpt lat="38.08187" lon="13.4660467"><ele>46.0</ele><time>2026-05-06T10:06:15.027Z</time></trkpt><trkpt lat="38.0818583" lon="13.4663217"><ele>46.0</ele><time>2026-05-06T10:06:16.027Z</time></trkpt><trkpt lat="38.0818433" lon="13.4665967"><ele>46.333333333333336</ele><time>2026-05-06T10:06:17.027Z</time></trkpt><trkpt lat="38.0818267" lon="13.4668733"><ele>46.666666666666664</ele><time>2026-05-06T10:06:18.027Z</time></trkpt><trkpt lat="38.0818133" lon="13.4671567"><ele>47.0</ele><time>2026-05-06T10:06:19.027Z</time></trkpt><trkpt lat="38.0817967" lon="13.4674333"><ele>47.33333333333333</ele><time>2026-05-06T10:06:20.027Z</time></trkpt><trkpt lat="38.0817833" lon="13.4677117"><ele>47.666666666666664</ele><time>2026-05-06T10:06:21.027Z</time></trkpt><trkpt lat="38.0817683" lon="13.46799"><ele>48.0</ele><time>2026-05-06T10:06:22.027Z</time></trkpt><trkpt lat="38.0817483" lon="13.4682683"><ele>49.5</ele><time>2026-05-06T10:06:23.027Z</time></trkpt><trkpt lat="38.0817367" lon="13.4685583"><ele>51.0</ele><time>2026-05-06T10:06:24.027Z</time></trkpt><trkpt lat="38.0817267" lon="13.4688533"><ele>51.0</ele><time>2026-05-06T10:06:25.027Z</time></trkpt><trkpt lat="38.08171" lon="13.4691467"><ele>51.0</ele><time>2026-05-06T10:06:26.027Z</time></trkpt><trkpt lat="38.0817" lon="13.4694417"><ele>52.0</ele><time>2026-05-06T10:06:27.027Z</time></trkpt><trkpt lat="38.0816833" lon="13.4697517"><ele>53.0</ele><time>2026-05-06T10:06:28.027Z</time></trkpt><trkpt lat="38.0816717" lon="13.4700617"><ele>53.0</ele><time>2026-05-06T10:06:29.027Z</time></trkpt><trkpt lat="38.0816517" lon="13.4703967"><ele>53.0</ele><time>2026-05-06T10:06:30.027Z</time></trkpt><trkpt lat="38.0816333" lon="13.4707467"><ele>53.5</ele><time>2026-05-06T10:06:31.027Z</time></trkpt><trkpt lat="38.0815983" lon="13.4710983"><ele>54.0</ele><time>2026-05-06T10:06:32.027Z</time></trkpt><trkpt lat="38.0815617" lon="13.471455"><ele>54.0</ele><time>2026-05-06T10:06:33.027Z</time></trkpt><trkpt lat="38.08151" lon="13.4718017"><ele>54.0</ele><time>2026-05-06T10:06:34.027Z</time></trkpt><trkpt lat="38.0814583" lon="13.4721367"><ele>54.5</ele><time>2026-05-06T10:06:35.027Z</time></trkpt><trkpt lat="38.0814117" lon="13.472455"><ele>55.0</ele><time>2026-05-06T10:06:36.027Z</time></trkpt><trkpt lat="38.0813567" lon="13.4727783"><ele>55.0</ele><time>2026-05-06T10:06:37.027Z</time></trkpt><trkpt lat="38.0813117" lon="13.47309"><ele>55.0</ele><time>2026-05-06T10:06:38.027Z</time></trkpt><trkpt lat="38.0812683" lon="13.4733917"><ele>55.0</ele><time>2026-05-06T10:06:39.027Z</time></trkpt><trkpt lat="38.081225" lon="13.47369"><ele>55.0</ele><time>2026-05-06T10:06:40.027Z</time></trkpt><trkpt lat="38.0811817" lon="13.4739817"><ele>50.5</ele><time>2026-05-06T10:06:41.026Z</time></trkpt><trkpt lat="38.081145" lon="13.4742667"><ele>46.0</ele><time>2026-05-06T10:06:42.027Z</time></trkpt><trkpt lat="38.081105" lon="13.474545"><ele>41.0</ele><time>2026-05-06T10:06:43.027Z</time></trkpt><trkpt lat="38.0810667" lon="13.4748267"><ele>36.0</ele><time>2026-05-06T10:06:44.027Z</time></trkpt><trkpt lat="38.0810283" lon="13.4751017"><ele>31.0</ele><time>2026-05-06T10:06:45.027Z</time></trkpt><trkpt lat="38.0809883" lon="13.47538"><ele>30.333333333333336</ele><time>2026-05-06T10:06:46.027Z</time></trkpt><trkpt lat="38.0809483" lon="13.4756617"><ele>29.666666666666664</ele><time>2026-05-06T10:06:47.027Z</time></trkpt><trkpt lat="38.0809117" lon="13.4759383"><ele>29.0</ele><time>2026-05-06T10:06:48.027Z</time></trkpt><trkpt lat="38.0808783" lon="13.4762083"><ele>30.666666666666664</ele><time>2026-05-06T10:06:49.027Z</time></trkpt><trkpt lat="38.0808467" lon="13.4764817"><ele>32.333333333333336</ele><time>2026-05-06T10:06:50.027Z</time></trkpt><trkpt lat="38.0808083" lon="13.4767533"><ele>34.0</ele><time>2026-05-06T10:06:51.027Z</time></trkpt><trkpt lat="38.080775" lon="13.477015"><ele>39.66666666666667</ele><time>2026-05-06T10:06:52.027Z</time></trkpt><trkpt lat="38.0807367" lon="13.47727"><ele>45.333333333333336</ele><time>2026-05-06T10:06:53.027Z</time></trkpt><trkpt lat="38.080705" lon="13.4775233"><ele>51.0</ele><time>2026-05-06T10:06:54.027Z</time></trkpt><trkpt lat="38.080675" lon="13.477775"><ele>55.33333333333333</ele><time>2026-05-06T10:06:55.027Z</time></trkpt><trkpt lat="38.08064" lon="13.47801"><ele>59.666666666666664</ele><time>2026-05-06T10:06:56.027Z</time></trkpt><trkpt lat="38.0806117" lon="13.4782483"><ele>64.0</ele><time>2026-05-06T10:06:57.027Z</time></trkpt><trkpt lat="38.0805783" lon="13.4784833"><ele>64.0</ele><time>2026-05-06T10:06:58.026Z</time></trkpt><trkpt lat="38.0805467" lon="13.4787133"><ele>64.0</ele><time>2026-05-06T10:06:59.027Z</time></trkpt><trkpt lat="38.080515" lon="13.4789533"><ele>64.0</ele><time>2026-05-06T10:07:00.027Z</time></trkpt><trkpt lat="38.0804917" lon="13.47921"><ele>64.66666666666666</ele><time>2026-05-06T10:07:01.027Z</time></trkpt><trkpt lat="38.0804583" lon="13.4794733"><ele>65.33333333333333</ele><time>2026-05-06T10:07:02.027Z</time></trkpt><trkpt lat="38.0804317" lon="13.4797433"><ele>66.0</ele><time>2026-05-06T10:07:03.027Z</time></trkpt><trkpt lat="38.0803933" lon="13.4800167"><ele>66.33333333333333</ele><time>2026-05-06T10:07:04.027Z</time></trkpt><trkpt lat="38.0803533" lon="13.4802967"><ele>66.66666666666666</ele><time>2026-05-06T10:07:05.026Z</time></trkpt><trkpt lat="38.080315" lon="13.4805767"><ele>67.0</ele><time>2026-05-06T10:07:06.026Z</time></trkpt><trkpt lat="38.08028" lon="13.4808567"><ele>68.0</ele><time>2026-05-06T10:07:07.027Z</time></trkpt><trkpt lat="38.08024" lon="13.48114"><ele>69.0</ele><time>2026-05-06T10:07:08.027Z</time></trkpt><trkpt lat="38.0801983" lon="13.4814267"><ele>69.0</ele><time>2026-05-06T10:07:09.027Z</time></trkpt><trkpt lat="38.0801583" lon="13.48171"><ele>69.0</ele><time>2026-05-06T10:07:10.027Z</time></trkpt><trkpt lat="38.0801183" lon="13.481995"><ele>69.0</ele><time>2026-05-06T10:07:11.026Z</time></trkpt><trkpt lat="38.0800783" lon="13.4822783"><ele>69.0</ele><time>2026-05-06T10:07:12.027Z</time></trkpt><trkpt lat="38.0800367" lon="13.4825567"><ele>69.0</ele><time>2026-05-06T10:07:13.027Z</time></trkpt><trkpt lat="38.0799917" lon="13.4828383"><ele>69.0</ele><time>2026-05-06T10:07:14.027Z</time></trkpt><trkpt lat="38.0799533" lon="13.4831133"><ele>69.0</ele><time>2026-05-06T10:07:15.027Z</time></trkpt><trkpt lat="38.0799167" lon="13.4833933"><ele>69.0</ele><time>2026-05-06T10:07:16.027Z</time></trkpt><trkpt lat="38.0798767" lon="13.4836717"><ele>69.0</ele><time>2026-05-06T10:07:17.026Z</time></trkpt><trkpt lat="38.079835" lon="13.4839483"><ele>69.0</ele><time>2026-05-06T10:07:18.027Z</time></trkpt><trkpt lat="38.0797983" lon="13.4842283"><ele>69.0</ele><time>2026-05-06T10:07:19.027Z</time></trkpt><trkpt lat="38.0797617" lon="13.48451"><ele>69.0</ele><time>2026-05-06T10:07:20.027Z</time></trkpt><trkpt lat="38.0797233" lon="13.4847917"><ele>68.33333333333333</ele><time>2026-05-06T10:07:21.027Z</time></trkpt><trkpt lat="38.0796833" lon="13.4850683"><ele>67.66666666666666</ele><time>2026-05-06T10:07:22.027Z</time></trkpt><trkpt lat="38.0796467" lon="13.4853433"><ele>67.0</ele><time>2026-05-06T10:07:23.027Z</time></trkpt><trkpt lat="38.0796183" lon="13.4856283"><ele>67.0</ele><time>2026-05-06T10:07:24.027Z</time></trkpt><trkpt lat="38.0795817" lon="13.4859217"><ele>67.0</ele><time>2026-05-06T10:07:25.027Z</time></trkpt><trkpt lat="38.07954" lon="13.48622"><ele>66.5</ele><time>2026-05-06T10:07:26.027Z</time></trkpt><trkpt lat="38.0794967" lon="13.4865167"><ele>66.0</ele><time>2026-05-06T10:07:27.027Z</time></trkpt><trkpt lat="38.0794567" lon="13.4868183"><ele>69.0</ele><time>2026-05-06T10:07:28.027Z</time></trkpt><trkpt lat="38.0794117" lon="13.4871183"><ele>72.0</ele><time>2026-05-06T10:07:29.026Z</time></trkpt><trkpt lat="38.07936" lon="13.4874117"><ele>72.0</ele><time>2026-05-06T10:07:30.027Z</time></trkpt><trkpt lat="38.0792933" lon="13.4877"><ele>72.0</ele><time>2026-05-06T10:07:31.027Z</time></trkpt><trkpt lat="38.0792217" lon="13.48798"><ele>74.0</ele><time>2026-05-06T10:07:32.027Z</time></trkpt><trkpt lat="38.0791567" lon="13.4882567"><ele>76.0</ele><time>2026-05-06T10:07:33.027Z</time></trkpt><trkpt lat="38.07908" lon="13.4885267"><ele>86.5</ele><time>2026-05-06T10:07:34.027Z</time></trkpt><trkpt lat="38.0789917" lon="13.4887917"><ele>97.0</ele><time>2026-05-06T10:07:35.027Z</time></trkpt><trkpt lat="38.0788967" lon="13.489055"><ele>97.0</ele><time>2026-05-06T10:07:36.026Z</time></trkpt><trkpt lat="38.0788017" lon="13.48932"><ele>97.0</ele><time>2026-05-06T10:07:37.027Z</time></trkpt><trkpt lat="38.0787067" lon="13.4895867"><ele>94.5</ele><time>2026-05-06T10:07:38.027Z</time></trkpt><trkpt lat="38.0786033" lon="13.48985"><ele>92.0</ele><time>2026-05-06T10:07:39.027Z</time></trkpt><trkpt lat="38.0784983" lon="13.4901167"><ele>92.0</ele><time>2026-05-06T10:07:40.027Z</time></trkpt><trkpt lat="38.0784017" lon="13.4903883"><ele>92.0</ele><time>2026-05-06T10:07:41.027Z</time></trkpt><trkpt lat="38.0783033" lon="13.4906583"><ele>106.0</ele><time>2026-05-06T10:07:42.027Z</time></trkpt><trkpt lat="38.0782" lon="13.4909233"><ele>120.0</ele><time>2026-05-06T10:07:43.027Z</time></trkpt><trkpt lat="38.0780967" lon="13.4911867"><ele>112.5</ele><time>2026-05-06T10:07:44.027Z</time></trkpt><trkpt lat="38.0780067" lon="13.491455"><ele>105.0</ele><time>2026-05-06T10:07:45.027Z</time></trkpt><trkpt lat="38.0779117" lon="13.4917283"><ele>105.0</ele><time>2026-05-06T10:07:46.027Z</time></trkpt><trkpt lat="38.077815" lon="13.49199"><ele>105.0</ele><time>2026-05-06T10:07:47.027Z</time></trkpt><trkpt lat="38.0777167" lon="13.49226"><ele>96.5</ele><time>2026-05-06T10:07:48.027Z</time></trkpt><trkpt lat="38.0776167" lon="13.4925283"><ele>88.0</ele><time>2026-05-06T10:07:49.027Z</time></trkpt><trkpt lat="38.0775217" lon="13.4927967"><ele>90.5</ele><time>2026-05-06T10:07:50.027Z</time></trkpt><trkpt lat="38.0774267" lon="13.49306"><ele>93.0</ele><time>2026-05-06T10:07:51.027Z</time></trkpt><trkpt lat="38.07733" lon="13.4933283"><ele>93.0</ele><time>2026-05-06T10:07:52.027Z</time></trkpt><trkpt lat="38.0772317" lon="13.4935967"><ele>93.0</ele><time>2026-05-06T10:07:53.027Z</time></trkpt><trkpt lat="38.07713" lon="13.49386"><ele>88.0</ele><time>2026-05-06T10:07:54.027Z</time></trkpt><trkpt lat="38.0770333" lon="13.49413"><ele>83.0</ele><time>2026-05-06T10:07:55.027Z</time></trkpt><trkpt lat="38.0769333" lon="13.4943917"><ele>81.5</ele><time>2026-05-06T10:07:56.027Z</time></trkpt><trkpt lat="38.0768233" lon="13.4946517"><ele>80.0</ele><time>2026-05-06T10:07:57.027Z</time></trkpt><trkpt lat="38.076715" lon="13.49491"><ele>83.0</ele><time>2026-05-06T10:07:58.027Z</time></trkpt><trkpt lat="38.0766" lon="13.495165"><ele>86.0</ele><time>2026-05-06T10:07:59.027Z</time></trkpt><trkpt lat="38.07648" lon="13.4954167"><ele>85.0</ele><time>2026-05-06T10:08:00.027Z</time></trkpt><trkpt lat="38.07635" lon="13.4956617"><ele>84.0</ele><time>2026-05-06T10:08:01.027Z</time></trkpt><trkpt lat="38.076215" lon="13.4959"><ele>84.0</ele><time>2026-05-06T10:08:02.027Z</time></trkpt><trkpt lat="38.0760783" lon="13.49613"><ele>84.0</ele><time>2026-05-06T10:08:03.027Z</time></trkpt><trkpt lat="38.07594" lon="13.4963617"><ele>85.0</ele><time>2026-05-06T10:08:04.026Z</time></trkpt><trkpt lat="38.0758" lon="13.4965883"><ele>86.0</ele><time>2026-05-06T10:08:05.027Z</time></trkpt><trkpt lat="38.075655" lon="13.4968183"><ele>87.0</ele><time>2026-05-06T10:08:06.027Z</time></trkpt><trkpt lat="38.0755133" lon="13.49705"><ele>88.0</ele><time>2026-05-06T10:08:07.027Z</time></trkpt><trkpt lat="38.0753767" lon="13.4972867"><ele>88.0</ele><time>2026-05-06T10:08:08.027Z</time></trkpt><trkpt lat="38.07524" lon="13.4975183"><ele>88.0</ele><time>2026-05-06T10:08:09.027Z</time></trkpt><trkpt lat="38.075105" lon="13.49776"><ele>88.0</ele><time>2026-05-06T10:08:10.027Z</time></trkpt><trkpt lat="38.0749667" lon="13.4979983"><ele>88.0</ele><time>2026-05-06T10:08:11.027Z</time></trkpt><trkpt lat="38.074825" lon="13.4982233"><ele>89.5</ele><time>2026-05-06T10:08:12.027Z</time></trkpt><trkpt lat="38.07468" lon="13.4984583"><ele>91.0</ele><time>2026-05-06T10:08:13.027Z</time></trkpt><trkpt lat="38.0745417" lon="13.4986933"><ele>91.5</ele><time>2026-05-06T10:08:14.027Z</time></trkpt><trkpt lat="38.0744033" lon="13.498925"><ele>92.0</ele><time>2026-05-06T10:08:15.027Z</time></trkpt><trkpt lat="38.0742667" lon="13.4991633"><ele>92.0</ele><time>2026-05-06T10:08:16.026Z</time></trkpt><trkpt lat="38.0741283" lon="13.4994"><ele>92.0</ele><time>2026-05-06T10:08:17.027Z</time></trkpt><trkpt lat="38.074" lon="13.4996283"><ele>94.0</ele><time>2026-05-06T10:08:18.027Z</time></trkpt><trkpt lat="38.0738717" lon="13.4998417"><ele>96.0</ele><time>2026-05-06T10:08:19.027Z</time></trkpt><trkpt lat="38.0737533" lon="13.5000483"><ele>98.0</ele><time>2026-05-06T10:08:20.027Z</time></trkpt><trkpt lat="38.07364" lon="13.5002483"><ele>97.66666666666666</ele><time>2026-05-06T10:08:21.027Z</time></trkpt><trkpt lat="38.07353" lon="13.50045"><ele>97.33333333333334</ele><time>2026-05-06T10:08:22.027Z</time></trkpt><trkpt lat="38.0734167" lon="13.50065"><ele>97.0</ele><time>2026-05-06T10:08:23.027Z</time></trkpt><trkpt lat="38.0733033" lon="13.500855"><ele>98.33333333333334</ele><time>2026-05-06T10:08:24.027Z</time></trkpt><trkpt lat="38.07319" lon="13.5010583"><ele>99.66666666666666</ele><time>2026-05-06T10:08:25.027Z</time></trkpt><trkpt lat="38.0730733" lon="13.5012533"><ele>101.0</ele><time>2026-05-06T10:08:26.027Z</time></trkpt><trkpt lat="38.0729583" lon="13.50145"><ele>101.66666666666666</ele><time>2026-05-06T10:08:27.027Z</time></trkpt><trkpt lat="38.0728433" lon="13.5016433"><ele>102.33333333333334</ele><time>2026-05-06T10:08:28.027Z</time></trkpt><trkpt lat="38.0727267" lon="13.5018267"><ele>103.0</ele><time>2026-05-06T10:08:29.027Z</time></trkpt><trkpt lat="38.0726067" lon="13.5020167"><ele>103.0</ele><time>2026-05-06T10:08:30.027Z</time></trkpt><trkpt lat="38.0724783" lon="13.5022117"><ele>103.0</ele><time>2026-05-06T10:08:31.027Z</time></trkpt><trkpt lat="38.0723367" lon="13.50242"><ele>103.0</ele><time>2026-05-06T10:08:32.027Z</time></trkpt><trkpt lat="38.0721867" lon="13.5026433"><ele>103.0</ele><time>2026-05-06T10:08:33.027Z</time></trkpt><trkpt lat="38.072015" lon="13.5028683"><ele>103.0</ele><time>2026-05-06T10:08:34.027Z</time></trkpt><trkpt lat="38.07183" lon="13.5031"><ele>103.0</ele><time>2026-05-06T10:08:35.026Z</time></trkpt><trkpt lat="38.0716417" lon="13.5033317"><ele>103.0</ele><time>2026-05-06T10:08:36.026Z</time></trkpt><trkpt lat="38.071445" lon="13.503565"><ele>103.5</ele><time>2026-05-06T10:08:37.027Z</time></trkpt><trkpt lat="38.0712533" lon="13.5038"><ele>104.0</ele><time>2026-05-06T10:08:38.027Z</time></trkpt><trkpt lat="38.0710517" lon="13.50404"><ele>104.0</ele><time>2026-05-06T10:08:39.027Z</time></trkpt><trkpt lat="38.0708533" lon="13.5042767"><ele>104.0</ele><time>2026-05-06T10:08:40.027Z</time></trkpt><trkpt lat="38.0706583" lon="13.5045083"><ele>106.5</ele><time>2026-05-06T10:08:41.027Z</time></trkpt><trkpt lat="38.0704667" lon="13.5047417"><ele>109.0</ele><time>2026-05-06T10:08:42.027Z</time></trkpt><trkpt lat="38.0702767" lon="13.50498"><ele>109.0</ele><time>2026-05-06T10:08:43.027Z</time></trkpt><trkpt lat="38.0700817" lon="13.5052167"><ele>109.0</ele><time>2026-05-06T10:08:44.026Z</time></trkpt><trkpt lat="38.069885" lon="13.5054517"><ele>112.0</ele><time>2026-05-06T10:08:45.027Z</time></trkpt><trkpt lat="38.0696917" lon="13.50568"><ele>115.0</ele><time>2026-05-06T10:08:46.027Z</time></trkpt><trkpt lat="38.0694917" lon="13.50591"><ele>115.0</ele><time>2026-05-06T10:08:47.026Z</time></trkpt><trkpt lat="38.0692933" lon="13.506145"><ele>115.0</ele><time>2026-05-06T10:08:48.027Z</time></trkpt><trkpt lat="38.0691017" lon="13.50638"><ele>116.0</ele><time>2026-05-06T10:08:49.027Z</time></trkpt><trkpt lat="38.0689083" lon="13.5066133"><ele>117.0</ele><time>2026-05-06T10:08:50.027Z</time></trkpt><trkpt lat="38.0687117" lon="13.50685"><ele>116.0</ele><time>2026-05-06T10:08:51.027Z</time></trkpt><trkpt lat="38.0685133" lon="13.5070883"><ele>115.0</ele><time>2026-05-06T10:08:52.027Z</time></trkpt><trkpt lat="38.0683067" lon="13.507325"><ele>115.5</ele><time>2026-05-06T10:08:53.027Z</time></trkpt><trkpt lat="38.06811" lon="13.507565"><ele>116.0</ele><time>2026-05-06T10:08:54.027Z</time></trkpt><trkpt lat="38.06791" lon="13.5077983"><ele>115.5</ele><time>2026-05-06T10:08:55.027Z</time></trkpt><trkpt lat="38.0677083" lon="13.508045"><ele>115.0</ele><time>2026-05-06T10:08:56.027Z</time></trkpt><trkpt lat="38.06751" lon="13.5082817"><ele>116.0</ele><time>2026-05-06T10:08:57.027Z</time></trkpt><trkpt lat="38.0673117" lon="13.508525"><ele>117.0</ele><time>2026-05-06T10:08:58.027Z</time></trkpt><trkpt lat="38.0671067" lon="13.5087667"><ele>117.0</ele><time>2026-05-06T10:08:59.027Z</time></trkpt><trkpt lat="38.0669017" lon="13.5090133"><ele>117.0</ele><time>2026-05-06T10:09:00.027Z</time></trkpt><trkpt lat="38.066695" lon="13.5092533"><ele>117.5</ele><time>2026-05-06T10:09:01.027Z</time></trkpt><trkpt lat="38.0664967" lon="13.509495"><ele>118.0</ele><time>2026-05-06T10:09:02.027Z</time></trkpt><trkpt lat="38.0662933" lon="13.5097333"><ele>118.0</ele><time>2026-05-06T10:09:03.027Z</time></trkpt><trkpt lat="38.06609" lon="13.5099733"><ele>118.0</ele><time>2026-05-06T10:09:04.027Z</time></trkpt><trkpt lat="38.0658867" lon="13.5102133"><ele>118.0</ele><time>2026-05-06T10:09:05.027Z</time></trkpt><trkpt lat="38.0656783" lon="13.51045"><ele>118.0</ele><time>2026-05-06T10:09:06.027Z</time></trkpt><trkpt lat="38.065475" lon="13.5106917"><ele>118.0</ele><time>2026-05-06T10:09:07.027Z</time></trkpt><trkpt lat="38.0652683" lon="13.5109317"><ele>118.0</ele><time>2026-05-06T10:09:08.027Z</time></trkpt><trkpt lat="38.0650667" lon="13.5111767"><ele>116.5</ele><time>2026-05-06T10:09:09.027Z</time></trkpt><trkpt lat="38.06487" lon="13.5114267"><ele>115.0</ele><time>2026-05-06T10:09:10.027Z</time></trkpt><trkpt lat="38.0646633" lon="13.51167"><ele>115.0</ele><time>2026-05-06T10:09:11.027Z</time></trkpt><trkpt lat="38.0644567" lon="13.5119133"><ele>115.0</ele><time>2026-05-06T10:09:12.027Z</time></trkpt><trkpt lat="38.0642567" lon="13.51216"><ele>111.5</ele><time>2026-05-06T10:09:13.027Z</time></trkpt><trkpt lat="38.064045" lon="13.5123983"><ele>108.0</ele><time>2026-05-06T10:09:14.027Z</time></trkpt><trkpt lat="38.0638417" lon="13.5126317"><ele>108.0</ele><time>2026-05-06T10:09:15.026Z</time></trkpt><trkpt lat="38.0636417" lon="13.5128783"><ele>108.0</ele><time>2026-05-06T10:09:16.026Z</time></trkpt><trkpt lat="38.0634433" lon="13.5131217"><ele>102.0</ele><time>2026-05-06T10:09:17.026Z</time></trkpt><trkpt lat="38.0632433" lon="13.5133717"><ele>96.0</ele><time>2026-05-06T10:09:18.026Z</time></trkpt><trkpt lat="38.06304" lon="13.513615"><ele>96.0</ele><time>2026-05-06T10:09:19.026Z</time></trkpt><trkpt lat="38.0628367" lon="13.5138583"><ele>96.0</ele><time>2026-05-06T10:09:20.026Z</time></trkpt><trkpt lat="38.0626367" lon="13.514105"><ele>100.5</ele><time>2026-05-06T10:09:21.026Z</time></trkpt><trkpt lat="38.0624367" lon="13.51435"><ele>105.0</ele><time>2026-05-06T10:09:22.026Z</time></trkpt><trkpt lat="38.06223" lon="13.5145917"><ele>105.5</ele><time>2026-05-06T10:09:23.026Z</time></trkpt><trkpt lat="38.06203" lon="13.514835"><ele>106.0</ele><time>2026-05-06T10:09:24.026Z</time></trkpt><trkpt lat="38.0618317" lon="13.515085"><ele>106.0</ele><time>2026-05-06T10:09:25.026Z</time></trkpt><trkpt lat="38.061635" lon="13.5153333"><ele>106.0</ele><time>2026-05-06T10:09:26.026Z</time></trkpt><trkpt lat="38.0614483" lon="13.51559"><ele>99.5</ele><time>2026-05-06T10:09:27.026Z</time></trkpt><trkpt lat="38.0612667" lon="13.5158583"><ele>93.0</ele><time>2026-05-06T10:09:28.026Z</time></trkpt><trkpt lat="38.06111" lon="13.516145"><ele>88.0</ele><time>2026-05-06T10:09:29.026Z</time></trkpt><trkpt lat="38.06096" lon="13.5164383"><ele>83.0</ele><time>2026-05-06T10:09:30.026Z</time></trkpt><trkpt lat="38.06082" lon="13.51675"><ele>78.5</ele><time>2026-05-06T10:09:31.026Z</time></trkpt><trkpt lat="38.0606917" lon="13.5170633"><ele>74.0</ele><time>2026-05-06T10:09:32.026Z</time></trkpt><trkpt lat="38.0605817" lon="13.517385"><ele>74.0</ele><time>2026-05-06T10:09:33.026Z</time></trkpt><trkpt lat="38.060475" lon="13.5177167"><ele>74.0</ele><time>2026-05-06T10:09:34.026Z</time></trkpt><trkpt lat="38.060385" lon="13.51805"><ele>76.0</ele><time>2026-05-06T10:09:35.026Z</time></trkpt><trkpt lat="38.0603167" lon="13.5183883"><ele>78.0</ele><time>2026-05-06T10:09:36.026Z</time></trkpt><trkpt lat="38.06026" lon="13.5187333"><ele>81.0</ele><time>2026-05-06T10:09:37.026Z</time></trkpt><trkpt lat="38.06021" lon="13.5190783"><ele>84.0</ele><time>2026-05-06T10:09:38.026Z</time></trkpt><trkpt lat="38.06017" lon="13.519435"><ele>86.0</ele><time>2026-05-06T10:09:39.026Z</time></trkpt><trkpt lat="38.06015" lon="13.51979"><ele>88.0</ele><time>2026-05-06T10:09:40.026Z</time></trkpt><trkpt lat="38.0601433" lon="13.5201383"><ele>88.0</ele><time>2026-05-06T10:09:41.026Z</time></trkpt><trkpt lat="38.06014" lon="13.520495"><ele>88.0</ele><time>2026-05-06T10:09:42.026Z</time></trkpt><trkpt lat="38.0601533" lon="13.5208517"><ele>88.0</ele><time>2026-05-06T10:09:43.026Z</time></trkpt><trkpt lat="38.06018" lon="13.5212067"><ele>88.0</ele><time>2026-05-06T10:09:44.026Z</time></trkpt><trkpt lat="38.06022" lon="13.521555"><ele>85.0</ele><time>2026-05-06T10:09:45.026Z</time></trkpt><trkpt lat="38.0602683" lon="13.5219067"><ele>82.0</ele><time>2026-05-06T10:09:46.026Z</time></trkpt><trkpt lat="38.0603083" lon="13.5222617"><ele>81.0</ele><time>2026-05-06T10:09:47.026Z</time></trkpt><trkpt lat="38.06035" lon="13.5226133"><ele>80.0</ele><time>2026-05-06T10:09:48.026Z</time></trkpt><trkpt lat="38.0603933" lon="13.522955"><ele>78.0</ele><time>2026-05-06T10:09:49.026Z</time></trkpt><trkpt lat="38.0604333" lon="13.5233017"><ele>76.0</ele><time>2026-05-06T10:09:50.026Z</time></trkpt><trkpt lat="38.0604717" lon="13.5236517"><ele>73.5</ele><time>2026-05-06T10:09:51.025Z</time></trkpt><trkpt lat="38.0605117" lon="13.5240033"><ele>71.0</ele><time>2026-05-06T10:09:52.026Z</time></trkpt><trkpt lat="38.06055" lon="13.52435"><ele>71.0</ele><time>2026-05-06T10:09:53.026Z</time></trkpt><trkpt lat="38.0605817" lon="13.5247033"><ele>71.0</ele><time>2026-05-06T10:09:54.026Z</time></trkpt><trkpt lat="38.0606033" lon="13.5250533"><ele>70.0</ele><time>2026-05-06T10:09:55.025Z</time></trkpt><trkpt lat="38.0606117" lon="13.5254067"><ele>69.0</ele><time>2026-05-06T10:09:56.026Z</time></trkpt><trkpt lat="38.0606033" lon="13.5257567"><ele>69.0</ele><time>2026-05-06T10:09:57.026Z</time></trkpt><trkpt lat="38.0605783" lon="13.5261083"><ele>69.0</ele><time>2026-05-06T10:09:58.026Z</time></trkpt><trkpt lat="38.0605433" lon="13.52646"><ele>68.0</ele><time>2026-05-06T10:09:59.025Z</time></trkpt><trkpt lat="38.0604883" lon="13.5268033"><ele>67.0</ele><time>2026-05-06T10:10:00.026Z</time></trkpt><trkpt lat="38.0604283" lon="13.5271483"><ele>66.0</ele><time>2026-05-06T10:10:01.026Z</time></trkpt><trkpt lat="38.0603433" lon="13.5274883"><ele>65.0</ele><time>2026-05-06T10:10:02.026Z</time></trkpt><trkpt lat="38.0602533" lon="13.5278167"><ele>65.0</ele><time>2026-05-06T10:10:03.026Z</time></trkpt><trkpt lat="38.0601467" lon="13.5281417"><ele>65.0</ele><time>2026-05-06T10:10:04.026Z</time></trkpt><trkpt lat="38.0600417" lon="13.5284667"><ele>55.5</ele><time>2026-05-06T10:10:05.026Z</time></trkpt><trkpt lat="38.0599233" lon="13.5287883"><ele>46.0</ele><time>2026-05-06T10:10:06.026Z</time></trkpt><trkpt lat="38.0598067" lon="13.52911"><ele>46.0</ele><time>2026-05-06T10:10:07.026Z</time></trkpt><trkpt lat="38.059685" lon="13.5294333"><ele>46.0</ele><time>2026-05-06T10:10:08.026Z</time></trkpt><trkpt lat="38.059565" lon="13.5297517"><ele>42.5</ele><time>2026-05-06T10:10:09.026Z</time></trkpt><trkpt lat="38.0594467" lon="13.5300633"><ele>39.0</ele><time>2026-05-06T10:10:10.026Z</time></trkpt><trkpt lat="38.0593317" lon="13.5303817"><ele>40.0</ele><time>2026-05-06T10:10:11.026Z</time></trkpt><trkpt lat="38.0592117" lon="13.5307067"><ele>41.0</ele><time>2026-05-06T10:10:12.025Z</time></trkpt><trkpt lat="38.0590933" lon="13.531025"><ele>50.5</ele><time>2026-05-06T10:10:13.026Z</time></trkpt><trkpt lat="38.0589817" lon="13.5313417"><ele>60.0</ele><time>2026-05-06T10:10:14.026Z</time></trkpt><trkpt lat="38.058865" lon="13.5316633"><ele>60.0</ele><time>2026-05-06T10:10:15.026Z</time></trkpt><trkpt lat="38.05875" lon="13.53199"><ele>60.0</ele><time>2026-05-06T10:10:16.026Z</time></trkpt><trkpt lat="38.058635" lon="13.53231"><ele>62.0</ele><time>2026-05-06T10:10:17.026Z</time></trkpt><trkpt lat="38.0585167" lon="13.5326317"><ele>64.0</ele><time>2026-05-06T10:10:18.026Z</time></trkpt><trkpt lat="38.0584033" lon="13.5329533"><ele>64.0</ele><time>2026-05-06T10:10:19.026Z</time></trkpt><trkpt lat="38.0582867" lon="13.5332767"><ele>64.0</ele><time>2026-05-06T10:10:20.026Z</time></trkpt><trkpt lat="38.0581683" lon="13.5335917"><ele>66.5</ele><time>2026-05-06T10:10:21.026Z</time></trkpt><trkpt lat="38.0580517" lon="13.5339083"><ele>69.0</ele><time>2026-05-06T10:10:22.026Z</time></trkpt><trkpt lat="38.0579367" lon="13.5342333"><ele>69.0</ele><time>2026-05-06T10:10:23.026Z</time></trkpt><trkpt lat="38.05782" lon="13.5345567"><ele>69.0</ele><time>2026-05-06T10:10:24.026Z</time></trkpt><trkpt lat="38.0577017" lon="13.5348733"><ele>69.0</ele><time>2026-05-06T10:10:25.026Z</time></trkpt><trkpt lat="38.0575867" lon="13.5351833"><ele>69.0</ele><time>2026-05-06T10:10:26.026Z</time></trkpt><trkpt lat="38.05746" lon="13.5355033"><ele>68.5</ele><time>2026-05-06T10:10:27.025Z</time></trkpt><trkpt lat="38.0573217" lon="13.5358183"><ele>68.0</ele><time>2026-05-06T10:10:28.026Z</time></trkpt><trkpt lat="38.0571867" lon="13.5361367"><ele>67.5</ele><time>2026-05-06T10:10:29.026Z</time></trkpt><trkpt lat="38.0570383" lon="13.5364583"><ele>67.0</ele><time>2026-05-06T10:10:30.025Z</time></trkpt><trkpt lat="38.05688" lon="13.5367833"><ele>66.5</ele><time>2026-05-06T10:10:31.026Z</time></trkpt><trkpt lat="38.0567033" lon="13.5371033"><ele>66.0</ele><time>2026-05-06T10:10:32.026Z</time></trkpt><trkpt lat="38.05651" lon="13.5374333"><ele>66.0</ele><time>2026-05-06T10:10:33.026Z</time></trkpt><trkpt lat="38.0563083" lon="13.5377583"><ele>66.0</ele><time>2026-05-06T10:10:34.026Z</time></trkpt><trkpt lat="38.0560983" lon="13.53808"><ele>64.0</ele><time>2026-05-06T10:10:35.026Z</time></trkpt><trkpt lat="38.0558917" lon="13.538395"><ele>62.0</ele><time>2026-05-06T10:10:36.026Z</time></trkpt><trkpt lat="38.055685" lon="13.5387117"><ele>56.5</ele><time>2026-05-06T10:10:37.026Z</time></trkpt><trkpt lat="38.05547" lon="13.5390317"><ele>51.0</ele><time>2026-05-06T10:10:38.026Z</time></trkpt><trkpt lat="38.0552617" lon="13.5393517"><ele>50.5</ele><time>2026-05-06T10:10:39.026Z</time></trkpt><trkpt lat="38.0550367" lon="13.5396683"><ele>50.0</ele><time>2026-05-06T10:10:40.026Z</time></trkpt><trkpt lat="38.0548067" lon="13.5400183"><ele>43.0</ele><time>2026-05-06T10:10:41.026Z</time></trkpt><trkpt lat="38.0545617" lon="13.54037"><ele>36.0</ele><time>2026-05-06T10:10:42.026Z</time></trkpt><trkpt lat="38.0543133" lon="13.5407433"><ele>44.5</ele><time>2026-05-06T10:10:43.026Z</time></trkpt><trkpt lat="38.054055" lon="13.5411317"><ele>53.0</ele><time>2026-05-06T10:10:44.026Z</time></trkpt><trkpt lat="38.05379" lon="13.5415317"><ele>53.0</ele><time>2026-05-06T10:10:45.026Z</time></trkpt><trkpt lat="38.053515" lon="13.5419483"><ele>53.0</ele><time>2026-05-06T10:10:46.026Z</time></trkpt><trkpt lat="38.053235" lon="13.5423583"><ele>42.5</ele><time>2026-05-06T10:10:47.026Z</time></trkpt><trkpt lat="38.0529783" lon="13.542755"><ele>32.0</ele><time>2026-05-06T10:10:48.026Z</time></trkpt><trkpt lat="38.0527367" lon="13.543135"><ele>31.5</ele><time>2026-05-06T10:10:49.026Z</time></trkpt><trkpt lat="38.0524933" lon="13.5434983"><ele>31.0</ele><time>2026-05-06T10:10:50.026Z</time></trkpt><trkpt lat="38.0522567" lon="13.5438433"><ele>40.0</ele><time>2026-05-06T10:10:51.026Z</time></trkpt><trkpt lat="38.0520267" lon="13.5441917"><ele>49.0</ele><time>2026-05-06T10:10:52.026Z</time></trkpt><trkpt lat="38.0518" lon="13.5445317"><ele>56.0</ele><time>2026-05-06T10:10:53.026Z</time></trkpt><trkpt lat="38.0515767" lon="13.54487"><ele>63.0</ele><time>2026-05-06T10:10:54.026Z</time></trkpt><trkpt lat="38.0513667" lon="13.5452017"><ele>52.5</ele><time>2026-05-06T10:10:55.026Z</time></trkpt><trkpt lat="38.0511483" lon="13.5455267"><ele>42.0</ele><time>2026-05-06T10:10:56.026Z</time></trkpt><trkpt lat="38.0509417" lon="13.5458517"><ele>39.5</ele><time>2026-05-06T10:10:57.026Z</time></trkpt><trkpt lat="38.05073" lon="13.546165"><ele>37.0</ele><time>2026-05-06T10:10:58.026Z</time></trkpt><trkpt lat="38.05052" lon="13.54648"><ele>26.5</ele><time>2026-05-06T10:10:59.026Z</time></trkpt><trkpt lat="38.0503217" lon="13.5467933"><ele>16.0</ele><time>2026-05-06T10:11:00.026Z</time></trkpt><trkpt lat="38.0501233" lon="13.547105"><ele>13.0</ele><time>2026-05-06T10:11:01.026Z</time></trkpt><trkpt lat="38.0499267" lon="13.5474033"><ele>10.0</ele><time>2026-05-06T10:11:02.026Z</time></trkpt><trkpt lat="38.04973" lon="13.5476933"><ele>11.5</ele><time>2026-05-06T10:11:03.026Z</time></trkpt><trkpt lat="38.0495317" lon="13.5479817"><ele>13.0</ele><time>2026-05-06T10:11:04.025Z</time></trkpt><trkpt lat="38.049345" lon="13.5482583"><ele>13.0</ele><time>2026-05-06T10:11:05.026Z</time></trkpt><trkpt lat="38.0491583" lon="13.548545"><ele>13.0</ele><time>2026-05-06T10:11:06.026Z</time></trkpt><trkpt lat="38.0489733" lon="13.5488283"><ele>18.0</ele><time>2026-05-06T10:11:07.026Z</time></trkpt><trkpt lat="38.048785" lon="13.5491033"><ele>23.0</ele><time>2026-05-06T10:11:08.026Z</time></trkpt><trkpt lat="38.048595" lon="13.5493783"><ele>21.5</ele><time>2026-05-06T10:11:09.026Z</time></trkpt><trkpt lat="38.0484017" lon="13.5496483"><ele>20.0</ele><time>2026-05-06T10:11:10.026Z</time></trkpt><trkpt lat="38.0482133" lon="13.549915"><ele>19.5</ele><time>2026-05-06T10:11:11.026Z</time></trkpt><trkpt lat="38.0480267" lon="13.5501683"><ele>19.0</ele><time>2026-05-06T10:11:12.026Z</time></trkpt><trkpt lat="38.0478367" lon="13.5504267"><ele>19.0</ele><time>2026-05-06T10:11:13.026Z</time></trkpt><trkpt lat="38.0476467" lon="13.55067"><ele>19.0</ele><time>2026-05-06T10:11:14.025Z</time></trkpt><trkpt lat="38.047455" lon="13.5509117"><ele>20.0</ele><time>2026-05-06T10:11:15.026Z</time></trkpt><trkpt lat="38.0472717" lon="13.5511433"><ele>21.0</ele><time>2026-05-06T10:11:16.026Z</time></trkpt><trkpt lat="38.047085" lon="13.5513717"><ele>21.0</ele><time>2026-05-06T10:11:17.026Z</time></trkpt><trkpt lat="38.0468967" lon="13.551595"><ele>21.0</ele><time>2026-05-06T10:11:18.026Z</time></trkpt><trkpt lat="38.046715" lon="13.5518183"><ele>22.0</ele><time>2026-05-06T10:11:19.026Z</time></trkpt><trkpt lat="38.046535" lon="13.552035"><ele>23.0</ele><time>2026-05-06T10:11:20.025Z</time></trkpt><trkpt lat="38.0463583" lon="13.552255"><ele>23.0</ele><time>2026-05-06T10:11:21.026Z</time></trkpt><trkpt lat="38.04618" lon="13.55247"><ele>23.0</ele><time>2026-05-06T10:11:22.026Z</time></trkpt><trkpt lat="38.046005" lon="13.55269"><ele>23.5</ele><time>2026-05-06T10:11:23.026Z</time></trkpt><trkpt lat="38.0458283" lon="13.552905"><ele>24.0</ele><time>2026-05-06T10:11:24.025Z</time></trkpt><trkpt lat="38.0456517" lon="13.5531083"><ele>24.0</ele><time>2026-05-06T10:11:25.026Z</time></trkpt><trkpt lat="38.0454767" lon="13.553325"><ele>24.0</ele><time>2026-05-06T10:11:26.026Z</time></trkpt><trkpt lat="38.0452983" lon="13.5535383"><ele>21.0</ele><time>2026-05-06T10:11:27.026Z</time></trkpt><trkpt lat="38.045125" lon="13.5537533"><ele>18.0</ele><time>2026-05-06T10:11:28.026Z</time></trkpt><trkpt lat="38.044945" lon="13.5539617"><ele>24.0</ele><time>2026-05-06T10:11:29.026Z</time></trkpt><trkpt lat="38.0447683" lon="13.5541767"><ele>30.0</ele><time>2026-05-06T10:11:30.025Z</time></trkpt><trkpt lat="38.0445833" lon="13.5543883"><ele>27.5</ele><time>2026-05-06T10:11:31.026Z</time></trkpt><trkpt lat="38.0444017" lon="13.554605"><ele>25.0</ele><time>2026-05-06T10:11:32.026Z</time></trkpt><trkpt lat="38.04422" lon="13.55482"><ele>28.5</ele><time>2026-05-06T10:11:33.026Z</time></trkpt><trkpt lat="38.0440417" lon="13.5550333"><ele>32.0</ele><time>2026-05-06T10:11:34.026Z</time></trkpt><trkpt lat="38.0438617" lon="13.55525"><ele>30.0</ele><time>2026-05-06T10:11:35.026Z</time></trkpt><trkpt lat="38.043685" lon="13.5554683"><ele>28.0</ele><time>2026-05-06T10:11:36.026Z</time></trkpt><trkpt lat="38.0435067" lon="13.5556783"><ele>28.0</ele><time>2026-05-06T10:11:37.026Z</time></trkpt><trkpt lat="38.0433233" lon="13.5559"><ele>28.0</ele><time>2026-05-06T10:11:38.025Z</time></trkpt><trkpt lat="38.04315" lon="13.55612"><ele>30.0</ele><time>2026-05-06T10:11:39.025Z</time></trkpt><trkpt lat="38.0429783" lon="13.55634"><ele>32.0</ele><time>2026-05-06T10:11:40.026Z</time></trkpt><trkpt lat="38.042815" lon="13.55657"><ele>32.0</ele><time>2026-05-06T10:11:41.026Z</time></trkpt><trkpt lat="38.0426583" lon="13.55681"><ele>32.0</ele><time>2026-05-06T10:11:42.026Z</time></trkpt><trkpt lat="38.0425083" lon="13.5570467"><ele>44.0</ele><time>2026-05-06T10:11:43.026Z</time></trkpt><trkpt lat="38.04236" lon="13.5572833"><ele>56.0</ele><time>2026-05-06T10:11:44.026Z</time></trkpt><trkpt lat="38.0422133" lon="13.5575183"><ele>56.0</ele><time>2026-05-06T10:11:45.026Z</time></trkpt><trkpt lat="38.04207" lon="13.5577533"><ele>56.0</ele><time>2026-05-06T10:11:46.026Z</time></trkpt><trkpt lat="38.0419217" lon="13.55799"><ele>55.0</ele><time>2026-05-06T10:11:47.026Z</time></trkpt><trkpt lat="38.0417767" lon="13.55823"><ele>54.0</ele><time>2026-05-06T10:11:48.022Z</time></trkpt><trkpt lat="38.0416317" lon="13.5584733"><ele>46.5</ele><time>2026-05-06T10:11:49.026Z</time></trkpt><trkpt lat="38.0414783" lon="13.5587233"><ele>39.0</ele><time>2026-05-06T10:11:50.026Z</time></trkpt><trkpt lat="38.0413183" lon="13.5589783"><ele>39.0</ele><time>2026-05-06T10:11:51.025Z</time></trkpt><trkpt lat="38.0411567" lon="13.5592467"><ele>39.0</ele><time>2026-05-06T10:11:52.026Z</time></trkpt><trkpt lat="38.04097" lon="13.5595017"><ele>47.0</ele><time>2026-05-06T10:11:53.026Z</time></trkpt><trkpt lat="38.040785" lon="13.5597567"><ele>55.0</ele><time>2026-05-06T10:11:54.025Z</time></trkpt><trkpt lat="38.0406017" lon="13.5600033"><ele>55.0</ele><time>2026-05-06T10:11:55.026Z</time></trkpt><trkpt lat="38.040415" lon="13.5602417"><ele>55.0</ele><time>2026-05-06T10:11:56.026Z</time></trkpt><trkpt lat="38.040225" lon="13.5604767"><ele>52.5</ele><time>2026-05-06T10:11:57.026Z</time></trkpt><trkpt lat="38.0400317" lon="13.5606933"><ele>50.0</ele><time>2026-05-06T10:11:58.026Z</time></trkpt><trkpt lat="38.0398333" lon="13.5609083"><ele>50.5</ele><time>2026-05-06T10:11:59.026Z</time></trkpt><trkpt lat="38.039635" lon="13.561115"><ele>51.0</ele><time>2026-05-06T10:12:00.026Z</time></trkpt><trkpt lat="38.0394333" lon="13.56132"><ele>51.0</ele><time>2026-05-06T10:12:01.026Z</time></trkpt><trkpt lat="38.0392333" lon="13.5615167"><ele>51.0</ele><time>2026-05-06T10:12:02.026Z</time></trkpt><trkpt lat="38.0390317" lon="13.5617133"><ele>43.0</ele><time>2026-05-06T10:12:03.026Z</time></trkpt><trkpt lat="38.03883" lon="13.5619083"><ele>35.0</ele><time>2026-05-06T10:12:04.026Z</time></trkpt><trkpt lat="38.038625" lon="13.5620867"><ele>32.5</ele><time>2026-05-06T10:12:05.026Z</time></trkpt><trkpt lat="38.0384133" lon="13.5622667"><ele>30.0</ele><time>2026-05-06T10:12:06.025Z</time></trkpt><trkpt lat="38.0382033" lon="13.5624433"><ele>30.0</ele><time>2026-05-06T10:12:07.026Z</time></trkpt><trkpt lat="38.037995" lon="13.56261"><ele>30.0</ele><time>2026-05-06T10:12:08.026Z</time></trkpt><trkpt lat="38.0377867" lon="13.5627717"><ele>39.0</ele><time>2026-05-06T10:12:09.026Z</time></trkpt><trkpt lat="38.0375683" lon="13.5629333"><ele>48.0</ele><time>2026-05-06T10:12:10.026Z</time></trkpt><trkpt lat="38.037355" lon="13.5630867"><ele>53.5</ele><time>2026-05-06T10:12:11.026Z</time></trkpt><trkpt lat="38.0371367" lon="13.5632417"><ele>59.0</ele><time>2026-05-06T10:12:12.026Z</time></trkpt><trkpt lat="38.0369217" lon="13.5633967"><ele>59.0</ele><time>2026-05-06T10:12:13.026Z</time></trkpt><trkpt lat="38.0367033" lon="13.56356"><ele>59.0</ele><time>2026-05-06T10:12:14.026Z</time></trkpt><trkpt lat="38.0364867" lon="13.563725"><ele>63.5</ele><time>2026-05-06T10:12:15.025Z</time></trkpt><trkpt lat="38.0362733" lon="13.563905"><ele>68.0</ele><time>2026-05-06T10:12:16.025Z</time></trkpt><trkpt lat="38.03606" lon="13.5640917"><ele>68.0</ele><time>2026-05-06T10:12:17.026Z</time></trkpt><trkpt lat="38.0358467" lon="13.564285"><ele>68.0</ele><time>2026-05-06T10:12:18.026Z</time></trkpt><trkpt lat="38.0356367" lon="13.5644867"><ele>70.0</ele><time>2026-05-06T10:12:19.026Z</time></trkpt><trkpt lat="38.0354333" lon="13.5647067"><ele>72.0</ele><time>2026-05-06T10:12:20.026Z</time></trkpt><trkpt lat="38.03524" lon="13.564935"><ele>72.0</ele><time>2026-05-06T10:12:21.026Z</time></trkpt><trkpt lat="38.035045" lon="13.56517"><ele>72.0</ele><time>2026-05-06T10:12:22.026Z</time></trkpt><trkpt lat="38.0348567" lon="13.565415"><ele>72.5</ele><time>2026-05-06T10:12:23.026Z</time></trkpt><trkpt lat="38.034675" lon="13.5656583"><ele>73.0</ele><time>2026-05-06T10:12:24.026Z</time></trkpt><trkpt lat="38.0344933" lon="13.5659133"><ele>73.0</ele><time>2026-05-06T10:12:25.025Z</time></trkpt><trkpt lat="38.034325" lon="13.5661767"><ele>73.0</ele><time>2026-05-06T10:12:26.026Z</time></trkpt><trkpt lat="38.0341667" lon="13.566445"><ele>74.5</ele><time>2026-05-06T10:12:27.026Z</time></trkpt><trkpt lat="38.034005" lon="13.56672"><ele>76.0</ele><time>2026-05-06T10:12:28.026Z</time></trkpt><trkpt lat="38.03385" lon="13.567"><ele>75.0</ele><time>2026-05-06T10:12:29.026Z</time></trkpt><trkpt lat="38.0337017" lon="13.56728"><ele>74.0</ele><time>2026-05-06T10:12:30.026Z</time></trkpt><trkpt lat="38.03356" lon="13.5675667"><ele>74.0</ele><time>2026-05-06T10:12:31.026Z</time></trkpt><trkpt lat="38.03341" lon="13.567855"><ele>74.0</ele><time>2026-05-06T10:12:32.026Z</time></trkpt><trkpt lat="38.0332683" lon="13.568145"><ele>75.0</ele><time>2026-05-06T10:12:33.026Z</time></trkpt><trkpt lat="38.0331217" lon="13.5684317"><ele>76.0</ele><time>2026-05-06T10:12:34.026Z</time></trkpt><trkpt lat="38.0329767" lon="13.5687217"><ele>76.0</ele><time>2026-05-06T10:12:35.026Z</time></trkpt><trkpt lat="38.0328167" lon="13.569005"><ele>76.0</ele><time>2026-05-06T10:12:36.026Z</time></trkpt><trkpt lat="38.0326683" lon="13.5692933"><ele>75.5</ele><time>2026-05-06T10:12:37.026Z</time></trkpt><trkpt lat="38.032515" lon="13.5695817"><ele>75.0</ele><time>2026-05-06T10:12:38.026Z</time></trkpt><trkpt lat="38.0323633" lon="13.569865"><ele>76.5</ele><time>2026-05-06T10:12:39.026Z</time></trkpt><trkpt lat="38.03221" lon="13.5701533"><ele>78.0</ele><time>2026-05-06T10:12:40.026Z</time></trkpt><trkpt lat="38.03206" lon="13.5704383"><ele>78.0</ele><time>2026-05-06T10:12:41.026Z</time></trkpt><trkpt lat="38.0319083" lon="13.57072"><ele>78.0</ele><time>2026-05-06T10:12:42.026Z</time></trkpt><trkpt lat="38.0317517" lon="13.5710067"><ele>77.5</ele><time>2026-05-06T10:12:43.026Z</time></trkpt><trkpt lat="38.031605" lon="13.5712933"><ele>77.0</ele><time>2026-05-06T10:12:44.026Z</time></trkpt><trkpt lat="38.0314467" lon="13.5715767"><ele>77.0</ele><time>2026-05-06T10:12:45.026Z</time></trkpt><trkpt lat="38.0312967" lon="13.5718633"><ele>77.0</ele><time>2026-05-06T10:12:46.026Z</time></trkpt><trkpt lat="38.0311417" lon="13.57215"><ele>75.0</ele><time>2026-05-06T10:12:47.026Z</time></trkpt><trkpt lat="38.0309817" lon="13.572435"><ele>73.0</ele><time>2026-05-06T10:12:48.026Z</time></trkpt><trkpt lat="38.0308217" lon="13.572715"><ele>75.5</ele><time>2026-05-06T10:12:49.026Z</time></trkpt><trkpt lat="38.0306683" lon="13.573"><ele>78.0</ele><time>2026-05-06T10:12:50.026Z</time></trkpt><trkpt lat="38.0305183" lon="13.5732917"><ele>78.0</ele><time>2026-05-06T10:12:51.026Z</time></trkpt><trkpt lat="38.030365" lon="13.57358"><ele>78.0</ele><time>2026-05-06T10:12:52.026Z</time></trkpt><trkpt lat="38.0302167" lon="13.5738683"><ele>78.5</ele><time>2026-05-06T10:12:53.026Z</time></trkpt><trkpt lat="38.0300683" lon="13.5741617"><ele>79.0</ele><time>2026-05-06T10:12:54.026Z</time></trkpt><trkpt lat="38.029915" lon="13.574445"><ele>81.0</ele><time>2026-05-06T10:12:55.026Z</time></trkpt><trkpt lat="38.02977" lon="13.574735"><ele>83.0</ele><time>2026-05-06T10:12:56.026Z</time></trkpt><trkpt lat="38.029615" lon="13.5750183"><ele>83.0</ele><time>2026-05-06T10:12:57.026Z</time></trkpt><trkpt lat="38.0294717" lon="13.5753117"><ele>83.0</ele><time>2026-05-06T10:12:58.026Z</time></trkpt><trkpt lat="38.029325" lon="13.5756033"><ele>83.5</ele><time>2026-05-06T10:12:59.025Z</time></trkpt><trkpt lat="38.02917" lon="13.5758883"><ele>84.0</ele><time>2026-05-06T10:13:00.025Z</time></trkpt><trkpt lat="38.0290133" lon="13.5761733"><ele>84.0</ele><time>2026-05-06T10:13:01.026Z</time></trkpt><trkpt lat="38.0288617" lon="13.5764633"><ele>84.0</ele><time>2026-05-06T10:13:02.026Z</time></trkpt><trkpt lat="38.0287017" lon="13.5767517"><ele>83.0</ele><time>2026-05-06T10:13:03.026Z</time></trkpt><trkpt lat="38.0285517" lon="13.5770367"><ele>82.0</ele><time>2026-05-06T10:13:04.026Z</time></trkpt><trkpt lat="38.0284033" lon="13.5773183"><ele>84.5</ele><time>2026-05-06T10:13:05.025Z</time></trkpt><trkpt lat="38.0282517" lon="13.5776033"><ele>87.0</ele><time>2026-05-06T10:13:06.026Z</time></trkpt><trkpt lat="38.0280967" lon="13.5778883"><ele>87.0</ele><time>2026-05-06T10:13:07.026Z</time></trkpt><trkpt lat="38.0279417" lon="13.5781717"><ele>87.0</ele><time>2026-05-06T10:13:08.026Z</time></trkpt><trkpt lat="38.0277933" lon="13.57846"><ele>86.5</ele><time>2026-05-06T10:13:09.026Z</time></trkpt><trkpt lat="38.027645" lon="13.5787483"><ele>86.0</ele><time>2026-05-06T10:13:10.026Z</time></trkpt><trkpt lat="38.027495" lon="13.5790333"><ele>89.0</ele><time>2026-05-06T10:13:11.026Z</time></trkpt><trkpt lat="38.02734" lon="13.57932"><ele>92.0</ele><time>2026-05-06T10:13:12.026Z</time></trkpt><trkpt lat="38.02719" lon="13.5796033"><ele>92.0</ele><time>2026-05-06T10:13:13.026Z</time></trkpt><trkpt lat="38.0270367" lon="13.5798867"><ele>92.0</ele><time>2026-05-06T10:13:14.026Z</time></trkpt><trkpt lat="38.0268883" lon="13.5801717"><ele>92.5</ele><time>2026-05-06T10:13:15.026Z</time></trkpt><trkpt lat="38.026745" lon="13.5804533"><ele>93.0</ele><time>2026-05-06T10:13:16.026Z</time></trkpt><trkpt lat="38.0265967" lon="13.58074"><ele>95.0</ele><time>2026-05-06T10:13:17.026Z</time></trkpt><trkpt lat="38.0264467" lon="13.5810217"><ele>97.0</ele><time>2026-05-06T10:13:18.026Z</time></trkpt><trkpt lat="38.0262917" lon="13.5813083"><ele>97.5</ele><time>2026-05-06T10:13:19.026Z</time></trkpt><trkpt lat="38.0261417" lon="13.5815967"><ele>98.0</ele><time>2026-05-06T10:13:20.026Z</time></trkpt><trkpt lat="38.0259917" lon="13.5818817"><ele>98.5</ele><time>2026-05-06T10:13:21.026Z</time></trkpt><trkpt lat="38.02584" lon="13.5821717"><ele>99.0</ele><time>2026-05-06T10:13:22.026Z</time></trkpt><trkpt lat="38.0256933" lon="13.582455"><ele>101.5</ele><time>2026-05-06T10:13:23.026Z</time></trkpt><trkpt lat="38.0255433" lon="13.5827367"><ele>104.0</ele><time>2026-05-06T10:13:24.026Z</time></trkpt><trkpt lat="38.02539" lon="13.58302"><ele>104.0</ele><time>2026-05-06T10:13:25.026Z</time></trkpt><trkpt lat="38.0252367" lon="13.5833033"><ele>104.0</ele><time>2026-05-06T10:13:26.026Z</time></trkpt><trkpt lat="38.0250783" lon="13.58359"><ele>107.0</ele><time>2026-05-06T10:13:27.026Z</time></trkpt><trkpt lat="38.024925" lon="13.5838733"><ele>110.0</ele><time>2026-05-06T10:13:28.026Z</time></trkpt><trkpt lat="38.0247733" lon="13.5841667"><ele>110.0</ele><time>2026-05-06T10:13:29.026Z</time></trkpt><trkpt lat="38.024625" lon="13.5844583"><ele>110.0</ele><time>2026-05-06T10:13:30.025Z</time></trkpt><trkpt lat="38.0244767" lon="13.58475"><ele>109.0</ele><time>2026-05-06T10:13:31.026Z</time></trkpt><trkpt lat="38.0243233" lon="13.585045"><ele>108.0</ele><time>2026-05-06T10:13:32.026Z</time></trkpt><trkpt lat="38.0241767" lon="13.58534"><ele>106.5</ele><time>2026-05-06T10:13:33.026Z</time></trkpt><trkpt lat="38.0240217" lon="13.5856317"><ele>105.0</ele><time>2026-05-06T10:13:34.026Z</time></trkpt><trkpt lat="38.023865" lon="13.5859267"><ele>103.0</ele><time>2026-05-06T10:13:35.026Z</time></trkpt><trkpt lat="38.0237067" lon="13.586225"><ele>101.0</ele><time>2026-05-06T10:13:36.026Z</time></trkpt><trkpt lat="38.023555" lon="13.5865233"><ele>101.0</ele><time>2026-05-06T10:13:37.026Z</time></trkpt><trkpt lat="38.023395" lon="13.5868133"><ele>101.0</ele><time>2026-05-06T10:13:38.025Z</time></trkpt><trkpt lat="38.0232383" lon="13.5871083"><ele>99.5</ele><time>2026-05-06T10:13:39.026Z</time></trkpt><trkpt lat="38.023085" lon="13.5874083"><ele>98.0</ele><time>2026-05-06T10:13:40.026Z</time></trkpt><trkpt lat="38.02293" lon="13.587705"><ele>96.5</ele><time>2026-05-06T10:13:41.026Z</time></trkpt><trkpt lat="38.02278" lon="13.588"><ele>95.0</ele><time>2026-05-06T10:13:42.026Z</time></trkpt><trkpt lat="38.02263" lon="13.588295"><ele>95.0</ele><time>2026-05-06T10:13:43.026Z</time></trkpt><trkpt lat="38.0224783" lon="13.5885783"><ele>95.0</ele><time>2026-05-06T10:13:44.026Z</time></trkpt><trkpt lat="38.0223267" lon="13.58886"><ele>93.5</ele><time>2026-05-06T10:13:45.026Z</time></trkpt><trkpt lat="38.022175" lon="13.589145"><ele>92.0</ele><time>2026-05-06T10:13:46.026Z</time></trkpt><trkpt lat="38.02203" lon="13.58943"><ele>95.0</ele><time>2026-05-06T10:13:47.026Z</time></trkpt><trkpt lat="38.0218883" lon="13.5897217"><ele>98.0</ele><time>2026-05-06T10:13:48.026Z</time></trkpt><trkpt lat="38.0217533" lon="13.590015"><ele>102.5</ele><time>2026-05-06T10:13:49.026Z</time></trkpt><trkpt lat="38.0216267" lon="13.59031"><ele>107.0</ele><time>2026-05-06T10:13:50.026Z</time></trkpt><trkpt lat="38.02151" lon="13.590615"><ele>109.5</ele><time>2026-05-06T10:13:51.026Z</time></trkpt><trkpt lat="38.0213983" lon="13.5909283"><ele>112.0</ele><time>2026-05-06T10:13:52.026Z</time></trkpt><trkpt lat="38.02129" lon="13.59124"><ele>112.0</ele><time>2026-05-06T10:13:53.026Z</time></trkpt><trkpt lat="38.0211967" lon="13.5915583"><ele>112.0</ele><time>2026-05-06T10:13:54.026Z</time></trkpt><trkpt lat="38.02111" lon="13.5918767"><ele>113.0</ele><time>2026-05-06T10:13:55.026Z</time></trkpt><trkpt lat="38.02103" lon="13.592205"><ele>114.0</ele><time>2026-05-06T10:13:56.026Z</time></trkpt><trkpt lat="38.0209533" lon="13.5925267"><ele>114.5</ele><time>2026-05-06T10:13:57.026Z</time></trkpt><trkpt lat="38.020885" lon="13.592855"><ele>115.0</ele><time>2026-05-06T10:13:58.026Z</time></trkpt><trkpt lat="38.0208283" lon="13.59319"><ele>117.0</ele><time>2026-05-06T10:13:59.026Z</time></trkpt><trkpt lat="38.0207817" lon="13.5935217"><ele>119.0</ele><time>2026-05-06T10:14:00.026Z</time></trkpt><trkpt lat="38.020735" lon="13.5938633"><ele>119.0</ele><time>2026-05-06T10:14:01.026Z</time></trkpt><trkpt lat="38.02069" lon="13.5942"><ele>119.0</ele><time>2026-05-06T10:14:02.026Z</time></trkpt><trkpt lat="38.0206483" lon="13.5945367"><ele>115.5</ele><time>2026-05-06T10:14:03.026Z</time></trkpt><trkpt lat="38.0206117" lon="13.59487"><ele>112.0</ele><time>2026-05-06T10:14:04.026Z</time></trkpt><trkpt lat="38.0205767" lon="13.5952117"><ele>104.0</ele><time>2026-05-06T10:14:05.026Z</time></trkpt><trkpt lat="38.02055" lon="13.5955483"><ele>96.0</ele><time>2026-05-06T10:14:06.025Z</time></trkpt><trkpt lat="38.0205167" lon="13.5958917"><ele>98.5</ele><time>2026-05-06T10:14:07.026Z</time></trkpt><trkpt lat="38.020485" lon="13.596235"><ele>101.0</ele><time>2026-05-06T10:14:08.026Z</time></trkpt><trkpt lat="38.0204567" lon="13.5965833"><ele>101.0</ele><time>2026-05-06T10:14:09.026Z</time></trkpt><trkpt lat="38.0204283" lon="13.5969233"><ele>101.0</ele><time>2026-05-06T10:14:10.026Z</time></trkpt><trkpt lat="38.0203917" lon="13.59727"><ele>103.5</ele><time>2026-05-06T10:14:11.026Z</time></trkpt><trkpt lat="38.0203467" lon="13.5976033"><ele>106.0</ele><time>2026-05-06T10:14:12.026Z</time></trkpt><trkpt lat="38.0202917" lon="13.597935"><ele>106.0</ele><time>2026-05-06T10:14:13.026Z</time></trkpt><trkpt lat="38.02023" lon="13.5982667"><ele>106.0</ele><time>2026-05-06T10:14:14.026Z</time></trkpt><trkpt lat="38.020165" lon="13.5986033"><ele>105.0</ele><time>2026-05-06T10:14:15.026Z</time></trkpt><trkpt lat="38.0200933" lon="13.5989317"><ele>104.0</ele><time>2026-05-06T10:14:16.025Z</time></trkpt><trkpt lat="38.0200183" lon="13.5992583"><ele>108.0</ele><time>2026-05-06T10:14:17.026Z</time></trkpt><trkpt lat="38.0199333" lon="13.59958"><ele>112.0</ele><time>2026-05-06T10:14:18.026Z</time></trkpt><trkpt lat="38.0198417" lon="13.5998967"><ele>112.0</ele><time>2026-05-06T10:14:19.026Z</time></trkpt><trkpt lat="38.0197383" lon="13.6002083"><ele>112.0</ele><time>2026-05-06T10:14:20.026Z</time></trkpt><trkpt lat="38.01963" lon="13.6005167"><ele>109.5</ele><time>2026-05-06T10:14:21.026Z</time></trkpt><trkpt lat="38.0195117" lon="13.6008167"><ele>107.0</ele><time>2026-05-06T10:14:22.026Z</time></trkpt><trkpt lat="38.0193883" lon="13.6011133"><ele>102.5</ele><time>2026-05-06T10:14:23.026Z</time></trkpt><trkpt lat="38.0192583" lon="13.6014083"><ele>98.0</ele><time>2026-05-06T10:14:24.026Z</time></trkpt><trkpt lat="38.0191167" lon="13.6017017"><ele>97.5</ele><time>2026-05-06T10:14:25.025Z</time></trkpt><trkpt lat="38.01897" lon="13.60199"><ele>97.0</ele><time>2026-05-06T10:14:26.026Z</time></trkpt><trkpt lat="38.0188117" lon="13.6022633"><ele>93.5</ele><time>2026-05-06T10:14:27.026Z</time></trkpt><trkpt lat="38.0186467" lon="13.602545"><ele>90.0</ele><time>2026-05-06T10:14:28.026Z</time></trkpt><trkpt lat="38.018475" lon="13.6028167"><ele>89.5</ele><time>2026-05-06T10:14:29.026Z</time></trkpt><trkpt lat="38.0183017" lon="13.60308"><ele>89.0</ele><time>2026-05-06T10:14:30.026Z</time></trkpt><trkpt lat="38.0181183" lon="13.6033317"><ele>89.0</ele><time>2026-05-06T10:14:31.026Z</time></trkpt><trkpt lat="38.0179383" lon="13.60358"><ele>89.0</ele><time>2026-05-06T10:14:32.025Z</time></trkpt><trkpt lat="38.0177583" lon="13.6038333"><ele>87.0</ele><time>2026-05-06T10:14:33.026Z</time></trkpt><trkpt lat="38.0175667" lon="13.60408"><ele>85.0</ele><time>2026-05-06T10:14:34.026Z</time></trkpt><trkpt lat="38.0173733" lon="13.6043333"><ele>82.0</ele><time>2026-05-06T10:14:35.026Z</time></trkpt><trkpt lat="38.0171783" lon="13.6045933"><ele>79.0</ele><time>2026-05-06T10:14:36.026Z</time></trkpt><trkpt lat="38.0169817" lon="13.6048533"><ele>79.0</ele><time>2026-05-06T10:14:37.026Z</time></trkpt><trkpt lat="38.016775" lon="13.6051183"><ele>79.0</ele><time>2026-05-06T10:14:38.026Z</time></trkpt><trkpt lat="38.0165533" lon="13.6053867"><ele>80.5</ele><time>2026-05-06T10:14:39.026Z</time></trkpt><trkpt lat="38.01634" lon="13.6056767"><ele>82.0</ele><time>2026-05-06T10:14:40.026Z</time></trkpt><trkpt lat="38.016125" lon="13.6059667"><ele>81.0</ele><time>2026-05-06T10:14:41.026Z</time></trkpt><trkpt lat="38.015915" lon="13.6062483"><ele>80.0</ele><time>2026-05-06T10:14:42.026Z</time></trkpt><trkpt lat="38.015705" lon="13.6065217"><ele>80.0</ele><time>2026-05-06T10:14:43.026Z</time></trkpt><trkpt lat="38.0154983" lon="13.60679"><ele>80.0</ele><time>2026-05-06T10:14:44.026Z</time></trkpt><trkpt lat="38.01529" lon="13.60706"><ele>78.5</ele><time>2026-05-06T10:14:45.026Z</time></trkpt><trkpt lat="38.01509" lon="13.607325"><ele>77.0</ele><time>2026-05-06T10:14:46.026Z</time></trkpt><trkpt lat="38.014895" lon="13.6075917"><ele>75.5</ele><time>2026-05-06T10:14:47.026Z</time></trkpt><trkpt lat="38.0146917" lon="13.6078633"><ele>74.0</ele><time>2026-05-06T10:14:48.026Z</time></trkpt><trkpt lat="38.0144967" lon="13.608135"><ele>74.0</ele><time>2026-05-06T10:14:49.026Z</time></trkpt><trkpt lat="38.0143017" lon="13.6084067"><ele>74.0</ele><time>2026-05-06T10:14:50.026Z</time></trkpt><trkpt lat="38.0141133" lon="13.608685"><ele>69.0</ele><time>2026-05-06T10:14:51.026Z</time></trkpt><trkpt lat="38.013925" lon="13.608965"><ele>64.0</ele><time>2026-05-06T10:14:52.026Z</time></trkpt><trkpt lat="38.013745" lon="13.6092517"><ele>62.5</ele><time>2026-05-06T10:14:53.026Z</time></trkpt><trkpt lat="38.01357" lon="13.6095283"><ele>61.0</ele><time>2026-05-06T10:14:54.026Z</time></trkpt><trkpt lat="38.0133967" lon="13.6098083"><ele>63.5</ele><time>2026-05-06T10:14:55.026Z</time></trkpt><trkpt lat="38.0132217" lon="13.6100833"><ele>66.0</ele><time>2026-05-06T10:14:56.026Z</time></trkpt><trkpt lat="38.0130467" lon="13.6103617"><ele>66.0</ele><time>2026-05-06T10:14:57.026Z</time></trkpt><trkpt lat="38.0128683" lon="13.6106417"><ele>66.0</ele><time>2026-05-06T10:14:58.026Z</time></trkpt><trkpt lat="38.0126933" lon="13.6109233"><ele>67.0</ele><time>2026-05-06T10:14:59.026Z</time></trkpt><trkpt lat="38.0125083" lon="13.611205"><ele>68.0</ele><time>2026-05-06T10:15:00.026Z</time></trkpt><trkpt lat="38.0123333" lon="13.6114933"><ele>68.0</ele><time>2026-05-06T10:15:01.026Z</time></trkpt><trkpt lat="38.01215" lon="13.6117783"><ele>68.0</ele><time>2026-05-06T10:15:02.026Z</time></trkpt><trkpt lat="38.01197" lon="13.6120667"><ele>64.5</ele><time>2026-05-06T10:15:03.026Z</time></trkpt><trkpt lat="38.0117917" lon="13.6123567"><ele>61.0</ele><time>2026-05-06T10:15:04.026Z</time></trkpt><trkpt lat="38.0116067" lon="13.612645"><ele>56.0</ele><time>2026-05-06T10:15:05.026Z</time></trkpt><trkpt lat="38.0114167" lon="13.6129317"><ele>51.0</ele><time>2026-05-06T10:15:06.026Z</time></trkpt><trkpt lat="38.0112383" lon="13.6132067"><ele>51.0</ele><time>2026-05-06T10:15:07.026Z</time></trkpt><trkpt lat="38.0110567" lon="13.6134867"><ele>51.0</ele><time>2026-05-06T10:15:08.026Z</time></trkpt><trkpt lat="38.0108783" lon="13.6137667"><ele>53.0</ele><time>2026-05-06T10:15:09.026Z</time></trkpt><trkpt lat="38.0106983" lon="13.614045"><ele>55.0</ele><time>2026-05-06T10:15:10.026Z</time></trkpt><trkpt lat="38.0105183" lon="13.6143283"><ele>53.0</ele><time>2026-05-06T10:15:11.026Z</time></trkpt><trkpt lat="38.010335" lon="13.6146083"><ele>51.0</ele><time>2026-05-06T10:15:12.026Z</time></trkpt><trkpt lat="38.0101533" lon="13.61489"><ele>50.5</ele><time>2026-05-06T10:15:13.026Z</time></trkpt><trkpt lat="38.00998" lon="13.615175"><ele>50.0</ele><time>2026-05-06T10:15:14.026Z</time></trkpt><trkpt lat="38.009805" lon="13.6154533"><ele>50.0</ele><time>2026-05-06T10:15:15.026Z</time></trkpt><trkpt lat="38.009625" lon="13.6157367"><ele>50.0</ele><time>2026-05-06T10:15:16.026Z</time></trkpt><trkpt lat="38.0094433" lon="13.616025"><ele>45.5</ele><time>2026-05-06T10:15:17.026Z</time></trkpt><trkpt lat="38.009265" lon="13.6163033"><ele>41.0</ele><time>2026-05-06T10:15:18.026Z</time></trkpt><trkpt lat="38.0090883" lon="13.6165867"><ele>38.5</ele><time>2026-05-06T10:15:19.026Z</time></trkpt><trkpt lat="38.008905" lon="13.6168733"><ele>36.0</ele><time>2026-05-06T10:15:20.026Z</time></trkpt><trkpt lat="38.0087267" lon="13.617155"><ele>34.5</ele><time>2026-05-06T10:15:21.025Z</time></trkpt><trkpt lat="38.0085517" lon="13.6174417"><ele>33.0</ele><time>2026-05-06T10:15:22.026Z</time></trkpt><trkpt lat="38.0083783" lon="13.6177183"><ele>33.0</ele><time>2026-05-06T10:15:23.026Z</time></trkpt><trkpt lat="38.0082" lon="13.6180067"><ele>33.0</ele><time>2026-05-06T10:15:24.026Z</time></trkpt><trkpt lat="38.0080267" lon="13.6182883"><ele>33.0</ele><time>2026-05-06T10:15:25.026Z</time></trkpt><trkpt lat="38.0078467" lon="13.6185717"><ele>33.0</ele><time>2026-05-06T10:15:26.026Z</time></trkpt><trkpt lat="38.0076633" lon="13.6188517"><ele>33.0</ele><time>2026-05-06T10:15:27.026Z</time></trkpt><trkpt lat="38.0074883" lon="13.6191333"><ele>33.0</ele><time>2026-05-06T10:15:28.026Z</time></trkpt><trkpt lat="38.0073033" lon="13.6194117"><ele>33.0</ele><time>2026-05-06T10:15:29.026Z</time></trkpt><trkpt lat="38.007125" lon="13.6196933"><ele>33.0</ele><time>2026-05-06T10:15:30.025Z</time></trkpt><trkpt lat="38.0069467" lon="13.6199733"><ele>33.0</ele><time>2026-05-06T10:15:31.026Z</time></trkpt><trkpt lat="38.006765" lon="13.6202517"><ele>33.0</ele><time>2026-05-06T10:15:32.026Z</time></trkpt><trkpt lat="38.006585" lon="13.620535"><ele>34.5</ele><time>2026-05-06T10:15:33.026Z</time></trkpt><trkpt lat="38.006405" lon="13.6208083"><ele>36.0</ele><time>2026-05-06T10:15:34.026Z</time></trkpt><trkpt lat="38.00623" lon="13.6210933"><ele>33.5</ele><time>2026-05-06T10:15:35.026Z</time></trkpt><trkpt lat="38.00606" lon="13.62138"><ele>31.0</ele><time>2026-05-06T10:15:36.026Z</time></trkpt><trkpt lat="38.0058883" lon="13.62167"><ele>31.0</ele><time>2026-05-06T10:15:37.026Z</time></trkpt><trkpt lat="38.0057283" lon="13.6219683"><ele>31.0</ele><time>2026-05-06T10:15:38.026Z</time></trkpt><trkpt lat="38.005575" lon="13.622265"><ele>31.0</ele><time>2026-05-06T10:15:39.026Z</time></trkpt><trkpt lat="38.0054267" lon="13.6225783"><ele>31.0</ele><time>2026-05-06T10:15:40.026Z</time></trkpt><trkpt lat="38.0052867" lon="13.622895"><ele>28.5</ele><time>2026-05-06T10:15:41.026Z</time></trkpt><trkpt lat="38.0051583" lon="13.6232183"><ele>26.0</ele><time>2026-05-06T10:15:42.026Z</time></trkpt><trkpt lat="38.005035" lon="13.6235383"><ele>27.5</ele><time>2026-05-06T10:15:43.026Z</time></trkpt><trkpt lat="38.004915" lon="13.6238667"><ele>29.0</ele><time>2026-05-06T10:15:44.026Z</time></trkpt><trkpt lat="38.004795" lon="13.6241933"><ele>32.0</ele><time>2026-05-06T10:15:45.026Z</time></trkpt><trkpt lat="38.00468" lon="13.6245267"><ele>35.0</ele><time>2026-05-06T10:15:46.026Z</time></trkpt><trkpt lat="38.00457" lon="13.6248567"><ele>35.0</ele><time>2026-05-06T10:15:47.026Z</time></trkpt><trkpt lat="38.0044617" lon="13.6251883"><ele>35.0</ele><time>2026-05-06T10:15:48.026Z</time></trkpt><trkpt lat="38.0043517" lon="13.6255217"><ele>34.5</ele><time>2026-05-06T10:15:49.026Z</time></trkpt><trkpt lat="38.0042417" lon="13.62585"><ele>34.0</ele><time>2026-05-06T10:15:50.026Z</time></trkpt><trkpt lat="38.0041283" lon="13.6261833"><ele>37.5</ele><time>2026-05-06T10:15:51.026Z</time></trkpt><trkpt lat="38.0040183" lon="13.62651"><ele>41.0</ele><time>2026-05-06T10:15:52.026Z</time></trkpt><trkpt lat="38.0039133" lon="13.626855"><ele>38.5</ele><time>2026-05-06T10:15:53.026Z</time></trkpt><trkpt lat="38.0038017" lon="13.6271883"><ele>36.0</ele><time>2026-05-06T10:15:54.026Z</time></trkpt><trkpt lat="38.0036883" lon="13.6275233"><ele>36.0</ele><time>2026-05-06T10:15:55.026Z</time></trkpt><trkpt lat="38.0035783" lon="13.6278583"><ele>36.0</ele><time>2026-05-06T10:15:56.026Z</time></trkpt><trkpt lat="38.003475" lon="13.628195"><ele>36.0</ele><time>2026-05-06T10:15:57.026Z</time></trkpt><trkpt lat="38.0033683" lon="13.6285317"><ele>36.0</ele><time>2026-05-06T10:15:58.026Z</time></trkpt><trkpt lat="38.0032617" lon="13.6288683"><ele>43.0</ele><time>2026-05-06T10:15:59.026Z</time></trkpt><trkpt lat="38.003145" lon="13.6291983"><ele>50.0</ele><time>2026-05-06T10:16:00.026Z</time></trkpt><trkpt lat="38.003035" lon="13.6295283"><ele>50.0</ele><time>2026-05-06T10:16:01.026Z</time></trkpt><trkpt lat="38.0029267" lon="13.6298633"><ele>50.0</ele><time>2026-05-06T10:16:02.026Z</time></trkpt><trkpt lat="38.0028217" lon="13.6301983"><ele>48.0</ele><time>2026-05-06T10:16:03.026Z</time></trkpt><trkpt lat="38.002715" lon="13.6305283"><ele>46.0</ele><time>2026-05-06T10:16:04.026Z</time></trkpt><trkpt lat="38.0026017" lon="13.6308633"><ele>46.5</ele><time>2026-05-06T10:16:05.026Z</time></trkpt><trkpt lat="38.00249" lon="13.6311983"><ele>47.0</ele><time>2026-05-06T10:16:06.026Z</time></trkpt><trkpt lat="38.0023767" lon="13.63153"><ele>47.0</ele><time>2026-05-06T10:16:07.026Z</time></trkpt><trkpt lat="38.0022717" lon="13.6318567"><ele>47.0</ele><time>2026-05-06T10:16:08.026Z</time></trkpt><trkpt lat="38.0021683" lon="13.6321933"><ele>41.5</ele><time>2026-05-06T10:16:09.026Z</time></trkpt><trkpt lat="38.0020567" lon="13.6325317"><ele>36.0</ele><time>2026-05-06T10:16:10.026Z</time></trkpt><trkpt lat="38.0019433" lon="13.632865"><ele>34.5</ele><time>2026-05-06T10:16:11.026Z</time></trkpt><trkpt lat="38.0018167" lon="13.63319"><ele>33.0</ele><time>2026-05-06T10:16:12.026Z</time></trkpt><trkpt lat="38.00169" lon="13.6335083"><ele>36.0</ele><time>2026-05-06T10:16:13.026Z</time></trkpt><trkpt lat="38.0015467" lon="13.6338217"><ele>39.0</ele><time>2026-05-06T10:16:14.026Z</time></trkpt><trkpt lat="38.0014" lon="13.6341267"><ele>39.0</ele><time>2026-05-06T10:16:15.026Z</time></trkpt><trkpt lat="38.0012467" lon="13.6344317"><ele>39.0</ele><time>2026-05-06T10:16:16.026Z</time></trkpt><trkpt lat="38.0010883" lon="13.63473"><ele>41.5</ele><time>2026-05-06T10:16:17.026Z</time></trkpt><trkpt lat="38.0009233" lon="13.6350267"><ele>44.0</ele><time>2026-05-06T10:16:18.026Z</time></trkpt><trkpt lat="38.0007433" lon="13.6353117"><ele>46.0</ele><time>2026-05-06T10:16:19.026Z</time></trkpt><trkpt lat="38.00058" lon="13.6356067"><ele>48.0</ele><time>2026-05-06T10:16:20.026Z</time></trkpt><trkpt lat="38.0004167" lon="13.635895"><ele>47.5</ele><time>2026-05-06T10:16:21.026Z</time></trkpt><trkpt lat="38.0002633" lon="13.6361917"><ele>47.0</ele><time>2026-05-06T10:16:22.026Z</time></trkpt><trkpt lat="38.0001133" lon="13.6364883"><ele>47.0</ele><time>2026-05-06T10:16:23.026Z</time></trkpt><trkpt lat="37.9999783" lon="13.6367917"><ele>47.0</ele><time>2026-05-06T10:16:24.026Z</time></trkpt><trkpt lat="37.9998483" lon="13.6371017"><ele>46.5</ele><time>2026-05-06T10:16:25.026Z</time></trkpt><trkpt lat="37.999725" lon="13.6374117"><ele>46.0</ele><time>2026-05-06T10:16:26.026Z</time></trkpt><trkpt lat="37.999615" lon="13.6377383"><ele>44.5</ele><time>2026-05-06T10:16:27.026Z</time></trkpt><trkpt lat="37.9995133" lon="13.6380683"><ele>43.0</ele><time>2026-05-06T10:16:28.026Z</time></trkpt><trkpt lat="37.9994133" lon="13.6383967"><ele>42.0</ele><time>2026-05-06T10:16:29.026Z</time></trkpt><trkpt lat="37.99932" lon="13.638725"><ele>41.0</ele><time>2026-05-06T10:16:30.026Z</time></trkpt><trkpt lat="37.9992367" lon="13.6390567"><ele>52.5</ele><time>2026-05-06T10:16:31.026Z</time></trkpt><trkpt lat="37.99916" lon="13.6393883"><ele>64.0</ele><time>2026-05-06T10:16:32.026Z</time></trkpt><trkpt lat="37.9991083" lon="13.6397317"><ele>64.0</ele><time>2026-05-06T10:16:33.026Z</time></trkpt><trkpt lat="37.9990567" lon="13.640075"><ele>64.0</ele><time>2026-05-06T10:16:34.026Z</time></trkpt><trkpt lat="37.999015" lon="13.64042"><ele>64.0</ele><time>2026-05-06T10:16:35.026Z</time></trkpt><trkpt lat="37.9989733" lon="13.6407667"><ele>64.0</ele><time>2026-05-06T10:16:36.026Z</time></trkpt><trkpt lat="37.9989233" lon="13.6411133"><ele>60.5</ele><time>2026-05-06T10:16:37.025Z</time></trkpt><trkpt lat="37.9988717" lon="13.64146"><ele>57.0</ele><time>2026-05-06T10:16:38.026Z</time></trkpt><trkpt lat="37.9988117" lon="13.641805"><ele>55.5</ele><time>2026-05-06T10:16:39.026Z</time></trkpt><trkpt lat="37.9987367" lon="13.6421433"><ele>54.0</ele><time>2026-05-06T10:16:40.025Z</time></trkpt><trkpt lat="37.998655" lon="13.6424733"><ele>51.5</ele><time>2026-05-06T10:16:41.026Z</time></trkpt><trkpt lat="37.9985633" lon="13.642805"><ele>49.0</ele><time>2026-05-06T10:16:42.025Z</time></trkpt><trkpt lat="37.9984633" lon="13.6431317"><ele>49.0</ele><time>2026-05-06T10:16:43.026Z</time></trkpt><trkpt lat="37.998355" lon="13.6434533"><ele>49.0</ele><time>2026-05-06T10:16:44.026Z</time></trkpt><trkpt lat="37.998235" lon="13.643765"><ele>62.5</ele><time>2026-05-06T10:16:45.026Z</time></trkpt><trkpt lat="37.998105" lon="13.6440733"><ele>76.0</ele><time>2026-05-06T10:16:46.026Z</time></trkpt><trkpt lat="37.9979717" lon="13.6443767"><ele>72.0</ele><time>2026-05-06T10:16:47.026Z</time></trkpt><trkpt lat="37.9978283" lon="13.6446783"><ele>68.0</ele><time>2026-05-06T10:16:48.026Z</time></trkpt><trkpt lat="37.99767" lon="13.6449667"><ele>68.0</ele><time>2026-05-06T10:16:49.026Z</time></trkpt><trkpt lat="37.9975117" lon="13.6452567"><ele>68.0</ele><time>2026-05-06T10:16:50.026Z</time></trkpt><trkpt lat="37.9973483" lon="13.6455467"><ele>84.0</ele><time>2026-05-06T10:16:51.026Z</time></trkpt><trkpt lat="37.9971833" lon="13.6458333"><ele>100.0</ele><time>2026-05-06T10:16:52.026Z</time></trkpt><trkpt lat="37.9970183" lon="13.6461133"><ele>97.0</ele><time>2026-05-06T10:16:53.026Z</time></trkpt><trkpt lat="37.9968483" lon="13.646385"><ele>94.0</ele><time>2026-05-06T10:16:54.025Z</time></trkpt><trkpt lat="37.9952767" lon="13.6484317"><ele>94.0</ele><time>2026-05-06T10:17:02.037Z</time></trkpt><trkpt lat="37.99509" lon="13.64869"><ele>94.0</ele><time>2026-05-06T10:17:03.037Z</time></trkpt><trkpt lat="37.9949017" lon="13.6489467"><ele>94.0</ele><time>2026-05-06T10:17:04.037Z</time></trkpt><trkpt lat="37.9947117" lon="13.649195"><ele>94.0</ele><time>2026-05-06T10:17:05.037Z</time></trkpt><trkpt lat="37.9945183" lon="13.6494467"><ele>88.5</ele><time>2026-05-06T10:17:06.037Z</time></trkpt><trkpt lat="37.9943333" lon="13.649705"><ele>83.0</ele><time>2026-05-06T10:17:07.037Z</time></trkpt><trkpt lat="37.994145" lon="13.6499683"><ele>95.5</ele><time>2026-05-06T10:17:08.037Z</time></trkpt><trkpt lat="37.9939583" lon="13.650235"><ele>108.0</ele><time>2026-05-06T10:17:09.037Z</time></trkpt><trkpt lat="37.9937783" lon="13.650495"><ele>109.0</ele><time>2026-05-06T10:17:10.037Z</time></trkpt><trkpt lat="37.9935917" lon="13.6507517"><ele>110.0</ele><time>2026-05-06T10:17:11.037Z</time></trkpt><trkpt lat="37.9934033" lon="13.6510067"><ele>123.0</ele><time>2026-05-06T10:17:12.037Z</time></trkpt><trkpt lat="37.9932167" lon="13.6512683"><ele>136.0</ele><time>2026-05-06T10:17:13.037Z</time></trkpt><trkpt lat="37.99303" lon="13.651525"><ele>113.0</ele><time>2026-05-06T10:17:14.037Z</time></trkpt><trkpt lat="37.991615" lon="13.653245"><ele>113.0</ele><time>2026-05-06T10:17:21.038Z</time></trkpt><trkpt lat="37.9913983" lon="13.6534683"><ele>113.0</ele><time>2026-05-06T10:17:22.038Z</time></trkpt><trkpt lat="37.9911717" lon="13.6536783"><ele>110.0</ele><time>2026-05-06T10:17:23.038Z</time></trkpt><trkpt lat="37.989675" lon="13.654725"><ele>110.0</ele><time>2026-05-06T10:17:30.038Z</time></trkpt><trkpt lat="37.9894933" lon="13.6547667"><ele>110.0</ele><time>2026-05-06T10:17:31.038Z</time></trkpt><trkpt lat="37.98931" lon="13.6548417"><ele>110.0</ele><time>2026-05-06T10:17:32.038Z</time></trkpt><trkpt lat="37.98914" lon="13.654915"><ele>113.33333333333333</ele><time>2026-05-06T10:17:33.038Z</time></trkpt><trkpt lat="37.988955" lon="13.6549917"><ele>116.66666666666666</ele><time>2026-05-06T10:17:34.038Z</time></trkpt><trkpt lat="37.9887683" lon="13.6550767"><ele>120.0</ele><time>2026-05-06T10:17:35.038Z</time></trkpt><trkpt lat="37.9885717" lon="13.6551667"><ele>120.0</ele><time>2026-05-06T10:17:36.038Z</time></trkpt><trkpt lat="37.988375" lon="13.655255"><ele>120.0</ele><time>2026-05-06T10:17:37.038Z</time></trkpt><trkpt lat="37.988175" lon="13.6553483"><ele>120.0</ele><time>2026-05-06T10:17:38.038Z</time></trkpt><trkpt lat="37.9879733" lon="13.6554417"><ele>121.0</ele><time>2026-05-06T10:17:39.038Z</time></trkpt><trkpt lat="37.9877617" lon="13.655545"><ele>122.0</ele><time>2026-05-06T10:17:40.038Z</time></trkpt><trkpt lat="37.9875583" lon="13.6556567"><ele>123.0</ele><time>2026-05-06T10:17:41.038Z</time></trkpt><trkpt lat="37.9873483" lon="13.6557817"><ele>123.0</ele><time>2026-05-06T10:17:42.038Z</time></trkpt><trkpt lat="37.9871483" lon="13.6559183"><ele>123.0</ele><time>2026-05-06T10:17:43.038Z</time></trkpt><trkpt lat="37.986945" lon="13.6560617"><ele>119.0</ele><time>2026-05-06T10:17:44.038Z</time></trkpt><trkpt lat="37.9867483" lon="13.6562083"><ele>115.0</ele><time>2026-05-06T10:17:45.038Z</time></trkpt><trkpt lat="37.9865483" lon="13.65636"><ele>115.0</ele><time>2026-05-06T10:17:46.038Z</time></trkpt><trkpt lat="37.9863517" lon="13.6565267"><ele>115.0</ele><time>2026-05-06T10:17:47.038Z</time></trkpt><trkpt lat="37.9861567" lon="13.656695"><ele>115.0</ele><time>2026-05-06T10:17:48.037Z</time></trkpt><trkpt lat="37.9859633" lon="13.6568667"><ele>115.0</ele><time>2026-05-06T10:17:49.037Z</time></trkpt><trkpt lat="37.98578" lon="13.6570483"><ele>117.5</ele><time>2026-05-06T10:17:50.038Z</time></trkpt><trkpt lat="37.9855967" lon="13.657235"><ele>120.0</ele><time>2026-05-06T10:17:51.038Z</time></trkpt><trkpt lat="37.9854133" lon="13.6574317"><ele>120.0</ele><time>2026-05-06T10:17:52.038Z</time></trkpt><trkpt lat="37.9852367" lon="13.6576383"><ele>120.0</ele><time>2026-05-06T10:17:53.038Z</time></trkpt><trkpt lat="37.9850583" lon="13.6578583"><ele>125.0</ele><time>2026-05-06T10:17:54.037Z</time></trkpt><trkpt lat="37.98489" lon="13.6580883"><ele>130.0</ele><time>2026-05-06T10:17:55.038Z</time></trkpt><trkpt lat="37.98472" lon="13.6583317"><ele>130.0</ele><time>2026-05-06T10:17:56.038Z</time></trkpt><trkpt lat="37.9845483" lon="13.6585833"><ele>130.0</ele><time>2026-05-06T10:17:57.038Z</time></trkpt><trkpt lat="37.9843733" lon="13.6588467"><ele>128.5</ele><time>2026-05-06T10:17:58.038Z</time></trkpt><trkpt lat="37.9842067" lon="13.6591117"><ele>127.0</ele><time>2026-05-06T10:17:59.038Z</time></trkpt><trkpt lat="37.9840433" lon="13.6593917"><ele>130.0</ele><time>2026-05-06T10:18:00.038Z</time></trkpt><trkpt lat="37.9838867" lon="13.6596833"><ele>133.0</ele><time>2026-05-06T10:18:01.037Z</time></trkpt><trkpt lat="37.9837367" lon="13.6599817"><ele>133.0</ele><time>2026-05-06T10:18:02.038Z</time></trkpt><trkpt lat="37.9835883" lon="13.6602817"><ele>133.0</ele><time>2026-05-06T10:18:03.038Z</time></trkpt><trkpt lat="37.9834433" lon="13.66059"><ele>135.5</ele><time>2026-05-06T10:18:04.038Z</time></trkpt><trkpt lat="37.9833033" lon="13.6609"><ele>138.0</ele><time>2026-05-06T10:18:05.038Z</time></trkpt><trkpt lat="37.983165" lon="13.6612117"><ele>138.0</ele><time>2026-05-06T10:18:06.038Z</time></trkpt><trkpt lat="37.983045" lon="13.6615217"><ele>138.0</ele><time>2026-05-06T10:18:07.038Z</time></trkpt><trkpt lat="37.9829433" lon="13.6618433"><ele>134.5</ele><time>2026-05-06T10:18:08.038Z</time></trkpt><trkpt lat="37.9828483" lon="13.6621917"><ele>131.0</ele><time>2026-05-06T10:18:09.038Z</time></trkpt><trkpt lat="37.98279" lon="13.6625483"><ele>128.0</ele><time>2026-05-06T10:18:10.038Z</time></trkpt><trkpt lat="37.982735" lon="13.66289"><ele>125.0</ele><time>2026-05-06T10:18:11.038Z</time></trkpt><trkpt lat="37.9826783" lon="13.6632367"><ele>125.0</ele><time>2026-05-06T10:18:12.038Z</time></trkpt><trkpt lat="37.98262" lon="13.66358"><ele>125.0</ele><time>2026-05-06T10:18:13.038Z</time></trkpt><trkpt lat="37.98255" lon="13.6639233"><ele>127.5</ele><time>2026-05-06T10:18:14.038Z</time></trkpt><trkpt lat="37.9824817" lon="13.6642617"><ele>130.0</ele><time>2026-05-06T10:18:15.038Z</time></trkpt><trkpt lat="37.9824067" lon="13.6645983"><ele>130.0</ele><time>2026-05-06T10:18:16.037Z</time></trkpt><trkpt lat="37.9823283" lon="13.6649333"><ele>130.0</ele><time>2026-05-06T10:18:17.037Z</time></trkpt><trkpt lat="37.982245" lon="13.66527"><ele>128.0</ele><time>2026-05-06T10:18:18.038Z</time></trkpt><trkpt lat="37.9821683" lon="13.6656067"><ele>126.0</ele><time>2026-05-06T10:18:19.038Z</time></trkpt><trkpt lat="37.9820883" lon="13.66594"><ele>125.0</ele><time>2026-05-06T10:18:20.038Z</time></trkpt><trkpt lat="37.9820017" lon="13.6662767"><ele>124.0</ele><time>2026-05-06T10:18:21.038Z</time></trkpt><trkpt lat="37.9819083" lon="13.6666"><ele>124.0</ele><time>2026-05-06T10:18:22.038Z</time></trkpt><trkpt lat="37.9818117" lon="13.6669117"><ele>124.0</ele><time>2026-05-06T10:18:23.038Z</time></trkpt><trkpt lat="37.98171" lon="13.6672283"><ele>124.5</ele><time>2026-05-06T10:18:24.038Z</time></trkpt><trkpt lat="37.9815917" lon="13.6675417"><ele>125.0</ele><time>2026-05-06T10:18:25.038Z</time></trkpt><trkpt lat="37.9814683" lon="13.6678467"><ele>125.0</ele><time>2026-05-06T10:18:26.038Z</time></trkpt><trkpt lat="37.9813433" lon="13.6681533"><ele>125.0</ele><time>2026-05-06T10:18:27.038Z</time></trkpt><trkpt lat="37.9812117" lon="13.6684567"><ele>118.5</ele><time>2026-05-06T10:18:28.038Z</time></trkpt><trkpt lat="37.981075" lon="13.668765"><ele>112.0</ele><time>2026-05-06T10:18:29.038Z</time></trkpt><trkpt lat="37.9809433" lon="13.66907"><ele>116.0</ele><time>2026-05-06T10:18:30.038Z</time></trkpt><trkpt lat="37.9808083" lon="13.6693767"><ele>120.0</ele><time>2026-05-06T10:18:31.038Z</time></trkpt><trkpt lat="37.9806683" lon="13.66968"><ele>108.5</ele><time>2026-05-06T10:18:32.038Z</time></trkpt><trkpt lat="37.9805267" lon="13.6699767"><ele>97.0</ele><time>2026-05-06T10:18:33.038Z</time></trkpt><trkpt lat="37.9803883" lon="13.670275"><ele>87.5</ele><time>2026-05-06T10:18:34.038Z</time></trkpt><trkpt lat="37.980245" lon="13.6705817"><ele>78.0</ele><time>2026-05-06T10:18:35.038Z</time></trkpt><trkpt lat="37.980105" lon="13.6708867"><ele>79.0</ele><time>2026-05-06T10:18:36.038Z</time></trkpt><trkpt lat="37.97996" lon="13.6711967"><ele>80.0</ele><time>2026-05-06T10:18:37.038Z</time></trkpt><trkpt lat="37.9798183" lon="13.6715117"><ele>80.0</ele><time>2026-05-06T10:18:38.038Z</time></trkpt><trkpt lat="37.979675" lon="13.6718233"><ele>80.0</ele><time>2026-05-06T10:18:39.038Z</time></trkpt><trkpt lat="37.9795283" lon="13.6721333"><ele>60.0</ele><time>2026-05-06T10:18:40.038Z</time></trkpt><trkpt lat="37.9793817" lon="13.6724483"><ele>40.0</ele><time>2026-05-06T10:18:41.038Z</time></trkpt><trkpt lat="37.9792367" lon="13.6727567"><ele>51.5</ele><time>2026-05-06T10:18:42.038Z</time></trkpt><trkpt lat="37.9790933" lon="13.6730667"><ele>63.0</ele><time>2026-05-06T10:18:43.038Z</time></trkpt><trkpt lat="37.9789567" lon="13.67338"><ele>75.0</ele><time>2026-05-06T10:18:44.038Z</time></trkpt><trkpt lat="37.9788183" lon="13.673685"><ele>87.0</ele><time>2026-05-06T10:18:45.038Z</time></trkpt><trkpt lat="37.9786817" lon="13.6739967"><ele>87.0</ele><time>2026-05-06T10:18:46.038Z</time></trkpt><trkpt lat="37.97854" lon="13.6743033"><ele>87.0</ele><time>2026-05-06T10:18:47.038Z</time></trkpt><trkpt lat="37.978395" lon="13.6746133"><ele>99.0</ele><time>2026-05-06T10:18:48.038Z</time></trkpt><trkpt lat="37.9782533" lon="13.67492"><ele>111.0</ele><time>2026-05-06T10:18:49.038Z</time></trkpt><trkpt lat="37.9781133" lon="13.6752367"><ele>101.5</ele><time>2026-05-06T10:18:50.038Z</time></trkpt><trkpt lat="37.977965" lon="13.6755517"><ele>92.0</ele><time>2026-05-06T10:18:51.038Z</time></trkpt><trkpt lat="37.977825" lon="13.6758733"><ele>88.5</ele><time>2026-05-06T10:18:52.038Z</time></trkpt><trkpt lat="37.9776733" lon="13.6761967"><ele>85.0</ele><time>2026-05-06T10:18:53.038Z</time></trkpt><trkpt lat="37.977525" lon="13.6765233"><ele>92.0</ele><time>2026-05-06T10:18:54.038Z</time></trkpt><trkpt lat="37.9773733" lon="13.676855"><ele>99.0</ele><time>2026-05-06T10:18:55.038Z</time></trkpt><trkpt lat="37.97722" lon="13.6771867"><ele>99.0</ele><time>2026-05-06T10:18:56.038Z</time></trkpt><trkpt lat="37.9770733" lon="13.67753"><ele>99.0</ele><time>2026-05-06T10:18:57.038Z</time></trkpt><trkpt lat="37.9769167" lon="13.6778733"><ele>97.0</ele><time>2026-05-06T10:18:58.038Z</time></trkpt><trkpt lat="37.9767533" lon="13.67822"><ele>95.0</ele><time>2026-05-06T10:18:59.038Z</time></trkpt><trkpt lat="37.9765983" lon="13.678565"><ele>90.0</ele><time>2026-05-06T10:19:00.038Z</time></trkpt><trkpt lat="37.976445" lon="13.67891"><ele>85.0</ele><time>2026-05-06T10:19:01.038Z</time></trkpt><trkpt lat="37.976285" lon="13.6792617"><ele>78.0</ele><time>2026-05-06T10:19:02.038Z</time></trkpt><trkpt lat="37.9761283" lon="13.6796033"><ele>71.0</ele><time>2026-05-06T10:19:03.038Z</time></trkpt><trkpt lat="37.975975" lon="13.6799483"><ele>80.5</ele><time>2026-05-06T10:19:04.038Z</time></trkpt><trkpt lat="37.9758183" lon="13.6802917"><ele>90.0</ele><time>2026-05-06T10:19:05.038Z</time></trkpt><trkpt lat="37.975665" lon="13.680635"><ele>90.0</ele><time>2026-05-06T10:19:06.037Z</time></trkpt><trkpt lat="37.9755133" lon="13.6809733"><ele>90.0</ele><time>2026-05-06T10:19:07.038Z</time></trkpt><trkpt lat="37.9753533" lon="13.6813167"><ele>86.5</ele><time>2026-05-06T10:19:08.038Z</time></trkpt><trkpt lat="37.9752133" lon="13.68166"><ele>83.0</ele><time>2026-05-06T10:19:09.038Z</time></trkpt><trkpt lat="37.975075" lon="13.682"><ele>92.0</ele><time>2026-05-06T10:19:10.038Z</time></trkpt><trkpt lat="37.97494" lon="13.6823367"><ele>101.0</ele><time>2026-05-06T10:19:11.038Z</time></trkpt><trkpt lat="37.97481" lon="13.6826833"><ele>102.0</ele><time>2026-05-06T10:19:12.038Z</time></trkpt><trkpt lat="37.974685" lon="13.6830417"><ele>103.0</ele><time>2026-05-06T10:19:13.038Z</time></trkpt><trkpt lat="37.9745567" lon="13.6834017"><ele>101.5</ele><time>2026-05-06T10:19:14.038Z</time></trkpt><trkpt lat="37.9744283" lon="13.68376"><ele>100.0</ele><time>2026-05-06T10:19:15.038Z</time></trkpt><trkpt lat="37.9743017" lon="13.6841183"><ele>90.0</ele><time>2026-05-06T10:19:16.038Z</time></trkpt><trkpt lat="37.9737933" lon="13.6860683"><ele>82.0</ele><time>2026-05-06T10:19:21.037Z</time></trkpt><trkpt lat="37.9736817" lon="13.6863833"><ele>74.0</ele><time>2026-05-06T10:19:22.037Z</time></trkpt><trkpt lat="37.9736083" lon="13.686775"><ele>70.5</ele><time>2026-05-06T10:19:23.037Z</time></trkpt><trkpt lat="37.973565" lon="13.6871633"><ele>67.0</ele><time>2026-05-06T10:19:24.036Z</time></trkpt><trkpt lat="37.973535" lon="13.6875417"><ele>67.0</ele><time>2026-05-06T10:19:25.037Z</time></trkpt><trkpt lat="37.9735083" lon="13.6879233"><ele>67.0</ele><time>2026-05-06T10:19:26.037Z</time></trkpt><trkpt lat="37.973485" lon="13.6883033"><ele>69.0</ele><time>2026-05-06T10:19:27.036Z</time></trkpt><trkpt lat="37.9734717" lon="13.6886833"><ele>71.0</ele><time>2026-05-06T10:19:28.037Z</time></trkpt><trkpt lat="37.9734717" lon="13.6890717"><ele>71.0</ele><time>2026-05-06T10:19:29.037Z</time></trkpt><trkpt lat="37.97348" lon="13.6894517"><ele>71.0</ele><time>2026-05-06T10:19:30.037Z</time></trkpt><trkpt lat="37.9734983" lon="13.689825"><ele>71.0</ele><time>2026-05-06T10:19:31.037Z</time></trkpt><trkpt lat="37.9735233" lon="13.6902"><ele>71.0</ele><time>2026-05-06T10:19:32.036Z</time></trkpt><trkpt lat="37.9735567" lon="13.69056"><ele>71.0</ele><time>2026-05-06T10:19:33.037Z</time></trkpt><trkpt lat="37.973605" lon="13.6909217"><ele>71.0</ele><time>2026-05-06T10:19:34.037Z</time></trkpt><trkpt lat="37.97366" lon="13.69128"><ele>71.0</ele><time>2026-05-06T10:19:35.037Z</time></trkpt><trkpt lat="37.9737317" lon="13.6916383"><ele>71.0</ele><time>2026-05-06T10:19:36.037Z</time></trkpt><trkpt lat="37.9738117" lon="13.6919983"><ele>71.0</ele><time>2026-05-06T10:19:37.037Z</time></trkpt><trkpt lat="37.9738883" lon="13.6923617"><ele>71.0</ele><time>2026-05-06T10:19:38.037Z</time></trkpt><trkpt lat="37.9739783" lon="13.6927333"><ele>69.5</ele><time>2026-05-06T10:19:39.036Z</time></trkpt><trkpt lat="37.9740817" lon="13.6931183"><ele>68.0</ele><time>2026-05-06T10:19:40.036Z</time></trkpt><trkpt lat="37.9741917" lon="13.693515"><ele>68.0</ele><time>2026-05-06T10:19:41.036Z</time></trkpt><trkpt lat="37.974305" lon="13.6939183"><ele>68.0</ele><time>2026-05-06T10:19:42.036Z</time></trkpt><trkpt lat="37.974415" lon="13.6943317"><ele>72.5</ele><time>2026-05-06T10:19:43.036Z</time></trkpt><trkpt lat="37.974525" lon="13.6947383"><ele>77.0</ele><time>2026-05-06T10:19:44.036Z</time></trkpt><trkpt lat="37.974635" lon="13.6951417"><ele>80.5</ele><time>2026-05-06T10:19:45.036Z</time></trkpt><trkpt lat="37.9747417" lon="13.695535"><ele>84.0</ele><time>2026-05-06T10:19:46.036Z</time></trkpt><trkpt lat="37.974845" lon="13.6959417"><ele>86.5</ele><time>2026-05-06T10:19:47.036Z</time></trkpt><trkpt lat="37.974945" lon="13.6963567"><ele>89.0</ele><time>2026-05-06T10:19:48.036Z</time></trkpt><trkpt lat="37.975035" lon="13.6967817"><ele>80.0</ele><time>2026-05-06T10:19:49.036Z</time></trkpt><trkpt lat="37.97512" lon="13.69723"><ele>71.0</ele><time>2026-05-06T10:19:50.036Z</time></trkpt><trkpt lat="37.9751967" lon="13.69768"><ele>72.5</ele><time>2026-05-06T10:19:51.036Z</time></trkpt><trkpt lat="37.9752567" lon="13.6981267"><ele>74.0</ele><time>2026-05-06T10:19:52.036Z</time></trkpt><trkpt lat="37.9753117" lon="13.6985667"><ele>78.0</ele><time>2026-05-06T10:19:53.036Z</time></trkpt><trkpt lat="37.97535" lon="13.6989933"><ele>82.0</ele><time>2026-05-06T10:19:54.036Z</time></trkpt><trkpt lat="37.97538" lon="13.699405"><ele>84.0</ele><time>2026-05-06T10:19:55.036Z</time></trkpt><trkpt lat="37.9753967" lon="13.6997917"><ele>86.0</ele><time>2026-05-06T10:19:56.036Z</time></trkpt><trkpt lat="37.9754133" lon="13.700175"><ele>82.5</ele><time>2026-05-06T10:19:57.035Z</time></trkpt><trkpt lat="37.9754217" lon="13.70056"><ele>79.0</ele><time>2026-05-06T10:19:58.036Z</time></trkpt><trkpt lat="37.97542" lon="13.7009483"><ele>76.5</ele><time>2026-05-06T10:19:59.036Z</time></trkpt><trkpt lat="37.9754067" lon="13.701345"><ele>74.0</ele><time>2026-05-06T10:20:00.036Z</time></trkpt><trkpt lat="37.9753817" lon="13.7017317"><ele>74.5</ele><time>2026-05-06T10:20:01.036Z</time></trkpt><trkpt lat="37.9753533" lon="13.70211"><ele>75.0</ele><time>2026-05-06T10:20:02.036Z</time></trkpt><trkpt lat="37.9753167" lon="13.7024717"><ele>77.5</ele><time>2026-05-06T10:20:03.036Z</time></trkpt><trkpt lat="37.9752767" lon="13.702835"><ele>80.0</ele><time>2026-05-06T10:20:04.036Z</time></trkpt><trkpt lat="37.9752267" lon="13.7031983"><ele>80.0</ele><time>2026-05-06T10:20:05.036Z</time></trkpt><trkpt lat="37.97517" lon="13.70356"><ele>80.0</ele><time>2026-05-06T10:20:06.036Z</time></trkpt><trkpt lat="37.9751033" lon="13.7039117"><ele>81.5</ele><time>2026-05-06T10:20:07.036Z</time></trkpt><trkpt lat="37.975035" lon="13.7042467"><ele>83.0</ele><time>2026-05-06T10:20:08.036Z</time></trkpt><trkpt lat="37.9749717" lon="13.7045667"><ele>85.0</ele><time>2026-05-06T10:20:09.036Z</time></trkpt><trkpt lat="37.9748983" lon="13.70488"><ele>87.0</ele><time>2026-05-06T10:20:10.036Z</time></trkpt><trkpt lat="37.9748167" lon="13.70519"><ele>86.0</ele><time>2026-05-06T10:20:11.036Z</time></trkpt><trkpt lat="37.9747333" lon="13.7055"><ele>85.0</ele><time>2026-05-06T10:20:12.036Z</time></trkpt><trkpt lat="37.9746383" lon="13.7058167"><ele>83.0</ele><time>2026-05-06T10:20:13.035Z</time></trkpt><trkpt lat="37.9745383" lon="13.706135"><ele>81.0</ele><time>2026-05-06T10:20:14.036Z</time></trkpt><trkpt lat="37.9744383" lon="13.706445"><ele>81.0</ele><time>2026-05-06T10:20:15.036Z</time></trkpt><trkpt lat="37.974335" lon="13.70675"><ele>81.0</ele><time>2026-05-06T10:20:16.036Z</time></trkpt><trkpt lat="37.9742233" lon="13.7070517"><ele>85.0</ele><time>2026-05-06T10:20:17.036Z</time></trkpt><trkpt lat="37.9741033" lon="13.7073533"><ele>89.0</ele><time>2026-05-06T10:20:18.036Z</time></trkpt><trkpt lat="37.9739767" lon="13.707655"><ele>88.5</ele><time>2026-05-06T10:20:19.036Z</time></trkpt><trkpt lat="37.97385" lon="13.7079433"><ele>88.0</ele><time>2026-05-06T10:20:20.036Z</time></trkpt><trkpt lat="37.9737167" lon="13.7082383"><ele>88.0</ele><time>2026-05-06T10:20:21.036Z</time></trkpt><trkpt lat="37.9735717" lon="13.70853"><ele>88.0</ele><time>2026-05-06T10:20:22.036Z</time></trkpt><trkpt lat="37.9734233" lon="13.7088217"><ele>92.0</ele><time>2026-05-06T10:20:23.036Z</time></trkpt><trkpt lat="37.973275" lon="13.709105"><ele>96.0</ele><time>2026-05-06T10:20:24.036Z</time></trkpt><trkpt lat="37.9731167" lon="13.7093883"><ele>90.5</ele><time>2026-05-06T10:20:25.036Z</time></trkpt><trkpt lat="37.972945" lon="13.7096633"><ele>85.0</ele><time>2026-05-06T10:20:26.036Z</time></trkpt><trkpt lat="37.972785" lon="13.7099367"><ele>85.0</ele><time>2026-05-06T10:20:27.036Z</time></trkpt><trkpt lat="37.9726117" lon="13.7102083"><ele>85.0</ele><time>2026-05-06T10:20:28.036Z</time></trkpt><trkpt lat="37.9724333" lon="13.71047"><ele>86.0</ele><time>2026-05-06T10:20:29.036Z</time></trkpt><trkpt lat="37.9722533" lon="13.710735"><ele>87.0</ele><time>2026-05-06T10:20:30.036Z</time></trkpt><trkpt lat="37.97208" lon="13.7110117"><ele>84.5</ele><time>2026-05-06T10:20:31.036Z</time></trkpt><trkpt lat="37.9719" lon="13.7112833"><ele>82.0</ele><time>2026-05-06T10:20:32.036Z</time></trkpt><trkpt lat="37.9717183" lon="13.7115567"><ele>81.5</ele><time>2026-05-06T10:20:33.036Z</time></trkpt><trkpt lat="37.9715433" lon="13.7118167"><ele>81.0</ele><time>2026-05-06T10:20:34.036Z</time></trkpt><trkpt lat="37.9713533" lon="13.7120883"><ele>81.0</ele><time>2026-05-06T10:20:35.036Z</time></trkpt><trkpt lat="37.9711683" lon="13.7123533"><ele>81.0</ele><time>2026-05-06T10:20:36.036Z</time></trkpt><trkpt lat="37.9709883" lon="13.7126217"><ele>80.5</ele><time>2026-05-06T10:20:37.036Z</time></trkpt><trkpt lat="37.97081" lon="13.7128883"><ele>80.0</ele><time>2026-05-06T10:20:38.036Z</time></trkpt><trkpt lat="37.97063" lon="13.713155"><ele>80.0</ele><time>2026-05-06T10:20:39.036Z</time></trkpt><trkpt lat="37.97045" lon="13.7134333"><ele>80.0</ele><time>2026-05-06T10:20:40.036Z</time></trkpt><trkpt lat="37.97027" lon="13.7137067"><ele>81.5</ele><time>2026-05-06T10:20:41.036Z</time></trkpt><trkpt lat="37.97009" lon="13.7139767"><ele>83.0</ele><time>2026-05-06T10:20:42.036Z</time></trkpt><trkpt lat="37.9699017" lon="13.71424"><ele>84.0</ele><time>2026-05-06T10:20:43.035Z</time></trkpt><trkpt lat="37.9697233" lon="13.7145067"><ele>85.0</ele><time>2026-05-06T10:20:44.036Z</time></trkpt><trkpt lat="37.96954" lon="13.7147683"><ele>85.0</ele><time>2026-05-06T10:20:45.036Z</time></trkpt><trkpt lat="37.969365" lon="13.7150317"><ele>85.0</ele><time>2026-05-06T10:20:46.036Z</time></trkpt><trkpt lat="37.9691867" lon="13.7152867"><ele>85.0</ele><time>2026-05-06T10:20:47.036Z</time></trkpt><trkpt lat="37.9690183" lon="13.7155517"><ele>85.0</ele><time>2026-05-06T10:20:48.036Z</time></trkpt><trkpt lat="37.9688433" lon="13.715815"><ele>80.0</ele><time>2026-05-06T10:20:49.036Z</time></trkpt><trkpt lat="37.968675" lon="13.7160817"><ele>75.0</ele><time>2026-05-06T10:20:50.036Z</time></trkpt><trkpt lat="37.9685167" lon="13.716365"><ele>75.0</ele><time>2026-05-06T10:20:51.036Z</time></trkpt><trkpt lat="37.9683733" lon="13.7166467"><ele>75.0</ele><time>2026-05-06T10:20:52.036Z</time></trkpt><trkpt lat="37.96823" lon="13.71693"><ele>73.0</ele><time>2026-05-06T10:20:53.036Z</time></trkpt><trkpt lat="37.9681" lon="13.7172283"><ele>71.0</ele><time>2026-05-06T10:20:54.035Z</time></trkpt><trkpt lat="37.967975" lon="13.717525"><ele>71.5</ele><time>2026-05-06T10:20:55.036Z</time></trkpt><trkpt lat="37.967855" lon="13.7178217"><ele>72.0</ele><time>2026-05-06T10:20:56.035Z</time></trkpt><trkpt lat="37.9677367" lon="13.7181133"><ele>72.0</ele><time>2026-05-06T10:20:57.035Z</time></trkpt><trkpt lat="37.9676267" lon="13.7184067"><ele>72.0</ele><time>2026-05-06T10:20:58.036Z</time></trkpt><trkpt lat="37.9675233" lon="13.7187133"><ele>80.5</ele><time>2026-05-06T10:20:59.036Z</time></trkpt><trkpt lat="37.96743" lon="13.7190167"><ele>89.0</ele><time>2026-05-06T10:21:00.035Z</time></trkpt><trkpt lat="37.9673417" lon="13.7193283"><ele>94.0</ele><time>2026-05-06T10:21:01.036Z</time></trkpt><trkpt lat="37.967265" lon="13.719635"><ele>99.0</ele><time>2026-05-06T10:21:02.036Z</time></trkpt><trkpt lat="37.9671967" lon="13.7199417"><ele>102.0</ele><time>2026-05-06T10:21:03.036Z</time></trkpt><trkpt lat="37.967125" lon="13.7202533"><ele>105.0</ele><time>2026-05-06T10:21:04.036Z</time></trkpt><trkpt lat="37.9670567" lon="13.7205633"><ele>105.0</ele><time>2026-05-06T10:21:05.036Z</time></trkpt><trkpt lat="37.9669967" lon="13.72087"><ele>105.0</ele><time>2026-05-06T10:21:06.036Z</time></trkpt><trkpt lat="37.9669433" lon="13.7211783"><ele>103.0</ele><time>2026-05-06T10:21:07.036Z</time></trkpt><trkpt lat="37.9669017" lon="13.7214867"><ele>101.0</ele><time>2026-05-06T10:21:08.036Z</time></trkpt><trkpt lat="37.966855" lon="13.7217967"><ele>96.5</ele><time>2026-05-06T10:21:09.036Z</time></trkpt><trkpt lat="37.9668183" lon="13.7221083"><ele>92.0</ele><time>2026-05-06T10:21:10.036Z</time></trkpt><trkpt lat="37.9667833" lon="13.7224133"><ele>92.0</ele><time>2026-05-06T10:21:11.036Z</time></trkpt><trkpt lat="37.96675" lon="13.722705"><ele>92.0</ele><time>2026-05-06T10:21:12.036Z</time></trkpt><trkpt lat="37.966715" lon="13.722985"><ele>94.0</ele><time>2026-05-06T10:21:13.036Z</time></trkpt><trkpt lat="37.96668" lon="13.72325"><ele>96.0</ele><time>2026-05-06T10:21:14.036Z</time></trkpt><trkpt lat="37.9666433" lon="13.7235017"><ele>98.0</ele><time>2026-05-06T10:21:15.036Z</time></trkpt><trkpt lat="37.9666017" lon="13.723735"><ele>99.33333333333333</ele><time>2026-05-06T10:21:16.036Z</time></trkpt><trkpt lat="37.9665683" lon="13.7239617"><ele>100.66666666666666</ele><time>2026-05-06T10:21:17.036Z</time></trkpt><trkpt lat="37.9665367" lon="13.7241717"><ele>102.0</ele><time>2026-05-06T10:21:18.036Z</time></trkpt><trkpt lat="37.9665017" lon="13.7243733"><ele>102.33333333333334</ele><time>2026-05-06T10:21:19.036Z</time></trkpt><trkpt lat="37.9664733" lon="13.724575"><ele>102.66666666666667</ele><time>2026-05-06T10:21:20.035Z</time></trkpt><trkpt lat="37.966445" lon="13.724765"><ele>103.0</ele><time>2026-05-06T10:21:21.035Z</time></trkpt><trkpt lat="37.9664117" lon="13.7249517"><ele>103.0</ele><time>2026-05-06T10:21:22.036Z</time></trkpt><trkpt lat="37.96638" lon="13.725115"><ele>103.0</ele><time>2026-05-06T10:21:23.036Z</time></trkpt><trkpt lat="37.9663483" lon="13.72528"><ele>103.0</ele><time>2026-05-06T10:21:24.036Z</time></trkpt><trkpt lat="37.9663017" lon="13.725435"><ele>103.0</ele><time>2026-05-06T10:21:25.036Z</time></trkpt><trkpt lat="37.9662533" lon="13.7255767"><ele>103.0</ele><time>2026-05-06T10:21:26.036Z</time></trkpt><trkpt lat="37.9661967" lon="13.7257117"><ele>103.0</ele><time>2026-05-06T10:21:27.036Z</time></trkpt><trkpt lat="37.9661483" lon="13.7258467"><ele>103.0</ele><time>2026-05-06T10:21:28.036Z</time></trkpt><trkpt lat="37.9661033" lon="13.7259783"><ele>103.0</ele><time>2026-05-06T10:21:29.036Z</time></trkpt><trkpt lat="37.9660583" lon="13.726105"><ele>103.4</ele><time>2026-05-06T10:21:30.036Z</time></trkpt><trkpt lat="37.9660183" lon="13.7262333"><ele>103.80000000000001</ele><time>2026-05-06T10:21:31.036Z</time></trkpt><trkpt lat="37.9659733" lon="13.7263633"><ele>104.2</ele><time>2026-05-06T10:21:32.035Z</time></trkpt><trkpt lat="37.9659317" lon="13.7264983"><ele>104.6</ele><time>2026-05-06T10:21:33.036Z</time></trkpt><trkpt lat="37.96589" lon="13.7266217"><ele>105.0</ele><time>2026-05-06T10:21:34.036Z</time></trkpt><trkpt lat="37.9658533" lon="13.7267383"><ele>105.5</ele><time>2026-05-06T10:21:35.036Z</time></trkpt><trkpt lat="37.9658133" lon="13.72684"><ele>106.0</ele><time>2026-05-06T10:21:36.036Z</time></trkpt><trkpt lat="37.9657767" lon="13.72693"><ele>106.5</ele><time>2026-05-06T10:21:37.036Z</time></trkpt><trkpt lat="37.9657417" lon="13.7270083"><ele>107.0</ele><time>2026-05-06T10:21:38.036Z</time></trkpt><trkpt lat="37.9657183" lon="13.727085"><ele>107.5</ele><time>2026-05-06T10:21:39.036Z</time></trkpt><trkpt lat="37.9656967" lon="13.7272333"><ele>108.0</ele><time>2026-05-06T10:21:41.036Z</time></trkpt><trkpt lat="37.96569" lon="13.7273533"><ele>108.0</ele><time>2026-05-06T10:21:43.036Z</time></trkpt><trkpt lat="37.96567" lon="13.7274483"><ele>108.0</ele><time>2026-05-06T10:21:46.036Z</time></trkpt><trkpt lat="37.9656933" lon="13.727335"><ele>108.0</ele><time>2026-05-06T10:22:16.036Z</time></trkpt><trkpt lat="37.9656367" lon="13.7272367"><ele>108.0</ele><time>2026-05-06T10:22:18.036Z</time></trkpt><trkpt lat="37.96558" lon="13.7271783"><ele>108.0</ele><time>2026-05-06T10:22:21.036Z</time></trkpt><trkpt lat="37.9656433" lon="13.7271283"><ele>108.0</ele><time>2026-05-06T10:25:42.036Z</time></trkpt><trkpt lat="37.9656883" lon="13.72721"><ele>108.0</ele><time>2026-05-06T10:25:44.036Z</time></trkpt><trkpt lat="37.9657067" lon="13.7273683"><ele>108.0</ele><time>2026-05-06T10:25:46.036Z</time></trkpt><trkpt lat="37.9657067" lon="13.72746"><ele>108.0</ele><time>2026-05-06T10:25:47.036Z</time></trkpt><trkpt lat="37.9657117" lon="13.72756"><ele>108.0</ele><time>2026-05-06T10:25:48.036Z</time></trkpt><trkpt lat="37.9657133" lon="13.727655"><ele>108.0</ele><time>2026-05-06T10:25:49.035Z</time></trkpt><trkpt lat="37.96573" lon="13.72775"><ele>108.0</ele><time>2026-05-06T10:25:50.036Z</time></trkpt><trkpt lat="37.9657317" lon="13.72785"><ele>108.16666666666667</ele><time>2026-05-06T10:25:51.036Z</time></trkpt><trkpt lat="37.9657283" lon="13.7279467"><ele>108.33333333333334</ele><time>2026-05-06T10:25:52.036Z</time></trkpt><trkpt lat="37.9657317" lon="13.728045"><ele>108.5</ele><time>2026-05-06T10:25:53.036Z</time></trkpt><trkpt lat="37.9657367" lon="13.7281467"><ele>108.66666666666667</ele><time>2026-05-06T10:25:54.035Z</time></trkpt><trkpt lat="37.96574" lon="13.7282567"><ele>108.83333333333334</ele><time>2026-05-06T10:25:55.036Z</time></trkpt><trkpt lat="37.9657367" lon="13.7283667"><ele>109.0</ele><time>2026-05-06T10:25:56.036Z</time></trkpt><trkpt lat="37.965735" lon="13.7284933"><ele>109.0</ele><time>2026-05-06T10:25:57.036Z</time></trkpt><trkpt lat="37.9657383" lon="13.7286283"><ele>109.0</ele><time>2026-05-06T10:25:58.036Z</time></trkpt><trkpt lat="37.9657433" lon="13.728765"><ele>109.0</ele><time>2026-05-06T10:25:59.036Z</time></trkpt><trkpt lat="37.96576" lon="13.7289117"><ele>109.0</ele><time>2026-05-06T10:26:00.036Z</time></trkpt><trkpt lat="37.9657717" lon="13.729065"><ele>109.0</ele><time>2026-05-06T10:26:01.036Z</time></trkpt><trkpt lat="37.96578" lon="13.7292283"><ele>109.0</ele><time>2026-05-06T10:26:02.036Z</time></trkpt><trkpt lat="37.965805" lon="13.729405"><ele>109.0</ele><time>2026-05-06T10:26:03.036Z</time></trkpt><trkpt lat="37.9657983" lon="13.7295817"><ele>109.0</ele><time>2026-05-06T10:26:04.036Z</time></trkpt><trkpt lat="37.96578" lon="13.7297733"><ele>109.66666666666667</ele><time>2026-05-06T10:26:05.036Z</time></trkpt><trkpt lat="37.965765" lon="13.7299883"><ele>110.33333333333334</ele><time>2026-05-06T10:26:06.036Z</time></trkpt><trkpt lat="37.965745" lon="13.73022"><ele>111.0</ele><time>2026-05-06T10:26:07.036Z</time></trkpt><trkpt lat="37.9657083" lon="13.7304667"><ele>111.0</ele><time>2026-05-06T10:26:08.036Z</time></trkpt><trkpt lat="37.9656733" lon="13.7307333"><ele>111.0</ele><time>2026-05-06T10:26:09.036Z</time></trkpt><trkpt lat="37.9656417" lon="13.7310017"><ele>111.0</ele><time>2026-05-06T10:26:10.036Z</time></trkpt><trkpt lat="37.9656083" lon="13.7312717"><ele>111.0</ele><time>2026-05-06T10:26:11.036Z</time></trkpt><trkpt lat="37.9655817" lon="13.73155"><ele>111.0</ele><time>2026-05-06T10:26:12.036Z</time></trkpt><trkpt lat="37.9655433" lon="13.731835"><ele>111.0</ele><time>2026-05-06T10:26:13.036Z</time></trkpt><trkpt lat="37.9655" lon="13.732125"><ele>108.0</ele><time>2026-05-06T10:26:14.036Z</time></trkpt><trkpt lat="37.965465" lon="13.7324167"><ele>105.0</ele><time>2026-05-06T10:26:15.036Z</time></trkpt><trkpt lat="37.9654283" lon="13.732715"><ele>104.0</ele><time>2026-05-06T10:26:16.036Z</time></trkpt><trkpt lat="37.9653883" lon="13.733015"><ele>103.0</ele><time>2026-05-06T10:26:17.036Z</time></trkpt><trkpt lat="37.96535" lon="13.7333217"><ele>103.5</ele><time>2026-05-06T10:26:18.036Z</time></trkpt><trkpt lat="37.9653017" lon="13.7336267"><ele>104.0</ele><time>2026-05-06T10:26:19.036Z</time></trkpt><trkpt lat="37.9652567" lon="13.7339333"><ele>104.0</ele><time>2026-05-06T10:26:20.036Z</time></trkpt><trkpt lat="37.9652183" lon="13.7342417"><ele>104.0</ele><time>2026-05-06T10:26:21.036Z</time></trkpt><trkpt lat="37.9651833" lon="13.7345533"><ele>103.0</ele><time>2026-05-06T10:26:22.036Z</time></trkpt><trkpt lat="37.9651467" lon="13.73487"><ele>102.0</ele><time>2026-05-06T10:26:23.036Z</time></trkpt><trkpt lat="37.9651017" lon="13.7351917"><ele>103.5</ele><time>2026-05-06T10:26:24.036Z</time></trkpt><trkpt lat="37.9650567" lon="13.7355117"><ele>105.0</ele><time>2026-05-06T10:26:25.036Z</time></trkpt><trkpt lat="37.9650133" lon="13.7358367"><ele>107.5</ele><time>2026-05-06T10:26:26.036Z</time></trkpt><trkpt lat="37.9649717" lon="13.7361683"><ele>110.0</ele><time>2026-05-06T10:26:27.036Z</time></trkpt><trkpt lat="37.9649317" lon="13.7364967"><ele>110.0</ele><time>2026-05-06T10:26:28.036Z</time></trkpt><trkpt lat="37.96489" lon="13.7368317"><ele>110.0</ele><time>2026-05-06T10:26:29.036Z</time></trkpt><trkpt lat="37.9648433" lon="13.7371583"><ele>110.5</ele><time>2026-05-06T10:26:30.036Z</time></trkpt><trkpt lat="37.9648" lon="13.73749"><ele>111.0</ele><time>2026-05-06T10:26:31.036Z</time></trkpt><trkpt lat="37.9647483" lon="13.7378233"><ele>109.0</ele><time>2026-05-06T10:26:32.036Z</time></trkpt><trkpt lat="37.9647017" lon="13.7381567"><ele>107.0</ele><time>2026-05-06T10:26:33.036Z</time></trkpt><trkpt lat="37.9646533" lon="13.7384917"><ele>106.0</ele><time>2026-05-06T10:26:34.036Z</time></trkpt><trkpt lat="37.96461" lon="13.73883"><ele>105.0</ele><time>2026-05-06T10:26:35.036Z</time></trkpt><trkpt lat="37.9645617" lon="13.739165"><ele>103.5</ele><time>2026-05-06T10:26:36.036Z</time></trkpt><trkpt lat="37.9645183" lon="13.7394983"><ele>102.0</ele><time>2026-05-06T10:26:37.036Z</time></trkpt><trkpt lat="37.9644767" lon="13.7398433"><ele>102.0</ele><time>2026-05-06T10:26:38.036Z</time></trkpt><trkpt lat="37.9644333" lon="13.7401783"><ele>102.0</ele><time>2026-05-06T10:26:39.036Z</time></trkpt><trkpt lat="37.9643867" lon="13.7405133"><ele>99.0</ele><time>2026-05-06T10:26:40.036Z</time></trkpt><trkpt lat="37.9643483" lon="13.7408533"><ele>96.0</ele><time>2026-05-06T10:26:41.036Z</time></trkpt><trkpt lat="37.964285" lon="13.7411967"><ele>89.5</ele><time>2026-05-06T10:26:42.036Z</time></trkpt><trkpt lat="37.9642467" lon="13.7415417"><ele>83.0</ele><time>2026-05-06T10:26:43.036Z</time></trkpt><trkpt lat="37.9642033" lon="13.7418817"><ele>90.0</ele><time>2026-05-06T10:26:44.036Z</time></trkpt><trkpt lat="37.9641533" lon="13.7422367"><ele>97.0</ele><time>2026-05-06T10:26:45.036Z</time></trkpt><trkpt lat="37.964115" lon="13.7425917"><ele>92.5</ele><time>2026-05-06T10:26:46.036Z</time></trkpt><trkpt lat="37.9640683" lon="13.7429483"><ele>88.0</ele><time>2026-05-06T10:26:47.036Z</time></trkpt><trkpt lat="37.9640217" lon="13.7432983"><ele>84.5</ele><time>2026-05-06T10:26:48.036Z</time></trkpt><trkpt lat="37.9639683" lon="13.7436433"><ele>81.0</ele><time>2026-05-06T10:26:49.035Z</time></trkpt><trkpt lat="37.9639333" lon="13.7439883"><ele>81.0</ele><time>2026-05-06T10:26:50.036Z</time></trkpt><trkpt lat="37.96389" lon="13.7443367"><ele>81.0</ele><time>2026-05-06T10:26:51.036Z</time></trkpt><trkpt lat="37.9638367" lon="13.7446817"><ele>78.5</ele><time>2026-05-06T10:26:52.036Z</time></trkpt><trkpt lat="37.9637967" lon="13.7450333"><ele>76.0</ele><time>2026-05-06T10:26:53.036Z</time></trkpt><trkpt lat="37.9637517" lon="13.7453833"><ele>73.5</ele><time>2026-05-06T10:26:54.036Z</time></trkpt><trkpt lat="37.9637083" lon="13.7457333"><ele>71.0</ele><time>2026-05-06T10:26:55.036Z</time></trkpt><trkpt lat="37.9636617" lon="13.74609"><ele>67.0</ele><time>2026-05-06T10:26:56.036Z</time></trkpt><trkpt lat="37.96361" lon="13.7464433"><ele>63.0</ele><time>2026-05-06T10:26:57.036Z</time></trkpt><trkpt lat="37.963565" lon="13.74679"><ele>61.5</ele><time>2026-05-06T10:26:58.036Z</time></trkpt><trkpt lat="37.9635233" lon="13.747145"><ele>60.0</ele><time>2026-05-06T10:26:59.036Z</time></trkpt><trkpt lat="37.9634917" lon="13.747495"><ele>57.0</ele><time>2026-05-06T10:27:00.036Z</time></trkpt><trkpt lat="37.9634633" lon="13.74784"><ele>54.0</ele><time>2026-05-06T10:27:01.036Z</time></trkpt><trkpt lat="37.9634367" lon="13.74819"><ele>52.5</ele><time>2026-05-06T10:27:02.036Z</time></trkpt><trkpt lat="37.9634217" lon="13.748545"><ele>51.0</ele><time>2026-05-06T10:27:03.036Z</time></trkpt><trkpt lat="37.9634117" lon="13.7489017"><ele>51.0</ele><time>2026-05-06T10:27:04.036Z</time></trkpt><trkpt lat="37.9634033" lon="13.74926"><ele>51.0</ele><time>2026-05-06T10:27:05.036Z</time></trkpt><trkpt lat="37.9633917" lon="13.7496133"><ele>51.5</ele><time>2026-05-06T10:27:06.036Z</time></trkpt><trkpt lat="37.9633833" lon="13.7499767"><ele>52.0</ele><time>2026-05-06T10:27:07.036Z</time></trkpt><trkpt lat="37.963395" lon="13.7503417"><ele>52.0</ele><time>2026-05-06T10:27:08.036Z</time></trkpt><trkpt lat="37.9634033" lon="13.7507117"><ele>52.0</ele><time>2026-05-06T10:27:09.036Z</time></trkpt><trkpt lat="37.9634217" lon="13.751075"><ele>50.5</ele><time>2026-05-06T10:27:10.036Z</time></trkpt><trkpt lat="37.9634367" lon="13.7514433"><ele>49.0</ele><time>2026-05-06T10:27:11.036Z</time></trkpt><trkpt lat="37.96345" lon="13.7518033"><ele>48.5</ele><time>2026-05-06T10:27:12.036Z</time></trkpt><trkpt lat="37.9634733" lon="13.7521667"><ele>48.0</ele><time>2026-05-06T10:27:13.036Z</time></trkpt><trkpt lat="37.9635033" lon="13.7525267"><ele>48.0</ele><time>2026-05-06T10:27:14.036Z</time></trkpt><trkpt lat="37.963535" lon="13.7529"><ele>48.0</ele><time>2026-05-06T10:27:15.036Z</time></trkpt><trkpt lat="37.9635717" lon="13.75327"><ele>47.5</ele><time>2026-05-06T10:27:16.036Z</time></trkpt><trkpt lat="37.9636133" lon="13.7536417"><ele>47.0</ele><time>2026-05-06T10:27:17.036Z</time></trkpt><trkpt lat="37.96366" lon="13.7540117"><ele>45.5</ele><time>2026-05-06T10:27:18.036Z</time></trkpt><trkpt lat="37.9637033" lon="13.754375"><ele>44.0</ele><time>2026-05-06T10:27:19.036Z</time></trkpt><trkpt lat="37.96374" lon="13.754735"><ele>44.0</ele><time>2026-05-06T10:27:20.036Z</time></trkpt><trkpt lat="37.96378" lon="13.7550967"><ele>44.0</ele><time>2026-05-06T10:27:21.036Z</time></trkpt><trkpt lat="37.9638133" lon="13.755455"><ele>44.0</ele><time>2026-05-06T10:27:22.036Z</time></trkpt><trkpt lat="37.9638517" lon="13.75582"><ele>44.0</ele><time>2026-05-06T10:27:23.036Z</time></trkpt><trkpt lat="37.963895" lon="13.7561733"><ele>44.0</ele><time>2026-05-06T10:27:24.036Z</time></trkpt><trkpt lat="37.963935" lon="13.7565317"><ele>44.0</ele><time>2026-05-06T10:27:25.036Z</time></trkpt><trkpt lat="37.96397" lon="13.7569133"><ele>43.5</ele><time>2026-05-06T10:27:26.036Z</time></trkpt><trkpt lat="37.9640183" lon="13.757295"><ele>43.0</ele><time>2026-05-06T10:27:27.036Z</time></trkpt><trkpt lat="37.9640683" lon="13.757685"><ele>43.0</ele><time>2026-05-06T10:27:28.036Z</time></trkpt><trkpt lat="37.9641283" lon="13.7580817"><ele>43.0</ele><time>2026-05-06T10:27:29.036Z</time></trkpt><trkpt lat="37.96419" lon="13.7584767"><ele>35.0</ele><time>2026-05-06T10:27:30.036Z</time></trkpt><trkpt lat="37.96425" lon="13.7588667"><ele>27.0</ele><time>2026-05-06T10:27:31.036Z</time></trkpt><trkpt lat="37.9643117" lon="13.759255"><ele>26.5</ele><time>2026-05-06T10:27:32.036Z</time></trkpt><trkpt lat="37.96438" lon="13.75963"><ele>26.0</ele><time>2026-05-06T10:27:33.036Z</time></trkpt><trkpt lat="37.9644483" lon="13.760005"><ele>26.5</ele><time>2026-05-06T10:27:34.036Z</time></trkpt><trkpt lat="37.9645283" lon="13.7603717"><ele>27.0</ele><time>2026-05-06T10:27:35.036Z</time></trkpt><trkpt lat="37.96461" lon="13.7607367"><ele>26.5</ele><time>2026-05-06T10:27:36.036Z</time></trkpt><trkpt lat="37.9647" lon="13.7611"><ele>26.0</ele><time>2026-05-06T10:27:37.036Z</time></trkpt><trkpt lat="37.9647833" lon="13.761465"><ele>26.0</ele><time>2026-05-06T10:27:38.036Z</time></trkpt><trkpt lat="37.9648833" lon="13.76182"><ele>26.0</ele><time>2026-05-06T10:27:39.036Z</time></trkpt><trkpt lat="37.9649833" lon="13.7621783"><ele>20.5</ele><time>2026-05-06T10:27:40.035Z</time></trkpt><trkpt lat="37.9650783" lon="13.762535"><ele>15.0</ele><time>2026-05-06T10:27:41.036Z</time></trkpt><trkpt lat="37.9651833" lon="13.7628883"><ele>15.0</ele><time>2026-05-06T10:27:42.036Z</time></trkpt><trkpt lat="37.96529" lon="13.7632417"><ele>15.0</ele><time>2026-05-06T10:27:43.036Z</time></trkpt><trkpt lat="37.9653783" lon="13.7635883"><ele>15.0</ele><time>2026-05-06T10:27:44.036Z</time></trkpt><trkpt lat="37.9654833" lon="13.76394"><ele>15.0</ele><time>2026-05-06T10:27:45.036Z</time></trkpt><trkpt lat="37.96558" lon="13.7642867"><ele>14.5</ele><time>2026-05-06T10:27:46.036Z</time></trkpt><trkpt lat="37.9656683" lon="13.764635"><ele>14.0</ele><time>2026-05-06T10:27:47.036Z</time></trkpt><trkpt lat="37.96576" lon="13.7649883"><ele>13.0</ele><time>2026-05-06T10:27:48.036Z</time></trkpt><trkpt lat="37.9658483" lon="13.7653417"><ele>12.0</ele><time>2026-05-06T10:27:49.036Z</time></trkpt><trkpt lat="37.9659217" lon="13.76569"><ele>10.5</ele><time>2026-05-06T10:27:50.036Z</time></trkpt><trkpt lat="37.9660033" lon="13.766035"><ele>9.0</ele><time>2026-05-06T10:27:51.036Z</time></trkpt><trkpt lat="37.966075" lon="13.7663817"><ele>9.0</ele><time>2026-05-06T10:27:52.036Z</time></trkpt><trkpt lat="37.9661367" lon="13.7667267"><ele>9.0</ele><time>2026-05-06T10:27:53.036Z</time></trkpt><trkpt lat="37.9661983" lon="13.7670733"><ele>9.5</ele><time>2026-05-06T10:27:54.036Z</time></trkpt><trkpt lat="37.9662583" lon="13.7674217"><ele>10.0</ele><time>2026-05-06T10:27:55.036Z</time></trkpt><trkpt lat="37.96632" lon="13.76776"><ele>10.0</ele><time>2026-05-06T10:27:56.036Z</time></trkpt><trkpt lat="37.966375" lon="13.768105"><ele>10.0</ele><time>2026-05-06T10:27:57.036Z</time></trkpt><trkpt lat="37.9664217" lon="13.7684433"><ele>8.0</ele><time>2026-05-06T10:27:58.036Z</time></trkpt><trkpt lat="37.9664667" lon="13.7687717"><ele>6.0</ele><time>2026-05-06T10:27:59.036Z</time></trkpt><trkpt lat="37.9665083" lon="13.7691083"><ele>6.0</ele><time>2026-05-06T10:28:00.036Z</time></trkpt><trkpt lat="37.9665517" lon="13.769445"><ele>6.0</ele><time>2026-05-06T10:28:01.036Z</time></trkpt><trkpt lat="37.966595" lon="13.769775"><ele>6.0</ele><time>2026-05-06T10:28:02.036Z</time></trkpt><trkpt lat="37.9666483" lon="13.770105"><ele>6.0</ele><time>2026-05-06T10:28:03.036Z</time></trkpt><trkpt lat="37.9666933" lon="13.7704367"><ele>6.0</ele><time>2026-05-06T10:28:04.036Z</time></trkpt><trkpt lat="37.966745" lon="13.7707667"><ele>6.0</ele><time>2026-05-06T10:28:05.036Z</time></trkpt><trkpt lat="37.9667917" lon="13.7711"><ele>6.0</ele><time>2026-05-06T10:28:06.036Z</time></trkpt><trkpt lat="37.9668433" lon="13.77143"><ele>6.0</ele><time>2026-05-06T10:28:07.036Z</time></trkpt><trkpt lat="37.9668933" lon="13.771765"><ele>7.0</ele><time>2026-05-06T10:28:08.036Z</time></trkpt><trkpt lat="37.966935" lon="13.7720967"><ele>8.0</ele><time>2026-05-06T10:28:09.036Z</time></trkpt><trkpt lat="37.966985" lon="13.7724267"><ele>9.0</ele><time>2026-05-06T10:28:10.036Z</time></trkpt><trkpt lat="37.9670317" lon="13.77276"><ele>10.0</ele><time>2026-05-06T10:28:11.036Z</time></trkpt><trkpt lat="37.9670767" lon="13.7730917"><ele>10.0</ele><time>2026-05-06T10:28:12.036Z</time></trkpt><trkpt lat="37.96712" lon="13.77343"><ele>10.0</ele><time>2026-05-06T10:28:13.036Z</time></trkpt><trkpt lat="37.9671617" lon="13.7737617"><ele>10.0</ele><time>2026-05-06T10:28:14.036Z</time></trkpt><trkpt lat="37.9672117" lon="13.774095"><ele>10.0</ele><time>2026-05-06T10:28:15.036Z</time></trkpt><trkpt lat="37.9672617" lon="13.7744283"><ele>10.5</ele><time>2026-05-06T10:28:16.036Z</time></trkpt><trkpt lat="37.96731" lon="13.77476"><ele>11.0</ele><time>2026-05-06T10:28:17.036Z</time></trkpt><trkpt lat="37.967355" lon="13.7750917"><ele>10.0</ele><time>2026-05-06T10:28:18.036Z</time></trkpt><trkpt lat="37.9673983" lon="13.775425"><ele>9.0</ele><time>2026-05-06T10:28:19.036Z</time></trkpt><trkpt lat="37.9674383" lon="13.7757617"><ele>8.5</ele><time>2026-05-06T10:28:20.036Z</time></trkpt><trkpt lat="37.9674867" lon="13.776095"><ele>8.0</ele><time>2026-05-06T10:28:21.035Z</time></trkpt><trkpt lat="37.9675383" lon="13.7764267"><ele>8.0</ele><time>2026-05-06T10:28:22.036Z</time></trkpt><trkpt lat="37.9675817" lon="13.7767617"><ele>8.0</ele><time>2026-05-06T10:28:23.036Z</time></trkpt><trkpt lat="37.9676267" lon="13.777095"><ele>8.0</ele><time>2026-05-06T10:28:24.036Z</time></trkpt><trkpt lat="37.9676767" lon="13.7774233"><ele>8.0</ele><time>2026-05-06T10:28:25.036Z</time></trkpt><trkpt lat="37.9677233" lon="13.7777567"><ele>9.0</ele><time>2026-05-06T10:28:26.036Z</time></trkpt><trkpt lat="37.9677683" lon="13.77809"><ele>10.0</ele><time>2026-05-06T10:28:27.036Z</time></trkpt><trkpt lat="37.96781" lon="13.7784233"><ele>9.5</ele><time>2026-05-06T10:28:28.036Z</time></trkpt><trkpt lat="37.9678567" lon="13.77876"><ele>9.0</ele><time>2026-05-06T10:28:29.036Z</time></trkpt><trkpt lat="37.9679017" lon="13.7790917"><ele>9.5</ele><time>2026-05-06T10:28:30.036Z</time></trkpt><trkpt lat="37.96795" lon="13.7794217"><ele>10.0</ele><time>2026-05-06T10:28:31.036Z</time></trkpt><trkpt lat="37.9679967" lon="13.7797583"><ele>10.0</ele><time>2026-05-06T10:28:32.036Z</time></trkpt><trkpt lat="37.9680367" lon="13.7800933"><ele>10.0</ele><time>2026-05-06T10:28:33.036Z</time></trkpt><trkpt lat="37.9680883" lon="13.780425"><ele>9.0</ele><time>2026-05-06T10:28:34.036Z</time></trkpt><trkpt lat="37.9681383" lon="13.7807517"><ele>8.0</ele><time>2026-05-06T10:28:35.036Z</time></trkpt><trkpt lat="37.968185" lon="13.7810817"><ele>7.5</ele><time>2026-05-06T10:28:36.036Z</time></trkpt><trkpt lat="37.9682367" lon="13.7814133"><ele>7.0</ele><time>2026-05-06T10:28:37.036Z</time></trkpt><trkpt lat="37.9682867" lon="13.78175"><ele>7.5</ele><time>2026-05-06T10:28:38.036Z</time></trkpt><trkpt lat="37.9683367" lon="13.78208"><ele>8.0</ele><time>2026-05-06T10:28:39.036Z</time></trkpt><trkpt lat="37.9683833" lon="13.7824117"><ele>7.5</ele><time>2026-05-06T10:28:40.036Z</time></trkpt><trkpt lat="37.96843" lon="13.78275"><ele>7.0</ele><time>2026-05-06T10:28:41.036Z</time></trkpt><trkpt lat="37.9684783" lon="13.783085"><ele>7.0</ele><time>2026-05-06T10:28:42.035Z</time></trkpt><trkpt lat="37.96853" lon="13.7834183"><ele>7.0</ele><time>2026-05-06T10:28:43.035Z</time></trkpt><trkpt lat="37.9685817" lon="13.783745"><ele>7.0</ele><time>2026-05-06T10:28:44.035Z</time></trkpt><trkpt lat="37.9686267" lon="13.78408"><ele>7.0</ele><time>2026-05-06T10:28:45.035Z</time></trkpt><trkpt lat="37.96866" lon="13.7844183"><ele>6.5</ele><time>2026-05-06T10:28:46.035Z</time></trkpt><trkpt lat="37.9687133" lon="13.7847483"><ele>6.0</ele><time>2026-05-06T10:28:47.035Z</time></trkpt><trkpt lat="37.9687617" lon="13.78508"><ele>6.5</ele><time>2026-05-06T10:28:48.035Z</time></trkpt><trkpt lat="37.9688067" lon="13.7854167"><ele>7.0</ele><time>2026-05-06T10:28:49.035Z</time></trkpt><trkpt lat="37.9688483" lon="13.7857517"><ele>7.0</ele><time>2026-05-06T10:28:50.035Z</time></trkpt><trkpt lat="37.9689" lon="13.7860833"><ele>7.0</ele><time>2026-05-06T10:28:51.035Z</time></trkpt><trkpt lat="37.9689533" lon="13.78641"><ele>7.0</ele><time>2026-05-06T10:28:52.035Z</time></trkpt><trkpt lat="37.969005" lon="13.7867367"><ele>7.0</ele><time>2026-05-06T10:28:53.035Z</time></trkpt><trkpt lat="37.9690617" lon="13.787055"><ele>7.5</ele><time>2026-05-06T10:28:54.035Z</time></trkpt><trkpt lat="37.9691217" lon="13.7873717"><ele>8.0</ele><time>2026-05-06T10:28:55.035Z</time></trkpt><trkpt lat="37.96918" lon="13.7877"><ele>7.0</ele><time>2026-05-06T10:28:56.035Z</time></trkpt><trkpt lat="37.9692367" lon="13.78803"><ele>6.0</ele><time>2026-05-06T10:28:57.035Z</time></trkpt><trkpt lat="37.9692983" lon="13.7883717"><ele>6.0</ele><time>2026-05-06T10:28:58.035Z</time></trkpt><trkpt lat="37.96936" lon="13.7887083"><ele>6.0</ele><time>2026-05-06T10:28:59.035Z</time></trkpt><trkpt lat="37.96943" lon="13.7890417"><ele>6.0</ele><time>2026-05-06T10:29:00.035Z</time></trkpt><trkpt lat="37.9694967" lon="13.7893817"><ele>6.0</ele><time>2026-05-06T10:29:01.035Z</time></trkpt><trkpt lat="37.9695767" lon="13.7897167"><ele>6.0</ele><time>2026-05-06T10:29:02.035Z</time></trkpt><trkpt lat="37.9696383" lon="13.7900533"><ele>6.0</ele><time>2026-05-06T10:29:03.035Z</time></trkpt><trkpt lat="37.969715" lon="13.7903867"><ele>6.0</ele><time>2026-05-06T10:29:04.035Z</time></trkpt><trkpt lat="37.9697917" lon="13.790715"><ele>6.0</ele><time>2026-05-06T10:29:05.035Z</time></trkpt><trkpt lat="37.9698633" lon="13.791045"><ele>6.0</ele><time>2026-05-06T10:29:06.035Z</time></trkpt><trkpt lat="37.9699467" lon="13.7913733"><ele>6.0</ele><time>2026-05-06T10:29:07.035Z</time></trkpt><trkpt lat="37.9700317" lon="13.7916967"><ele>6.0</ele><time>2026-05-06T10:29:08.035Z</time></trkpt><trkpt lat="37.97012" lon="13.79202"><ele>6.0</ele><time>2026-05-06T10:29:09.035Z</time></trkpt><trkpt lat="37.9702" lon="13.7923433"><ele>7.5</ele><time>2026-05-06T10:29:10.035Z</time></trkpt><trkpt lat="37.9702883" lon="13.7926733"><ele>9.0</ele><time>2026-05-06T10:29:11.035Z</time></trkpt><trkpt lat="37.9703817" lon="13.7929933"><ele>9.0</ele><time>2026-05-06T10:29:12.035Z</time></trkpt><trkpt lat="37.9704767" lon="13.7933117"><ele>9.0</ele><time>2026-05-06T10:29:13.035Z</time></trkpt><trkpt lat="37.9705733" lon="13.7936317"><ele>8.5</ele><time>2026-05-06T10:29:14.035Z</time></trkpt><trkpt lat="37.9706617" lon="13.7939533"><ele>8.0</ele><time>2026-05-06T10:29:15.035Z</time></trkpt><trkpt lat="37.9707533" lon="13.7942717"><ele>8.0</ele><time>2026-05-06T10:29:16.035Z</time></trkpt><trkpt lat="37.9708483" lon="13.7945967"><ele>8.0</ele><time>2026-05-06T10:29:17.035Z</time></trkpt><trkpt lat="37.9709433" lon="13.7949133"><ele>7.5</ele><time>2026-05-06T10:29:18.035Z</time></trkpt><trkpt lat="37.971035" lon="13.7952317"><ele>7.0</ele><time>2026-05-06T10:29:19.035Z</time></trkpt><trkpt lat="37.971125" lon="13.7955517"><ele>7.0</ele><time>2026-05-06T10:29:20.035Z</time></trkpt><trkpt lat="37.971225" lon="13.79587"><ele>7.0</ele><time>2026-05-06T10:29:21.035Z</time></trkpt><trkpt lat="37.97132" lon="13.7961933"><ele>7.0</ele><time>2026-05-06T10:29:22.035Z</time></trkpt><trkpt lat="37.9714133" lon="13.79651"><ele>7.0</ele><time>2026-05-06T10:29:23.035Z</time></trkpt><trkpt lat="37.971495" lon="13.7968283"><ele>7.5</ele><time>2026-05-06T10:29:24.035Z</time></trkpt><trkpt lat="37.9715933" lon="13.79715"><ele>8.0</ele><time>2026-05-06T10:29:25.035Z</time></trkpt><trkpt lat="37.9716883" lon="13.7974667"><ele>7.0</ele><time>2026-05-06T10:29:26.035Z</time></trkpt><trkpt lat="37.97178" lon="13.7977867"><ele>6.0</ele><time>2026-05-06T10:29:27.035Z</time></trkpt><trkpt lat="37.9718717" lon="13.7981083"><ele>6.0</ele><time>2026-05-06T10:29:28.035Z</time></trkpt><trkpt lat="37.9719633" lon="13.7984283"><ele>6.0</ele><time>2026-05-06T10:29:29.035Z</time></trkpt><trkpt lat="37.9720567" lon="13.7987483"><ele>6.0</ele><time>2026-05-06T10:29:30.035Z</time></trkpt><trkpt lat="37.97214" lon="13.7990667"><ele>6.0</ele><time>2026-05-06T10:29:31.035Z</time></trkpt><trkpt lat="37.97224" lon="13.7993833"><ele>6.0</ele><time>2026-05-06T10:29:32.035Z</time></trkpt><trkpt lat="37.972335" lon="13.799705"><ele>6.0</ele><time>2026-05-06T10:29:33.035Z</time></trkpt><trkpt lat="37.9724217" lon="13.8000267"><ele>6.0</ele><time>2026-05-06T10:29:34.035Z</time></trkpt><trkpt lat="37.9725167" lon="13.800345"><ele>6.0</ele><time>2026-05-06T10:29:35.035Z</time></trkpt><trkpt lat="37.9726083" lon="13.8006667"><ele>6.0</ele><time>2026-05-06T10:29:36.035Z</time></trkpt><trkpt lat="37.9726933" lon="13.8009833"><ele>6.0</ele><time>2026-05-06T10:29:37.035Z</time></trkpt><trkpt lat="37.97279" lon="13.8013033"><ele>6.5</ele><time>2026-05-06T10:29:38.035Z</time></trkpt><trkpt lat="37.9728817" lon="13.801625"><ele>7.0</ele><time>2026-05-06T10:29:39.035Z</time></trkpt><trkpt lat="37.972975" lon="13.8019483"><ele>7.0</ele><time>2026-05-06T10:29:40.035Z</time></trkpt><trkpt lat="37.97307" lon="13.8022667"><ele>7.0</ele><time>2026-05-06T10:29:41.035Z</time></trkpt><trkpt lat="37.9731583" lon="13.8025883"><ele>8.0</ele><time>2026-05-06T10:29:42.035Z</time></trkpt><trkpt lat="37.973245" lon="13.8029083"><ele>9.0</ele><time>2026-05-06T10:29:43.035Z</time></trkpt><trkpt lat="37.9733367" lon="13.8032267"><ele>8.0</ele><time>2026-05-06T10:29:44.035Z</time></trkpt><trkpt lat="37.973425" lon="13.803545"><ele>7.0</ele><time>2026-05-06T10:29:45.035Z</time></trkpt><trkpt lat="37.97352" lon="13.803865"><ele>7.0</ele><time>2026-05-06T10:29:46.035Z</time></trkpt><trkpt lat="37.9736067" lon="13.8041883"><ele>7.0</ele><time>2026-05-06T10:29:47.035Z</time></trkpt><trkpt lat="37.973705" lon="13.8045167"><ele>7.0</ele><time>2026-05-06T10:29:48.035Z</time></trkpt><trkpt lat="37.9737967" lon="13.804835"><ele>7.0</ele><time>2026-05-06T10:29:49.034Z</time></trkpt><trkpt lat="37.97388" lon="13.8051533"><ele>7.0</ele><time>2026-05-06T10:29:50.035Z</time></trkpt><trkpt lat="37.9739783" lon="13.8054717"><ele>7.0</ele><time>2026-05-06T10:29:51.035Z</time></trkpt><trkpt lat="37.97407" lon="13.80579"><ele>7.0</ele><time>2026-05-06T10:29:52.035Z</time></trkpt><trkpt lat="37.9741633" lon="13.8061067"><ele>7.0</ele><time>2026-05-06T10:29:53.035Z</time></trkpt><trkpt lat="37.9742583" lon="13.8064267"><ele>7.0</ele><time>2026-05-06T10:29:54.035Z</time></trkpt><trkpt lat="37.9743517" lon="13.806745"><ele>7.0</ele><time>2026-05-06T10:29:55.035Z</time></trkpt><trkpt lat="37.97444" lon="13.8070633"><ele>8.0</ele><time>2026-05-06T10:29:56.035Z</time></trkpt><trkpt lat="37.97453" lon="13.807385"><ele>9.0</ele><time>2026-05-06T10:29:57.035Z</time></trkpt><trkpt lat="37.974625" lon="13.8077083"><ele>9.0</ele><time>2026-05-06T10:29:58.035Z</time></trkpt><trkpt lat="37.9747183" lon="13.8080283"><ele>9.0</ele><time>2026-05-06T10:29:59.035Z</time></trkpt><trkpt lat="37.974805" lon="13.8083483"><ele>7.5</ele><time>2026-05-06T10:30:00.035Z</time></trkpt><trkpt lat="37.9748983" lon="13.80867"><ele>6.0</ele><time>2026-05-06T10:30:01.035Z</time></trkpt><trkpt lat="37.9749933" lon="13.80899"><ele>6.0</ele><time>2026-05-06T10:30:02.035Z</time></trkpt><trkpt lat="37.97509" lon="13.8093083"><ele>6.0</ele><time>2026-05-06T10:30:03.035Z</time></trkpt><trkpt lat="37.9751833" lon="13.80963"><ele>6.0</ele><time>2026-05-06T10:30:04.035Z</time></trkpt><trkpt lat="37.9752717" lon="13.8099483"><ele>6.0</ele><time>2026-05-06T10:30:05.035Z</time></trkpt><trkpt lat="37.975365" lon="13.81027"><ele>6.0</ele><time>2026-05-06T10:30:06.035Z</time></trkpt><trkpt lat="37.97546" lon="13.81059"><ele>6.0</ele><time>2026-05-06T10:30:07.035Z</time></trkpt><trkpt lat="37.975555" lon="13.8109117"><ele>6.5</ele><time>2026-05-06T10:30:08.035Z</time></trkpt><trkpt lat="37.9756433" lon="13.81123"><ele>7.0</ele><time>2026-05-06T10:30:09.035Z</time></trkpt><trkpt lat="37.9757417" lon="13.8115483"><ele>7.0</ele><time>2026-05-06T10:30:10.035Z</time></trkpt><trkpt lat="37.9758417" lon="13.8118633"><ele>7.0</ele><time>2026-05-06T10:30:11.035Z</time></trkpt><trkpt lat="37.9759367" lon="13.81218"><ele>7.0</ele><time>2026-05-06T10:30:12.035Z</time></trkpt><trkpt lat="37.9760283" lon="13.812495"><ele>7.0</ele><time>2026-05-06T10:30:13.035Z</time></trkpt><trkpt lat="37.9761133" lon="13.8128167"><ele>7.0</ele><time>2026-05-06T10:30:14.035Z</time></trkpt><trkpt lat="37.9762067" lon="13.813135"><ele>7.0</ele><time>2026-05-06T10:30:15.035Z</time></trkpt><trkpt lat="37.9762967" lon="13.8134533"><ele>6.0</ele><time>2026-05-06T10:30:16.035Z</time></trkpt><trkpt lat="37.9763883" lon="13.8137783"><ele>5.0</ele><time>2026-05-06T10:30:17.035Z</time></trkpt><trkpt lat="37.9764733" lon="13.8141033"><ele>5.5</ele><time>2026-05-06T10:30:18.035Z</time></trkpt><trkpt lat="37.97656" lon="13.814425"><ele>6.0</ele><time>2026-05-06T10:30:19.035Z</time></trkpt><trkpt lat="37.9766467" lon="13.81475"><ele>5.0</ele><time>2026-05-06T10:30:20.035Z</time></trkpt><trkpt lat="37.9767333" lon="13.8150717"><ele>4.0</ele><time>2026-05-06T10:30:21.035Z</time></trkpt><trkpt lat="37.9768217" lon="13.81539"><ele>4.0</ele><time>2026-05-06T10:30:22.035Z</time></trkpt><trkpt lat="37.9769133" lon="13.8157117"><ele>4.0</ele><time>2026-05-06T10:30:23.035Z</time></trkpt><trkpt lat="37.9770017" lon="13.816035"><ele>4.5</ele><time>2026-05-06T10:30:24.035Z</time></trkpt><trkpt lat="37.9770867" lon="13.8163617"><ele>5.0</ele><time>2026-05-06T10:30:25.034Z</time></trkpt><trkpt lat="37.97717" lon="13.8166817"><ele>6.0</ele><time>2026-05-06T10:30:26.034Z</time></trkpt><trkpt lat="37.9772567" lon="13.8170067"><ele>7.0</ele><time>2026-05-06T10:30:27.035Z</time></trkpt><trkpt lat="37.9773417" lon="13.817325"><ele>7.0</ele><time>2026-05-06T10:30:28.035Z</time></trkpt><trkpt lat="37.97743" lon="13.8176417"><ele>7.0</ele><time>2026-05-06T10:30:29.035Z</time></trkpt><trkpt lat="37.9775183" lon="13.8179667"><ele>7.0</ele><time>2026-05-06T10:30:30.035Z</time></trkpt><trkpt lat="37.9776033" lon="13.8182917"><ele>7.0</ele><time>2026-05-06T10:30:31.035Z</time></trkpt><trkpt lat="37.9776917" lon="13.8186133"><ele>7.0</ele><time>2026-05-06T10:30:32.035Z</time></trkpt><trkpt lat="37.97778" lon="13.818935"><ele>7.0</ele><time>2026-05-06T10:30:33.035Z</time></trkpt><trkpt lat="37.97787" lon="13.8192533"><ele>6.5</ele><time>2026-05-06T10:30:34.035Z</time></trkpt><trkpt lat="37.977955" lon="13.8195717"><ele>6.0</ele><time>2026-05-06T10:30:35.035Z</time></trkpt><trkpt lat="37.97804" lon="13.819895"><ele>7.5</ele><time>2026-05-06T10:30:36.035Z</time></trkpt><trkpt lat="37.9781283" lon="13.8202167"><ele>9.0</ele><time>2026-05-06T10:30:37.035Z</time></trkpt><trkpt lat="37.978215" lon="13.8205333"><ele>9.0</ele><time>2026-05-06T10:30:38.035Z</time></trkpt><trkpt lat="37.9783117" lon="13.8208533"><ele>9.0</ele><time>2026-05-06T10:30:39.035Z</time></trkpt><trkpt lat="37.9783967" lon="13.8211583"><ele>8.5</ele><time>2026-05-06T10:30:40.035Z</time></trkpt><trkpt lat="37.97848" lon="13.8214517"><ele>8.0</ele><time>2026-05-06T10:30:41.035Z</time></trkpt><trkpt lat="37.9785567" lon="13.8217417"><ele>8.5</ele><time>2026-05-06T10:30:42.034Z</time></trkpt><trkpt lat="37.9786283" lon="13.822025"><ele>9.0</ele><time>2026-05-06T10:30:43.035Z</time></trkpt><trkpt lat="37.9786933" lon="13.8223133"><ele>9.0</ele><time>2026-05-06T10:30:44.035Z</time></trkpt><trkpt lat="37.9787633" lon="13.8225917"><ele>9.0</ele><time>2026-05-06T10:30:45.035Z</time></trkpt><trkpt lat="37.9788317" lon="13.8228733"><ele>8.0</ele><time>2026-05-06T10:30:46.035Z</time></trkpt><trkpt lat="37.9788933" lon="13.8231483"><ele>7.0</ele><time>2026-05-06T10:30:47.035Z</time></trkpt><trkpt lat="37.97895" lon="13.8234283"><ele>7.5</ele><time>2026-05-06T10:30:48.034Z</time></trkpt><trkpt lat="37.978995" lon="13.823715"><ele>8.0</ele><time>2026-05-06T10:30:49.035Z</time></trkpt><trkpt lat="37.9790267" lon="13.8240067"><ele>8.0</ele><time>2026-05-06T10:30:50.035Z</time></trkpt><trkpt lat="37.9790533" lon="13.8242983"><ele>8.0</ele><time>2026-05-06T10:30:51.035Z</time></trkpt><trkpt lat="37.97907" lon="13.8245867"><ele>8.0</ele><time>2026-05-06T10:30:52.035Z</time></trkpt><trkpt lat="37.9790717" lon="13.8248733"><ele>8.0</ele><time>2026-05-06T10:30:53.035Z</time></trkpt><trkpt lat="37.9790583" lon="13.8251617"><ele>8.0</ele><time>2026-05-06T10:30:54.035Z</time></trkpt><trkpt lat="37.9790383" lon="13.8254483"><ele>8.0</ele><time>2026-05-06T10:30:55.035Z</time></trkpt><trkpt lat="37.9790017" lon="13.8257367"><ele>9.5</ele><time>2026-05-06T10:30:56.035Z</time></trkpt><trkpt lat="37.9789567" lon="13.8260217"><ele>11.0</ele><time>2026-05-06T10:30:57.035Z</time></trkpt><trkpt lat="37.9788967" lon="13.8263017"><ele>11.0</ele><time>2026-05-06T10:30:58.035Z</time></trkpt><trkpt lat="37.9788283" lon="13.82658"><ele>11.0</ele><time>2026-05-06T10:30:59.035Z</time></trkpt><trkpt lat="37.97875" lon="13.8268517"><ele>11.5</ele><time>2026-05-06T10:31:00.035Z</time></trkpt><trkpt lat="37.9786583" lon="13.8271167"><ele>12.0</ele><time>2026-05-06T10:31:01.035Z</time></trkpt><trkpt lat="37.9785583" lon="13.8273783"><ele>12.0</ele><time>2026-05-06T10:31:02.035Z</time></trkpt><trkpt lat="37.9784517" lon="13.82763"><ele>12.0</ele><time>2026-05-06T10:31:03.035Z</time></trkpt><trkpt lat="37.978335" lon="13.8278667"><ele>12.0</ele><time>2026-05-06T10:31:04.035Z</time></trkpt><trkpt lat="37.9782133" lon="13.8280967"><ele>12.0</ele><time>2026-05-06T10:31:05.035Z</time></trkpt><trkpt lat="37.9780767" lon="13.828315"><ele>12.0</ele><time>2026-05-06T10:31:06.035Z</time></trkpt><trkpt lat="37.9779317" lon="13.8285283"><ele>12.0</ele><time>2026-05-06T10:31:07.035Z</time></trkpt><trkpt lat="37.977775" lon="13.8287367"><ele>12.0</ele><time>2026-05-06T10:31:08.035Z</time></trkpt><trkpt lat="37.9776117" lon="13.8289367"><ele>12.0</ele><time>2026-05-06T10:31:09.035Z</time></trkpt><trkpt lat="37.9774383" lon="13.829125"><ele>12.5</ele><time>2026-05-06T10:31:10.035Z</time></trkpt><trkpt lat="37.9772567" lon="13.8293"><ele>13.0</ele><time>2026-05-06T10:31:11.034Z</time></trkpt><trkpt lat="37.9770717" lon="13.82946"><ele>12.0</ele><time>2026-05-06T10:31:12.035Z</time></trkpt><trkpt lat="37.9768767" lon="13.8296133"><ele>11.0</ele><time>2026-05-06T10:31:13.035Z</time></trkpt><trkpt lat="37.97668" lon="13.8297533"><ele>11.0</ele><time>2026-05-06T10:31:14.035Z</time></trkpt><trkpt lat="37.97648" lon="13.82989"><ele>11.0</ele><time>2026-05-06T10:31:15.035Z</time></trkpt><trkpt lat="37.97627" lon="13.83002"><ele>11.0</ele><time>2026-05-06T10:31:16.035Z</time></trkpt><trkpt lat="37.9760517" lon="13.8301433"><ele>11.0</ele><time>2026-05-06T10:31:17.035Z</time></trkpt><trkpt lat="37.9758317" lon="13.8302717"><ele>11.0</ele><time>2026-05-06T10:31:18.034Z</time></trkpt><trkpt lat="37.9756067" lon="13.8304017"><ele>11.0</ele><time>2026-05-06T10:31:19.035Z</time></trkpt><trkpt lat="37.9753833" lon="13.83053"><ele>11.0</ele><time>2026-05-06T10:31:20.035Z</time></trkpt><trkpt lat="37.9751633" lon="13.8306583"><ele>11.0</ele><time>2026-05-06T10:31:21.035Z</time></trkpt><trkpt lat="37.9749383" lon="13.8307867"><ele>11.5</ele><time>2026-05-06T10:31:22.035Z</time></trkpt><trkpt lat="37.9747217" lon="13.8309083"><ele>12.0</ele><time>2026-05-06T10:31:23.035Z</time></trkpt><trkpt lat="37.9745067" lon="13.8310283"><ele>12.0</ele><time>2026-05-06T10:31:24.035Z</time></trkpt><trkpt lat="37.9742883" lon="13.8311433"><ele>12.0</ele><time>2026-05-06T10:31:25.035Z</time></trkpt><trkpt lat="37.9740717" lon="13.831265"><ele>13.5</ele><time>2026-05-06T10:31:26.035Z</time></trkpt><trkpt lat="37.9738483" lon="13.8313867"><ele>15.0</ele><time>2026-05-06T10:31:27.034Z</time></trkpt><trkpt lat="37.97362" lon="13.8315133"><ele>15.0</ele><time>2026-05-06T10:31:28.035Z</time></trkpt><trkpt lat="37.9733817" lon="13.8316417"><ele>15.0</ele><time>2026-05-06T10:31:29.035Z</time></trkpt><trkpt lat="37.97315" lon="13.8317717"><ele>14.5</ele><time>2026-05-06T10:31:30.035Z</time></trkpt><trkpt lat="37.9729133" lon="13.8319033"><ele>14.0</ele><time>2026-05-06T10:31:31.035Z</time></trkpt><trkpt lat="37.9726733" lon="13.8320417"><ele>15.0</ele><time>2026-05-06T10:31:32.035Z</time></trkpt><trkpt lat="37.9724217" lon="13.8321817"><ele>16.0</ele><time>2026-05-06T10:31:33.035Z</time></trkpt><trkpt lat="37.97216" lon="13.8323083"><ele>16.0</ele><time>2026-05-06T10:31:34.035Z</time></trkpt><trkpt lat="37.9718917" lon="13.8324233"><ele>16.0</ele><time>2026-05-06T10:31:35.035Z</time></trkpt><trkpt lat="37.971615" lon="13.8325283"><ele>16.0</ele><time>2026-05-06T10:31:36.035Z</time></trkpt><trkpt lat="37.9713267" lon="13.832615"><ele>16.0</ele><time>2026-05-06T10:31:37.035Z</time></trkpt><trkpt lat="37.9710333" lon="13.83268"><ele>18.0</ele><time>2026-05-06T10:31:38.035Z</time></trkpt><trkpt lat="37.97074" lon="13.8327317"><ele>20.0</ele><time>2026-05-06T10:31:39.035Z</time></trkpt><trkpt lat="37.97044" lon="13.8327667"><ele>20.0</ele><time>2026-05-06T10:31:40.035Z</time></trkpt><trkpt lat="37.97014" lon="13.832785"><ele>20.0</ele><time>2026-05-06T10:31:41.035Z</time></trkpt><trkpt lat="37.9698367" lon="13.83279"><ele>20.0</ele><time>2026-05-06T10:31:42.035Z</time></trkpt><trkpt lat="37.9695333" lon="13.83278"><ele>20.0</ele><time>2026-05-06T10:31:43.034Z</time></trkpt><trkpt lat="37.969235" lon="13.8327533"><ele>20.0</ele><time>2026-05-06T10:31:44.035Z</time></trkpt><trkpt lat="37.9689417" lon="13.8327133"><ele>20.0</ele><time>2026-05-06T10:31:45.035Z</time></trkpt><trkpt lat="37.9686583" lon="13.8326583"><ele>20.0</ele><time>2026-05-06T10:31:46.035Z</time></trkpt><trkpt lat="37.9683783" lon="13.832595"><ele>20.0</ele><time>2026-05-06T10:31:47.035Z</time></trkpt><trkpt lat="37.968105" lon="13.8325167"><ele>21.5</ele><time>2026-05-06T10:31:48.035Z</time></trkpt><trkpt lat="37.9678417" lon="13.8324267"><ele>23.0</ele><time>2026-05-06T10:31:49.035Z</time></trkpt><trkpt lat="37.96759" lon="13.8323233"><ele>22.5</ele><time>2026-05-06T10:31:50.035Z</time></trkpt><trkpt lat="37.9673383" lon="13.8322083"><ele>22.0</ele><time>2026-05-06T10:31:51.035Z</time></trkpt><trkpt lat="37.9670883" lon="13.8320717"><ele>22.0</ele><time>2026-05-06T10:31:52.035Z</time></trkpt><trkpt lat="37.9668383" lon="13.831925"><ele>22.0</ele><time>2026-05-06T10:31:53.035Z</time></trkpt><trkpt lat="37.9665917" lon="13.8317667"><ele>19.0</ele><time>2026-05-06T10:31:54.035Z</time></trkpt><trkpt lat="37.9663517" lon="13.8316"><ele>16.0</ele><time>2026-05-06T10:31:55.035Z</time></trkpt><trkpt lat="37.9661083" lon="13.8314267"><ele>16.0</ele><time>2026-05-06T10:31:56.035Z</time></trkpt><trkpt lat="37.965875" lon="13.8312433"><ele>16.0</ele><time>2026-05-06T10:31:57.035Z</time></trkpt><trkpt lat="37.965655" lon="13.8310567"><ele>16.0</ele><time>2026-05-06T10:31:58.035Z</time></trkpt><trkpt lat="37.965435" lon="13.830875"><ele>16.0</ele><time>2026-05-06T10:31:59.035Z</time></trkpt><trkpt lat="37.9652117" lon="13.8306933"><ele>17.0</ele><time>2026-05-06T10:32:00.035Z</time></trkpt><trkpt lat="37.9649917" lon="13.830515"><ele>18.0</ele><time>2026-05-06T10:32:01.035Z</time></trkpt><trkpt lat="37.9647783" lon="13.8303467"><ele>18.0</ele><time>2026-05-06T10:32:02.034Z</time></trkpt><trkpt lat="37.9645867" lon="13.8301867"><ele>18.0</ele><time>2026-05-06T10:32:03.035Z</time></trkpt><trkpt lat="37.9644017" lon="13.830035"><ele>17.333333333333332</ele><time>2026-05-06T10:32:04.035Z</time></trkpt><trkpt lat="37.9642283" lon="13.8298967"><ele>16.666666666666664</ele><time>2026-05-06T10:32:05.035Z</time></trkpt><trkpt lat="37.9640667" lon="13.8297633"><ele>16.0</ele><time>2026-05-06T10:32:06.035Z</time></trkpt><trkpt lat="37.9639133" lon="13.8296383"><ele>16.0</ele><time>2026-05-06T10:32:07.035Z</time></trkpt><trkpt lat="37.9637667" lon="13.829515"><ele>16.0</ele><time>2026-05-06T10:32:08.035Z</time></trkpt><trkpt lat="37.963635" lon="13.8294033"><ele>16.0</ele><time>2026-05-06T10:32:09.035Z</time></trkpt><trkpt lat="37.96351" lon="13.829305"><ele>15.75</ele><time>2026-05-06T10:32:10.035Z</time></trkpt><trkpt lat="37.9633867" lon="13.8292083"><ele>15.5</ele><time>2026-05-06T10:32:11.035Z</time></trkpt><trkpt lat="37.9632667" lon="13.829125"><ele>15.25</ele><time>2026-05-06T10:32:12.035Z</time></trkpt><trkpt lat="37.9631417" lon="13.829055"><ele>15.0</ele><time>2026-05-06T10:32:13.035Z</time></trkpt><trkpt lat="37.9630117" lon="13.828985"><ele>15.666666666666668</ele><time>2026-05-06T10:32:14.035Z</time></trkpt><trkpt lat="37.962875" lon="13.82889"><ele>16.333333333333336</ele><time>2026-05-06T10:32:15.035Z</time></trkpt><trkpt lat="37.9627367" lon="13.8287817"><ele>17.0</ele><time>2026-05-06T10:32:16.035Z</time></trkpt><trkpt lat="37.9625933" lon="13.8286617"><ele>17.333333333333336</ele><time>2026-05-06T10:32:17.035Z</time></trkpt><trkpt lat="37.9624383" lon="13.82853"><ele>17.666666666666668</ele><time>2026-05-06T10:32:18.035Z</time></trkpt><trkpt lat="37.962275" lon="13.828405"><ele>18.0</ele><time>2026-05-06T10:32:19.035Z</time></trkpt><trkpt lat="37.9621133" lon="13.8282767"><ele>18.333333333333332</ele><time>2026-05-06T10:32:20.035Z</time></trkpt><trkpt lat="37.9619533" lon="13.828145"><ele>18.666666666666664</ele><time>2026-05-06T10:32:21.035Z</time></trkpt><trkpt lat="37.961795" lon="13.8280133"><ele>19.0</ele><time>2026-05-06T10:32:22.035Z</time></trkpt><trkpt lat="37.9616233" lon="13.827885"><ele>19.333333333333332</ele><time>2026-05-06T10:32:23.034Z</time></trkpt><trkpt lat="37.9614583" lon="13.82776"><ele>19.666666666666668</ele><time>2026-05-06T10:32:24.035Z</time></trkpt><trkpt lat="37.9612833" lon="13.82765"><ele>20.0</ele><time>2026-05-06T10:32:25.035Z</time></trkpt><trkpt lat="37.961105" lon="13.8275467"><ele>20.0</ele><time>2026-05-06T10:32:26.035Z</time></trkpt><trkpt lat="37.9609183" lon="13.8274517"><ele>20.0</ele><time>2026-05-06T10:32:27.035Z</time></trkpt><trkpt lat="37.9607317" lon="13.8273617"><ele>20.0</ele><time>2026-05-06T10:32:28.035Z</time></trkpt><trkpt lat="37.9605433" lon="13.827285"><ele>20.0</ele><time>2026-05-06T10:32:29.035Z</time></trkpt><trkpt lat="37.9603533" lon="13.8272167"><ele>20.0</ele><time>2026-05-06T10:32:30.035Z</time></trkpt><trkpt lat="37.9601683" lon="13.8271567"><ele>20.0</ele><time>2026-05-06T10:32:31.035Z</time></trkpt><trkpt lat="37.9599883" lon="13.8271033"><ele>20.0</ele><time>2026-05-06T10:32:32.035Z</time></trkpt><trkpt lat="37.9598117" lon="13.8270633"><ele>20.0</ele><time>2026-05-06T10:32:33.035Z</time></trkpt><trkpt lat="37.9596433" lon="13.8270267"><ele>20.0</ele><time>2026-05-06T10:32:34.035Z</time></trkpt><trkpt lat="37.9594717" lon="13.827"><ele>20.0</ele><time>2026-05-06T10:32:35.035Z</time></trkpt><trkpt lat="37.9593017" lon="13.8269817"><ele>20.0</ele><time>2026-05-06T10:32:36.035Z</time></trkpt><trkpt lat="37.959135" lon="13.826975"><ele>20.0</ele><time>2026-05-06T10:32:37.035Z</time></trkpt><trkpt lat="37.95898" lon="13.8269733"><ele>20.0</ele><time>2026-05-06T10:32:38.035Z</time></trkpt><trkpt lat="37.95883" lon="13.8269783"><ele>20.0</ele><time>2026-05-06T10:32:39.035Z</time></trkpt><trkpt lat="37.95869" lon="13.8269833"><ele>20.0</ele><time>2026-05-06T10:32:40.035Z</time></trkpt><trkpt lat="37.9585567" lon="13.82699"><ele>20.0</ele><time>2026-05-06T10:32:41.035Z</time></trkpt><trkpt lat="37.958415" lon="13.8270067"><ele>20.0</ele><time>2026-05-06T10:32:42.035Z</time></trkpt><trkpt lat="37.95828" lon="13.827025"><ele>20.0</ele><time>2026-05-06T10:32:43.035Z</time></trkpt><trkpt lat="37.958145" lon="13.8270467"><ele>20.0</ele><time>2026-05-06T10:32:44.035Z</time></trkpt><trkpt lat="37.9580217" lon="13.82707"><ele>20.0</ele><time>2026-05-06T10:32:45.035Z</time></trkpt><trkpt lat="37.9578967" lon="13.8270983"><ele>20.0</ele><time>2026-05-06T10:32:46.035Z</time></trkpt><trkpt lat="37.9577717" lon="13.8271317"><ele>20.0</ele><time>2026-05-06T10:32:47.035Z</time></trkpt><trkpt lat="37.9576483" lon="13.8271667"><ele>20.0</ele><time>2026-05-06T10:32:48.035Z</time></trkpt><trkpt lat="37.9575283" lon="13.827205"><ele>20.0</ele><time>2026-05-06T10:32:49.035Z</time></trkpt><trkpt lat="37.9574067" lon="13.827245"><ele>20.75</ele><time>2026-05-06T10:32:50.035Z</time></trkpt><trkpt lat="37.957285" lon="13.8272917"><ele>21.5</ele><time>2026-05-06T10:32:51.035Z</time></trkpt><trkpt lat="37.9571667" lon="13.8273433"><ele>22.25</ele><time>2026-05-06T10:32:52.035Z</time></trkpt><trkpt lat="37.9570533" lon="13.8273983"><ele>23.0</ele><time>2026-05-06T10:32:53.035Z</time></trkpt><trkpt lat="37.9569417" lon="13.827455"><ele>23.0</ele><time>2026-05-06T10:32:54.035Z</time></trkpt><trkpt lat="37.95683" lon="13.8275117"><ele>23.0</ele><time>2026-05-06T10:32:55.035Z</time></trkpt><trkpt lat="37.9567183" lon="13.8275683"><ele>23.0</ele><time>2026-05-06T10:32:56.034Z</time></trkpt><trkpt lat="37.9566117" lon="13.8276333"><ele>23.0</ele><time>2026-05-06T10:32:57.035Z</time></trkpt><trkpt lat="37.9565017" lon="13.8277017"><ele>22.75</ele><time>2026-05-06T10:32:58.035Z</time></trkpt><trkpt lat="37.9563983" lon="13.8277667"><ele>22.5</ele><time>2026-05-06T10:32:59.035Z</time></trkpt><trkpt lat="37.9562983" lon="13.8278367"><ele>22.25</ele><time>2026-05-06T10:33:00.035Z</time></trkpt><trkpt lat="37.9561983" lon="13.8279083"><ele>22.0</ele><time>2026-05-06T10:33:01.035Z</time></trkpt><trkpt lat="37.956105" lon="13.82798"><ele>22.0</ele><time>2026-05-06T10:33:02.035Z</time></trkpt><trkpt lat="37.95601" lon="13.8280533"><ele>22.0</ele><time>2026-05-06T10:33:03.035Z</time></trkpt><trkpt lat="37.955915" lon="13.8281283"><ele>22.0</ele><time>2026-05-06T10:33:04.035Z</time></trkpt><trkpt lat="37.955815" lon="13.82821"><ele>22.0</ele><time>2026-05-06T10:33:05.035Z</time></trkpt><trkpt lat="37.9557167" lon="13.8282883"><ele>22.25</ele><time>2026-05-06T10:33:06.035Z</time></trkpt><trkpt lat="37.9556083" lon="13.8283667"><ele>22.5</ele><time>2026-05-06T10:33:07.035Z</time></trkpt><trkpt lat="37.9555017" lon="13.828445"><ele>22.75</ele><time>2026-05-06T10:33:08.035Z</time></trkpt><trkpt lat="37.9554033" lon="13.82853"><ele>23.0</ele><time>2026-05-06T10:33:09.034Z</time></trkpt><trkpt lat="37.9552933" lon="13.8286167"><ele>23.0</ele><time>2026-05-06T10:33:10.035Z</time></trkpt><trkpt lat="37.9551917" lon="13.828695"><ele>23.0</ele><time>2026-05-06T10:33:11.035Z</time></trkpt><trkpt lat="37.9550867" lon="13.82877"><ele>23.0</ele><time>2026-05-06T10:33:12.035Z</time></trkpt><trkpt lat="37.95499" lon="13.82885"><ele>23.0</ele><time>2026-05-06T10:33:13.035Z</time></trkpt><trkpt lat="37.954895" lon="13.8289233"><ele>23.75</ele><time>2026-05-06T10:33:14.035Z</time></trkpt><trkpt lat="37.9548017" lon="13.829"><ele>24.5</ele><time>2026-05-06T10:33:15.035Z</time></trkpt><trkpt lat="37.9547017" lon="13.8290767"><ele>25.25</ele><time>2026-05-06T10:33:16.035Z</time></trkpt><trkpt lat="37.9546017" lon="13.8291583"><ele>26.0</ele><time>2026-05-06T10:33:17.035Z</time></trkpt><trkpt lat="37.954505" lon="13.8292317"><ele>25.5</ele><time>2026-05-06T10:33:18.035Z</time></trkpt><trkpt lat="37.9544083" lon="13.82931"><ele>25.0</ele><time>2026-05-06T10:33:19.035Z</time></trkpt><trkpt lat="37.9543083" lon="13.8293933"><ele>24.5</ele><time>2026-05-06T10:33:20.035Z</time></trkpt><trkpt lat="37.9542033" lon="13.82947"><ele>24.0</ele><time>2026-05-06T10:33:21.035Z</time></trkpt><trkpt lat="37.954095" lon="13.8295517"><ele>24.0</ele><time>2026-05-06T10:33:22.035Z</time></trkpt><trkpt lat="37.9539867" lon="13.829635"><ele>24.0</ele><time>2026-05-06T10:33:23.035Z</time></trkpt><trkpt lat="37.9538833" lon="13.82971"><ele>24.0</ele><time>2026-05-06T10:33:24.035Z</time></trkpt><trkpt lat="37.9537767" lon="13.8297817"><ele>24.0</ele><time>2026-05-06T10:33:25.035Z</time></trkpt><trkpt lat="37.95367" lon="13.8298517"><ele>24.0</ele><time>2026-05-06T10:33:26.035Z</time></trkpt><trkpt lat="37.9535583" lon="13.82992"><ele>24.0</ele><time>2026-05-06T10:33:27.035Z</time></trkpt><trkpt lat="37.953445" lon="13.8299967"><ele>24.0</ele><time>2026-05-06T10:33:28.035Z</time></trkpt><trkpt lat="37.9533333" lon="13.8300717"><ele>24.0</ele><time>2026-05-06T10:33:29.034Z</time></trkpt><trkpt lat="37.9532267" lon="13.8301433"><ele>24.25</ele><time>2026-05-06T10:33:30.035Z</time></trkpt><trkpt lat="37.9531217" lon="13.8302117"><ele>24.5</ele><time>2026-05-06T10:33:31.035Z</time></trkpt><trkpt lat="37.953015" lon="13.8302767"><ele>24.75</ele><time>2026-05-06T10:33:32.035Z</time></trkpt><trkpt lat="37.95291" lon="13.83035"><ele>25.0</ele><time>2026-05-06T10:33:33.035Z</time></trkpt><trkpt lat="37.952805" lon="13.83042"><ele>25.0</ele><time>2026-05-06T10:33:34.035Z</time></trkpt><trkpt lat="37.9526933" lon="13.83049"><ele>25.0</ele><time>2026-05-06T10:33:35.035Z</time></trkpt><trkpt lat="37.9525833" lon="13.8305583"><ele>25.0</ele><time>2026-05-06T10:33:36.034Z</time></trkpt><trkpt lat="37.9524767" lon="13.8306283"><ele>25.0</ele><time>2026-05-06T10:33:37.035Z</time></trkpt><trkpt lat="37.9523633" lon="13.8307017"><ele>25.25</ele><time>2026-05-06T10:33:38.034Z</time></trkpt><trkpt lat="37.952255" lon="13.8307717"><ele>25.5</ele><time>2026-05-06T10:33:39.035Z</time></trkpt><trkpt lat="37.9521433" lon="13.830845"><ele>25.75</ele><time>2026-05-06T10:33:40.035Z</time></trkpt><trkpt lat="37.95203" lon="13.83092"><ele>26.0</ele><time>2026-05-06T10:33:41.035Z</time></trkpt><trkpt lat="37.9519117" lon="13.8309933"><ele>26.0</ele><time>2026-05-06T10:33:42.035Z</time></trkpt><trkpt lat="37.9517917" lon="13.83107"><ele>26.0</ele><time>2026-05-06T10:33:43.035Z</time></trkpt><trkpt lat="37.95168" lon="13.8311467"><ele>26.0</ele><time>2026-05-06T10:33:44.035Z</time></trkpt><trkpt lat="37.9515617" lon="13.8312267"><ele>26.0</ele><time>2026-05-06T10:33:45.035Z</time></trkpt><trkpt lat="37.9514417" lon="13.8313033"><ele>26.25</ele><time>2026-05-06T10:33:46.035Z</time></trkpt><trkpt lat="37.9513233" lon="13.83138"><ele>26.5</ele><time>2026-05-06T10:33:47.035Z</time></trkpt><trkpt lat="37.95121" lon="13.8314567"><ele>26.75</ele><time>2026-05-06T10:33:48.035Z</time></trkpt><trkpt lat="37.951075" lon="13.8315417"><ele>27.0</ele><time>2026-05-06T10:33:49.034Z</time></trkpt><trkpt lat="37.9509217" lon="13.8316333"><ele>27.0</ele><time>2026-05-06T10:33:50.035Z</time></trkpt><trkpt lat="37.9507717" lon="13.8317317"><ele>27.0</ele><time>2026-05-06T10:33:51.035Z</time></trkpt><trkpt lat="37.9506233" lon="13.8318267"><ele>27.0</ele><time>2026-05-06T10:33:52.035Z</time></trkpt><trkpt lat="37.950485" lon="13.831915"><ele>27.0</ele><time>2026-05-06T10:33:53.035Z</time></trkpt><trkpt lat="37.9503583" lon="13.8319983"><ele>27.0</ele><time>2026-05-06T10:33:54.035Z</time></trkpt><trkpt lat="37.9502417" lon="13.8320717"><ele>27.0</ele><time>2026-05-06T10:33:55.035Z</time></trkpt><trkpt lat="37.9501267" lon="13.8321467"><ele>27.0</ele><time>2026-05-06T10:33:56.034Z</time></trkpt><trkpt lat="37.9500067" lon="13.83222"><ele>27.5</ele><time>2026-05-06T10:33:57.035Z</time></trkpt><trkpt lat="37.94988" lon="13.8322817"><ele>28.0</ele><time>2026-05-06T10:33:58.035Z</time></trkpt><trkpt lat="37.9497517" lon="13.8323267"><ele>28.5</ele><time>2026-05-06T10:33:59.035Z</time></trkpt><trkpt lat="37.94962" lon="13.8323817"><ele>29.0</ele><time>2026-05-06T10:34:00.034Z</time></trkpt><trkpt lat="37.9494833" lon="13.8324617"><ele>29.0</ele><time>2026-05-06T10:34:01.035Z</time></trkpt><trkpt lat="37.949335" lon="13.8325633"><ele>29.0</ele><time>2026-05-06T10:34:02.035Z</time></trkpt><trkpt lat="37.949165" lon="13.8326733"><ele>29.0</ele><time>2026-05-06T10:34:03.035Z</time></trkpt><trkpt lat="37.948995" lon="13.83279"><ele>28.666666666666664</ele><time>2026-05-06T10:34:04.035Z</time></trkpt><trkpt lat="37.9488117" lon="13.8329083"><ele>28.333333333333336</ele><time>2026-05-06T10:34:05.035Z</time></trkpt><trkpt lat="37.9486267" lon="13.833025"><ele>28.0</ele><time>2026-05-06T10:34:06.035Z</time></trkpt><trkpt lat="37.9484283" lon="13.8331533"><ele>30.0</ele><time>2026-05-06T10:34:07.035Z</time></trkpt><trkpt lat="37.9482317" lon="13.83328"><ele>32.0</ele><time>2026-05-06T10:34:08.035Z</time></trkpt><trkpt lat="37.9480267" lon="13.83341"><ele>30.5</ele><time>2026-05-06T10:34:09.035Z</time></trkpt><trkpt lat="37.9478217" lon="13.833545"><ele>29.0</ele><time>2026-05-06T10:34:10.035Z</time></trkpt><trkpt lat="37.94762" lon="13.83368"><ele>29.5</ele><time>2026-05-06T10:34:11.035Z</time></trkpt><trkpt lat="37.9474033" lon="13.8338167"><ele>30.0</ele><time>2026-05-06T10:34:12.035Z</time></trkpt><trkpt lat="37.9471933" lon="13.8339633"><ele>30.0</ele><time>2026-05-06T10:34:13.035Z</time></trkpt><trkpt lat="37.9469817" lon="13.834105"><ele>30.0</ele><time>2026-05-06T10:34:14.035Z</time></trkpt><trkpt lat="37.946765" lon="13.8342583"><ele>29.5</ele><time>2026-05-06T10:34:15.035Z</time></trkpt><trkpt lat="37.94655" lon="13.834415"><ele>29.0</ele><time>2026-05-06T10:34:16.035Z</time></trkpt><trkpt lat="37.9463333" lon="13.8345817"><ele>29.0</ele><time>2026-05-06T10:34:17.035Z</time></trkpt><trkpt lat="37.9461183" lon="13.8347533"><ele>29.0</ele><time>2026-05-06T10:34:18.035Z</time></trkpt><trkpt lat="37.9459083" lon="13.8349267"><ele>30.0</ele><time>2026-05-06T10:34:19.035Z</time></trkpt><trkpt lat="37.9456983" lon="13.8351083"><ele>31.0</ele><time>2026-05-06T10:34:20.035Z</time></trkpt><trkpt lat="37.94549" lon="13.8352933"><ele>31.0</ele><time>2026-05-06T10:34:21.035Z</time></trkpt><trkpt lat="37.9452817" lon="13.8354883"><ele>31.0</ele><time>2026-05-06T10:34:22.035Z</time></trkpt><trkpt lat="37.94507" lon="13.8356867"><ele>32.0</ele><time>2026-05-06T10:34:23.035Z</time></trkpt><trkpt lat="37.9448483" lon="13.8358983"><ele>33.0</ele><time>2026-05-06T10:34:24.035Z</time></trkpt><trkpt lat="37.9446317" lon="13.836105"><ele>33.0</ele><time>2026-05-06T10:34:25.035Z</time></trkpt><trkpt lat="37.9444267" lon="13.8363083"><ele>33.0</ele><time>2026-05-06T10:34:26.035Z</time></trkpt><trkpt lat="37.9442233" lon="13.8365183"><ele>33.0</ele><time>2026-05-06T10:34:27.035Z</time></trkpt><trkpt lat="37.944025" lon="13.8367283"><ele>33.0</ele><time>2026-05-06T10:34:28.035Z</time></trkpt><trkpt lat="37.943835" lon="13.836935"><ele>33.0</ele><time>2026-05-06T10:34:29.035Z</time></trkpt><trkpt lat="37.943645" lon="13.8371433"><ele>33.0</ele><time>2026-05-06T10:34:30.035Z</time></trkpt><trkpt lat="37.9434567" lon="13.8373483"><ele>33.5</ele><time>2026-05-06T10:34:31.035Z</time></trkpt><trkpt lat="37.94327" lon="13.837555"><ele>34.0</ele><time>2026-05-06T10:34:32.035Z</time></trkpt><trkpt lat="37.9430883" lon="13.8377583"><ele>34.0</ele><time>2026-05-06T10:34:33.035Z</time></trkpt><trkpt lat="37.9429033" lon="13.837965"><ele>34.0</ele><time>2026-05-06T10:34:34.035Z</time></trkpt><trkpt lat="37.9427183" lon="13.8381683"><ele>36.0</ele><time>2026-05-06T10:34:35.035Z</time></trkpt><trkpt lat="37.9425333" lon="13.8383733"><ele>38.0</ele><time>2026-05-06T10:34:36.035Z</time></trkpt><trkpt lat="37.9423517" lon="13.8385783"><ele>38.0</ele><time>2026-05-06T10:34:37.035Z</time></trkpt><trkpt lat="37.9421683" lon="13.8387867"><ele>38.0</ele><time>2026-05-06T10:34:38.035Z</time></trkpt><trkpt lat="37.9419833" lon="13.838995"><ele>38.0</ele><time>2026-05-06T10:34:39.035Z</time></trkpt><trkpt lat="37.9417967" lon="13.8392067"><ele>38.0</ele><time>2026-05-06T10:34:40.035Z</time></trkpt><trkpt lat="37.94161" lon="13.8394183"><ele>38.5</ele><time>2026-05-06T10:34:41.035Z</time></trkpt><trkpt lat="37.941425" lon="13.8396283"><ele>39.0</ele><time>2026-05-06T10:34:42.035Z</time></trkpt><trkpt lat="37.941235" lon="13.83984"><ele>39.0</ele><time>2026-05-06T10:34:43.035Z</time></trkpt><trkpt lat="37.9410433" lon="13.8400517"><ele>39.0</ele><time>2026-05-06T10:34:44.035Z</time></trkpt><trkpt lat="37.940855" lon="13.840265"><ele>41.0</ele><time>2026-05-06T10:34:45.034Z</time></trkpt><trkpt lat="37.9406617" lon="13.8404817"><ele>43.0</ele><time>2026-05-06T10:34:46.035Z</time></trkpt><trkpt lat="37.9404633" lon="13.8407083"><ele>43.0</ele><time>2026-05-06T10:34:47.035Z</time></trkpt><trkpt lat="37.9402633" lon="13.840935"><ele>43.0</ele><time>2026-05-06T10:34:48.035Z</time></trkpt><trkpt lat="37.9400633" lon="13.8411617"><ele>42.5</ele><time>2026-05-06T10:34:49.035Z</time></trkpt><trkpt lat="37.9398617" lon="13.8413883"><ele>42.0</ele><time>2026-05-06T10:34:50.035Z</time></trkpt><trkpt lat="37.939665" lon="13.8416133"><ele>40.5</ele><time>2026-05-06T10:34:51.035Z</time></trkpt><trkpt lat="37.9394667" lon="13.841845"><ele>39.0</ele><time>2026-05-06T10:34:52.035Z</time></trkpt><trkpt lat="37.9392617" lon="13.84207"><ele>40.5</ele><time>2026-05-06T10:34:53.035Z</time></trkpt><trkpt lat="37.9390617" lon="13.8423"><ele>42.0</ele><time>2026-05-06T10:34:54.035Z</time></trkpt><trkpt lat="37.9388583" lon="13.8425317"><ele>41.0</ele><time>2026-05-06T10:34:55.035Z</time></trkpt><trkpt lat="37.938655" lon="13.84277"><ele>40.0</ele><time>2026-05-06T10:34:56.035Z</time></trkpt><trkpt lat="37.9384517" lon="13.84301"><ele>40.5</ele><time>2026-05-06T10:34:57.035Z</time></trkpt><trkpt lat="37.938255" lon="13.84325"><ele>41.0</ele><time>2026-05-06T10:34:58.035Z</time></trkpt><trkpt lat="37.938055" lon="13.8434933"><ele>41.0</ele><time>2026-05-06T10:34:59.035Z</time></trkpt><trkpt lat="37.937855" lon="13.8437383"><ele>41.0</ele><time>2026-05-06T10:35:00.035Z</time></trkpt><trkpt lat="37.9376567" lon="13.8439817"><ele>42.0</ele><time>2026-05-06T10:35:01.035Z</time></trkpt><trkpt lat="37.9374583" lon="13.8442267"><ele>43.0</ele><time>2026-05-06T10:35:02.035Z</time></trkpt><trkpt lat="37.9372633" lon="13.8444667"><ele>43.0</ele><time>2026-05-06T10:35:03.034Z</time></trkpt><trkpt lat="37.9370683" lon="13.844705"><ele>43.0</ele><time>2026-05-06T10:35:04.035Z</time></trkpt><trkpt lat="37.9368683" lon="13.8449417"><ele>44.0</ele><time>2026-05-06T10:35:05.035Z</time></trkpt><trkpt lat="37.9366783" lon="13.8451667"><ele>45.0</ele><time>2026-05-06T10:35:06.035Z</time></trkpt><trkpt lat="37.9364933" lon="13.8453867"><ele>45.0</ele><time>2026-05-06T10:35:07.035Z</time></trkpt><trkpt lat="37.936315" lon="13.8456067"><ele>45.0</ele><time>2026-05-06T10:35:08.035Z</time></trkpt><trkpt lat="37.9361367" lon="13.8458317"><ele>44.0</ele><time>2026-05-06T10:35:09.035Z</time></trkpt><trkpt lat="37.9359617" lon="13.8460533"><ele>43.0</ele><time>2026-05-06T10:35:10.035Z</time></trkpt><trkpt lat="37.9357833" lon="13.8462783"><ele>43.0</ele><time>2026-05-06T10:35:11.035Z</time></trkpt><trkpt lat="37.9356033" lon="13.8465"><ele>43.0</ele><time>2026-05-06T10:35:12.035Z</time></trkpt><trkpt lat="37.9354167" lon="13.846725"><ele>43.0</ele><time>2026-05-06T10:35:13.035Z</time></trkpt><trkpt lat="37.9352333" lon="13.84695"><ele>43.0</ele><time>2026-05-06T10:35:14.035Z</time></trkpt><trkpt lat="37.9350533" lon="13.8471733"><ele>44.0</ele><time>2026-05-06T10:35:15.035Z</time></trkpt><trkpt lat="37.93487" lon="13.8473967"><ele>45.0</ele><time>2026-05-06T10:35:16.034Z</time></trkpt><trkpt lat="37.93468" lon="13.847615"><ele>44.5</ele><time>2026-05-06T10:35:17.035Z</time></trkpt><trkpt lat="37.9344917" lon="13.84783"><ele>44.0</ele><time>2026-05-06T10:35:18.035Z</time></trkpt><trkpt lat="37.9343" lon="13.84804"><ele>45.0</ele><time>2026-05-06T10:35:19.035Z</time></trkpt><trkpt lat="37.9341067" lon="13.8482517"><ele>46.0</ele><time>2026-05-06T10:35:20.035Z</time></trkpt><trkpt lat="37.9339083" lon="13.8484533"><ele>45.5</ele><time>2026-05-06T10:35:21.035Z</time></trkpt><trkpt lat="37.9336983" lon="13.84865"><ele>45.0</ele><time>2026-05-06T10:35:22.035Z</time></trkpt><trkpt lat="37.9334883" lon="13.8488417"><ele>46.5</ele><time>2026-05-06T10:35:23.035Z</time></trkpt><trkpt lat="37.93328" lon="13.8490283"><ele>48.0</ele><time>2026-05-06T10:35:24.035Z</time></trkpt><trkpt lat="37.9330683" lon="13.8492067"><ele>47.5</ele><time>2026-05-06T10:35:25.035Z</time></trkpt><trkpt lat="37.9328533" lon="13.8493833"><ele>47.0</ele><time>2026-05-06T10:35:26.035Z</time></trkpt><trkpt lat="37.9326367" lon="13.8495517"><ele>47.0</ele><time>2026-05-06T10:35:27.035Z</time></trkpt><trkpt lat="37.932425" lon="13.8497083"><ele>47.0</ele><time>2026-05-06T10:35:28.035Z</time></trkpt><trkpt lat="37.9322083" lon="13.849865"><ele>47.0</ele><time>2026-05-06T10:35:29.035Z</time></trkpt><trkpt lat="37.93199" lon="13.8500167"><ele>47.0</ele><time>2026-05-06T10:35:30.035Z</time></trkpt><trkpt lat="37.93176" lon="13.8501683"><ele>47.5</ele><time>2026-05-06T10:35:31.035Z</time></trkpt><trkpt lat="37.931525" lon="13.8503133"><ele>48.0</ele><time>2026-05-06T10:35:32.035Z</time></trkpt><trkpt lat="37.9312933" lon="13.8504517"><ele>48.0</ele><time>2026-05-06T10:35:33.035Z</time></trkpt><trkpt lat="37.9310583" lon="13.85058"><ele>48.0</ele><time>2026-05-06T10:35:34.035Z</time></trkpt><trkpt lat="37.9308267" lon="13.850705"><ele>49.0</ele><time>2026-05-06T10:35:35.035Z</time></trkpt><trkpt lat="37.9305933" lon="13.8508267"><ele>50.0</ele><time>2026-05-06T10:35:36.035Z</time></trkpt><trkpt lat="37.930355" lon="13.8509483"><ele>49.5</ele><time>2026-05-06T10:35:37.035Z</time></trkpt><trkpt lat="37.93012" lon="13.85107"><ele>49.0</ele><time>2026-05-06T10:35:38.035Z</time></trkpt><trkpt lat="37.9298833" lon="13.851195"><ele>50.0</ele><time>2026-05-06T10:35:39.035Z</time></trkpt><trkpt lat="37.9296483" lon="13.85132"><ele>51.0</ele><time>2026-05-06T10:35:40.035Z</time></trkpt><trkpt lat="37.9294133" lon="13.851445"><ele>51.5</ele><time>2026-05-06T10:35:41.035Z</time></trkpt><trkpt lat="37.92918" lon="13.8515667"><ele>52.0</ele><time>2026-05-06T10:35:42.035Z</time></trkpt><trkpt lat="37.9289433" lon="13.8516883"><ele>52.0</ele><time>2026-05-06T10:35:43.035Z</time></trkpt><trkpt lat="37.9287033" lon="13.8518167"><ele>52.0</ele><time>2026-05-06T10:35:44.035Z</time></trkpt><trkpt lat="37.9284717" lon="13.8519433"><ele>52.0</ele><time>2026-05-06T10:35:45.034Z</time></trkpt><trkpt lat="37.9282367" lon="13.8520683"><ele>52.0</ele><time>2026-05-06T10:35:46.035Z</time></trkpt><trkpt lat="37.92801" lon="13.85219"><ele>52.0</ele><time>2026-05-06T10:35:47.035Z</time></trkpt><trkpt lat="37.9277933" lon="13.8523067"><ele>52.0</ele><time>2026-05-06T10:35:48.035Z</time></trkpt><trkpt lat="37.9275717" lon="13.8524233"><ele>51.5</ele><time>2026-05-06T10:35:49.035Z</time></trkpt><trkpt lat="37.9273533" lon="13.8525383"><ele>51.0</ele><time>2026-05-06T10:35:50.035Z</time></trkpt><trkpt lat="37.92713" lon="13.852655"><ele>51.0</ele><time>2026-05-06T10:35:51.035Z</time></trkpt><trkpt lat="37.9269083" lon="13.8527717"><ele>51.0</ele><time>2026-05-06T10:35:52.035Z</time></trkpt><trkpt lat="37.9266933" lon="13.8528867"><ele>51.0</ele><time>2026-05-06T10:35:53.035Z</time></trkpt><trkpt lat="37.9264767" lon="13.852995"><ele>51.0</ele><time>2026-05-06T10:35:54.035Z</time></trkpt><trkpt lat="37.9262617" lon="13.8531083"><ele>51.0</ele><time>2026-05-06T10:35:55.035Z</time></trkpt><trkpt lat="37.9260467" lon="13.8532233"><ele>51.0</ele><time>2026-05-06T10:35:56.034Z</time></trkpt><trkpt lat="37.92583" lon="13.8533333"><ele>53.0</ele><time>2026-05-06T10:35:57.035Z</time></trkpt><trkpt lat="37.9256167" lon="13.8534433"><ele>55.0</ele><time>2026-05-06T10:35:58.035Z</time></trkpt><trkpt lat="37.9254083" lon="13.8535483"><ele>55.0</ele><time>2026-05-06T10:35:59.035Z</time></trkpt><trkpt lat="37.9252017" lon="13.8536567"><ele>55.0</ele><time>2026-05-06T10:36:00.035Z</time></trkpt><trkpt lat="37.924995" lon="13.8537667"><ele>55.0</ele><time>2026-05-06T10:36:01.035Z</time></trkpt><trkpt lat="37.924785" lon="13.8538767"><ele>55.0</ele><time>2026-05-06T10:36:02.035Z</time></trkpt><trkpt lat="37.9245767" lon="13.8539867"><ele>55.0</ele><time>2026-05-06T10:36:03.035Z</time></trkpt><trkpt lat="37.9243817" lon="13.8540933"><ele>55.0</ele><time>2026-05-06T10:36:04.035Z</time></trkpt><trkpt lat="37.924185" lon="13.85419"><ele>55.0</ele><time>2026-05-06T10:36:05.035Z</time></trkpt><trkpt lat="37.923995" lon="13.8542883"><ele>55.0</ele><time>2026-05-06T10:36:06.035Z</time></trkpt><trkpt lat="37.923805" lon="13.85439"><ele>55.0</ele><time>2026-05-06T10:36:07.035Z</time></trkpt><trkpt lat="37.9236133" lon="13.85449"><ele>55.0</ele><time>2026-05-06T10:36:08.035Z</time></trkpt><trkpt lat="37.9234267" lon="13.8545867"><ele>55.0</ele><time>2026-05-06T10:36:09.035Z</time></trkpt><trkpt lat="37.9232433" lon="13.8546833"><ele>55.0</ele><time>2026-05-06T10:36:10.035Z</time></trkpt><trkpt lat="37.9230517" lon="13.85478"><ele>54.666666666666664</ele><time>2026-05-06T10:36:11.035Z</time></trkpt><trkpt lat="37.922855" lon="13.85488"><ele>54.33333333333333</ele><time>2026-05-06T10:36:12.035Z</time></trkpt><trkpt lat="37.922655" lon="13.85498"><ele>54.0</ele><time>2026-05-06T10:36:13.035Z</time></trkpt><trkpt lat="37.9224533" lon="13.8550833"><ele>54.66666666666667</ele><time>2026-05-06T10:36:14.035Z</time></trkpt><trkpt lat="37.92226" lon="13.8551867"><ele>55.333333333333336</ele><time>2026-05-06T10:36:15.034Z</time></trkpt><trkpt lat="37.922065" lon="13.8552883"><ele>56.0</ele><time>2026-05-06T10:36:16.034Z</time></trkpt><trkpt lat="37.9218633" lon="13.855395"><ele>56.66666666666667</ele><time>2026-05-06T10:36:17.034Z</time></trkpt><trkpt lat="37.9216683" lon="13.8554967"><ele>57.33333333333333</ele><time>2026-05-06T10:36:18.034Z</time></trkpt><trkpt lat="37.9214683" lon="13.8556017"><ele>58.0</ele><time>2026-05-06T10:36:19.034Z</time></trkpt><trkpt lat="37.9212683" lon="13.8557033"><ele>58.0</ele><time>2026-05-06T10:36:20.034Z</time></trkpt><trkpt lat="37.92107" lon="13.8558067"><ele>58.0</ele><time>2026-05-06T10:36:21.034Z</time></trkpt><trkpt lat="37.9208633" lon="13.8559117"><ele>58.0</ele><time>2026-05-06T10:36:22.034Z</time></trkpt><trkpt lat="37.9206583" lon="13.8560133"><ele>58.0</ele><time>2026-05-06T10:36:23.034Z</time></trkpt><trkpt lat="37.9204517" lon="13.8561183"><ele>58.0</ele><time>2026-05-06T10:36:24.033Z</time></trkpt><trkpt lat="37.92025" lon="13.8562217"><ele>58.0</ele><time>2026-05-06T10:36:25.034Z</time></trkpt><trkpt lat="37.9200483" lon="13.8563217"><ele>58.666666666666664</ele><time>2026-05-06T10:36:26.033Z</time></trkpt><trkpt lat="37.9198417" lon="13.8564183"><ele>59.33333333333333</ele><time>2026-05-06T10:36:27.034Z</time></trkpt><trkpt lat="37.9196333" lon="13.8565083"><ele>60.0</ele><time>2026-05-06T10:36:28.034Z</time></trkpt><trkpt lat="37.9194217" lon="13.85659"><ele>60.5</ele><time>2026-05-06T10:36:29.034Z</time></trkpt><trkpt lat="37.9192033" lon="13.8566633"><ele>61.0</ele><time>2026-05-06T10:36:30.034Z</time></trkpt><trkpt lat="37.9189833" lon="13.85673"><ele>60.5</ele><time>2026-05-06T10:36:31.034Z</time></trkpt><trkpt lat="37.918755" lon="13.8567867"><ele>60.0</ele><time>2026-05-06T10:36:32.034Z</time></trkpt><trkpt lat="37.9185267" lon="13.8568383"><ele>60.5</ele><time>2026-05-06T10:36:33.034Z</time></trkpt><trkpt lat="37.9183017" lon="13.8568833"><ele>61.0</ele><time>2026-05-06T10:36:34.034Z</time></trkpt><trkpt lat="37.9180717" lon="13.8569283"><ele>61.0</ele><time>2026-05-06T10:36:35.034Z</time></trkpt><trkpt lat="37.91784" lon="13.8569617"><ele>61.0</ele><time>2026-05-06T10:36:36.034Z</time></trkpt><trkpt lat="37.9176017" lon="13.85699"><ele>62.0</ele><time>2026-05-06T10:36:37.034Z</time></trkpt><trkpt lat="37.9173717" lon="13.8570133"><ele>63.0</ele><time>2026-05-06T10:36:38.034Z</time></trkpt><trkpt lat="37.91714" lon="13.8570233"><ele>63.0</ele><time>2026-05-06T10:36:39.034Z</time></trkpt><trkpt lat="37.9169067" lon="13.8570233"><ele>63.0</ele><time>2026-05-06T10:36:40.034Z</time></trkpt><trkpt lat="37.916675" lon="13.8570033"><ele>62.0</ele><time>2026-05-06T10:36:41.034Z</time></trkpt><trkpt lat="37.9164417" lon="13.85698"><ele>61.0</ele><time>2026-05-06T10:36:42.034Z</time></trkpt><trkpt lat="37.91621" lon="13.8569483"><ele>61.0</ele><time>2026-05-06T10:36:43.034Z</time></trkpt><trkpt lat="37.915965" lon="13.8569083"><ele>61.0</ele><time>2026-05-06T10:36:44.034Z</time></trkpt><trkpt lat="37.91572" lon="13.8568683"><ele>62.0</ele><time>2026-05-06T10:36:45.034Z</time></trkpt><trkpt lat="37.91547" lon="13.8568233"><ele>63.0</ele><time>2026-05-06T10:36:46.034Z</time></trkpt><trkpt lat="37.9152167" lon="13.85677"><ele>66.5</ele><time>2026-05-06T10:36:47.034Z</time></trkpt><trkpt lat="37.9149667" lon="13.856715"><ele>70.0</ele><time>2026-05-06T10:36:48.034Z</time></trkpt><trkpt lat="37.914715" lon="13.85666"><ele>70.0</ele><time>2026-05-06T10:36:49.034Z</time></trkpt><trkpt lat="37.9144667" lon="13.8566033"><ele>70.0</ele><time>2026-05-06T10:36:50.034Z</time></trkpt><trkpt lat="37.91421" lon="13.8565533"><ele>70.5</ele><time>2026-05-06T10:36:51.034Z</time></trkpt><trkpt lat="37.91397" lon="13.8564983"><ele>71.0</ele><time>2026-05-06T10:36:52.034Z</time></trkpt><trkpt lat="37.9137183" lon="13.8564483"><ele>71.0</ele><time>2026-05-06T10:36:53.034Z</time></trkpt><trkpt lat="37.91347" lon="13.8563983"><ele>71.0</ele><time>2026-05-06T10:36:54.034Z</time></trkpt><trkpt lat="37.9132183" lon="13.856345"><ele>71.0</ele><time>2026-05-06T10:36:55.034Z</time></trkpt><trkpt lat="37.9129583" lon="13.8562983"><ele>71.0</ele><time>2026-05-06T10:36:56.034Z</time></trkpt><trkpt lat="37.91271" lon="13.8562467"><ele>68.5</ele><time>2026-05-06T10:36:57.034Z</time></trkpt><trkpt lat="37.9124533" lon="13.8561933"><ele>66.0</ele><time>2026-05-06T10:36:58.034Z</time></trkpt><trkpt lat="37.9122033" lon="13.8561433"><ele>66.0</ele><time>2026-05-06T10:36:59.034Z</time></trkpt><trkpt lat="37.9119517" lon="13.85609"><ele>66.0</ele><time>2026-05-06T10:37:00.034Z</time></trkpt><trkpt lat="37.9117033" lon="13.8560317"><ele>68.0</ele><time>2026-05-06T10:37:01.034Z</time></trkpt><trkpt lat="37.9114517" lon="13.8559633"><ele>70.0</ele><time>2026-05-06T10:37:02.034Z</time></trkpt><trkpt lat="37.9112017" lon="13.8558817"><ele>70.5</ele><time>2026-05-06T10:37:03.034Z</time></trkpt><trkpt lat="37.910955" lon="13.8557883"><ele>71.0</ele><time>2026-05-06T10:37:04.034Z</time></trkpt><trkpt lat="37.9107133" lon="13.8556867"><ele>73.5</ele><time>2026-05-06T10:37:05.034Z</time></trkpt><trkpt lat="37.91047" lon="13.85557"><ele>76.0</ele><time>2026-05-06T10:37:06.034Z</time></trkpt><trkpt lat="37.9102333" lon="13.8554483"><ele>77.5</ele><time>2026-05-06T10:37:07.034Z</time></trkpt><trkpt lat="37.9100033" lon="13.8553383"><ele>79.0</ele><time>2026-05-06T10:37:08.034Z</time></trkpt><trkpt lat="37.9097617" lon="13.8552283"><ele>86.5</ele><time>2026-05-06T10:37:09.034Z</time></trkpt><trkpt lat="37.9095283" lon="13.8551183"><ele>94.0</ele><time>2026-05-06T10:37:10.034Z</time></trkpt><trkpt lat="37.9092883" lon="13.85501"><ele>90.5</ele><time>2026-05-06T10:37:11.034Z</time></trkpt><trkpt lat="37.9090383" lon="13.8549083"><ele>87.0</ele><time>2026-05-06T10:37:12.034Z</time></trkpt><trkpt lat="37.9088" lon="13.8548017"><ele>87.0</ele><time>2026-05-06T10:37:13.034Z</time></trkpt><trkpt lat="37.90856" lon="13.8547083"><ele>87.0</ele><time>2026-05-06T10:37:14.034Z</time></trkpt><trkpt lat="37.9083033" lon="13.8546333"><ele>83.0</ele><time>2026-05-06T10:37:15.034Z</time></trkpt><trkpt lat="37.9080483" lon="13.8545667"><ele>79.0</ele><time>2026-05-06T10:37:16.034Z</time></trkpt><trkpt lat="37.90779" lon="13.8545217"><ele>76.0</ele><time>2026-05-06T10:37:17.034Z</time></trkpt><trkpt lat="37.907535" lon="13.8544867"><ele>73.0</ele><time>2026-05-06T10:37:18.034Z</time></trkpt><trkpt lat="37.90728" lon="13.8544667"><ele>73.0</ele><time>2026-05-06T10:37:19.034Z</time></trkpt><trkpt lat="37.9070283" lon="13.854465"><ele>73.0</ele><time>2026-05-06T10:37:20.034Z</time></trkpt><trkpt lat="37.9067717" lon="13.8544783"><ele>73.5</ele><time>2026-05-06T10:37:21.034Z</time></trkpt><trkpt lat="37.9065233" lon="13.8545"><ele>74.0</ele><time>2026-05-06T10:37:22.034Z</time></trkpt><trkpt lat="37.90627" lon="13.85454"><ele>74.0</ele><time>2026-05-06T10:37:23.034Z</time></trkpt><trkpt lat="37.906015" lon="13.8545883"><ele>74.0</ele><time>2026-05-06T10:37:24.034Z</time></trkpt><trkpt lat="37.9057667" lon="13.8546567"><ele>74.0</ele><time>2026-05-06T10:37:25.033Z</time></trkpt><trkpt lat="37.9055183" lon="13.85474"><ele>74.0</ele><time>2026-05-06T10:37:26.034Z</time></trkpt><trkpt lat="37.9052817" lon="13.85484"><ele>75.5</ele><time>2026-05-06T10:37:27.034Z</time></trkpt><trkpt lat="37.905045" lon="13.854955"><ele>77.0</ele><time>2026-05-06T10:37:28.034Z</time></trkpt><trkpt lat="37.90481" lon="13.8550817"><ele>76.5</ele><time>2026-05-06T10:37:29.034Z</time></trkpt><trkpt lat="37.9045767" lon="13.8552183"><ele>76.0</ele><time>2026-05-06T10:37:30.034Z</time></trkpt><trkpt lat="37.9043483" lon="13.855355"><ele>76.0</ele><time>2026-05-06T10:37:31.034Z</time></trkpt><trkpt lat="37.9041317" lon="13.855495"><ele>76.0</ele><time>2026-05-06T10:37:32.034Z</time></trkpt><trkpt lat="37.903905" lon="13.8556367"><ele>76.0</ele><time>2026-05-06T10:37:33.034Z</time></trkpt><trkpt lat="37.903675" lon="13.85578"><ele>76.0</ele><time>2026-05-06T10:37:34.034Z</time></trkpt><trkpt lat="37.9034467" lon="13.85592"><ele>77.0</ele><time>2026-05-06T10:37:35.034Z</time></trkpt><trkpt lat="37.903215" lon="13.8560633"><ele>78.0</ele><time>2026-05-06T10:37:36.034Z</time></trkpt><trkpt lat="37.902985" lon="13.8562067"><ele>78.0</ele><time>2026-05-06T10:37:37.034Z</time></trkpt><trkpt lat="37.902755" lon="13.856345"><ele>78.0</ele><time>2026-05-06T10:37:38.034Z</time></trkpt><trkpt lat="37.9025267" lon="13.8564867"><ele>80.0</ele><time>2026-05-06T10:37:39.034Z</time></trkpt><trkpt lat="37.9023" lon="13.8566283"><ele>82.0</ele><time>2026-05-06T10:37:40.034Z</time></trkpt><trkpt lat="37.9020767" lon="13.856765"><ele>83.0</ele><time>2026-05-06T10:37:41.034Z</time></trkpt><trkpt lat="37.9018467" lon="13.856905"><ele>84.0</ele><time>2026-05-06T10:37:42.034Z</time></trkpt><trkpt lat="37.901615" lon="13.857045"><ele>84.0</ele><time>2026-05-06T10:37:43.034Z</time></trkpt><trkpt lat="37.9013833" lon="13.8571733"><ele>84.0</ele><time>2026-05-06T10:37:44.034Z</time></trkpt><trkpt lat="37.9011467" lon="13.8573"><ele>87.5</ele><time>2026-05-06T10:37:45.034Z</time></trkpt><trkpt lat="37.9009117" lon="13.8574217"><ele>91.0</ele><time>2026-05-06T10:37:46.034Z</time></trkpt><trkpt lat="37.9006733" lon="13.857525"><ele>87.0</ele><time>2026-05-06T10:37:47.034Z</time></trkpt><trkpt lat="37.9004317" lon="13.8576283"><ele>83.0</ele><time>2026-05-06T10:37:48.034Z</time></trkpt><trkpt lat="37.9001867" lon="13.8577183"><ele>82.0</ele><time>2026-05-06T10:37:49.034Z</time></trkpt><trkpt lat="37.89994" lon="13.8578067"><ele>81.0</ele><time>2026-05-06T10:37:50.034Z</time></trkpt><trkpt lat="37.8996917" lon="13.8578917"><ele>81.0</ele><time>2026-05-06T10:37:51.034Z</time></trkpt><trkpt lat="37.89945" lon="13.8579783"><ele>81.0</ele><time>2026-05-06T10:37:52.034Z</time></trkpt><trkpt lat="37.899195" lon="13.8580633"><ele>82.5</ele><time>2026-05-06T10:37:53.034Z</time></trkpt><trkpt lat="37.89895" lon="13.85815"><ele>84.0</ele><time>2026-05-06T10:37:54.034Z</time></trkpt><trkpt lat="37.898705" lon="13.8582367"><ele>84.0</ele><time>2026-05-06T10:37:55.034Z</time></trkpt><trkpt lat="37.89846" lon="13.8583183"><ele>84.0</ele><time>2026-05-06T10:37:56.034Z</time></trkpt><trkpt lat="37.8982167" lon="13.8584"><ele>83.5</ele><time>2026-05-06T10:37:57.034Z</time></trkpt><trkpt lat="37.8979683" lon="13.8584867"><ele>83.0</ele><time>2026-05-06T10:37:58.034Z</time></trkpt><trkpt lat="37.8977233" lon="13.8585733"><ele>84.0</ele><time>2026-05-06T10:37:59.033Z</time></trkpt><trkpt lat="37.8974767" lon="13.85866"><ele>85.0</ele><time>2026-05-06T10:38:00.034Z</time></trkpt><trkpt lat="37.8972333" lon="13.8587433"><ele>85.0</ele><time>2026-05-06T10:38:01.034Z</time></trkpt><trkpt lat="37.89699" lon="13.8588283"><ele>85.0</ele><time>2026-05-06T10:38:02.034Z</time></trkpt><trkpt lat="37.8967383" lon="13.8589117"><ele>87.5</ele><time>2026-05-06T10:38:03.034Z</time></trkpt><trkpt lat="37.8964933" lon="13.858995"><ele>90.0</ele><time>2026-05-06T10:38:04.034Z</time></trkpt><trkpt lat="37.8962483" lon="13.859075"><ele>90.0</ele><time>2026-05-06T10:38:05.034Z</time></trkpt><trkpt lat="37.8960083" lon="13.8591667"><ele>90.0</ele><time>2026-05-06T10:38:06.034Z</time></trkpt><trkpt lat="37.8957633" lon="13.8592533"><ele>88.0</ele><time>2026-05-06T10:38:07.034Z</time></trkpt><trkpt lat="37.89552" lon="13.8593383"><ele>86.0</ele><time>2026-05-06T10:38:08.034Z</time></trkpt><trkpt lat="37.89527" lon="13.8594233"><ele>87.5</ele><time>2026-05-06T10:38:09.034Z</time></trkpt><trkpt lat="37.8950217" lon="13.8595133"><ele>89.0</ele><time>2026-05-06T10:38:10.034Z</time></trkpt><trkpt lat="37.8947717" lon="13.859605"><ele>89.0</ele><time>2026-05-06T10:38:11.034Z</time></trkpt><trkpt lat="37.8945267" lon="13.8596917"><ele>89.0</ele><time>2026-05-06T10:38:12.034Z</time></trkpt><trkpt lat="37.8942817" lon="13.8597767"><ele>88.5</ele><time>2026-05-06T10:38:13.034Z</time></trkpt><trkpt lat="37.894035" lon="13.85986"><ele>88.0</ele><time>2026-05-06T10:38:14.034Z</time></trkpt><trkpt lat="37.8937917" lon="13.85994"><ele>88.0</ele><time>2026-05-06T10:38:15.034Z</time></trkpt><trkpt lat="37.8935483" lon="13.860025"><ele>88.0</ele><time>2026-05-06T10:38:16.034Z</time></trkpt><trkpt lat="37.893305" lon="13.86011"><ele>88.0</ele><time>2026-05-06T10:38:17.034Z</time></trkpt><trkpt lat="37.8930583" lon="13.860195"><ele>88.0</ele><time>2026-05-06T10:38:18.034Z</time></trkpt><trkpt lat="37.8928067" lon="13.8602783"><ele>88.0</ele><time>2026-05-06T10:38:19.034Z</time></trkpt><trkpt lat="37.8925617" lon="13.860365"><ele>88.0</ele><time>2026-05-06T10:38:20.034Z</time></trkpt><trkpt lat="37.8923167" lon="13.8604517"><ele>88.0</ele><time>2026-05-06T10:38:21.034Z</time></trkpt><trkpt lat="37.8920717" lon="13.860535"><ele>88.0</ele><time>2026-05-06T10:38:22.034Z</time></trkpt><trkpt lat="37.8918267" lon="13.8606233"><ele>89.0</ele><time>2026-05-06T10:38:23.033Z</time></trkpt><trkpt lat="37.89158" lon="13.8607083"><ele>90.0</ele><time>2026-05-06T10:38:24.034Z</time></trkpt><trkpt lat="37.8913333" lon="13.86079"><ele>90.0</ele><time>2026-05-06T10:38:25.034Z</time></trkpt><trkpt lat="37.8910917" lon="13.8608733"><ele>90.0</ele><time>2026-05-06T10:38:26.034Z</time></trkpt><trkpt lat="37.8908467" lon="13.86096"><ele>91.0</ele><time>2026-05-06T10:38:27.034Z</time></trkpt><trkpt lat="37.8905967" lon="13.8610417"><ele>92.0</ele><time>2026-05-06T10:38:28.034Z</time></trkpt><trkpt lat="37.8903483" lon="13.8611283"><ele>92.0</ele><time>2026-05-06T10:38:29.034Z</time></trkpt><trkpt lat="37.8901" lon="13.8612117"><ele>92.0</ele><time>2026-05-06T10:38:30.034Z</time></trkpt><trkpt lat="37.8898567" lon="13.8612983"><ele>93.5</ele><time>2026-05-06T10:38:31.034Z</time></trkpt><trkpt lat="37.8896067" lon="13.8613867"><ele>95.0</ele><time>2026-05-06T10:38:32.034Z</time></trkpt><trkpt lat="37.8893583" lon="13.8614717"><ele>95.5</ele><time>2026-05-06T10:38:33.034Z</time></trkpt><trkpt lat="37.8891117" lon="13.8615567"><ele>96.0</ele><time>2026-05-06T10:38:34.034Z</time></trkpt><trkpt lat="37.88887" lon="13.86164"><ele>96.0</ele><time>2026-05-06T10:38:35.034Z</time></trkpt><trkpt lat="37.8886217" lon="13.8617283"><ele>96.0</ele><time>2026-05-06T10:38:36.034Z</time></trkpt><trkpt lat="37.8883717" lon="13.8618133"><ele>95.5</ele><time>2026-05-06T10:38:37.033Z</time></trkpt><trkpt lat="37.8881283" lon="13.8619033"><ele>95.0</ele><time>2026-05-06T10:38:38.033Z</time></trkpt><trkpt lat="37.8878867" lon="13.861985"><ele>95.0</ele><time>2026-05-06T10:38:39.034Z</time></trkpt><trkpt lat="37.8876417" lon="13.8620783"><ele>95.0</ele><time>2026-05-06T10:38:40.034Z</time></trkpt><trkpt lat="37.8874" lon="13.86218"><ele>96.5</ele><time>2026-05-06T10:38:41.034Z</time></trkpt><trkpt lat="37.8871583" lon="13.8622767"><ele>98.0</ele><time>2026-05-06T10:38:42.034Z</time></trkpt><trkpt lat="37.8869167" lon="13.8623817"><ele>99.5</ele><time>2026-05-06T10:38:43.033Z</time></trkpt><trkpt lat="37.8866767" lon="13.8624867"><ele>101.0</ele><time>2026-05-06T10:38:44.034Z</time></trkpt><trkpt lat="37.8864367" lon="13.8625967"><ele>98.0</ele><time>2026-05-06T10:38:45.034Z</time></trkpt><trkpt lat="37.8861917" lon="13.8627033"><ele>95.0</ele><time>2026-05-06T10:38:46.034Z</time></trkpt><trkpt lat="37.8859517" lon="13.862815"><ele>96.5</ele><time>2026-05-06T10:38:47.034Z</time></trkpt><trkpt lat="37.8857117" lon="13.8629183"><ele>98.0</ele><time>2026-05-06T10:38:48.034Z</time></trkpt><trkpt lat="37.8854717" lon="13.8630283"><ele>98.0</ele><time>2026-05-06T10:38:49.034Z</time></trkpt><trkpt lat="37.8852267" lon="13.8631333"><ele>98.0</ele><time>2026-05-06T10:38:50.034Z</time></trkpt><trkpt lat="37.884985" lon="13.86324"><ele>98.0</ele><time>2026-05-06T10:38:51.034Z</time></trkpt><trkpt lat="37.8847433" lon="13.86335"><ele>98.0</ele><time>2026-05-06T10:38:52.033Z</time></trkpt><trkpt lat="37.884505" lon="13.8634617"><ele>98.0</ele><time>2026-05-06T10:38:53.034Z</time></trkpt><trkpt lat="37.8842717" lon="13.8635717"><ele>98.0</ele><time>2026-05-06T10:38:54.034Z</time></trkpt><trkpt lat="37.8840367" lon="13.863675"><ele>98.0</ele><time>2026-05-06T10:38:55.034Z</time></trkpt><trkpt lat="37.8837983" lon="13.8637817"><ele>98.0</ele><time>2026-05-06T10:38:56.034Z</time></trkpt><trkpt lat="37.8835517" lon="13.8638867"><ele>99.0</ele><time>2026-05-06T10:38:57.033Z</time></trkpt><trkpt lat="37.8833033" lon="13.86399"><ele>100.0</ele><time>2026-05-06T10:38:58.034Z</time></trkpt><trkpt lat="37.88306" lon="13.8640917"><ele>100.0</ele><time>2026-05-06T10:38:59.033Z</time></trkpt><trkpt lat="37.882815" lon="13.8641817"><ele>100.0</ele><time>2026-05-06T10:39:00.034Z</time></trkpt><trkpt lat="37.8825683" lon="13.86427"><ele>100.5</ele><time>2026-05-06T10:39:01.034Z</time></trkpt><trkpt lat="37.8823233" lon="13.8643533"><ele>101.0</ele><time>2026-05-06T10:39:02.034Z</time></trkpt><trkpt lat="37.8820733" lon="13.8644317"><ele>101.0</ele><time>2026-05-06T10:39:03.034Z</time></trkpt><trkpt lat="37.881825" lon="13.864505"><ele>101.0</ele><time>2026-05-06T10:39:04.034Z</time></trkpt><trkpt lat="37.8815817" lon="13.864575"><ele>101.5</ele><time>2026-05-06T10:39:05.034Z</time></trkpt><trkpt lat="37.8813333" lon="13.8646433"><ele>102.0</ele><time>2026-05-06T10:39:06.034Z</time></trkpt><trkpt lat="37.8810817" lon="13.86471"><ele>103.0</ele><time>2026-05-06T10:39:07.034Z</time></trkpt><trkpt lat="37.880835" lon="13.86477"><ele>104.0</ele><time>2026-05-06T10:39:08.033Z</time></trkpt><trkpt lat="37.8805883" lon="13.8648283"><ele>104.0</ele><time>2026-05-06T10:39:09.034Z</time></trkpt><trkpt lat="37.880335" lon="13.8648817"><ele>104.0</ele><time>2026-05-06T10:39:10.034Z</time></trkpt><trkpt lat="37.8800833" lon="13.8649417"><ele>106.5</ele><time>2026-05-06T10:39:11.034Z</time></trkpt><trkpt lat="37.8798383" lon="13.8649983"><ele>109.0</ele><time>2026-05-06T10:39:12.034Z</time></trkpt><trkpt lat="37.8795867" lon="13.865055"><ele>109.0</ele><time>2026-05-06T10:39:13.034Z</time></trkpt><trkpt lat="37.8793433" lon="13.86511"><ele>109.0</ele><time>2026-05-06T10:39:14.034Z</time></trkpt><trkpt lat="37.8790983" lon="13.8651667"><ele>108.0</ele><time>2026-05-06T10:39:15.034Z</time></trkpt><trkpt lat="37.8788483" lon="13.8652183"><ele>107.0</ele><time>2026-05-06T10:39:16.034Z</time></trkpt><trkpt lat="37.8786" lon="13.865275"><ele>108.5</ele><time>2026-05-06T10:39:17.034Z</time></trkpt><trkpt lat="37.878345" lon="13.865335"><ele>110.0</ele><time>2026-05-06T10:39:18.034Z</time></trkpt><trkpt lat="37.8780883" lon="13.8654017"><ele>110.0</ele><time>2026-05-06T10:39:19.034Z</time></trkpt><trkpt lat="37.8778417" lon="13.86546"><ele>110.0</ele><time>2026-05-06T10:39:20.034Z</time></trkpt><trkpt lat="37.87759" lon="13.8655183"><ele>112.0</ele><time>2026-05-06T10:39:21.034Z</time></trkpt><trkpt lat="37.87734" lon="13.8655717"><ele>114.0</ele><time>2026-05-06T10:39:22.034Z</time></trkpt><trkpt lat="37.8770917" lon="13.86562"><ele>114.0</ele><time>2026-05-06T10:39:23.034Z</time></trkpt><trkpt lat="37.87683" lon="13.865665"><ele>114.0</ele><time>2026-05-06T10:39:24.033Z</time></trkpt><trkpt lat="37.8765783" lon="13.8657033"><ele>118.0</ele><time>2026-05-06T10:39:25.034Z</time></trkpt><trkpt lat="37.8763333" lon="13.8657267"><ele>122.0</ele><time>2026-05-06T10:39:26.034Z</time></trkpt><trkpt lat="37.87608" lon="13.8657467"><ele>125.0</ele><time>2026-05-06T10:39:27.034Z</time></trkpt><trkpt lat="37.875825" lon="13.8657583"><ele>128.0</ele><time>2026-05-06T10:39:28.034Z</time></trkpt><trkpt lat="37.8755683" lon="13.8657533"><ele>128.0</ele><time>2026-05-06T10:39:29.034Z</time></trkpt><trkpt lat="37.8753133" lon="13.8657433"><ele>128.0</ele><time>2026-05-06T10:39:30.034Z</time></trkpt><trkpt lat="37.8750533" lon="13.86573"><ele>128.0</ele><time>2026-05-06T10:39:31.034Z</time></trkpt><trkpt lat="37.8747933" lon="13.8657017"><ele>128.0</ele><time>2026-05-06T10:39:32.034Z</time></trkpt><trkpt lat="37.8745367" lon="13.865665"><ele>128.0</ele><time>2026-05-06T10:39:33.034Z</time></trkpt><trkpt lat="37.87428" lon="13.8656217"><ele>128.0</ele><time>2026-05-06T10:39:34.034Z</time></trkpt><trkpt lat="37.8740283" lon="13.86559"><ele>129.0</ele><time>2026-05-06T10:39:35.034Z</time></trkpt><trkpt lat="37.8737767" lon="13.8655517"><ele>130.0</ele><time>2026-05-06T10:39:36.034Z</time></trkpt><trkpt lat="37.8735267" lon="13.8655167"><ele>129.5</ele><time>2026-05-06T10:39:37.034Z</time></trkpt><trkpt lat="37.8732733" lon="13.8654733"><ele>129.0</ele><time>2026-05-06T10:39:38.034Z</time></trkpt><trkpt lat="37.8730217" lon="13.86544"><ele>129.0</ele><time>2026-05-06T10:39:39.034Z</time></trkpt><trkpt lat="37.8727667" lon="13.86541"><ele>129.0</ele><time>2026-05-06T10:39:40.034Z</time></trkpt><trkpt lat="37.87251" lon="13.865385"><ele>125.5</ele><time>2026-05-06T10:39:41.034Z</time></trkpt><trkpt lat="37.872255" lon="13.8653717"><ele>122.0</ele><time>2026-05-06T10:39:42.033Z</time></trkpt><trkpt lat="37.8719983" lon="13.865375"><ele>119.0</ele><time>2026-05-06T10:39:43.034Z</time></trkpt><trkpt lat="37.8717433" lon="13.8653883"><ele>116.0</ele><time>2026-05-06T10:39:44.034Z</time></trkpt><trkpt lat="37.8714867" lon="13.8654283"><ele>116.0</ele><time>2026-05-06T10:39:45.034Z</time></trkpt><trkpt lat="37.8712333" lon="13.8654867"><ele>116.0</ele><time>2026-05-06T10:39:46.034Z</time></trkpt><trkpt lat="37.870985" lon="13.865555"><ele>115.5</ele><time>2026-05-06T10:39:47.034Z</time></trkpt><trkpt lat="37.8707383" lon="13.8656317"><ele>115.0</ele><time>2026-05-06T10:39:48.034Z</time></trkpt><trkpt lat="37.870495" lon="13.8657183"><ele>115.0</ele><time>2026-05-06T10:39:49.034Z</time></trkpt><trkpt lat="37.8702533" lon="13.86583"><ele>115.0</ele><time>2026-05-06T10:39:50.034Z</time></trkpt><trkpt lat="37.8700167" lon="13.8659533"><ele>116.5</ele><time>2026-05-06T10:39:51.034Z</time></trkpt><trkpt lat="37.8697867" lon="13.8660867"><ele>118.0</ele><time>2026-05-06T10:39:52.034Z</time></trkpt><trkpt lat="37.8695617" lon="13.8662383"><ele>118.0</ele><time>2026-05-06T10:39:53.034Z</time></trkpt><trkpt lat="37.8693433" lon="13.866405"><ele>118.0</ele><time>2026-05-06T10:39:54.034Z</time></trkpt><trkpt lat="37.8691317" lon="13.8665833"><ele>121.0</ele><time>2026-05-06T10:39:55.034Z</time></trkpt><trkpt lat="37.8689267" lon="13.8667733"><ele>124.0</ele><time>2026-05-06T10:39:56.034Z</time></trkpt><trkpt lat="37.8687333" lon="13.8669667"><ele>126.5</ele><time>2026-05-06T10:39:57.034Z</time></trkpt><trkpt lat="37.8685417" lon="13.8671733"><ele>129.0</ele><time>2026-05-06T10:39:58.034Z</time></trkpt><trkpt lat="37.8683533" lon="13.8673933"><ele>139.0</ele><time>2026-05-06T10:39:59.034Z</time></trkpt><trkpt lat="37.8681733" lon="13.86762"><ele>149.0</ele><time>2026-05-06T10:40:00.034Z</time></trkpt><trkpt lat="37.8679967" lon="13.8678567"><ele>149.0</ele><time>2026-05-06T10:40:01.034Z</time></trkpt><trkpt lat="37.86783" lon="13.868075"><ele>149.0</ele><time>2026-05-06T10:40:02.033Z</time></trkpt><trkpt lat="37.8676667" lon="13.868275"><ele>149.0</ele><time>2026-05-06T10:40:03.034Z</time></trkpt><trkpt lat="37.867505" lon="13.8684633"><ele>149.0</ele><time>2026-05-06T10:40:04.034Z</time></trkpt><trkpt lat="37.8673517" lon="13.8686517"><ele>149.0</ele><time>2026-05-06T10:40:05.034Z</time></trkpt><trkpt lat="37.8672117" lon="13.8688433"><ele>149.0</ele><time>2026-05-06T10:40:06.034Z</time></trkpt><trkpt lat="37.867075" lon="13.869025"><ele>149.0</ele><time>2026-05-06T10:40:07.034Z</time></trkpt><trkpt lat="37.866945" lon="13.8692"><ele>149.0</ele><time>2026-05-06T10:40:08.034Z</time></trkpt><trkpt lat="37.8668233" lon="13.8693833"><ele>145.33333333333331</ele><time>2026-05-06T10:40:09.034Z</time></trkpt><trkpt lat="37.8667033" lon="13.869565"><ele>141.66666666666666</ele><time>2026-05-06T10:40:10.034Z</time></trkpt><trkpt lat="37.8665883" lon="13.869755"><ele>138.0</ele><time>2026-05-06T10:40:11.034Z</time></trkpt><trkpt lat="37.8664767" lon="13.8699517"><ele>142.0</ele><time>2026-05-06T10:40:12.034Z</time></trkpt><trkpt lat="37.8663617" lon="13.8701617"><ele>146.0</ele><time>2026-05-06T10:40:13.034Z</time></trkpt><trkpt lat="37.8662433" lon="13.8703767"><ele>150.0</ele><time>2026-05-06T10:40:14.034Z</time></trkpt><trkpt lat="37.8661283" lon="13.8706033"><ele>150.0</ele><time>2026-05-06T10:40:15.034Z</time></trkpt><trkpt lat="37.8660183" lon="13.8708183"><ele>150.0</ele><time>2026-05-06T10:40:16.034Z</time></trkpt><trkpt lat="37.8659133" lon="13.871025"><ele>150.0</ele><time>2026-05-06T10:40:17.034Z</time></trkpt><trkpt lat="37.8658133" lon="13.8712233"><ele>146.0</ele><time>2026-05-06T10:40:18.034Z</time></trkpt><trkpt lat="37.8657233" lon="13.8714083"><ele>142.0</ele><time>2026-05-06T10:40:19.034Z</time></trkpt><trkpt lat="37.865635" lon="13.8715867"><ele>138.0</ele><time>2026-05-06T10:40:20.034Z</time></trkpt><trkpt lat="37.86556" lon="13.8717467"><ele>139.20000000000002</ele><time>2026-05-06T10:40:21.034Z</time></trkpt><trkpt lat="37.865495" lon="13.8718833"><ele>140.4</ele><time>2026-05-06T10:40:22.034Z</time></trkpt><trkpt lat="37.8654317" lon="13.8719933"><ele>141.60000000000002</ele><time>2026-05-06T10:40:23.034Z</time></trkpt><trkpt lat="37.8653767" lon="13.872085"><ele>142.8</ele><time>2026-05-06T10:40:24.034Z</time></trkpt><trkpt lat="37.8653317" lon="13.8721633"><ele>144.0</ele><time>2026-05-06T10:40:25.034Z</time></trkpt><trkpt lat="37.86528" lon="13.87226"><ele>144.0</ele><time>2026-05-06T10:40:27.034Z</time></trkpt><trkpt lat="37.865255" lon="13.872365"><ele>144.0</ele><time>2026-05-06T10:41:06.034Z</time></trkpt><trkpt lat="37.8652017" lon="13.8724783"><ele>144.0</ele><time>2026-05-06T10:41:08.034Z</time></trkpt><trkpt lat="37.8651683" lon="13.8725583"><ele>144.0</ele><time>2026-05-06T10:41:09.034Z</time></trkpt><trkpt lat="37.8651217" lon="13.8726583"><ele>144.0</ele><time>2026-05-06T10:41:10.033Z</time></trkpt><trkpt lat="37.8650733" lon="13.8727783"><ele>142.75</ele><time>2026-05-06T10:41:11.034Z</time></trkpt><trkpt lat="37.8650167" lon="13.8729083"><ele>141.5</ele><time>2026-05-06T10:41:12.034Z</time></trkpt><trkpt lat="37.864955" lon="13.8730483"><ele>140.25</ele><time>2026-05-06T10:41:13.034Z</time></trkpt><trkpt lat="37.8648967" lon="13.8732033"><ele>139.0</ele><time>2026-05-06T10:41:14.034Z</time></trkpt><trkpt lat="37.8648233" lon="13.87337"><ele>140.33333333333334</ele><time>2026-05-06T10:41:15.034Z</time></trkpt><trkpt lat="37.8647467" lon="13.8735517"><ele>141.66666666666666</ele><time>2026-05-06T10:41:16.034Z</time></trkpt><trkpt lat="37.8646733" lon="13.8737467"><ele>143.0</ele><time>2026-05-06T10:41:17.034Z</time></trkpt><trkpt lat="37.864605" lon="13.8739533"><ele>143.0</ele><time>2026-05-06T10:41:18.034Z</time></trkpt><trkpt lat="37.8645317" lon="13.87417"><ele>143.0</ele><time>2026-05-06T10:41:19.034Z</time></trkpt><trkpt lat="37.8644667" lon="13.8744"><ele>143.0</ele><time>2026-05-06T10:41:20.034Z</time></trkpt><trkpt lat="37.8644" lon="13.8746383"><ele>142.66666666666666</ele><time>2026-05-06T10:41:21.034Z</time></trkpt><trkpt lat="37.8643317" lon="13.8748817"><ele>142.33333333333334</ele><time>2026-05-06T10:41:22.034Z</time></trkpt><trkpt lat="37.8642667" lon="13.87513"><ele>142.0</ele><time>2026-05-06T10:41:23.034Z</time></trkpt><trkpt lat="37.8642017" lon="13.8753817"><ele>142.0</ele><time>2026-05-06T10:41:24.034Z</time></trkpt><trkpt lat="37.864135" lon="13.8756333"><ele>142.0</ele><time>2026-05-06T10:41:25.034Z</time></trkpt><trkpt lat="37.864065" lon="13.8758917"><ele>142.0</ele><time>2026-05-06T10:41:26.034Z</time></trkpt><trkpt lat="37.864" lon="13.87615"><ele>143.33333333333334</ele><time>2026-05-06T10:41:27.033Z</time></trkpt><trkpt lat="37.8639367" lon="13.8764117"><ele>144.66666666666666</ele><time>2026-05-06T10:41:28.034Z</time></trkpt><trkpt lat="37.86387" lon="13.8766817"><ele>146.0</ele><time>2026-05-06T10:41:29.034Z</time></trkpt><trkpt lat="37.8638017" lon="13.876955"><ele>147.5</ele><time>2026-05-06T10:41:30.034Z</time></trkpt><trkpt lat="37.8637317" lon="13.877235"><ele>149.0</ele><time>2026-05-06T10:41:31.034Z</time></trkpt><trkpt lat="37.8636583" lon="13.8775083"><ele>152.5</ele><time>2026-05-06T10:41:32.034Z</time></trkpt><trkpt lat="37.8635883" lon="13.8777833"><ele>156.0</ele><time>2026-05-06T10:41:33.034Z</time></trkpt><trkpt lat="37.86352" lon="13.878065"><ele>156.0</ele><time>2026-05-06T10:41:34.034Z</time></trkpt><trkpt lat="37.863455" lon="13.8783417"><ele>156.0</ele><time>2026-05-06T10:41:35.034Z</time></trkpt><trkpt lat="37.8633933" lon="13.878625"><ele>152.5</ele><time>2026-05-06T10:41:36.034Z</time></trkpt><trkpt lat="37.8633417" lon="13.8789183"><ele>149.0</ele><time>2026-05-06T10:41:37.034Z</time></trkpt><trkpt lat="37.8633067" lon="13.8792167"><ele>150.5</ele><time>2026-05-06T10:41:38.034Z</time></trkpt><trkpt lat="37.8632783" lon="13.8795167"><ele>152.0</ele><time>2026-05-06T10:41:39.034Z</time></trkpt><trkpt lat="37.8632633" lon="13.8798283"><ele>150.5</ele><time>2026-05-06T10:41:40.034Z</time></trkpt><trkpt lat="37.8632567" lon="13.8801417"><ele>149.0</ele><time>2026-05-06T10:41:41.034Z</time></trkpt><trkpt lat="37.8632617" lon="13.8804583"><ele>149.0</ele><time>2026-05-06T10:41:42.034Z</time></trkpt><trkpt lat="37.8632767" lon="13.8807733"><ele>149.0</ele><time>2026-05-06T10:41:43.034Z</time></trkpt><trkpt lat="37.8633017" lon="13.88109"><ele>147.5</ele><time>2026-05-06T10:41:44.034Z</time></trkpt><trkpt lat="37.8633367" lon="13.8814067"><ele>146.0</ele><time>2026-05-06T10:41:45.034Z</time></trkpt><trkpt lat="37.86338" lon="13.8817233"><ele>146.0</ele><time>2026-05-06T10:41:46.034Z</time></trkpt><trkpt lat="37.863435" lon="13.8820367"><ele>146.0</ele><time>2026-05-06T10:41:47.034Z</time></trkpt><trkpt lat="37.8634833" lon="13.88235"><ele>150.0</ele><time>2026-05-06T10:41:48.034Z</time></trkpt><trkpt lat="37.8635283" lon="13.8826633"><ele>154.0</ele><time>2026-05-06T10:41:49.034Z</time></trkpt><trkpt lat="37.86356" lon="13.8829783"><ele>154.0</ele><time>2026-05-06T10:41:50.034Z</time></trkpt><trkpt lat="37.8635833" lon="13.8832983"><ele>154.0</ele><time>2026-05-06T10:41:51.034Z</time></trkpt><trkpt lat="37.863595" lon="13.8836133"><ele>164.5</ele><time>2026-05-06T10:41:52.033Z</time></trkpt><trkpt lat="37.86359" lon="13.883935"><ele>175.0</ele><time>2026-05-06T10:41:53.034Z</time></trkpt><trkpt lat="37.8635683" lon="13.8842583"><ele>178.5</ele><time>2026-05-06T10:41:54.034Z</time></trkpt><trkpt lat="37.863545" lon="13.8845733"><ele>182.0</ele><time>2026-05-06T10:41:55.034Z</time></trkpt><trkpt lat="37.863515" lon="13.8848933"><ele>179.5</ele><time>2026-05-06T10:41:56.034Z</time></trkpt><trkpt lat="37.8634817" lon="13.8852133"><ele>177.0</ele><time>2026-05-06T10:41:57.034Z</time></trkpt><trkpt lat="37.863455" lon="13.88553"><ele>171.0</ele><time>2026-05-06T10:41:58.034Z</time></trkpt><trkpt lat="37.86342" lon="13.885855"><ele>165.0</ele><time>2026-05-06T10:41:59.034Z</time></trkpt><trkpt lat="37.8633783" lon="13.8861783"><ele>165.0</ele><time>2026-05-06T10:42:00.034Z</time></trkpt><trkpt lat="37.863335" lon="13.8864933"><ele>165.0</ele><time>2026-05-06T10:42:01.034Z</time></trkpt><trkpt lat="37.8632733" lon="13.886795"><ele>163.0</ele><time>2026-05-06T10:42:02.033Z</time></trkpt><trkpt lat="37.8631883" lon="13.8870983"><ele>161.0</ele><time>2026-05-06T10:42:03.034Z</time></trkpt><trkpt lat="37.8630867" lon="13.8873917"><ele>158.0</ele><time>2026-05-06T10:42:04.034Z</time></trkpt><trkpt lat="37.8629817" lon="13.8876833"><ele>155.0</ele><time>2026-05-06T10:42:05.034Z</time></trkpt><trkpt lat="37.86286" lon="13.88797"><ele>155.0</ele><time>2026-05-06T10:42:06.034Z</time></trkpt><trkpt lat="37.8627267" lon="13.88825"><ele>155.0</ele><time>2026-05-06T10:42:07.034Z</time></trkpt><trkpt lat="37.8626017" lon="13.8885267"><ele>170.0</ele><time>2026-05-06T10:42:08.034Z</time></trkpt><trkpt lat="37.8624833" lon="13.888805"><ele>185.0</ele><time>2026-05-06T10:42:09.034Z</time></trkpt><trkpt lat="37.8623617" lon="13.8890917"><ele>181.5</ele><time>2026-05-06T10:42:10.034Z</time></trkpt><trkpt lat="37.8622333" lon="13.8893767"><ele>178.0</ele><time>2026-05-06T10:42:11.034Z</time></trkpt><trkpt lat="37.862105" lon="13.88966"><ele>178.0</ele><time>2026-05-06T10:42:12.034Z</time></trkpt><trkpt lat="37.8619817" lon="13.8899417"><ele>178.0</ele><time>2026-05-06T10:42:13.034Z</time></trkpt><trkpt lat="37.8618583" lon="13.890225"><ele>182.0</ele><time>2026-05-06T10:42:14.034Z</time></trkpt><trkpt lat="37.8617433" lon="13.890515"><ele>186.0</ele><time>2026-05-06T10:42:15.034Z</time></trkpt><trkpt lat="37.8616383" lon="13.890815"><ele>169.0</ele><time>2026-05-06T10:42:16.034Z</time></trkpt><trkpt lat="37.8613517" lon="13.8917383"><ele>166.5</ele><time>2026-05-06T10:42:19.038Z</time></trkpt><trkpt lat="37.86139" lon="13.8920183"><ele>164.0</ele><time>2026-05-06T10:42:20.038Z</time></trkpt><trkpt lat="37.86129" lon="13.8922967"><ele>174.0</ele><time>2026-05-06T10:42:21.038Z</time></trkpt><trkpt lat="37.8611783" lon="13.8926133"><ele>184.0</ele><time>2026-05-06T10:42:22.038Z</time></trkpt><trkpt lat="37.861115" lon="13.8929233"><ele>184.0</ele><time>2026-05-06T10:42:23.038Z</time></trkpt><trkpt lat="37.8610433" lon="13.8932167"><ele>184.0</ele><time>2026-05-06T10:42:24.038Z</time></trkpt><trkpt lat="37.8610133" lon="13.8934983"><ele>182.0</ele><time>2026-05-06T10:42:25.038Z</time></trkpt><trkpt lat="37.8609933" lon="13.893775"><ele>180.0</ele><time>2026-05-06T10:42:26.038Z</time></trkpt><trkpt lat="37.8609633" lon="13.89404"><ele>178.0</ele><time>2026-05-06T10:42:27.038Z</time></trkpt><trkpt lat="37.8609383" lon="13.8943017"><ele>178.0</ele><time>2026-05-06T10:42:28.038Z</time></trkpt><trkpt lat="37.8609033" lon="13.8945533"><ele>178.0</ele><time>2026-05-06T10:42:29.038Z</time></trkpt><trkpt lat="37.8608717" lon="13.8947967"><ele>178.0</ele><time>2026-05-06T10:42:30.038Z</time></trkpt><trkpt lat="37.8608317" lon="13.8950233"><ele>179.33333333333334</ele><time>2026-05-06T10:42:31.038Z</time></trkpt><trkpt lat="37.8607967" lon="13.89524"><ele>180.66666666666666</ele><time>2026-05-06T10:42:32.038Z</time></trkpt><trkpt lat="37.8607833" lon="13.8954533"><ele>182.0</ele><time>2026-05-06T10:42:33.038Z</time></trkpt><trkpt lat="37.8607517" lon="13.895665"><ele>182.0</ele><time>2026-05-06T10:42:34.038Z</time></trkpt><trkpt lat="37.8607333" lon="13.8958617"><ele>182.0</ele><time>2026-05-06T10:42:35.038Z</time></trkpt><trkpt lat="37.8607117" lon="13.8960567"><ele>182.0</ele><time>2026-05-06T10:42:36.038Z</time></trkpt><trkpt lat="37.8606817" lon="13.896265"><ele>181.66666666666666</ele><time>2026-05-06T10:42:37.038Z</time></trkpt><trkpt lat="37.8606417" lon="13.8964817"><ele>181.33333333333334</ele><time>2026-05-06T10:42:38.038Z</time></trkpt><trkpt lat="37.8606033" lon="13.896705"><ele>181.0</ele><time>2026-05-06T10:42:39.038Z</time></trkpt><trkpt lat="37.86056" lon="13.8969267"><ele>181.0</ele><time>2026-05-06T10:42:40.038Z</time></trkpt><trkpt lat="37.8605033" lon="13.8971417"><ele>181.0</ele><time>2026-05-06T10:42:41.038Z</time></trkpt><trkpt lat="37.8604433" lon="13.8973583"><ele>181.0</ele><time>2026-05-06T10:42:42.038Z</time></trkpt><trkpt lat="37.8603783" lon="13.897575"><ele>181.33333333333334</ele><time>2026-05-06T10:42:43.038Z</time></trkpt><trkpt lat="37.8602983" lon="13.8977883"><ele>181.66666666666666</ele><time>2026-05-06T10:42:44.038Z</time></trkpt><trkpt lat="37.8602083" lon="13.8979933"><ele>182.0</ele><time>2026-05-06T10:42:45.038Z</time></trkpt><trkpt lat="37.8601067" lon="13.898205"><ele>182.0</ele><time>2026-05-06T10:42:46.038Z</time></trkpt><trkpt lat="37.8600033" lon="13.8984083"><ele>182.0</ele><time>2026-05-06T10:42:47.038Z</time></trkpt><trkpt lat="37.8598917" lon="13.8985983"><ele>182.0</ele><time>2026-05-06T10:42:48.038Z</time></trkpt><trkpt lat="37.859775" lon="13.89879"><ele>182.33333333333331</ele><time>2026-05-06T10:42:49.038Z</time></trkpt><trkpt lat="37.8596433" lon="13.8989733"><ele>182.66666666666666</ele><time>2026-05-06T10:42:50.038Z</time></trkpt><trkpt lat="37.8595117" lon="13.8991533"><ele>183.0</ele><time>2026-05-06T10:42:51.038Z</time></trkpt><trkpt lat="37.8593717" lon="13.89933"><ele>185.33333333333334</ele><time>2026-05-06T10:42:52.038Z</time></trkpt><trkpt lat="37.8592267" lon="13.8995"><ele>187.66666666666669</ele><time>2026-05-06T10:42:53.038Z</time></trkpt><trkpt lat="37.8590717" lon="13.89966"><ele>190.0</ele><time>2026-05-06T10:42:54.038Z</time></trkpt><trkpt lat="37.85891" lon="13.89981"><ele>190.0</ele><time>2026-05-06T10:42:55.038Z</time></trkpt><trkpt lat="37.8587517" lon="13.899955"><ele>190.0</ele><time>2026-05-06T10:42:56.038Z</time></trkpt><trkpt lat="37.8585883" lon="13.9000983"><ele>190.0</ele><time>2026-05-06T10:42:57.038Z</time></trkpt><trkpt lat="37.8584233" lon="13.9002467"><ele>191.0</ele><time>2026-05-06T10:42:58.038Z</time></trkpt><trkpt lat="37.8582617" lon="13.9003967"><ele>192.0</ele><time>2026-05-06T10:42:59.038Z</time></trkpt><trkpt lat="37.8581" lon="13.900545"><ele>193.0</ele><time>2026-05-06T10:43:00.037Z</time></trkpt><trkpt lat="37.8579217" lon="13.900705"><ele>193.0</ele><time>2026-05-06T10:43:01.038Z</time></trkpt><trkpt lat="37.8577467" lon="13.9008667"><ele>193.0</ele><time>2026-05-06T10:43:02.038Z</time></trkpt><trkpt lat="37.8575767" lon="13.9010233"><ele>193.0</ele><time>2026-05-06T10:43:03.038Z</time></trkpt><trkpt lat="37.857405" lon="13.901185"><ele>194.66666666666666</ele><time>2026-05-06T10:43:04.038Z</time></trkpt><trkpt lat="37.8572367" lon="13.9013467"><ele>196.33333333333331</ele><time>2026-05-06T10:43:05.038Z</time></trkpt><trkpt lat="37.8570633" lon="13.9015133"><ele>198.0</ele><time>2026-05-06T10:43:06.038Z</time></trkpt><trkpt lat="37.856885" lon="13.9016883"><ele>198.0</ele><time>2026-05-06T10:43:07.038Z</time></trkpt><trkpt lat="37.8567167" lon="13.90187"><ele>198.0</ele><time>2026-05-06T10:43:08.038Z</time></trkpt><trkpt lat="37.8565533" lon="13.902055"><ele>198.0</ele><time>2026-05-06T10:43:09.038Z</time></trkpt><trkpt lat="37.8563917" lon="13.9022467"><ele>198.0</ele><time>2026-05-06T10:43:10.038Z</time></trkpt><trkpt lat="37.8562317" lon="13.90244"><ele>198.0</ele><time>2026-05-06T10:43:11.038Z</time></trkpt><trkpt lat="37.85608" lon="13.9026417"><ele>198.0</ele><time>2026-05-06T10:43:12.038Z</time></trkpt><trkpt lat="37.8559283" lon="13.90285"><ele>198.5</ele><time>2026-05-06T10:43:13.038Z</time></trkpt><trkpt lat="37.8557783" lon="13.9030633"><ele>199.0</ele><time>2026-05-06T10:43:14.038Z</time></trkpt><trkpt lat="37.8556317" lon="13.9032783"><ele>201.66666666666666</ele><time>2026-05-06T10:43:15.038Z</time></trkpt><trkpt lat="37.8554933" lon="13.9035017"><ele>204.33333333333331</ele><time>2026-05-06T10:43:16.038Z</time></trkpt><trkpt lat="37.8553567" lon="13.9037267"><ele>207.0</ele><time>2026-05-06T10:43:17.038Z</time></trkpt><trkpt lat="37.85522" lon="13.9039517"><ele>207.66666666666669</ele><time>2026-05-06T10:43:18.038Z</time></trkpt><trkpt lat="37.855085" lon="13.9041783"><ele>208.33333333333334</ele><time>2026-05-06T10:43:19.038Z</time></trkpt><trkpt lat="37.8549533" lon="13.904405"><ele>209.0</ele><time>2026-05-06T10:43:20.038Z</time></trkpt><trkpt lat="37.85482" lon="13.90463"><ele>209.0</ele><time>2026-05-06T10:43:21.038Z</time></trkpt><trkpt lat="37.8546817" lon="13.9048533"><ele>209.0</ele><time>2026-05-06T10:43:22.038Z</time></trkpt><trkpt lat="37.8545533" lon="13.905075"><ele>209.0</ele><time>2026-05-06T10:43:23.038Z</time></trkpt><trkpt lat="37.85442" lon="13.9052983"><ele>209.33333333333334</ele><time>2026-05-06T10:43:24.038Z</time></trkpt><trkpt lat="37.8542883" lon="13.9055233"><ele>209.66666666666669</ele><time>2026-05-06T10:43:25.038Z</time></trkpt><trkpt lat="37.8541617" lon="13.9057467"><ele>210.0</ele><time>2026-05-06T10:43:26.038Z</time></trkpt><trkpt lat="37.8540317" lon="13.9059717"><ele>212.66666666666669</ele><time>2026-05-06T10:43:27.038Z</time></trkpt><trkpt lat="37.8539" lon="13.9061983"><ele>215.33333333333334</ele><time>2026-05-06T10:43:28.038Z</time></trkpt><trkpt lat="37.853775" lon="13.90642"><ele>218.0</ele><time>2026-05-06T10:43:29.038Z</time></trkpt><trkpt lat="37.8536417" lon="13.9066417"><ele>218.0</ele><time>2026-05-06T10:43:30.038Z</time></trkpt><trkpt lat="37.8535083" lon="13.9068633"><ele>218.0</ele><time>2026-05-06T10:43:31.038Z</time></trkpt><trkpt lat="37.8533783" lon="13.907085"><ele>218.0</ele><time>2026-05-06T10:43:32.038Z</time></trkpt><trkpt lat="37.8532517" lon="13.907305"><ele>218.0</ele><time>2026-05-06T10:43:33.038Z</time></trkpt><trkpt lat="37.85313" lon="13.9075267"><ele>218.0</ele><time>2026-05-06T10:43:34.038Z</time></trkpt><trkpt lat="37.8530017" lon="13.9077467"><ele>218.0</ele><time>2026-05-06T10:43:35.038Z</time></trkpt><trkpt lat="37.8528733" lon="13.9079617"><ele>219.0</ele><time>2026-05-06T10:43:36.037Z</time></trkpt><trkpt lat="37.8527417" lon="13.9081817"><ele>220.0</ele><time>2026-05-06T10:43:37.038Z</time></trkpt><trkpt lat="37.8526117" lon="13.9083983"><ele>221.0</ele><time>2026-05-06T10:43:38.038Z</time></trkpt><trkpt lat="37.8524833" lon="13.9086117"><ele>221.0</ele><time>2026-05-06T10:43:39.038Z</time></trkpt><trkpt lat="37.8523583" lon="13.9088267"><ele>221.0</ele><time>2026-05-06T10:43:40.038Z</time></trkpt><trkpt lat="37.8522317" lon="13.909045"><ele>221.0</ele><time>2026-05-06T10:43:41.038Z</time></trkpt><trkpt lat="37.852105" lon="13.9092633"><ele>220.33333333333334</ele><time>2026-05-06T10:43:42.038Z</time></trkpt><trkpt lat="37.8519767" lon="13.9094867"><ele>219.66666666666669</ele><time>2026-05-06T10:43:43.038Z</time></trkpt><trkpt lat="37.8518417" lon="13.909715"><ele>219.0</ele><time>2026-05-06T10:43:44.038Z</time></trkpt><trkpt lat="37.8517117" lon="13.90994"><ele>220.66666666666669</ele><time>2026-05-06T10:43:45.038Z</time></trkpt><trkpt lat="37.8515767" lon="13.910165"><ele>222.33333333333334</ele><time>2026-05-06T10:43:46.037Z</time></trkpt><trkpt lat="37.85144" lon="13.91039"><ele>224.0</ele><time>2026-05-06T10:43:47.037Z</time></trkpt><trkpt lat="37.8513083" lon="13.9106167"><ele>224.0</ele><time>2026-05-06T10:43:48.038Z</time></trkpt><trkpt lat="37.8511783" lon="13.910845"><ele>224.0</ele><time>2026-05-06T10:43:49.038Z</time></trkpt><trkpt lat="37.8510367" lon="13.9110717"><ele>226.0</ele><time>2026-05-06T10:43:50.037Z</time></trkpt><trkpt lat="37.8508933" lon="13.911295"><ele>228.0</ele><time>2026-05-06T10:43:51.038Z</time></trkpt><trkpt lat="37.8507533" lon="13.9115217"><ele>231.0</ele><time>2026-05-06T10:43:52.038Z</time></trkpt><trkpt lat="37.8506117" lon="13.9117433"><ele>234.0</ele><time>2026-05-06T10:43:53.038Z</time></trkpt><trkpt lat="37.8504683" lon="13.9119583"><ele>237.0</ele><time>2026-05-06T10:43:54.038Z</time></trkpt><trkpt lat="37.85032" lon="13.9121683"><ele>237.0</ele><time>2026-05-06T10:43:55.038Z</time></trkpt><trkpt lat="37.8501683" lon="13.9123717"><ele>237.0</ele><time>2026-05-06T10:43:56.038Z</time></trkpt><trkpt lat="37.8500067" lon="13.9125717"><ele>237.0</ele><time>2026-05-06T10:43:57.038Z</time></trkpt><trkpt lat="37.8498467" lon="13.91277"><ele>235.66666666666669</ele><time>2026-05-06T10:43:58.038Z</time></trkpt><trkpt lat="37.849685" lon="13.91296"><ele>234.33333333333334</ele><time>2026-05-06T10:43:59.038Z</time></trkpt><trkpt lat="37.8495183" lon="13.9131433"><ele>233.0</ele><time>2026-05-06T10:44:00.038Z</time></trkpt><trkpt lat="37.849345" lon="13.91332"><ele>232.0</ele><time>2026-05-06T10:44:01.038Z</time></trkpt><trkpt lat="37.84917" lon="13.9134917"><ele>231.0</ele><time>2026-05-06T10:44:02.038Z</time></trkpt><trkpt lat="37.8489917" lon="13.9136567"><ele>230.0</ele><time>2026-05-06T10:44:03.038Z</time></trkpt><trkpt lat="37.848815" lon="13.9138117"><ele>230.0</ele><time>2026-05-06T10:44:04.038Z</time></trkpt><trkpt lat="37.848635" lon="13.9139617"><ele>230.0</ele><time>2026-05-06T10:44:05.038Z</time></trkpt><trkpt lat="37.8484533" lon="13.9141133"><ele>230.0</ele><time>2026-05-06T10:44:06.038Z</time></trkpt><trkpt lat="37.8482783" lon="13.9142683"><ele>235.66666666666669</ele><time>2026-05-06T10:44:07.038Z</time></trkpt><trkpt lat="37.8481" lon="13.914415"><ele>241.33333333333331</ele><time>2026-05-06T10:44:08.038Z</time></trkpt><trkpt lat="37.8479133" lon="13.9145567"><ele>247.0</ele><time>2026-05-06T10:44:09.038Z</time></trkpt><trkpt lat="37.8477183" lon="13.914695"><ele>248.66666666666666</ele><time>2026-05-06T10:44:10.038Z</time></trkpt><trkpt lat="37.8475433" lon="13.9148283"><ele>250.33333333333331</ele><time>2026-05-06T10:44:11.038Z</time></trkpt><trkpt lat="37.8473533" lon="13.91497"><ele>252.0</ele><time>2026-05-06T10:44:12.038Z</time></trkpt><trkpt lat="37.8471467" lon="13.9150933"><ele>252.0</ele><time>2026-05-06T10:44:13.038Z</time></trkpt><trkpt lat="37.8469617" lon="13.9152283"><ele>252.0</ele><time>2026-05-06T10:44:14.038Z</time></trkpt><trkpt lat="37.8467783" lon="13.91536"><ele>252.0</ele><time>2026-05-06T10:44:15.038Z</time></trkpt><trkpt lat="37.8465983" lon="13.9154933"><ele>246.33333333333331</ele><time>2026-05-06T10:44:16.038Z</time></trkpt><trkpt lat="37.846395" lon="13.9156083"><ele>240.66666666666666</ele><time>2026-05-06T10:44:17.037Z</time></trkpt><trkpt lat="37.8462067" lon="13.9157233"><ele>235.0</ele><time>2026-05-06T10:44:18.038Z</time></trkpt><trkpt lat="37.8460167" lon="13.9158467"><ele>235.0</ele><time>2026-05-06T10:44:19.037Z</time></trkpt><trkpt lat="37.845835" lon="13.915975"><ele>235.0</ele><time>2026-05-06T10:44:20.038Z</time></trkpt><trkpt lat="37.8456517" lon="13.9160967"><ele>235.0</ele><time>2026-05-06T10:44:21.038Z</time></trkpt><trkpt lat="37.84547" lon="13.91622"><ele>235.0</ele><time>2026-05-06T10:44:22.038Z</time></trkpt><trkpt lat="37.84528" lon="13.9163483"><ele>235.0</ele><time>2026-05-06T10:44:23.038Z</time></trkpt><trkpt lat="37.8451017" lon="13.9164833"><ele>235.0</ele><time>2026-05-06T10:44:24.038Z</time></trkpt><trkpt lat="37.8449233" lon="13.916625"><ele>238.0</ele><time>2026-05-06T10:44:25.038Z</time></trkpt><trkpt lat="37.8447467" lon="13.91677"><ele>241.0</ele><time>2026-05-06T10:44:26.038Z</time></trkpt><trkpt lat="37.8445567" lon="13.91691"><ele>244.0</ele><time>2026-05-06T10:44:27.037Z</time></trkpt><trkpt lat="37.8443733" lon="13.91705"><ele>242.33333333333331</ele><time>2026-05-06T10:44:28.038Z</time></trkpt><trkpt lat="37.8441883" lon="13.9171883"><ele>240.66666666666669</ele><time>2026-05-06T10:44:29.038Z</time></trkpt><trkpt lat="37.8440083" lon="13.9173317"><ele>239.0</ele><time>2026-05-06T10:44:30.037Z</time></trkpt><trkpt lat="37.8438217" lon="13.9174733"><ele>240.66666666666669</ele><time>2026-05-06T10:44:31.037Z</time></trkpt><trkpt lat="37.8436317" lon="13.9176233"><ele>242.33333333333331</ele><time>2026-05-06T10:44:32.037Z</time></trkpt><trkpt lat="37.8434433" lon="13.9177767"><ele>244.0</ele><time>2026-05-06T10:44:33.037Z</time></trkpt><trkpt lat="37.8432517" lon="13.9179283"><ele>244.0</ele><time>2026-05-06T10:44:34.037Z</time></trkpt><trkpt lat="37.8430567" lon="13.9180783"><ele>244.0</ele><time>2026-05-06T10:44:35.037Z</time></trkpt><trkpt lat="37.8428683" lon="13.91823"><ele>244.0</ele><time>2026-05-06T10:44:36.037Z</time></trkpt><trkpt lat="37.8426767" lon="13.9183833"><ele>244.0</ele><time>2026-05-06T10:44:37.037Z</time></trkpt><trkpt lat="37.84249" lon="13.918535"><ele>244.0</ele><time>2026-05-06T10:44:38.037Z</time></trkpt><trkpt lat="37.8423033" lon="13.91869"><ele>244.5</ele><time>2026-05-06T10:44:39.037Z</time></trkpt><trkpt lat="37.8421067" lon="13.9188433"><ele>245.0</ele><time>2026-05-06T10:44:40.037Z</time></trkpt><trkpt lat="37.8419167" lon="13.9190017"><ele>248.0</ele><time>2026-05-06T10:44:41.037Z</time></trkpt><trkpt lat="37.8417233" lon="13.9191683"><ele>251.0</ele><time>2026-05-06T10:44:42.037Z</time></trkpt><trkpt lat="37.8415367" lon="13.919335"><ele>251.0</ele><time>2026-05-06T10:44:43.036Z</time></trkpt><trkpt lat="37.8413517" lon="13.9195067"><ele>251.0</ele><time>2026-05-06T10:44:44.037Z</time></trkpt><trkpt lat="37.8411683" lon="13.919685"><ele>251.0</ele><time>2026-05-06T10:44:45.036Z</time></trkpt><trkpt lat="37.8409883" lon="13.9198683"><ele>251.0</ele><time>2026-05-06T10:44:46.037Z</time></trkpt><trkpt lat="37.8407983" lon="13.9200483"><ele>252.5</ele><time>2026-05-06T10:44:47.037Z</time></trkpt><trkpt lat="37.84062" lon="13.9202317"><ele>254.0</ele><time>2026-05-06T10:44:48.037Z</time></trkpt><trkpt lat="37.840435" lon="13.9204133"><ele>254.0</ele><time>2026-05-06T10:44:49.037Z</time></trkpt><trkpt lat="37.8402433" lon="13.9206"><ele>254.0</ele><time>2026-05-06T10:44:50.037Z</time></trkpt><trkpt lat="37.84005" lon="13.9207867"><ele>257.5</ele><time>2026-05-06T10:44:51.036Z</time></trkpt><trkpt lat="37.8398583" lon="13.9209767"><ele>261.0</ele><time>2026-05-06T10:44:52.037Z</time></trkpt><trkpt lat="37.8396717" lon="13.9211683"><ele>261.0</ele><time>2026-05-06T10:44:53.037Z</time></trkpt><trkpt lat="37.8394817" lon="13.9213617"><ele>261.0</ele><time>2026-05-06T10:44:54.037Z</time></trkpt><trkpt lat="37.839295" lon="13.9215517"><ele>260.5</ele><time>2026-05-06T10:44:55.037Z</time></trkpt><trkpt lat="37.8391117" lon="13.9217467"><ele>260.0</ele><time>2026-05-06T10:44:56.037Z</time></trkpt><trkpt lat="37.8389217" lon="13.9219383"><ele>260.0</ele><time>2026-05-06T10:44:57.037Z</time></trkpt><trkpt lat="37.8387333" lon="13.9221333"><ele>260.0</ele><time>2026-05-06T10:44:58.037Z</time></trkpt><trkpt lat="37.83855" lon="13.9223333"><ele>261.0</ele><time>2026-05-06T10:44:59.037Z</time></trkpt><trkpt lat="37.83837" lon="13.9225417"><ele>262.0</ele><time>2026-05-06T10:45:00.037Z</time></trkpt><trkpt lat="37.8381967" lon="13.92276"><ele>262.0</ele><time>2026-05-06T10:45:01.037Z</time></trkpt><trkpt lat="37.8380367" lon="13.922985"><ele>262.0</ele><time>2026-05-06T10:45:02.037Z</time></trkpt><trkpt lat="37.8378783" lon="13.9232183"><ele>259.5</ele><time>2026-05-06T10:45:03.037Z</time></trkpt><trkpt lat="37.83773" lon="13.92346"><ele>257.0</ele><time>2026-05-06T10:45:04.037Z</time></trkpt><trkpt lat="37.8375833" lon="13.9237033"><ele>264.5</ele><time>2026-05-06T10:45:05.036Z</time></trkpt><trkpt lat="37.8374433" lon="13.92396"><ele>272.0</ele><time>2026-05-06T10:45:06.037Z</time></trkpt><trkpt lat="37.8373117" lon="13.9242167"><ele>268.0</ele><time>2026-05-06T10:45:07.037Z</time></trkpt><trkpt lat="37.8371883" lon="13.9244767"><ele>264.0</ele><time>2026-05-06T10:45:08.037Z</time></trkpt><trkpt lat="37.8370683" lon="13.9247467"><ele>264.0</ele><time>2026-05-06T10:45:09.037Z</time></trkpt><trkpt lat="37.8369533" lon="13.925015"><ele>264.0</ele><time>2026-05-06T10:45:10.037Z</time></trkpt><trkpt lat="37.836845" lon="13.92529"><ele>267.0</ele><time>2026-05-06T10:45:11.037Z</time></trkpt><trkpt lat="37.8367417" lon="13.9255683"><ele>270.0</ele><time>2026-05-06T10:45:12.037Z</time></trkpt><trkpt lat="37.8366483" lon="13.92585"><ele>270.5</ele><time>2026-05-06T10:45:13.037Z</time></trkpt><trkpt lat="37.8365567" lon="13.9261333"><ele>271.0</ele><time>2026-05-06T10:45:14.037Z</time></trkpt><trkpt lat="37.8364683" lon="13.9264217"><ele>271.0</ele><time>2026-05-06T10:45:15.037Z</time></trkpt><trkpt lat="37.8363833" lon="13.926715"><ele>271.0</ele><time>2026-05-06T10:45:16.037Z</time></trkpt><trkpt lat="37.8363017" lon="13.9270083"><ele>270.5</ele><time>2026-05-06T10:45:17.037Z</time></trkpt><trkpt lat="37.8362267" lon="13.92731"><ele>270.0</ele><time>2026-05-06T10:45:18.036Z</time></trkpt><trkpt lat="37.83616" lon="13.9276067"><ele>272.5</ele><time>2026-05-06T10:45:19.037Z</time></trkpt><trkpt lat="37.8360967" lon="13.92792"><ele>275.0</ele><time>2026-05-06T10:45:20.037Z</time></trkpt><trkpt lat="37.8360383" lon="13.9282317"><ele>276.5</ele><time>2026-05-06T10:45:21.037Z</time></trkpt><trkpt lat="37.8359817" lon="13.92855"><ele>278.0</ele><time>2026-05-06T10:45:22.037Z</time></trkpt><trkpt lat="37.8359283" lon="13.9288633"><ele>278.0</ele><time>2026-05-06T10:45:23.037Z</time></trkpt><trkpt lat="37.83589" lon="13.9291767"><ele>278.0</ele><time>2026-05-06T10:45:24.037Z</time></trkpt><trkpt lat="37.8358567" lon="13.929495"><ele>278.0</ele><time>2026-05-06T10:45:25.037Z</time></trkpt><trkpt lat="37.835825" lon="13.929815"><ele>278.0</ele><time>2026-05-06T10:45:26.037Z</time></trkpt><trkpt lat="37.8358067" lon="13.930135"><ele>280.0</ele><time>2026-05-06T10:45:27.037Z</time></trkpt><trkpt lat="37.8357883" lon="13.9304567"><ele>282.0</ele><time>2026-05-06T10:45:28.037Z</time></trkpt><trkpt lat="37.8357767" lon="13.930775"><ele>285.5</ele><time>2026-05-06T10:45:29.037Z</time></trkpt><trkpt lat="37.8357683" lon="13.9311033"><ele>289.0</ele><time>2026-05-06T10:45:30.037Z</time></trkpt><trkpt lat="37.8357667" lon="13.9314233"><ele>291.5</ele><time>2026-05-06T10:45:31.037Z</time></trkpt><trkpt lat="37.835765" lon="13.9317467"><ele>294.0</ele><time>2026-05-06T10:45:32.037Z</time></trkpt><trkpt lat="37.8357683" lon="13.9320683"><ele>294.0</ele><time>2026-05-06T10:45:33.037Z</time></trkpt><trkpt lat="37.8357683" lon="13.9323867"><ele>294.0</ele><time>2026-05-06T10:45:34.037Z</time></trkpt><trkpt lat="37.835775" lon="13.9327083"><ele>295.5</ele><time>2026-05-06T10:45:35.036Z</time></trkpt><trkpt lat="37.83578" lon="13.93302"><ele>297.0</ele><time>2026-05-06T10:45:36.037Z</time></trkpt><trkpt lat="37.8357833" lon="13.93332"><ele>298.5</ele><time>2026-05-06T10:45:37.037Z</time></trkpt><trkpt lat="37.8357833" lon="13.9336083"><ele>300.0</ele><time>2026-05-06T10:45:38.037Z</time></trkpt><trkpt lat="37.8357833" lon="13.9338967"><ele>300.0</ele><time>2026-05-06T10:45:39.037Z</time></trkpt><trkpt lat="37.8357883" lon="13.93418"><ele>300.0</ele><time>2026-05-06T10:45:40.036Z</time></trkpt><trkpt lat="37.83579" lon="13.9344633"><ele>300.0</ele><time>2026-05-06T10:45:41.037Z</time></trkpt><trkpt lat="37.8357883" lon="13.93475"><ele>300.5</ele><time>2026-05-06T10:45:42.037Z</time></trkpt><trkpt lat="37.8357933" lon="13.9350417"><ele>301.0</ele><time>2026-05-06T10:45:43.037Z</time></trkpt><trkpt lat="37.835795" lon="13.9353283"><ele>302.0</ele><time>2026-05-06T10:45:44.037Z</time></trkpt><trkpt lat="37.835795" lon="13.935615"><ele>303.0</ele><time>2026-05-06T10:45:45.037Z</time></trkpt><trkpt lat="37.835795" lon="13.9359067"><ele>303.5</ele><time>2026-05-06T10:45:46.037Z</time></trkpt><trkpt lat="37.835795" lon="13.93619"><ele>304.0</ele><time>2026-05-06T10:45:47.037Z</time></trkpt><trkpt lat="37.835795" lon="13.9364817"><ele>306.5</ele><time>2026-05-06T10:45:48.037Z</time></trkpt><trkpt lat="37.83579" lon="13.9367717"><ele>309.0</ele><time>2026-05-06T10:45:49.037Z</time></trkpt><trkpt lat="37.8357767" lon="13.9370583"><ele>309.0</ele><time>2026-05-06T10:45:50.037Z</time></trkpt><trkpt lat="37.83576" lon="13.937345"><ele>309.0</ele><time>2026-05-06T10:45:51.037Z</time></trkpt><trkpt lat="37.8357433" lon="13.9376267"><ele>310.0</ele><time>2026-05-06T10:45:52.037Z</time></trkpt><trkpt lat="37.8357133" lon="13.9379133"><ele>311.0</ele><time>2026-05-06T10:45:53.037Z</time></trkpt><trkpt lat="37.8356783" lon="13.9382017"><ele>311.0</ele><time>2026-05-06T10:45:54.037Z</time></trkpt><trkpt lat="37.8356383" lon="13.938485"><ele>311.0</ele><time>2026-05-06T10:45:55.037Z</time></trkpt><trkpt lat="37.8355917" lon="13.93877"><ele>311.0</ele><time>2026-05-06T10:45:56.037Z</time></trkpt><trkpt lat="37.835535" lon="13.9390533"><ele>311.0</ele><time>2026-05-06T10:45:57.037Z</time></trkpt><trkpt lat="37.8354783" lon="13.93934"><ele>312.0</ele><time>2026-05-06T10:45:58.037Z</time></trkpt><trkpt lat="37.8354117" lon="13.93962"><ele>313.0</ele><time>2026-05-06T10:45:59.037Z</time></trkpt><trkpt lat="37.83534" lon="13.9398967"><ele>317.5</ele><time>2026-05-06T10:46:00.037Z</time></trkpt><trkpt lat="37.8352617" lon="13.9401717"><ele>322.0</ele><time>2026-05-06T10:46:01.037Z</time></trkpt><trkpt lat="37.8351717" lon="13.9404433"><ele>322.5</ele><time>2026-05-06T10:46:02.037Z</time></trkpt><trkpt lat="37.835075" lon="13.9407067"><ele>323.0</ele><time>2026-05-06T10:46:03.037Z</time></trkpt><trkpt lat="37.8349733" lon="13.9409733"><ele>323.0</ele><time>2026-05-06T10:46:04.037Z</time></trkpt><trkpt lat="37.8348633" lon="13.9412383"><ele>323.0</ele><time>2026-05-06T10:46:05.037Z</time></trkpt><trkpt lat="37.8347517" lon="13.9414983"><ele>327.5</ele><time>2026-05-06T10:46:06.037Z</time></trkpt><trkpt lat="37.8346483" lon="13.9417583"><ele>332.0</ele><time>2026-05-06T10:46:07.037Z</time></trkpt><trkpt lat="37.834545" lon="13.9420167"><ele>332.0</ele><time>2026-05-06T10:46:08.037Z</time></trkpt><trkpt lat="37.8344367" lon="13.942275"><ele>332.0</ele><time>2026-05-06T10:46:09.037Z</time></trkpt><trkpt lat="37.83433" lon="13.9425317"><ele>329.5</ele><time>2026-05-06T10:46:10.037Z</time></trkpt><trkpt lat="37.8342317" lon="13.9427883"><ele>327.0</ele><time>2026-05-06T10:46:11.037Z</time></trkpt><trkpt lat="37.8341417" lon="13.9430517"><ele>327.0</ele><time>2026-05-06T10:46:12.037Z</time></trkpt><trkpt lat="37.8340617" lon="13.9433183"><ele>327.0</ele><time>2026-05-06T10:46:13.037Z</time></trkpt><trkpt lat="37.833985" lon="13.94359"><ele>328.5</ele><time>2026-05-06T10:46:14.037Z</time></trkpt><trkpt lat="37.8339083" lon="13.9438617"><ele>330.0</ele><time>2026-05-06T10:46:15.037Z</time></trkpt><trkpt lat="37.8338433" lon="13.94414"><ele>330.0</ele><time>2026-05-06T10:46:16.037Z</time></trkpt><trkpt lat="37.8337733" lon="13.9444183"><ele>330.0</ele><time>2026-05-06T10:46:17.037Z</time></trkpt><trkpt lat="37.8337133" lon="13.9447033"><ele>330.0</ele><time>2026-05-06T10:46:18.037Z</time></trkpt><trkpt lat="37.83366" lon="13.9449933"><ele>330.0</ele><time>2026-05-06T10:46:19.037Z</time></trkpt><trkpt lat="37.83361" lon="13.945275"><ele>331.5</ele><time>2026-05-06T10:46:20.037Z</time></trkpt><trkpt lat="37.8335683" lon="13.945565"><ele>333.0</ele><time>2026-05-06T10:46:21.037Z</time></trkpt><trkpt lat="37.8335317" lon="13.945855"><ele>335.5</ele><time>2026-05-06T10:46:22.037Z</time></trkpt><trkpt lat="37.8334933" lon="13.9461433"><ele>338.0</ele><time>2026-05-06T10:46:23.037Z</time></trkpt><trkpt lat="37.83347" lon="13.9464317"><ele>339.0</ele><time>2026-05-06T10:46:24.037Z</time></trkpt><trkpt lat="37.83345" lon="13.946725"><ele>340.0</ele><time>2026-05-06T10:46:25.037Z</time></trkpt><trkpt lat="37.8334383" lon="13.94702"><ele>340.0</ele><time>2026-05-06T10:46:26.037Z</time></trkpt><trkpt lat="37.833435" lon="13.9473183"><ele>340.0</ele><time>2026-05-06T10:46:27.036Z</time></trkpt><trkpt lat="37.83343" lon="13.947605"><ele>341.0</ele><time>2026-05-06T10:46:28.037Z</time></trkpt><trkpt lat="37.8334317" lon="13.9479033"><ele>342.0</ele><time>2026-05-06T10:46:29.037Z</time></trkpt><trkpt lat="37.8334367" lon="13.948205"><ele>343.5</ele><time>2026-05-06T10:46:30.037Z</time></trkpt><trkpt lat="37.83344" lon="13.948495"><ele>345.0</ele><time>2026-05-06T10:46:31.037Z</time></trkpt><trkpt lat="37.8334517" lon="13.94879"><ele>345.0</ele><time>2026-05-06T10:46:32.037Z</time></trkpt><trkpt lat="37.833455" lon="13.9490833"><ele>345.0</ele><time>2026-05-06T10:46:33.037Z</time></trkpt><trkpt lat="37.8334567" lon="13.9493767"><ele>348.0</ele><time>2026-05-06T10:46:34.037Z</time></trkpt><trkpt lat="37.8334667" lon="13.9496767"><ele>351.0</ele><time>2026-05-06T10:46:35.037Z</time></trkpt><trkpt lat="37.8334667" lon="13.9499717"><ele>353.5</ele><time>2026-05-06T10:46:36.037Z</time></trkpt><trkpt lat="37.8334633" lon="13.95027"><ele>356.0</ele><time>2026-05-06T10:46:37.037Z</time></trkpt><trkpt lat="37.8334533" lon="13.9505633"><ele>356.0</ele><time>2026-05-06T10:46:38.037Z</time></trkpt><trkpt lat="37.8334383" lon="13.9508533"><ele>356.0</ele><time>2026-05-06T10:46:39.037Z</time></trkpt><trkpt lat="37.8334183" lon="13.9511483"><ele>356.0</ele><time>2026-05-06T10:46:40.037Z</time></trkpt><trkpt lat="37.8333933" lon="13.9514483"><ele>356.0</ele><time>2026-05-06T10:46:41.037Z</time></trkpt><trkpt lat="37.8333617" lon="13.95174"><ele>353.5</ele><time>2026-05-06T10:46:42.037Z</time></trkpt><trkpt lat="37.8333233" lon="13.95203"><ele>351.0</ele><time>2026-05-06T10:46:43.037Z</time></trkpt><trkpt lat="37.83328" lon="13.952315"><ele>352.5</ele><time>2026-05-06T10:46:44.037Z</time></trkpt><trkpt lat="37.8332233" lon="13.9526"><ele>354.0</ele><time>2026-05-06T10:46:45.037Z</time></trkpt><trkpt lat="37.8331667" lon="13.95288"><ele>354.0</ele><time>2026-05-06T10:46:46.037Z</time></trkpt><trkpt lat="37.8331067" lon="13.953165"><ele>354.0</ele><time>2026-05-06T10:46:47.037Z</time></trkpt><trkpt lat="37.8330383" lon="13.9534483"><ele>356.5</ele><time>2026-05-06T10:46:48.037Z</time></trkpt><trkpt lat="37.8329617" lon="13.9537233"><ele>359.0</ele><time>2026-05-06T10:46:49.037Z</time></trkpt><trkpt lat="37.8328817" lon="13.9540033"><ele>361.0</ele><time>2026-05-06T10:46:50.037Z</time></trkpt><trkpt lat="37.8328017" lon="13.9542783"><ele>363.0</ele><time>2026-05-06T10:46:51.037Z</time></trkpt><trkpt lat="37.8327183" lon="13.9545567"><ele>361.0</ele><time>2026-05-06T10:46:52.037Z</time></trkpt><trkpt lat="37.8326383" lon="13.9548333"><ele>359.0</ele><time>2026-05-06T10:46:53.037Z</time></trkpt><trkpt lat="37.83256" lon="13.9551033"><ele>359.0</ele><time>2026-05-06T10:46:54.036Z</time></trkpt><trkpt lat="37.8324833" lon="13.9553717"><ele>359.0</ele><time>2026-05-06T10:46:55.037Z</time></trkpt><trkpt lat="37.8324033" lon="13.9556367"><ele>359.0</ele><time>2026-05-06T10:46:56.037Z</time></trkpt><trkpt lat="37.8323267" lon="13.9558967"><ele>362.33333333333337</ele><time>2026-05-06T10:46:57.037Z</time></trkpt><trkpt lat="37.8322517" lon="13.9561533"><ele>365.6666666666667</ele><time>2026-05-06T10:46:58.037Z</time></trkpt><trkpt lat="37.8321767" lon="13.95641"><ele>369.0</ele><time>2026-05-06T10:46:59.037Z</time></trkpt><trkpt lat="37.8321033" lon="13.9566583"><ele>372.3333333333333</ele><time>2026-05-06T10:47:00.037Z</time></trkpt><trkpt lat="37.83204" lon="13.9569"><ele>375.66666666666663</ele><time>2026-05-06T10:47:01.037Z</time></trkpt><trkpt lat="37.8319733" lon="13.9571383"><ele>379.0</ele><time>2026-05-06T10:47:02.036Z</time></trkpt><trkpt lat="37.8318983" lon="13.9573683"><ele>381.3333333333333</ele><time>2026-05-06T10:47:03.037Z</time></trkpt><trkpt lat="37.8318233" lon="13.9575967"><ele>383.66666666666663</ele><time>2026-05-06T10:47:04.037Z</time></trkpt><trkpt lat="37.8317633" lon="13.9578233"><ele>386.0</ele><time>2026-05-06T10:47:05.037Z</time></trkpt><trkpt lat="37.8316967" lon="13.95805"><ele>380.0</ele><time>2026-05-06T10:47:06.037Z</time></trkpt><trkpt lat="37.8316333" lon="13.9582817"><ele>374.0</ele><time>2026-05-06T10:47:07.037Z</time></trkpt><trkpt lat="37.8315717" lon="13.9585117"><ele>368.0</ele><time>2026-05-06T10:47:08.037Z</time></trkpt><trkpt lat="37.8315083" lon="13.9587333"><ele>368.0</ele><time>2026-05-06T10:47:09.037Z</time></trkpt><trkpt lat="37.8314283" lon="13.95895"><ele>368.0</ele><time>2026-05-06T10:47:10.037Z</time></trkpt><trkpt lat="37.8313633" lon="13.9591667"><ele>368.0</ele><time>2026-05-06T10:47:11.037Z</time></trkpt><trkpt lat="37.8312933" lon="13.95939"><ele>368.0</ele><time>2026-05-06T10:47:12.037Z</time></trkpt><trkpt lat="37.8312183" lon="13.9596117"><ele>368.0</ele><time>2026-05-06T10:47:13.037Z</time></trkpt><trkpt lat="37.8311383" lon="13.959835"><ele>368.0</ele><time>2026-05-06T10:47:14.037Z</time></trkpt><trkpt lat="37.8310583" lon="13.9600517"><ele>368.6666666666667</ele><time>2026-05-06T10:47:15.037Z</time></trkpt><trkpt lat="37.8309767" lon="13.960275"><ele>369.3333333333333</ele><time>2026-05-06T10:47:16.037Z</time></trkpt><trkpt lat="37.8308833" lon="13.9604883"><ele>370.0</ele><time>2026-05-06T10:47:17.037Z</time></trkpt><trkpt lat="37.8307833" lon="13.960695"><ele>372.3333333333333</ele><time>2026-05-06T10:47:18.037Z</time></trkpt><trkpt lat="37.8306867" lon="13.9609"><ele>374.6666666666667</ele><time>2026-05-06T10:47:19.037Z</time></trkpt><trkpt lat="37.8305833" lon="13.9611"><ele>377.0</ele><time>2026-05-06T10:47:20.037Z</time></trkpt><trkpt lat="37.830475" lon="13.9612983"><ele>377.0</ele><time>2026-05-06T10:47:21.037Z</time></trkpt><trkpt lat="37.8303683" lon="13.9614983"><ele>377.0</ele><time>2026-05-06T10:47:22.037Z</time></trkpt><trkpt lat="37.83026" lon="13.9616967"><ele>377.0</ele><time>2026-05-06T10:47:23.037Z</time></trkpt><trkpt lat="37.830145" lon="13.9618983"><ele>379.6666666666667</ele><time>2026-05-06T10:47:24.037Z</time></trkpt><trkpt lat="37.830025" lon="13.96209"><ele>382.33333333333337</ele><time>2026-05-06T10:47:25.037Z</time></trkpt><trkpt lat="37.8299" lon="13.962285"><ele>385.0</ele><time>2026-05-06T10:47:26.037Z</time></trkpt><trkpt lat="37.8297667" lon="13.9624717"><ele>388.0</ele><time>2026-05-06T10:47:27.036Z</time></trkpt><trkpt lat="37.8296317" lon="13.9626583"><ele>391.0</ele><time>2026-05-06T10:47:28.037Z</time></trkpt><trkpt lat="37.8294983" lon="13.9628417"><ele>394.0</ele><time>2026-05-06T10:47:29.037Z</time></trkpt><trkpt lat="37.8293533" lon="13.9630283"><ele>392.6666666666667</ele><time>2026-05-06T10:47:30.037Z</time></trkpt><trkpt lat="37.8292117" lon="13.96321"><ele>391.33333333333337</ele><time>2026-05-06T10:47:31.037Z</time></trkpt><trkpt lat="37.8290633" lon="13.9633833"><ele>390.0</ele><time>2026-05-06T10:47:32.037Z</time></trkpt><trkpt lat="37.8289117" lon="13.9635517"><ele>390.0</ele><time>2026-05-06T10:47:33.037Z</time></trkpt><trkpt lat="37.8287517" lon="13.9637167"><ele>390.0</ele><time>2026-05-06T10:47:34.037Z</time></trkpt><trkpt lat="37.828585" lon="13.9638817"><ele>390.0</ele><time>2026-05-06T10:47:35.037Z</time></trkpt><trkpt lat="37.828425" lon="13.9640483"><ele>392.0</ele><time>2026-05-06T10:47:36.037Z</time></trkpt><trkpt lat="37.8282633" lon="13.9642067"><ele>394.0</ele><time>2026-05-06T10:47:37.037Z</time></trkpt><trkpt lat="37.8280933" lon="13.964355"><ele>396.0</ele><time>2026-05-06T10:47:38.036Z</time></trkpt><trkpt lat="37.82792" lon="13.9644983"><ele>396.0</ele><time>2026-05-06T10:47:39.037Z</time></trkpt><trkpt lat="37.8277483" lon="13.96464"><ele>396.0</ele><time>2026-05-06T10:47:40.037Z</time></trkpt><trkpt lat="37.8275683" lon="13.964765"><ele>396.0</ele><time>2026-05-06T10:47:41.037Z</time></trkpt><trkpt lat="37.8273867" lon="13.9648983"><ele>396.0</ele><time>2026-05-06T10:47:42.037Z</time></trkpt><trkpt lat="37.8272033" lon="13.9650167"><ele>396.0</ele><time>2026-05-06T10:47:43.037Z</time></trkpt><trkpt lat="37.8270183" lon="13.9651367"><ele>396.0</ele><time>2026-05-06T10:47:44.037Z</time></trkpt><trkpt lat="37.8268333" lon="13.9652533"><ele>394.66666666666663</ele><time>2026-05-06T10:47:45.037Z</time></trkpt><trkpt lat="37.8266433" lon="13.9653617"><ele>393.3333333333333</ele><time>2026-05-06T10:47:46.037Z</time></trkpt><trkpt lat="37.826455" lon="13.965465"><ele>392.0</ele><time>2026-05-06T10:47:47.037Z</time></trkpt><trkpt lat="37.8262633" lon="13.9655617"><ele>392.0</ele><time>2026-05-06T10:47:48.037Z</time></trkpt><trkpt lat="37.8260733" lon="13.9656583"><ele>392.0</ele><time>2026-05-06T10:47:49.037Z</time></trkpt><trkpt lat="37.8258833" lon="13.9657517"><ele>392.0</ele><time>2026-05-06T10:47:50.037Z</time></trkpt><trkpt lat="37.8256917" lon="13.9658433"><ele>393.3333333333333</ele><time>2026-05-06T10:47:51.037Z</time></trkpt><trkpt lat="37.8254983" lon="13.96594"><ele>394.66666666666663</ele><time>2026-05-06T10:47:52.037Z</time></trkpt><trkpt lat="37.8253083" lon="13.9660367"><ele>396.0</ele><time>2026-05-06T10:47:53.037Z</time></trkpt><trkpt lat="37.8251167" lon="13.9661317"><ele>396.0</ele><time>2026-05-06T10:47:54.036Z</time></trkpt><trkpt lat="37.8249217" lon="13.9662283"><ele>396.0</ele><time>2026-05-06T10:47:55.037Z</time></trkpt><trkpt lat="37.82473" lon="13.9663283"><ele>396.0</ele><time>2026-05-06T10:47:56.037Z</time></trkpt><trkpt lat="37.824535" lon="13.9664333"><ele>396.0</ele><time>2026-05-06T10:47:57.037Z</time></trkpt><trkpt lat="37.8243383" lon="13.9665383"><ele>396.0</ele><time>2026-05-06T10:47:58.037Z</time></trkpt><trkpt lat="37.82415" lon="13.9666533"><ele>396.0</ele><time>2026-05-06T10:47:59.037Z</time></trkpt><trkpt lat="37.8239617" lon="13.9667783"><ele>396.66666666666663</ele><time>2026-05-06T10:48:00.037Z</time></trkpt><trkpt lat="37.8237783" lon="13.9669033"><ele>397.3333333333333</ele><time>2026-05-06T10:48:01.037Z</time></trkpt><trkpt lat="37.8236017" lon="13.9670367"><ele>398.0</ele><time>2026-05-06T10:48:02.037Z</time></trkpt><trkpt lat="37.8234267" lon="13.9671683"><ele>398.0</ele><time>2026-05-06T10:48:03.037Z</time></trkpt><trkpt lat="37.8232583" lon="13.9672933"><ele>398.0</ele><time>2026-05-06T10:48:04.037Z</time></trkpt><trkpt lat="37.8230933" lon="13.9674133"><ele>398.0</ele><time>2026-05-06T10:48:05.037Z</time></trkpt><trkpt lat="37.8229267" lon="13.9675417"><ele>397.0</ele><time>2026-05-06T10:48:06.037Z</time></trkpt><trkpt lat="37.8227517" lon="13.9676633"><ele>396.0</ele><time>2026-05-06T10:48:07.037Z</time></trkpt><trkpt lat="37.8225733" lon="13.967785"><ele>395.0</ele><time>2026-05-06T10:48:08.037Z</time></trkpt><trkpt lat="37.8223983" lon="13.9679167"><ele>395.0</ele><time>2026-05-06T10:48:09.037Z</time></trkpt><trkpt lat="37.822225" lon="13.9680483"><ele>395.0</ele><time>2026-05-06T10:48:10.037Z</time></trkpt><trkpt lat="37.8220433" lon="13.9681833"><ele>395.0</ele><time>2026-05-06T10:48:11.037Z</time></trkpt><trkpt lat="37.8218517" lon="13.9683217"><ele>396.5</ele><time>2026-05-06T10:48:12.037Z</time></trkpt><trkpt lat="37.8216533" lon="13.96847"><ele>398.0</ele><time>2026-05-06T10:48:13.037Z</time></trkpt><trkpt lat="37.8214583" lon="13.9686167"><ele>398.0</ele><time>2026-05-06T10:48:14.037Z</time></trkpt><trkpt lat="37.8212583" lon="13.9687683"><ele>398.0</ele><time>2026-05-06T10:48:15.037Z</time></trkpt><trkpt lat="37.821055" lon="13.9689167"><ele>399.0</ele><time>2026-05-06T10:48:16.037Z</time></trkpt><trkpt lat="37.82084" lon="13.9690533"><ele>400.0</ele><time>2026-05-06T10:48:17.037Z</time></trkpt><trkpt lat="37.8206267" lon="13.969175"><ele>401.5</ele><time>2026-05-06T10:48:18.037Z</time></trkpt><trkpt lat="37.8203983" lon="13.969285"><ele>403.0</ele><time>2026-05-06T10:48:19.037Z</time></trkpt><trkpt lat="37.8201617" lon="13.9693817"><ele>406.0</ele><time>2026-05-06T10:48:20.037Z</time></trkpt><trkpt lat="37.819915" lon="13.96946"><ele>409.0</ele><time>2026-05-06T10:48:21.037Z</time></trkpt><trkpt lat="37.8196717" lon="13.96953"><ele>409.0</ele><time>2026-05-06T10:48:22.036Z</time></trkpt><trkpt lat="37.8194217" lon="13.9695783"><ele>409.0</ele><time>2026-05-06T10:48:23.037Z</time></trkpt><trkpt lat="37.8191633" lon="13.9696083"><ele>407.5</ele><time>2026-05-06T10:48:24.037Z</time></trkpt><trkpt lat="37.8189033" lon="13.9696217"><ele>406.0</ele><time>2026-05-06T10:48:25.037Z</time></trkpt><trkpt lat="37.8186467" lon="13.969635"><ele>405.0</ele><time>2026-05-06T10:48:26.037Z</time></trkpt><trkpt lat="37.8183883" lon="13.9696433"><ele>404.0</ele><time>2026-05-06T10:48:27.037Z</time></trkpt><trkpt lat="37.8181167" lon="13.9696367"><ele>404.0</ele><time>2026-05-06T10:48:28.037Z</time></trkpt><trkpt lat="37.8178367" lon="13.9696433"><ele>404.0</ele><time>2026-05-06T10:48:29.037Z</time></trkpt><trkpt lat="37.8175517" lon="13.969645"><ele>409.0</ele><time>2026-05-06T10:48:30.037Z</time></trkpt><trkpt lat="37.81727" lon="13.9696567"><ele>414.0</ele><time>2026-05-06T10:48:31.037Z</time></trkpt><trkpt lat="37.816985" lon="13.9696617"><ele>416.0</ele><time>2026-05-06T10:48:32.037Z</time></trkpt><trkpt lat="37.8167083" lon="13.9696733"><ele>418.0</ele><time>2026-05-06T10:48:33.036Z</time></trkpt><trkpt lat="37.816435" lon="13.9696783"><ele>418.0</ele><time>2026-05-06T10:48:34.037Z</time></trkpt><trkpt lat="37.816155" lon="13.9696833"><ele>418.0</ele><time>2026-05-06T10:48:35.037Z</time></trkpt><trkpt lat="37.8158783" lon="13.969685"><ele>418.5</ele><time>2026-05-06T10:48:36.037Z</time></trkpt><trkpt lat="37.8156067" lon="13.9696917"><ele>419.0</ele><time>2026-05-06T10:48:37.037Z</time></trkpt><trkpt lat="37.815335" lon="13.9697033"><ele>420.0</ele><time>2026-05-06T10:48:38.037Z</time></trkpt><trkpt lat="37.81507" lon="13.9697233"><ele>421.0</ele><time>2026-05-06T10:48:39.037Z</time></trkpt><trkpt lat="37.8148067" lon="13.9697683"><ele>421.0</ele><time>2026-05-06T10:48:40.037Z</time></trkpt><trkpt lat="37.814545" lon="13.9698267"><ele>421.0</ele><time>2026-05-06T10:48:41.037Z</time></trkpt><trkpt lat="37.8142933" lon="13.9699083"><ele>422.5</ele><time>2026-05-06T10:48:42.037Z</time></trkpt><trkpt lat="37.8140433" lon="13.970005"><ele>424.0</ele><time>2026-05-06T10:48:43.037Z</time></trkpt><trkpt lat="37.813795" lon="13.9701317"><ele>427.0</ele><time>2026-05-06T10:48:44.037Z</time></trkpt><trkpt lat="37.8135517" lon="13.9702683"><ele>430.0</ele><time>2026-05-06T10:48:45.037Z</time></trkpt><trkpt lat="37.8133133" lon="13.9704267"><ele>430.0</ele><time>2026-05-06T10:48:46.037Z</time></trkpt><trkpt lat="37.81308" lon="13.9705983"><ele>430.0</ele><time>2026-05-06T10:48:47.037Z</time></trkpt><trkpt lat="37.8128533" lon="13.9707817"><ele>433.5</ele><time>2026-05-06T10:48:48.037Z</time></trkpt><trkpt lat="37.81263" lon="13.9709683"><ele>437.0</ele><time>2026-05-06T10:48:49.037Z</time></trkpt><trkpt lat="37.8124033" lon="13.9711567"><ele>437.0</ele><time>2026-05-06T10:48:50.037Z</time></trkpt><trkpt lat="37.8121783" lon="13.9713417"><ele>437.0</ele><time>2026-05-06T10:48:51.037Z</time></trkpt><trkpt lat="37.811965" lon="13.9715217"><ele>434.0</ele><time>2026-05-06T10:48:52.037Z</time></trkpt><trkpt lat="37.8117467" lon="13.9716983"><ele>431.0</ele><time>2026-05-06T10:48:53.036Z</time></trkpt><trkpt lat="37.8115267" lon="13.971865"><ele>431.0</ele><time>2026-05-06T10:48:54.037Z</time></trkpt><trkpt lat="37.8113" lon="13.9720217"><ele>431.0</ele><time>2026-05-06T10:48:55.037Z</time></trkpt><trkpt lat="37.8110683" lon="13.9721633"><ele>431.5</ele><time>2026-05-06T10:48:56.037Z</time></trkpt><trkpt lat="37.810835" lon="13.9722783"><ele>432.0</ele><time>2026-05-06T10:48:57.037Z</time></trkpt><trkpt lat="37.810595" lon="13.9723733"><ele>432.0</ele><time>2026-05-06T10:48:58.037Z</time></trkpt><trkpt lat="37.8103417" lon="13.9724367"><ele>432.0</ele><time>2026-05-06T10:48:59.037Z</time></trkpt><trkpt lat="37.8100883" lon="13.9724917"><ele>432.0</ele><time>2026-05-06T10:49:00.037Z</time></trkpt><trkpt lat="37.8098383" lon="13.97252"><ele>432.0</ele><time>2026-05-06T10:49:01.037Z</time></trkpt><trkpt lat="37.8095833" lon="13.97253"><ele>434.0</ele><time>2026-05-06T10:49:02.037Z</time></trkpt><trkpt lat="37.8093283" lon="13.9725183"><ele>436.0</ele><time>2026-05-06T10:49:03.037Z</time></trkpt><trkpt lat="37.8090767" lon="13.9724817"><ele>437.0</ele><time>2026-05-06T10:49:04.037Z</time></trkpt><trkpt lat="37.8088267" lon="13.97242"><ele>438.0</ele><time>2026-05-06T10:49:05.037Z</time></trkpt><trkpt lat="37.8085833" lon="13.97233"><ele>440.5</ele><time>2026-05-06T10:49:06.037Z</time></trkpt><trkpt lat="37.808345" lon="13.97222"><ele>443.0</ele><time>2026-05-06T10:49:07.037Z</time></trkpt><trkpt lat="37.8081117" lon="13.9720933"><ele>443.0</ele><time>2026-05-06T10:49:08.037Z</time></trkpt><trkpt lat="37.807885" lon="13.9719433"><ele>443.0</ele><time>2026-05-06T10:49:09.037Z</time></trkpt><trkpt lat="37.807665" lon="13.97177"><ele>445.5</ele><time>2026-05-06T10:49:10.037Z</time></trkpt><trkpt lat="37.80746" lon="13.971585"><ele>448.0</ele><time>2026-05-06T10:49:11.037Z</time></trkpt><trkpt lat="37.8072633" lon="13.9713717"><ele>448.0</ele><time>2026-05-06T10:49:12.037Z</time></trkpt><trkpt lat="37.80708" lon="13.9711533"><ele>448.0</ele><time>2026-05-06T10:49:13.037Z</time></trkpt><trkpt lat="37.8069033" lon="13.9709167"><ele>448.0</ele><time>2026-05-06T10:49:14.037Z</time></trkpt><trkpt lat="37.8067317" lon="13.97067"><ele>448.0</ele><time>2026-05-06T10:49:15.037Z</time></trkpt><trkpt lat="37.806555" lon="13.9704067"><ele>448.0</ele><time>2026-05-06T10:49:16.037Z</time></trkpt><trkpt lat="37.8063833" lon="13.9701367"><ele>448.0</ele><time>2026-05-06T10:49:17.037Z</time></trkpt><trkpt lat="37.80621" lon="13.96987"><ele>448.0</ele><time>2026-05-06T10:49:18.037Z</time></trkpt><trkpt lat="37.80604" lon="13.9696067"><ele>448.0</ele><time>2026-05-06T10:49:19.037Z</time></trkpt><trkpt lat="37.8058683" lon="13.96934"><ele>450.0</ele><time>2026-05-06T10:49:20.037Z</time></trkpt><trkpt lat="37.8056917" lon="13.9690867"><ele>452.0</ele><time>2026-05-06T10:49:21.037Z</time></trkpt><trkpt lat="37.8055117" lon="13.968835"><ele>452.0</ele><time>2026-05-06T10:49:22.037Z</time></trkpt><trkpt lat="37.805325" lon="13.9686"><ele>452.0</ele><time>2026-05-06T10:49:23.037Z</time></trkpt><trkpt lat="37.8051333" lon="13.9683833"><ele>453.5</ele><time>2026-05-06T10:49:24.037Z</time></trkpt><trkpt lat="37.80493" lon="13.9681833"><ele>455.0</ele><time>2026-05-06T10:49:25.037Z</time></trkpt><trkpt lat="37.8047183" lon="13.9679933"><ele>455.0</ele><time>2026-05-06T10:49:26.037Z</time></trkpt><trkpt lat="37.8045017" lon="13.96782"><ele>455.0</ele><time>2026-05-06T10:49:27.037Z</time></trkpt><trkpt lat="37.804275" lon="13.9676583"><ele>459.0</ele><time>2026-05-06T10:49:28.037Z</time></trkpt><trkpt lat="37.8040467" lon="13.9674983"><ele>463.0</ele><time>2026-05-06T10:49:29.037Z</time></trkpt><trkpt lat="37.80382" lon="13.9673517"><ele>463.0</ele><time>2026-05-06T10:49:30.037Z</time></trkpt><trkpt lat="37.8035917" lon="13.967195"><ele>463.0</ele><time>2026-05-06T10:49:31.037Z</time></trkpt><trkpt lat="37.8033683" lon="13.9670383"><ele>462.0</ele><time>2026-05-06T10:49:32.037Z</time></trkpt><trkpt lat="37.803145" lon="13.9668683"><ele>461.0</ele><time>2026-05-06T10:49:33.037Z</time></trkpt><trkpt lat="37.802925" lon="13.9667117"><ele>463.5</ele><time>2026-05-06T10:49:34.037Z</time></trkpt><trkpt lat="37.802695" lon="13.9665583"><ele>466.0</ele><time>2026-05-06T10:49:35.037Z</time></trkpt><trkpt lat="37.8024717" lon="13.9664083"><ele>466.5</ele><time>2026-05-06T10:49:36.037Z</time></trkpt><trkpt lat="37.8022433" lon="13.96626"><ele>467.0</ele><time>2026-05-06T10:49:37.037Z</time></trkpt><trkpt lat="37.8020067" lon="13.9661217"><ele>469.0</ele><time>2026-05-06T10:49:38.037Z</time></trkpt><trkpt lat="37.80178" lon="13.9659817"><ele>471.0</ele><time>2026-05-06T10:49:39.037Z</time></trkpt><trkpt lat="37.8015467" lon="13.965855"><ele>471.0</ele><time>2026-05-06T10:49:40.037Z</time></trkpt><trkpt lat="37.801305" lon="13.965745"><ele>471.0</ele><time>2026-05-06T10:49:41.037Z</time></trkpt><trkpt lat="37.8010583" lon="13.965655"><ele>471.5</ele><time>2026-05-06T10:49:42.037Z</time></trkpt><trkpt lat="37.8008067" lon="13.9655767"><ele>472.0</ele><time>2026-05-06T10:49:43.037Z</time></trkpt><trkpt lat="37.80055" lon="13.9655233"><ele>472.0</ele><time>2026-05-06T10:49:44.037Z</time></trkpt><trkpt lat="37.8002867" lon="13.9654833"><ele>472.0</ele><time>2026-05-06T10:49:45.037Z</time></trkpt><trkpt lat="37.800025" lon="13.9654617"><ele>472.5</ele><time>2026-05-06T10:49:46.037Z</time></trkpt><trkpt lat="37.7997617" lon="13.965455"><ele>473.0</ele><time>2026-05-06T10:49:47.037Z</time></trkpt><trkpt lat="37.7995" lon="13.9654667"><ele>475.0</ele><time>2026-05-06T10:49:48.037Z</time></trkpt><trkpt lat="37.7992367" lon="13.965505"><ele>477.0</ele><time>2026-05-06T10:49:49.037Z</time></trkpt><trkpt lat="37.798975" lon="13.9655583"><ele>477.0</ele><time>2026-05-06T10:49:50.037Z</time></trkpt><trkpt lat="37.7987233" lon="13.9656283"><ele>477.0</ele><time>2026-05-06T10:49:51.037Z</time></trkpt><trkpt lat="37.7984683" lon="13.9657183"><ele>479.0</ele><time>2026-05-06T10:49:52.037Z</time></trkpt><trkpt lat="37.7982183" lon="13.9658317"><ele>481.0</ele><time>2026-05-06T10:49:53.037Z</time></trkpt><trkpt lat="37.797975" lon="13.9659667"><ele>482.0</ele><time>2026-05-06T10:49:54.037Z</time></trkpt><trkpt lat="37.7977417" lon="13.9661167"><ele>483.0</ele><time>2026-05-06T10:49:55.037Z</time></trkpt><trkpt lat="37.7975033" lon="13.9662783"><ele>483.0</ele><time>2026-05-06T10:49:56.037Z</time></trkpt><trkpt lat="37.797275" lon="13.9664617"><ele>483.0</ele><time>2026-05-06T10:49:57.037Z</time></trkpt><trkpt lat="37.7970567" lon="13.96665"><ele>484.0</ele><time>2026-05-06T10:49:58.037Z</time></trkpt><trkpt lat="37.7968383" lon="13.9668467"><ele>485.0</ele><time>2026-05-06T10:49:59.037Z</time></trkpt><trkpt lat="37.7966267" lon="13.967045"><ele>485.0</ele><time>2026-05-06T10:50:00.037Z</time></trkpt><trkpt lat="37.7964067" lon="13.9672433"><ele>485.0</ele><time>2026-05-06T10:50:01.037Z</time></trkpt><trkpt lat="37.79619" lon="13.9674433"><ele>486.0</ele><time>2026-05-06T10:50:02.037Z</time></trkpt><trkpt lat="37.7959767" lon="13.9676433"><ele>487.0</ele><time>2026-05-06T10:50:03.037Z</time></trkpt><trkpt lat="37.7957683" lon="13.9678417"><ele>487.0</ele><time>2026-05-06T10:50:04.037Z</time></trkpt><trkpt lat="37.7955633" lon="13.96804"><ele>487.0</ele><time>2026-05-06T10:50:05.037Z</time></trkpt><trkpt lat="37.7953533" lon="13.9682383"><ele>490.5</ele><time>2026-05-06T10:50:06.037Z</time></trkpt><trkpt lat="37.7951383" lon="13.968435"><ele>494.0</ele><time>2026-05-06T10:50:07.037Z</time></trkpt><trkpt lat="37.794925" lon="13.9686233"><ele>494.0</ele><time>2026-05-06T10:50:08.037Z</time></trkpt><trkpt lat="37.7947133" lon="13.968815"><ele>494.0</ele><time>2026-05-06T10:50:09.037Z</time></trkpt><trkpt lat="37.794495" lon="13.968995"><ele>495.5</ele><time>2026-05-06T10:50:10.036Z</time></trkpt><trkpt lat="37.794275" lon="13.9691783"><ele>497.0</ele><time>2026-05-06T10:50:11.037Z</time></trkpt><trkpt lat="37.794055" lon="13.969355"><ele>497.0</ele><time>2026-05-06T10:50:12.037Z</time></trkpt><trkpt lat="37.7938367" lon="13.96953"><ele>497.0</ele><time>2026-05-06T10:50:13.037Z</time></trkpt><trkpt lat="37.7936133" lon="13.9697017"><ele>498.0</ele><time>2026-05-06T10:50:14.037Z</time></trkpt><trkpt lat="37.793395" lon="13.9698733"><ele>499.0</ele><time>2026-05-06T10:50:15.037Z</time></trkpt><trkpt lat="37.7931783" lon="13.970035"><ele>499.0</ele><time>2026-05-06T10:50:16.037Z</time></trkpt><trkpt lat="37.7929567" lon="13.9701933"><ele>499.0</ele><time>2026-05-06T10:50:17.037Z</time></trkpt><trkpt lat="37.79273" lon="13.97035"><ele>502.0</ele><time>2026-05-06T10:50:18.037Z</time></trkpt><trkpt lat="37.7925017" lon="13.9705033"><ele>505.0</ele><time>2026-05-06T10:50:19.037Z</time></trkpt><trkpt lat="37.7922783" lon="13.970655"><ele>505.0</ele><time>2026-05-06T10:50:20.037Z</time></trkpt><trkpt lat="37.79205" lon="13.9707933"><ele>505.0</ele><time>2026-05-06T10:50:21.037Z</time></trkpt><trkpt lat="37.7918267" lon="13.9709367"><ele>510.0</ele><time>2026-05-06T10:50:22.037Z</time></trkpt><trkpt lat="37.7915967" lon="13.9710733"><ele>515.0</ele><time>2026-05-06T10:50:23.037Z</time></trkpt><trkpt lat="37.7913683" lon="13.9712067"><ele>515.0</ele><time>2026-05-06T10:50:24.037Z</time></trkpt><trkpt lat="37.7911417" lon="13.97134"><ele>515.0</ele><time>2026-05-06T10:50:25.037Z</time></trkpt><trkpt lat="37.790905" lon="13.9714717"><ele>514.0</ele><time>2026-05-06T10:50:26.037Z</time></trkpt><trkpt lat="37.7906733" lon="13.971605"><ele>513.0</ele><time>2026-05-06T10:50:27.037Z</time></trkpt><trkpt lat="37.790435" lon="13.9717367"><ele>514.0</ele><time>2026-05-06T10:50:28.037Z</time></trkpt><trkpt lat="37.7901983" lon="13.97186"><ele>515.0</ele><time>2026-05-06T10:50:29.037Z</time></trkpt><trkpt lat="37.7899683" lon="13.97199"><ele>515.0</ele><time>2026-05-06T10:50:30.037Z</time></trkpt><trkpt lat="37.7897333" lon="13.9721183"><ele>515.0</ele><time>2026-05-06T10:50:31.037Z</time></trkpt><trkpt lat="37.7895017" lon="13.9722533"><ele>515.5</ele><time>2026-05-06T10:50:32.037Z</time></trkpt><trkpt lat="37.7892583" lon="13.972375"><ele>516.0</ele><time>2026-05-06T10:50:33.037Z</time></trkpt><trkpt lat="37.7890217" lon="13.972505"><ele>520.5</ele><time>2026-05-06T10:50:34.036Z</time></trkpt><trkpt lat="37.7887767" lon="13.97263"><ele>525.0</ele><time>2026-05-06T10:50:35.037Z</time></trkpt><trkpt lat="37.788535" lon="13.9727433"><ele>523.0</ele><time>2026-05-06T10:50:36.037Z</time></trkpt><trkpt lat="37.788295" lon="13.97284"><ele>521.0</ele><time>2026-05-06T10:50:37.037Z</time></trkpt><trkpt lat="37.7880533" lon="13.9729267"><ele>521.0</ele><time>2026-05-06T10:50:38.037Z</time></trkpt><trkpt lat="37.7878067" lon="13.9729917"><ele>521.0</ele><time>2026-05-06T10:50:39.037Z</time></trkpt><trkpt lat="37.7875633" lon="13.973045"><ele>520.5</ele><time>2026-05-06T10:50:40.037Z</time></trkpt><trkpt lat="37.78731" lon="13.97307"><ele>520.0</ele><time>2026-05-06T10:50:41.037Z</time></trkpt><trkpt lat="37.78705" lon="13.97308"><ele>521.5</ele><time>2026-05-06T10:50:42.037Z</time></trkpt><trkpt lat="37.7868" lon="13.973075"><ele>523.0</ele><time>2026-05-06T10:50:43.037Z</time></trkpt><trkpt lat="37.786545" lon="13.9730467"><ele>523.0</ele><time>2026-05-06T10:50:44.037Z</time></trkpt><trkpt lat="37.7862967" lon="13.9730017"><ele>523.0</ele><time>2026-05-06T10:50:45.037Z</time></trkpt><trkpt lat="37.7860433" lon="13.9729417"><ele>529.0</ele><time>2026-05-06T10:50:46.037Z</time></trkpt><trkpt lat="37.7857933" lon="13.9728583"><ele>535.0</ele><time>2026-05-06T10:50:47.037Z</time></trkpt><trkpt lat="37.78555" lon="13.9727667"><ele>535.0</ele><time>2026-05-06T10:50:48.037Z</time></trkpt><trkpt lat="37.785315" lon="13.9726633"><ele>535.0</ele><time>2026-05-06T10:50:49.037Z</time></trkpt><trkpt lat="37.785075" lon="13.972565"><ele>534.0</ele><time>2026-05-06T10:50:50.037Z</time></trkpt><trkpt lat="37.7848283" lon="13.972455"><ele>533.0</ele><time>2026-05-06T10:50:51.037Z</time></trkpt><trkpt lat="37.7845917" lon="13.972345"><ele>533.0</ele><time>2026-05-06T10:50:52.037Z</time></trkpt><trkpt lat="37.784355" lon="13.9722367"><ele>533.0</ele><time>2026-05-06T10:50:53.037Z</time></trkpt><trkpt lat="37.7841083" lon="13.9721267"><ele>534.0</ele><time>2026-05-06T10:50:54.037Z</time></trkpt><trkpt lat="37.783875" lon="13.9720217"><ele>535.0</ele><time>2026-05-06T10:50:55.037Z</time></trkpt><trkpt lat="37.7836333" lon="13.97191"><ele>538.5</ele><time>2026-05-06T10:50:56.036Z</time></trkpt><trkpt lat="37.7833933" lon="13.9717983"><ele>542.0</ele><time>2026-05-06T10:50:57.037Z</time></trkpt><trkpt lat="37.7831583" lon="13.971695"><ele>540.0</ele><time>2026-05-06T10:50:58.036Z</time></trkpt><trkpt lat="37.7829167" lon="13.97158"><ele>538.0</ele><time>2026-05-06T10:50:59.036Z</time></trkpt><trkpt lat="37.7826817" lon="13.97148"><ele>539.5</ele><time>2026-05-06T10:51:00.037Z</time></trkpt><trkpt lat="37.7824417" lon="13.9713833"><ele>541.0</ele><time>2026-05-06T10:51:01.037Z</time></trkpt><trkpt lat="37.7822" lon="13.9712933"><ele>541.0</ele><time>2026-05-06T10:51:02.037Z</time></trkpt><trkpt lat="37.7819617" lon="13.97122"><ele>541.0</ele><time>2026-05-06T10:51:03.037Z</time></trkpt><trkpt lat="37.7817133" lon="13.9711583"><ele>541.0</ele><time>2026-05-06T10:51:04.037Z</time></trkpt><trkpt lat="37.7814617" lon="13.9711133"><ele>541.0</ele><time>2026-05-06T10:51:05.037Z</time></trkpt><trkpt lat="37.781205" lon="13.9710867"><ele>544.5</ele><time>2026-05-06T10:51:06.037Z</time></trkpt><trkpt lat="37.7809483" lon="13.97107"><ele>548.0</ele><time>2026-05-06T10:51:07.037Z</time></trkpt><trkpt lat="37.7806933" lon="13.9710783"><ele>548.0</ele><time>2026-05-06T10:51:08.037Z</time></trkpt><trkpt lat="37.7804383" lon="13.9711017"><ele>548.0</ele><time>2026-05-06T10:51:09.037Z</time></trkpt><trkpt lat="37.7801883" lon="13.9711467"><ele>550.0</ele><time>2026-05-06T10:51:10.037Z</time></trkpt><trkpt lat="37.7799417" lon="13.971205"><ele>552.0</ele><time>2026-05-06T10:51:11.036Z</time></trkpt><trkpt lat="37.779695" lon="13.9712767"><ele>552.0</ele><time>2026-05-06T10:51:12.037Z</time></trkpt><trkpt lat="37.7794483" lon="13.97136"><ele>552.0</ele><time>2026-05-06T10:51:13.037Z</time></trkpt><trkpt lat="37.7792033" lon="13.9714367"><ele>553.0</ele><time>2026-05-06T10:51:14.037Z</time></trkpt><trkpt lat="37.7789567" lon="13.9715117"><ele>554.0</ele><time>2026-05-06T10:51:15.037Z</time></trkpt><trkpt lat="37.77871" lon="13.9715833"><ele>553.5</ele><time>2026-05-06T10:51:16.037Z</time></trkpt><trkpt lat="37.7784633" lon="13.9716583"><ele>553.0</ele><time>2026-05-06T10:51:17.037Z</time></trkpt><trkpt lat="37.778215" lon="13.97173"><ele>555.5</ele><time>2026-05-06T10:51:18.037Z</time></trkpt><trkpt lat="37.7779717" lon="13.9718033"><ele>558.0</ele><time>2026-05-06T10:51:19.037Z</time></trkpt><trkpt lat="37.77772" lon="13.9718733"><ele>558.0</ele><time>2026-05-06T10:51:20.037Z</time></trkpt><trkpt lat="37.7774667" lon="13.9719367"><ele>558.0</ele><time>2026-05-06T10:51:21.037Z</time></trkpt><trkpt lat="37.777215" lon="13.9719917"><ele>558.0</ele><time>2026-05-06T10:51:22.037Z</time></trkpt><trkpt lat="37.7769617" lon="13.97205"><ele>558.0</ele><time>2026-05-06T10:51:23.037Z</time></trkpt><trkpt lat="37.7767117" lon="13.972105"><ele>559.0</ele><time>2026-05-06T10:51:24.037Z</time></trkpt><trkpt lat="37.7764633" lon="13.9721567"><ele>560.0</ele><time>2026-05-06T10:51:25.037Z</time></trkpt><trkpt lat="37.7762133" lon="13.9722017"><ele>562.0</ele><time>2026-05-06T10:51:26.037Z</time></trkpt><trkpt lat="37.7759583" lon="13.97224"><ele>564.0</ele><time>2026-05-06T10:51:27.037Z</time></trkpt><trkpt lat="37.7757067" lon="13.9722783"><ele>564.0</ele><time>2026-05-06T10:51:28.037Z</time></trkpt><trkpt lat="37.775455" lon="13.972315"><ele>564.0</ele><time>2026-05-06T10:51:29.037Z</time></trkpt><trkpt lat="37.7751983" lon="13.9723517"><ele>566.0</ele><time>2026-05-06T10:51:30.037Z</time></trkpt><trkpt lat="37.7749467" lon="13.972385"><ele>568.0</ele><time>2026-05-06T10:51:31.037Z</time></trkpt><trkpt lat="37.7746933" lon="13.9724183"><ele>568.0</ele><time>2026-05-06T10:51:32.037Z</time></trkpt><trkpt lat="37.7744433" lon="13.9724533"><ele>568.0</ele><time>2026-05-06T10:51:33.037Z</time></trkpt><trkpt lat="37.7741867" lon="13.9724833"><ele>571.0</ele><time>2026-05-06T10:51:34.037Z</time></trkpt><trkpt lat="37.7739317" lon="13.9725117"><ele>574.0</ele><time>2026-05-06T10:51:35.037Z</time></trkpt><trkpt lat="37.7736767" lon="13.97254"><ele>578.5</ele><time>2026-05-06T10:51:36.037Z</time></trkpt><trkpt lat="37.7734217" lon="13.9725683"><ele>583.0</ele><time>2026-05-06T10:51:37.037Z</time></trkpt><trkpt lat="37.7731767" lon="13.9726"><ele>583.0</ele><time>2026-05-06T10:51:38.037Z</time></trkpt><trkpt lat="37.7729417" lon="13.972625"><ele>583.0</ele><time>2026-05-06T10:51:39.037Z</time></trkpt><trkpt lat="37.772715" lon="13.9726433"><ele>583.5</ele><time>2026-05-06T10:51:40.037Z</time></trkpt><trkpt lat="37.7724833" lon="13.9726683"><ele>584.0</ele><time>2026-05-06T10:51:41.037Z</time></trkpt><trkpt lat="37.7722567" lon="13.97268"><ele>584.0</ele><time>2026-05-06T10:51:42.037Z</time></trkpt><trkpt lat="37.7720283" lon="13.972685"><ele>584.0</ele><time>2026-05-06T10:51:43.037Z</time></trkpt><trkpt lat="37.7717967" lon="13.9726767"><ele>584.5</ele><time>2026-05-06T10:51:44.037Z</time></trkpt><trkpt lat="37.7715683" lon="13.9726533"><ele>585.0</ele><time>2026-05-06T10:51:45.037Z</time></trkpt><trkpt lat="37.7713417" lon="13.97262"><ele>585.0</ele><time>2026-05-06T10:51:46.037Z</time></trkpt><trkpt lat="37.7711167" lon="13.97257"><ele>585.0</ele><time>2026-05-06T10:51:47.037Z</time></trkpt><trkpt lat="37.7708933" lon="13.9725033"><ele>588.0</ele><time>2026-05-06T10:51:48.037Z</time></trkpt><trkpt lat="37.7706683" lon="13.9724267"><ele>591.0</ele><time>2026-05-06T10:51:49.037Z</time></trkpt><trkpt lat="37.770445" lon="13.9723333"><ele>591.0</ele><time>2026-05-06T10:51:50.037Z</time></trkpt><trkpt lat="37.7702317" lon="13.9722317"><ele>591.0</ele><time>2026-05-06T10:51:51.037Z</time></trkpt><trkpt lat="37.77003" lon="13.9721167"><ele>591.0</ele><time>2026-05-06T10:51:52.037Z</time></trkpt><trkpt lat="37.76984" lon="13.972"><ele>591.6666666666666</ele><time>2026-05-06T10:51:53.036Z</time></trkpt><trkpt lat="37.769665" lon="13.971885"><ele>592.3333333333333</ele><time>2026-05-06T10:51:54.037Z</time></trkpt><trkpt lat="37.7694983" lon="13.9717733"><ele>593.0</ele><time>2026-05-06T10:51:55.037Z</time></trkpt><trkpt lat="37.7693417" lon="13.9716633"><ele>595.6666666666666</ele><time>2026-05-06T10:51:56.037Z</time></trkpt><trkpt lat="37.7691967" lon="13.9715617"><ele>598.3333333333334</ele><time>2026-05-06T10:51:57.037Z</time></trkpt><trkpt lat="37.769055" lon="13.97146"><ele>601.0</ele><time>2026-05-06T10:51:58.037Z</time></trkpt><trkpt lat="37.7689217" lon="13.971375"><ele>601.0</ele><time>2026-05-06T10:51:59.037Z</time></trkpt><trkpt lat="37.7687867" lon="13.9713017"><ele>601.0</ele><time>2026-05-06T10:52:00.037Z</time></trkpt><trkpt lat="37.768655" lon="13.9712333"><ele>601.0</ele><time>2026-05-06T10:52:01.037Z</time></trkpt><trkpt lat="37.768525" lon="13.9711633"><ele>601.0</ele><time>2026-05-06T10:52:02.037Z</time></trkpt><trkpt lat="37.7683983" lon="13.9710867"><ele>601.75</ele><time>2026-05-06T10:52:03.037Z</time></trkpt><trkpt lat="37.768275" lon="13.9710033"><ele>602.5</ele><time>2026-05-06T10:52:04.037Z</time></trkpt><trkpt lat="37.768155" lon="13.9709167"><ele>603.25</ele><time>2026-05-06T10:52:05.037Z</time></trkpt><trkpt lat="37.7680317" lon="13.9708317"><ele>604.0</ele><time>2026-05-06T10:52:06.037Z</time></trkpt><trkpt lat="37.7679083" lon="13.97074"><ele>604.0</ele><time>2026-05-06T10:52:07.037Z</time></trkpt><trkpt lat="37.7677867" lon="13.97066"><ele>604.0</ele><time>2026-05-06T10:52:08.037Z</time></trkpt><trkpt lat="37.76767" lon="13.9705833"><ele>604.0</ele><time>2026-05-06T10:52:09.037Z</time></trkpt><trkpt lat="37.7675517" lon="13.970505"><ele>604.0</ele><time>2026-05-06T10:52:10.037Z</time></trkpt><trkpt lat="37.7674367" lon="13.9704183"><ele>605.5</ele><time>2026-05-06T10:52:11.037Z</time></trkpt><trkpt lat="37.7673233" lon="13.9703233"><ele>607.0</ele><time>2026-05-06T10:52:12.037Z</time></trkpt><trkpt lat="37.7672117" lon="13.9702283"><ele>608.5</ele><time>2026-05-06T10:52:13.037Z</time></trkpt><trkpt lat="37.7671033" lon="13.9701267"><ele>610.0</ele><time>2026-05-06T10:52:14.037Z</time></trkpt><trkpt lat="37.7669967" lon="13.97003"><ele>611.25</ele><time>2026-05-06T10:52:15.037Z</time></trkpt><trkpt lat="37.7668883" lon="13.9699233"><ele>612.5</ele><time>2026-05-06T10:52:16.037Z</time></trkpt><trkpt lat="37.7667783" lon="13.9698133"><ele>613.75</ele><time>2026-05-06T10:52:17.037Z</time></trkpt><trkpt lat="37.7666733" lon="13.9696983"><ele>615.0</ele><time>2026-05-06T10:52:18.037Z</time></trkpt><trkpt lat="37.76657" lon="13.9695783"><ele>615.75</ele><time>2026-05-06T10:52:19.037Z</time></trkpt><trkpt lat="37.76647" lon="13.9694617"><ele>616.5</ele><time>2026-05-06T10:52:20.037Z</time></trkpt><trkpt lat="37.7663717" lon="13.9693483"><ele>617.25</ele><time>2026-05-06T10:52:21.037Z</time></trkpt><trkpt lat="37.7662717" lon="13.96924"><ele>618.0</ele><time>2026-05-06T10:52:22.037Z</time></trkpt><trkpt lat="37.76617" lon="13.9691283"><ele>618.25</ele><time>2026-05-06T10:52:23.037Z</time></trkpt><trkpt lat="37.7660717" lon="13.96902"><ele>618.5</ele><time>2026-05-06T10:52:24.037Z</time></trkpt><trkpt lat="37.7659683" lon="13.96891"><ele>618.75</ele><time>2026-05-06T10:52:25.037Z</time></trkpt><trkpt lat="37.76587" lon="13.9687983"><ele>619.0</ele><time>2026-05-06T10:52:26.037Z</time></trkpt><trkpt lat="37.7657683" lon="13.96869"><ele>620.5</ele><time>2026-05-06T10:52:27.037Z</time></trkpt><trkpt lat="37.765665" lon="13.96858"><ele>622.0</ele><time>2026-05-06T10:52:28.037Z</time></trkpt><trkpt lat="37.7655617" lon="13.9684767"><ele>623.5</ele><time>2026-05-06T10:52:29.037Z</time></trkpt><trkpt lat="37.76545" lon="13.9683767"><ele>625.0</ele><time>2026-05-06T10:52:30.037Z</time></trkpt><trkpt lat="37.765335" lon="13.9682733"><ele>625.0</ele><time>2026-05-06T10:52:31.037Z</time></trkpt><trkpt lat="37.7652167" lon="13.9681783"><ele>625.0</ele><time>2026-05-06T10:52:32.037Z</time></trkpt><trkpt lat="37.765095" lon="13.968085"><ele>625.0</ele><time>2026-05-06T10:52:33.037Z</time></trkpt><trkpt lat="37.76497" lon="13.967995"><ele>625.0</ele><time>2026-05-06T10:52:34.037Z</time></trkpt><trkpt lat="37.7648467" lon="13.9678933"><ele>627.0</ele><time>2026-05-06T10:52:35.037Z</time></trkpt><trkpt lat="37.7647267" lon="13.9677967"><ele>629.0</ele><time>2026-05-06T10:52:36.037Z</time></trkpt><trkpt lat="37.7645983" lon="13.967705"><ele>631.0</ele><time>2026-05-06T10:52:37.037Z</time></trkpt><trkpt lat="37.7644667" lon="13.9676067"><ele>633.0</ele><time>2026-05-06T10:52:38.037Z</time></trkpt><trkpt lat="37.7643417" lon="13.9675067"><ele>635.0</ele><time>2026-05-06T10:52:39.037Z</time></trkpt><trkpt lat="37.764215" lon="13.967405"><ele>637.0</ele><time>2026-05-06T10:52:40.037Z</time></trkpt><trkpt lat="37.7640833" lon="13.9673067"><ele>639.0</ele><time>2026-05-06T10:52:41.037Z</time></trkpt><trkpt lat="37.76395" lon="13.9672033"><ele>639.0</ele><time>2026-05-06T10:52:42.037Z</time></trkpt><trkpt lat="37.7638117" lon="13.9670933"><ele>639.0</ele><time>2026-05-06T10:52:43.037Z</time></trkpt><trkpt lat="37.76368" lon="13.9669833"><ele>639.0</ele><time>2026-05-06T10:52:44.037Z</time></trkpt><trkpt lat="37.76354" lon="13.9668667"><ele>640.0</ele><time>2026-05-06T10:52:45.037Z</time></trkpt><trkpt lat="37.7633917" lon="13.9667533"><ele>641.0</ele><time>2026-05-06T10:52:46.037Z</time></trkpt><trkpt lat="37.7632417" lon="13.96663"><ele>642.0</ele><time>2026-05-06T10:52:47.037Z</time></trkpt><trkpt lat="37.7630867" lon="13.9665133"><ele>642.0</ele><time>2026-05-06T10:52:48.037Z</time></trkpt><trkpt lat="37.7629383" lon="13.966395"><ele>642.0</ele><time>2026-05-06T10:52:49.037Z</time></trkpt><trkpt lat="37.7627833" lon="13.966265"><ele>642.0</ele><time>2026-05-06T10:52:50.037Z</time></trkpt><trkpt lat="37.7626133" lon="13.9661383"><ele>646.6666666666666</ele><time>2026-05-06T10:52:51.037Z</time></trkpt><trkpt lat="37.7624633" lon="13.96601"><ele>651.3333333333333</ele><time>2026-05-06T10:52:52.037Z</time></trkpt><trkpt lat="37.7623183" lon="13.9658667"><ele>656.0</ele><time>2026-05-06T10:52:53.037Z</time></trkpt><trkpt lat="37.7621667" lon="13.965735"><ele>657.6666666666666</ele><time>2026-05-06T10:52:54.037Z</time></trkpt><trkpt lat="37.762015" lon="13.9656017"><ele>659.3333333333334</ele><time>2026-05-06T10:52:55.036Z</time></trkpt><trkpt lat="37.7618633" lon="13.9654683"><ele>661.0</ele><time>2026-05-06T10:52:56.037Z</time></trkpt><trkpt lat="37.749995" lon="13.9635983"><ele>665.0</ele><time>2026-05-06T10:54:19.037Z</time></trkpt><trkpt lat="37.7498817" lon="13.9637583"><ele>669.0</ele><time>2026-05-06T10:54:20.037Z</time></trkpt><trkpt lat="37.7498233" lon="13.9639433"><ele>673.0</ele><time>2026-05-06T10:54:21.037Z</time></trkpt><trkpt lat="37.7497583" lon="13.9641117"><ele>674.5</ele><time>2026-05-06T10:54:22.037Z</time></trkpt><trkpt lat="37.749685" lon="13.9642667"><ele>676.0</ele><time>2026-05-06T10:54:23.036Z</time></trkpt><trkpt lat="37.749615" lon="13.9644217"><ele>677.5</ele><time>2026-05-06T10:54:24.037Z</time></trkpt><trkpt lat="37.7495483" lon="13.9645767"><ele>679.0</ele><time>2026-05-06T10:54:25.037Z</time></trkpt><trkpt lat="37.7494867" lon="13.964725"><ele>679.0</ele><time>2026-05-06T10:54:26.037Z</time></trkpt><trkpt lat="37.749425" lon="13.964865"><ele>679.0</ele><time>2026-05-06T10:54:27.037Z</time></trkpt><trkpt lat="37.7493483" lon="13.9650067"><ele>679.0</ele><time>2026-05-06T10:54:28.036Z</time></trkpt><trkpt lat="37.7492617" lon="13.965125"><ele>679.0</ele><time>2026-05-06T10:54:29.037Z</time></trkpt><trkpt lat="37.74918" lon="13.9652233"><ele>677.5</ele><time>2026-05-06T10:54:30.036Z</time></trkpt><trkpt lat="37.7490867" lon="13.9653183"><ele>676.0</ele><time>2026-05-06T10:54:31.037Z</time></trkpt><trkpt lat="37.7489983" lon="13.9654383"><ele>674.5</ele><time>2026-05-06T10:54:32.037Z</time></trkpt><trkpt lat="37.7489267" lon="13.9655833"><ele>673.0</ele><time>2026-05-06T10:54:33.037Z</time></trkpt><trkpt lat="37.7488583" lon="13.9657533"><ele>674.0</ele><time>2026-05-06T10:54:34.037Z</time></trkpt><trkpt lat="37.74879" lon="13.9659383"><ele>675.0</ele><time>2026-05-06T10:54:35.037Z</time></trkpt><trkpt lat="37.748715" lon="13.9661283"><ele>676.0</ele><time>2026-05-06T10:54:36.037Z</time></trkpt><trkpt lat="37.7486367" lon="13.9663183"><ele>676.0</ele><time>2026-05-06T10:54:37.037Z</time></trkpt><trkpt lat="37.7485567" lon="13.9665167"><ele>676.0</ele><time>2026-05-06T10:54:38.037Z</time></trkpt><trkpt lat="37.748475" lon="13.9667083"><ele>676.0</ele><time>2026-05-06T10:54:39.037Z</time></trkpt><trkpt lat="37.7483917" lon="13.966905"><ele>673.6666666666667</ele><time>2026-05-06T10:54:40.037Z</time></trkpt><trkpt lat="37.74831" lon="13.96711"><ele>671.3333333333334</ele><time>2026-05-06T10:54:41.037Z</time></trkpt><trkpt lat="37.748225" lon="13.9673167"><ele>669.0</ele><time>2026-05-06T10:54:42.037Z</time></trkpt><trkpt lat="37.7481383" lon="13.9675233"><ele>669.0</ele><time>2026-05-06T10:54:43.037Z</time></trkpt><trkpt lat="37.74805" lon="13.9677367"><ele>669.0</ele><time>2026-05-06T10:54:44.036Z</time></trkpt><trkpt lat="37.747965" lon="13.967955"><ele>669.0</ele><time>2026-05-06T10:54:45.037Z</time></trkpt><trkpt lat="37.7478767" lon="13.9681717"><ele>669.0</ele><time>2026-05-06T10:54:46.037Z</time></trkpt><trkpt lat="37.7477817" lon="13.9683867"><ele>669.0</ele><time>2026-05-06T10:54:47.037Z</time></trkpt><trkpt lat="37.7476917" lon="13.9686067"><ele>669.0</ele><time>2026-05-06T10:54:48.036Z</time></trkpt><trkpt lat="37.7476" lon="13.96883"><ele>665.6666666666666</ele><time>2026-05-06T10:54:49.037Z</time></trkpt><trkpt lat="37.7475067" lon="13.9690567"><ele>662.3333333333333</ele><time>2026-05-06T10:54:50.037Z</time></trkpt><trkpt lat="37.74741" lon="13.9692833"><ele>659.0</ele><time>2026-05-06T10:54:51.037Z</time></trkpt><trkpt lat="37.7473167" lon="13.9695117"><ele>659.3333333333333</ele><time>2026-05-06T10:54:52.037Z</time></trkpt><trkpt lat="37.74722" lon="13.969745"><ele>659.6666666666666</ele><time>2026-05-06T10:54:53.037Z</time></trkpt><trkpt lat="37.7471233" lon="13.96998"><ele>660.0</ele><time>2026-05-06T10:54:54.037Z</time></trkpt><trkpt lat="37.7470317" lon="13.9702133"><ele>660.0</ele><time>2026-05-06T10:54:55.037Z</time></trkpt><trkpt lat="37.7469317" lon="13.970445"><ele>660.0</ele><time>2026-05-06T10:54:56.037Z</time></trkpt><trkpt lat="37.746835" lon="13.9706733"><ele>660.0</ele><time>2026-05-06T10:54:57.037Z</time></trkpt><trkpt lat="37.7467383" lon="13.970905"><ele>657.6666666666666</ele><time>2026-05-06T10:54:58.037Z</time></trkpt><trkpt lat="37.7466417" lon="13.971135"><ele>655.3333333333333</ele><time>2026-05-06T10:54:59.037Z</time></trkpt><trkpt lat="37.7465467" lon="13.9713717"><ele>653.0</ele><time>2026-05-06T10:55:00.037Z</time></trkpt><trkpt lat="37.7464517" lon="13.9716"><ele>653.0</ele><time>2026-05-06T10:55:01.037Z</time></trkpt><trkpt lat="37.746355" lon="13.971825"><ele>653.0</ele><time>2026-05-06T10:55:02.037Z</time></trkpt><trkpt lat="37.7462683" lon="13.9720517"><ele>653.0</ele><time>2026-05-06T10:55:03.037Z</time></trkpt><trkpt lat="37.7461667" lon="13.9722817"><ele>653.0</ele><time>2026-05-06T10:55:04.037Z</time></trkpt><trkpt lat="37.7460733" lon="13.972515"><ele>653.0</ele><time>2026-05-06T10:55:05.037Z</time></trkpt><trkpt lat="37.7459783" lon="13.9727417"><ele>653.0</ele><time>2026-05-06T10:55:06.037Z</time></trkpt><trkpt lat="37.745885" lon="13.972965"><ele>650.6666666666666</ele><time>2026-05-06T10:55:07.037Z</time></trkpt><trkpt lat="37.74579" lon="13.97319"><ele>648.3333333333334</ele><time>2026-05-06T10:55:08.037Z</time></trkpt><trkpt lat="37.745695" lon="13.9734217"><ele>646.0</ele><time>2026-05-06T10:55:09.037Z</time></trkpt><trkpt lat="37.745595" lon="13.9736517"><ele>645.3333333333334</ele><time>2026-05-06T10:55:10.037Z</time></trkpt><trkpt lat="37.745505" lon="13.9738867"><ele>644.6666666666666</ele><time>2026-05-06T10:55:11.037Z</time></trkpt><trkpt lat="37.7454133" lon="13.9741133"><ele>644.0</ele><time>2026-05-06T10:55:12.037Z</time></trkpt><trkpt lat="37.7453133" lon="13.9743383"><ele>643.6666666666666</ele><time>2026-05-06T10:55:13.037Z</time></trkpt><trkpt lat="37.7452167" lon="13.9745667"><ele>643.3333333333334</ele><time>2026-05-06T10:55:14.037Z</time></trkpt><trkpt lat="37.745125" lon="13.9747933"><ele>643.0</ele><time>2026-05-06T10:55:15.037Z</time></trkpt><trkpt lat="37.74503" lon="13.975015"><ele>641.0</ele><time>2026-05-06T10:55:16.037Z</time></trkpt><trkpt lat="37.7449383" lon="13.9752383"><ele>639.0</ele><time>2026-05-06T10:55:17.037Z</time></trkpt><trkpt lat="37.7448417" lon="13.9754667"><ele>637.0</ele><time>2026-05-06T10:55:18.037Z</time></trkpt><trkpt lat="37.7447483" lon="13.9756967"><ele>636.3333333333334</ele><time>2026-05-06T10:55:19.037Z</time></trkpt><trkpt lat="37.7446583" lon="13.9759217"><ele>635.6666666666666</ele><time>2026-05-06T10:55:20.037Z</time></trkpt><trkpt lat="37.7445667" lon="13.97615"><ele>635.0</ele><time>2026-05-06T10:55:21.037Z</time></trkpt><trkpt lat="37.7444733" lon="13.9763867"><ele>635.0</ele><time>2026-05-06T10:55:22.037Z</time></trkpt><trkpt lat="37.7443783" lon="13.9766167"><ele>635.0</ele><time>2026-05-06T10:55:23.037Z</time></trkpt><trkpt lat="37.7442833" lon="13.9768467"><ele>635.0</ele><time>2026-05-06T10:55:24.037Z</time></trkpt><trkpt lat="37.744195" lon="13.97708"><ele>634.6666666666666</ele><time>2026-05-06T10:55:25.037Z</time></trkpt><trkpt lat="37.7441067" lon="13.9773183"><ele>634.3333333333334</ele><time>2026-05-06T10:55:26.037Z</time></trkpt><trkpt lat="37.74402" lon="13.977555"><ele>634.0</ele><time>2026-05-06T10:55:27.037Z</time></trkpt><trkpt lat="37.743935" lon="13.9777883"><ele>633.6666666666667</ele><time>2026-05-06T10:55:28.037Z</time></trkpt><trkpt lat="37.7438567" lon="13.9780283"><ele>633.3333333333334</ele><time>2026-05-06T10:55:29.037Z</time></trkpt><trkpt lat="37.7437817" lon="13.9782733"><ele>633.0</ele><time>2026-05-06T10:55:30.037Z</time></trkpt><trkpt lat="37.7437183" lon="13.9785267"><ele>633.0</ele><time>2026-05-06T10:55:31.037Z</time></trkpt><trkpt lat="37.743665" lon="13.9787883"><ele>633.0</ele><time>2026-05-06T10:55:32.037Z</time></trkpt><trkpt lat="37.7436117" lon="13.97905"><ele>633.0</ele><time>2026-05-06T10:55:33.037Z</time></trkpt><trkpt lat="37.74357" lon="13.9793167"><ele>634.0</ele><time>2026-05-06T10:55:34.037Z</time></trkpt><trkpt lat="37.7435383" lon="13.9795817"><ele>635.0</ele><time>2026-05-06T10:55:35.036Z</time></trkpt><trkpt lat="37.7435183" lon="13.9798483"><ele>636.0</ele><time>2026-05-06T10:55:36.036Z</time></trkpt><trkpt lat="37.7434983" lon="13.980115"><ele>637.0</ele><time>2026-05-06T10:55:37.036Z</time></trkpt><trkpt lat="37.743485" lon="13.9803867"><ele>638.0</ele><time>2026-05-06T10:55:38.036Z</time></trkpt><trkpt lat="37.7434817" lon="13.9806583"><ele>639.0</ele><time>2026-05-06T10:55:39.036Z</time></trkpt><trkpt lat="37.74349" lon="13.98094"><ele>639.0</ele><time>2026-05-06T10:55:40.036Z</time></trkpt><trkpt lat="37.7435117" lon="13.9812333"><ele>639.0</ele><time>2026-05-06T10:55:41.036Z</time></trkpt><trkpt lat="37.74354" lon="13.9815333"><ele>634.0</ele><time>2026-05-06T10:55:42.036Z</time></trkpt><trkpt lat="37.7435817" lon="13.9818367"><ele>629.0</ele><time>2026-05-06T10:55:43.036Z</time></trkpt><trkpt lat="37.7436283" lon="13.9821433"><ele>629.0</ele><time>2026-05-06T10:55:44.036Z</time></trkpt><trkpt lat="37.7436683" lon="13.9824583"><ele>629.0</ele><time>2026-05-06T10:55:45.036Z</time></trkpt><trkpt lat="37.743715" lon="13.9827733"><ele>628.0</ele><time>2026-05-06T10:55:46.036Z</time></trkpt><trkpt lat="37.7437667" lon="13.9830917"><ele>627.0</ele><time>2026-05-06T10:55:47.035Z</time></trkpt><trkpt lat="37.74381" lon="13.9834133"><ele>626.5</ele><time>2026-05-06T10:55:48.036Z</time></trkpt><trkpt lat="37.7438533" lon="13.9837317"><ele>626.0</ele><time>2026-05-06T10:55:49.036Z</time></trkpt><trkpt lat="37.7438967" lon="13.9840483"><ele>625.5</ele><time>2026-05-06T10:55:50.036Z</time></trkpt><trkpt lat="37.7439417" lon="13.9843667"><ele>625.0</ele><time>2026-05-06T10:55:51.036Z</time></trkpt><trkpt lat="37.7439783" lon="13.9846867"><ele>625.0</ele><time>2026-05-06T10:55:52.036Z</time></trkpt><trkpt lat="37.7440133" lon="13.985005"><ele>625.0</ele><time>2026-05-06T10:55:53.036Z</time></trkpt><trkpt lat="37.744045" lon="13.985325"><ele>625.0</ele><time>2026-05-06T10:55:54.036Z</time></trkpt><trkpt lat="37.744075" lon="13.98564"><ele>625.0</ele><time>2026-05-06T10:55:55.036Z</time></trkpt><trkpt lat="37.7440983" lon="13.9859617"><ele>625.5</ele><time>2026-05-06T10:55:56.036Z</time></trkpt><trkpt lat="37.7441133" lon="13.986285"><ele>626.0</ele><time>2026-05-06T10:55:57.036Z</time></trkpt><trkpt lat="37.7441183" lon="13.986605"><ele>625.5</ele><time>2026-05-06T10:55:58.036Z</time></trkpt><trkpt lat="37.74411" lon="13.9869267"><ele>625.0</ele><time>2026-05-06T10:55:59.036Z</time></trkpt><trkpt lat="37.744085" lon="13.987245"><ele>623.0</ele><time>2026-05-06T10:56:00.036Z</time></trkpt><trkpt lat="37.7440517" lon="13.987565"><ele>621.0</ele><time>2026-05-06T10:56:01.036Z</time></trkpt><trkpt lat="37.7440067" lon="13.9878767"><ele>621.0</ele><time>2026-05-06T10:56:02.036Z</time></trkpt><trkpt lat="37.7439517" lon="13.9881917"><ele>621.0</ele><time>2026-05-06T10:56:03.036Z</time></trkpt><trkpt lat="37.743895" lon="13.9885033"><ele>620.5</ele><time>2026-05-06T10:56:04.036Z</time></trkpt><trkpt lat="37.7438433" lon="13.9888183"><ele>620.0</ele><time>2026-05-06T10:56:05.036Z</time></trkpt><trkpt lat="37.743785" lon="13.9891333"><ele>616.5</ele><time>2026-05-06T10:56:06.036Z</time></trkpt><trkpt lat="37.7437283" lon="13.9894467"><ele>613.0</ele><time>2026-05-06T10:56:07.036Z</time></trkpt><trkpt lat="37.7436683" lon="13.9897617"><ele>613.0</ele><time>2026-05-06T10:56:08.036Z</time></trkpt><trkpt lat="37.7436133" lon="13.9900683"><ele>613.0</ele><time>2026-05-06T10:56:09.036Z</time></trkpt><trkpt lat="37.74356" lon="13.9903867"><ele>612.0</ele><time>2026-05-06T10:56:10.036Z</time></trkpt><trkpt lat="37.743495" lon="13.9907033"><ele>611.0</ele><time>2026-05-06T10:56:11.036Z</time></trkpt><trkpt lat="37.74344" lon="13.99102"><ele>610.0</ele><time>2026-05-06T10:56:12.036Z</time></trkpt><trkpt lat="37.7433767" lon="13.9913333"><ele>609.0</ele><time>2026-05-06T10:56:13.036Z</time></trkpt><trkpt lat="37.7433133" lon="13.9916383"><ele>607.0</ele><time>2026-05-06T10:56:14.035Z</time></trkpt><trkpt lat="37.743245" lon="13.99195"><ele>605.0</ele><time>2026-05-06T10:56:15.036Z</time></trkpt><trkpt lat="37.7431633" lon="13.9922583"><ele>605.5</ele><time>2026-05-06T10:56:16.036Z</time></trkpt><trkpt lat="37.74308" lon="13.99256"><ele>606.0</ele><time>2026-05-06T10:56:17.036Z</time></trkpt><trkpt lat="37.7429883" lon="13.9928617"><ele>606.0</ele><time>2026-05-06T10:56:18.036Z</time></trkpt><trkpt lat="37.74289" lon="13.9931583"><ele>606.0</ele><time>2026-05-06T10:56:19.035Z</time></trkpt><trkpt lat="37.7427817" lon="13.993455"><ele>605.0</ele><time>2026-05-06T10:56:20.036Z</time></trkpt><trkpt lat="37.742675" lon="13.9937483"><ele>604.0</ele><time>2026-05-06T10:56:21.036Z</time></trkpt><trkpt lat="37.74257" lon="13.9940467"><ele>602.5</ele><time>2026-05-06T10:56:22.036Z</time></trkpt><trkpt lat="37.7424667" lon="13.99434"><ele>601.0</ele><time>2026-05-06T10:56:23.036Z</time></trkpt><trkpt lat="37.7423667" lon="13.994635"><ele>601.0</ele><time>2026-05-06T10:56:24.036Z</time></trkpt><trkpt lat="37.7422667" lon="13.994925"><ele>601.0</ele><time>2026-05-06T10:56:25.036Z</time></trkpt><trkpt lat="37.7421617" lon="13.9952233"><ele>601.0</ele><time>2026-05-06T10:56:26.036Z</time></trkpt><trkpt lat="37.742065" lon="13.99552"><ele>601.0</ele><time>2026-05-06T10:56:27.036Z</time></trkpt><trkpt lat="37.7419683" lon="13.9958133"><ele>600.0</ele><time>2026-05-06T10:56:28.036Z</time></trkpt><trkpt lat="37.7418683" lon="13.996095"><ele>599.0</ele><time>2026-05-06T10:56:29.036Z</time></trkpt><trkpt lat="37.7417783" lon="13.996365"><ele>599.0</ele><time>2026-05-06T10:56:30.036Z</time></trkpt><trkpt lat="37.7416833" lon="13.9966417"><ele>599.0</ele><time>2026-05-06T10:56:31.036Z</time></trkpt><trkpt lat="37.741585" lon="13.9969217"><ele>601.5</ele><time>2026-05-06T10:56:32.036Z</time></trkpt><trkpt lat="37.7414867" lon="13.9972083"><ele>604.0</ele><time>2026-05-06T10:56:33.036Z</time></trkpt><trkpt lat="37.7413883" lon="13.9974967"><ele>607.0</ele><time>2026-05-06T10:56:34.036Z</time></trkpt><trkpt lat="37.7412917" lon="13.9977883"><ele>610.0</ele><time>2026-05-06T10:56:35.036Z</time></trkpt><trkpt lat="37.7412033" lon="13.9980883"><ele>610.0</ele><time>2026-05-06T10:56:36.036Z</time></trkpt><trkpt lat="37.7411183" lon="13.9983883"><ele>610.0</ele><time>2026-05-06T10:56:37.036Z</time></trkpt><trkpt lat="37.741035" lon="13.9986917"><ele>605.5</ele><time>2026-05-06T10:56:38.036Z</time></trkpt><trkpt lat="37.7409517" lon="13.9990033"><ele>601.0</ele><time>2026-05-06T10:56:39.036Z</time></trkpt><trkpt lat="37.740865" lon="13.9993133"><ele>600.5</ele><time>2026-05-06T10:56:40.036Z</time></trkpt><trkpt lat="37.7407733" lon="13.99962"><ele>600.0</ele><time>2026-05-06T10:56:41.036Z</time></trkpt><trkpt lat="37.7406817" lon="13.9999267"><ele>600.0</ele><time>2026-05-06T10:56:42.036Z</time></trkpt><trkpt lat="37.7405917" lon="14.000235"><ele>600.0</ele><time>2026-05-06T10:56:43.036Z</time></trkpt><trkpt lat="37.74051" lon="14.0005533"><ele>600.5</ele><time>2026-05-06T10:56:44.036Z</time></trkpt><trkpt lat="37.740425" lon="14.00086"><ele>601.0</ele><time>2026-05-06T10:56:45.036Z</time></trkpt><trkpt lat="37.7403383" lon="14.00117"><ele>601.0</ele><time>2026-05-06T10:56:46.036Z</time></trkpt><trkpt lat="37.7402533" lon="14.0014783"><ele>601.0</ele><time>2026-05-06T10:56:47.036Z</time></trkpt><trkpt lat="37.7401583" lon="14.0017867"><ele>595.0</ele><time>2026-05-06T10:56:48.036Z</time></trkpt><trkpt lat="37.7400667" lon="14.0020983"><ele>589.0</ele><time>2026-05-06T10:56:49.036Z</time></trkpt><trkpt lat="37.7399817" lon="14.0024017"><ele>589.0</ele><time>2026-05-06T10:56:50.036Z</time></trkpt><trkpt lat="37.7398967" lon="14.00271"><ele>589.0</ele><time>2026-05-06T10:56:51.036Z</time></trkpt><trkpt lat="37.7398133" lon="14.0030167"><ele>589.0</ele><time>2026-05-06T10:56:52.036Z</time></trkpt><trkpt lat="37.73972" lon="14.0033217"><ele>589.0</ele><time>2026-05-06T10:56:53.036Z</time></trkpt><trkpt lat="37.7396367" lon="14.003625"><ele>588.5</ele><time>2026-05-06T10:56:54.036Z</time></trkpt><trkpt lat="37.739555" lon="14.0039333"><ele>588.0</ele><time>2026-05-06T10:56:55.036Z</time></trkpt><trkpt lat="37.7394733" lon="14.0042383"><ele>587.5</ele><time>2026-05-06T10:56:56.036Z</time></trkpt><trkpt lat="37.7393933" lon="14.0045467"><ele>587.0</ele><time>2026-05-06T10:56:57.036Z</time></trkpt><trkpt lat="37.7393117" lon="14.0048533"><ele>583.5</ele><time>2026-05-06T10:56:58.036Z</time></trkpt><trkpt lat="37.7392233" lon="14.00516"><ele>580.0</ele><time>2026-05-06T10:56:59.036Z</time></trkpt><trkpt lat="37.7391383" lon="14.005465"><ele>580.0</ele><time>2026-05-06T10:57:00.036Z</time></trkpt><trkpt lat="37.73906" lon="14.0057767"><ele>580.0</ele><time>2026-05-06T10:57:01.036Z</time></trkpt><trkpt lat="37.73898" lon="14.0060817"><ele>580.0</ele><time>2026-05-06T10:57:02.036Z</time></trkpt><trkpt lat="37.7388983" lon="14.006385"><ele>580.0</ele><time>2026-05-06T10:57:03.036Z</time></trkpt><trkpt lat="37.7388183" lon="14.0066933"><ele>579.0</ele><time>2026-05-06T10:57:04.036Z</time></trkpt><trkpt lat="37.73874" lon="14.0070083"><ele>578.0</ele><time>2026-05-06T10:57:05.036Z</time></trkpt><trkpt lat="37.73867" lon="14.007315"><ele>578.5</ele><time>2026-05-06T10:57:06.036Z</time></trkpt><trkpt lat="37.7386033" lon="14.0076283"><ele>579.0</ele><time>2026-05-06T10:57:07.036Z</time></trkpt><trkpt lat="37.7385417" lon="14.00794"><ele>577.5</ele><time>2026-05-06T10:57:08.036Z</time></trkpt><trkpt lat="37.7384817" lon="14.0082567"><ele>576.0</ele><time>2026-05-06T10:57:09.036Z</time></trkpt><trkpt lat="37.7384267" lon="14.0085717"><ele>576.0</ele><time>2026-05-06T10:57:10.036Z</time></trkpt><trkpt lat="37.7383733" lon="14.0088917"><ele>576.0</ele><time>2026-05-06T10:57:11.035Z</time></trkpt><trkpt lat="37.7383233" lon="14.009215"><ele>575.0</ele><time>2026-05-06T10:57:12.036Z</time></trkpt><trkpt lat="37.7382767" lon="14.0095367"><ele>574.0</ele><time>2026-05-06T10:57:13.036Z</time></trkpt><trkpt lat="37.7382367" lon="14.00986"><ele>573.5</ele><time>2026-05-06T10:57:14.036Z</time></trkpt><trkpt lat="37.7381967" lon="14.010185"><ele>573.0</ele><time>2026-05-06T10:57:15.036Z</time></trkpt><trkpt lat="37.7381633" lon="14.0105117"><ele>572.5</ele><time>2026-05-06T10:57:16.036Z</time></trkpt><trkpt lat="37.7381367" lon="14.0108333"><ele>572.0</ele><time>2026-05-06T10:57:17.036Z</time></trkpt><trkpt lat="37.73811" lon="14.01116"><ele>572.0</ele><time>2026-05-06T10:57:18.036Z</time></trkpt><trkpt lat="37.7380867" lon="14.01149"><ele>572.0</ele><time>2026-05-06T10:57:19.036Z</time></trkpt><trkpt lat="37.738065" lon="14.0118133"><ele>570.5</ele><time>2026-05-06T10:57:20.036Z</time></trkpt><trkpt lat="37.7380433" lon="14.012135"><ele>569.0</ele><time>2026-05-06T10:57:21.036Z</time></trkpt><trkpt lat="37.7380233" lon="14.0124583"><ele>568.0</ele><time>2026-05-06T10:57:22.036Z</time></trkpt><trkpt lat="37.738" lon="14.0127783"><ele>567.0</ele><time>2026-05-06T10:57:23.036Z</time></trkpt><trkpt lat="37.73797" lon="14.0131017"><ele>567.0</ele><time>2026-05-06T10:57:24.036Z</time></trkpt><trkpt lat="37.737945" lon="14.013425"><ele>567.0</ele><time>2026-05-06T10:57:25.036Z</time></trkpt><trkpt lat="37.737915" lon="14.0137483"><ele>567.0</ele><time>2026-05-06T10:57:26.036Z</time></trkpt><trkpt lat="37.7378867" lon="14.014065"><ele>567.0</ele><time>2026-05-06T10:57:27.036Z</time></trkpt><trkpt lat="37.73786" lon="14.0143917"><ele>566.0</ele><time>2026-05-06T10:57:28.036Z</time></trkpt><trkpt lat="37.7378317" lon="14.0147117"><ele>565.0</ele><time>2026-05-06T10:57:29.036Z</time></trkpt><trkpt lat="37.7378083" lon="14.0150333"><ele>565.0</ele><time>2026-05-06T10:57:30.036Z</time></trkpt><trkpt lat="37.7377833" lon="14.015355"><ele>565.0</ele><time>2026-05-06T10:57:31.036Z</time></trkpt><trkpt lat="37.7377533" lon="14.0156783"><ele>565.0</ele><time>2026-05-06T10:57:32.036Z</time></trkpt><trkpt lat="37.7377217" lon="14.0160017"><ele>565.0</ele><time>2026-05-06T10:57:33.035Z</time></trkpt><trkpt lat="37.7376883" lon="14.01633"><ele>561.0</ele><time>2026-05-06T10:57:34.036Z</time></trkpt><trkpt lat="37.737655" lon="14.0166533"><ele>557.0</ele><time>2026-05-06T10:57:35.036Z</time></trkpt><trkpt lat="37.737615" lon="14.0169733"><ele>557.0</ele><time>2026-05-06T10:57:36.036Z</time></trkpt><trkpt lat="37.737575" lon="14.017295"><ele>557.0</ele><time>2026-05-06T10:57:37.036Z</time></trkpt><trkpt lat="37.737525" lon="14.017615"><ele>556.5</ele><time>2026-05-06T10:57:38.035Z</time></trkpt><trkpt lat="37.737465" lon="14.0179333"><ele>556.0</ele><time>2026-05-06T10:57:39.036Z</time></trkpt><trkpt lat="37.737405" lon="14.01825"><ele>557.0</ele><time>2026-05-06T10:57:40.036Z</time></trkpt><trkpt lat="37.7373383" lon="14.0185633"><ele>558.0</ele><time>2026-05-06T10:57:41.036Z</time></trkpt><trkpt lat="37.7372617" lon="14.0188733"><ele>558.5</ele><time>2026-05-06T10:57:42.036Z</time></trkpt><trkpt lat="37.7371817" lon="14.0191817"><ele>559.0</ele><time>2026-05-06T10:57:43.036Z</time></trkpt><trkpt lat="37.7370917" lon="14.0194833"><ele>559.0</ele><time>2026-05-06T10:57:44.036Z</time></trkpt><trkpt lat="37.7370117" lon="14.0197867"><ele>559.0</ele><time>2026-05-06T10:57:45.036Z</time></trkpt><trkpt lat="37.7369167" lon="14.0200867"><ele>554.5</ele><time>2026-05-06T10:57:46.036Z</time></trkpt><trkpt lat="37.7368117" lon="14.0203833"><ele>550.0</ele><time>2026-05-06T10:57:47.036Z</time></trkpt><trkpt lat="37.7367033" lon="14.020685"><ele>550.5</ele><time>2026-05-06T10:57:48.036Z</time></trkpt><trkpt lat="37.7366017" lon="14.02098"><ele>551.0</ele><time>2026-05-06T10:57:49.036Z</time></trkpt><trkpt lat="37.7364883" lon="14.0212733"><ele>551.0</ele><time>2026-05-06T10:57:50.036Z</time></trkpt><trkpt lat="37.7363717" lon="14.0215667"><ele>551.0</ele><time>2026-05-06T10:57:51.036Z</time></trkpt><trkpt lat="37.7362583" lon="14.0218517"><ele>550.5</ele><time>2026-05-06T10:57:52.036Z</time></trkpt><trkpt lat="37.7361467" lon="14.0221433"><ele>550.0</ele><time>2026-05-06T10:57:53.036Z</time></trkpt><trkpt lat="37.7360217" lon="14.0224233"><ele>549.0</ele><time>2026-05-06T10:57:54.036Z</time></trkpt><trkpt lat="37.7359033" lon="14.0227083"><ele>548.0</ele><time>2026-05-06T10:57:55.036Z</time></trkpt><trkpt lat="37.735785" lon="14.0229983"><ele>548.0</ele><time>2026-05-06T10:57:56.036Z</time></trkpt><trkpt lat="37.7356667" lon="14.0232933"><ele>548.0</ele><time>2026-05-06T10:57:57.036Z</time></trkpt><trkpt lat="37.735555" lon="14.02358"><ele>548.5</ele><time>2026-05-06T10:57:58.036Z</time></trkpt><trkpt lat="37.7354367" lon="14.0238667"><ele>549.0</ele><time>2026-05-06T10:57:59.036Z</time></trkpt><trkpt lat="37.7353233" lon="14.0241567"><ele>546.0</ele><time>2026-05-06T10:58:00.036Z</time></trkpt><trkpt lat="37.7352083" lon="14.0244467"><ele>543.0</ele><time>2026-05-06T10:58:01.036Z</time></trkpt><trkpt lat="37.73509" lon="14.0247333"><ele>545.5</ele><time>2026-05-06T10:58:02.036Z</time></trkpt><trkpt lat="37.734965" lon="14.0250183"><ele>548.0</ele><time>2026-05-06T10:58:03.036Z</time></trkpt><trkpt lat="37.7348367" lon="14.025305"><ele>548.0</ele><time>2026-05-06T10:58:04.036Z</time></trkpt><trkpt lat="37.7346983" lon="14.0255833"><ele>548.0</ele><time>2026-05-06T10:58:05.036Z</time></trkpt><trkpt lat="37.734555" lon="14.0258517"><ele>546.0</ele><time>2026-05-06T10:58:06.036Z</time></trkpt><trkpt lat="37.73441" lon="14.026115"><ele>544.0</ele><time>2026-05-06T10:58:07.036Z</time></trkpt><trkpt lat="37.7342533" lon="14.0263617"><ele>544.0</ele><time>2026-05-06T10:58:08.036Z</time></trkpt><trkpt lat="37.7340833" lon="14.0266033"><ele>544.0</ele><time>2026-05-06T10:58:09.035Z</time></trkpt><trkpt lat="37.733895" lon="14.0268317"><ele>544.0</ele><time>2026-05-06T10:58:10.036Z</time></trkpt><trkpt lat="37.7336967" lon="14.0270483"><ele>544.0</ele><time>2026-05-06T10:58:11.036Z</time></trkpt><trkpt lat="37.7334933" lon="14.0272533"><ele>544.0</ele><time>2026-05-06T10:58:12.036Z</time></trkpt><trkpt lat="37.733285" lon="14.0274417"><ele>544.0</ele><time>2026-05-06T10:58:13.036Z</time></trkpt><trkpt lat="37.733065" lon="14.027615"><ele>543.5</ele><time>2026-05-06T10:58:14.036Z</time></trkpt><trkpt lat="37.732845" lon="14.0277683"><ele>543.0</ele><time>2026-05-06T10:58:15.036Z</time></trkpt><trkpt lat="37.7326183" lon="14.0279033"><ele>543.0</ele><time>2026-05-06T10:58:16.035Z</time></trkpt><trkpt lat="37.7323833" lon="14.0280233"><ele>543.0</ele><time>2026-05-06T10:58:17.036Z</time></trkpt><trkpt lat="37.7321417" lon="14.0281267"><ele>543.0</ele><time>2026-05-06T10:58:18.036Z</time></trkpt><trkpt lat="37.7318917" lon="14.0282117"><ele>543.0</ele><time>2026-05-06T10:58:19.036Z</time></trkpt><trkpt lat="37.7316417" lon="14.0282833"><ele>539.5</ele><time>2026-05-06T10:58:20.035Z</time></trkpt><trkpt lat="37.7313867" lon="14.0283433"><ele>536.0</ele><time>2026-05-06T10:58:21.036Z</time></trkpt><trkpt lat="37.73113" lon="14.0283983"><ele>533.5</ele><time>2026-05-06T10:58:22.036Z</time></trkpt><trkpt lat="37.730875" lon="14.028445"><ele>531.0</ele><time>2026-05-06T10:58:23.036Z</time></trkpt><trkpt lat="37.7306167" lon="14.028495"><ele>531.0</ele><time>2026-05-06T10:58:24.036Z</time></trkpt><trkpt lat="37.7303617" lon="14.0285483"><ele>531.0</ele><time>2026-05-06T10:58:25.036Z</time></trkpt><trkpt lat="37.7301083" lon="14.0286"><ele>529.5</ele><time>2026-05-06T10:58:26.036Z</time></trkpt><trkpt lat="37.7298583" lon="14.02865"><ele>528.0</ele><time>2026-05-06T10:58:27.036Z</time></trkpt><trkpt lat="37.7296067" lon="14.0287083"><ele>527.0</ele><time>2026-05-06T10:58:28.036Z</time></trkpt><trkpt lat="37.72935" lon="14.0287717"><ele>526.0</ele><time>2026-05-06T10:58:29.036Z</time></trkpt><trkpt lat="37.7291" lon="14.02885"><ele>526.0</ele><time>2026-05-06T10:58:30.036Z</time></trkpt><trkpt lat="37.7288533" lon="14.0289433"><ele>526.0</ele><time>2026-05-06T10:58:31.036Z</time></trkpt><trkpt lat="37.7286117" lon="14.0290533"><ele>524.5</ele><time>2026-05-06T10:58:32.036Z</time></trkpt><trkpt lat="37.7283783" lon="14.0291783"><ele>523.0</ele><time>2026-05-06T10:58:33.036Z</time></trkpt><trkpt lat="37.72815" lon="14.029325"><ele>523.0</ele><time>2026-05-06T10:58:34.036Z</time></trkpt><trkpt lat="37.72793" lon="14.02948"><ele>523.0</ele><time>2026-05-06T10:58:35.036Z</time></trkpt><trkpt lat="37.7277117" lon="14.0296517"><ele>523.5</ele><time>2026-05-06T10:58:36.036Z</time></trkpt><trkpt lat="37.7275083" lon="14.0298383"><ele>524.0</ele><time>2026-05-06T10:58:37.036Z</time></trkpt><trkpt lat="37.7273017" lon="14.030035"><ele>524.0</ele><time>2026-05-06T10:58:38.036Z</time></trkpt><trkpt lat="37.7271083" lon="14.0302533"><ele>524.0</ele><time>2026-05-06T10:58:39.036Z</time></trkpt><trkpt lat="37.72692" lon="14.0304717"><ele>523.5</ele><time>2026-05-06T10:58:40.036Z</time></trkpt><trkpt lat="37.7267417" lon="14.0306933"><ele>523.0</ele><time>2026-05-06T10:58:41.035Z</time></trkpt><trkpt lat="37.7265517" lon="14.0309183"><ele>523.0</ele><time>2026-05-06T10:58:42.036Z</time></trkpt><trkpt lat="37.7263633" lon="14.0311467"><ele>523.0</ele><time>2026-05-06T10:58:43.036Z</time></trkpt><trkpt lat="37.726175" lon="14.0313733"><ele>522.0</ele><time>2026-05-06T10:58:44.036Z</time></trkpt><trkpt lat="37.7259883" lon="14.0315933"><ele>521.0</ele><time>2026-05-06T10:58:45.036Z</time></trkpt><trkpt lat="37.7258033" lon="14.031815"><ele>521.0</ele><time>2026-05-06T10:58:46.035Z</time></trkpt><trkpt lat="37.7256167" lon="14.0320467"><ele>521.0</ele><time>2026-05-06T10:58:47.036Z</time></trkpt><trkpt lat="37.72543" lon="14.032275"><ele>521.0</ele><time>2026-05-06T10:58:48.036Z</time></trkpt><trkpt lat="37.72525" lon="14.0325017"><ele>521.0</ele><time>2026-05-06T10:58:49.036Z</time></trkpt><trkpt lat="37.7250683" lon="14.032735"><ele>520.0</ele><time>2026-05-06T10:58:50.035Z</time></trkpt><trkpt lat="37.7248867" lon="14.0329733"><ele>519.0</ele><time>2026-05-06T10:58:51.036Z</time></trkpt><trkpt lat="37.7247067" lon="14.0332067"><ele>519.5</ele><time>2026-05-06T10:58:52.036Z</time></trkpt><trkpt lat="37.7245267" lon="14.0334433"><ele>520.0</ele><time>2026-05-06T10:58:53.036Z</time></trkpt><trkpt lat="37.724355" lon="14.03366"><ele>519.0</ele><time>2026-05-06T10:58:54.036Z</time></trkpt><trkpt lat="37.72417" lon="14.0338883"><ele>518.0</ele><time>2026-05-06T10:58:55.036Z</time></trkpt><trkpt lat="37.7239817" lon="14.03411"><ele>518.0</ele><time>2026-05-06T10:58:56.036Z</time></trkpt><trkpt lat="37.723785" lon="14.0343283"><ele>518.0</ele><time>2026-05-06T10:58:57.036Z</time></trkpt><trkpt lat="37.7235933" lon="14.0345517"><ele>518.0</ele><time>2026-05-06T10:58:58.036Z</time></trkpt><trkpt lat="37.7234033" lon="14.0347683"><ele>518.0</ele><time>2026-05-06T10:58:59.036Z</time></trkpt><trkpt lat="37.7232067" lon="14.034985"><ele>518.0</ele><time>2026-05-06T10:59:00.036Z</time></trkpt><trkpt lat="37.7230067" lon="14.035195"><ele>518.0</ele><time>2026-05-06T10:59:01.036Z</time></trkpt><trkpt lat="37.7228083" lon="14.0353983"><ele>516.0</ele><time>2026-05-06T10:59:02.036Z</time></trkpt><trkpt lat="37.7226033" lon="14.0355883"><ele>514.0</ele><time>2026-05-06T10:59:03.036Z</time></trkpt><trkpt lat="37.7223983" lon="14.0357767"><ele>515.5</ele><time>2026-05-06T10:59:04.036Z</time></trkpt><trkpt lat="37.722185" lon="14.0359633"><ele>517.0</ele><time>2026-05-06T10:59:05.036Z</time></trkpt><trkpt lat="37.72197" lon="14.036135"><ele>514.0</ele><time>2026-05-06T10:59:06.036Z</time></trkpt><trkpt lat="37.7217483" lon="14.0362983"><ele>511.0</ele><time>2026-05-06T10:59:07.036Z</time></trkpt><trkpt lat="37.7215217" lon="14.03646"><ele>511.0</ele><time>2026-05-06T10:59:08.036Z</time></trkpt><trkpt lat="37.7212883" lon="14.0366133"><ele>511.0</ele><time>2026-05-06T10:59:09.036Z</time></trkpt><trkpt lat="37.7210633" lon="14.0367567"><ele>511.5</ele><time>2026-05-06T10:59:10.036Z</time></trkpt><trkpt lat="37.72083" lon="14.0368933"><ele>512.0</ele><time>2026-05-06T10:59:11.036Z</time></trkpt><trkpt lat="37.7205967" lon="14.0370267"><ele>512.0</ele><time>2026-05-06T10:59:12.036Z</time></trkpt><trkpt lat="37.7203633" lon="14.0371483"><ele>512.0</ele><time>2026-05-06T10:59:13.036Z</time></trkpt><trkpt lat="37.7201267" lon="14.0372683"><ele>513.0</ele><time>2026-05-06T10:59:14.036Z</time></trkpt><trkpt lat="37.719885" lon="14.0373717"><ele>514.0</ele><time>2026-05-06T10:59:15.036Z</time></trkpt><trkpt lat="37.71964" lon="14.0374667"><ele>517.5</ele><time>2026-05-06T10:59:16.036Z</time></trkpt><trkpt lat="37.7193867" lon="14.0375567"><ele>521.0</ele><time>2026-05-06T10:59:17.036Z</time></trkpt><trkpt lat="37.7191367" lon="14.0376383"><ele>521.0</ele><time>2026-05-06T10:59:18.036Z</time></trkpt><trkpt lat="37.7188867" lon="14.03771"><ele>521.0</ele><time>2026-05-06T10:59:19.036Z</time></trkpt><trkpt lat="37.718635" lon="14.0377783"><ele>520.0</ele><time>2026-05-06T10:59:20.036Z</time></trkpt><trkpt lat="37.718385" lon="14.0378367"><ele>519.0</ele><time>2026-05-06T10:59:21.036Z</time></trkpt><trkpt lat="37.71813" lon="14.0378933"><ele>519.0</ele><time>2026-05-06T10:59:22.036Z</time></trkpt><trkpt lat="37.7178733" lon="14.0379533"><ele>519.0</ele><time>2026-05-06T10:59:23.036Z</time></trkpt><trkpt lat="37.717615" lon="14.038005"><ele>519.5</ele><time>2026-05-06T10:59:24.036Z</time></trkpt><trkpt lat="37.71736" lon="14.0380583"><ele>520.0</ele><time>2026-05-06T10:59:25.036Z</time></trkpt><trkpt lat="37.717105" lon="14.03811"><ele>520.5</ele><time>2026-05-06T10:59:26.036Z</time></trkpt><trkpt lat="37.7168533" lon="14.0381617"><ele>521.0</ele><time>2026-05-06T10:59:27.036Z</time></trkpt><trkpt lat="37.7165983" lon="14.0382133"><ele>521.0</ele><time>2026-05-06T10:59:28.036Z</time></trkpt><trkpt lat="37.7163417" lon="14.038265"><ele>521.0</ele><time>2026-05-06T10:59:29.036Z</time></trkpt><trkpt lat="37.7160883" lon="14.0383167"><ele>517.5</ele><time>2026-05-06T10:59:30.036Z</time></trkpt><trkpt lat="37.7158317" lon="14.0383683"><ele>514.0</ele><time>2026-05-06T10:59:31.036Z</time></trkpt><trkpt lat="37.7155783" lon="14.0384183"><ele>514.0</ele><time>2026-05-06T10:59:32.036Z</time></trkpt><trkpt lat="37.7153217" lon="14.0384717"><ele>514.0</ele><time>2026-05-06T10:59:33.036Z</time></trkpt><trkpt lat="37.715065" lon="14.0385233"><ele>508.5</ele><time>2026-05-06T10:59:34.036Z</time></trkpt><trkpt lat="37.7148083" lon="14.0385717"><ele>503.0</ele><time>2026-05-06T10:59:35.036Z</time></trkpt><trkpt lat="37.7145533" lon="14.03862"><ele>501.0</ele><time>2026-05-06T10:59:36.036Z</time></trkpt><trkpt lat="37.7143017" lon="14.0386717"><ele>499.0</ele><time>2026-05-06T10:59:37.035Z</time></trkpt><trkpt lat="37.7140517" lon="14.0387233"><ele>499.0</ele><time>2026-05-06T10:59:38.036Z</time></trkpt><trkpt lat="37.7138" lon="14.0387783"><ele>499.0</ele><time>2026-05-06T10:59:39.036Z</time></trkpt><trkpt lat="37.71355" lon="14.0388383"><ele>499.0</ele><time>2026-05-06T10:59:40.036Z</time></trkpt><trkpt lat="37.7132967" lon="14.0389"><ele>499.0</ele><time>2026-05-06T10:59:41.036Z</time></trkpt><trkpt lat="37.7130467" lon="14.038965"><ele>499.0</ele><time>2026-05-06T10:59:42.036Z</time></trkpt><trkpt lat="37.712795" lon="14.0390367"><ele>499.0</ele><time>2026-05-06T10:59:43.036Z</time></trkpt><trkpt lat="37.712545" lon="14.0391233"><ele>499.5</ele><time>2026-05-06T10:59:44.036Z</time></trkpt><trkpt lat="37.7123" lon="14.0392167"><ele>500.0</ele><time>2026-05-06T10:59:45.036Z</time></trkpt><trkpt lat="37.7120583" lon="14.0393183"><ele>499.0</ele><time>2026-05-06T10:59:46.036Z</time></trkpt><trkpt lat="37.711815" lon="14.03943"><ele>498.0</ele><time>2026-05-06T10:59:47.036Z</time></trkpt><trkpt lat="37.711575" lon="14.0395467"><ele>498.0</ele><time>2026-05-06T10:59:48.035Z</time></trkpt><trkpt lat="37.7113417" lon="14.0396733"><ele>498.0</ele><time>2026-05-06T10:59:49.036Z</time></trkpt><trkpt lat="37.7111117" lon="14.0398067"><ele>497.5</ele><time>2026-05-06T10:59:50.036Z</time></trkpt><trkpt lat="37.710885" lon="14.0399517"><ele>497.0</ele><time>2026-05-06T10:59:51.036Z</time></trkpt><trkpt lat="37.7106583" lon="14.040105"><ele>496.0</ele><time>2026-05-06T10:59:52.036Z</time></trkpt><trkpt lat="37.7104317" lon="14.040265"><ele>495.0</ele><time>2026-05-06T10:59:53.036Z</time></trkpt><trkpt lat="37.710215" lon="14.0404267"><ele>494.5</ele><time>2026-05-06T10:59:54.036Z</time></trkpt><trkpt lat="37.7099983" lon="14.0406017"><ele>494.0</ele><time>2026-05-06T10:59:55.036Z</time></trkpt><trkpt lat="37.7097933" lon="14.0407833"><ele>493.5</ele><time>2026-05-06T10:59:56.036Z</time></trkpt><trkpt lat="37.7095833" lon="14.0409733"><ele>493.0</ele><time>2026-05-06T10:59:57.036Z</time></trkpt><trkpt lat="37.7093733" lon="14.0411683"><ele>495.0</ele><time>2026-05-06T10:59:58.036Z</time></trkpt><trkpt lat="37.7091633" lon="14.0413667"><ele>497.0</ele><time>2026-05-06T10:59:59.036Z</time></trkpt><trkpt lat="37.7089517" lon="14.0415683"><ele>497.5</ele><time>2026-05-06T11:00:00.036Z</time></trkpt><trkpt lat="37.7087467" lon="14.041765"><ele>498.0</ele><time>2026-05-06T11:00:01.036Z</time></trkpt><trkpt lat="37.7085417" lon="14.0419717"><ele>501.0</ele><time>2026-05-06T11:00:02.036Z</time></trkpt><trkpt lat="37.7083417" lon="14.0421767"><ele>504.0</ele><time>2026-05-06T11:00:03.036Z</time></trkpt><trkpt lat="37.7081367" lon="14.0423783"><ele>502.5</ele><time>2026-05-06T11:00:04.036Z</time></trkpt><trkpt lat="37.7079333" lon="14.0425783"><ele>501.0</ele><time>2026-05-06T11:00:05.036Z</time></trkpt><trkpt lat="37.7077283" lon="14.0427817"><ele>500.5</ele><time>2026-05-06T11:00:06.036Z</time></trkpt><trkpt lat="37.7075217" lon="14.042985"><ele>500.0</ele><time>2026-05-06T11:00:07.036Z</time></trkpt><trkpt lat="37.70732" lon="14.043185"><ele>500.0</ele><time>2026-05-06T11:00:08.036Z</time></trkpt><trkpt lat="37.7071183" lon="14.0433883"><ele>500.0</ele><time>2026-05-06T11:00:09.036Z</time></trkpt><trkpt lat="37.7069167" lon="14.04359"><ele>499.5</ele><time>2026-05-06T11:00:10.036Z</time></trkpt><trkpt lat="37.7067133" lon="14.0437933"><ele>499.0</ele><time>2026-05-06T11:00:11.036Z</time></trkpt><trkpt lat="37.706515" lon="14.0439967"><ele>503.0</ele><time>2026-05-06T11:00:12.036Z</time></trkpt><trkpt lat="37.706315" lon="14.0442017"><ele>507.0</ele><time>2026-05-06T11:00:13.036Z</time></trkpt><trkpt lat="37.7061083" lon="14.044405"><ele>505.0</ele><time>2026-05-06T11:00:14.036Z</time></trkpt><trkpt lat="37.7059083" lon="14.0446067"><ele>503.0</ele><time>2026-05-06T11:00:15.036Z</time></trkpt><trkpt lat="37.7057017" lon="14.04481"><ele>504.5</ele><time>2026-05-06T11:00:16.036Z</time></trkpt><trkpt lat="37.7055067" lon="14.0450083"><ele>506.0</ele><time>2026-05-06T11:00:17.036Z</time></trkpt><trkpt lat="37.7053083" lon="14.0452033"><ele>502.5</ele><time>2026-05-06T11:00:18.036Z</time></trkpt><trkpt lat="37.7051067" lon="14.0454067"><ele>499.0</ele><time>2026-05-06T11:00:19.036Z</time></trkpt><trkpt lat="37.7048983" lon="14.04561"><ele>501.0</ele><time>2026-05-06T11:00:20.036Z</time></trkpt><trkpt lat="37.7046933" lon="14.04581"><ele>503.0</ele><time>2026-05-06T11:00:21.036Z</time></trkpt><trkpt lat="37.7044917" lon="14.046005"><ele>499.0</ele><time>2026-05-06T11:00:22.036Z</time></trkpt><trkpt lat="37.7042867" lon="14.0462033"><ele>495.0</ele><time>2026-05-06T11:00:23.036Z</time></trkpt><trkpt lat="37.70408" lon="14.0464033"><ele>495.0</ele><time>2026-05-06T11:00:24.036Z</time></trkpt><trkpt lat="37.7038733" lon="14.0466033"><ele>495.0</ele><time>2026-05-06T11:00:25.036Z</time></trkpt><trkpt lat="37.7036667" lon="14.0468117"><ele>491.0</ele><time>2026-05-06T11:00:26.036Z</time></trkpt><trkpt lat="37.7034633" lon="14.04701"><ele>487.0</ele><time>2026-05-06T11:00:27.036Z</time></trkpt><trkpt lat="37.7032533" lon="14.0472067"><ele>487.0</ele><time>2026-05-06T11:00:28.035Z</time></trkpt><trkpt lat="37.7030433" lon="14.0473983"><ele>487.0</ele><time>2026-05-06T11:00:29.036Z</time></trkpt><trkpt lat="37.702835" lon="14.0475833"><ele>487.0</ele><time>2026-05-06T11:00:30.036Z</time></trkpt><trkpt lat="37.7026217" lon="14.04777"><ele>487.0</ele><time>2026-05-06T11:00:31.036Z</time></trkpt><trkpt lat="37.7024" lon="14.04794"><ele>487.0</ele><time>2026-05-06T11:00:32.036Z</time></trkpt><trkpt lat="37.7021733" lon="14.0481017"><ele>487.0</ele><time>2026-05-06T11:00:33.036Z</time></trkpt><trkpt lat="37.7019467" lon="14.0482567"><ele>487.5</ele><time>2026-05-06T11:00:34.036Z</time></trkpt><trkpt lat="37.701715" lon="14.04841"><ele>488.0</ele><time>2026-05-06T11:00:35.036Z</time></trkpt><trkpt lat="37.7014767" lon="14.04855"><ele>488.0</ele><time>2026-05-06T11:00:36.036Z</time></trkpt><trkpt lat="37.7012467" lon="14.048685"><ele>488.0</ele><time>2026-05-06T11:00:37.036Z</time></trkpt><trkpt lat="37.70101" lon="14.0488083"><ele>488.5</ele><time>2026-05-06T11:00:38.036Z</time></trkpt><trkpt lat="37.700775" lon="14.0489167"><ele>489.0</ele><time>2026-05-06T11:00:39.036Z</time></trkpt><trkpt lat="37.70053" lon="14.0490183"><ele>489.0</ele><time>2026-05-06T11:00:40.036Z</time></trkpt><trkpt lat="37.7002833" lon="14.0491083"><ele>489.0</ele><time>2026-05-06T11:00:41.036Z</time></trkpt><trkpt lat="37.7000333" lon="14.0491883"><ele>485.0</ele><time>2026-05-06T11:00:42.036Z</time></trkpt><trkpt lat="37.6997867" lon="14.0492583"><ele>481.0</ele><time>2026-05-06T11:00:43.036Z</time></trkpt><trkpt lat="37.699535" lon="14.049325"><ele>476.0</ele><time>2026-05-06T11:00:44.036Z</time></trkpt><trkpt lat="37.699285" lon="14.0493883"><ele>471.0</ele><time>2026-05-06T11:00:45.036Z</time></trkpt><trkpt lat="37.6990333" lon="14.0494467"><ele>471.0</ele><time>2026-05-06T11:00:46.036Z</time></trkpt><trkpt lat="37.6987783" lon="14.0494967"><ele>471.0</ele><time>2026-05-06T11:00:47.036Z</time></trkpt><trkpt lat="37.698525" lon="14.049545"><ele>471.0</ele><time>2026-05-06T11:00:48.036Z</time></trkpt><trkpt lat="37.6982683" lon="14.04959"><ele>471.0</ele><time>2026-05-06T11:00:49.036Z</time></trkpt><trkpt lat="37.698015" lon="14.0496367"><ele>471.0</ele><time>2026-05-06T11:00:50.036Z</time></trkpt><trkpt lat="37.697765" lon="14.0496833"><ele>471.0</ele><time>2026-05-06T11:00:51.036Z</time></trkpt><trkpt lat="37.6975167" lon="14.04973"><ele>471.0</ele><time>2026-05-06T11:00:52.036Z</time></trkpt><trkpt lat="37.6972667" lon="14.0497733"><ele>471.0</ele><time>2026-05-06T11:00:53.036Z</time></trkpt><trkpt lat="37.6970233" lon="14.049815"><ele>470.33333333333337</ele><time>2026-05-06T11:00:54.036Z</time></trkpt><trkpt lat="37.6968033" lon="14.0498533"><ele>469.6666666666667</ele><time>2026-05-06T11:00:55.036Z</time></trkpt><trkpt lat="37.6966017" lon="14.0498883"><ele>469.0</ele><time>2026-05-06T11:00:56.036Z</time></trkpt><trkpt lat="37.6964067" lon="14.0499183"><ele>469.0</ele><time>2026-05-06T11:00:57.036Z</time></trkpt><trkpt lat="37.6962233" lon="14.0499517"><ele>469.0</ele><time>2026-05-06T11:00:58.035Z</time></trkpt><trkpt lat="37.69604" lon="14.049985"><ele>469.0</ele><time>2026-05-06T11:00:59.036Z</time></trkpt><trkpt lat="37.69586" lon="14.050015"><ele>469.33333333333337</ele><time>2026-05-06T11:01:00.036Z</time></trkpt><trkpt lat="37.6956833" lon="14.050045"><ele>469.66666666666663</ele><time>2026-05-06T11:01:01.036Z</time></trkpt><trkpt lat="37.695515" lon="14.0500767"><ele>470.0</ele><time>2026-05-06T11:01:02.036Z</time></trkpt><trkpt lat="37.6953567" lon="14.0501033"><ele>472.0</ele><time>2026-05-06T11:01:03.036Z</time></trkpt><trkpt lat="37.695205" lon="14.05013"><ele>474.0</ele><time>2026-05-06T11:01:04.036Z</time></trkpt><trkpt lat="37.6950633" lon="14.050155"><ele>476.0</ele><time>2026-05-06T11:01:05.036Z</time></trkpt><trkpt lat="37.6949233" lon="14.0501817"><ele>478.0</ele><time>2026-05-06T11:01:06.036Z</time></trkpt><trkpt lat="37.6947833" lon="14.0501983"><ele>478.0</ele><time>2026-05-06T11:01:07.036Z</time></trkpt><trkpt lat="37.6946467" lon="14.0502183"><ele>478.0</ele><time>2026-05-06T11:01:08.036Z</time></trkpt><trkpt lat="37.6945133" lon="14.0502433"><ele>478.0</ele><time>2026-05-06T11:01:09.036Z</time></trkpt><trkpt lat="37.6943767" lon="14.0502667"><ele>478.0</ele><time>2026-05-06T11:01:10.036Z</time></trkpt><trkpt lat="37.694245" lon="14.0502933"><ele>478.0</ele><time>2026-05-06T11:01:11.036Z</time></trkpt><trkpt lat="37.69411" lon="14.0503183"><ele>478.0</ele><time>2026-05-06T11:01:12.036Z</time></trkpt><trkpt lat="37.6939717" lon="14.0503433"><ele>478.0</ele><time>2026-05-06T11:01:13.036Z</time></trkpt><trkpt lat="37.6938317" lon="14.05037"><ele>478.0</ele><time>2026-05-06T11:01:14.036Z</time></trkpt><trkpt lat="37.6937" lon="14.0503967"><ele>479.25</ele><time>2026-05-06T11:01:15.035Z</time></trkpt><trkpt lat="37.6935733" lon="14.0504167"><ele>480.5</ele><time>2026-05-06T11:01:16.036Z</time></trkpt><trkpt lat="37.69345" lon="14.0504417"><ele>481.75</ele><time>2026-05-06T11:01:17.036Z</time></trkpt><trkpt lat="37.6933333" lon="14.0504617"><ele>483.0</ele><time>2026-05-06T11:01:18.036Z</time></trkpt><trkpt lat="37.6932117" lon="14.0504783"><ele>483.0</ele><time>2026-05-06T11:01:19.036Z</time></trkpt><trkpt lat="37.693085" lon="14.0505033"><ele>483.0</ele><time>2026-05-06T11:01:20.036Z</time></trkpt><trkpt lat="37.69295" lon="14.050525"><ele>483.0</ele><time>2026-05-06T11:01:21.036Z</time></trkpt><trkpt lat="37.6928233" lon="14.050545"><ele>483.0</ele><time>2026-05-06T11:01:22.036Z</time></trkpt><trkpt lat="37.6926883" lon="14.050565"><ele>484.0</ele><time>2026-05-06T11:01:23.036Z</time></trkpt><trkpt lat="37.69255" lon="14.05058"><ele>485.0</ele><time>2026-05-06T11:01:24.035Z</time></trkpt><trkpt lat="37.69241" lon="14.050605"><ele>486.0</ele><time>2026-05-06T11:01:25.036Z</time></trkpt><trkpt lat="37.69227" lon="14.05063"><ele>487.0</ele><time>2026-05-06T11:01:26.036Z</time></trkpt><trkpt lat="37.6921333" lon="14.05065"><ele>487.0</ele><time>2026-05-06T11:01:27.036Z</time></trkpt><trkpt lat="37.6919967" lon="14.05067"><ele>487.0</ele><time>2026-05-06T11:01:28.036Z</time></trkpt><trkpt lat="37.6918617" lon="14.0506917"><ele>487.0</ele><time>2026-05-06T11:01:29.036Z</time></trkpt><trkpt lat="37.6917283" lon="14.05071"><ele>487.0</ele><time>2026-05-06T11:01:30.036Z</time></trkpt><trkpt lat="37.6915917" lon="14.0507267"><ele>487.25</ele><time>2026-05-06T11:01:31.036Z</time></trkpt><trkpt lat="37.6914633" lon="14.0507367"><ele>487.5</ele><time>2026-05-06T11:01:32.036Z</time></trkpt><trkpt lat="37.691335" lon="14.0507483"><ele>487.75</ele><time>2026-05-06T11:01:33.036Z</time></trkpt><trkpt lat="37.6912167" lon="14.0507617"><ele>488.0</ele><time>2026-05-06T11:01:34.036Z</time></trkpt><trkpt lat="37.6911017" lon="14.0507733"><ele>488.0</ele><time>2026-05-06T11:01:35.036Z</time></trkpt><trkpt lat="37.6909917" lon="14.0507933"><ele>487.99999999999994</ele><time>2026-05-06T11:01:36.036Z</time></trkpt><trkpt lat="37.6908933" lon="14.0508083"><ele>487.99999999999994</ele><time>2026-05-06T11:01:37.036Z</time></trkpt><trkpt lat="37.6907867" lon="14.0508283"><ele>488.0</ele><time>2026-05-06T11:01:38.036Z</time></trkpt><trkpt lat="37.6907017" lon="14.0508417"><ele>488.0</ele><time>2026-05-06T11:01:39.036Z</time></trkpt><trkpt lat="37.6906133" lon="14.05086"><ele>487.99999999999994</ele><time>2026-05-06T11:01:40.036Z</time></trkpt><trkpt lat="37.6905317" lon="14.05088"><ele>488.0</ele><time>2026-05-06T11:01:41.036Z</time></trkpt><trkpt lat="37.6904567" lon="14.0508883"><ele>488.0</ele><time>2026-05-06T11:01:42.036Z</time></trkpt><trkpt lat="37.690385" lon="14.050905"><ele>488.0</ele><time>2026-05-06T11:01:43.036Z</time></trkpt><trkpt lat="37.6903133" lon="14.0509183"><ele>487.99999999999994</ele><time>2026-05-06T11:01:44.036Z</time></trkpt><trkpt lat="37.69025" lon="14.05094"><ele>488.0</ele><time>2026-05-06T11:01:45.036Z</time></trkpt><trkpt lat="37.6901383" lon="14.05101"><ele>489.25</ele><time>2026-05-06T11:01:47.036Z</time></trkpt><trkpt lat="37.690035" lon="14.051055"><ele>490.5</ele><time>2026-05-06T11:01:48.036Z</time></trkpt><trkpt lat="37.68995" lon="14.0510917"><ele>491.75</ele><time>2026-05-06T11:01:49.036Z</time></trkpt><trkpt lat="37.6898683" lon="14.0511267"><ele>493.0</ele><time>2026-05-06T11:01:50.036Z</time></trkpt><trkpt lat="37.688085" lon="14.050815"><ele>489.6666666666667</ele><time>2026-05-06T11:02:06.037Z</time></trkpt><trkpt lat="37.687945" lon="14.0508817"><ele>486.33333333333337</ele><time>2026-05-06T11:02:07.037Z</time></trkpt><trkpt lat="37.68779" lon="14.050975"><ele>483.0</ele><time>2026-05-06T11:02:08.037Z</time></trkpt><trkpt lat="37.6876533" lon="14.0510983"><ele>482.0</ele><time>2026-05-06T11:02:09.037Z</time></trkpt><trkpt lat="37.6875317" lon="14.0512517"><ele>481.0</ele><time>2026-05-06T11:02:10.036Z</time></trkpt><trkpt lat="37.6874333" lon="14.051425"><ele>480.0</ele><time>2026-05-06T11:02:11.037Z</time></trkpt><trkpt lat="37.6873667" lon="14.0515917"><ele>479.25</ele><time>2026-05-06T11:02:12.037Z</time></trkpt><trkpt lat="37.687325" lon="14.0517783"><ele>478.5</ele><time>2026-05-06T11:02:13.037Z</time></trkpt><trkpt lat="37.6872983" lon="14.051955"><ele>477.75</ele><time>2026-05-06T11:02:14.036Z</time></trkpt><trkpt lat="37.6872883" lon="14.0521383"><ele>477.0</ele><time>2026-05-06T11:02:15.037Z</time></trkpt><trkpt lat="37.6872733" lon="14.0523083"><ele>477.0</ele><time>2026-05-06T11:02:16.037Z</time></trkpt><trkpt lat="37.687275" lon="14.0524533"><ele>477.00000000000006</ele><time>2026-05-06T11:02:17.037Z</time></trkpt><trkpt lat="37.68727" lon="14.0525783"><ele>477.00000000000006</ele><time>2026-05-06T11:02:18.037Z</time></trkpt><trkpt lat="37.6872367" lon="14.0526767"><ele>477.0</ele><time>2026-05-06T11:02:19.037Z</time></trkpt><trkpt lat="37.6871833" lon="14.0527633"><ele>477.0</ele><time>2026-05-06T11:02:20.037Z</time></trkpt><trkpt lat="37.6870983" lon="14.0528367"><ele>476.25</ele><time>2026-05-06T11:02:21.037Z</time></trkpt><trkpt lat="37.6870017" lon="14.0529067"><ele>475.5</ele><time>2026-05-06T11:02:22.037Z</time></trkpt><trkpt lat="37.68689" lon="14.052975"><ele>474.75</ele><time>2026-05-06T11:02:23.037Z</time></trkpt><trkpt lat="37.68676" lon="14.0530383"><ele>474.0</ele><time>2026-05-06T11:02:24.037Z</time></trkpt><trkpt lat="37.6866133" lon="14.0530967"><ele>472.66666666666663</ele><time>2026-05-06T11:02:25.037Z</time></trkpt><trkpt lat="37.6864633" lon="14.0531383"><ele>471.3333333333333</ele><time>2026-05-06T11:02:26.037Z</time></trkpt><trkpt lat="37.6863067" lon="14.053165"><ele>470.0</ele><time>2026-05-06T11:02:27.037Z</time></trkpt><trkpt lat="37.6861467" lon="14.053175"><ele>467.0</ele><time>2026-05-06T11:02:28.037Z</time></trkpt><trkpt lat="37.6859833" lon="14.0531767"><ele>464.0</ele><time>2026-05-06T11:02:29.037Z</time></trkpt><trkpt lat="37.685815" lon="14.0531767"><ele>461.0</ele><time>2026-05-06T11:02:30.037Z</time></trkpt><trkpt lat="37.68565" lon="14.0531783"><ele>461.0</ele><time>2026-05-06T11:02:31.037Z</time></trkpt><trkpt lat="37.6854933" lon="14.05318"><ele>461.0</ele><time>2026-05-06T11:02:32.037Z</time></trkpt><trkpt lat="37.6853483" lon="14.05318"><ele>461.0</ele><time>2026-05-06T11:02:33.037Z</time></trkpt><trkpt lat="37.68521" lon="14.0531767"><ele>461.0</ele><time>2026-05-06T11:02:34.036Z</time></trkpt><trkpt lat="37.685075" lon="14.0531733"><ele>460.25</ele><time>2026-05-06T11:02:35.036Z</time></trkpt><trkpt lat="37.6849483" lon="14.053175"><ele>459.5</ele><time>2026-05-06T11:02:36.037Z</time></trkpt><trkpt lat="37.6848267" lon="14.053175"><ele>458.75</ele><time>2026-05-06T11:02:37.037Z</time></trkpt><trkpt lat="37.68471" lon="14.05318"><ele>458.0</ele><time>2026-05-06T11:02:38.037Z</time></trkpt><trkpt lat="37.6845983" lon="14.0531783"><ele>458.0</ele><time>2026-05-06T11:02:39.037Z</time></trkpt><trkpt lat="37.6844867" lon="14.0531783"><ele>458.0</ele><time>2026-05-06T11:02:40.037Z</time></trkpt><trkpt lat="37.6843683" lon="14.0531783"><ele>458.0</ele><time>2026-05-06T11:02:41.037Z</time></trkpt><trkpt lat="37.6842483" lon="14.0531867"><ele>458.0</ele><time>2026-05-06T11:02:42.037Z</time></trkpt><trkpt lat="37.6841267" lon="14.0531917"><ele>458.75</ele><time>2026-05-06T11:02:43.037Z</time></trkpt><trkpt lat="37.6840117" lon="14.0531917"><ele>459.5</ele><time>2026-05-06T11:02:44.037Z</time></trkpt><trkpt lat="37.6838967" lon="14.0531883"><ele>460.25</ele><time>2026-05-06T11:02:45.036Z</time></trkpt><trkpt lat="37.6837833" lon="14.0531883"><ele>461.0</ele><time>2026-05-06T11:02:46.037Z</time></trkpt><trkpt lat="37.683665" lon="14.05319"><ele>462.25</ele><time>2026-05-06T11:02:47.036Z</time></trkpt><trkpt lat="37.683545" lon="14.0531933"><ele>463.5</ele><time>2026-05-06T11:02:48.037Z</time></trkpt><trkpt lat="37.6834167" lon="14.053195"><ele>464.75</ele><time>2026-05-06T11:02:49.037Z</time></trkpt><trkpt lat="37.6832867" lon="14.0532"><ele>466.0</ele><time>2026-05-06T11:02:50.037Z</time></trkpt><trkpt lat="37.6831533" lon="14.053195"><ele>466.0</ele><time>2026-05-06T11:02:51.037Z</time></trkpt><trkpt lat="37.6830217" lon="14.0531933"><ele>466.0</ele><time>2026-05-06T11:02:52.037Z</time></trkpt><trkpt lat="37.682895" lon="14.05319"><ele>466.0</ele><time>2026-05-06T11:02:53.037Z</time></trkpt><trkpt lat="37.6827683" lon="14.0531917"><ele>466.0</ele><time>2026-05-06T11:02:54.037Z</time></trkpt><trkpt lat="37.6826317" lon="14.053195"><ele>468.75</ele><time>2026-05-06T11:02:55.037Z</time></trkpt><trkpt lat="37.68249" lon="14.0532"><ele>471.5</ele><time>2026-05-06T11:02:56.037Z</time></trkpt><trkpt lat="37.6823517" lon="14.0532017"><ele>474.25</ele><time>2026-05-06T11:02:57.037Z</time></trkpt><trkpt lat="37.6822217" lon="14.053205"><ele>477.0</ele><time>2026-05-06T11:02:58.037Z</time></trkpt><trkpt lat="37.682095" lon="14.05322"><ele>477.0</ele><time>2026-05-06T11:02:59.037Z</time></trkpt><trkpt lat="37.6819733" lon="14.0532217"><ele>477.0</ele><time>2026-05-06T11:03:00.037Z</time></trkpt><trkpt lat="37.68185" lon="14.0532117"><ele>477.0</ele><time>2026-05-06T11:03:01.037Z</time></trkpt><trkpt lat="37.6817233" lon="14.0532083"><ele>477.0</ele><time>2026-05-06T11:03:02.037Z</time></trkpt><trkpt lat="37.6815983" lon="14.05321"><ele>477.5</ele><time>2026-05-06T11:03:03.037Z</time></trkpt><trkpt lat="37.6814683" lon="14.05321"><ele>478.0</ele><time>2026-05-06T11:03:04.037Z</time></trkpt><trkpt lat="37.681335" lon="14.0532117"><ele>478.5</ele><time>2026-05-06T11:03:05.037Z</time></trkpt><trkpt lat="37.6812033" lon="14.0532117"><ele>479.0</ele><time>2026-05-06T11:03:06.037Z</time></trkpt><trkpt lat="37.681065" lon="14.0532117"><ele>477.0</ele><time>2026-05-06T11:03:07.036Z</time></trkpt><trkpt lat="37.68093" lon="14.053215"><ele>475.0</ele><time>2026-05-06T11:03:08.037Z</time></trkpt><trkpt lat="37.6807883" lon="14.0532167"><ele>473.0</ele><time>2026-05-06T11:03:09.037Z</time></trkpt><trkpt lat="37.6806467" lon="14.0532183"><ele>471.0</ele><time>2026-05-06T11:03:10.037Z</time></trkpt><trkpt lat="37.6805067" lon="14.053215"><ele>471.0</ele><time>2026-05-06T11:03:11.036Z</time></trkpt><trkpt lat="37.6803667" lon="14.0532133"><ele>471.0</ele><time>2026-05-06T11:03:12.037Z</time></trkpt><trkpt lat="37.6802317" lon="14.0532183"><ele>471.0</ele><time>2026-05-06T11:03:13.037Z</time></trkpt><trkpt lat="37.68009" lon="14.0532183"><ele>471.0</ele><time>2026-05-06T11:03:14.037Z</time></trkpt><trkpt lat="37.67995" lon="14.0532167"><ele>468.5</ele><time>2026-05-06T11:03:15.037Z</time></trkpt><trkpt lat="37.6798083" lon="14.05322"><ele>466.0</ele><time>2026-05-06T11:03:16.037Z</time></trkpt><trkpt lat="37.6796667" lon="14.0532233"><ele>463.5</ele><time>2026-05-06T11:03:17.037Z</time></trkpt><trkpt lat="37.6795233" lon="14.0532233"><ele>461.0</ele><time>2026-05-06T11:03:18.036Z</time></trkpt><trkpt lat="37.6793733" lon="14.0532267"><ele>459.75</ele><time>2026-05-06T11:03:19.037Z</time></trkpt><trkpt lat="37.6792317" lon="14.0532317"><ele>458.5</ele><time>2026-05-06T11:03:20.037Z</time></trkpt><trkpt lat="37.6790917" lon="14.05323"><ele>457.25</ele><time>2026-05-06T11:03:21.037Z</time></trkpt><trkpt lat="37.67895" lon="14.053235"><ele>456.0</ele><time>2026-05-06T11:03:22.037Z</time></trkpt><trkpt lat="37.678815" lon="14.05324"><ele>456.0</ele><time>2026-05-06T11:03:23.037Z</time></trkpt><trkpt lat="37.6786783" lon="14.0532433"><ele>456.0</ele><time>2026-05-06T11:03:24.037Z</time></trkpt><trkpt lat="37.6785433" lon="14.0532433"><ele>456.0</ele><time>2026-05-06T11:03:25.036Z</time></trkpt><trkpt lat="37.6784067" lon="14.0532417"><ele>456.0</ele><time>2026-05-06T11:03:26.037Z</time></trkpt><trkpt lat="37.6782667" lon="14.053245"><ele>454.0</ele><time>2026-05-06T11:03:27.037Z</time></trkpt><trkpt lat="37.6781183" lon="14.0532467"><ele>452.0</ele><time>2026-05-06T11:03:28.037Z</time></trkpt><trkpt lat="37.6779617" lon="14.0532483"><ele>450.0</ele><time>2026-05-06T11:03:29.037Z</time></trkpt><trkpt lat="37.6777917" lon="14.0532483"><ele>447.66666666666663</ele><time>2026-05-06T11:03:30.037Z</time></trkpt><trkpt lat="37.67762" lon="14.0532467"><ele>445.3333333333333</ele><time>2026-05-06T11:03:31.037Z</time></trkpt><trkpt lat="37.6774517" lon="14.0532467"><ele>443.0</ele><time>2026-05-06T11:03:32.037Z</time></trkpt><trkpt lat="37.6772833" lon="14.053245"><ele>443.0</ele><time>2026-05-06T11:03:33.037Z</time></trkpt><trkpt lat="37.677105" lon="14.0532483"><ele>443.0</ele><time>2026-05-06T11:03:34.037Z</time></trkpt><trkpt lat="37.6769333" lon="14.0532533"><ele>443.0</ele><time>2026-05-06T11:03:35.037Z</time></trkpt><trkpt lat="37.6767633" lon="14.0532517"><ele>441.3333333333333</ele><time>2026-05-06T11:03:36.037Z</time></trkpt><trkpt lat="37.676595" lon="14.053255"><ele>439.66666666666663</ele><time>2026-05-06T11:03:37.037Z</time></trkpt><trkpt lat="37.6764317" lon="14.0532567"><ele>438.0</ele><time>2026-05-06T11:03:38.037Z</time></trkpt><trkpt lat="37.676265" lon="14.05326"><ele>437.66666666666663</ele><time>2026-05-06T11:03:39.037Z</time></trkpt><trkpt lat="37.6760967" lon="14.053265"><ele>437.3333333333333</ele><time>2026-05-06T11:03:40.037Z</time></trkpt><trkpt lat="37.6759283" lon="14.0532733"><ele>437.0</ele><time>2026-05-06T11:03:41.037Z</time></trkpt><trkpt lat="37.6757617" lon="14.0532833"><ele>437.0</ele><time>2026-05-06T11:03:42.037Z</time></trkpt><trkpt lat="37.6755933" lon="14.053295"><ele>437.0</ele><time>2026-05-06T11:03:43.037Z</time></trkpt><trkpt lat="37.6754267" lon="14.0533167"><ele>437.0</ele><time>2026-05-06T11:03:44.036Z</time></trkpt><trkpt lat="37.6752567" lon="14.05334"><ele>437.3333333333333</ele><time>2026-05-06T11:03:45.037Z</time></trkpt><trkpt lat="37.6750867" lon="14.0533633"><ele>437.66666666666663</ele><time>2026-05-06T11:03:46.037Z</time></trkpt><trkpt lat="37.6749167" lon="14.0534"><ele>438.0</ele><time>2026-05-06T11:03:47.037Z</time></trkpt><trkpt lat="37.6747417" lon="14.0534367"><ele>438.0</ele><time>2026-05-06T11:03:48.037Z</time></trkpt><trkpt lat="37.6745683" lon="14.0534833"><ele>438.0</ele><time>2026-05-06T11:03:49.037Z</time></trkpt><trkpt lat="37.6744" lon="14.0535333"><ele>438.0</ele><time>2026-05-06T11:03:50.037Z</time></trkpt><trkpt lat="37.6742283" lon="14.05359"><ele>437.66666666666663</ele><time>2026-05-06T11:03:51.037Z</time></trkpt><trkpt lat="37.6740567" lon="14.0536467"><ele>437.3333333333333</ele><time>2026-05-06T11:03:52.037Z</time></trkpt><trkpt lat="37.67389" lon="14.0537083"><ele>437.0</ele><time>2026-05-06T11:03:53.037Z</time></trkpt><trkpt lat="37.67373" lon="14.0537767"><ele>436.66666666666663</ele><time>2026-05-06T11:03:54.037Z</time></trkpt><trkpt lat="37.6735683" lon="14.0538467"><ele>436.33333333333337</ele><time>2026-05-06T11:03:55.037Z</time></trkpt><trkpt lat="37.6734167" lon="14.05392"><ele>436.0</ele><time>2026-05-06T11:03:56.037Z</time></trkpt><trkpt lat="37.6732667" lon="14.053995"><ele>436.0</ele><time>2026-05-06T11:03:57.037Z</time></trkpt><trkpt lat="37.6731183" lon="14.0540783"><ele>436.0</ele><time>2026-05-06T11:03:58.037Z</time></trkpt><trkpt lat="37.6729733" lon="14.054165"><ele>436.0</ele><time>2026-05-06T11:03:59.037Z</time></trkpt><trkpt lat="37.672835" lon="14.0542567"><ele>436.33333333333337</ele><time>2026-05-06T11:04:00.037Z</time></trkpt><trkpt lat="37.672695" lon="14.0543517"><ele>436.66666666666663</ele><time>2026-05-06T11:04:01.037Z</time></trkpt><trkpt lat="37.672555" lon="14.0544517"><ele>437.0</ele><time>2026-05-06T11:04:02.037Z</time></trkpt><trkpt lat="37.672415" lon="14.0545567"><ele>437.0</ele><time>2026-05-06T11:04:03.037Z</time></trkpt><trkpt lat="37.6722717" lon="14.0546667"><ele>437.0</ele><time>2026-05-06T11:04:04.036Z</time></trkpt><trkpt lat="37.6721283" lon="14.0547817"><ele>437.0</ele><time>2026-05-06T11:04:05.037Z</time></trkpt><trkpt lat="37.6719817" lon="14.0549067"><ele>438.3333333333333</ele><time>2026-05-06T11:04:06.037Z</time></trkpt><trkpt lat="37.6718433" lon="14.0550333"><ele>439.66666666666663</ele><time>2026-05-06T11:04:07.037Z</time></trkpt><trkpt lat="37.67171" lon="14.0551617"><ele>441.0</ele><time>2026-05-06T11:04:08.037Z</time></trkpt><trkpt lat="37.6715767" lon="14.055295"><ele>441.0</ele><time>2026-05-06T11:04:09.037Z</time></trkpt><trkpt lat="37.6714467" lon="14.0554267"><ele>441.0</ele><time>2026-05-06T11:04:10.037Z</time></trkpt><trkpt lat="37.6713133" lon="14.0555633"><ele>441.0</ele><time>2026-05-06T11:04:11.037Z</time></trkpt><trkpt lat="37.6711867" lon="14.0557"><ele>439.66666666666663</ele><time>2026-05-06T11:04:12.037Z</time></trkpt><trkpt lat="37.6710567" lon="14.0558417"><ele>438.3333333333333</ele><time>2026-05-06T11:04:13.037Z</time></trkpt><trkpt lat="37.670935" lon="14.05598"><ele>437.0</ele><time>2026-05-06T11:04:14.037Z</time></trkpt><trkpt lat="37.6708117" lon="14.0561133"><ele>437.0</ele><time>2026-05-06T11:04:15.037Z</time></trkpt><trkpt lat="37.670695" lon="14.056245"><ele>437.0</ele><time>2026-05-06T11:04:16.037Z</time></trkpt><trkpt lat="37.670575" lon="14.0563767"><ele>437.0</ele><time>2026-05-06T11:04:17.036Z</time></trkpt><trkpt lat="37.6704583" lon="14.0565133"><ele>436.3333333333333</ele><time>2026-05-06T11:04:18.037Z</time></trkpt><trkpt lat="37.6703417" lon="14.0566533"><ele>435.66666666666663</ele><time>2026-05-06T11:04:19.037Z</time></trkpt><trkpt lat="37.6702233" lon="14.0567917"><ele>435.0</ele><time>2026-05-06T11:04:20.037Z</time></trkpt><trkpt lat="37.6701033" lon="14.0569317"><ele>434.33333333333337</ele><time>2026-05-06T11:04:21.037Z</time></trkpt><trkpt lat="37.6699817" lon="14.0570733"><ele>433.6666666666667</ele><time>2026-05-06T11:04:22.037Z</time></trkpt><trkpt lat="37.6698567" lon="14.057215"><ele>433.0</ele><time>2026-05-06T11:04:23.037Z</time></trkpt><trkpt lat="37.6697367" lon="14.0573633"><ele>433.0</ele><time>2026-05-06T11:04:24.037Z</time></trkpt><trkpt lat="37.66961" lon="14.0575083"><ele>433.0</ele><time>2026-05-06T11:04:25.037Z</time></trkpt><trkpt lat="37.66949" lon="14.0576433"><ele>433.0</ele><time>2026-05-06T11:04:26.037Z</time></trkpt><trkpt lat="37.669375" lon="14.0577733"><ele>433.0</ele><time>2026-05-06T11:04:27.037Z</time></trkpt><trkpt lat="37.6692583" lon="14.05791"><ele>433.0</ele><time>2026-05-06T11:04:28.037Z</time></trkpt><trkpt lat="37.66914" lon="14.0580483"><ele>433.0</ele><time>2026-05-06T11:04:29.037Z</time></trkpt><trkpt lat="37.66902" lon="14.0581833"><ele>432.6666666666667</ele><time>2026-05-06T11:04:30.037Z</time></trkpt><trkpt lat="37.6689033" lon="14.0583167"><ele>432.33333333333337</ele><time>2026-05-06T11:04:31.037Z</time></trkpt><trkpt lat="37.66879" lon="14.0584517"><ele>432.0</ele><time>2026-05-06T11:04:32.037Z</time></trkpt><trkpt lat="37.6686717" lon="14.05859"><ele>431.66666666666663</ele><time>2026-05-06T11:04:33.037Z</time></trkpt><trkpt lat="37.668555" lon="14.0587267"><ele>431.3333333333333</ele><time>2026-05-06T11:04:34.037Z</time></trkpt><trkpt lat="37.668435" lon="14.058865"><ele>431.0</ele><time>2026-05-06T11:04:35.037Z</time></trkpt><trkpt lat="37.668315" lon="14.059"><ele>430.66666666666663</ele><time>2026-05-06T11:04:36.037Z</time></trkpt><trkpt lat="37.66819" lon="14.0591417"><ele>430.33333333333337</ele><time>2026-05-06T11:04:37.037Z</time></trkpt><trkpt lat="37.668065" lon="14.059285"><ele>430.0</ele><time>2026-05-06T11:04:38.037Z</time></trkpt><trkpt lat="37.6679433" lon="14.0594283"><ele>430.0</ele><time>2026-05-06T11:04:39.037Z</time></trkpt><trkpt lat="37.667825" lon="14.0595717"><ele>430.0</ele><time>2026-05-06T11:04:40.037Z</time></trkpt><trkpt lat="37.6677017" lon="14.0597117"><ele>430.0</ele><time>2026-05-06T11:04:41.036Z</time></trkpt><trkpt lat="37.6675767" lon="14.059855"><ele>430.0</ele><time>2026-05-06T11:04:42.037Z</time></trkpt><trkpt lat="37.667455" lon="14.0600017"><ele>430.0</ele><time>2026-05-06T11:04:43.037Z</time></trkpt><trkpt lat="37.66733" lon="14.060145"><ele>430.0</ele><time>2026-05-06T11:04:44.037Z</time></trkpt><trkpt lat="37.6672033" lon="14.06029"><ele>430.0</ele><time>2026-05-06T11:04:45.037Z</time></trkpt><trkpt lat="37.6670717" lon="14.060445"><ele>430.0</ele><time>2026-05-06T11:04:46.037Z</time></trkpt><trkpt lat="37.6669383" lon="14.0605967"><ele>430.0</ele><time>2026-05-06T11:04:47.037Z</time></trkpt><trkpt lat="37.6668033" lon="14.0607467"><ele>429.33333333333337</ele><time>2026-05-06T11:04:48.036Z</time></trkpt><trkpt lat="37.66667" lon="14.0608983"><ele>428.66666666666663</ele><time>2026-05-06T11:04:49.037Z</time></trkpt><trkpt lat="37.6665417" lon="14.0610483"><ele>428.0</ele><time>2026-05-06T11:04:50.037Z</time></trkpt><trkpt lat="37.666415" lon="14.0611967"><ele>428.0</ele><time>2026-05-06T11:04:51.037Z</time></trkpt><trkpt lat="37.6662883" lon="14.0613417"><ele>428.0</ele><time>2026-05-06T11:04:52.037Z</time></trkpt><trkpt lat="37.6661683" lon="14.0614817"><ele>428.0</ele><time>2026-05-06T11:04:53.037Z</time></trkpt><trkpt lat="37.666045" lon="14.061625"><ele>428.0</ele><time>2026-05-06T11:04:54.037Z</time></trkpt><trkpt lat="37.6659233" lon="14.0617633"><ele>428.0</ele><time>2026-05-06T11:04:55.037Z</time></trkpt><trkpt lat="37.6658033" lon="14.0619017"><ele>428.0</ele><time>2026-05-06T11:04:56.037Z</time></trkpt><trkpt lat="37.6656833" lon="14.0620383"><ele>428.0</ele><time>2026-05-06T11:04:57.037Z</time></trkpt><trkpt lat="37.66557" lon="14.0621667"><ele>428.0</ele><time>2026-05-06T11:04:58.037Z</time></trkpt><trkpt lat="37.6654633" lon="14.0622867"><ele>428.0</ele><time>2026-05-06T11:04:59.037Z</time></trkpt><trkpt lat="37.6653583" lon="14.0624083"><ele>428.0</ele><time>2026-05-06T11:05:00.037Z</time></trkpt><trkpt lat="37.6652517" lon="14.0625283"><ele>427.25</ele><time>2026-05-06T11:05:01.037Z</time></trkpt><trkpt lat="37.6651467" lon="14.06265"><ele>426.5</ele><time>2026-05-06T11:05:02.036Z</time></trkpt><trkpt lat="37.66504" lon="14.062775"><ele>425.75</ele><time>2026-05-06T11:05:03.036Z</time></trkpt><trkpt lat="37.6649317" lon="14.062905"><ele>425.0</ele><time>2026-05-06T11:05:04.037Z</time></trkpt><trkpt lat="37.66482" lon="14.06304"><ele>425.0</ele><time>2026-05-06T11:05:05.037Z</time></trkpt><trkpt lat="37.6647033" lon="14.0631733"><ele>425.0</ele><time>2026-05-06T11:05:06.037Z</time></trkpt><trkpt lat="37.6645833" lon="14.063315"><ele>425.0</ele><time>2026-05-06T11:05:07.037Z</time></trkpt><trkpt lat="37.6644633" lon="14.06346"><ele>425.0</ele><time>2026-05-06T11:05:08.037Z</time></trkpt><trkpt lat="37.664335" lon="14.063615"><ele>425.0</ele><time>2026-05-06T11:05:09.037Z</time></trkpt><trkpt lat="37.6642133" lon="14.0637667"><ele>425.0</ele><time>2026-05-06T11:05:10.037Z</time></trkpt><trkpt lat="37.6640917" lon="14.0639217"><ele>425.0</ele><time>2026-05-06T11:05:11.036Z</time></trkpt><trkpt lat="37.6639717" lon="14.06408"><ele>425.0</ele><time>2026-05-06T11:05:12.037Z</time></trkpt><trkpt lat="37.6638567" lon="14.064235"><ele>425.0</ele><time>2026-05-06T11:05:13.037Z</time></trkpt><trkpt lat="37.6637467" lon="14.0644017"><ele>425.66666666666663</ele><time>2026-05-06T11:05:14.036Z</time></trkpt><trkpt lat="37.6636417" lon="14.0645767"><ele>426.33333333333337</ele><time>2026-05-06T11:05:15.037Z</time></trkpt><trkpt lat="37.6635317" lon="14.06475"><ele>427.0</ele><time>2026-05-06T11:05:16.037Z</time></trkpt><trkpt lat="37.6634333" lon="14.06493"><ele>427.0</ele><time>2026-05-06T11:05:17.037Z</time></trkpt><trkpt lat="37.663335" lon="14.0651133"><ele>427.0</ele><time>2026-05-06T11:05:18.037Z</time></trkpt><trkpt lat="37.66324" lon="14.065295"><ele>427.0</ele><time>2026-05-06T11:05:19.037Z</time></trkpt><trkpt lat="37.6631533" lon="14.0654833"><ele>427.0</ele><time>2026-05-06T11:05:20.037Z</time></trkpt><trkpt lat="37.663065" lon="14.0656667"><ele>427.0</ele><time>2026-05-06T11:05:21.037Z</time></trkpt><trkpt lat="37.6629767" lon="14.06585"><ele>427.0</ele><time>2026-05-06T11:05:22.037Z</time></trkpt><trkpt lat="37.6629" lon="14.0660383"><ele>427.33333333333337</ele><time>2026-05-06T11:05:23.037Z</time></trkpt><trkpt lat="37.662835" lon="14.0662217"><ele>427.66666666666663</ele><time>2026-05-06T11:05:24.037Z</time></trkpt><trkpt lat="37.6627733" lon="14.0664"><ele>428.0</ele><time>2026-05-06T11:05:25.037Z</time></trkpt><trkpt lat="37.6627183" lon="14.066585"><ele>426.3333333333333</ele><time>2026-05-06T11:05:26.037Z</time></trkpt><trkpt lat="37.6626667" lon="14.0667767"><ele>424.66666666666663</ele><time>2026-05-06T11:05:27.037Z</time></trkpt><trkpt lat="37.6626117" lon="14.0669667"><ele>423.0</ele><time>2026-05-06T11:05:28.037Z</time></trkpt><trkpt lat="37.6625617" lon="14.067165"><ele>423.0</ele><time>2026-05-06T11:05:29.037Z</time></trkpt><trkpt lat="37.6625117" lon="14.0673617"><ele>423.0</ele><time>2026-05-06T11:05:30.037Z</time></trkpt><trkpt lat="37.66246" lon="14.0675633"><ele>423.0</ele><time>2026-05-06T11:05:31.037Z</time></trkpt><trkpt lat="37.66241" lon="14.0677717"><ele>422.66666666666663</ele><time>2026-05-06T11:05:32.037Z</time></trkpt><trkpt lat="37.6623617" lon="14.067985"><ele>422.3333333333333</ele><time>2026-05-06T11:05:33.037Z</time></trkpt><trkpt lat="37.6623117" lon="14.0681933"><ele>422.0</ele><time>2026-05-06T11:05:34.037Z</time></trkpt><trkpt lat="37.6622617" lon="14.0683983"><ele>422.0</ele><time>2026-05-06T11:05:35.037Z</time></trkpt><trkpt lat="37.6622067" lon="14.0685967"><ele>422.0</ele><time>2026-05-06T11:05:36.037Z</time></trkpt><trkpt lat="37.6621617" lon="14.0687967"><ele>422.0</ele><time>2026-05-06T11:05:37.036Z</time></trkpt><trkpt lat="37.6621133" lon="14.068995"><ele>421.66666666666663</ele><time>2026-05-06T11:05:38.037Z</time></trkpt><trkpt lat="37.662065" lon="14.0691933"><ele>421.33333333333337</ele><time>2026-05-06T11:05:39.037Z</time></trkpt><trkpt lat="37.66202" lon="14.0693883"><ele>421.0</ele><time>2026-05-06T11:05:40.037Z</time></trkpt><trkpt lat="37.6619733" lon="14.0695817"><ele>421.6666666666667</ele><time>2026-05-06T11:05:41.037Z</time></trkpt><trkpt lat="37.6619267" lon="14.06978"><ele>422.33333333333337</ele><time>2026-05-06T11:05:42.037Z</time></trkpt><trkpt lat="37.6618767" lon="14.069975"><ele>423.0</ele><time>2026-05-06T11:05:43.037Z</time></trkpt><trkpt lat="37.6618283" lon="14.07017"><ele>423.0</ele><time>2026-05-06T11:05:44.037Z</time></trkpt><trkpt lat="37.6617767" lon="14.0703717"><ele>423.0</ele><time>2026-05-06T11:05:45.037Z</time></trkpt><trkpt lat="37.661725" lon="14.0705717"><ele>423.0</ele><time>2026-05-06T11:05:46.037Z</time></trkpt><trkpt lat="37.6616783" lon="14.0707717"><ele>422.0</ele><time>2026-05-06T11:05:47.037Z</time></trkpt><trkpt lat="37.6616283" lon="14.0709717"><ele>421.0</ele><time>2026-05-06T11:05:48.037Z</time></trkpt><trkpt lat="37.661575" lon="14.07117"><ele>420.0</ele><time>2026-05-06T11:05:49.037Z</time></trkpt><trkpt lat="37.6615267" lon="14.0713683"><ele>420.0</ele><time>2026-05-06T11:05:50.036Z</time></trkpt><trkpt lat="37.6614783" lon="14.0715683"><ele>420.0</ele><time>2026-05-06T11:05:51.037Z</time></trkpt><trkpt lat="37.66143" lon="14.07177"><ele>420.0</ele><time>2026-05-06T11:05:52.036Z</time></trkpt><trkpt lat="37.6613817" lon="14.0719767"><ele>419.33333333333337</ele><time>2026-05-06T11:05:53.037Z</time></trkpt><trkpt lat="37.6613317" lon="14.072185"><ele>418.6666666666667</ele><time>2026-05-06T11:05:54.037Z</time></trkpt><trkpt lat="37.661285" lon="14.0723883"><ele>418.0</ele><time>2026-05-06T11:05:55.037Z</time></trkpt><trkpt lat="37.6612417" lon="14.072595"><ele>417.6666666666667</ele><time>2026-05-06T11:05:56.036Z</time></trkpt><trkpt lat="37.6611983" lon="14.0727983"><ele>417.33333333333337</ele><time>2026-05-06T11:05:57.036Z</time></trkpt><trkpt lat="37.6611583" lon="14.0730083"><ele>417.0</ele><time>2026-05-06T11:05:58.037Z</time></trkpt><trkpt lat="37.6611117" lon="14.073215"><ele>419.33333333333337</ele><time>2026-05-06T11:05:59.037Z</time></trkpt><trkpt lat="37.6610767" lon="14.0734317"><ele>421.6666666666667</ele><time>2026-05-06T11:06:00.037Z</time></trkpt><trkpt lat="37.6610467" lon="14.07365"><ele>424.0</ele><time>2026-05-06T11:06:01.037Z</time></trkpt><trkpt lat="37.661015" lon="14.0738683"><ele>424.0</ele><time>2026-05-06T11:06:02.037Z</time></trkpt><trkpt lat="37.6609867" lon="14.0740917"><ele>424.0</ele><time>2026-05-06T11:06:03.037Z</time></trkpt><trkpt lat="37.6609617" lon="14.074315"><ele>424.0</ele><time>2026-05-06T11:06:04.037Z</time></trkpt><trkpt lat="37.6609433" lon="14.0745433"><ele>421.6666666666667</ele><time>2026-05-06T11:06:05.037Z</time></trkpt><trkpt lat="37.6609283" lon="14.07477"><ele>419.33333333333337</ele><time>2026-05-06T11:06:06.037Z</time></trkpt><trkpt lat="37.660915" lon="14.0750017"><ele>417.0</ele><time>2026-05-06T11:06:07.037Z</time></trkpt><trkpt lat="37.6609067" lon="14.0752367"><ele>415.66666666666663</ele><time>2026-05-06T11:06:08.037Z</time></trkpt><trkpt lat="37.6609" lon="14.0754733"><ele>414.3333333333333</ele><time>2026-05-06T11:06:09.036Z</time></trkpt><trkpt lat="37.6609" lon="14.0757067"><ele>413.0</ele><time>2026-05-06T11:06:10.037Z</time></trkpt><trkpt lat="37.6609067" lon="14.0759367"><ele>412.0</ele><time>2026-05-06T11:06:11.037Z</time></trkpt><trkpt lat="37.6609083" lon="14.076165"><ele>411.0</ele><time>2026-05-06T11:06:12.037Z</time></trkpt><trkpt lat="37.6609183" lon="14.076385"><ele>410.0</ele><time>2026-05-06T11:06:13.037Z</time></trkpt><trkpt lat="37.6609283" lon="14.0766"><ele>412.0</ele><time>2026-05-06T11:06:14.037Z</time></trkpt><trkpt lat="37.6609417" lon="14.07681"><ele>414.0</ele><time>2026-05-06T11:06:15.037Z</time></trkpt><trkpt lat="37.660955" lon="14.0770217"><ele>416.0</ele><time>2026-05-06T11:06:16.037Z</time></trkpt><trkpt lat="37.6609667" lon="14.0772317"><ele>416.0</ele><time>2026-05-06T11:06:17.037Z</time></trkpt><trkpt lat="37.6609833" lon="14.077435"><ele>416.0</ele><time>2026-05-06T11:06:18.037Z</time></trkpt><trkpt lat="37.661" lon="14.0776317"><ele>416.0</ele><time>2026-05-06T11:06:19.037Z</time></trkpt><trkpt lat="37.6610117" lon="14.07783"><ele>416.3333333333333</ele><time>2026-05-06T11:06:20.037Z</time></trkpt><trkpt lat="37.6610233" lon="14.078025"><ele>416.66666666666663</ele><time>2026-05-06T11:06:21.037Z</time></trkpt><trkpt lat="37.6610367" lon="14.0782217"><ele>417.0</ele><time>2026-05-06T11:06:22.037Z</time></trkpt><trkpt lat="37.6610517" lon="14.0784183"><ele>416.0</ele><time>2026-05-06T11:06:23.036Z</time></trkpt><trkpt lat="37.6610667" lon="14.0786183"><ele>415.0</ele><time>2026-05-06T11:06:24.037Z</time></trkpt><trkpt lat="37.6610817" lon="14.078825"><ele>414.0</ele><time>2026-05-06T11:06:25.037Z</time></trkpt><trkpt lat="37.6610967" lon="14.0790333"><ele>413.33333333333337</ele><time>2026-05-06T11:06:26.037Z</time></trkpt><trkpt lat="37.6611133" lon="14.079245"><ele>412.6666666666667</ele><time>2026-05-06T11:06:27.037Z</time></trkpt><trkpt lat="37.6611283" lon="14.0794583"><ele>412.0</ele><time>2026-05-06T11:06:28.037Z</time></trkpt><trkpt lat="37.66114" lon="14.07967"><ele>413.0</ele><time>2026-05-06T11:06:29.037Z</time></trkpt><trkpt lat="37.6611533" lon="14.0798833"><ele>414.0</ele><time>2026-05-06T11:06:30.037Z</time></trkpt><trkpt lat="37.66117" lon="14.080095"><ele>415.0</ele><time>2026-05-06T11:06:31.037Z</time></trkpt><trkpt lat="37.6611867" lon="14.080305"><ele>415.0</ele><time>2026-05-06T11:06:32.037Z</time></trkpt><trkpt lat="37.6612017" lon="14.0805133"><ele>415.0</ele><time>2026-05-06T11:06:33.037Z</time></trkpt><trkpt lat="37.661215" lon="14.08072"><ele>415.0</ele><time>2026-05-06T11:06:34.037Z</time></trkpt><trkpt lat="37.6612317" lon="14.080925"><ele>413.33333333333337</ele><time>2026-05-06T11:06:35.037Z</time></trkpt><trkpt lat="37.6612467" lon="14.08113"><ele>411.66666666666663</ele><time>2026-05-06T11:06:36.037Z</time></trkpt><trkpt lat="37.6612617" lon="14.081335"><ele>410.0</ele><time>2026-05-06T11:06:37.037Z</time></trkpt><trkpt lat="37.661275" lon="14.0815333"><ele>409.3333333333333</ele><time>2026-05-06T11:06:38.037Z</time></trkpt><trkpt lat="37.6612867" lon="14.0817333"><ele>408.66666666666663</ele><time>2026-05-06T11:06:39.037Z</time></trkpt><trkpt lat="37.6612983" lon="14.081935"><ele>408.0</ele><time>2026-05-06T11:06:40.037Z</time></trkpt><trkpt lat="37.66131" lon="14.0821333"><ele>408.0</ele><time>2026-05-06T11:06:41.037Z</time></trkpt><trkpt lat="37.6613267" lon="14.082335"><ele>408.0</ele><time>2026-05-06T11:06:42.037Z</time></trkpt><trkpt lat="37.66134" lon="14.08254"><ele>408.0</ele><time>2026-05-06T11:06:43.037Z</time></trkpt><trkpt lat="37.661355" lon="14.08274"><ele>408.33333333333337</ele><time>2026-05-06T11:06:44.037Z</time></trkpt><trkpt lat="37.6613717" lon="14.08294"><ele>408.6666666666667</ele><time>2026-05-06T11:06:45.037Z</time></trkpt><trkpt lat="37.66139" lon="14.0831417"><ele>409.0</ele><time>2026-05-06T11:06:46.037Z</time></trkpt><trkpt lat="37.6614033" lon="14.0833383"><ele>409.33333333333337</ele><time>2026-05-06T11:06:47.037Z</time></trkpt><trkpt lat="37.661415" lon="14.0835367"><ele>409.66666666666663</ele><time>2026-05-06T11:06:48.037Z</time></trkpt><trkpt lat="37.66143" lon="14.0837317"><ele>410.0</ele><time>2026-05-06T11:06:49.037Z</time></trkpt><trkpt lat="37.6614417" lon="14.0839283"><ele>410.0</ele><time>2026-05-06T11:06:50.037Z</time></trkpt><trkpt lat="37.66146" lon="14.0841183"><ele>410.0</ele><time>2026-05-06T11:06:51.037Z</time></trkpt><trkpt lat="37.661475" lon="14.0843083"><ele>410.0</ele><time>2026-05-06T11:06:52.037Z</time></trkpt><trkpt lat="37.6614883" lon="14.0845"><ele>410.0</ele><time>2026-05-06T11:06:53.037Z</time></trkpt><trkpt lat="37.661505" lon="14.08469"><ele>410.0</ele><time>2026-05-06T11:06:54.037Z</time></trkpt><trkpt lat="37.6615217" lon="14.0848783"><ele>410.0</ele><time>2026-05-06T11:06:55.037Z</time></trkpt><trkpt lat="37.6615333" lon="14.0850683"><ele>410.0</ele><time>2026-05-06T11:06:56.037Z</time></trkpt><trkpt lat="37.6615433" lon="14.08526"><ele>410.0</ele><time>2026-05-06T11:06:57.037Z</time></trkpt><trkpt lat="37.661555" lon="14.085455"><ele>410.0</ele><time>2026-05-06T11:06:58.037Z</time></trkpt><trkpt lat="37.66156" lon="14.0856467"><ele>410.0</ele><time>2026-05-06T11:06:59.037Z</time></trkpt><trkpt lat="37.6615633" lon="14.0858417"><ele>410.0</ele><time>2026-05-06T11:07:00.037Z</time></trkpt><trkpt lat="37.661565" lon="14.0860367"><ele>410.0</ele><time>2026-05-06T11:07:01.037Z</time></trkpt><trkpt lat="37.6615733" lon="14.08623"><ele>410.0</ele><time>2026-05-06T11:07:02.037Z</time></trkpt><trkpt lat="37.6615767" lon="14.0864233"><ele>410.0</ele><time>2026-05-06T11:07:03.037Z</time></trkpt><trkpt lat="37.66158" lon="14.086605"><ele>410.0</ele><time>2026-05-06T11:07:04.037Z</time></trkpt><trkpt lat="37.6615733" lon="14.086775"><ele>410.0</ele><time>2026-05-06T11:07:05.037Z</time></trkpt><trkpt lat="37.6615683" lon="14.0869317"><ele>410.6</ele><time>2026-05-06T11:07:06.037Z</time></trkpt><trkpt lat="37.6615667" lon="14.08708"><ele>411.2</ele><time>2026-05-06T11:07:07.037Z</time></trkpt><trkpt lat="37.6615667" lon="14.0872133"><ele>411.79999999999995</ele><time>2026-05-06T11:07:08.037Z</time></trkpt><trkpt lat="37.661565" lon="14.0873433"><ele>412.4</ele><time>2026-05-06T11:07:09.037Z</time></trkpt><trkpt lat="37.66156" lon="14.0874633"><ele>413.0</ele><time>2026-05-06T11:07:10.037Z</time></trkpt><trkpt lat="37.6615567" lon="14.0875817"><ele>413.0</ele><time>2026-05-06T11:07:11.036Z</time></trkpt><trkpt lat="37.6615467" lon="14.0877017"><ele>413.0</ele><time>2026-05-06T11:07:12.037Z</time></trkpt><trkpt lat="37.6615417" lon="14.0878267"><ele>413.0</ele><time>2026-05-06T11:07:13.037Z</time></trkpt><trkpt lat="37.661535" lon="14.0879567"><ele>413.0</ele><time>2026-05-06T11:07:14.037Z</time></trkpt><trkpt lat="37.6615283" lon="14.0880883"><ele>413.0</ele><time>2026-05-06T11:07:15.037Z</time></trkpt><trkpt lat="37.66152" lon="14.0882117"><ele>413.4</ele><time>2026-05-06T11:07:16.037Z</time></trkpt><trkpt lat="37.66151" lon="14.0883333"><ele>413.79999999999995</ele><time>2026-05-06T11:07:17.037Z</time></trkpt><trkpt lat="37.661505" lon="14.0884517"><ele>414.2</ele><time>2026-05-06T11:07:18.037Z</time></trkpt><trkpt lat="37.661495" lon="14.0885667"><ele>414.6</ele><time>2026-05-06T11:07:19.037Z</time></trkpt><trkpt lat="37.6614867" lon="14.0886833"><ele>415.0</ele><time>2026-05-06T11:07:20.037Z</time></trkpt><trkpt lat="37.6614733" lon="14.0888017"><ele>415.0</ele><time>2026-05-06T11:07:21.037Z</time></trkpt><trkpt lat="37.6614617" lon="14.0889133"><ele>415.0</ele><time>2026-05-06T11:07:22.037Z</time></trkpt><trkpt lat="37.6614567" lon="14.08903"><ele>415.0</ele><time>2026-05-06T11:07:23.037Z</time></trkpt><trkpt lat="37.66145" lon="14.0891483"><ele>415.0</ele><time>2026-05-06T11:07:24.037Z</time></trkpt><trkpt lat="37.6614417" lon="14.08926"><ele>415.0</ele><time>2026-05-06T11:07:25.037Z</time></trkpt><trkpt lat="37.6614317" lon="14.089375"><ele>415.0</ele><time>2026-05-06T11:07:26.037Z</time></trkpt><trkpt lat="37.6614217" lon="14.0894933"><ele>415.0</ele><time>2026-05-06T11:07:27.037Z</time></trkpt><trkpt lat="37.6614067" lon="14.0896167"><ele>415.0</ele><time>2026-05-06T11:07:28.037Z</time></trkpt><trkpt lat="37.6614017" lon="14.0897417"><ele>415.0</ele><time>2026-05-06T11:07:29.036Z</time></trkpt><trkpt lat="37.6613967" lon="14.0898583"><ele>415.0</ele><time>2026-05-06T11:07:30.037Z</time></trkpt><trkpt lat="37.661385" lon="14.0899683"><ele>415.1666666666667</ele><time>2026-05-06T11:07:31.037Z</time></trkpt><trkpt lat="37.6613683" lon="14.0900783"><ele>415.33333333333337</ele><time>2026-05-06T11:07:32.036Z</time></trkpt><trkpt lat="37.6613383" lon="14.0901717"><ele>415.5</ele><time>2026-05-06T11:07:33.037Z</time></trkpt><trkpt lat="37.6612933" lon="14.0902533"><ele>415.66666666666663</ele><time>2026-05-06T11:07:34.037Z</time></trkpt><trkpt lat="37.6612483" lon="14.0903383"><ele>415.8333333333333</ele><time>2026-05-06T11:07:35.037Z</time></trkpt><trkpt lat="37.6612133" lon="14.090445"><ele>416.0</ele><time>2026-05-06T11:07:36.037Z</time></trkpt><trkpt lat="37.6611867" lon="14.0905817"><ele>416.0</ele><time>2026-05-06T11:07:37.037Z</time></trkpt><trkpt lat="37.6611717" lon="14.0907483"><ele>416.0</ele><time>2026-05-06T11:07:38.036Z</time></trkpt><trkpt lat="37.6611667" lon="14.09095"><ele>416.0</ele><time>2026-05-06T11:07:39.037Z</time></trkpt><trkpt lat="37.6611567" lon="14.09118"><ele>416.3333333333333</ele><time>2026-05-06T11:07:40.037Z</time></trkpt><trkpt lat="37.66114" lon="14.09143"><ele>416.66666666666663</ele><time>2026-05-06T11:07:41.037Z</time></trkpt><trkpt lat="37.6611217" lon="14.091695"><ele>417.0</ele><time>2026-05-06T11:07:42.037Z</time></trkpt><trkpt lat="37.6610967" lon="14.0919833"><ele>412.5</ele><time>2026-05-06T11:07:43.036Z</time></trkpt><trkpt lat="37.6610767" lon="14.0922917"><ele>408.0</ele><time>2026-05-06T11:07:44.037Z</time></trkpt><trkpt lat="37.661055" lon="14.0926117"><ele>408.0</ele><time>2026-05-06T11:07:45.037Z</time></trkpt><trkpt lat="37.66103" lon="14.0929367"><ele>408.0</ele><time>2026-05-06T11:07:46.036Z</time></trkpt><trkpt lat="37.6610067" lon="14.0932733"><ele>406.5</ele><time>2026-05-06T11:07:47.036Z</time></trkpt><trkpt lat="37.6609817" lon="14.0936167"><ele>405.0</ele><time>2026-05-06T11:07:48.036Z</time></trkpt><trkpt lat="37.6609567" lon="14.0939517"><ele>404.0</ele><time>2026-05-06T11:07:49.036Z</time></trkpt><trkpt lat="37.660935" lon="14.0942933"><ele>403.0</ele><time>2026-05-06T11:07:50.036Z</time></trkpt><trkpt lat="37.66091" lon="14.0946317"><ele>403.5</ele><time>2026-05-06T11:07:51.036Z</time></trkpt><trkpt lat="37.6608783" lon="14.0949683"><ele>404.0</ele><time>2026-05-06T11:07:52.036Z</time></trkpt><trkpt lat="37.6608533" lon="14.0953167"><ele>404.0</ele><time>2026-05-06T11:07:53.036Z</time></trkpt><trkpt lat="37.660825" lon="14.0956517"><ele>404.0</ele><time>2026-05-06T11:07:54.036Z</time></trkpt><trkpt lat="37.6608" lon="14.095995"><ele>402.5</ele><time>2026-05-06T11:07:55.036Z</time></trkpt><trkpt lat="37.6607717" lon="14.096335"><ele>401.0</ele><time>2026-05-06T11:07:56.036Z</time></trkpt><trkpt lat="37.6607433" lon="14.0966683"><ele>400.5</ele><time>2026-05-06T11:07:57.036Z</time></trkpt><trkpt lat="37.6607133" lon="14.097"><ele>400.0</ele><time>2026-05-06T11:07:58.036Z</time></trkpt><trkpt lat="37.660685" lon="14.0973083"><ele>401.0</ele><time>2026-05-06T11:07:59.036Z</time></trkpt><trkpt lat="37.660665" lon="14.0976283"><ele>402.0</ele><time>2026-05-06T11:08:00.035Z</time></trkpt><trkpt lat="37.6606433" lon="14.0979333"><ele>402.0</ele><time>2026-05-06T11:08:01.036Z</time></trkpt><trkpt lat="37.6606167" lon="14.0982483"><ele>402.0</ele><time>2026-05-06T11:08:02.036Z</time></trkpt><trkpt lat="37.6605883" lon="14.0985633"><ele>402.0</ele><time>2026-05-06T11:08:03.036Z</time></trkpt><trkpt lat="37.6605617" lon="14.098875"><ele>402.0</ele><time>2026-05-06T11:08:04.036Z</time></trkpt><trkpt lat="37.6605333" lon="14.09919"><ele>400.0</ele><time>2026-05-06T11:08:05.036Z</time></trkpt><trkpt lat="37.6605067" lon="14.0995117"><ele>398.0</ele><time>2026-05-06T11:08:06.036Z</time></trkpt><trkpt lat="37.6604833" lon="14.0998217"><ele>397.5</ele><time>2026-05-06T11:08:07.036Z</time></trkpt><trkpt lat="37.66046" lon="14.1001433"><ele>397.0</ele><time>2026-05-06T11:08:08.036Z</time></trkpt><trkpt lat="37.6604317" lon="14.100465"><ele>397.5</ele><time>2026-05-06T11:08:09.036Z</time></trkpt><trkpt lat="37.660395" lon="14.1007867"><ele>398.0</ele><time>2026-05-06T11:08:10.036Z</time></trkpt><trkpt lat="37.660355" lon="14.1011067"><ele>398.0</ele><time>2026-05-06T11:08:11.036Z</time></trkpt><trkpt lat="37.6603083" lon="14.1014217"><ele>398.0</ele><time>2026-05-06T11:08:12.036Z</time></trkpt><trkpt lat="37.6602533" lon="14.101735"><ele>398.0</ele><time>2026-05-06T11:08:13.036Z</time></trkpt><trkpt lat="37.6601783" lon="14.10204"><ele>398.0</ele><time>2026-05-06T11:08:14.036Z</time></trkpt><trkpt lat="37.6600917" lon="14.102345"><ele>398.5</ele><time>2026-05-06T11:08:15.036Z</time></trkpt><trkpt lat="37.6600033" lon="14.102645"><ele>399.0</ele><time>2026-05-06T11:08:16.036Z</time></trkpt><trkpt lat="37.65991" lon="14.1029483"><ele>399.0</ele><time>2026-05-06T11:08:17.036Z</time></trkpt><trkpt lat="37.65981" lon="14.1032483"><ele>399.0</ele><time>2026-05-06T11:08:18.036Z</time></trkpt><trkpt lat="37.6596933" lon="14.1035383"><ele>399.0</ele><time>2026-05-06T11:08:19.036Z</time></trkpt><trkpt lat="37.65957" lon="14.10382"><ele>399.0</ele><time>2026-05-06T11:08:20.036Z</time></trkpt><trkpt lat="37.659445" lon="14.1040917"><ele>398.0</ele><time>2026-05-06T11:08:21.036Z</time></trkpt><trkpt lat="37.6593083" lon="14.1043583"><ele>397.0</ele><time>2026-05-06T11:08:22.035Z</time></trkpt><trkpt lat="37.6591683" lon="14.1046217"><ele>397.0</ele><time>2026-05-06T11:08:23.036Z</time></trkpt><trkpt lat="37.6590167" lon="14.1048767"><ele>397.0</ele><time>2026-05-06T11:08:24.036Z</time></trkpt><trkpt lat="37.6588567" lon="14.1051217"><ele>396.5</ele><time>2026-05-06T11:08:25.036Z</time></trkpt><trkpt lat="37.6586867" lon="14.1053617"><ele>396.0</ele><time>2026-05-06T11:08:26.036Z</time></trkpt><trkpt lat="37.6585083" lon="14.1055983"><ele>396.5</ele><time>2026-05-06T11:08:27.036Z</time></trkpt><trkpt lat="37.65833" lon="14.1058317"><ele>397.0</ele><time>2026-05-06T11:08:28.036Z</time></trkpt><trkpt lat="37.6581483" lon="14.1060533"><ele>397.0</ele><time>2026-05-06T11:08:29.036Z</time></trkpt><trkpt lat="37.6579533" lon="14.106265"><ele>397.0</ele><time>2026-05-06T11:08:30.036Z</time></trkpt><trkpt lat="37.65776" lon="14.1064767"><ele>396.5</ele><time>2026-05-06T11:08:31.036Z</time></trkpt><trkpt lat="37.6575583" lon="14.106675"><ele>396.0</ele><time>2026-05-06T11:08:32.036Z</time></trkpt><trkpt lat="37.6573517" lon="14.1068617"><ele>396.0</ele><time>2026-05-06T11:08:33.036Z</time></trkpt><trkpt lat="37.65714" lon="14.1070383"><ele>396.0</ele><time>2026-05-06T11:08:34.036Z</time></trkpt><trkpt lat="37.65693" lon="14.1072067"><ele>395.5</ele><time>2026-05-06T11:08:35.035Z</time></trkpt><trkpt lat="37.6567117" lon="14.1073717"><ele>395.0</ele><time>2026-05-06T11:08:36.036Z</time></trkpt><trkpt lat="37.6564867" lon="14.1075317"><ele>395.0</ele><time>2026-05-06T11:08:37.036Z</time></trkpt><trkpt lat="37.6562617" lon="14.10769"><ele>395.0</ele><time>2026-05-06T11:08:38.036Z</time></trkpt><trkpt lat="37.6560433" lon="14.107855"><ele>393.0</ele><time>2026-05-06T11:08:39.036Z</time></trkpt><trkpt lat="37.6558233" lon="14.1080183"><ele>391.0</ele><time>2026-05-06T11:08:40.036Z</time></trkpt><trkpt lat="37.655605" lon="14.108185"><ele>390.5</ele><time>2026-05-06T11:08:41.036Z</time></trkpt><trkpt lat="37.6553883" lon="14.108355"><ele>390.0</ele><time>2026-05-06T11:08:42.036Z</time></trkpt><trkpt lat="37.65517" lon="14.10852"><ele>389.5</ele><time>2026-05-06T11:08:43.036Z</time></trkpt><trkpt lat="37.6549483" lon="14.108685"><ele>389.0</ele><time>2026-05-06T11:08:44.036Z</time></trkpt><trkpt lat="37.6547217" lon="14.1088433"><ele>389.0</ele><time>2026-05-06T11:08:45.036Z</time></trkpt><trkpt lat="37.6545033" lon="14.10901"><ele>389.0</ele><time>2026-05-06T11:08:46.036Z</time></trkpt><trkpt lat="37.654285" lon="14.1091767"><ele>391.0</ele><time>2026-05-06T11:08:47.036Z</time></trkpt><trkpt lat="37.6540717" lon="14.109345"><ele>393.0</ele><time>2026-05-06T11:08:48.036Z</time></trkpt><trkpt lat="37.6538467" lon="14.1095033"><ele>393.0</ele><time>2026-05-06T11:08:49.036Z</time></trkpt><trkpt lat="37.6536233" lon="14.109665"><ele>393.0</ele><time>2026-05-06T11:08:50.036Z</time></trkpt><trkpt lat="37.6533933" lon="14.1098167"><ele>391.5</ele><time>2026-05-06T11:08:51.036Z</time></trkpt><trkpt lat="37.65316" lon="14.1099533"><ele>390.0</ele><time>2026-05-06T11:08:52.036Z</time></trkpt><trkpt lat="37.6529267" lon="14.1100883"><ele>389.5</ele><time>2026-05-06T11:08:53.036Z</time></trkpt><trkpt lat="37.65269" lon="14.11021"><ele>389.0</ele><time>2026-05-06T11:08:54.036Z</time></trkpt><trkpt lat="37.6524533" lon="14.11032"><ele>389.0</ele><time>2026-05-06T11:08:55.036Z</time></trkpt><trkpt lat="37.6522133" lon="14.11043"><ele>389.0</ele><time>2026-05-06T11:08:56.035Z</time></trkpt><trkpt lat="37.65197" lon="14.1105183"><ele>389.5</ele><time>2026-05-06T11:08:57.036Z</time></trkpt><trkpt lat="37.651725" lon="14.1106033"><ele>390.0</ele><time>2026-05-06T11:08:58.036Z</time></trkpt><trkpt lat="37.6514733" lon="14.1106733"><ele>389.5</ele><time>2026-05-06T11:08:59.036Z</time></trkpt><trkpt lat="37.6512283" lon="14.110745"><ele>389.0</ele><time>2026-05-06T11:09:00.036Z</time></trkpt><trkpt lat="37.6509733" lon="14.1108"><ele>389.0</ele><time>2026-05-06T11:09:01.036Z</time></trkpt><trkpt lat="37.6507267" lon="14.1108683"><ele>389.0</ele><time>2026-05-06T11:09:02.036Z</time></trkpt><trkpt lat="37.6504717" lon="14.1109217"><ele>389.5</ele><time>2026-05-06T11:09:03.036Z</time></trkpt><trkpt lat="37.6502217" lon="14.1109883"><ele>390.0</ele><time>2026-05-06T11:09:04.036Z</time></trkpt><trkpt lat="37.6499667" lon="14.11104"><ele>390.0</ele><time>2026-05-06T11:09:05.036Z</time></trkpt><trkpt lat="37.649715" lon="14.1110983"><ele>390.0</ele><time>2026-05-06T11:09:06.036Z</time></trkpt><trkpt lat="37.6494617" lon="14.11115"><ele>387.0</ele><time>2026-05-06T11:09:07.036Z</time></trkpt><trkpt lat="37.6492117" lon="14.1112067"><ele>384.0</ele><time>2026-05-06T11:09:08.036Z</time></trkpt><trkpt lat="37.64896" lon="14.1112617"><ele>384.0</ele><time>2026-05-06T11:09:09.036Z</time></trkpt><trkpt lat="37.6487083" lon="14.1113167"><ele>384.0</ele><time>2026-05-06T11:09:10.036Z</time></trkpt><trkpt lat="37.64846" lon="14.1113783"><ele>383.0</ele><time>2026-05-06T11:09:11.036Z</time></trkpt><trkpt lat="37.648205" lon="14.11143"><ele>382.0</ele><time>2026-05-06T11:09:12.036Z</time></trkpt><trkpt lat="37.6479583" lon="14.1114883"><ele>383.0</ele><time>2026-05-06T11:09:13.036Z</time></trkpt><trkpt lat="37.6477083" lon="14.1115433"><ele>384.0</ele><time>2026-05-06T11:09:14.036Z</time></trkpt><trkpt lat="37.647455" lon="14.1115983"><ele>384.0</ele><time>2026-05-06T11:09:15.036Z</time></trkpt><trkpt lat="37.647205" lon="14.1116533"><ele>384.0</ele><time>2026-05-06T11:09:16.036Z</time></trkpt><trkpt lat="37.64695" lon="14.1117117"><ele>381.5</ele><time>2026-05-06T11:09:17.036Z</time></trkpt><trkpt lat="37.6467017" lon="14.11177"><ele>379.0</ele><time>2026-05-06T11:09:18.036Z</time></trkpt><trkpt lat="37.6464517" lon="14.1118317"><ele>379.0</ele><time>2026-05-06T11:09:19.036Z</time></trkpt><trkpt lat="37.6462" lon="14.1118933"><ele>379.0</ele><time>2026-05-06T11:09:20.035Z</time></trkpt><trkpt lat="37.6459483" lon="14.11195"><ele>378.0</ele><time>2026-05-06T11:09:21.036Z</time></trkpt><trkpt lat="37.6456917" lon="14.112"><ele>377.0</ele><time>2026-05-06T11:09:22.036Z</time></trkpt><trkpt lat="37.6454417" lon="14.112055"><ele>377.0</ele><time>2026-05-06T11:09:23.036Z</time></trkpt><trkpt lat="37.6451867" lon="14.1121117"><ele>377.0</ele><time>2026-05-06T11:09:24.036Z</time></trkpt><trkpt lat="37.6449317" lon="14.1121683"><ele>377.0</ele><time>2026-05-06T11:09:25.036Z</time></trkpt><trkpt lat="37.64468" lon="14.1122317"><ele>377.0</ele><time>2026-05-06T11:09:26.036Z</time></trkpt><trkpt lat="37.6444317" lon="14.1122933"><ele>377.0</ele><time>2026-05-06T11:09:27.036Z</time></trkpt><trkpt lat="37.6441833" lon="14.1123667"><ele>377.0</ele><time>2026-05-06T11:09:28.035Z</time></trkpt><trkpt lat="37.6439367" lon="14.1124417"><ele>377.5</ele><time>2026-05-06T11:09:29.036Z</time></trkpt><trkpt lat="37.6436833" lon="14.1125117"><ele>378.0</ele><time>2026-05-06T11:09:30.036Z</time></trkpt><trkpt lat="37.643435" lon="14.1125917"><ele>378.0</ele><time>2026-05-06T11:09:31.036Z</time></trkpt><trkpt lat="37.64319" lon="14.11267"><ele>378.0</ele><time>2026-05-06T11:09:32.036Z</time></trkpt><trkpt lat="37.6429433" lon="14.1127433"><ele>379.5</ele><time>2026-05-06T11:09:33.036Z</time></trkpt><trkpt lat="37.6426983" lon="14.1128267"><ele>381.0</ele><time>2026-05-06T11:09:34.036Z</time></trkpt><trkpt lat="37.64245" lon="14.1129033"><ele>381.0</ele><time>2026-05-06T11:09:35.035Z</time></trkpt><trkpt lat="37.6422017" lon="14.1129717"><ele>381.0</ele><time>2026-05-06T11:09:36.036Z</time></trkpt><trkpt lat="37.6419533" lon="14.1130517"><ele>386.0</ele><time>2026-05-06T11:09:37.036Z</time></trkpt><trkpt lat="37.6417033" lon="14.11313"><ele>391.0</ele><time>2026-05-06T11:09:38.036Z</time></trkpt><trkpt lat="37.64145" lon="14.1132"><ele>386.0</ele><time>2026-05-06T11:09:39.036Z</time></trkpt><trkpt lat="37.6412117" lon="14.1132817"><ele>381.0</ele><time>2026-05-06T11:09:40.036Z</time></trkpt><trkpt lat="37.6409667" lon="14.1133617"><ele>381.0</ele><time>2026-05-06T11:09:41.036Z</time></trkpt><trkpt lat="37.64072" lon="14.11344"><ele>381.0</ele><time>2026-05-06T11:09:42.036Z</time></trkpt><trkpt lat="37.64047" lon="14.1135233"><ele>381.0</ele><time>2026-05-06T11:09:43.036Z</time></trkpt><trkpt lat="37.6402267" lon="14.1136067"><ele>381.0</ele><time>2026-05-06T11:09:44.036Z</time></trkpt><trkpt lat="37.6399783" lon="14.113685"><ele>381.0</ele><time>2026-05-06T11:09:45.036Z</time></trkpt><trkpt lat="37.6397317" lon="14.11377"><ele>381.0</ele><time>2026-05-06T11:09:46.036Z</time></trkpt><trkpt lat="37.6394817" lon="14.1138517"><ele>381.0</ele><time>2026-05-06T11:09:47.036Z</time></trkpt><trkpt lat="37.63923" lon="14.1139317"><ele>381.0</ele><time>2026-05-06T11:09:48.036Z</time></trkpt><trkpt lat="37.638985" lon="14.11402"><ele>379.0</ele><time>2026-05-06T11:09:49.036Z</time></trkpt><trkpt lat="37.6387433" lon="14.11411"><ele>377.0</ele><time>2026-05-06T11:09:50.036Z</time></trkpt><trkpt lat="37.6384967" lon="14.1142017"><ele>374.0</ele><time>2026-05-06T11:09:51.036Z</time></trkpt><trkpt lat="37.6382533" lon="14.1142983"><ele>371.0</ele><time>2026-05-06T11:09:52.036Z</time></trkpt><trkpt lat="37.6380117" lon="14.1144"><ele>369.5</ele><time>2026-05-06T11:09:53.036Z</time></trkpt><trkpt lat="37.63777" lon="14.1145033"><ele>368.0</ele><time>2026-05-06T11:09:54.036Z</time></trkpt><trkpt lat="37.6375333" lon="14.1146083"><ele>368.0</ele><time>2026-05-06T11:09:55.036Z</time></trkpt><trkpt lat="37.63729" lon="14.1147167"><ele>368.0</ele><time>2026-05-06T11:09:56.036Z</time></trkpt><trkpt lat="37.6370483" lon="14.1148217"><ele>369.5</ele><time>2026-05-06T11:09:57.036Z</time></trkpt><trkpt lat="37.6368033" lon="14.114925"><ele>371.0</ele><time>2026-05-06T11:09:58.036Z</time></trkpt><trkpt lat="37.63656" lon="14.1150333"><ele>371.0</ele><time>2026-05-06T11:09:59.036Z</time></trkpt><trkpt lat="37.6363217" lon="14.1151367"><ele>371.0</ele><time>2026-05-06T11:10:00.036Z</time></trkpt><trkpt lat="37.63608" lon="14.11524"><ele>372.0</ele><time>2026-05-06T11:10:01.036Z</time></trkpt><trkpt lat="37.6358367" lon="14.1153433"><ele>373.0</ele><time>2026-05-06T11:10:02.036Z</time></trkpt><trkpt lat="37.6355917" lon="14.1154483"><ele>373.0</ele><time>2026-05-06T11:10:03.036Z</time></trkpt><trkpt lat="37.63535" lon="14.1155567"><ele>373.0</ele><time>2026-05-06T11:10:04.036Z</time></trkpt><trkpt lat="37.6351167" lon="14.11567"><ele>376.0</ele><time>2026-05-06T11:10:05.036Z</time></trkpt><trkpt lat="37.6348783" lon="14.1157783"><ele>379.0</ele><time>2026-05-06T11:10:06.036Z</time></trkpt><trkpt lat="37.6346367" lon="14.1158883"><ele>377.0</ele><time>2026-05-06T11:10:07.036Z</time></trkpt><trkpt lat="37.634395" lon="14.1160017"><ele>375.0</ele><time>2026-05-06T11:10:08.036Z</time></trkpt><trkpt lat="37.634155" lon="14.116115"><ele>375.0</ele><time>2026-05-06T11:10:09.036Z</time></trkpt><trkpt lat="37.6339167" lon="14.1162217"><ele>375.0</ele><time>2026-05-06T11:10:10.036Z</time></trkpt><trkpt lat="37.6336867" lon="14.1163183"><ele>371.0</ele><time>2026-05-06T11:10:11.035Z</time></trkpt><trkpt lat="37.6334667" lon="14.1164167"><ele>367.0</ele><time>2026-05-06T11:10:12.036Z</time></trkpt><trkpt lat="37.63325" lon="14.1165133"><ele>368.5</ele><time>2026-05-06T11:10:13.036Z</time></trkpt><trkpt lat="37.6330367" lon="14.11662"><ele>370.0</ele><time>2026-05-06T11:10:14.036Z</time></trkpt><trkpt lat="37.6328217" lon="14.1167267"><ele>368.0</ele><time>2026-05-06T11:10:15.035Z</time></trkpt><trkpt lat="37.63261" lon="14.1168367"><ele>366.0</ele><time>2026-05-06T11:10:16.036Z</time></trkpt><trkpt lat="37.6323967" lon="14.1169467"><ele>366.0</ele><time>2026-05-06T11:10:17.036Z</time></trkpt><trkpt lat="37.6321783" lon="14.1170533"><ele>366.0</ele><time>2026-05-06T11:10:18.036Z</time></trkpt><trkpt lat="37.6319633" lon="14.1171667"><ele>364.0</ele><time>2026-05-06T11:10:19.036Z</time></trkpt><trkpt lat="37.6317483" lon="14.11728"><ele>362.0</ele><time>2026-05-06T11:10:20.036Z</time></trkpt><trkpt lat="37.63153" lon="14.1173917"><ele>362.0</ele><time>2026-05-06T11:10:21.036Z</time></trkpt><trkpt lat="37.631315" lon="14.1175083"><ele>362.0</ele><time>2026-05-06T11:10:22.036Z</time></trkpt><trkpt lat="37.6311" lon="14.1176217"><ele>362.0</ele><time>2026-05-06T11:10:23.036Z</time></trkpt><trkpt lat="37.63088" lon="14.1177367"><ele>362.0</ele><time>2026-05-06T11:10:24.036Z</time></trkpt><trkpt lat="37.6306633" lon="14.117855"><ele>362.0</ele><time>2026-05-06T11:10:25.036Z</time></trkpt><trkpt lat="37.6304433" lon="14.1179683"><ele>362.0</ele><time>2026-05-06T11:10:26.036Z</time></trkpt><trkpt lat="37.6302167" lon="14.11808"><ele>362.0</ele><time>2026-05-06T11:10:27.036Z</time></trkpt><trkpt lat="37.6299983" lon="14.1181983"><ele>362.0</ele><time>2026-05-06T11:10:28.036Z</time></trkpt><trkpt lat="37.6297783" lon="14.1183183"><ele>361.5</ele><time>2026-05-06T11:10:29.036Z</time></trkpt><trkpt lat="37.629555" lon="14.1184367"><ele>361.0</ele><time>2026-05-06T11:10:30.036Z</time></trkpt><trkpt lat="37.6293283" lon="14.1185533"><ele>362.0</ele><time>2026-05-06T11:10:31.036Z</time></trkpt><trkpt lat="37.6291" lon="14.11867"><ele>363.0</ele><time>2026-05-06T11:10:32.036Z</time></trkpt><trkpt lat="37.6288667" lon="14.1187817"><ele>366.5</ele><time>2026-05-06T11:10:33.036Z</time></trkpt><trkpt lat="37.62863" lon="14.1189"><ele>370.0</ele><time>2026-05-06T11:10:34.036Z</time></trkpt><trkpt lat="37.628395" lon="14.119015"><ele>367.5</ele><time>2026-05-06T11:10:35.036Z</time></trkpt><trkpt lat="37.6281683" lon="14.1191317"><ele>365.0</ele><time>2026-05-06T11:10:36.036Z</time></trkpt><trkpt lat="37.6279317" lon="14.1192533"><ele>366.5</ele><time>2026-05-06T11:10:37.035Z</time></trkpt><trkpt lat="37.6276983" lon="14.1193817"><ele>368.0</ele><time>2026-05-06T11:10:38.036Z</time></trkpt><trkpt lat="37.62747" lon="14.1195067"><ele>368.0</ele><time>2026-05-06T11:10:39.036Z</time></trkpt><trkpt lat="37.6272367" lon="14.1196333"><ele>368.0</ele><time>2026-05-06T11:10:40.036Z</time></trkpt><trkpt lat="37.6269967" lon="14.1197617"><ele>366.5</ele><time>2026-05-06T11:10:41.035Z</time></trkpt><trkpt lat="37.6267633" lon="14.11989"><ele>365.0</ele><time>2026-05-06T11:10:42.036Z</time></trkpt><trkpt lat="37.62653" lon="14.1200167"><ele>365.0</ele><time>2026-05-06T11:10:43.036Z</time></trkpt><trkpt lat="37.626295" lon="14.1201417"><ele>365.0</ele><time>2026-05-06T11:10:44.036Z</time></trkpt><trkpt lat="37.6260633" lon="14.1202583"><ele>365.0</ele><time>2026-05-06T11:10:45.036Z</time></trkpt><trkpt lat="37.6258317" lon="14.12038"><ele>365.0</ele><time>2026-05-06T11:10:46.036Z</time></trkpt><trkpt lat="37.6255917" lon="14.1205083"><ele>365.0</ele><time>2026-05-06T11:10:47.035Z</time></trkpt><trkpt lat="37.62535" lon="14.12063"><ele>365.0</ele><time>2026-05-06T11:10:48.036Z</time></trkpt><trkpt lat="37.6251067" lon="14.1207533"><ele>364.0</ele><time>2026-05-06T11:10:49.036Z</time></trkpt><trkpt lat="37.6248683" lon="14.12088"><ele>363.0</ele><time>2026-05-06T11:10:50.036Z</time></trkpt><trkpt lat="37.6246333" lon="14.1210083"><ele>365.5</ele><time>2026-05-06T11:10:51.035Z</time></trkpt><trkpt lat="37.6244017" lon="14.1211317"><ele>368.0</ele><time>2026-05-06T11:10:52.036Z</time></trkpt><trkpt lat="37.6241683" lon="14.121255"><ele>368.0</ele><time>2026-05-06T11:10:53.036Z</time></trkpt><trkpt lat="37.6239383" lon="14.121375"><ele>368.0</ele><time>2026-05-06T11:10:54.035Z</time></trkpt><trkpt lat="37.6237033" lon="14.1214967"><ele>365.5</ele><time>2026-05-06T11:10:55.036Z</time></trkpt><trkpt lat="37.623465" lon="14.121625"><ele>363.0</ele><time>2026-05-06T11:10:56.036Z</time></trkpt><trkpt lat="37.6232233" lon="14.1217483"><ele>363.0</ele><time>2026-05-06T11:10:57.036Z</time></trkpt><trkpt lat="37.622985" lon="14.121875"><ele>363.0</ele><time>2026-05-06T11:10:58.036Z</time></trkpt><trkpt lat="37.62275" lon="14.1219967"><ele>362.5</ele><time>2026-05-06T11:10:59.036Z</time></trkpt><trkpt lat="37.6225117" lon="14.12212"><ele>362.0</ele><time>2026-05-06T11:11:00.036Z</time></trkpt><trkpt lat="37.6222683" lon="14.1222417"><ele>362.0</ele><time>2026-05-06T11:11:01.036Z</time></trkpt><trkpt lat="37.6220333" lon="14.1223583"><ele>362.0</ele><time>2026-05-06T11:11:02.036Z</time></trkpt><trkpt lat="37.6217933" lon="14.1224633"><ele>360.0</ele><time>2026-05-06T11:11:03.036Z</time></trkpt><trkpt lat="37.6215517" lon="14.1225633"><ele>358.0</ele><time>2026-05-06T11:11:04.036Z</time></trkpt><trkpt lat="37.62131" lon="14.1226567"><ele>357.5</ele><time>2026-05-06T11:11:05.036Z</time></trkpt><trkpt lat="37.621065" lon="14.122745"><ele>357.0</ele><time>2026-05-06T11:11:06.036Z</time></trkpt><trkpt lat="37.620815" lon="14.12283"><ele>357.0</ele><time>2026-05-06T11:11:07.036Z</time></trkpt><trkpt lat="37.6205683" lon="14.12291"><ele>357.0</ele><time>2026-05-06T11:11:08.036Z</time></trkpt><trkpt lat="37.6203183" lon="14.1229933"><ele>356.5</ele><time>2026-05-06T11:11:09.036Z</time></trkpt><trkpt lat="37.62007" lon="14.123075"><ele>356.0</ele><time>2026-05-06T11:11:10.035Z</time></trkpt><trkpt lat="37.6198283" lon="14.1231567"><ele>356.0</ele><time>2026-05-06T11:11:11.036Z</time></trkpt><trkpt lat="37.6195833" lon="14.1232367"><ele>356.0</ele><time>2026-05-06T11:11:12.036Z</time></trkpt><trkpt lat="37.61934" lon="14.1233167"><ele>356.0</ele><time>2026-05-06T11:11:13.036Z</time></trkpt><trkpt lat="37.6190933" lon="14.1233967"><ele>356.0</ele><time>2026-05-06T11:11:14.036Z</time></trkpt><trkpt lat="37.61884" lon="14.1234817"><ele>354.5</ele><time>2026-05-06T11:11:15.036Z</time></trkpt><trkpt lat="37.6186" lon="14.1235667"><ele>353.0</ele><time>2026-05-06T11:11:16.035Z</time></trkpt><trkpt lat="37.6183533" lon="14.1236483"><ele>353.0</ele><time>2026-05-06T11:11:17.036Z</time></trkpt><trkpt lat="37.6181017" lon="14.1237283"><ele>353.0</ele><time>2026-05-06T11:11:18.035Z</time></trkpt><trkpt lat="37.6178517" lon="14.1238083"><ele>352.0</ele><time>2026-05-06T11:11:19.036Z</time></trkpt><trkpt lat="37.617605" lon="14.1238883"><ele>351.0</ele><time>2026-05-06T11:11:20.036Z</time></trkpt><trkpt lat="37.6173633" lon="14.1239717"><ele>351.0</ele><time>2026-05-06T11:11:21.036Z</time></trkpt><trkpt lat="37.6171167" lon="14.1240517"><ele>351.0</ele><time>2026-05-06T11:11:22.036Z</time></trkpt><trkpt lat="37.6168633" lon="14.12413"><ele>353.5</ele><time>2026-05-06T11:11:23.036Z</time></trkpt><trkpt lat="37.61662" lon="14.1242117"><ele>356.0</ele><time>2026-05-06T11:11:24.036Z</time></trkpt><trkpt lat="37.6163783" lon="14.1242933"><ele>355.5</ele><time>2026-05-06T11:11:25.036Z</time></trkpt><trkpt lat="37.61613" lon="14.1243767"><ele>355.0</ele><time>2026-05-06T11:11:26.036Z</time></trkpt><trkpt lat="37.6158867" lon="14.1244583"><ele>355.0</ele><time>2026-05-06T11:11:27.036Z</time></trkpt><trkpt lat="37.6156417" lon="14.12454"><ele>355.0</ele><time>2026-05-06T11:11:28.036Z</time></trkpt><trkpt lat="37.6153967" lon="14.12462"><ele>352.5</ele><time>2026-05-06T11:11:29.036Z</time></trkpt><trkpt lat="37.6151483" lon="14.124705"><ele>350.0</ele><time>2026-05-06T11:11:30.036Z</time></trkpt><trkpt lat="37.6148983" lon="14.1247917"><ele>350.0</ele><time>2026-05-06T11:11:31.036Z</time></trkpt><trkpt lat="37.6146467" lon="14.1248717"><ele>350.0</ele><time>2026-05-06T11:11:32.036Z</time></trkpt><trkpt lat="37.614395" lon="14.124955"><ele>352.0</ele><time>2026-05-06T11:11:33.036Z</time></trkpt><trkpt lat="37.6141483" lon="14.12504"><ele>354.0</ele><time>2026-05-06T11:11:34.036Z</time></trkpt><trkpt lat="37.613895" lon="14.125125"><ele>351.5</ele><time>2026-05-06T11:11:35.035Z</time></trkpt><trkpt lat="37.6136417" lon="14.1252083"><ele>349.0</ele><time>2026-05-06T11:11:36.036Z</time></trkpt><trkpt lat="37.6133983" lon="14.1252933"><ele>349.0</ele><time>2026-05-06T11:11:37.036Z</time></trkpt><trkpt lat="37.613155" lon="14.1253883"><ele>349.0</ele><time>2026-05-06T11:11:38.036Z</time></trkpt><trkpt lat="37.6129117" lon="14.1254867"><ele>348.0</ele><time>2026-05-06T11:11:39.035Z</time></trkpt><trkpt lat="37.61267" lon="14.1255883"><ele>347.0</ele><time>2026-05-06T11:11:40.036Z</time></trkpt><trkpt lat="37.612435" lon="14.1257033"><ele>347.5</ele><time>2026-05-06T11:11:41.036Z</time></trkpt><trkpt lat="37.6122017" lon="14.1258283"><ele>348.0</ele><time>2026-05-06T11:11:42.036Z</time></trkpt><trkpt lat="37.6119717" lon="14.1259633"><ele>348.0</ele><time>2026-05-06T11:11:43.036Z</time></trkpt><trkpt lat="37.6117383" lon="14.1261033"><ele>348.0</ele><time>2026-05-06T11:11:44.036Z</time></trkpt><trkpt lat="37.6115167" lon="14.1262483"><ele>348.0</ele><time>2026-05-06T11:11:45.036Z</time></trkpt><trkpt lat="37.6112933" lon="14.1264033"><ele>348.0</ele><time>2026-05-06T11:11:46.036Z</time></trkpt><trkpt lat="37.6110783" lon="14.1265617"><ele>348.0</ele><time>2026-05-06T11:11:47.036Z</time></trkpt><trkpt lat="37.610865" lon="14.1267333"><ele>348.0</ele><time>2026-05-06T11:11:48.036Z</time></trkpt><trkpt lat="37.61066" lon="14.12691"><ele>348.0</ele><time>2026-05-06T11:11:49.036Z</time></trkpt><trkpt lat="37.6104583" lon="14.1270833"><ele>348.0</ele><time>2026-05-06T11:11:50.036Z</time></trkpt><trkpt lat="37.6102633" lon="14.12727"><ele>348.5</ele><time>2026-05-06T11:11:51.036Z</time></trkpt><trkpt lat="37.61007" lon="14.1274517"><ele>349.0</ele><time>2026-05-06T11:11:52.036Z</time></trkpt><trkpt lat="37.6098733" lon="14.127635"><ele>349.0</ele><time>2026-05-06T11:11:53.036Z</time></trkpt><trkpt lat="37.6096783" lon="14.1278233"><ele>349.0</ele><time>2026-05-06T11:11:54.036Z</time></trkpt><trkpt lat="37.6094783" lon="14.1280133"><ele>349.0</ele><time>2026-05-06T11:11:55.036Z</time></trkpt><trkpt lat="37.6092767" lon="14.1281983"><ele>349.0</ele><time>2026-05-06T11:11:56.036Z</time></trkpt><trkpt lat="37.6090783" lon="14.128385"><ele>349.5</ele><time>2026-05-06T11:11:57.036Z</time></trkpt><trkpt lat="37.6088783" lon="14.1285767"><ele>350.0</ele><time>2026-05-06T11:11:58.036Z</time></trkpt><trkpt lat="37.60868" lon="14.128765"><ele>350.0</ele><time>2026-05-06T11:11:59.036Z</time></trkpt><trkpt lat="37.6084867" lon="14.1289567"><ele>350.0</ele><time>2026-05-06T11:12:00.036Z</time></trkpt><trkpt lat="37.608295" lon="14.1291467"><ele>350.0</ele><time>2026-05-06T11:12:01.036Z</time></trkpt><trkpt lat="37.6080983" lon="14.1293283"><ele>350.0</ele><time>2026-05-06T11:12:02.036Z</time></trkpt><trkpt lat="37.6079033" lon="14.1295167"><ele>351.5</ele><time>2026-05-06T11:12:03.036Z</time></trkpt><trkpt lat="37.6077117" lon="14.1296983"><ele>353.0</ele><time>2026-05-06T11:12:04.036Z</time></trkpt><trkpt lat="37.6075183" lon="14.1298833"><ele>350.5</ele><time>2026-05-06T11:12:05.036Z</time></trkpt><trkpt lat="37.607325" lon="14.130065"><ele>348.0</ele><time>2026-05-06T11:12:06.036Z</time></trkpt><trkpt lat="37.6071333" lon="14.1302467"><ele>350.5</ele><time>2026-05-06T11:12:07.035Z</time></trkpt><trkpt lat="37.6069467" lon="14.1304217"><ele>353.0</ele><time>2026-05-06T11:12:08.036Z</time></trkpt><trkpt lat="37.6067567" lon="14.130595"><ele>347.5</ele><time>2026-05-06T11:12:09.036Z</time></trkpt><trkpt lat="37.6065733" lon="14.1307617"><ele>342.0</ele><time>2026-05-06T11:12:10.036Z</time></trkpt><trkpt lat="37.6063833" lon="14.130915"><ele>342.0</ele><time>2026-05-06T11:12:11.036Z</time></trkpt><trkpt lat="37.6061883" lon="14.1310617"><ele>342.0</ele><time>2026-05-06T11:12:12.036Z</time></trkpt><trkpt lat="37.6059883" lon="14.1311967"><ele>343.3333333333333</ele><time>2026-05-06T11:12:13.036Z</time></trkpt><trkpt lat="37.605785" lon="14.131315"><ele>344.66666666666663</ele><time>2026-05-06T11:12:14.036Z</time></trkpt><trkpt lat="37.6055767" lon="14.13142"><ele>346.0</ele><time>2026-05-06T11:12:15.036Z</time></trkpt><trkpt lat="37.605365" lon="14.1315067"><ele>345.0</ele><time>2026-05-06T11:12:16.036Z</time></trkpt><trkpt lat="37.6051417" lon="14.1315817"><ele>344.0</ele><time>2026-05-06T11:12:17.036Z</time></trkpt><trkpt lat="37.6049167" lon="14.1316483"><ele>344.0</ele><time>2026-05-06T11:12:18.035Z</time></trkpt><trkpt lat="37.6046917" lon="14.1317017"><ele>344.0</ele><time>2026-05-06T11:12:19.036Z</time></trkpt><trkpt lat="37.6044633" lon="14.1317383"><ele>343.5</ele><time>2026-05-06T11:12:20.036Z</time></trkpt><trkpt lat="37.60424" lon="14.1317633"><ele>343.0</ele><time>2026-05-06T11:12:21.036Z</time></trkpt><trkpt lat="37.604005" lon="14.131775"><ele>343.0</ele><time>2026-05-06T11:12:22.036Z</time></trkpt><trkpt lat="37.6037733" lon="14.131765"><ele>343.0</ele><time>2026-05-06T11:12:23.036Z</time></trkpt><trkpt lat="37.6035383" lon="14.1317467"><ele>342.5</ele><time>2026-05-06T11:12:24.036Z</time></trkpt><trkpt lat="37.6033083" lon="14.1317183"><ele>342.0</ele><time>2026-05-06T11:12:25.036Z</time></trkpt><trkpt lat="37.6030783" lon="14.1316767"><ele>342.0</ele><time>2026-05-06T11:12:26.036Z</time></trkpt><trkpt lat="37.602845" lon="14.1316267"><ele>342.0</ele><time>2026-05-06T11:12:27.036Z</time></trkpt><trkpt lat="37.60261" lon="14.1315733"><ele>343.5</ele><time>2026-05-06T11:12:28.036Z</time></trkpt><trkpt lat="37.6023783" lon="14.131525"><ele>345.0</ele><time>2026-05-06T11:12:29.036Z</time></trkpt><trkpt lat="37.602145" lon="14.131475"><ele>346.0</ele><time>2026-05-06T11:12:30.036Z</time></trkpt><trkpt lat="37.6019067" lon="14.13142"><ele>347.0</ele><time>2026-05-06T11:12:31.036Z</time></trkpt><trkpt lat="37.601665" lon="14.131365"><ele>347.0</ele><time>2026-05-06T11:12:32.036Z</time></trkpt><trkpt lat="37.60143" lon="14.1313133"><ele>347.0</ele><time>2026-05-06T11:12:33.036Z</time></trkpt><trkpt lat="37.6011917" lon="14.1312667"><ele>347.5</ele><time>2026-05-06T11:12:34.036Z</time></trkpt><trkpt lat="37.60095" lon="14.1312167"><ele>348.0</ele><time>2026-05-06T11:12:35.036Z</time></trkpt><trkpt lat="37.60071" lon="14.131165"><ele>348.0</ele><time>2026-05-06T11:12:36.036Z</time></trkpt><trkpt lat="37.6004617" lon="14.1311133"><ele>348.0</ele><time>2026-05-06T11:12:37.036Z</time></trkpt><trkpt lat="37.6002167" lon="14.1310617"><ele>348.5</ele><time>2026-05-06T11:12:38.036Z</time></trkpt><trkpt lat="37.5999683" lon="14.1310117"><ele>349.0</ele><time>2026-05-06T11:12:39.036Z</time></trkpt><trkpt lat="37.5997117" lon="14.1309617"><ele>348.5</ele><time>2026-05-06T11:12:40.036Z</time></trkpt><trkpt lat="37.5994567" lon="14.1309083"><ele>348.0</ele><time>2026-05-06T11:12:41.036Z</time></trkpt><trkpt lat="37.599205" lon="14.1308567"><ele>348.0</ele><time>2026-05-06T11:12:42.036Z</time></trkpt><trkpt lat="37.5989533" lon="14.1308017"><ele>348.0</ele><time>2026-05-06T11:12:43.036Z</time></trkpt><trkpt lat="37.5987" lon="14.1307467"><ele>346.0</ele><time>2026-05-06T11:12:44.036Z</time></trkpt><trkpt lat="37.5984467" lon="14.130685"><ele>344.0</ele><time>2026-05-06T11:12:45.036Z</time></trkpt><trkpt lat="37.598195" lon="14.13063"><ele>344.0</ele><time>2026-05-06T11:12:46.036Z</time></trkpt><trkpt lat="37.5979417" lon="14.1305767"><ele>344.0</ele><time>2026-05-06T11:12:47.036Z</time></trkpt><trkpt lat="37.59769" lon="14.130525"><ele>344.5</ele><time>2026-05-06T11:12:48.036Z</time></trkpt><trkpt lat="37.5974367" lon="14.130475"><ele>345.0</ele><time>2026-05-06T11:12:49.036Z</time></trkpt><trkpt lat="37.597185" lon="14.1304267"><ele>345.0</ele><time>2026-05-06T11:12:50.036Z</time></trkpt><trkpt lat="37.59693" lon="14.130395"><ele>345.0</ele><time>2026-05-06T11:12:51.036Z</time></trkpt><trkpt lat="37.5966767" lon="14.1303733"><ele>345.0</ele><time>2026-05-06T11:12:52.036Z</time></trkpt><trkpt lat="37.5964183" lon="14.1303583"><ele>345.0</ele><time>2026-05-06T11:12:53.036Z</time></trkpt><trkpt lat="37.5961583" lon="14.1303567"><ele>345.5</ele><time>2026-05-06T11:12:54.036Z</time></trkpt><trkpt lat="37.5959" lon="14.1303617"><ele>346.0</ele><time>2026-05-06T11:12:55.036Z</time></trkpt><trkpt lat="37.5956467" lon="14.1303767"><ele>346.0</ele><time>2026-05-06T11:12:56.036Z</time></trkpt><trkpt lat="37.595395" lon="14.1304017"><ele>346.0</ele><time>2026-05-06T11:12:57.036Z</time></trkpt><trkpt lat="37.5951383" lon="14.1304333"><ele>344.5</ele><time>2026-05-06T11:12:58.036Z</time></trkpt><trkpt lat="37.5948867" lon="14.1304767"><ele>343.0</ele><time>2026-05-06T11:12:59.036Z</time></trkpt><trkpt lat="37.5946367" lon="14.1305333"><ele>342.0</ele><time>2026-05-06T11:13:00.036Z</time></trkpt><trkpt lat="37.5943867" lon="14.1305983"><ele>341.0</ele><time>2026-05-06T11:13:01.036Z</time></trkpt><trkpt lat="37.59414" lon="14.1306783"><ele>342.5</ele><time>2026-05-06T11:13:02.036Z</time></trkpt><trkpt lat="37.5938933" lon="14.1307533"><ele>344.0</ele><time>2026-05-06T11:13:03.035Z</time></trkpt><trkpt lat="37.59365" lon="14.1308383"><ele>344.5</ele><time>2026-05-06T11:13:04.035Z</time></trkpt><trkpt lat="37.5934033" lon="14.1309267"><ele>345.0</ele><time>2026-05-06T11:13:05.036Z</time></trkpt><trkpt lat="37.5931583" lon="14.131025"><ele>345.0</ele><time>2026-05-06T11:13:06.036Z</time></trkpt><trkpt lat="37.5929167" lon="14.13113"><ele>345.0</ele><time>2026-05-06T11:13:07.036Z</time></trkpt><trkpt lat="37.59268" lon="14.13125"><ele>343.5</ele><time>2026-05-06T11:13:08.036Z</time></trkpt><trkpt lat="37.592445" lon="14.1313817"><ele>342.0</ele><time>2026-05-06T11:13:09.036Z</time></trkpt><trkpt lat="37.59221" lon="14.131515"><ele>341.5</ele><time>2026-05-06T11:13:10.036Z</time></trkpt><trkpt lat="37.5919817" lon="14.1316567"><ele>341.0</ele><time>2026-05-06T11:13:11.036Z</time></trkpt><trkpt lat="37.5917583" lon="14.1317983"><ele>341.0</ele><time>2026-05-06T11:13:12.036Z</time></trkpt><trkpt lat="37.5915283" lon="14.131945"><ele>341.0</ele><time>2026-05-06T11:13:13.036Z</time></trkpt><trkpt lat="37.5913017" lon="14.132085"><ele>342.0</ele><time>2026-05-06T11:13:14.036Z</time></trkpt><trkpt lat="37.5910717" lon="14.1322233"><ele>343.0</ele><time>2026-05-06T11:13:15.036Z</time></trkpt><trkpt lat="37.590845" lon="14.132365"><ele>342.0</ele><time>2026-05-06T11:13:16.036Z</time></trkpt><trkpt lat="37.5906167" lon="14.1325033"><ele>341.0</ele><time>2026-05-06T11:13:17.036Z</time></trkpt><trkpt lat="37.5903883" lon="14.1326383"><ele>340.0</ele><time>2026-05-06T11:13:18.036Z</time></trkpt><trkpt lat="37.5901617" lon="14.1327767"><ele>339.0</ele><time>2026-05-06T11:13:19.036Z</time></trkpt><trkpt lat="37.5899333" lon="14.1329083"><ele>339.0</ele><time>2026-05-06T11:13:20.036Z</time></trkpt><trkpt lat="37.5897017" lon="14.1330467"><ele>339.0</ele><time>2026-05-06T11:13:21.036Z</time></trkpt><trkpt lat="37.589475" lon="14.1331883"><ele>339.0</ele><time>2026-05-06T11:13:22.036Z</time></trkpt><trkpt lat="37.5892483" lon="14.1333317"><ele>339.0</ele><time>2026-05-06T11:13:23.036Z</time></trkpt><trkpt lat="37.589015" lon="14.1334783"><ele>339.0</ele><time>2026-05-06T11:13:24.036Z</time></trkpt><trkpt lat="37.588785" lon="14.1336167"><ele>339.0</ele><time>2026-05-06T11:13:25.036Z</time></trkpt><trkpt lat="37.5885583" lon="14.13376"><ele>336.5</ele><time>2026-05-06T11:13:26.036Z</time></trkpt><trkpt lat="37.5883317" lon="14.1339017"><ele>334.0</ele><time>2026-05-06T11:13:27.036Z</time></trkpt><trkpt lat="37.588095" lon="14.1340417"><ele>335.5</ele><time>2026-05-06T11:13:28.036Z</time></trkpt><trkpt lat="37.587865" lon="14.134185"><ele>337.0</ele><time>2026-05-06T11:13:29.036Z</time></trkpt><trkpt lat="37.5876383" lon="14.1343267"><ele>337.0</ele><time>2026-05-06T11:13:30.036Z</time></trkpt><trkpt lat="37.5874083" lon="14.1344683"><ele>337.0</ele><time>2026-05-06T11:13:31.036Z</time></trkpt><trkpt lat="37.5871783" lon="14.1346133"><ele>337.0</ele><time>2026-05-06T11:13:32.036Z</time></trkpt><trkpt lat="37.5869483" lon="14.1347517"><ele>337.0</ele><time>2026-05-06T11:13:33.036Z</time></trkpt><trkpt lat="37.5867183" lon="14.1348933"><ele>339.0</ele><time>2026-05-06T11:13:34.036Z</time></trkpt><trkpt lat="37.5864883" lon="14.1350317"><ele>341.0</ele><time>2026-05-06T11:13:35.036Z</time></trkpt><trkpt lat="37.5862567" lon="14.135175"><ele>338.5</ele><time>2026-05-06T11:13:36.036Z</time></trkpt><trkpt lat="37.5860283" lon="14.1353183"><ele>336.0</ele><time>2026-05-06T11:13:37.036Z</time></trkpt><trkpt lat="37.5858017" lon="14.1354617"><ele>336.0</ele><time>2026-05-06T11:13:38.036Z</time></trkpt><trkpt lat="37.5855683" lon="14.1356"><ele>336.0</ele><time>2026-05-06T11:13:39.036Z</time></trkpt><trkpt lat="37.5853367" lon="14.1357383"><ele>334.0</ele><time>2026-05-06T11:13:40.036Z</time></trkpt><trkpt lat="37.5851117" lon="14.13588"><ele>332.0</ele><time>2026-05-06T11:13:41.036Z</time></trkpt><trkpt lat="37.584885" lon="14.1360217"><ele>332.0</ele><time>2026-05-06T11:13:42.036Z</time></trkpt><trkpt lat="37.5846517" lon="14.1361617"><ele>332.0</ele><time>2026-05-06T11:13:43.036Z</time></trkpt><trkpt lat="37.5844283" lon="14.1363033"><ele>332.5</ele><time>2026-05-06T11:13:44.036Z</time></trkpt><trkpt lat="37.5841917" lon="14.1364383"><ele>333.0</ele><time>2026-05-06T11:13:45.036Z</time></trkpt><trkpt lat="37.583965" lon="14.1365683"><ele>332.0</ele><time>2026-05-06T11:13:46.036Z</time></trkpt><trkpt lat="37.583725" lon="14.1366833"><ele>331.0</ele><time>2026-05-06T11:13:47.036Z</time></trkpt><trkpt lat="37.5834833" lon="14.136795"><ele>331.0</ele><time>2026-05-06T11:13:48.036Z</time></trkpt><trkpt lat="37.5832433" lon="14.1369"><ele>331.0</ele><time>2026-05-06T11:13:49.036Z</time></trkpt><trkpt lat="37.582995" lon="14.1369967"><ele>331.0</ele><time>2026-05-06T11:13:50.036Z</time></trkpt><trkpt lat="37.5827483" lon="14.1370867"><ele>331.0</ele><time>2026-05-06T11:13:51.036Z</time></trkpt><trkpt lat="37.5825017" lon="14.1371683"><ele>331.0</ele><time>2026-05-06T11:13:52.036Z</time></trkpt><trkpt lat="37.582255" lon="14.137245"><ele>331.0</ele><time>2026-05-06T11:13:53.036Z</time></trkpt><trkpt lat="37.5820083" lon="14.1373167"><ele>331.0</ele><time>2026-05-06T11:13:54.036Z</time></trkpt><trkpt lat="37.581755" lon="14.1373783"><ele>331.0</ele><time>2026-05-06T11:13:55.036Z</time></trkpt><trkpt lat="37.5815033" lon="14.1374333"><ele>330.5</ele><time>2026-05-06T11:13:56.036Z</time></trkpt><trkpt lat="37.5812483" lon="14.1374733"><ele>330.0</ele><time>2026-05-06T11:13:57.036Z</time></trkpt><trkpt lat="37.5809933" lon="14.1375083"><ele>328.5</ele><time>2026-05-06T11:13:58.036Z</time></trkpt><trkpt lat="37.5807417" lon="14.13754"><ele>327.0</ele><time>2026-05-06T11:13:59.035Z</time></trkpt><trkpt lat="37.5804867" lon="14.13756"><ele>327.5</ele><time>2026-05-06T11:14:00.036Z</time></trkpt><trkpt lat="37.58023" lon="14.13757"><ele>328.0</ele><time>2026-05-06T11:14:01.036Z</time></trkpt><trkpt lat="37.5799733" lon="14.1375783"><ele>328.0</ele><time>2026-05-06T11:14:02.036Z</time></trkpt><trkpt lat="37.5797183" lon="14.1375783"><ele>328.0</ele><time>2026-05-06T11:14:03.035Z</time></trkpt><trkpt lat="37.5794617" lon="14.1375683"><ele>328.5</ele><time>2026-05-06T11:14:04.035Z</time></trkpt><trkpt lat="37.57921" lon="14.1375567"><ele>329.0</ele><time>2026-05-06T11:14:05.036Z</time></trkpt><trkpt lat="37.5789583" lon="14.137535"><ele>329.0</ele><time>2026-05-06T11:14:06.036Z</time></trkpt><trkpt lat="37.5787033" lon="14.1375033"><ele>329.0</ele><time>2026-05-06T11:14:07.036Z</time></trkpt><trkpt lat="37.5784517" lon="14.1374633"><ele>327.5</ele><time>2026-05-06T11:14:08.036Z</time></trkpt><trkpt lat="37.5782017" lon="14.1374183"><ele>326.0</ele><time>2026-05-06T11:14:09.036Z</time></trkpt><trkpt lat="37.5779467" lon="14.1373633"><ele>328.5</ele><time>2026-05-06T11:14:10.035Z</time></trkpt><trkpt lat="37.5776967" lon="14.1373"><ele>331.0</ele><time>2026-05-06T11:14:11.036Z</time></trkpt><trkpt lat="37.5774483" lon="14.1372333"><ele>331.0</ele><time>2026-05-06T11:14:12.036Z</time></trkpt><trkpt lat="37.5772017" lon="14.1371583"><ele>331.0</ele><time>2026-05-06T11:14:13.036Z</time></trkpt><trkpt lat="37.5769533" lon="14.137075"><ele>330.5</ele><time>2026-05-06T11:14:14.036Z</time></trkpt><trkpt lat="37.5767117" lon="14.1369883"><ele>330.0</ele><time>2026-05-06T11:14:15.036Z</time></trkpt><trkpt lat="37.5764683" lon="14.1368967"><ele>330.0</ele><time>2026-05-06T11:14:16.036Z</time></trkpt><trkpt lat="37.5762267" lon="14.1368"><ele>330.0</ele><time>2026-05-06T11:14:17.036Z</time></trkpt><trkpt lat="37.5759783" lon="14.13671"><ele>328.5</ele><time>2026-05-06T11:14:18.036Z</time></trkpt><trkpt lat="37.5757317" lon="14.1366233"><ele>327.0</ele><time>2026-05-06T11:14:19.035Z</time></trkpt><trkpt lat="37.5754883" lon="14.136535"><ele>329.0</ele><time>2026-05-06T11:14:20.036Z</time></trkpt><trkpt lat="37.575245" lon="14.1364483"><ele>331.0</ele><time>2026-05-06T11:14:21.036Z</time></trkpt><trkpt lat="37.5749983" lon="14.1363617"><ele>331.0</ele><time>2026-05-06T11:14:22.036Z</time></trkpt><trkpt lat="37.5747433" lon="14.13628"><ele>331.0</ele><time>2026-05-06T11:14:23.036Z</time></trkpt><trkpt lat="37.5744933" lon="14.1362"><ele>332.0</ele><time>2026-05-06T11:14:24.036Z</time></trkpt><trkpt lat="37.574245" lon="14.1361217"><ele>333.0</ele><time>2026-05-06T11:14:25.036Z</time></trkpt><trkpt lat="37.5739967" lon="14.1360333"><ele>333.0</ele><time>2026-05-06T11:14:26.036Z</time></trkpt><trkpt lat="37.5737483" lon="14.1359467"><ele>333.0</ele><time>2026-05-06T11:14:27.036Z</time></trkpt><trkpt lat="37.5735017" lon="14.1358583"><ele>331.5</ele><time>2026-05-06T11:14:28.036Z</time></trkpt><trkpt lat="37.57326" lon="14.1357733"><ele>330.0</ele><time>2026-05-06T11:14:29.036Z</time></trkpt><trkpt lat="37.5730133" lon="14.1356967"><ele>327.5</ele><time>2026-05-06T11:14:30.036Z</time></trkpt><trkpt lat="37.5727633" lon="14.1356283"><ele>325.0</ele><time>2026-05-06T11:14:31.036Z</time></trkpt><trkpt lat="37.5725167" lon="14.1355733"><ele>325.0</ele><time>2026-05-06T11:14:32.036Z</time></trkpt><trkpt lat="37.5722667" lon="14.13553"><ele>325.0</ele><time>2026-05-06T11:14:33.036Z</time></trkpt><trkpt lat="37.572015" lon="14.1354967"><ele>325.0</ele><time>2026-05-06T11:14:34.036Z</time></trkpt><trkpt lat="37.5717583" lon="14.135475"><ele>325.0</ele><time>2026-05-06T11:14:35.036Z</time></trkpt><trkpt lat="37.5715033" lon="14.135455"><ele>325.0</ele><time>2026-05-06T11:14:36.036Z</time></trkpt><trkpt lat="37.5712483" lon="14.1354467"><ele>325.0</ele><time>2026-05-06T11:14:37.036Z</time></trkpt><trkpt lat="37.5709933" lon="14.1354483"><ele>324.5</ele><time>2026-05-06T11:14:38.036Z</time></trkpt><trkpt lat="37.570735" lon="14.13546"><ele>324.0</ele><time>2026-05-06T11:14:39.036Z</time></trkpt><trkpt lat="37.5704767" lon="14.1354817"><ele>323.5</ele><time>2026-05-06T11:14:40.036Z</time></trkpt><trkpt lat="37.5702217" lon="14.1355083"><ele>323.0</ele><time>2026-05-06T11:14:41.035Z</time></trkpt><trkpt lat="37.56997" lon="14.135545"><ele>323.0</ele><time>2026-05-06T11:14:42.036Z</time></trkpt><trkpt lat="37.5697167" lon="14.13559"><ele>323.0</ele><time>2026-05-06T11:14:43.036Z</time></trkpt><trkpt lat="37.5694667" lon="14.1356483"><ele>322.5</ele><time>2026-05-06T11:14:44.036Z</time></trkpt><trkpt lat="37.569215" lon="14.1357117"><ele>322.0</ele><time>2026-05-06T11:14:45.036Z</time></trkpt><trkpt lat="37.5689667" lon="14.1357767"><ele>322.0</ele><time>2026-05-06T11:14:46.036Z</time></trkpt><trkpt lat="37.5687217" lon="14.1358533"><ele>322.0</ele><time>2026-05-06T11:14:47.036Z</time></trkpt><trkpt lat="37.5684717" lon="14.1359283"><ele>321.5</ele><time>2026-05-06T11:14:48.036Z</time></trkpt><trkpt lat="37.5682217" lon="14.1360067"><ele>321.0</ele><time>2026-05-06T11:14:49.036Z</time></trkpt><trkpt lat="37.5679717" lon="14.1360883"><ele>321.5</ele><time>2026-05-06T11:14:50.036Z</time></trkpt><trkpt lat="37.56773" lon="14.1361733"><ele>322.0</ele><time>2026-05-06T11:14:51.036Z</time></trkpt><trkpt lat="37.5674817" lon="14.1362583"><ele>322.0</ele><time>2026-05-06T11:14:52.036Z</time></trkpt><trkpt lat="37.5672383" lon="14.1363383"><ele>322.0</ele><time>2026-05-06T11:14:53.036Z</time></trkpt><trkpt lat="37.5669933" lon="14.1364167"><ele>321.5</ele><time>2026-05-06T11:14:54.036Z</time></trkpt><trkpt lat="37.5667467" lon="14.1365"><ele>321.0</ele><time>2026-05-06T11:14:55.036Z</time></trkpt><trkpt lat="37.5665" lon="14.1365833"><ele>321.0</ele><time>2026-05-06T11:14:56.036Z</time></trkpt><trkpt lat="37.5662567" lon="14.1366717"><ele>321.0</ele><time>2026-05-06T11:14:57.036Z</time></trkpt><trkpt lat="37.56601" lon="14.13676"><ele>320.0</ele><time>2026-05-06T11:14:58.036Z</time></trkpt><trkpt lat="37.5657667" lon="14.136845"><ele>319.0</ele><time>2026-05-06T11:14:59.036Z</time></trkpt><trkpt lat="37.565525" lon="14.1369317"><ele>319.0</ele><time>2026-05-06T11:15:00.036Z</time></trkpt><trkpt lat="37.56528" lon="14.1370133"><ele>319.0</ele><time>2026-05-06T11:15:01.036Z</time></trkpt><trkpt lat="37.5650333" lon="14.1371"><ele>319.0</ele><time>2026-05-06T11:15:02.036Z</time></trkpt><trkpt lat="37.5647817" lon="14.1371817"><ele>319.0</ele><time>2026-05-06T11:15:03.036Z</time></trkpt><trkpt lat="37.5645367" lon="14.1372667"><ele>319.0</ele><time>2026-05-06T11:15:04.036Z</time></trkpt><trkpt lat="37.5642883" lon="14.13735"><ele>319.0</ele><time>2026-05-06T11:15:05.036Z</time></trkpt><trkpt lat="37.5640417" lon="14.1374317"><ele>319.0</ele><time>2026-05-06T11:15:06.036Z</time></trkpt><trkpt lat="37.5637983" lon="14.13752"><ele>319.0</ele><time>2026-05-06T11:15:07.036Z</time></trkpt><trkpt lat="37.563555" lon="14.137605"><ele>319.0</ele><time>2026-05-06T11:15:08.036Z</time></trkpt><trkpt lat="37.5633033" lon="14.1376883"><ele>319.0</ele><time>2026-05-06T11:15:09.036Z</time></trkpt><trkpt lat="37.5630583" lon="14.1377733"><ele>318.0</ele><time>2026-05-06T11:15:10.036Z</time></trkpt><trkpt lat="37.5628133" lon="14.13786"><ele>317.0</ele><time>2026-05-06T11:15:11.036Z</time></trkpt><trkpt lat="37.562565" lon="14.137945"><ele>317.0</ele><time>2026-05-06T11:15:12.036Z</time></trkpt><trkpt lat="37.56232" lon="14.138035"><ele>317.0</ele><time>2026-05-06T11:15:13.036Z</time></trkpt><trkpt lat="37.562065" lon="14.13812"><ele>317.0</ele><time>2026-05-06T11:15:14.036Z</time></trkpt><trkpt lat="37.5618233" lon="14.138205"><ele>317.0</ele><time>2026-05-06T11:15:15.036Z</time></trkpt><trkpt lat="37.5615817" lon="14.1382867"><ele>316.5</ele><time>2026-05-06T11:15:16.036Z</time></trkpt><trkpt lat="37.561335" lon="14.138365"><ele>316.0</ele><time>2026-05-06T11:15:17.036Z</time></trkpt><trkpt lat="37.5610933" lon="14.13845"><ele>316.0</ele><time>2026-05-06T11:15:18.036Z</time></trkpt><trkpt lat="37.5608467" lon="14.1385367"><ele>316.0</ele><time>2026-05-06T11:15:19.035Z</time></trkpt><trkpt lat="37.5606" lon="14.1386217"><ele>316.0</ele><time>2026-05-06T11:15:20.036Z</time></trkpt><trkpt lat="37.560355" lon="14.138705"><ele>316.0</ele><time>2026-05-06T11:15:21.036Z</time></trkpt><trkpt lat="37.5601133" lon="14.1387867"><ele>316.0</ele><time>2026-05-06T11:15:22.036Z</time></trkpt><trkpt lat="37.559865" lon="14.13887"><ele>316.0</ele><time>2026-05-06T11:15:23.036Z</time></trkpt><trkpt lat="37.55962" lon="14.1389583"><ele>315.5</ele><time>2026-05-06T11:15:24.036Z</time></trkpt><trkpt lat="37.5593733" lon="14.1390467"><ele>315.0</ele><time>2026-05-06T11:15:25.036Z</time></trkpt><trkpt lat="37.559125" lon="14.1391283"><ele>315.0</ele><time>2026-05-06T11:15:26.036Z</time></trkpt><trkpt lat="37.5588867" lon="14.139215"><ele>315.0</ele><time>2026-05-06T11:15:27.036Z</time></trkpt><trkpt lat="37.558635" lon="14.1392967"><ele>314.5</ele><time>2026-05-06T11:15:28.035Z</time></trkpt><trkpt lat="37.5583867" lon="14.1393783"><ele>314.0</ele><time>2026-05-06T11:15:29.036Z</time></trkpt><trkpt lat="37.5581433" lon="14.1394617"><ele>314.0</ele><time>2026-05-06T11:15:30.036Z</time></trkpt><trkpt lat="37.557895" lon="14.1395433"><ele>314.0</ele><time>2026-05-06T11:15:31.036Z</time></trkpt><trkpt lat="37.5576483" lon="14.13963"><ele>313.5</ele><time>2026-05-06T11:15:32.035Z</time></trkpt><trkpt lat="37.557405" lon="14.1397217"><ele>313.0</ele><time>2026-05-06T11:15:33.036Z</time></trkpt><trkpt lat="37.557155" lon="14.1398067"><ele>312.0</ele><time>2026-05-06T11:15:34.036Z</time></trkpt><trkpt lat="37.55691" lon="14.13989"><ele>311.0</ele><time>2026-05-06T11:15:35.036Z</time></trkpt><trkpt lat="37.5566633" lon="14.1399683"><ele>311.0</ele><time>2026-05-06T11:15:36.036Z</time></trkpt><trkpt lat="37.556415" lon="14.140055"><ele>311.0</ele><time>2026-05-06T11:15:37.036Z</time></trkpt><trkpt lat="37.5561683" lon="14.1401383"><ele>311.5</ele><time>2026-05-06T11:15:38.036Z</time></trkpt><trkpt lat="37.5559233" lon="14.14022"><ele>312.0</ele><time>2026-05-06T11:15:39.036Z</time></trkpt><trkpt lat="37.55568" lon="14.1403033"><ele>312.0</ele><time>2026-05-06T11:15:40.036Z</time></trkpt><trkpt lat="37.5554367" lon="14.14039"><ele>312.0</ele><time>2026-05-06T11:15:41.036Z</time></trkpt><trkpt lat="37.5551883" lon="14.140475"><ele>311.5</ele><time>2026-05-06T11:15:42.036Z</time></trkpt><trkpt lat="37.55494" lon="14.1405583"><ele>311.0</ele><time>2026-05-06T11:15:43.036Z</time></trkpt><trkpt lat="37.554695" lon="14.14064"><ele>312.5</ele><time>2026-05-06T11:15:44.036Z</time></trkpt><trkpt lat="37.5544467" lon="14.14073"><ele>314.0</ele><time>2026-05-06T11:15:45.036Z</time></trkpt><trkpt lat="37.5542" lon="14.1408183"><ele>314.0</ele><time>2026-05-06T11:15:46.036Z</time></trkpt><trkpt lat="37.5539583" lon="14.1408983"><ele>314.0</ele><time>2026-05-06T11:15:47.035Z</time></trkpt><trkpt lat="37.5537133" lon="14.1409833"><ele>312.5</ele><time>2026-05-06T11:15:48.036Z</time></trkpt><trkpt lat="37.55347" lon="14.14107"><ele>311.0</ele><time>2026-05-06T11:15:49.036Z</time></trkpt><trkpt lat="37.5532233" lon="14.1411533"><ele>311.0</ele><time>2026-05-06T11:15:50.036Z</time></trkpt><trkpt lat="37.5529817" lon="14.14124"><ele>311.0</ele><time>2026-05-06T11:15:51.036Z</time></trkpt><trkpt lat="37.5527333" lon="14.141325"><ele>310.5</ele><time>2026-05-06T11:15:52.036Z</time></trkpt><trkpt lat="37.552495" lon="14.1414067"><ele>310.0</ele><time>2026-05-06T11:15:53.036Z</time></trkpt><trkpt lat="37.5522533" lon="14.141495"><ele>312.5</ele><time>2026-05-06T11:15:54.036Z</time></trkpt><trkpt lat="37.552" lon="14.14158"><ele>315.0</ele><time>2026-05-06T11:15:55.036Z</time></trkpt><trkpt lat="37.5517517" lon="14.14167"><ele>315.0</ele><time>2026-05-06T11:15:56.035Z</time></trkpt><trkpt lat="37.5515033" lon="14.1417567"><ele>315.0</ele><time>2026-05-06T11:15:57.036Z</time></trkpt><trkpt lat="37.55126" lon="14.141835"><ele>318.5</ele><time>2026-05-06T11:15:58.036Z</time></trkpt><trkpt lat="37.5510167" lon="14.1419183"><ele>322.0</ele><time>2026-05-06T11:15:59.036Z</time></trkpt><trkpt lat="37.5507817" lon="14.1420017"><ele>322.0</ele><time>2026-05-06T11:16:00.035Z</time></trkpt><trkpt lat="37.5505367" lon="14.1420867"><ele>322.0</ele><time>2026-05-06T11:16:01.036Z</time></trkpt><trkpt lat="37.550285" lon="14.1421767"><ele>323.0</ele><time>2026-05-06T11:16:02.036Z</time></trkpt><trkpt lat="37.55004" lon="14.1422683"><ele>324.0</ele><time>2026-05-06T11:16:03.036Z</time></trkpt><trkpt lat="37.5497983" lon="14.14236"><ele>330.0</ele><time>2026-05-06T11:16:04.036Z</time></trkpt><trkpt lat="37.5495533" lon="14.1424517"><ele>336.0</ele><time>2026-05-06T11:16:05.036Z</time></trkpt><trkpt lat="37.5493083" lon="14.1425417"><ele>337.5</ele><time>2026-05-06T11:16:06.036Z</time></trkpt><trkpt lat="37.549065" lon="14.14263"><ele>339.0</ele><time>2026-05-06T11:16:07.036Z</time></trkpt><trkpt lat="37.548825" lon="14.1427183"><ele>338.0</ele><time>2026-05-06T11:16:08.036Z</time></trkpt><trkpt lat="37.548585" lon="14.1428083"><ele>337.0</ele><time>2026-05-06T11:16:09.036Z</time></trkpt><trkpt lat="37.5483433" lon="14.142905"><ele>337.0</ele><time>2026-05-06T11:16:10.036Z</time></trkpt><trkpt lat="37.5481117" lon="14.1430033"><ele>337.0</ele><time>2026-05-06T11:16:11.036Z</time></trkpt><trkpt lat="37.547895" lon="14.1431"><ele>337.66666666666663</ele><time>2026-05-06T11:16:12.036Z</time></trkpt><trkpt lat="37.5476883" lon="14.1431983"><ele>338.3333333333333</ele><time>2026-05-06T11:16:13.036Z</time></trkpt><trkpt lat="37.5474933" lon="14.1432933"><ele>339.0</ele><time>2026-05-06T11:16:14.035Z</time></trkpt><trkpt lat="37.5473133" lon="14.1433867"><ele>341.3333333333333</ele><time>2026-05-06T11:16:15.036Z</time></trkpt><trkpt lat="37.5471483" lon="14.1434783"><ele>343.66666666666663</ele><time>2026-05-06T11:16:16.036Z</time></trkpt><trkpt lat="37.54699" lon="14.14357"><ele>346.0</ele><time>2026-05-06T11:16:17.036Z</time></trkpt><trkpt lat="37.546835" lon="14.1436567"><ele>346.3333333333333</ele><time>2026-05-06T11:16:18.036Z</time></trkpt><trkpt lat="37.54668" lon="14.1437517"><ele>346.6666666666667</ele><time>2026-05-06T11:16:19.036Z</time></trkpt><trkpt lat="37.54653" lon="14.1438517"><ele>347.0</ele><time>2026-05-06T11:16:20.036Z</time></trkpt><trkpt lat="37.54639" lon="14.14395"><ele>347.0</ele><time>2026-05-06T11:16:21.036Z</time></trkpt><trkpt lat="37.5462583" lon="14.144045"><ele>347.0</ele><time>2026-05-06T11:16:22.036Z</time></trkpt><trkpt lat="37.5461333" lon="14.144135"><ele>347.0</ele><time>2026-05-06T11:16:23.036Z</time></trkpt><trkpt lat="37.5460167" lon="14.144225"><ele>347.0</ele><time>2026-05-06T11:16:24.036Z</time></trkpt><trkpt lat="37.5459167" lon="14.1443183"><ele>347.75</ele><time>2026-05-06T11:16:25.036Z</time></trkpt><trkpt lat="37.5458367" lon="14.1444167"><ele>348.5</ele><time>2026-05-06T11:16:26.036Z</time></trkpt><trkpt lat="37.5457733" lon="14.1445417"><ele>349.25</ele><time>2026-05-06T11:16:27.036Z</time></trkpt><trkpt lat="37.5457183" lon="14.144665"><ele>350.0</ele><time>2026-05-06T11:16:28.036Z</time></trkpt><trkpt lat="37.5456517" lon="14.1447833"><ele>349.5</ele><time>2026-05-06T11:16:29.035Z</time></trkpt><trkpt lat="37.5455783" lon="14.1448933"><ele>349.0</ele><time>2026-05-06T11:16:30.036Z</time></trkpt><trkpt lat="37.54549" lon="14.1450033"><ele>348.5</ele><time>2026-05-06T11:16:31.036Z</time></trkpt><trkpt lat="37.545385" lon="14.1451117"><ele>348.0</ele><time>2026-05-06T11:16:32.036Z</time></trkpt><trkpt lat="37.545275" lon="14.145225"><ele>348.0</ele><time>2026-05-06T11:16:33.036Z</time></trkpt><trkpt lat="37.5451633" lon="14.1453433"><ele>348.0</ele><time>2026-05-06T11:16:34.036Z</time></trkpt><trkpt lat="37.5450517" lon="14.1454667"><ele>348.0</ele><time>2026-05-06T11:16:35.036Z</time></trkpt><trkpt lat="37.5449367" lon="14.1455917"><ele>348.0</ele><time>2026-05-06T11:16:36.036Z</time></trkpt><trkpt lat="37.5448233" lon="14.1457233"><ele>348.6666666666667</ele><time>2026-05-06T11:16:37.036Z</time></trkpt><trkpt lat="37.5447083" lon="14.1458633"><ele>349.33333333333337</ele><time>2026-05-06T11:16:38.036Z</time></trkpt><trkpt lat="37.5445967" lon="14.14601"><ele>350.0</ele><time>2026-05-06T11:16:39.036Z</time></trkpt><trkpt lat="37.5444867" lon="14.1461517"><ele>350.0</ele><time>2026-05-06T11:16:40.036Z</time></trkpt><trkpt lat="37.54438" lon="14.1463017"><ele>350.0</ele><time>2026-05-06T11:16:41.036Z</time></trkpt><trkpt lat="37.5442733" lon="14.1464517"><ele>350.0</ele><time>2026-05-06T11:16:42.036Z</time></trkpt><trkpt lat="37.544165" lon="14.14661"><ele>352.0</ele><time>2026-05-06T11:16:43.036Z</time></trkpt><trkpt lat="37.544055" lon="14.14677"><ele>354.0</ele><time>2026-05-06T11:16:44.036Z</time></trkpt><trkpt lat="37.54395" lon="14.1469333"><ele>356.0</ele><time>2026-05-06T11:16:45.036Z</time></trkpt><trkpt lat="37.54385" lon="14.147105"><ele>356.0</ele><time>2026-05-06T11:16:46.036Z</time></trkpt><trkpt lat="37.5437517" lon="14.1472717"><ele>356.0</ele><time>2026-05-06T11:16:47.036Z</time></trkpt><trkpt lat="37.54365" lon="14.1474367"><ele>356.0</ele><time>2026-05-06T11:16:48.035Z</time></trkpt><trkpt lat="37.54354" lon="14.1475967"><ele>369.0</ele><time>2026-05-06T11:16:49.036Z</time></trkpt><trkpt lat="37.54344" lon="14.1477767"><ele>382.0</ele><time>2026-05-06T11:16:50.036Z</time></trkpt><trkpt lat="37.5398" lon="14.1646133"><ele>378.0</ele><time>2026-05-06T11:17:57.038Z</time></trkpt><trkpt lat="37.5398183" lon="14.1649167"><ele>374.0</ele><time>2026-05-06T11:17:58.038Z</time></trkpt><trkpt lat="37.5398583" lon="14.1651867"><ele>374.0</ele><time>2026-05-06T11:17:59.038Z</time></trkpt><trkpt lat="37.5399033" lon="14.1654517"><ele>374.0</ele><time>2026-05-06T11:18:00.038Z</time></trkpt><trkpt lat="37.5399517" lon="14.1657117"><ele>374.0</ele><time>2026-05-06T11:18:01.038Z</time></trkpt><trkpt lat="37.54001" lon="14.165965"><ele>372.33333333333337</ele><time>2026-05-06T11:18:02.038Z</time></trkpt><trkpt lat="37.5400717" lon="14.16622"><ele>370.6666666666667</ele><time>2026-05-06T11:18:03.038Z</time></trkpt><trkpt lat="37.5401383" lon="14.1664717"><ele>369.0</ele><time>2026-05-06T11:18:04.038Z</time></trkpt><trkpt lat="37.5402083" lon="14.1667317"><ele>368.6666666666667</ele><time>2026-05-06T11:18:05.038Z</time></trkpt><trkpt lat="37.5402867" lon="14.16699"><ele>368.33333333333337</ele><time>2026-05-06T11:18:06.038Z</time></trkpt><trkpt lat="37.5403633" lon="14.167245"><ele>368.0</ele><time>2026-05-06T11:18:07.038Z</time></trkpt><trkpt lat="37.5404467" lon="14.1675017"><ele>366.0</ele><time>2026-05-06T11:18:08.038Z</time></trkpt><trkpt lat="37.5405433" lon="14.1677583"><ele>364.0</ele><time>2026-05-06T11:18:09.038Z</time></trkpt><trkpt lat="37.5406367" lon="14.1680083"><ele>362.0</ele><time>2026-05-06T11:18:10.038Z</time></trkpt><trkpt lat="37.5407367" lon="14.1682583"><ele>362.0</ele><time>2026-05-06T11:18:11.038Z</time></trkpt><trkpt lat="37.5408433" lon="14.168505"><ele>362.0</ele><time>2026-05-06T11:18:12.038Z</time></trkpt><trkpt lat="37.54095" lon="14.1687433"><ele>362.0</ele><time>2026-05-06T11:18:13.038Z</time></trkpt><trkpt lat="37.5410617" lon="14.1689867"><ele>363.33333333333337</ele><time>2026-05-06T11:18:14.038Z</time></trkpt><trkpt lat="37.5411767" lon="14.169225"><ele>364.6666666666667</ele><time>2026-05-06T11:18:15.038Z</time></trkpt><trkpt lat="37.5412967" lon="14.1694533"><ele>366.0</ele><time>2026-05-06T11:18:16.038Z</time></trkpt><trkpt lat="37.5414183" lon="14.169685"><ele>364.0</ele><time>2026-05-06T11:18:17.038Z</time></trkpt><trkpt lat="37.541545" lon="14.16991"><ele>362.0</ele><time>2026-05-06T11:18:18.038Z</time></trkpt><trkpt lat="37.541675" lon="14.1701383"><ele>360.0</ele><time>2026-05-06T11:18:19.038Z</time></trkpt><trkpt lat="37.5418083" lon="14.1703683"><ele>360.0</ele><time>2026-05-06T11:18:20.038Z</time></trkpt><trkpt lat="37.541945" lon="14.1705883"><ele>360.0</ele><time>2026-05-06T11:18:21.038Z</time></trkpt><trkpt lat="37.5420817" lon="14.170805"><ele>360.0</ele><time>2026-05-06T11:18:22.038Z</time></trkpt><trkpt lat="37.5422133" lon="14.1710233"><ele>358.0</ele><time>2026-05-06T11:18:23.038Z</time></trkpt><trkpt lat="37.54236" lon="14.1712417"><ele>356.0</ele><time>2026-05-06T11:18:24.038Z</time></trkpt><trkpt lat="37.5425" lon="14.1714583"><ele>354.0</ele><time>2026-05-06T11:18:25.038Z</time></trkpt><trkpt lat="37.542635" lon="14.1716783"><ele>354.0</ele><time>2026-05-06T11:18:26.038Z</time></trkpt><trkpt lat="37.54277" lon="14.1718933"><ele>354.0</ele><time>2026-05-06T11:18:27.038Z</time></trkpt><trkpt lat="37.542905" lon="14.172105"><ele>354.0</ele><time>2026-05-06T11:18:28.038Z</time></trkpt><trkpt lat="37.5430383" lon="14.1723183"><ele>352.3333333333333</ele><time>2026-05-06T11:18:29.038Z</time></trkpt><trkpt lat="37.5431733" lon="14.1725367"><ele>350.66666666666663</ele><time>2026-05-06T11:18:30.038Z</time></trkpt><trkpt lat="37.54331" lon="14.1727467"><ele>349.0</ele><time>2026-05-06T11:18:31.038Z</time></trkpt><trkpt lat="37.5434417" lon="14.1729667"><ele>349.0</ele><time>2026-05-06T11:18:32.038Z</time></trkpt><trkpt lat="37.5435783" lon="14.17318"><ele>349.0</ele><time>2026-05-06T11:18:33.038Z</time></trkpt><trkpt lat="37.543715" lon="14.173395"><ele>349.0</ele><time>2026-05-06T11:18:34.038Z</time></trkpt><trkpt lat="37.5438483" lon="14.1736133"><ele>348.66666666666663</ele><time>2026-05-06T11:18:35.037Z</time></trkpt><trkpt lat="37.5439883" lon="14.173835"><ele>348.3333333333333</ele><time>2026-05-06T11:18:36.038Z</time></trkpt><trkpt lat="37.5441233" lon="14.1740567"><ele>348.0</ele><time>2026-05-06T11:18:37.038Z</time></trkpt><trkpt lat="37.54426" lon="14.174275"><ele>348.0</ele><time>2026-05-06T11:18:38.038Z</time></trkpt><trkpt lat="37.5444" lon="14.1744967"><ele>348.0</ele><time>2026-05-06T11:18:39.038Z</time></trkpt><trkpt lat="37.5445383" lon="14.1747183"><ele>348.0</ele><time>2026-05-06T11:18:40.038Z</time></trkpt><trkpt lat="37.5446733" lon="14.1749367"><ele>346.0</ele><time>2026-05-06T11:18:41.038Z</time></trkpt><trkpt lat="37.5448" lon="14.1751483"><ele>344.0</ele><time>2026-05-06T11:18:42.038Z</time></trkpt><trkpt lat="37.5449433" lon="14.1753683"><ele>342.0</ele><time>2026-05-06T11:18:43.038Z</time></trkpt><trkpt lat="37.5450783" lon="14.17559"><ele>341.3333333333333</ele><time>2026-05-06T11:18:44.038Z</time></trkpt><trkpt lat="37.5452133" lon="14.1758117"><ele>340.66666666666663</ele><time>2026-05-06T11:18:45.038Z</time></trkpt><trkpt lat="37.5453517" lon="14.1760383"><ele>340.0</ele><time>2026-05-06T11:18:46.038Z</time></trkpt><trkpt lat="37.5454883" lon="14.1762683"><ele>340.0</ele><time>2026-05-06T11:18:47.038Z</time></trkpt><trkpt lat="37.545625" lon="14.1764867"><ele>340.0</ele><time>2026-05-06T11:18:48.038Z</time></trkpt><trkpt lat="37.54577" lon="14.1767167"><ele>339.0</ele><time>2026-05-06T11:18:49.038Z</time></trkpt><trkpt lat="37.5459117" lon="14.1769383"><ele>338.0</ele><time>2026-05-06T11:18:50.038Z</time></trkpt><trkpt lat="37.5460517" lon="14.17717"><ele>336.0</ele><time>2026-05-06T11:18:51.038Z</time></trkpt><trkpt lat="37.5461917" lon="14.177395"><ele>334.0</ele><time>2026-05-06T11:18:52.038Z</time></trkpt><trkpt lat="37.546335" lon="14.1776217"><ele>333.0</ele><time>2026-05-06T11:18:53.038Z</time></trkpt><trkpt lat="37.546475" lon="14.1778417"><ele>332.0</ele><time>2026-05-06T11:18:54.037Z</time></trkpt><trkpt lat="37.546625" lon="14.1780633"><ele>333.0</ele><time>2026-05-06T11:18:55.038Z</time></trkpt><trkpt lat="37.5467717" lon="14.1782967"><ele>334.0</ele><time>2026-05-06T11:18:56.038Z</time></trkpt><trkpt lat="37.54692" lon="14.1785233"><ele>331.5</ele><time>2026-05-06T11:18:57.038Z</time></trkpt><trkpt lat="37.5470717" lon="14.178745"><ele>329.0</ele><time>2026-05-06T11:18:58.038Z</time></trkpt><trkpt lat="37.5472233" lon="14.1789717"><ele>330.5</ele><time>2026-05-06T11:18:59.038Z</time></trkpt><trkpt lat="37.547375" lon="14.1791967"><ele>332.0</ele><time>2026-05-06T11:19:00.038Z</time></trkpt><trkpt lat="37.54753" lon="14.1794217"><ele>332.0</ele><time>2026-05-06T11:19:01.038Z</time></trkpt><trkpt lat="37.547685" lon="14.1796467"><ele>332.0</ele><time>2026-05-06T11:19:02.038Z</time></trkpt><trkpt lat="37.547845" lon="14.179875"><ele>333.0</ele><time>2026-05-06T11:19:03.038Z</time></trkpt><trkpt lat="37.548" lon="14.1800933"><ele>334.0</ele><time>2026-05-06T11:19:04.038Z</time></trkpt><trkpt lat="37.5481617" lon="14.1803167"><ele>334.0</ele><time>2026-05-06T11:19:05.038Z</time></trkpt><trkpt lat="37.54832" lon="14.1805283"><ele>334.0</ele><time>2026-05-06T11:19:06.038Z</time></trkpt><trkpt lat="37.54848" lon="14.1807433"><ele>335.0</ele><time>2026-05-06T11:19:07.038Z</time></trkpt><trkpt lat="37.5486467" lon="14.1809583"><ele>336.0</ele><time>2026-05-06T11:19:08.038Z</time></trkpt><trkpt lat="37.5488167" lon="14.1811733"><ele>338.0</ele><time>2026-05-06T11:19:09.037Z</time></trkpt><trkpt lat="37.54898" lon="14.181385"><ele>340.0</ele><time>2026-05-06T11:19:10.037Z</time></trkpt><trkpt lat="37.5491517" lon="14.1816033"><ele>340.0</ele><time>2026-05-06T11:19:11.037Z</time></trkpt><trkpt lat="37.5493233" lon="14.18182"><ele>340.0</ele><time>2026-05-06T11:19:12.037Z</time></trkpt><trkpt lat="37.5494933" lon="14.1820283"><ele>340.0</ele><time>2026-05-06T11:19:13.037Z</time></trkpt><trkpt lat="37.5496667" lon="14.1822367"><ele>340.0</ele><time>2026-05-06T11:19:14.037Z</time></trkpt><trkpt lat="37.549835" lon="14.18244"><ele>338.5</ele><time>2026-05-06T11:19:15.037Z</time></trkpt><trkpt lat="37.5500083" lon="14.1826483"><ele>337.0</ele><time>2026-05-06T11:19:16.037Z</time></trkpt><trkpt lat="37.550185" lon="14.182855"><ele>337.0</ele><time>2026-05-06T11:19:17.037Z</time></trkpt><trkpt lat="37.55036" lon="14.1830583"><ele>337.0</ele><time>2026-05-06T11:19:18.037Z</time></trkpt><trkpt lat="37.55054" lon="14.1832567"><ele>336.5</ele><time>2026-05-06T11:19:19.037Z</time></trkpt><trkpt lat="37.5507183" lon="14.1834567"><ele>336.0</ele><time>2026-05-06T11:19:20.037Z</time></trkpt><trkpt lat="37.5508983" lon="14.1836583"><ele>336.0</ele><time>2026-05-06T11:19:21.037Z</time></trkpt><trkpt lat="37.5510767" lon="14.183855"><ele>336.0</ele><time>2026-05-06T11:19:22.037Z</time></trkpt><trkpt lat="37.5512617" lon="14.1840533"><ele>335.5</ele><time>2026-05-06T11:19:23.037Z</time></trkpt><trkpt lat="37.5514433" lon="14.184245"><ele>335.0</ele><time>2026-05-06T11:19:24.037Z</time></trkpt><trkpt lat="37.551625" lon="14.184435"><ele>335.0</ele><time>2026-05-06T11:19:25.037Z</time></trkpt><trkpt lat="37.55181" lon="14.1846267"><ele>335.0</ele><time>2026-05-06T11:19:26.037Z</time></trkpt><trkpt lat="37.552" lon="14.184815"><ele>336.5</ele><time>2026-05-06T11:19:27.037Z</time></trkpt><trkpt lat="37.5521833" lon="14.1850033"><ele>338.0</ele><time>2026-05-06T11:19:28.037Z</time></trkpt><trkpt lat="37.5523633" lon="14.1851933"><ele>338.0</ele><time>2026-05-06T11:19:29.037Z</time></trkpt><trkpt lat="37.5525433" lon="14.1853733"><ele>338.0</ele><time>2026-05-06T11:19:30.037Z</time></trkpt><trkpt lat="37.552725" lon="14.1855517"><ele>337.5</ele><time>2026-05-06T11:19:31.037Z</time></trkpt><trkpt lat="37.5529167" lon="14.1857217"><ele>337.0</ele><time>2026-05-06T11:19:32.037Z</time></trkpt><trkpt lat="37.5531017" lon="14.1858967"><ele>337.0</ele><time>2026-05-06T11:19:33.037Z</time></trkpt><trkpt lat="37.5532867" lon="14.1860633"><ele>337.0</ele><time>2026-05-06T11:19:34.037Z</time></trkpt><trkpt lat="37.5534733" lon="14.1862317"><ele>337.0</ele><time>2026-05-06T11:19:35.037Z</time></trkpt><trkpt lat="37.553655" lon="14.1864"><ele>337.0</ele><time>2026-05-06T11:19:36.036Z</time></trkpt><trkpt lat="37.553845" lon="14.1865717"><ele>338.0</ele><time>2026-05-06T11:19:37.037Z</time></trkpt><trkpt lat="37.5540317" lon="14.1867367"><ele>339.0</ele><time>2026-05-06T11:19:38.037Z</time></trkpt><trkpt lat="37.5542167" lon="14.186905"><ele>339.0</ele><time>2026-05-06T11:19:39.037Z</time></trkpt><trkpt lat="37.554405" lon="14.1870667"><ele>339.0</ele><time>2026-05-06T11:19:40.037Z</time></trkpt><trkpt lat="37.55459" lon="14.18723"><ele>342.0</ele><time>2026-05-06T11:19:41.037Z</time></trkpt><trkpt lat="37.5547767" lon="14.1873983"><ele>345.0</ele><time>2026-05-06T11:19:42.036Z</time></trkpt><trkpt lat="37.554965" lon="14.1875583"><ele>345.0</ele><time>2026-05-06T11:19:43.037Z</time></trkpt><trkpt lat="37.55515" lon="14.1877183"><ele>345.0</ele><time>2026-05-06T11:19:44.037Z</time></trkpt><trkpt lat="37.555335" lon="14.1878817"><ele>345.5</ele><time>2026-05-06T11:19:45.037Z</time></trkpt><trkpt lat="37.55552" lon="14.1880483"><ele>346.0</ele><time>2026-05-06T11:19:46.037Z</time></trkpt><trkpt lat="37.555705" lon="14.1882167"><ele>346.5</ele><time>2026-05-06T11:19:47.037Z</time></trkpt><trkpt lat="37.555895" lon="14.1883833"><ele>347.0</ele><time>2026-05-06T11:19:48.037Z</time></trkpt><trkpt lat="37.55608" lon="14.1885417"><ele>347.0</ele><time>2026-05-06T11:19:49.037Z</time></trkpt><trkpt lat="37.5562683" lon="14.18871"><ele>347.0</ele><time>2026-05-06T11:19:50.036Z</time></trkpt><trkpt lat="37.5564567" lon="14.1888767"><ele>346.6666666666667</ele><time>2026-05-06T11:19:51.037Z</time></trkpt><trkpt lat="37.5566417" lon="14.18904"><ele>346.3333333333333</ele><time>2026-05-06T11:19:52.037Z</time></trkpt><trkpt lat="37.556825" lon="14.1892017"><ele>346.0</ele><time>2026-05-06T11:19:53.037Z</time></trkpt><trkpt lat="37.5570133" lon="14.18937"><ele>345.0</ele><time>2026-05-06T11:19:54.037Z</time></trkpt><trkpt lat="37.5572033" lon="14.1895367"><ele>344.0</ele><time>2026-05-06T11:19:55.037Z</time></trkpt><trkpt lat="37.5573833" lon="14.189705"><ele>344.5</ele><time>2026-05-06T11:19:56.037Z</time></trkpt><trkpt lat="37.5575733" lon="14.18987"><ele>345.0</ele><time>2026-05-06T11:19:57.037Z</time></trkpt><trkpt lat="37.5577583" lon="14.1900383"><ele>345.5</ele><time>2026-05-06T11:19:58.037Z</time></trkpt><trkpt lat="37.5579417" lon="14.190205"><ele>346.0</ele><time>2026-05-06T11:19:59.037Z</time></trkpt><trkpt lat="37.5581267" lon="14.1903817"><ele>346.0</ele><time>2026-05-06T11:20:00.037Z</time></trkpt><trkpt lat="37.558305" lon="14.1905517"><ele>346.0</ele><time>2026-05-06T11:20:01.037Z</time></trkpt><trkpt lat="37.558485" lon="14.1907367"><ele>346.5</ele><time>2026-05-06T11:20:02.037Z</time></trkpt><trkpt lat="37.5586683" lon="14.1909183"><ele>347.0</ele><time>2026-05-06T11:20:03.037Z</time></trkpt><trkpt lat="37.5588417" lon="14.1911033"><ele>347.5</ele><time>2026-05-06T11:20:04.036Z</time></trkpt><trkpt lat="37.559015" lon="14.1912967"><ele>348.0</ele><time>2026-05-06T11:20:05.037Z</time></trkpt><trkpt lat="37.5591767" lon="14.1914833"><ele>349.0</ele><time>2026-05-06T11:20:06.037Z</time></trkpt><trkpt lat="37.5593367" lon="14.191685"><ele>350.0</ele><time>2026-05-06T11:20:07.037Z</time></trkpt><trkpt lat="37.5594917" lon="14.1918917"><ele>349.6666666666667</ele><time>2026-05-06T11:20:08.037Z</time></trkpt><trkpt lat="37.5596417" lon="14.1920983"><ele>349.3333333333333</ele><time>2026-05-06T11:20:09.037Z</time></trkpt><trkpt lat="37.5597883" lon="14.1923133"><ele>349.0</ele><time>2026-05-06T11:20:10.037Z</time></trkpt><trkpt lat="37.5599283" lon="14.1925267"><ele>348.66666666666663</ele><time>2026-05-06T11:20:11.037Z</time></trkpt><trkpt lat="37.560075" lon="14.192745"><ele>348.3333333333333</ele><time>2026-05-06T11:20:12.037Z</time></trkpt><trkpt lat="37.5602133" lon="14.1929633"><ele>348.0</ele><time>2026-05-06T11:20:13.037Z</time></trkpt><trkpt lat="37.560345" lon="14.193195"><ele>347.5</ele><time>2026-05-06T11:20:14.037Z</time></trkpt><trkpt lat="37.5604767" lon="14.1934317"><ele>347.0</ele><time>2026-05-06T11:20:15.037Z</time></trkpt><trkpt lat="37.5606" lon="14.1936633"><ele>347.0</ele><time>2026-05-06T11:20:16.037Z</time></trkpt><trkpt lat="37.5607233" lon="14.1939083"><ele>347.0</ele><time>2026-05-06T11:20:17.036Z</time></trkpt><trkpt lat="37.56084" lon="14.1941567"><ele>346.5</ele><time>2026-05-06T11:20:18.037Z</time></trkpt><trkpt lat="37.5609533" lon="14.1944067"><ele>346.0</ele><time>2026-05-06T11:20:19.037Z</time></trkpt><trkpt lat="37.56106" lon="14.1946617"><ele>346.5</ele><time>2026-05-06T11:20:20.037Z</time></trkpt><trkpt lat="37.5611583" lon="14.1949183"><ele>347.0</ele><time>2026-05-06T11:20:21.037Z</time></trkpt><trkpt lat="37.5612567" lon="14.19518"><ele>347.0</ele><time>2026-05-06T11:20:22.037Z</time></trkpt><trkpt lat="37.5613467" lon="14.19544"><ele>347.0</ele><time>2026-05-06T11:20:23.037Z</time></trkpt><trkpt lat="37.561435" lon="14.1957033"><ele>347.5</ele><time>2026-05-06T11:20:24.037Z</time></trkpt><trkpt lat="37.56152" lon="14.1959667"><ele>348.0</ele><time>2026-05-06T11:20:25.037Z</time></trkpt><trkpt lat="37.5616017" lon="14.1962333"><ele>348.0</ele><time>2026-05-06T11:20:26.037Z</time></trkpt><trkpt lat="37.56168" lon="14.1965033"><ele>348.0</ele><time>2026-05-06T11:20:27.037Z</time></trkpt><trkpt lat="37.5617483" lon="14.1967733"><ele>348.0</ele><time>2026-05-06T11:20:28.037Z</time></trkpt><trkpt lat="37.5618117" lon="14.197045"><ele>348.0</ele><time>2026-05-06T11:20:29.037Z</time></trkpt><trkpt lat="37.561865" lon="14.1973183"><ele>348.0</ele><time>2026-05-06T11:20:30.037Z</time></trkpt><trkpt lat="37.5619183" lon="14.19759"><ele>348.3333333333333</ele><time>2026-05-06T11:20:31.037Z</time></trkpt><trkpt lat="37.561965" lon="14.19786"><ele>348.66666666666663</ele><time>2026-05-06T11:20:32.037Z</time></trkpt><trkpt lat="37.5620117" lon="14.1981367"><ele>349.0</ele><time>2026-05-06T11:20:33.037Z</time></trkpt><trkpt lat="37.5620483" lon="14.1984283"><ele>349.0</ele><time>2026-05-06T11:20:34.037Z</time></trkpt><trkpt lat="37.562085" lon="14.1987117"><ele>349.0</ele><time>2026-05-06T11:20:35.037Z</time></trkpt><trkpt lat="37.5621167" lon="14.198995"><ele>350.0</ele><time>2026-05-06T11:20:36.037Z</time></trkpt><trkpt lat="37.5621383" lon="14.19928"><ele>351.0</ele><time>2026-05-06T11:20:37.037Z</time></trkpt><trkpt lat="37.5621567" lon="14.1995617"><ele>351.6666666666667</ele><time>2026-05-06T11:20:38.037Z</time></trkpt><trkpt lat="37.5621683" lon="14.1998367"><ele>352.33333333333337</ele><time>2026-05-06T11:20:39.037Z</time></trkpt><trkpt lat="37.5621733" lon="14.2001183"><ele>353.0</ele><time>2026-05-06T11:20:40.037Z</time></trkpt><trkpt lat="37.5621767" lon="14.2004067"><ele>352.6666666666667</ele><time>2026-05-06T11:20:41.037Z</time></trkpt><trkpt lat="37.56218" lon="14.2006833"><ele>352.3333333333333</ele><time>2026-05-06T11:20:42.037Z</time></trkpt><trkpt lat="37.5621783" lon="14.2009683"><ele>352.0</ele><time>2026-05-06T11:20:43.037Z</time></trkpt><trkpt lat="37.562175" lon="14.2012533"><ele>352.66666666666663</ele><time>2026-05-06T11:20:44.037Z</time></trkpt><trkpt lat="37.562175" lon="14.2015317"><ele>353.3333333333333</ele><time>2026-05-06T11:20:45.037Z</time></trkpt><trkpt lat="37.5621717" lon="14.2018133"><ele>354.0</ele><time>2026-05-06T11:20:46.037Z</time></trkpt><trkpt lat="37.56217" lon="14.2020933"><ele>355.0</ele><time>2026-05-06T11:20:47.037Z</time></trkpt><trkpt lat="37.562165" lon="14.2023717"><ele>356.0</ele><time>2026-05-06T11:20:48.037Z</time></trkpt><trkpt lat="37.562165" lon="14.20265"><ele>357.0</ele><time>2026-05-06T11:20:49.037Z</time></trkpt><trkpt lat="37.5621667" lon="14.2029267"><ele>357.6666666666667</ele><time>2026-05-06T11:20:50.036Z</time></trkpt><trkpt lat="37.5621667" lon="14.20321"><ele>358.33333333333337</ele><time>2026-05-06T11:20:51.037Z</time></trkpt><trkpt lat="37.5621633" lon="14.2034933"><ele>359.0</ele><time>2026-05-06T11:20:52.037Z</time></trkpt><trkpt lat="37.56216" lon="14.2037767"><ele>359.5</ele><time>2026-05-06T11:20:53.037Z</time></trkpt><trkpt lat="37.5621583" lon="14.2040617"><ele>360.0</ele><time>2026-05-06T11:20:54.037Z</time></trkpt><trkpt lat="37.5621567" lon="14.2043483"><ele>360.0</ele><time>2026-05-06T11:20:55.037Z</time></trkpt><trkpt lat="37.5621517" lon="14.2046317"><ele>360.0</ele><time>2026-05-06T11:20:56.037Z</time></trkpt><trkpt lat="37.5621467" lon="14.204915"><ele>360.0</ele><time>2026-05-06T11:20:57.037Z</time></trkpt><trkpt lat="37.56214" lon="14.2051933"><ele>361.0</ele><time>2026-05-06T11:20:58.037Z</time></trkpt><trkpt lat="37.5621383" lon="14.2054817"><ele>362.0</ele><time>2026-05-06T11:20:59.037Z</time></trkpt><trkpt lat="37.56214" lon="14.2057683"><ele>362.33333333333337</ele><time>2026-05-06T11:21:00.037Z</time></trkpt><trkpt lat="37.562135" lon="14.2060483"><ele>362.6666666666667</ele><time>2026-05-06T11:21:01.037Z</time></trkpt><trkpt lat="37.5621317" lon="14.20633"><ele>363.0</ele><time>2026-05-06T11:21:02.037Z</time></trkpt><trkpt lat="37.5621267" lon="14.2066067"><ele>363.3333333333333</ele><time>2026-05-06T11:21:03.037Z</time></trkpt><trkpt lat="37.56213" lon="14.20689"><ele>363.66666666666663</ele><time>2026-05-06T11:21:04.037Z</time></trkpt><trkpt lat="37.56213" lon="14.2071733"><ele>364.0</ele><time>2026-05-06T11:21:05.037Z</time></trkpt><trkpt lat="37.5621333" lon="14.2074567"><ele>365.0</ele><time>2026-05-06T11:21:06.037Z</time></trkpt><trkpt lat="37.5621383" lon="14.20774"><ele>366.0</ele><time>2026-05-06T11:21:07.037Z</time></trkpt><trkpt lat="37.562145" lon="14.2080267"><ele>368.5</ele><time>2026-05-06T11:21:08.037Z</time></trkpt><trkpt lat="37.562155" lon="14.2083133"><ele>371.0</ele><time>2026-05-06T11:21:09.037Z</time></trkpt><trkpt lat="37.562165" lon="14.2085933"><ele>371.0</ele><time>2026-05-06T11:21:10.037Z</time></trkpt><trkpt lat="37.5621783" lon="14.208875"><ele>371.0</ele><time>2026-05-06T11:21:11.037Z</time></trkpt><trkpt lat="37.5622" lon="14.209155"><ele>371.0</ele><time>2026-05-06T11:21:12.037Z</time></trkpt><trkpt lat="37.56222" lon="14.2094333"><ele>370.33333333333337</ele><time>2026-05-06T11:21:13.037Z</time></trkpt><trkpt lat="37.5622417" lon="14.209715"><ele>369.6666666666667</ele><time>2026-05-06T11:21:14.037Z</time></trkpt><trkpt lat="37.5622683" lon="14.2099883"><ele>369.0</ele><time>2026-05-06T11:21:15.037Z</time></trkpt><trkpt lat="37.5622983" lon="14.210265"><ele>370.6666666666667</ele><time>2026-05-06T11:21:16.037Z</time></trkpt><trkpt lat="37.5623267" lon="14.21054"><ele>372.33333333333337</ele><time>2026-05-06T11:21:17.037Z</time></trkpt><trkpt lat="37.5623617" lon="14.2108167"><ele>374.0</ele><time>2026-05-06T11:21:18.037Z</time></trkpt><trkpt lat="37.5624" lon="14.21109"><ele>374.0</ele><time>2026-05-06T11:21:19.037Z</time></trkpt><trkpt lat="37.56244" lon="14.2113617"><ele>374.0</ele><time>2026-05-06T11:21:20.037Z</time></trkpt><trkpt lat="37.562485" lon="14.211635"><ele>374.0</ele><time>2026-05-06T11:21:21.037Z</time></trkpt><trkpt lat="37.5625267" lon="14.2119"><ele>374.0</ele><time>2026-05-06T11:21:22.037Z</time></trkpt><trkpt lat="37.5625717" lon="14.212175"><ele>374.0</ele><time>2026-05-06T11:21:23.037Z</time></trkpt><trkpt lat="37.56262" lon="14.2124467"><ele>374.0</ele><time>2026-05-06T11:21:24.037Z</time></trkpt><trkpt lat="37.5626683" lon="14.21272"><ele>376.0</ele><time>2026-05-06T11:21:25.037Z</time></trkpt><trkpt lat="37.5627217" lon="14.2129883"><ele>378.0</ele><time>2026-05-06T11:21:26.037Z</time></trkpt><trkpt lat="37.5627867" lon="14.2132667"><ele>380.0</ele><time>2026-05-06T11:21:27.037Z</time></trkpt><trkpt lat="37.56285" lon="14.2135383"><ele>386.0</ele><time>2026-05-06T11:21:28.037Z</time></trkpt><trkpt lat="37.5629117" lon="14.2138033"><ele>392.0</ele><time>2026-05-06T11:21:29.037Z</time></trkpt><trkpt lat="37.56298" lon="14.21407"><ele>398.0</ele><time>2026-05-06T11:21:30.037Z</time></trkpt><trkpt lat="37.5630483" lon="14.2143333"><ele>402.0</ele><time>2026-05-06T11:21:31.037Z</time></trkpt><trkpt lat="37.5631217" lon="14.2146083"><ele>406.0</ele><time>2026-05-06T11:21:32.037Z</time></trkpt><trkpt lat="37.56319" lon="14.2148783"><ele>406.5</ele><time>2026-05-06T11:21:33.037Z</time></trkpt><trkpt lat="37.5632667" lon="14.2151467"><ele>407.0</ele><time>2026-05-06T11:21:34.037Z</time></trkpt><trkpt lat="37.563345" lon="14.215415"><ele>406.5</ele><time>2026-05-06T11:21:35.037Z</time></trkpt><trkpt lat="37.5634283" lon="14.2156883"><ele>406.0</ele><time>2026-05-06T11:21:36.037Z</time></trkpt><trkpt lat="37.5635183" lon="14.2159617"><ele>406.0</ele><time>2026-05-06T11:21:37.037Z</time></trkpt><trkpt lat="37.5636083" lon="14.21623"><ele>406.0</ele><time>2026-05-06T11:21:38.037Z</time></trkpt><trkpt lat="37.563705" lon="14.2164967"><ele>413.5</ele><time>2026-05-06T11:21:39.037Z</time></trkpt><trkpt lat="37.563795" lon="14.2167667"><ele>421.0</ele><time>2026-05-06T11:21:40.037Z</time></trkpt><trkpt lat="37.56389" lon="14.2170367"><ele>421.0</ele><time>2026-05-06T11:21:41.037Z</time></trkpt><trkpt lat="37.56399" lon="14.217305"><ele>421.0</ele><time>2026-05-06T11:21:42.037Z</time></trkpt><trkpt lat="37.5640867" lon="14.21757"><ele>421.0</ele><time>2026-05-06T11:21:43.037Z</time></trkpt><trkpt lat="37.5641883" lon="14.21784"><ele>421.0</ele><time>2026-05-06T11:21:44.037Z</time></trkpt><trkpt lat="37.5642833" lon="14.2181083"><ele>420.0</ele><time>2026-05-06T11:21:45.037Z</time></trkpt><trkpt lat="37.5643783" lon="14.218375"><ele>419.0</ele><time>2026-05-06T11:21:46.037Z</time></trkpt><trkpt lat="37.5644717" lon="14.21864"><ele>422.0</ele><time>2026-05-06T11:21:47.037Z</time></trkpt><trkpt lat="37.564565" lon="14.2189083"><ele>425.0</ele><time>2026-05-06T11:21:48.037Z</time></trkpt><trkpt lat="37.5646667" lon="14.2191733"><ele>425.0</ele><time>2026-05-06T11:21:49.037Z</time></trkpt><trkpt lat="37.5647633" lon="14.2194417"><ele>425.0</ele><time>2026-05-06T11:21:50.037Z</time></trkpt><trkpt lat="37.5648617" lon="14.2197083"><ele>423.5</ele><time>2026-05-06T11:21:51.037Z</time></trkpt><trkpt lat="37.564955" lon="14.219975"><ele>422.0</ele><time>2026-05-06T11:21:52.037Z</time></trkpt><trkpt lat="37.5650483" lon="14.22024"><ele>422.0</ele><time>2026-05-06T11:21:53.037Z</time></trkpt><trkpt lat="37.5651433" lon="14.2204967"><ele>422.0</ele><time>2026-05-06T11:21:54.037Z</time></trkpt><trkpt lat="37.5652383" lon="14.2207567"><ele>421.0</ele><time>2026-05-06T11:21:55.036Z</time></trkpt><trkpt lat="37.5653267" lon="14.221015"><ele>420.0</ele><time>2026-05-06T11:21:56.037Z</time></trkpt><trkpt lat="37.56542" lon="14.22128"><ele>419.5</ele><time>2026-05-06T11:21:57.037Z</time></trkpt><trkpt lat="37.565515" lon="14.22154"><ele>419.0</ele><time>2026-05-06T11:21:58.037Z</time></trkpt><trkpt lat="37.56561" lon="14.2218017"><ele>419.0</ele><time>2026-05-06T11:21:59.037Z</time></trkpt><trkpt lat="37.565705" lon="14.2220667"><ele>419.0</ele><time>2026-05-06T11:22:00.037Z</time></trkpt><trkpt lat="37.5658017" lon="14.222325"><ele>419.0</ele><time>2026-05-06T11:22:01.037Z</time></trkpt><trkpt lat="37.5658917" lon="14.22258"><ele>419.0</ele><time>2026-05-06T11:22:02.037Z</time></trkpt><trkpt lat="37.5659917" lon="14.2228417"><ele>419.0</ele><time>2026-05-06T11:22:03.037Z</time></trkpt><trkpt lat="37.5660883" lon="14.2231083"><ele>419.0</ele><time>2026-05-06T11:22:04.037Z</time></trkpt><trkpt lat="37.5661867" lon="14.2233733"><ele>421.0</ele><time>2026-05-06T11:22:05.037Z</time></trkpt><trkpt lat="37.566285" lon="14.22364"><ele>423.0</ele><time>2026-05-06T11:22:06.037Z</time></trkpt><trkpt lat="37.56638" lon="14.2239017"><ele>423.0</ele><time>2026-05-06T11:22:07.037Z</time></trkpt><trkpt lat="37.56647" lon="14.2241567"><ele>423.0</ele><time>2026-05-06T11:22:08.037Z</time></trkpt><trkpt lat="37.566565" lon="14.224415"><ele>423.0</ele><time>2026-05-06T11:22:09.037Z</time></trkpt><trkpt lat="37.5666567" lon="14.2246683"><ele>425.66666666666663</ele><time>2026-05-06T11:22:10.037Z</time></trkpt><trkpt lat="37.5667433" lon="14.2249183"><ele>428.3333333333333</ele><time>2026-05-06T11:22:11.037Z</time></trkpt><trkpt lat="37.56683" lon="14.2251567"><ele>431.0</ele><time>2026-05-06T11:22:12.037Z</time></trkpt><trkpt lat="37.5669117" lon="14.2253817"><ele>431.0</ele><time>2026-05-06T11:22:13.037Z</time></trkpt><trkpt lat="37.5669867" lon="14.2255917"><ele>431.0</ele><time>2026-05-06T11:22:14.037Z</time></trkpt><trkpt lat="37.56706" lon="14.2257967"><ele>431.0</ele><time>2026-05-06T11:22:15.037Z</time></trkpt><trkpt lat="37.5671317" lon="14.2259867"><ele>435.3333333333333</ele><time>2026-05-06T11:22:16.037Z</time></trkpt><trkpt lat="37.5671983" lon="14.226165"><ele>439.66666666666663</ele><time>2026-05-06T11:22:17.037Z</time></trkpt><trkpt lat="37.567255" lon="14.226335"><ele>444.0</ele><time>2026-05-06T11:22:18.037Z</time></trkpt><trkpt lat="37.5673183" lon="14.226505"><ele>447.75</ele><time>2026-05-06T11:22:19.037Z</time></trkpt><trkpt lat="37.5673783" lon="14.226665"><ele>451.5</ele><time>2026-05-06T11:22:20.037Z</time></trkpt><trkpt lat="37.567435" lon="14.2268167"><ele>455.25</ele><time>2026-05-06T11:22:21.037Z</time></trkpt><trkpt lat="37.5674867" lon="14.22696"><ele>459.0</ele><time>2026-05-06T11:22:22.037Z</time></trkpt><trkpt lat="37.5675433" lon="14.2270883"><ele>459.0</ele><time>2026-05-06T11:22:23.037Z</time></trkpt><trkpt lat="37.5675967" lon="14.2272067"><ele>459.0</ele><time>2026-05-06T11:22:24.037Z</time></trkpt><trkpt lat="37.5676433" lon="14.22733"><ele>459.0</ele><time>2026-05-06T11:22:25.037Z</time></trkpt><trkpt lat="37.567685" lon="14.2274417"><ele>459.0</ele><time>2026-05-06T11:22:26.036Z</time></trkpt><trkpt lat="37.5677217" lon="14.2275517"><ele>459.0</ele><time>2026-05-06T11:22:27.037Z</time></trkpt><trkpt lat="37.5677467" lon="14.227655"><ele>459.6</ele><time>2026-05-06T11:22:28.037Z</time></trkpt><trkpt lat="37.5677667" lon="14.2277583"><ele>460.2</ele><time>2026-05-06T11:22:29.037Z</time></trkpt><trkpt lat="37.5677817" lon="14.2278683"><ele>460.80000000000007</ele><time>2026-05-06T11:22:30.037Z</time></trkpt><trkpt lat="37.5678033" lon="14.2279833"><ele>461.40000000000003</ele><time>2026-05-06T11:22:31.037Z</time></trkpt><trkpt lat="37.5678333" lon="14.2280983"><ele>462.0</ele><time>2026-05-06T11:22:32.037Z</time></trkpt><trkpt lat="37.5678767" lon="14.2282133"><ele>463.25</ele><time>2026-05-06T11:22:33.037Z</time></trkpt><trkpt lat="37.5679367" lon="14.2283317"><ele>464.5</ele><time>2026-05-06T11:22:34.037Z</time></trkpt><trkpt lat="37.568" lon="14.2284533"><ele>465.75</ele><time>2026-05-06T11:22:35.037Z</time></trkpt><trkpt lat="37.5680683" lon="14.2285883"><ele>467.0</ele><time>2026-05-06T11:22:36.037Z</time></trkpt><trkpt lat="37.5681383" lon="14.2287367"><ele>467.0</ele><time>2026-05-06T11:22:37.037Z</time></trkpt><trkpt lat="37.5682267" lon="14.2288833"><ele>467.0</ele><time>2026-05-06T11:22:38.036Z</time></trkpt><trkpt lat="37.56832" lon="14.2290333"><ele>467.0</ele><time>2026-05-06T11:22:39.037Z</time></trkpt><trkpt lat="37.5684167" lon="14.22919"><ele>466.3333333333333</ele><time>2026-05-06T11:22:40.037Z</time></trkpt><trkpt lat="37.568525" lon="14.2293467"><ele>465.66666666666663</ele><time>2026-05-06T11:22:41.037Z</time></trkpt><trkpt lat="37.5686417" lon="14.2295133"><ele>465.0</ele><time>2026-05-06T11:22:42.037Z</time></trkpt><trkpt lat="37.5687533" lon="14.2296783"><ele>463.66666666666663</ele><time>2026-05-06T11:22:43.037Z</time></trkpt><trkpt lat="37.56887" lon="14.2298483"><ele>462.3333333333333</ele><time>2026-05-06T11:22:44.037Z</time></trkpt><trkpt lat="37.568995" lon="14.2300167"><ele>461.0</ele><time>2026-05-06T11:22:45.037Z</time></trkpt><trkpt lat="37.5691283" lon="14.2301817"><ele>461.0</ele><time>2026-05-06T11:22:46.037Z</time></trkpt><trkpt lat="37.56927" lon="14.23035"><ele>461.0</ele><time>2026-05-06T11:22:47.037Z</time></trkpt><trkpt lat="37.5694117" lon="14.230515"><ele>461.0</ele><time>2026-05-06T11:22:48.037Z</time></trkpt><trkpt lat="37.569555" lon="14.2306817"><ele>468.66666666666663</ele><time>2026-05-06T11:22:49.036Z</time></trkpt><trkpt lat="37.5697067" lon="14.2308467"><ele>476.33333333333337</ele><time>2026-05-06T11:22:50.037Z</time></trkpt><trkpt lat="37.5698617" lon="14.2310117"><ele>484.0</ele><time>2026-05-06T11:22:51.037Z</time></trkpt><trkpt lat="37.57002" lon="14.2311683"><ele>484.0</ele><time>2026-05-06T11:22:52.037Z</time></trkpt><trkpt lat="37.57018" lon="14.231325"><ele>484.0</ele><time>2026-05-06T11:22:53.037Z</time></trkpt><trkpt lat="37.5703367" lon="14.2314817"><ele>484.0</ele><time>2026-05-06T11:22:54.037Z</time></trkpt><trkpt lat="37.57051" lon="14.2316433"><ele>483.6666666666667</ele><time>2026-05-06T11:22:55.037Z</time></trkpt><trkpt lat="37.5706783" lon="14.2318033"><ele>483.33333333333337</ele><time>2026-05-06T11:22:56.037Z</time></trkpt><trkpt lat="37.57085" lon="14.2319683"><ele>483.0</ele><time>2026-05-06T11:22:57.037Z</time></trkpt><trkpt lat="37.5710217" lon="14.2321333"><ele>483.0</ele><time>2026-05-06T11:22:58.037Z</time></trkpt><trkpt lat="37.5712067" lon="14.2322933"><ele>483.0</ele><time>2026-05-06T11:22:59.037Z</time></trkpt><trkpt lat="37.5713833" lon="14.2324567"><ele>483.0</ele><time>2026-05-06T11:23:00.037Z</time></trkpt><trkpt lat="37.5715633" lon="14.2326217"><ele>483.0</ele><time>2026-05-06T11:23:01.037Z</time></trkpt><trkpt lat="37.571745" lon="14.2327933"><ele>483.0</ele><time>2026-05-06T11:23:02.037Z</time></trkpt><trkpt lat="37.57193" lon="14.2329633"><ele>476.0</ele><time>2026-05-06T11:23:03.037Z</time></trkpt><trkpt lat="37.5721133" lon="14.2331383"><ele>469.0</ele><time>2026-05-06T11:23:04.037Z</time></trkpt><trkpt lat="37.5722983" lon="14.2333083"><ele>469.0</ele><time>2026-05-06T11:23:05.037Z</time></trkpt><trkpt lat="37.5724833" lon="14.2334783"><ele>469.0</ele><time>2026-05-06T11:23:06.037Z</time></trkpt><trkpt lat="37.57267" lon="14.23365"><ele>469.5</ele><time>2026-05-06T11:23:07.037Z</time></trkpt><trkpt lat="37.5728567" lon="14.2338217"><ele>470.0</ele><time>2026-05-06T11:23:08.037Z</time></trkpt><trkpt lat="37.5730417" lon="14.2339883"><ele>470.0</ele><time>2026-05-06T11:23:09.037Z</time></trkpt><trkpt lat="37.573225" lon="14.2341517"><ele>470.0</ele><time>2026-05-06T11:23:10.037Z</time></trkpt><trkpt lat="37.5734067" lon="14.2343183"><ele>470.0</ele><time>2026-05-06T11:23:11.037Z</time></trkpt><trkpt lat="37.57359" lon="14.2344883"><ele>475.0</ele><time>2026-05-06T11:23:12.037Z</time></trkpt><trkpt lat="37.5737733" lon="14.2346583"><ele>480.0</ele><time>2026-05-06T11:23:13.037Z</time></trkpt><trkpt lat="37.573955" lon="14.2348217"><ele>480.0</ele><time>2026-05-06T11:23:14.037Z</time></trkpt><trkpt lat="37.57414" lon="14.2349817"><ele>480.0</ele><time>2026-05-06T11:23:15.037Z</time></trkpt><trkpt lat="37.5743183" lon="14.2351433"><ele>480.0</ele><time>2026-05-06T11:23:16.037Z</time></trkpt><trkpt lat="37.5745" lon="14.2353033"><ele>485.0</ele><time>2026-05-06T11:23:17.037Z</time></trkpt><trkpt lat="37.5746867" lon="14.2354683"><ele>490.0</ele><time>2026-05-06T11:23:18.037Z</time></trkpt><trkpt lat="37.574865" lon="14.23564"><ele>490.0</ele><time>2026-05-06T11:23:19.037Z</time></trkpt><trkpt lat="37.57505" lon="14.2358067"><ele>490.0</ele><time>2026-05-06T11:23:20.037Z</time></trkpt><trkpt lat="37.5752383" lon="14.2359783"><ele>493.0</ele><time>2026-05-06T11:23:21.037Z</time></trkpt><trkpt lat="37.5754183" lon="14.2361433"><ele>496.0</ele><time>2026-05-06T11:23:22.037Z</time></trkpt><trkpt lat="37.5756" lon="14.2363083"><ele>499.0</ele><time>2026-05-06T11:23:23.037Z</time></trkpt><trkpt lat="37.5757833" lon="14.236485"><ele>499.0</ele><time>2026-05-06T11:23:24.037Z</time></trkpt><trkpt lat="37.57596" lon="14.2366483"><ele>499.0</ele><time>2026-05-06T11:23:25.037Z</time></trkpt><trkpt lat="37.5761367" lon="14.236815"><ele>499.0</ele><time>2026-05-06T11:23:26.037Z</time></trkpt><trkpt lat="37.5763217" lon="14.236985"><ele>502.6666666666667</ele><time>2026-05-06T11:23:27.037Z</time></trkpt><trkpt lat="37.5765017" lon="14.2371483"><ele>506.33333333333337</ele><time>2026-05-06T11:23:28.037Z</time></trkpt><trkpt lat="37.57668" lon="14.2373183"><ele>510.0</ele><time>2026-05-06T11:23:29.037Z</time></trkpt><trkpt lat="37.5768667" lon="14.23749"><ele>510.0</ele><time>2026-05-06T11:23:30.037Z</time></trkpt><trkpt lat="37.5770483" lon="14.2376617"><ele>510.0</ele><time>2026-05-06T11:23:31.037Z</time></trkpt><trkpt lat="37.5772317" lon="14.23783"><ele>510.0</ele><time>2026-05-06T11:23:32.036Z</time></trkpt><trkpt lat="37.5774183" lon="14.238005"><ele>510.0</ele><time>2026-05-06T11:23:33.034Z</time></trkpt><trkpt lat="37.5775983" lon="14.2381783"><ele>513.5</ele><time>2026-05-06T11:23:34.037Z</time></trkpt><trkpt lat="37.5777783" lon="14.2383633"><ele>517.0</ele><time>2026-05-06T11:23:35.037Z</time></trkpt><trkpt lat="37.5779533" lon="14.238545"><ele>517.0</ele><time>2026-05-06T11:23:36.037Z</time></trkpt><trkpt lat="37.5781033" lon="14.2387333"><ele>517.0</ele><time>2026-05-06T11:23:37.037Z</time></trkpt><trkpt lat="37.57825" lon="14.23893"><ele>517.0</ele><time>2026-05-06T11:23:38.037Z</time></trkpt><trkpt lat="37.578395" lon="14.2391333"><ele>518.6666666666667</ele><time>2026-05-06T11:23:39.037Z</time></trkpt><trkpt lat="37.5785283" lon="14.239335"><ele>520.3333333333334</ele><time>2026-05-06T11:23:40.037Z</time></trkpt><trkpt lat="37.578655" lon="14.239545"><ele>522.0</ele><time>2026-05-06T11:23:41.037Z</time></trkpt><trkpt lat="37.5787717" lon="14.2397467"><ele>525.6666666666666</ele><time>2026-05-06T11:23:42.036Z</time></trkpt><trkpt lat="37.5788617" lon="14.23994"><ele>529.3333333333333</ele><time>2026-05-06T11:23:43.037Z</time></trkpt><trkpt lat="37.5789417" lon="14.2401083"><ele>533.0</ele><time>2026-05-06T11:23:44.037Z</time></trkpt><trkpt lat="37.5790067" lon="14.2402667"><ele>533.0</ele><time>2026-05-06T11:23:45.037Z</time></trkpt><trkpt lat="37.579065" lon="14.2404083"><ele>533.0</ele><time>2026-05-06T11:23:46.037Z</time></trkpt><trkpt lat="37.5791367" lon="14.2405317"><ele>533.0</ele><time>2026-05-06T11:23:47.037Z</time></trkpt><trkpt lat="37.5792183" lon="14.2406283"><ele>533.0</ele><time>2026-05-06T11:23:48.037Z</time></trkpt><trkpt lat="37.5793067" lon="14.240725"><ele>531.75</ele><time>2026-05-06T11:23:49.036Z</time></trkpt><trkpt lat="37.5793883" lon="14.2408283"><ele>530.5</ele><time>2026-05-06T11:23:50.037Z</time></trkpt><trkpt lat="37.5794533" lon="14.2409567"><ele>529.25</ele><time>2026-05-06T11:23:51.037Z</time></trkpt><trkpt lat="37.5795033" lon="14.2410967"><ele>528.0</ele><time>2026-05-06T11:23:52.037Z</time></trkpt><trkpt lat="37.5795517" lon="14.2412567"><ele>528.0</ele><time>2026-05-06T11:23:53.037Z</time></trkpt><trkpt lat="37.5795967" lon="14.2414317"><ele>528.0</ele><time>2026-05-06T11:23:54.037Z</time></trkpt><trkpt lat="37.579635" lon="14.2416017"><ele>528.0</ele><time>2026-05-06T11:23:55.037Z</time></trkpt><trkpt lat="37.579665" lon="14.241775"><ele>528.0</ele><time>2026-05-06T11:23:56.037Z</time></trkpt><trkpt lat="37.5796867" lon="14.2419433"><ele>529.25</ele><time>2026-05-06T11:23:57.037Z</time></trkpt><trkpt lat="37.5797083" lon="14.2421133"><ele>530.5</ele><time>2026-05-06T11:23:58.037Z</time></trkpt><trkpt lat="37.5797183" lon="14.2422983"><ele>531.75</ele><time>2026-05-06T11:23:59.037Z</time></trkpt><trkpt lat="37.57973" lon="14.2424833"><ele>533.0</ele><time>2026-05-06T11:24:00.037Z</time></trkpt><trkpt lat="37.5797433" lon="14.24267"><ele>535.3333333333333</ele><time>2026-05-06T11:24:01.037Z</time></trkpt><trkpt lat="37.57976" lon="14.24286"><ele>537.6666666666666</ele><time>2026-05-06T11:24:02.036Z</time></trkpt><trkpt lat="37.5797867" lon="14.2430733"><ele>540.0</ele><time>2026-05-06T11:24:03.037Z</time></trkpt><trkpt lat="37.5798233" lon="14.2433133"><ele>542.6666666666666</ele><time>2026-05-06T11:24:04.037Z</time></trkpt><trkpt lat="37.57986" lon="14.2435583"><ele>545.3333333333333</ele><time>2026-05-06T11:24:05.037Z</time></trkpt><trkpt lat="37.5798917" lon="14.243785"><ele>548.0</ele><time>2026-05-06T11:24:06.037Z</time></trkpt><trkpt lat="37.5799167" lon="14.2440083"><ele>544.0</ele><time>2026-05-06T11:24:07.037Z</time></trkpt><trkpt lat="37.5799483" lon="14.2442367"><ele>540.0</ele><time>2026-05-06T11:24:08.037Z</time></trkpt><trkpt lat="37.5795265" lon="14.2423193"><ele>592.0</ele><time>2026-05-06T11:24:18.842Z</time></trkpt><trkpt lat="37.5800983" lon="14.2599"><ele>592.0</ele><time>2026-05-06T11:25:15.036Z</time></trkpt><trkpt lat="37.580105" lon="14.2601033"><ele>592.0</ele><time>2026-05-06T11:25:16.036Z</time></trkpt><trkpt lat="37.5801083" lon="14.2602967"><ele>592.0</ele><time>2026-05-06T11:25:17.037Z</time></trkpt><trkpt lat="37.58011" lon="14.2604933"><ele>592.0</ele><time>2026-05-06T11:25:18.037Z</time></trkpt><trkpt lat="37.5801067" lon="14.260695"><ele>592.0</ele><time>2026-05-06T11:25:19.037Z</time></trkpt><trkpt lat="37.5801017" lon="14.2608883"><ele>592.0</ele><time>2026-05-06T11:25:20.037Z</time></trkpt><trkpt lat="37.5801" lon="14.2610767"><ele>592.0</ele><time>2026-05-06T11:25:21.037Z</time></trkpt><trkpt lat="37.5800967" lon="14.2612717"><ele>592.0</ele><time>2026-05-06T11:25:22.037Z</time></trkpt><trkpt lat="37.5800933" lon="14.2614667"><ele>592.0</ele><time>2026-05-06T11:25:23.037Z</time></trkpt><trkpt lat="37.5801" lon="14.2616533"><ele>599.6666666666667</ele><time>2026-05-06T11:25:24.037Z</time></trkpt><trkpt lat="37.5801067" lon="14.2618483"><ele>607.3333333333334</ele><time>2026-05-06T11:25:25.037Z</time></trkpt><trkpt lat="37.5801233" lon="14.262045"><ele>615.0</ele><time>2026-05-06T11:25:26.037Z</time></trkpt><trkpt lat="37.5801433" lon="14.2622367"><ele>613.6666666666666</ele><time>2026-05-06T11:25:27.037Z</time></trkpt><trkpt lat="37.5801683" lon="14.26243"><ele>612.3333333333333</ele><time>2026-05-06T11:25:28.037Z</time></trkpt><trkpt lat="37.580185" lon="14.2626233"><ele>611.0</ele><time>2026-05-06T11:25:29.037Z</time></trkpt><trkpt lat="37.5800733" lon="14.2651433"><ele>611.0</ele><time>2026-05-06T11:25:42.038Z</time></trkpt><trkpt lat="37.5800533" lon="14.2653767"><ele>611.0</ele><time>2026-05-06T11:25:43.038Z</time></trkpt><trkpt lat="37.5800417" lon="14.26557"><ele>611.0</ele><time>2026-05-06T11:25:44.038Z</time></trkpt><trkpt lat="37.5800367" lon="14.2657533"><ele>610.25</ele><time>2026-05-06T11:25:45.038Z</time></trkpt><trkpt lat="37.5800333" lon="14.2659433"><ele>609.5</ele><time>2026-05-06T11:25:46.037Z</time></trkpt><trkpt lat="37.58004" lon="14.266115"><ele>608.75</ele><time>2026-05-06T11:25:47.037Z</time></trkpt><trkpt lat="37.5800367" lon="14.26629"><ele>608.0</ele><time>2026-05-06T11:25:48.038Z</time></trkpt><trkpt lat="37.5800333" lon="14.2664567"><ele>612.0</ele><time>2026-05-06T11:25:49.038Z</time></trkpt><trkpt lat="37.5800367" lon="14.2666317"><ele>616.0</ele><time>2026-05-06T11:25:50.038Z</time></trkpt><trkpt lat="37.5800417" lon="14.2668083"><ele>620.0</ele><time>2026-05-06T11:25:51.037Z</time></trkpt><trkpt lat="37.5800733" lon="14.2691683"><ele>620.0</ele><time>2026-05-06T11:26:06.037Z</time></trkpt><trkpt lat="37.5800267" lon="14.2693983"><ele>620.0</ele><time>2026-05-06T11:26:07.037Z</time></trkpt><trkpt lat="37.5800017" lon="14.2695833"><ele>620.0</ele><time>2026-05-06T11:26:08.037Z</time></trkpt><trkpt lat="37.5799667" lon="14.2697433"><ele>619.25</ele><time>2026-05-06T11:26:09.037Z</time></trkpt><trkpt lat="37.5799167" lon="14.269885"><ele>618.5</ele><time>2026-05-06T11:26:10.037Z</time></trkpt><trkpt lat="37.579855" lon="14.2700283"><ele>617.75</ele><time>2026-05-06T11:26:11.037Z</time></trkpt><trkpt lat="37.5798083" lon="14.2701683"><ele>617.0</ele><time>2026-05-06T11:26:12.037Z</time></trkpt><trkpt lat="37.5797833" lon="14.270315"><ele>617.0</ele><time>2026-05-06T11:26:13.037Z</time></trkpt><trkpt lat="37.57977" lon="14.2704667"><ele>617.0</ele><time>2026-05-06T11:26:14.037Z</time></trkpt><trkpt lat="37.57977" lon="14.2706217"><ele>617.0</ele><time>2026-05-06T11:26:15.037Z</time></trkpt><trkpt lat="37.579775" lon="14.2707767"><ele>617.0</ele><time>2026-05-06T11:26:16.037Z</time></trkpt><trkpt lat="37.579775" lon="14.270935"><ele>617.0</ele><time>2026-05-06T11:26:17.037Z</time></trkpt><trkpt lat="37.5797783" lon="14.2710867"><ele>617.0</ele><time>2026-05-06T11:26:18.037Z</time></trkpt><trkpt lat="37.5797717" lon="14.2712433"><ele>617.0</ele><time>2026-05-06T11:26:19.036Z</time></trkpt><trkpt lat="37.5797633" lon="14.2713933"><ele>617.0</ele><time>2026-05-06T11:26:20.037Z</time></trkpt><trkpt lat="37.5797517" lon="14.27155"><ele>617.0</ele><time>2026-05-06T11:26:21.037Z</time></trkpt><trkpt lat="37.5797333" lon="14.2717033"><ele>617.0</ele><time>2026-05-06T11:26:22.037Z</time></trkpt><trkpt lat="37.579715" lon="14.27186"><ele>617.0</ele><time>2026-05-06T11:26:23.037Z</time></trkpt><trkpt lat="37.5796983" lon="14.2720183"><ele>617.0</ele><time>2026-05-06T11:26:24.037Z</time></trkpt><trkpt lat="37.579675" lon="14.2721783"><ele>618.0</ele><time>2026-05-06T11:26:25.037Z</time></trkpt><trkpt lat="37.5796483" lon="14.27234"><ele>619.0</ele><time>2026-05-06T11:26:26.037Z</time></trkpt><trkpt lat="37.57962" lon="14.2725083"><ele>620.0</ele><time>2026-05-06T11:26:27.037Z</time></trkpt><trkpt lat="37.5795917" lon="14.2726833"><ele>621.0</ele><time>2026-05-06T11:26:28.037Z</time></trkpt><trkpt lat="37.57956" lon="14.2728583"><ele>621.0</ele><time>2026-05-06T11:26:29.037Z</time></trkpt><trkpt lat="37.5795317" lon="14.2730333"><ele>621.0</ele><time>2026-05-06T11:26:30.037Z</time></trkpt><trkpt lat="37.579505" lon="14.2732083"><ele>621.0</ele><time>2026-05-06T11:26:31.037Z</time></trkpt><trkpt lat="37.5794783" lon="14.2733883"><ele>621.0</ele><time>2026-05-06T11:26:32.036Z</time></trkpt><trkpt lat="37.5794483" lon="14.27357"><ele>620.0</ele><time>2026-05-06T11:26:33.037Z</time></trkpt><trkpt lat="37.5794183" lon="14.2737533"><ele>619.0</ele><time>2026-05-06T11:26:34.037Z</time></trkpt><trkpt lat="37.5793867" lon="14.2739417"><ele>618.0</ele><time>2026-05-06T11:26:35.037Z</time></trkpt><trkpt lat="37.5793533" lon="14.2741333"><ele>618.0</ele><time>2026-05-06T11:26:36.036Z</time></trkpt><trkpt lat="37.579315" lon="14.2743267"><ele>618.0</ele><time>2026-05-06T11:26:37.037Z</time></trkpt><trkpt lat="37.5792833" lon="14.2745233"><ele>618.0</ele><time>2026-05-06T11:26:38.037Z</time></trkpt><trkpt lat="37.5792517" lon="14.2747367"><ele>623.3333333333334</ele><time>2026-05-06T11:26:39.037Z</time></trkpt><trkpt lat="37.579215" lon="14.274955"><ele>628.6666666666667</ele><time>2026-05-06T11:26:40.037Z</time></trkpt><trkpt lat="37.5791817" lon="14.2751917"><ele>634.0</ele><time>2026-05-06T11:26:41.037Z</time></trkpt><trkpt lat="37.5791383" lon="14.275425"><ele>637.0</ele><time>2026-05-06T11:26:42.037Z</time></trkpt><trkpt lat="37.5791017" lon="14.2756617"><ele>640.0</ele><time>2026-05-06T11:26:43.037Z</time></trkpt><trkpt lat="37.5790683" lon="14.2759"><ele>643.0</ele><time>2026-05-06T11:26:44.037Z</time></trkpt><trkpt lat="37.5790383" lon="14.2761333"><ele>643.0</ele><time>2026-05-06T11:26:45.037Z</time></trkpt><trkpt lat="37.5790117" lon="14.2763683"><ele>643.0</ele><time>2026-05-06T11:26:46.037Z</time></trkpt><trkpt lat="37.57899" lon="14.2766"><ele>643.0</ele><time>2026-05-06T11:26:47.037Z</time></trkpt><trkpt lat="37.5789767" lon="14.2768383"><ele>644.0</ele><time>2026-05-06T11:26:48.037Z</time></trkpt><trkpt lat="37.5789717" lon="14.277075"><ele>645.0</ele><time>2026-05-06T11:26:49.037Z</time></trkpt><trkpt lat="37.5789733" lon="14.2773"><ele>646.0</ele><time>2026-05-06T11:26:50.037Z</time></trkpt><trkpt lat="37.5789817" lon="14.27752"><ele>646.0</ele><time>2026-05-06T11:26:51.037Z</time></trkpt><trkpt lat="37.5789867" lon="14.2777367"><ele>646.0</ele><time>2026-05-06T11:26:52.037Z</time></trkpt><trkpt lat="37.5790017" lon="14.2779583"><ele>646.0</ele><time>2026-05-06T11:26:53.036Z</time></trkpt><trkpt lat="37.57901" lon="14.2781783"><ele>645.0</ele><time>2026-05-06T11:26:54.037Z</time></trkpt><trkpt lat="37.5790317" lon="14.278405"><ele>644.0</ele><time>2026-05-06T11:26:55.037Z</time></trkpt><trkpt lat="37.5790583" lon="14.27863"><ele>643.0</ele><time>2026-05-06T11:26:56.037Z</time></trkpt><trkpt lat="37.5790783" lon="14.278855"><ele>643.3333333333334</ele><time>2026-05-06T11:26:57.037Z</time></trkpt><trkpt lat="37.579105" lon="14.27909"><ele>643.6666666666666</ele><time>2026-05-06T11:26:58.037Z</time></trkpt><trkpt lat="37.5791333" lon="14.2793267"><ele>644.0</ele><time>2026-05-06T11:26:59.037Z</time></trkpt><trkpt lat="37.57917" lon="14.27956"><ele>644.6666666666666</ele><time>2026-05-06T11:27:00.037Z</time></trkpt><trkpt lat="37.5792" lon="14.2797967"><ele>645.3333333333334</ele><time>2026-05-06T11:27:01.037Z</time></trkpt><trkpt lat="37.5792283" lon="14.2800417"><ele>646.0</ele><time>2026-05-06T11:27:02.037Z</time></trkpt><trkpt lat="37.5792617" lon="14.2802833"><ele>646.0</ele><time>2026-05-06T11:27:03.037Z</time></trkpt><trkpt lat="37.5792883" lon="14.2805133"><ele>646.0</ele><time>2026-05-06T11:27:04.037Z</time></trkpt><trkpt lat="37.579315" lon="14.2807467"><ele>646.0</ele><time>2026-05-06T11:27:05.037Z</time></trkpt><trkpt lat="37.579345" lon="14.280965"><ele>646.0</ele><time>2026-05-06T11:27:06.037Z</time></trkpt><trkpt lat="37.579375" lon="14.2812"><ele>646.0</ele><time>2026-05-06T11:27:07.037Z</time></trkpt><trkpt lat="37.57941" lon="14.2814417"><ele>646.0</ele><time>2026-05-06T11:27:08.037Z</time></trkpt><trkpt lat="37.5794417" lon="14.2816883"><ele>649.6666666666667</ele><time>2026-05-06T11:27:09.037Z</time></trkpt><trkpt lat="37.5794783" lon="14.2819467"><ele>653.3333333333334</ele><time>2026-05-06T11:27:10.037Z</time></trkpt><trkpt lat="37.579515" lon="14.282215"><ele>657.0</ele><time>2026-05-06T11:27:11.037Z</time></trkpt><trkpt lat="37.5795467" lon="14.282485"><ele>658.3333333333334</ele><time>2026-05-06T11:27:12.037Z</time></trkpt><trkpt lat="37.57957" lon="14.28276"><ele>659.6666666666667</ele><time>2026-05-06T11:27:13.037Z</time></trkpt><trkpt lat="37.5795867" lon="14.28304"><ele>661.0</ele><time>2026-05-06T11:27:14.037Z</time></trkpt><trkpt lat="37.5795983" lon="14.2833167"><ele>664.0</ele><time>2026-05-06T11:27:15.037Z</time></trkpt><trkpt lat="37.57962" lon="14.2835983"><ele>667.0</ele><time>2026-05-06T11:27:16.037Z</time></trkpt><trkpt lat="37.5797133" lon="14.2871083"><ele>649.0</ele><time>2026-05-06T11:27:27.036Z</time></trkpt><trkpt lat="37.579645" lon="14.2874167"><ele>631.0</ele><time>2026-05-06T11:27:28.036Z</time></trkpt><trkpt lat="37.579595" lon="14.2877217"><ele>631.0</ele><time>2026-05-06T11:27:29.036Z</time></trkpt><trkpt lat="37.5795467" lon="14.288045"><ele>631.0</ele><time>2026-05-06T11:27:30.036Z</time></trkpt><trkpt lat="37.5794933" lon="14.2883583"><ele>631.0</ele><time>2026-05-06T11:27:31.036Z</time></trkpt><trkpt lat="37.5794417" lon="14.28867"><ele>631.0</ele><time>2026-05-06T11:27:32.036Z</time></trkpt><trkpt lat="37.5793933" lon="14.2889767"><ele>630.0</ele><time>2026-05-06T11:27:33.035Z</time></trkpt><trkpt lat="37.5793417" lon="14.28929"><ele>629.0</ele><time>2026-05-06T11:27:34.036Z</time></trkpt><trkpt lat="37.57929" lon="14.289595"><ele>626.5</ele><time>2026-05-06T11:27:35.036Z</time></trkpt><trkpt lat="37.57924" lon="14.2899083"><ele>624.0</ele><time>2026-05-06T11:27:36.036Z</time></trkpt><trkpt lat="37.579195" lon="14.2902267"><ele>624.0</ele><time>2026-05-06T11:27:37.036Z</time></trkpt><trkpt lat="37.5791467" lon="14.29054"><ele>624.0</ele><time>2026-05-06T11:27:38.036Z</time></trkpt><trkpt lat="37.5790883" lon="14.2908483"><ele>618.0</ele><time>2026-05-06T11:27:39.036Z</time></trkpt><trkpt lat="37.5790333" lon="14.2911617"><ele>612.0</ele><time>2026-05-06T11:27:40.035Z</time></trkpt><trkpt lat="37.5789817" lon="14.2914733"><ele>606.0</ele><time>2026-05-06T11:27:41.036Z</time></trkpt><trkpt lat="37.5789267" lon="14.291785"><ele>600.0</ele><time>2026-05-06T11:27:42.036Z</time></trkpt><trkpt lat="37.5788733" lon="14.2920967"><ele>598.0</ele><time>2026-05-06T11:27:43.036Z</time></trkpt><trkpt lat="37.57882" lon="14.2924133"><ele>596.0</ele><time>2026-05-06T11:27:44.036Z</time></trkpt><trkpt lat="37.5787667" lon="14.2927267"><ele>596.0</ele><time>2026-05-06T11:27:45.036Z</time></trkpt><trkpt lat="37.578715" lon="14.2930367"><ele>596.0</ele><time>2026-05-06T11:27:46.036Z</time></trkpt><trkpt lat="37.578665" lon="14.2933483"><ele>600.5</ele><time>2026-05-06T11:27:47.036Z</time></trkpt><trkpt lat="37.57862" lon="14.2936617"><ele>605.0</ele><time>2026-05-06T11:27:48.036Z</time></trkpt><trkpt lat="37.5785717" lon="14.2939783"><ele>605.0</ele><time>2026-05-06T11:27:49.036Z</time></trkpt><trkpt lat="37.5785283" lon="14.2942967"><ele>605.0</ele><time>2026-05-06T11:27:50.036Z</time></trkpt><trkpt lat="37.5784933" lon="14.294615"><ele>602.0</ele><time>2026-05-06T11:27:51.036Z</time></trkpt><trkpt lat="37.5784717" lon="14.2949333"><ele>599.0</ele><time>2026-05-06T11:27:52.036Z</time></trkpt><trkpt lat="37.5784583" lon="14.295245"><ele>599.0</ele><time>2026-05-06T11:27:53.036Z</time></trkpt><trkpt lat="37.578455" lon="14.2955617"><ele>599.0</ele><time>2026-05-06T11:27:54.036Z</time></trkpt><trkpt lat="37.5784583" lon="14.29588"><ele>599.0</ele><time>2026-05-06T11:27:55.036Z</time></trkpt><trkpt lat="37.5784767" lon="14.2962017"><ele>599.0</ele><time>2026-05-06T11:27:56.036Z</time></trkpt><trkpt lat="37.5785017" lon="14.29652"><ele>599.0</ele><time>2026-05-06T11:27:57.036Z</time></trkpt><trkpt lat="37.5785317" lon="14.2968383"><ele>599.0</ele><time>2026-05-06T11:27:58.036Z</time></trkpt><trkpt lat="37.5785533" lon="14.2971567"><ele>599.0</ele><time>2026-05-06T11:27:59.036Z</time></trkpt><trkpt lat="37.578565" lon="14.2974717"><ele>599.0</ele><time>2026-05-06T11:28:00.036Z</time></trkpt><trkpt lat="37.5785833" lon="14.2977867"><ele>597.5</ele><time>2026-05-06T11:28:01.036Z</time></trkpt><trkpt lat="37.5785967" lon="14.298105"><ele>596.0</ele><time>2026-05-06T11:28:02.036Z</time></trkpt><trkpt lat="37.578605" lon="14.2984233"><ele>596.0</ele><time>2026-05-06T11:28:03.036Z</time></trkpt><trkpt lat="37.5786033" lon="14.2987433"><ele>596.0</ele><time>2026-05-06T11:28:04.036Z</time></trkpt><trkpt lat="37.5785983" lon="14.2990633"><ele>594.5</ele><time>2026-05-06T11:28:05.036Z</time></trkpt><trkpt lat="37.5785833" lon="14.2993817"><ele>593.0</ele><time>2026-05-06T11:28:06.035Z</time></trkpt><trkpt lat="37.5785583" lon="14.2996983"><ele>590.0</ele><time>2026-05-06T11:28:07.036Z</time></trkpt><trkpt lat="37.578515" lon="14.3000167"><ele>587.0</ele><time>2026-05-06T11:28:08.036Z</time></trkpt><trkpt lat="37.5784667" lon="14.30033"><ele>585.5</ele><time>2026-05-06T11:28:09.036Z</time></trkpt><trkpt lat="37.5784017" lon="14.3006383"><ele>584.0</ele><time>2026-05-06T11:28:10.036Z</time></trkpt><trkpt lat="37.5783367" lon="14.300945"><ele>584.0</ele><time>2026-05-06T11:28:11.036Z</time></trkpt><trkpt lat="37.5782583" lon="14.3012483"><ele>584.0</ele><time>2026-05-06T11:28:12.036Z</time></trkpt><trkpt lat="37.5781783" lon="14.30155"><ele>581.0</ele><time>2026-05-06T11:28:13.036Z</time></trkpt><trkpt lat="37.578085" lon="14.3018433"><ele>578.0</ele><time>2026-05-06T11:28:14.036Z</time></trkpt><trkpt lat="37.57798" lon="14.3021267"><ele>576.0</ele><time>2026-05-06T11:28:15.036Z</time></trkpt><trkpt lat="37.5778633" lon="14.3024067"><ele>574.0</ele><time>2026-05-06T11:28:16.036Z</time></trkpt><trkpt lat="37.577735" lon="14.3026783"><ele>574.0</ele><time>2026-05-06T11:28:17.036Z</time></trkpt><trkpt lat="37.5776067" lon="14.3029517"><ele>574.0</ele><time>2026-05-06T11:28:18.036Z</time></trkpt><trkpt lat="37.57747" lon="14.303225"><ele>571.5</ele><time>2026-05-06T11:28:19.036Z</time></trkpt><trkpt lat="37.5773333" lon="14.3034983"><ele>569.0</ele><time>2026-05-06T11:28:20.036Z</time></trkpt><trkpt lat="37.5772017" lon="14.303765"><ele>563.0</ele><time>2026-05-06T11:28:21.036Z</time></trkpt><trkpt lat="37.57707" lon="14.304015"><ele>557.0</ele><time>2026-05-06T11:28:22.036Z</time></trkpt><trkpt lat="37.5769433" lon="14.3042517"><ele>554.6666666666666</ele><time>2026-05-06T11:28:23.036Z</time></trkpt><trkpt lat="37.5768183" lon="14.3044783"><ele>552.3333333333334</ele><time>2026-05-06T11:28:24.036Z</time></trkpt><trkpt lat="37.5767017" lon="14.3047017"><ele>550.0</ele><time>2026-05-06T11:28:25.036Z</time></trkpt><trkpt lat="37.5765833" lon="14.3049233"><ele>545.6666666666667</ele><time>2026-05-06T11:28:26.036Z</time></trkpt><trkpt lat="37.5764667" lon="14.3051483"><ele>541.3333333333334</ele><time>2026-05-06T11:28:27.036Z</time></trkpt><trkpt lat="37.5763467" lon="14.3053733"><ele>537.0</ele><time>2026-05-06T11:28:28.035Z</time></trkpt><trkpt lat="37.5762183" lon="14.305605"><ele>534.3333333333334</ele><time>2026-05-06T11:28:29.036Z</time></trkpt><trkpt lat="37.5760983" lon="14.305835"><ele>531.6666666666667</ele><time>2026-05-06T11:28:30.036Z</time></trkpt><trkpt lat="37.5759733" lon="14.3060667"><ele>529.0</ele><time>2026-05-06T11:28:31.036Z</time></trkpt><trkpt lat="37.5758467" lon="14.3063"><ele>529.5</ele><time>2026-05-06T11:28:32.036Z</time></trkpt><trkpt lat="37.575715" lon="14.3065433"><ele>530.0</ele><time>2026-05-06T11:28:33.036Z</time></trkpt><trkpt lat="37.5755867" lon="14.306785"><ele>530.0</ele><time>2026-05-06T11:28:34.036Z</time></trkpt><trkpt lat="37.5754517" lon="14.3070317"><ele>530.0</ele><time>2026-05-06T11:28:35.036Z</time></trkpt><trkpt lat="37.575315" lon="14.307285"><ele>539.5</ele><time>2026-05-06T11:28:36.036Z</time></trkpt><trkpt lat="37.5751817" lon="14.3075467"><ele>549.0</ele><time>2026-05-06T11:28:37.036Z</time></trkpt><trkpt lat="37.5750467" lon="14.3078117"><ele>547.0</ele><time>2026-05-06T11:28:38.036Z</time></trkpt><trkpt lat="37.5749233" lon="14.3080883"><ele>545.0</ele><time>2026-05-06T11:28:39.036Z</time></trkpt><trkpt lat="37.5748017" lon="14.3083733"><ele>545.0</ele><time>2026-05-06T11:28:40.036Z</time></trkpt><trkpt lat="37.5747017" lon="14.30867"><ele>545.0</ele><time>2026-05-06T11:28:41.036Z</time></trkpt><trkpt lat="37.5746133" lon="14.3089783"><ele>541.5</ele><time>2026-05-06T11:28:42.036Z</time></trkpt><trkpt lat="37.5745417" lon="14.3092917"><ele>538.0</ele><time>2026-05-06T11:28:43.035Z</time></trkpt><trkpt lat="37.57448" lon="14.3096017"><ele>540.0</ele><time>2026-05-06T11:28:44.036Z</time></trkpt><trkpt lat="37.5744317" lon="14.3099133"><ele>542.0</ele><time>2026-05-06T11:28:45.036Z</time></trkpt><trkpt lat="37.57439" lon="14.3102283"><ele>542.0</ele><time>2026-05-06T11:28:46.036Z</time></trkpt><trkpt lat="37.5743617" lon="14.31055"><ele>542.0</ele><time>2026-05-06T11:28:47.036Z</time></trkpt><trkpt lat="37.5743433" lon="14.3108733"><ele>544.0</ele><time>2026-05-06T11:28:48.035Z</time></trkpt><trkpt lat="37.5743467" lon="14.3111983"><ele>546.0</ele><time>2026-05-06T11:28:49.036Z</time></trkpt><trkpt lat="37.5743483" lon="14.3115183"><ele>546.0</ele><time>2026-05-06T11:28:50.036Z</time></trkpt><trkpt lat="37.574365" lon="14.3118367"><ele>546.0</ele><time>2026-05-06T11:28:51.036Z</time></trkpt><trkpt lat="37.5743967" lon="14.312155"><ele>542.5</ele><time>2026-05-06T11:28:52.036Z</time></trkpt><trkpt lat="37.5744467" lon="14.312475"><ele>539.0</ele><time>2026-05-06T11:28:53.036Z</time></trkpt><trkpt lat="37.5745" lon="14.3127917"><ele>531.0</ele><time>2026-05-06T11:28:54.036Z</time></trkpt><trkpt lat="37.5745583" lon="14.3131117"><ele>523.0</ele><time>2026-05-06T11:28:55.036Z</time></trkpt><trkpt lat="37.57462" lon="14.313425"><ele>523.0</ele><time>2026-05-06T11:28:56.036Z</time></trkpt><trkpt lat="37.5746883" lon="14.3137333"><ele>523.0</ele><time>2026-05-06T11:28:57.036Z</time></trkpt><trkpt lat="37.5747517" lon="14.314045"><ele>525.0</ele><time>2026-05-06T11:28:58.036Z</time></trkpt><trkpt lat="37.574815" lon="14.3143517"><ele>527.0</ele><time>2026-05-06T11:28:59.036Z</time></trkpt><trkpt lat="37.57488" lon="14.3146667"><ele>530.0</ele><time>2026-05-06T11:29:00.036Z</time></trkpt><trkpt lat="37.5749367" lon="14.3149817"><ele>533.0</ele><time>2026-05-06T11:29:01.036Z</time></trkpt><trkpt lat="37.5750033" lon="14.315295"><ele>532.5</ele><time>2026-05-06T11:29:02.036Z</time></trkpt><trkpt lat="37.5750717" lon="14.3156033"><ele>532.0</ele><time>2026-05-06T11:29:03.036Z</time></trkpt><trkpt lat="37.575135" lon="14.3159133"><ele>532.0</ele><time>2026-05-06T11:29:04.036Z</time></trkpt><trkpt lat="37.575205" lon="14.3162233"><ele>532.0</ele><time>2026-05-06T11:29:05.035Z</time></trkpt><trkpt lat="37.5752833" lon="14.3165283"><ele>528.5</ele><time>2026-05-06T11:29:06.036Z</time></trkpt><trkpt lat="37.5753533" lon="14.3168367"><ele>525.0</ele><time>2026-05-06T11:29:07.036Z</time></trkpt><trkpt lat="37.575415" lon="14.3171433"><ele>519.5</ele><time>2026-05-06T11:29:08.036Z</time></trkpt><trkpt lat="37.5754783" lon="14.31745"><ele>514.0</ele><time>2026-05-06T11:29:09.036Z</time></trkpt><trkpt lat="37.5755483" lon="14.3177617"><ele>510.5</ele><time>2026-05-06T11:29:10.036Z</time></trkpt><trkpt lat="37.5756167" lon="14.3180717"><ele>507.0</ele><time>2026-05-06T11:29:11.036Z</time></trkpt><trkpt lat="37.5756783" lon="14.3183817"><ele>507.0</ele><time>2026-05-06T11:29:12.036Z</time></trkpt><trkpt lat="37.57574" lon="14.3186933"><ele>507.0</ele><time>2026-05-06T11:29:13.036Z</time></trkpt><trkpt lat="37.5757967" lon="14.3190033"><ele>504.5</ele><time>2026-05-06T11:29:14.035Z</time></trkpt><trkpt lat="37.575855" lon="14.31931"><ele>502.0</ele><time>2026-05-06T11:29:15.036Z</time></trkpt><trkpt lat="37.5759133" lon="14.3196217"><ele>501.0</ele><time>2026-05-06T11:29:16.036Z</time></trkpt><trkpt lat="37.575965" lon="14.3199367"><ele>500.0</ele><time>2026-05-06T11:29:17.035Z</time></trkpt><trkpt lat="37.57603" lon="14.3202433"><ele>500.0</ele><time>2026-05-06T11:29:18.036Z</time></trkpt><trkpt lat="37.5760917" lon="14.32056"><ele>500.0</ele><time>2026-05-06T11:29:19.036Z</time></trkpt><trkpt lat="37.5761583" lon="14.3208683"><ele>498.0</ele><time>2026-05-06T11:29:20.036Z</time></trkpt><trkpt lat="37.5762267" lon="14.3211783"><ele>496.0</ele><time>2026-05-06T11:29:21.036Z</time></trkpt><trkpt lat="37.5762917" lon="14.321485"><ele>500.0</ele><time>2026-05-06T11:29:22.036Z</time></trkpt><trkpt lat="37.576355" lon="14.321795"><ele>504.0</ele><time>2026-05-06T11:29:23.036Z</time></trkpt><trkpt lat="37.57642" lon="14.3221083"><ele>505.5</ele><time>2026-05-06T11:29:24.036Z</time></trkpt><trkpt lat="37.576485" lon="14.3224183"><ele>507.0</ele><time>2026-05-06T11:29:25.036Z</time></trkpt><trkpt lat="37.57655" lon="14.32273"><ele>507.0</ele><time>2026-05-06T11:29:26.036Z</time></trkpt><trkpt lat="37.5766167" lon="14.3230433"><ele>507.0</ele><time>2026-05-06T11:29:27.036Z</time></trkpt><trkpt lat="37.5766783" lon="14.3233617"><ele>510.0</ele><time>2026-05-06T11:29:28.036Z</time></trkpt><trkpt lat="37.5767417" lon="14.3236767"><ele>513.0</ele><time>2026-05-06T11:29:29.035Z</time></trkpt><trkpt lat="37.5768117" lon="14.32399"><ele>513.5</ele><time>2026-05-06T11:29:30.036Z</time></trkpt><trkpt lat="37.5768817" lon="14.3242983"><ele>514.0</ele><time>2026-05-06T11:29:31.036Z</time></trkpt><trkpt lat="37.5769467" lon="14.3246117"><ele>514.5</ele><time>2026-05-06T11:29:32.035Z</time></trkpt><trkpt lat="37.5770117" lon="14.324925"><ele>515.0</ele><time>2026-05-06T11:29:33.036Z</time></trkpt><trkpt lat="37.5770733" lon="14.3252383"><ele>508.5</ele><time>2026-05-06T11:29:34.036Z</time></trkpt><trkpt lat="37.5771333" lon="14.32555"><ele>502.0</ele><time>2026-05-06T11:29:35.035Z</time></trkpt><trkpt lat="37.5771883" lon="14.3258567"><ele>500.5</ele><time>2026-05-06T11:29:36.035Z</time></trkpt><trkpt lat="37.5772383" lon="14.32617"><ele>499.0</ele><time>2026-05-06T11:29:37.035Z</time></trkpt><trkpt lat="37.5772767" lon="14.326485"><ele>496.5</ele><time>2026-05-06T11:29:38.035Z</time></trkpt><trkpt lat="37.5773067" lon="14.3268033"><ele>494.0</ele><time>2026-05-06T11:29:39.035Z</time></trkpt><trkpt lat="37.5773267" lon="14.327125"><ele>491.5</ele><time>2026-05-06T11:29:40.035Z</time></trkpt><trkpt lat="37.57734" lon="14.3274367"><ele>489.0</ele><time>2026-05-06T11:29:41.035Z</time></trkpt><trkpt lat="37.57735" lon="14.3277583"><ele>486.5</ele><time>2026-05-06T11:29:42.035Z</time></trkpt><trkpt lat="37.5773567" lon="14.3280767"><ele>484.0</ele><time>2026-05-06T11:29:43.035Z</time></trkpt><trkpt lat="37.577365" lon="14.328395"><ele>484.0</ele><time>2026-05-06T11:29:44.035Z</time></trkpt><trkpt lat="37.577375" lon="14.3287117"><ele>484.0</ele><time>2026-05-06T11:29:45.035Z</time></trkpt><trkpt lat="37.5773817" lon="14.3290317"><ele>482.0</ele><time>2026-05-06T11:29:46.035Z</time></trkpt><trkpt lat="37.5773867" lon="14.3293517"><ele>480.0</ele><time>2026-05-06T11:29:47.035Z</time></trkpt><trkpt lat="37.577395" lon="14.3296733"><ele>478.5</ele><time>2026-05-06T11:29:48.035Z</time></trkpt><trkpt lat="37.577405" lon="14.3299933"><ele>477.0</ele><time>2026-05-06T11:29:49.035Z</time></trkpt><trkpt lat="37.577415" lon="14.3303133"><ele>474.0</ele><time>2026-05-06T11:29:50.035Z</time></trkpt><trkpt lat="37.5774217" lon="14.330635"><ele>471.0</ele><time>2026-05-06T11:29:51.035Z</time></trkpt><trkpt lat="37.5774267" lon="14.3309567"><ele>471.0</ele><time>2026-05-06T11:29:52.035Z</time></trkpt><trkpt lat="37.57743" lon="14.3312783"><ele>471.0</ele><time>2026-05-06T11:29:53.035Z</time></trkpt><trkpt lat="37.5774383" lon="14.3315967"><ele>473.5</ele><time>2026-05-06T11:29:54.035Z</time></trkpt><trkpt lat="37.577445" lon="14.331915"><ele>476.0</ele><time>2026-05-06T11:29:55.035Z</time></trkpt><trkpt lat="37.5774483" lon="14.3322367"><ele>479.5</ele><time>2026-05-06T11:29:56.035Z</time></trkpt><trkpt lat="37.57745" lon="14.3325617"><ele>483.0</ele><time>2026-05-06T11:29:57.035Z</time></trkpt><trkpt lat="37.57746" lon="14.3328867"><ele>486.5</ele><time>2026-05-06T11:29:58.035Z</time></trkpt><trkpt lat="37.57747" lon="14.33321"><ele>490.0</ele><time>2026-05-06T11:29:59.035Z</time></trkpt><trkpt lat="37.5774783" lon="14.3335317"><ele>490.0</ele><time>2026-05-06T11:30:00.035Z</time></trkpt><trkpt lat="37.5774783" lon="14.33385"><ele>490.0</ele><time>2026-05-06T11:30:01.035Z</time></trkpt><trkpt lat="37.5774833" lon="14.334175"><ele>490.5</ele><time>2026-05-06T11:30:02.035Z</time></trkpt><trkpt lat="37.5774883" lon="14.3344967"><ele>491.0</ele><time>2026-05-06T11:30:03.034Z</time></trkpt><trkpt lat="37.5774933" lon="14.334815"><ele>491.5</ele><time>2026-05-06T11:30:04.035Z</time></trkpt><trkpt lat="37.577505" lon="14.3351333"><ele>492.0</ele><time>2026-05-06T11:30:05.035Z</time></trkpt><trkpt lat="37.5775133" lon="14.3354417"><ele>492.0</ele><time>2026-05-06T11:30:06.035Z</time></trkpt><trkpt lat="37.577515" lon="14.3357383"><ele>492.0</ele><time>2026-05-06T11:30:07.035Z</time></trkpt><trkpt lat="37.57752" lon="14.3360283"><ele>492.0</ele><time>2026-05-06T11:30:08.035Z</time></trkpt><trkpt lat="37.5775267" lon="14.3363067"><ele>492.0</ele><time>2026-05-06T11:30:09.035Z</time></trkpt><trkpt lat="37.5775333" lon="14.3365817"><ele>492.0</ele><time>2026-05-06T11:30:10.035Z</time></trkpt><trkpt lat="37.5775367" lon="14.33685"><ele>491.33333333333337</ele><time>2026-05-06T11:30:11.035Z</time></trkpt><trkpt lat="37.5775383" lon="14.3371117"><ele>490.6666666666667</ele><time>2026-05-06T11:30:12.035Z</time></trkpt><trkpt lat="37.5775433" lon="14.337365"><ele>490.0</ele><time>2026-05-06T11:30:13.035Z</time></trkpt><trkpt lat="37.5775383" lon="14.337605"><ele>488.0</ele><time>2026-05-06T11:30:14.035Z</time></trkpt><trkpt lat="37.5775417" lon="14.3378433"><ele>486.0</ele><time>2026-05-06T11:30:15.035Z</time></trkpt><trkpt lat="37.5775433" lon="14.33808"><ele>484.0</ele><time>2026-05-06T11:30:16.035Z</time></trkpt><trkpt lat="37.5775483" lon="14.33831"><ele>483.33333333333337</ele><time>2026-05-06T11:30:17.035Z</time></trkpt><trkpt lat="37.577555" lon="14.3385333"><ele>482.66666666666663</ele><time>2026-05-06T11:30:18.035Z</time></trkpt><trkpt lat="37.577555" lon="14.3387317"><ele>482.0</ele><time>2026-05-06T11:30:19.035Z</time></trkpt><trkpt lat="37.5775583" lon="14.3389183"><ele>483.0</ele><time>2026-05-06T11:30:20.035Z</time></trkpt><trkpt lat="37.5775583" lon="14.339085"><ele>484.0</ele><time>2026-05-06T11:30:21.035Z</time></trkpt><trkpt lat="37.5775517" lon="14.339235"><ele>485.0</ele><time>2026-05-06T11:30:22.035Z</time></trkpt><trkpt lat="37.5775317" lon="14.339375"><ele>486.0</ele><time>2026-05-06T11:30:23.035Z</time></trkpt><trkpt lat="37.5774867" lon="14.339495"><ele>486.0</ele><time>2026-05-06T11:30:24.035Z</time></trkpt><trkpt lat="37.57743" lon="14.339605"><ele>486.0</ele><time>2026-05-06T11:30:25.035Z</time></trkpt><trkpt lat="37.5773733" lon="14.3397067"><ele>486.0</ele><time>2026-05-06T11:30:26.035Z</time></trkpt><trkpt lat="37.5773133" lon="14.33981"><ele>486.0</ele><time>2026-05-06T11:30:27.035Z</time></trkpt><trkpt lat="37.5772583" lon="14.3398983"><ele>486.0</ele><time>2026-05-06T11:30:28.035Z</time></trkpt><trkpt lat="37.577205" lon="14.3399783"><ele>486.1666666666667</ele><time>2026-05-06T11:30:29.035Z</time></trkpt><trkpt lat="37.5771567" lon="14.340055"><ele>486.33333333333337</ele><time>2026-05-06T11:30:30.035Z</time></trkpt><trkpt lat="37.57711" lon="14.3401333"><ele>486.5</ele><time>2026-05-06T11:30:31.035Z</time></trkpt><trkpt lat="37.577065" lon="14.3402167"><ele>486.6666666666667</ele><time>2026-05-06T11:30:32.035Z</time></trkpt><trkpt lat="37.5770217" lon="14.3403"><ele>486.83333333333337</ele><time>2026-05-06T11:30:33.035Z</time></trkpt><trkpt lat="37.5769833" lon="14.3403967"><ele>487.0</ele><time>2026-05-06T11:30:34.035Z</time></trkpt><trkpt lat="37.5769417" lon="14.3404917"><ele>487.33333333333337</ele><time>2026-05-06T11:30:35.035Z</time></trkpt><trkpt lat="37.5769017" lon="14.3405917"><ele>487.6666666666667</ele><time>2026-05-06T11:30:36.035Z</time></trkpt><trkpt lat="37.5768733" lon="14.3406933"><ele>488.0</ele><time>2026-05-06T11:30:37.035Z</time></trkpt><trkpt lat="37.576855" lon="14.340795"><ele>488.33333333333337</ele><time>2026-05-06T11:30:38.035Z</time></trkpt><trkpt lat="37.576845" lon="14.3408967"><ele>488.6666666666667</ele><time>2026-05-06T11:30:39.035Z</time></trkpt><trkpt lat="37.5768417" lon="14.3410017"><ele>489.0</ele><time>2026-05-06T11:30:40.035Z</time></trkpt><trkpt lat="37.576845" lon="14.3411033"><ele>489.0</ele><time>2026-05-06T11:30:41.035Z</time></trkpt><trkpt lat="37.57685" lon="14.3412"><ele>489.0</ele><time>2026-05-06T11:30:42.035Z</time></trkpt><trkpt lat="37.5768567" lon="14.3412917"><ele>489.0</ele><time>2026-05-06T11:30:43.035Z</time></trkpt><trkpt lat="37.5768617" lon="14.3413783"><ele>489.0</ele><time>2026-05-06T11:30:44.035Z</time></trkpt><trkpt lat="37.5768833" lon="14.341535"><ele>489.0</ele><time>2026-05-06T11:30:46.035Z</time></trkpt><trkpt lat="37.57696" lon="14.3416467"><ele>488.2</ele><time>2026-05-06T11:30:48.035Z</time></trkpt><trkpt lat="37.5770633" lon="14.3416583"><ele>487.4</ele><time>2026-05-06T11:30:50.035Z</time></trkpt><trkpt lat="37.5771483" lon="14.3415917"><ele>486.6</ele><time>2026-05-06T11:30:52.035Z</time></trkpt><trkpt lat="37.577215" lon="14.3415033"><ele>485.8</ele><time>2026-05-06T11:30:54.035Z</time></trkpt><trkpt lat="37.5772533" lon="14.3413933"><ele>485.0</ele><time>2026-05-06T11:30:56.035Z</time></trkpt><trkpt lat="37.5772383" lon="14.341295"><ele>484.99999999999994</ele><time>2026-05-06T11:30:58.035Z</time></trkpt><trkpt lat="37.57716" lon="14.3413117"><ele>485.0</ele><time>2026-05-06T12:15:56.033Z</time></trkpt><trkpt lat="37.5772083" lon="14.3413667"><ele>485.0</ele><time>2026-05-06T12:16:10.033Z</time></trkpt><trkpt lat="37.577275" lon="14.3413467"><ele>485.0</ele><time>2026-05-06T12:16:12.033Z</time></trkpt><trkpt lat="37.5773217" lon="14.3412667"><ele>484.99999999999994</ele><time>2026-05-06T12:16:14.033Z</time></trkpt><trkpt lat="37.5773367" lon="14.3411417"><ele>485.0</ele><time>2026-05-06T12:16:16.033Z</time></trkpt><trkpt lat="37.5773383" lon="14.34099"><ele>485.00000000000006</ele><time>2026-05-06T12:16:18.033Z</time></trkpt><trkpt lat="37.5773217" lon="14.3409117"><ele>485.0</ele><time>2026-05-06T12:16:19.033Z</time></trkpt><trkpt lat="37.5772917" lon="14.34084"><ele>485.00000000000006</ele><time>2026-05-06T12:16:20.033Z</time></trkpt><trkpt lat="37.5772517" lon="14.3407733"><ele>485.00000000000006</ele><time>2026-05-06T12:16:21.033Z</time></trkpt><trkpt lat="37.5772133" lon="14.3407067"><ele>485.0</ele><time>2026-05-06T12:16:22.033Z</time></trkpt><trkpt lat="37.5771917" lon="14.34063"><ele>485.00000000000006</ele><time>2026-05-06T12:16:23.033Z</time></trkpt><trkpt lat="37.5771817" lon="14.3405483"><ele>485.00000000000006</ele><time>2026-05-06T12:16:24.033Z</time></trkpt><trkpt lat="37.5771933" lon="14.3404667"><ele>485.4</ele><time>2026-05-06T12:16:25.033Z</time></trkpt><trkpt lat="37.57722" lon="14.34039"><ele>485.8</ele><time>2026-05-06T12:16:26.033Z</time></trkpt><trkpt lat="37.5772917" lon="14.34028"><ele>486.20000000000005</ele><time>2026-05-06T12:16:28.033Z</time></trkpt><trkpt lat="37.577405" lon="14.3402417"><ele>486.6</ele><time>2026-05-06T12:16:30.033Z</time></trkpt><trkpt lat="37.5775167" lon="14.340305"><ele>487.0</ele><time>2026-05-06T12:16:32.033Z</time></trkpt><trkpt lat="37.57756" lon="14.34037"><ele>487.0</ele><time>2026-05-06T12:16:33.032Z</time></trkpt><trkpt lat="37.5775833" lon="14.340455"><ele>487.00000000000006</ele><time>2026-05-06T12:16:34.033Z</time></trkpt><trkpt lat="37.57758" lon="14.3405567"><ele>487.00000000000006</ele><time>2026-05-06T12:16:35.033Z</time></trkpt><trkpt lat="37.5775733" lon="14.3406833"><ele>487.0</ele><time>2026-05-06T12:16:36.033Z</time></trkpt><trkpt lat="37.5775717" lon="14.3408233"><ele>487.0</ele><time>2026-05-06T12:16:37.033Z</time></trkpt><trkpt lat="37.57758" lon="14.3409783"><ele>486.5</ele><time>2026-05-06T12:16:38.033Z</time></trkpt><trkpt lat="37.57759" lon="14.3411467"><ele>486.0</ele><time>2026-05-06T12:16:39.033Z</time></trkpt><trkpt lat="37.5775983" lon="14.3413317"><ele>485.5</ele><time>2026-05-06T12:16:40.033Z</time></trkpt><trkpt lat="37.57761" lon="14.3415333"><ele>485.0</ele><time>2026-05-06T12:16:41.033Z</time></trkpt><trkpt lat="37.5776167" lon="14.3417633"><ele>485.0</ele><time>2026-05-06T12:16:42.033Z</time></trkpt><trkpt lat="37.5776233" lon="14.342005"><ele>485.0</ele><time>2026-05-06T12:16:43.033Z</time></trkpt><trkpt lat="37.5776283" lon="14.3422633"><ele>485.0</ele><time>2026-05-06T12:16:44.032Z</time></trkpt><trkpt lat="37.577635" lon="14.342535"><ele>483.3333333333333</ele><time>2026-05-06T12:16:45.033Z</time></trkpt><trkpt lat="37.577635" lon="14.34281"><ele>481.66666666666663</ele><time>2026-05-06T12:16:46.033Z</time></trkpt><trkpt lat="37.57764" lon="14.343085"><ele>480.0</ele><time>2026-05-06T12:16:47.033Z</time></trkpt><trkpt lat="37.5776433" lon="14.3433567"><ele>479.33333333333337</ele><time>2026-05-06T12:16:48.033Z</time></trkpt><trkpt lat="37.57764" lon="14.3436333"><ele>478.6666666666667</ele><time>2026-05-06T12:16:49.033Z</time></trkpt><trkpt lat="37.57763" lon="14.3439033"><ele>478.0</ele><time>2026-05-06T12:16:50.033Z</time></trkpt><trkpt lat="37.5776167" lon="14.3441733"><ele>477.6666666666667</ele><time>2026-05-06T12:16:51.033Z</time></trkpt><trkpt lat="37.5776017" lon="14.3444417"><ele>477.33333333333337</ele><time>2026-05-06T12:16:52.033Z</time></trkpt><trkpt lat="37.5775783" lon="14.3447133"><ele>477.0</ele><time>2026-05-06T12:16:53.033Z</time></trkpt><trkpt lat="37.5775533" lon="14.3449767"><ele>475.33333333333337</ele><time>2026-05-06T12:16:54.033Z</time></trkpt><trkpt lat="37.5775183" lon="14.34524"><ele>473.6666666666667</ele><time>2026-05-06T12:16:55.033Z</time></trkpt><trkpt lat="37.577475" lon="14.3455017"><ele>472.0</ele><time>2026-05-06T12:16:56.033Z</time></trkpt><trkpt lat="37.5774233" lon="14.345755"><ele>470.33333333333337</ele><time>2026-05-06T12:16:57.033Z</time></trkpt><trkpt lat="37.577365" lon="14.34601"><ele>468.66666666666663</ele><time>2026-05-06T12:16:58.033Z</time></trkpt><trkpt lat="37.5773083" lon="14.3462617"><ele>467.0</ele><time>2026-05-06T12:16:59.033Z</time></trkpt><trkpt lat="37.5772417" lon="14.346515"><ele>466.66666666666663</ele><time>2026-05-06T12:17:00.032Z</time></trkpt><trkpt lat="37.57717" lon="14.346765"><ele>466.33333333333337</ele><time>2026-05-06T12:17:01.033Z</time></trkpt><trkpt lat="37.5770917" lon="14.347015"><ele>466.0</ele><time>2026-05-06T12:17:02.033Z</time></trkpt><trkpt lat="37.57701" lon="14.347265"><ele>468.33333333333337</ele><time>2026-05-06T12:17:03.033Z</time></trkpt><trkpt lat="37.5769217" lon="14.3475067"><ele>470.66666666666663</ele><time>2026-05-06T12:17:04.033Z</time></trkpt><trkpt lat="37.5768267" lon="14.3477433"><ele>473.0</ele><time>2026-05-06T12:17:05.033Z</time></trkpt><trkpt lat="37.57672" lon="14.347975"><ele>472.66666666666663</ele><time>2026-05-06T12:17:06.033Z</time></trkpt><trkpt lat="37.57661" lon="14.3482067"><ele>472.33333333333337</ele><time>2026-05-06T12:17:07.033Z</time></trkpt><trkpt lat="37.5765017" lon="14.3484267"><ele>472.0</ele><time>2026-05-06T12:17:08.033Z</time></trkpt><trkpt lat="37.5763833" lon="14.34865"><ele>472.0</ele><time>2026-05-06T12:17:09.033Z</time></trkpt><trkpt lat="37.57626" lon="14.34887"><ele>472.0</ele><time>2026-05-06T12:17:10.033Z</time></trkpt><trkpt lat="37.5761367" lon="14.3490833"><ele>472.0</ele><time>2026-05-06T12:17:11.032Z</time></trkpt><trkpt lat="37.57601" lon="14.3492917"><ele>469.0</ele><time>2026-05-06T12:17:12.033Z</time></trkpt><trkpt lat="37.5758767" lon="14.3494883"><ele>466.0</ele><time>2026-05-06T12:17:13.033Z</time></trkpt><trkpt lat="37.5757383" lon="14.3496817"><ele>463.0</ele><time>2026-05-06T12:17:14.033Z</time></trkpt><trkpt lat="37.5756" lon="14.34987"><ele>463.6666666666667</ele><time>2026-05-06T12:17:15.033Z</time></trkpt><trkpt lat="37.5754617" lon="14.350055"><ele>464.33333333333337</ele><time>2026-05-06T12:17:16.032Z</time></trkpt><trkpt lat="37.5753117" lon="14.3502317"><ele>465.0</ele><time>2026-05-06T12:17:17.033Z</time></trkpt><trkpt lat="37.5751617" lon="14.35041"><ele>464.66666666666663</ele><time>2026-05-06T12:17:18.033Z</time></trkpt><trkpt lat="37.5750083" lon="14.35058"><ele>464.3333333333333</ele><time>2026-05-06T12:17:19.033Z</time></trkpt><trkpt lat="37.574855" lon="14.3507483"><ele>464.0</ele><time>2026-05-06T12:17:20.033Z</time></trkpt><trkpt lat="37.5746983" lon="14.350925"><ele>464.0</ele><time>2026-05-06T12:17:21.033Z</time></trkpt><trkpt lat="37.5745333" lon="14.3511133"><ele>464.0</ele><time>2026-05-06T12:17:22.033Z</time></trkpt><trkpt lat="37.5743633" lon="14.3513"><ele>464.0</ele><time>2026-05-06T12:17:23.033Z</time></trkpt><trkpt lat="37.5741933" lon="14.3514967"><ele>465.5</ele><time>2026-05-06T12:17:24.032Z</time></trkpt><trkpt lat="37.5740183" lon="14.3516883"><ele>467.0</ele><time>2026-05-06T12:17:25.033Z</time></trkpt><trkpt lat="37.5738517" lon="14.35188"><ele>464.5</ele><time>2026-05-06T12:17:26.033Z</time></trkpt><trkpt lat="37.5736783" lon="14.352065"><ele>462.0</ele><time>2026-05-06T12:17:27.033Z</time></trkpt><trkpt lat="37.5735117" lon="14.3522583"><ele>462.0</ele><time>2026-05-06T12:17:28.033Z</time></trkpt><trkpt lat="37.5733433" lon="14.352445"><ele>462.0</ele><time>2026-05-06T12:17:29.032Z</time></trkpt><trkpt lat="37.5731717" lon="14.3526333"><ele>462.0</ele><time>2026-05-06T12:17:30.033Z</time></trkpt><trkpt lat="37.5729967" lon="14.3528183"><ele>462.0</ele><time>2026-05-06T12:17:31.033Z</time></trkpt><trkpt lat="37.572825" lon="14.3530067"><ele>458.0</ele><time>2026-05-06T12:17:32.032Z</time></trkpt><trkpt lat="37.5726483" lon="14.35319"><ele>454.0</ele><time>2026-05-06T12:17:33.033Z</time></trkpt><trkpt lat="37.5724767" lon="14.3533817"><ele>454.0</ele><time>2026-05-06T12:17:34.033Z</time></trkpt><trkpt lat="37.5723067" lon="14.3535683"><ele>454.0</ele><time>2026-05-06T12:17:35.033Z</time></trkpt><trkpt lat="37.572135" lon="14.3537567"><ele>452.5</ele><time>2026-05-06T12:17:36.033Z</time></trkpt><trkpt lat="37.5719667" lon="14.3539433"><ele>451.0</ele><time>2026-05-06T12:17:37.033Z</time></trkpt><trkpt lat="37.5717933" lon="14.3541333"><ele>451.0</ele><time>2026-05-06T12:17:38.033Z</time></trkpt><trkpt lat="37.571625" lon="14.35432"><ele>451.0</ele><time>2026-05-06T12:17:39.033Z</time></trkpt><trkpt lat="37.5714567" lon="14.3545067"><ele>451.0</ele><time>2026-05-06T12:17:40.033Z</time></trkpt><trkpt lat="37.5712867" lon="14.3546917"><ele>449.0</ele><time>2026-05-06T12:17:41.033Z</time></trkpt><trkpt lat="37.571115" lon="14.3548767"><ele>447.0</ele><time>2026-05-06T12:17:42.032Z</time></trkpt><trkpt lat="37.5709467" lon="14.355065"><ele>447.0</ele><time>2026-05-06T12:17:43.033Z</time></trkpt><trkpt lat="37.5707817" lon="14.3552517"><ele>447.0</ele><time>2026-05-06T12:17:44.033Z</time></trkpt><trkpt lat="37.5706183" lon="14.3554383"><ele>447.0</ele><time>2026-05-06T12:17:45.033Z</time></trkpt><trkpt lat="37.5704483" lon="14.3556283"><ele>447.0</ele><time>2026-05-06T12:17:46.033Z</time></trkpt><trkpt lat="37.5702767" lon="14.3558167"><ele>447.0</ele><time>2026-05-06T12:17:47.033Z</time></trkpt><trkpt lat="37.57011" lon="14.3560067"><ele>447.0</ele><time>2026-05-06T12:17:48.033Z</time></trkpt><trkpt lat="37.569935" lon="14.3561917"><ele>447.0</ele><time>2026-05-06T12:17:49.032Z</time></trkpt><trkpt lat="37.56976" lon="14.3563767"><ele>446.0</ele><time>2026-05-06T12:17:50.033Z</time></trkpt><trkpt lat="37.5695867" lon="14.35657"><ele>445.0</ele><time>2026-05-06T12:17:51.033Z</time></trkpt><trkpt lat="37.5694117" lon="14.3567533"><ele>445.0</ele><time>2026-05-06T12:17:52.033Z</time></trkpt><trkpt lat="37.5692383" lon="14.356945"><ele>445.0</ele><time>2026-05-06T12:17:53.033Z</time></trkpt><trkpt lat="37.5690733" lon="14.3571417"><ele>444.6666666666667</ele><time>2026-05-06T12:17:54.033Z</time></trkpt><trkpt lat="37.5689083" lon="14.3573283"><ele>444.33333333333337</ele><time>2026-05-06T12:17:55.033Z</time></trkpt><trkpt lat="37.568745" lon="14.357515"><ele>444.0</ele><time>2026-05-06T12:17:56.033Z</time></trkpt><trkpt lat="37.5685917" lon="14.3577"><ele>442.0</ele><time>2026-05-06T12:17:57.033Z</time></trkpt><trkpt lat="37.568425" lon="14.3578833"><ele>440.0</ele><time>2026-05-06T12:17:58.033Z</time></trkpt><trkpt lat="37.5682583" lon="14.3580617"><ele>438.0</ele><time>2026-05-06T12:17:59.033Z</time></trkpt><trkpt lat="37.5681" lon="14.35824"><ele>435.66666666666663</ele><time>2026-05-06T12:18:00.033Z</time></trkpt><trkpt lat="37.5679433" lon="14.3584267"><ele>433.3333333333333</ele><time>2026-05-06T12:18:01.033Z</time></trkpt><trkpt lat="37.567785" lon="14.3586133"><ele>431.0</ele><time>2026-05-06T12:18:02.033Z</time></trkpt><trkpt lat="37.567625" lon="14.35881"><ele>426.0</ele><time>2026-05-06T12:18:03.033Z</time></trkpt><trkpt lat="37.56747" lon="14.3590167"><ele>421.0</ele><time>2026-05-06T12:18:04.033Z</time></trkpt><trkpt lat="37.5673117" lon="14.3592283"><ele>421.0</ele><time>2026-05-06T12:18:05.033Z</time></trkpt><trkpt lat="37.5671667" lon="14.359445"><ele>421.0</ele><time>2026-05-06T12:18:06.033Z</time></trkpt><trkpt lat="37.5670167" lon="14.3596667"><ele>419.5</ele><time>2026-05-06T12:18:07.033Z</time></trkpt><trkpt lat="37.5668683" lon="14.3599"><ele>418.0</ele><time>2026-05-06T12:18:08.033Z</time></trkpt><trkpt lat="37.5667267" lon="14.3601383"><ele>418.0</ele><time>2026-05-06T12:18:09.032Z</time></trkpt><trkpt lat="37.56658" lon="14.36038"><ele>418.0</ele><time>2026-05-06T12:18:10.033Z</time></trkpt><trkpt lat="37.566445" lon="14.360625"><ele>420.0</ele><time>2026-05-06T12:18:11.033Z</time></trkpt><trkpt lat="37.5663167" lon="14.3608733"><ele>422.0</ele><time>2026-05-06T12:18:12.032Z</time></trkpt><trkpt lat="37.56619" lon="14.36113"><ele>416.0</ele><time>2026-05-06T12:18:13.033Z</time></trkpt><trkpt lat="37.5660717" lon="14.3613933"><ele>410.0</ele><time>2026-05-06T12:18:14.033Z</time></trkpt><trkpt lat="37.5659583" lon="14.3616617"><ele>410.0</ele><time>2026-05-06T12:18:15.033Z</time></trkpt><trkpt lat="37.565845" lon="14.3619333"><ele>410.0</ele><time>2026-05-06T12:18:16.033Z</time></trkpt><trkpt lat="37.5657367" lon="14.362215"><ele>408.5</ele><time>2026-05-06T12:18:17.033Z</time></trkpt><trkpt lat="37.5656317" lon="14.3624933"><ele>407.0</ele><time>2026-05-06T12:18:18.033Z</time></trkpt><trkpt lat="37.56553" lon="14.3627767"><ele>407.5</ele><time>2026-05-06T12:18:19.032Z</time></trkpt><trkpt lat="37.5654283" lon="14.3630583"><ele>408.0</ele><time>2026-05-06T12:18:20.033Z</time></trkpt><trkpt lat="37.565325" lon="14.3633467"><ele>402.0</ele><time>2026-05-06T12:18:21.033Z</time></trkpt><trkpt lat="37.5652217" lon="14.36363"><ele>396.0</ele><time>2026-05-06T12:18:22.033Z</time></trkpt><trkpt lat="37.5651167" lon="14.363915"><ele>396.0</ele><time>2026-05-06T12:18:23.033Z</time></trkpt><trkpt lat="37.5650117" lon="14.3642017"><ele>396.0</ele><time>2026-05-06T12:18:24.033Z</time></trkpt><trkpt lat="37.56491" lon="14.364495"><ele>395.5</ele><time>2026-05-06T12:18:25.033Z</time></trkpt><trkpt lat="37.5648067" lon="14.3647867"><ele>395.0</ele><time>2026-05-06T12:18:26.033Z</time></trkpt><trkpt lat="37.5647" lon="14.3650733"><ele>395.0</ele><time>2026-05-06T12:18:27.033Z</time></trkpt><trkpt lat="37.5645933" lon="14.365365"><ele>395.0</ele><time>2026-05-06T12:18:28.033Z</time></trkpt><trkpt lat="37.5644883" lon="14.3656583"><ele>395.5</ele><time>2026-05-06T12:18:29.033Z</time></trkpt><trkpt lat="37.5643833" lon="14.3659483"><ele>396.0</ele><time>2026-05-06T12:18:30.032Z</time></trkpt><trkpt lat="37.5642817" lon="14.3662433"><ele>398.0</ele><time>2026-05-06T12:18:31.032Z</time></trkpt><trkpt lat="37.5641783" lon="14.3665367"><ele>400.0</ele><time>2026-05-06T12:18:32.032Z</time></trkpt><trkpt lat="37.5640733" lon="14.366825"><ele>400.0</ele><time>2026-05-06T12:18:33.032Z</time></trkpt><trkpt lat="37.5639717" lon="14.367115"><ele>400.0</ele><time>2026-05-06T12:18:34.032Z</time></trkpt><trkpt lat="37.5638667" lon="14.3674067"><ele>396.5</ele><time>2026-05-06T12:18:35.032Z</time></trkpt><trkpt lat="37.5637633" lon="14.3677"><ele>393.0</ele><time>2026-05-06T12:18:36.032Z</time></trkpt><trkpt lat="37.563655" lon="14.367995"><ele>393.0</ele><time>2026-05-06T12:18:37.032Z</time></trkpt><trkpt lat="37.563545" lon="14.3682917"><ele>393.0</ele><time>2026-05-06T12:18:38.032Z</time></trkpt><trkpt lat="37.5634367" lon="14.3685883"><ele>395.0</ele><time>2026-05-06T12:18:39.032Z</time></trkpt><trkpt lat="37.5633317" lon="14.3688867"><ele>397.0</ele><time>2026-05-06T12:18:40.032Z</time></trkpt><trkpt lat="37.5632267" lon="14.3691817"><ele>397.0</ele><time>2026-05-06T12:18:41.032Z</time></trkpt><trkpt lat="37.5631217" lon="14.3694783"><ele>397.0</ele><time>2026-05-06T12:18:42.032Z</time></trkpt><trkpt lat="37.56301" lon="14.3697717"><ele>395.5</ele><time>2026-05-06T12:18:43.032Z</time></trkpt><trkpt lat="37.562905" lon="14.370065"><ele>394.0</ele><time>2026-05-06T12:18:44.032Z</time></trkpt><trkpt lat="37.5627983" lon="14.3703583"><ele>392.5</ele><time>2026-05-06T12:18:45.032Z</time></trkpt><trkpt lat="37.5626917" lon="14.370655"><ele>391.0</ele><time>2026-05-06T12:18:46.032Z</time></trkpt><trkpt lat="37.5625867" lon="14.37095"><ele>391.0</ele><time>2026-05-06T12:18:47.032Z</time></trkpt><trkpt lat="37.562485" lon="14.3712383"><ele>391.0</ele><time>2026-05-06T12:18:48.032Z</time></trkpt><trkpt lat="37.5623833" lon="14.3715217"><ele>387.0</ele><time>2026-05-06T12:18:49.032Z</time></trkpt><trkpt lat="37.5622817" lon="14.371795"><ele>383.0</ele><time>2026-05-06T12:18:50.032Z</time></trkpt><trkpt lat="37.5621833" lon="14.3720733"><ele>379.5</ele><time>2026-05-06T12:18:51.032Z</time></trkpt><trkpt lat="37.5620867" lon="14.3723533"><ele>376.0</ele><time>2026-05-06T12:18:52.032Z</time></trkpt><trkpt lat="37.561985" lon="14.3726267"><ele>375.5</ele><time>2026-05-06T12:18:53.032Z</time></trkpt><trkpt lat="37.5618833" lon="14.3728983"><ele>375.0</ele><time>2026-05-06T12:18:54.032Z</time></trkpt><trkpt lat="37.5617817" lon="14.37317"><ele>375.0</ele><time>2026-05-06T12:18:55.032Z</time></trkpt><trkpt lat="37.5616817" lon="14.3734417"><ele>375.0</ele><time>2026-05-06T12:18:56.032Z</time></trkpt><trkpt lat="37.5615833" lon="14.3737167"><ele>379.0</ele><time>2026-05-06T12:18:57.032Z</time></trkpt><trkpt lat="37.5614867" lon="14.37399"><ele>383.0</ele><time>2026-05-06T12:18:58.032Z</time></trkpt><trkpt lat="37.5613883" lon="14.3742633"><ele>383.0</ele><time>2026-05-06T12:18:59.032Z</time></trkpt><trkpt lat="37.5612917" lon="14.37454"><ele>383.0</ele><time>2026-05-06T12:19:00.032Z</time></trkpt><trkpt lat="37.5611967" lon="14.3748167"><ele>382.5</ele><time>2026-05-06T12:19:01.032Z</time></trkpt><trkpt lat="37.5611" lon="14.3750917"><ele>382.0</ele><time>2026-05-06T12:19:02.032Z</time></trkpt><trkpt lat="37.561005" lon="14.37537"><ele>383.5</ele><time>2026-05-06T12:19:03.032Z</time></trkpt><trkpt lat="37.5609233" lon="14.3756417"><ele>385.0</ele><time>2026-05-06T12:19:04.032Z</time></trkpt><trkpt lat="37.5608433" lon="14.375925"><ele>385.0</ele><time>2026-05-06T12:19:05.032Z</time></trkpt><trkpt lat="37.5607633" lon="14.3762167"><ele>385.0</ele><time>2026-05-06T12:19:06.032Z</time></trkpt><trkpt lat="37.5606983" lon="14.3765083"><ele>385.0</ele><time>2026-05-06T12:19:07.032Z</time></trkpt><trkpt lat="37.56064" lon="14.3768033"><ele>385.0</ele><time>2026-05-06T12:19:08.032Z</time></trkpt><trkpt lat="37.5605883" lon="14.3771017"><ele>384.0</ele><time>2026-05-06T12:19:09.032Z</time></trkpt><trkpt lat="37.5605467" lon="14.3774017"><ele>383.0</ele><time>2026-05-06T12:19:10.032Z</time></trkpt><trkpt lat="37.5605167" lon="14.3777"><ele>383.0</ele><time>2026-05-06T12:19:11.032Z</time></trkpt><trkpt lat="37.5604967" lon="14.378005"><ele>383.0</ele><time>2026-05-06T12:19:12.031Z</time></trkpt><trkpt lat="37.5604833" lon="14.3783083"><ele>380.5</ele><time>2026-05-06T12:19:13.032Z</time></trkpt><trkpt lat="37.5604767" lon="14.3786067"><ele>378.0</ele><time>2026-05-06T12:19:14.032Z</time></trkpt><trkpt lat="37.5604733" lon="14.3789083"><ele>378.0</ele><time>2026-05-06T12:19:15.032Z</time></trkpt><trkpt lat="37.5604867" lon="14.379205"><ele>378.0</ele><time>2026-05-06T12:19:16.032Z</time></trkpt><trkpt lat="37.5605083" lon="14.3795017"><ele>375.5</ele><time>2026-05-06T12:19:17.032Z</time></trkpt><trkpt lat="37.5605333" lon="14.3798"><ele>373.0</ele><time>2026-05-06T12:19:18.032Z</time></trkpt><trkpt lat="37.56057" lon="14.3800983"><ele>373.0</ele><time>2026-05-06T12:19:19.032Z</time></trkpt><trkpt lat="37.560615" lon="14.3803933"><ele>373.0</ele><time>2026-05-06T12:19:20.032Z</time></trkpt><trkpt lat="37.5606683" lon="14.380685"><ele>369.5</ele><time>2026-05-06T12:19:21.032Z</time></trkpt><trkpt lat="37.56073" lon="14.3809783"><ele>366.0</ele><time>2026-05-06T12:19:22.032Z</time></trkpt><trkpt lat="37.5607883" lon="14.381265"><ele>367.0</ele><time>2026-05-06T12:19:23.031Z</time></trkpt><trkpt lat="37.56085" lon="14.381555"><ele>368.0</ele><time>2026-05-06T12:19:24.032Z</time></trkpt><trkpt lat="37.5609133" lon="14.38185"><ele>368.0</ele><time>2026-05-06T12:19:25.032Z</time></trkpt><trkpt lat="37.5609783" lon="14.3821333"><ele>368.0</ele><time>2026-05-06T12:19:26.032Z</time></trkpt><trkpt lat="37.561045" lon="14.38242"><ele>367.5</ele><time>2026-05-06T12:19:27.032Z</time></trkpt><trkpt lat="37.5611117" lon="14.3827117"><ele>367.0</ele><time>2026-05-06T12:19:28.032Z</time></trkpt><trkpt lat="37.5611783" lon="14.3830033"><ele>368.0</ele><time>2026-05-06T12:19:29.032Z</time></trkpt><trkpt lat="37.5612417" lon="14.383295"><ele>369.0</ele><time>2026-05-06T12:19:30.032Z</time></trkpt><trkpt lat="37.5613033" lon="14.3835867"><ele>367.0</ele><time>2026-05-06T12:19:31.032Z</time></trkpt><trkpt lat="37.5613683" lon="14.3838733"><ele>365.0</ele><time>2026-05-06T12:19:32.031Z</time></trkpt><trkpt lat="37.5614317" lon="14.3841633"><ele>365.0</ele><time>2026-05-06T12:19:33.032Z</time></trkpt><trkpt lat="37.5615" lon="14.3844483"><ele>365.0</ele><time>2026-05-06T12:19:34.031Z</time></trkpt><trkpt lat="37.561565" lon="14.38474"><ele>362.0</ele><time>2026-05-06T12:19:35.032Z</time></trkpt><trkpt lat="37.56163" lon="14.3850283"><ele>359.0</ele><time>2026-05-06T12:19:36.032Z</time></trkpt><trkpt lat="37.561695" lon="14.385315"><ele>357.5</ele><time>2026-05-06T12:19:37.032Z</time></trkpt><trkpt lat="37.5617633" lon="14.385605"><ele>356.0</ele><time>2026-05-06T12:19:38.032Z</time></trkpt><trkpt lat="37.5618267" lon="14.3858967"><ele>356.0</ele><time>2026-05-06T12:19:39.032Z</time></trkpt><trkpt lat="37.5618883" lon="14.38619"><ele>356.0</ele><time>2026-05-06T12:19:40.032Z</time></trkpt><trkpt lat="37.5619533" lon="14.3864817"><ele>353.5</ele><time>2026-05-06T12:19:41.032Z</time></trkpt><trkpt lat="37.56202" lon="14.386765"><ele>351.0</ele><time>2026-05-06T12:19:42.032Z</time></trkpt><trkpt lat="37.56209" lon="14.3870567"><ele>348.5</ele><time>2026-05-06T12:19:43.032Z</time></trkpt><trkpt lat="37.5621517" lon="14.3873467"><ele>346.0</ele><time>2026-05-06T12:19:44.032Z</time></trkpt><trkpt lat="37.5622167" lon="14.38763"><ele>346.0</ele><time>2026-05-06T12:19:45.032Z</time></trkpt><trkpt lat="37.5622817" lon="14.3879167"><ele>346.0</ele><time>2026-05-06T12:19:46.032Z</time></trkpt><trkpt lat="37.5623483" lon="14.3882067"><ele>346.5</ele><time>2026-05-06T12:19:47.031Z</time></trkpt><trkpt lat="37.5624183" lon="14.3884933"><ele>347.0</ele><time>2026-05-06T12:19:48.032Z</time></trkpt><trkpt lat="37.562485" lon="14.3887833"><ele>344.0</ele><time>2026-05-06T12:19:49.032Z</time></trkpt><trkpt lat="37.56255" lon="14.3890733"><ele>341.0</ele><time>2026-05-06T12:19:50.032Z</time></trkpt><trkpt lat="37.5626167" lon="14.389375"><ele>341.0</ele><time>2026-05-06T12:19:51.032Z</time></trkpt><trkpt lat="37.5626767" lon="14.389665"><ele>341.0</ele><time>2026-05-06T12:19:52.032Z</time></trkpt><trkpt lat="37.5627483" lon="14.389955"><ele>340.5</ele><time>2026-05-06T12:19:53.032Z</time></trkpt><trkpt lat="37.5628117" lon="14.3902433"><ele>340.0</ele><time>2026-05-06T12:19:54.032Z</time></trkpt><trkpt lat="37.562875" lon="14.3905383"><ele>340.0</ele><time>2026-05-06T12:19:55.032Z</time></trkpt><trkpt lat="37.5629433" lon="14.3908283"><ele>340.0</ele><time>2026-05-06T12:19:56.032Z</time></trkpt><trkpt lat="37.5630033" lon="14.3911183"><ele>338.5</ele><time>2026-05-06T12:19:57.032Z</time></trkpt><trkpt lat="37.5630683" lon="14.3914083"><ele>337.0</ele><time>2026-05-06T12:19:58.032Z</time></trkpt><trkpt lat="37.5631367" lon="14.3916967"><ele>337.0</ele><time>2026-05-06T12:19:59.032Z</time></trkpt><trkpt lat="37.5632" lon="14.39199"><ele>337.0</ele><time>2026-05-06T12:20:00.032Z</time></trkpt><trkpt lat="37.5632633" lon="14.3922767"><ele>336.0</ele><time>2026-05-06T12:20:01.032Z</time></trkpt><trkpt lat="37.5633283" lon="14.3925683"><ele>335.0</ele><time>2026-05-06T12:20:02.032Z</time></trkpt><trkpt lat="37.5633967" lon="14.392855"><ele>333.5</ele><time>2026-05-06T12:20:03.032Z</time></trkpt><trkpt lat="37.5634617" lon="14.3931417"><ele>332.0</ele><time>2026-05-06T12:20:04.032Z</time></trkpt><trkpt lat="37.56353" lon="14.39343"><ele>332.0</ele><time>2026-05-06T12:20:05.032Z</time></trkpt><trkpt lat="37.5635933" lon="14.3937217"><ele>332.0</ele><time>2026-05-06T12:20:06.032Z</time></trkpt><trkpt lat="37.5636517" lon="14.3940133"><ele>332.0</ele><time>2026-05-06T12:20:07.032Z</time></trkpt><trkpt lat="37.56372" lon="14.3942983"><ele>332.0</ele><time>2026-05-06T12:20:08.032Z</time></trkpt><trkpt lat="37.563785" lon="14.3945883"><ele>333.5</ele><time>2026-05-06T12:20:09.032Z</time></trkpt><trkpt lat="37.5638483" lon="14.3948767"><ele>335.0</ele><time>2026-05-06T12:20:10.032Z</time></trkpt><trkpt lat="37.563915" lon="14.3951617"><ele>335.0</ele><time>2026-05-06T12:20:11.032Z</time></trkpt><trkpt lat="37.5639817" lon="14.3954533"><ele>335.0</ele><time>2026-05-06T12:20:12.032Z</time></trkpt><trkpt lat="37.5640417" lon="14.395745"><ele>332.5</ele><time>2026-05-06T12:20:13.032Z</time></trkpt><trkpt lat="37.564105" lon="14.3960333"><ele>330.0</ele><time>2026-05-06T12:20:14.032Z</time></trkpt><trkpt lat="37.5641733" lon="14.3963217"><ele>327.0</ele><time>2026-05-06T12:20:15.032Z</time></trkpt><trkpt lat="37.5642383" lon="14.39661"><ele>324.0</ele><time>2026-05-06T12:20:16.032Z</time></trkpt><trkpt lat="37.5643033" lon="14.3968967"><ele>324.5</ele><time>2026-05-06T12:20:17.032Z</time></trkpt><trkpt lat="37.56437" lon="14.3971867"><ele>325.0</ele><time>2026-05-06T12:20:18.032Z</time></trkpt><trkpt lat="37.5644317" lon="14.3974767"><ele>325.0</ele><time>2026-05-06T12:20:19.031Z</time></trkpt><trkpt lat="37.5644967" lon="14.39776"><ele>325.0</ele><time>2026-05-06T12:20:20.032Z</time></trkpt><trkpt lat="37.5645617" lon="14.3980533"><ele>325.0</ele><time>2026-05-06T12:20:21.032Z</time></trkpt><trkpt lat="37.5646283" lon="14.398345"><ele>325.0</ele><time>2026-05-06T12:20:22.032Z</time></trkpt><trkpt lat="37.5646967" lon="14.3986317"><ele>324.0</ele><time>2026-05-06T12:20:23.032Z</time></trkpt><trkpt lat="37.5647617" lon="14.398915"><ele>323.0</ele><time>2026-05-06T12:20:24.032Z</time></trkpt><trkpt lat="37.5648333" lon="14.3992067"><ele>323.0</ele><time>2026-05-06T12:20:25.032Z</time></trkpt><trkpt lat="37.5649017" lon="14.3994983"><ele>323.0</ele><time>2026-05-06T12:20:26.032Z</time></trkpt><trkpt lat="37.5649683" lon="14.3997867"><ele>323.0</ele><time>2026-05-06T12:20:27.032Z</time></trkpt><trkpt lat="37.56503" lon="14.4000767"><ele>323.0</ele><time>2026-05-06T12:20:28.032Z</time></trkpt><trkpt lat="37.5650883" lon="14.400365"><ele>322.0</ele><time>2026-05-06T12:20:29.031Z</time></trkpt><trkpt lat="37.5651533" lon="14.4006567"><ele>321.0</ele><time>2026-05-06T12:20:30.032Z</time></trkpt><trkpt lat="37.5652217" lon="14.4009483"><ele>321.0</ele><time>2026-05-06T12:20:31.032Z</time></trkpt><trkpt lat="37.565295" lon="14.4012517"><ele>321.0</ele><time>2026-05-06T12:20:32.032Z</time></trkpt><trkpt lat="37.5653683" lon="14.4015717"><ele>321.5</ele><time>2026-05-06T12:20:33.032Z</time></trkpt><trkpt lat="37.5654467" lon="14.4019067"><ele>322.0</ele><time>2026-05-06T12:20:34.032Z</time></trkpt><trkpt lat="37.5655283" lon="14.4022617"><ele>321.0</ele><time>2026-05-06T12:20:35.032Z</time></trkpt><trkpt lat="37.56561" lon="14.40261"><ele>320.0</ele><time>2026-05-06T12:20:36.032Z</time></trkpt><trkpt lat="37.565695" lon="14.4029633"><ele>316.5</ele><time>2026-05-06T12:20:37.032Z</time></trkpt><trkpt lat="37.5657783" lon="14.4033317"><ele>313.0</ele><time>2026-05-06T12:20:38.032Z</time></trkpt><trkpt lat="37.56586" lon="14.4037033"><ele>312.0</ele><time>2026-05-06T12:20:39.032Z</time></trkpt><trkpt lat="37.565935" lon="14.404065"><ele>311.0</ele><time>2026-05-06T12:20:40.032Z</time></trkpt><trkpt lat="37.5660167" lon="14.40443"><ele>309.0</ele><time>2026-05-06T12:20:41.031Z</time></trkpt><trkpt lat="37.5661017" lon="14.4047933"><ele>307.0</ele><time>2026-05-06T12:20:42.032Z</time></trkpt><trkpt lat="37.56618" lon="14.40515"><ele>309.5</ele><time>2026-05-06T12:20:43.032Z</time></trkpt><trkpt lat="37.5662633" lon="14.405505"><ele>312.0</ele><time>2026-05-06T12:20:44.032Z</time></trkpt><trkpt lat="37.5663433" lon="14.405865"><ele>312.0</ele><time>2026-05-06T12:20:45.032Z</time></trkpt><trkpt lat="37.5664233" lon="14.4062267"><ele>312.0</ele><time>2026-05-06T12:20:46.032Z</time></trkpt><trkpt lat="37.5665067" lon="14.4065917"><ele>312.0</ele><time>2026-05-06T12:20:47.032Z</time></trkpt><trkpt lat="37.56659" lon="14.40695"><ele>312.0</ele><time>2026-05-06T12:20:48.032Z</time></trkpt><trkpt lat="37.5666717" lon="14.4073117"><ele>312.0</ele><time>2026-05-06T12:20:49.032Z</time></trkpt><trkpt lat="37.5667517" lon="14.4076767"><ele>312.0</ele><time>2026-05-06T12:20:50.031Z</time></trkpt><trkpt lat="37.566835" lon="14.4080417"><ele>311.5</ele><time>2026-05-06T12:20:51.032Z</time></trkpt><trkpt lat="37.56692" lon="14.408405"><ele>311.0</ele><time>2026-05-06T12:20:52.032Z</time></trkpt><trkpt lat="37.567" lon="14.4087683"><ele>309.5</ele><time>2026-05-06T12:20:53.032Z</time></trkpt><trkpt lat="37.5670833" lon="14.4091333"><ele>308.0</ele><time>2026-05-06T12:20:54.032Z</time></trkpt><trkpt lat="37.567165" lon="14.4094883"><ele>309.0</ele><time>2026-05-06T12:20:55.032Z</time></trkpt><trkpt lat="37.5672467" lon="14.40985"><ele>310.0</ele><time>2026-05-06T12:20:56.032Z</time></trkpt><trkpt lat="37.5673233" lon="14.4102117"><ele>311.5</ele><time>2026-05-06T12:20:57.032Z</time></trkpt><trkpt lat="37.5674117" lon="14.41057"><ele>313.0</ele><time>2026-05-06T12:20:58.032Z</time></trkpt><trkpt lat="37.5675033" lon="14.410925"><ele>313.0</ele><time>2026-05-06T12:20:59.032Z</time></trkpt><trkpt lat="37.5676033" lon="14.4112717"><ele>313.0</ele><time>2026-05-06T12:21:00.031Z</time></trkpt><trkpt lat="37.5677133" lon="14.4116133"><ele>311.5</ele><time>2026-05-06T12:21:01.032Z</time></trkpt><trkpt lat="37.567825" lon="14.4119417"><ele>310.0</ele><time>2026-05-06T12:21:02.032Z</time></trkpt><trkpt lat="37.5679433" lon="14.4122383"><ele>307.0</ele><time>2026-05-06T12:21:03.032Z</time></trkpt><trkpt lat="37.5680717" lon="14.4125217"><ele>304.0</ele><time>2026-05-06T12:21:04.032Z</time></trkpt><trkpt lat="37.5682033" lon="14.4128017"><ele>303.0</ele><time>2026-05-06T12:21:05.032Z</time></trkpt><trkpt lat="37.5683367" lon="14.4130783"><ele>302.0</ele><time>2026-05-06T12:21:06.032Z</time></trkpt><trkpt lat="37.5684783" lon="14.4133517"><ele>302.0</ele><time>2026-05-06T12:21:07.032Z</time></trkpt><trkpt lat="37.56863" lon="14.41362"><ele>302.0</ele><time>2026-05-06T12:21:08.032Z</time></trkpt><trkpt lat="37.5687867" lon="14.413895"><ele>299.5</ele><time>2026-05-06T12:21:09.032Z</time></trkpt><trkpt lat="37.5689417" lon="14.4141667"><ele>297.0</ele><time>2026-05-06T12:21:10.032Z</time></trkpt><trkpt lat="37.5690967" lon="14.4144333"><ele>299.0</ele><time>2026-05-06T12:21:11.032Z</time></trkpt><trkpt lat="37.5692533" lon="14.4147033"><ele>301.0</ele><time>2026-05-06T12:21:12.032Z</time></trkpt><trkpt lat="37.5694133" lon="14.41498"><ele>302.5</ele><time>2026-05-06T12:21:13.032Z</time></trkpt><trkpt lat="37.5695667" lon="14.41526"><ele>304.0</ele><time>2026-05-06T12:21:14.032Z</time></trkpt><trkpt lat="37.5697283" lon="14.41555"><ele>304.0</ele><time>2026-05-06T12:21:15.032Z</time></trkpt><trkpt lat="37.5698983" lon="14.415845"><ele>304.0</ele><time>2026-05-06T12:21:16.032Z</time></trkpt><trkpt lat="37.5700667" lon="14.41615"><ele>302.0</ele><time>2026-05-06T12:21:17.032Z</time></trkpt><trkpt lat="37.5702333" lon="14.41645"><ele>300.0</ele><time>2026-05-06T12:21:18.032Z</time></trkpt><trkpt lat="37.5704" lon="14.4167517"><ele>300.0</ele><time>2026-05-06T12:21:19.032Z</time></trkpt><trkpt lat="37.5705667" lon="14.4170633"><ele>300.0</ele><time>2026-05-06T12:21:20.032Z</time></trkpt><trkpt lat="37.5707283" lon="14.4173717"><ele>299.5</ele><time>2026-05-06T12:21:21.032Z</time></trkpt><trkpt lat="37.5708967" lon="14.4176767"><ele>299.0</ele><time>2026-05-06T12:21:22.032Z</time></trkpt><trkpt lat="37.5710667" lon="14.41798"><ele>297.0</ele><time>2026-05-06T12:21:23.032Z</time></trkpt><trkpt lat="37.571235" lon="14.4182833"><ele>295.0</ele><time>2026-05-06T12:21:24.032Z</time></trkpt><trkpt lat="37.5714083" lon="14.4185883"><ele>294.0</ele><time>2026-05-06T12:21:25.032Z</time></trkpt><trkpt lat="37.5715767" lon="14.4188917"><ele>293.0</ele><time>2026-05-06T12:21:26.032Z</time></trkpt><trkpt lat="37.5717483" lon="14.419195"><ele>293.0</ele><time>2026-05-06T12:21:27.032Z</time></trkpt><trkpt lat="37.5719167" lon="14.4195"><ele>293.0</ele><time>2026-05-06T12:21:28.031Z</time></trkpt><trkpt lat="37.57209" lon="14.4198"><ele>295.5</ele><time>2026-05-06T12:21:29.032Z</time></trkpt><trkpt lat="37.5722567" lon="14.4201017"><ele>298.0</ele><time>2026-05-06T12:21:30.032Z</time></trkpt><trkpt lat="37.572425" lon="14.420405"><ele>295.0</ele><time>2026-05-06T12:21:31.032Z</time></trkpt><trkpt lat="37.572595" lon="14.4207133"><ele>292.0</ele><time>2026-05-06T12:21:32.032Z</time></trkpt><trkpt lat="37.5727583" lon="14.4210183"><ele>297.0</ele><time>2026-05-06T12:21:33.032Z</time></trkpt><trkpt lat="37.5729167" lon="14.4213"><ele>302.0</ele><time>2026-05-06T12:21:34.032Z</time></trkpt><trkpt lat="37.5730667" lon="14.4215733"><ele>302.0</ele><time>2026-05-06T12:21:35.032Z</time></trkpt><trkpt lat="37.57321" lon="14.4218267"><ele>302.0</ele><time>2026-05-06T12:21:36.032Z</time></trkpt><trkpt lat="37.57335" lon="14.4220833"><ele>299.0</ele><time>2026-05-06T12:21:37.032Z</time></trkpt><trkpt lat="37.5734867" lon="14.4223333"><ele>296.0</ele><time>2026-05-06T12:21:38.032Z</time></trkpt><trkpt lat="37.5736283" lon="14.4225767"><ele>296.0</ele><time>2026-05-06T12:21:39.032Z</time></trkpt><trkpt lat="37.5737717" lon="14.4228233"><ele>296.0</ele><time>2026-05-06T12:21:40.032Z</time></trkpt><trkpt lat="37.5739117" lon="14.423075"><ele>294.0</ele><time>2026-05-06T12:21:41.032Z</time></trkpt><trkpt lat="37.5740583" lon="14.4233283"><ele>292.0</ele><time>2026-05-06T12:21:42.032Z</time></trkpt><trkpt lat="37.5742017" lon="14.42359"><ele>292.5</ele><time>2026-05-06T12:21:43.031Z</time></trkpt><trkpt lat="37.574345" lon="14.423845"><ele>293.0</ele><time>2026-05-06T12:21:44.032Z</time></trkpt><trkpt lat="37.57449" lon="14.42411"><ele>295.0</ele><time>2026-05-06T12:21:45.032Z</time></trkpt><trkpt lat="37.5746283" lon="14.42438"><ele>297.0</ele><time>2026-05-06T12:21:46.032Z</time></trkpt><trkpt lat="37.574765" lon="14.4246567"><ele>297.0</ele><time>2026-05-06T12:21:47.032Z</time></trkpt><trkpt lat="37.5748967" lon="14.4249467"><ele>297.0</ele><time>2026-05-06T12:21:48.032Z</time></trkpt><trkpt lat="37.5750233" lon="14.4252417"><ele>293.5</ele><time>2026-05-06T12:21:49.032Z</time></trkpt><trkpt lat="37.5751483" lon="14.4255333"><ele>290.0</ele><time>2026-05-06T12:21:50.032Z</time></trkpt><trkpt lat="37.5752733" lon="14.4258233"><ele>291.0</ele><time>2026-05-06T12:21:51.032Z</time></trkpt><trkpt lat="37.5753917" lon="14.4261217"><ele>292.0</ele><time>2026-05-06T12:21:52.032Z</time></trkpt><trkpt lat="37.575505" lon="14.4264333"><ele>292.0</ele><time>2026-05-06T12:21:53.032Z</time></trkpt><trkpt lat="37.5756117" lon="14.4267567"><ele>292.0</ele><time>2026-05-06T12:21:54.032Z</time></trkpt><trkpt lat="37.575715" lon="14.4270917"><ele>291.5</ele><time>2026-05-06T12:21:55.032Z</time></trkpt><trkpt lat="37.5758183" lon="14.4274417"><ele>291.0</ele><time>2026-05-06T12:21:56.032Z</time></trkpt><trkpt lat="37.5759133" lon="14.4278033"><ele>286.0</ele><time>2026-05-06T12:21:57.032Z</time></trkpt><trkpt lat="37.5760067" lon="14.4281683"><ele>281.0</ele><time>2026-05-06T12:21:58.032Z</time></trkpt><trkpt lat="37.5760933" lon="14.428535"><ele>280.5</ele><time>2026-05-06T12:21:59.032Z</time></trkpt><trkpt lat="37.5761783" lon="14.4288983"><ele>280.0</ele><time>2026-05-06T12:22:00.032Z</time></trkpt><trkpt lat="37.576255" lon="14.429275"><ele>280.5</ele><time>2026-05-06T12:22:01.032Z</time></trkpt><trkpt lat="37.5763283" lon="14.4296617"><ele>281.0</ele><time>2026-05-06T12:22:02.032Z</time></trkpt><trkpt lat="37.576395" lon="14.4300533"><ele>281.0</ele><time>2026-05-06T12:22:03.032Z</time></trkpt><trkpt lat="37.576465" lon="14.43045"><ele>281.0</ele><time>2026-05-06T12:22:04.032Z</time></trkpt><trkpt lat="37.576535" lon="14.43084"><ele>281.5</ele><time>2026-05-06T12:22:05.032Z</time></trkpt><trkpt lat="37.576605" lon="14.4312317"><ele>282.0</ele><time>2026-05-06T12:22:06.032Z</time></trkpt><trkpt lat="37.5766667" lon="14.4316233"><ele>282.5</ele><time>2026-05-06T12:22:07.032Z</time></trkpt><trkpt lat="37.5767217" lon="14.4320183"><ele>283.0</ele><time>2026-05-06T12:22:08.032Z</time></trkpt><trkpt lat="37.5767667" lon="14.43241"><ele>283.5</ele><time>2026-05-06T12:22:09.032Z</time></trkpt><trkpt lat="37.5768" lon="14.4328017"><ele>284.0</ele><time>2026-05-06T12:22:10.032Z</time></trkpt><trkpt lat="37.57683" lon="14.4331883"><ele>283.0</ele><time>2026-05-06T12:22:11.032Z</time></trkpt><trkpt lat="37.5768467" lon="14.4335767"><ele>282.0</ele><time>2026-05-06T12:22:12.032Z</time></trkpt><trkpt lat="37.5768533" lon="14.4339667"><ele>282.0</ele><time>2026-05-06T12:22:13.032Z</time></trkpt><trkpt lat="37.57685" lon="14.43436"><ele>282.0</ele><time>2026-05-06T12:22:14.032Z</time></trkpt><trkpt lat="37.576845" lon="14.43475"><ele>282.0</ele><time>2026-05-06T12:22:15.032Z</time></trkpt><trkpt lat="37.5768233" lon="14.43514"><ele>282.0</ele><time>2026-05-06T12:22:16.031Z</time></trkpt><trkpt lat="37.5768033" lon="14.4355267"><ele>282.0</ele><time>2026-05-06T12:22:17.032Z</time></trkpt><trkpt lat="37.5767767" lon="14.4359133"><ele>282.0</ele><time>2026-05-06T12:22:18.032Z</time></trkpt><trkpt lat="37.5767333" lon="14.436305"><ele>278.5</ele><time>2026-05-06T12:22:19.032Z</time></trkpt><trkpt lat="37.576685" lon="14.43669"><ele>275.0</ele><time>2026-05-06T12:22:20.032Z</time></trkpt><trkpt lat="37.57663" lon="14.4370717"><ele>272.5</ele><time>2026-05-06T12:22:21.032Z</time></trkpt><trkpt lat="37.5765667" lon="14.437455"><ele>270.0</ele><time>2026-05-06T12:22:22.031Z</time></trkpt><trkpt lat="37.5764967" lon="14.4378317"><ele>268.5</ele><time>2026-05-06T12:22:23.032Z</time></trkpt><trkpt lat="37.576425" lon="14.4381883"><ele>267.0</ele><time>2026-05-06T12:22:24.032Z</time></trkpt><trkpt lat="37.57635" lon="14.4385317"><ele>267.0</ele><time>2026-05-06T12:22:25.032Z</time></trkpt><trkpt lat="37.5762683" lon="14.43886"><ele>267.0</ele><time>2026-05-06T12:22:26.032Z</time></trkpt><trkpt lat="37.5761833" lon="14.4391883"><ele>267.0</ele><time>2026-05-06T12:22:27.032Z</time></trkpt><trkpt lat="37.5760967" lon="14.4395183"><ele>267.0</ele><time>2026-05-06T12:22:28.032Z</time></trkpt><trkpt lat="37.5760067" lon="14.4398483"><ele>267.0</ele><time>2026-05-06T12:22:29.032Z</time></trkpt><trkpt lat="37.5759183" lon="14.4401833"><ele>267.0</ele><time>2026-05-06T12:22:30.032Z</time></trkpt><trkpt lat="37.5758267" lon="14.440515"><ele>267.0</ele><time>2026-05-06T12:22:31.032Z</time></trkpt><trkpt lat="37.5757367" lon="14.4408483"><ele>267.0</ele><time>2026-05-06T12:22:32.032Z</time></trkpt><trkpt lat="37.5756533" lon="14.4411933"><ele>266.5</ele><time>2026-05-06T12:22:33.032Z</time></trkpt><trkpt lat="37.5755583" lon="14.441525"><ele>266.0</ele><time>2026-05-06T12:22:34.032Z</time></trkpt><trkpt lat="37.575465" lon="14.441855"><ele>265.5</ele><time>2026-05-06T12:22:35.032Z</time></trkpt><trkpt lat="37.575375" lon="14.442185"><ele>265.0</ele><time>2026-05-06T12:22:36.032Z</time></trkpt><trkpt lat="37.5752817" lon="14.4425217"><ele>267.0</ele><time>2026-05-06T12:22:37.032Z</time></trkpt><trkpt lat="37.5751933" lon="14.4428467"><ele>269.0</ele><time>2026-05-06T12:22:38.032Z</time></trkpt><trkpt lat="37.57511" lon="14.4431583"><ele>270.0</ele><time>2026-05-06T12:22:39.032Z</time></trkpt><trkpt lat="37.5750333" lon="14.4434483"><ele>271.0</ele><time>2026-05-06T12:22:40.032Z</time></trkpt><trkpt lat="37.574955" lon="14.4437283"><ele>273.0</ele><time>2026-05-06T12:22:41.032Z</time></trkpt><trkpt lat="37.5748767" lon="14.4440067"><ele>275.0</ele><time>2026-05-06T12:22:42.032Z</time></trkpt><trkpt lat="37.5747967" lon="14.44428"><ele>275.0</ele><time>2026-05-06T12:22:43.032Z</time></trkpt><trkpt lat="37.574725" lon="14.4445567"><ele>275.0</ele><time>2026-05-06T12:22:44.032Z</time></trkpt><trkpt lat="37.5746383" lon="14.4448317"><ele>274.5</ele><time>2026-05-06T12:22:45.032Z</time></trkpt><trkpt lat="37.57456" lon="14.445105"><ele>274.0</ele><time>2026-05-06T12:22:46.032Z</time></trkpt><trkpt lat="37.5744867" lon="14.44538"><ele>271.0</ele><time>2026-05-06T12:22:47.032Z</time></trkpt><trkpt lat="37.574415" lon="14.445665"><ele>268.0</ele><time>2026-05-06T12:22:48.032Z</time></trkpt><trkpt lat="37.5743467" lon="14.445945"><ele>268.0</ele><time>2026-05-06T12:22:49.032Z</time></trkpt><trkpt lat="37.5742767" lon="14.4462217"><ele>268.0</ele><time>2026-05-06T12:22:50.032Z</time></trkpt><trkpt lat="37.5742117" lon="14.4464983"><ele>267.5</ele><time>2026-05-06T12:22:51.032Z</time></trkpt><trkpt lat="37.5741517" lon="14.4467783"><ele>267.0</ele><time>2026-05-06T12:22:52.032Z</time></trkpt><trkpt lat="37.5740917" lon="14.44706"><ele>265.0</ele><time>2026-05-06T12:22:53.032Z</time></trkpt><trkpt lat="37.574035" lon="14.4473383"><ele>263.0</ele><time>2026-05-06T12:22:54.032Z</time></trkpt><trkpt lat="37.5739817" lon="14.4476233"><ele>263.0</ele><time>2026-05-06T12:22:55.032Z</time></trkpt><trkpt lat="37.573935" lon="14.44791"><ele>263.0</ele><time>2026-05-06T12:22:56.032Z</time></trkpt><trkpt lat="37.5738867" lon="14.4481917"><ele>261.5</ele><time>2026-05-06T12:22:57.032Z</time></trkpt><trkpt lat="37.5738433" lon="14.4484733"><ele>260.0</ele><time>2026-05-06T12:22:58.032Z</time></trkpt><trkpt lat="37.5737983" lon="14.4487583"><ele>260.0</ele><time>2026-05-06T12:22:59.032Z</time></trkpt><trkpt lat="37.573755" lon="14.4490417"><ele>260.0</ele><time>2026-05-06T12:23:00.032Z</time></trkpt><trkpt lat="37.57371" lon="14.44933"><ele>261.0</ele><time>2026-05-06T12:23:01.032Z</time></trkpt><trkpt lat="37.5736667" lon="14.44962"><ele>262.0</ele><time>2026-05-06T12:23:02.032Z</time></trkpt><trkpt lat="37.57363" lon="14.449905"><ele>264.0</ele><time>2026-05-06T12:23:03.032Z</time></trkpt><trkpt lat="37.5735867" lon="14.4501917"><ele>266.0</ele><time>2026-05-06T12:23:04.032Z</time></trkpt><trkpt lat="37.5735383" lon="14.45048"><ele>266.5</ele><time>2026-05-06T12:23:05.032Z</time></trkpt><trkpt lat="37.5735" lon="14.4507683"><ele>267.0</ele><time>2026-05-06T12:23:06.032Z</time></trkpt><trkpt lat="37.5734567" lon="14.4510517"><ele>267.5</ele><time>2026-05-06T12:23:07.032Z</time></trkpt><trkpt lat="37.573415" lon="14.4513367"><ele>268.0</ele><time>2026-05-06T12:23:08.031Z</time></trkpt><trkpt lat="37.57337" lon="14.4516167"><ele>268.0</ele><time>2026-05-06T12:23:09.031Z</time></trkpt><trkpt lat="37.5733267" lon="14.451905"><ele>268.0</ele><time>2026-05-06T12:23:10.031Z</time></trkpt><trkpt lat="37.573285" lon="14.4521917"><ele>268.5</ele><time>2026-05-06T12:23:11.032Z</time></trkpt><trkpt lat="37.57324" lon="14.4524767"><ele>269.0</ele><time>2026-05-06T12:23:12.032Z</time></trkpt><trkpt lat="37.5731983" lon="14.4527667"><ele>273.5</ele><time>2026-05-06T12:23:13.032Z</time></trkpt><trkpt lat="37.5731567" lon="14.4530533"><ele>278.0</ele><time>2026-05-06T12:23:14.032Z</time></trkpt><trkpt lat="37.5731133" lon="14.453345"><ele>278.0</ele><time>2026-05-06T12:23:15.032Z</time></trkpt><trkpt lat="37.5730717" lon="14.4536333"><ele>278.0</ele><time>2026-05-06T12:23:16.032Z</time></trkpt><trkpt lat="37.5730317" lon="14.4539217"><ele>281.0</ele><time>2026-05-06T12:23:17.032Z</time></trkpt><trkpt lat="37.572985" lon="14.4542083"><ele>284.0</ele><time>2026-05-06T12:23:18.032Z</time></trkpt><trkpt lat="37.57294" lon="14.4544967"><ele>284.0</ele><time>2026-05-06T12:23:19.032Z</time></trkpt><trkpt lat="37.5728983" lon="14.45478"><ele>284.0</ele><time>2026-05-06T12:23:20.032Z</time></trkpt><trkpt lat="37.572855" lon="14.45507"><ele>283.5</ele><time>2026-05-06T12:23:21.032Z</time></trkpt><trkpt lat="37.5728133" lon="14.455355"><ele>283.0</ele><time>2026-05-06T12:23:22.032Z</time></trkpt><trkpt lat="37.5727717" lon="14.4556417"><ele>283.0</ele><time>2026-05-06T12:23:23.032Z</time></trkpt><trkpt lat="37.57273" lon="14.45593"><ele>283.0</ele><time>2026-05-06T12:23:24.032Z</time></trkpt><trkpt lat="37.5726883" lon="14.4562167"><ele>283.0</ele><time>2026-05-06T12:23:25.032Z</time></trkpt><trkpt lat="37.572645" lon="14.4565067"><ele>283.0</ele><time>2026-05-06T12:23:26.032Z</time></trkpt><trkpt lat="37.572605" lon="14.4567867"><ele>283.0</ele><time>2026-05-06T12:23:27.032Z</time></trkpt><trkpt lat="37.5725617" lon="14.4570683"><ele>283.0</ele><time>2026-05-06T12:23:28.032Z</time></trkpt><trkpt lat="37.572515" lon="14.4573517"><ele>282.5</ele><time>2026-05-06T12:23:29.032Z</time></trkpt><trkpt lat="37.572475" lon="14.45764"><ele>282.0</ele><time>2026-05-06T12:23:30.032Z</time></trkpt><trkpt lat="37.572435" lon="14.4579267"><ele>284.0</ele><time>2026-05-06T12:23:31.032Z</time></trkpt><trkpt lat="37.5723883" lon="14.4582117"><ele>286.0</ele><time>2026-05-06T12:23:32.032Z</time></trkpt><trkpt lat="37.5723433" lon="14.4584967"><ele>286.5</ele><time>2026-05-06T12:23:33.032Z</time></trkpt><trkpt lat="37.5723033" lon="14.458785"><ele>287.0</ele><time>2026-05-06T12:23:34.032Z</time></trkpt><trkpt lat="37.5722617" lon="14.4590733"><ele>287.0</ele><time>2026-05-06T12:23:35.032Z</time></trkpt><trkpt lat="37.57222" lon="14.4593633"><ele>287.0</ele><time>2026-05-06T12:23:36.032Z</time></trkpt><trkpt lat="37.5721783" lon="14.45965"><ele>287.5</ele><time>2026-05-06T12:23:37.032Z</time></trkpt><trkpt lat="37.5721367" lon="14.459935"><ele>288.0</ele><time>2026-05-06T12:23:38.032Z</time></trkpt><trkpt lat="37.572095" lon="14.460215"><ele>289.0</ele><time>2026-05-06T12:23:39.032Z</time></trkpt><trkpt lat="37.5720517" lon="14.4605"><ele>290.0</ele><time>2026-05-06T12:23:40.032Z</time></trkpt><trkpt lat="37.5720017" lon="14.4607833"><ele>286.5</ele><time>2026-05-06T12:23:41.032Z</time></trkpt><trkpt lat="37.5719567" lon="14.4610717"><ele>283.0</ele><time>2026-05-06T12:23:42.032Z</time></trkpt><trkpt lat="37.5719067" lon="14.46136"><ele>283.0</ele><time>2026-05-06T12:23:43.032Z</time></trkpt><trkpt lat="37.571855" lon="14.4616483"><ele>283.0</ele><time>2026-05-06T12:23:44.031Z</time></trkpt><trkpt lat="37.5718" lon="14.461935"><ele>282.5</ele><time>2026-05-06T12:23:45.032Z</time></trkpt><trkpt lat="37.57174" lon="14.46221"><ele>282.0</ele><time>2026-05-06T12:23:46.032Z</time></trkpt><trkpt lat="37.5716767" lon="14.46249"><ele>282.0</ele><time>2026-05-06T12:23:47.032Z</time></trkpt><trkpt lat="37.5716117" lon="14.4627667"><ele>282.0</ele><time>2026-05-06T12:23:48.032Z</time></trkpt><trkpt lat="37.5715433" lon="14.4630483"><ele>281.5</ele><time>2026-05-06T12:23:49.032Z</time></trkpt><trkpt lat="37.5714733" lon="14.4633267"><ele>281.0</ele><time>2026-05-06T12:23:50.032Z</time></trkpt><trkpt lat="37.5713983" lon="14.463605"><ele>276.0</ele><time>2026-05-06T12:23:51.032Z</time></trkpt><trkpt lat="37.5713217" lon="14.4638833"><ele>271.0</ele><time>2026-05-06T12:23:52.032Z</time></trkpt><trkpt lat="37.5712467" lon="14.4641583"><ele>271.5</ele><time>2026-05-06T12:23:53.032Z</time></trkpt><trkpt lat="37.5711717" lon="14.464435"><ele>272.0</ele><time>2026-05-06T12:23:54.032Z</time></trkpt><trkpt lat="37.5711" lon="14.46471"><ele>270.0</ele><time>2026-05-06T12:23:55.032Z</time></trkpt><trkpt lat="37.571025" lon="14.4649867"><ele>268.0</ele><time>2026-05-06T12:23:56.032Z</time></trkpt><trkpt lat="37.5709533" lon="14.4652633"><ele>266.5</ele><time>2026-05-06T12:23:57.032Z</time></trkpt><trkpt lat="37.57088" lon="14.4655417"><ele>265.0</ele><time>2026-05-06T12:23:58.032Z</time></trkpt><trkpt lat="37.5708183" lon="14.46582"><ele>265.0</ele><time>2026-05-06T12:23:59.032Z</time></trkpt><trkpt lat="37.570755" lon="14.4661017"><ele>265.0</ele><time>2026-05-06T12:24:00.032Z</time></trkpt><trkpt lat="37.570695" lon="14.4663833"><ele>264.5</ele><time>2026-05-06T12:24:01.032Z</time></trkpt><trkpt lat="37.57064" lon="14.4666667"><ele>264.0</ele><time>2026-05-06T12:24:02.032Z</time></trkpt><trkpt lat="37.5705867" lon="14.4669483"><ele>267.0</ele><time>2026-05-06T12:24:03.032Z</time></trkpt><trkpt lat="37.57054" lon="14.46723"><ele>270.0</ele><time>2026-05-06T12:24:04.032Z</time></trkpt><trkpt lat="37.5704967" lon="14.46752"><ele>270.0</ele><time>2026-05-06T12:24:05.032Z</time></trkpt><trkpt lat="37.5704567" lon="14.467805"><ele>270.0</ele><time>2026-05-06T12:24:06.032Z</time></trkpt><trkpt lat="37.5704133" lon="14.4681"><ele>270.5</ele><time>2026-05-06T12:24:07.032Z</time></trkpt><trkpt lat="37.570375" lon="14.4683933"><ele>271.0</ele><time>2026-05-06T12:24:08.032Z</time></trkpt><trkpt lat="37.5703433" lon="14.4686783"><ele>267.5</ele><time>2026-05-06T12:24:09.032Z</time></trkpt><trkpt lat="37.5703217" lon="14.4689617"><ele>264.0</ele><time>2026-05-06T12:24:10.032Z</time></trkpt><trkpt lat="37.5703017" lon="14.4692517"><ele>264.0</ele><time>2026-05-06T12:24:11.032Z</time></trkpt><trkpt lat="37.570285" lon="14.4695383"><ele>264.0</ele><time>2026-05-06T12:24:12.032Z</time></trkpt><trkpt lat="37.5702717" lon="14.4698283"><ele>265.0</ele><time>2026-05-06T12:24:13.032Z</time></trkpt><trkpt lat="37.5702617" lon="14.4701183"><ele>266.0</ele><time>2026-05-06T12:24:14.032Z</time></trkpt><trkpt lat="37.5702517" lon="14.4704117"><ele>263.5</ele><time>2026-05-06T12:24:15.032Z</time></trkpt><trkpt lat="37.5702517" lon="14.4707017"><ele>261.0</ele><time>2026-05-06T12:24:16.032Z</time></trkpt><trkpt lat="37.5702533" lon="14.4709933"><ele>258.5</ele><time>2026-05-06T12:24:17.032Z</time></trkpt><trkpt lat="37.57026" lon="14.47129"><ele>256.0</ele><time>2026-05-06T12:24:18.032Z</time></trkpt><trkpt lat="37.5702683" lon="14.4715783"><ele>256.0</ele><time>2026-05-06T12:24:19.032Z</time></trkpt><trkpt lat="37.570275" lon="14.471865"><ele>256.0</ele><time>2026-05-06T12:24:20.032Z</time></trkpt><trkpt lat="37.5702883" lon="14.4721517"><ele>254.5</ele><time>2026-05-06T12:24:21.032Z</time></trkpt><trkpt lat="37.5702967" lon="14.472445"><ele>253.0</ele><time>2026-05-06T12:24:22.032Z</time></trkpt><trkpt lat="37.5703067" lon="14.4727383"><ele>251.5</ele><time>2026-05-06T12:24:23.032Z</time></trkpt><trkpt lat="37.5703217" lon="14.47303"><ele>250.0</ele><time>2026-05-06T12:24:24.032Z</time></trkpt><trkpt lat="37.5703367" lon="14.47332"><ele>250.0</ele><time>2026-05-06T12:24:25.032Z</time></trkpt><trkpt lat="37.57035" lon="14.47361"><ele>250.0</ele><time>2026-05-06T12:24:26.032Z</time></trkpt><trkpt lat="37.570365" lon="14.4739017"><ele>252.5</ele><time>2026-05-06T12:24:27.032Z</time></trkpt><trkpt lat="37.5703767" lon="14.4741933"><ele>255.0</ele><time>2026-05-06T12:24:28.032Z</time></trkpt><trkpt lat="37.570395" lon="14.474485"><ele>255.5</ele><time>2026-05-06T12:24:29.031Z</time></trkpt><trkpt lat="37.5704083" lon="14.4747733"><ele>256.0</ele><time>2026-05-06T12:24:30.032Z</time></trkpt><trkpt lat="37.570425" lon="14.47506"><ele>256.0</ele><time>2026-05-06T12:24:31.032Z</time></trkpt><trkpt lat="37.5704383" lon="14.475355"><ele>256.0</ele><time>2026-05-06T12:24:32.032Z</time></trkpt><trkpt lat="37.5704533" lon="14.4756483"><ele>256.5</ele><time>2026-05-06T12:24:33.032Z</time></trkpt><trkpt lat="37.5704733" lon="14.475945"><ele>257.0</ele><time>2026-05-06T12:24:34.031Z</time></trkpt><trkpt lat="37.5704867" lon="14.47623"><ele>256.0</ele><time>2026-05-06T12:24:35.032Z</time></trkpt><trkpt lat="37.5705" lon="14.47652"><ele>255.0</ele><time>2026-05-06T12:24:36.032Z</time></trkpt><trkpt lat="37.570515" lon="14.4768133"><ele>254.5</ele><time>2026-05-06T12:24:37.032Z</time></trkpt><trkpt lat="37.5705283" lon="14.4771083"><ele>254.0</ele><time>2026-05-06T12:24:38.032Z</time></trkpt><trkpt lat="37.570545" lon="14.4773967"><ele>254.0</ele><time>2026-05-06T12:24:39.032Z</time></trkpt><trkpt lat="37.5705583" lon="14.477685"><ele>254.0</ele><time>2026-05-06T12:24:40.032Z</time></trkpt><trkpt lat="37.5705767" lon="14.477975"><ele>253.0</ele><time>2026-05-06T12:24:41.032Z</time></trkpt><trkpt lat="37.570595" lon="14.4782683"><ele>252.0</ele><time>2026-05-06T12:24:42.032Z</time></trkpt><trkpt lat="37.5706083" lon="14.4785567"><ele>251.0</ele><time>2026-05-06T12:24:43.032Z</time></trkpt><trkpt lat="37.5706233" lon="14.4788483"><ele>250.0</ele><time>2026-05-06T12:24:44.032Z</time></trkpt><trkpt lat="37.5706383" lon="14.4791367"><ele>250.0</ele><time>2026-05-06T12:24:45.032Z</time></trkpt><trkpt lat="37.5706517" lon="14.479425"><ele>250.0</ele><time>2026-05-06T12:24:46.032Z</time></trkpt><trkpt lat="37.5706717" lon="14.4797083"><ele>249.5</ele><time>2026-05-06T12:24:47.032Z</time></trkpt><trkpt lat="37.5706867" lon="14.4800017"><ele>249.0</ele><time>2026-05-06T12:24:48.032Z</time></trkpt><trkpt lat="37.5707017" lon="14.4802917"><ele>249.0</ele><time>2026-05-06T12:24:49.032Z</time></trkpt><trkpt lat="37.5707133" lon="14.4805833"><ele>249.0</ele><time>2026-05-06T12:24:50.032Z</time></trkpt><trkpt lat="37.5707267" lon="14.480875"><ele>249.0</ele><time>2026-05-06T12:24:51.032Z</time></trkpt><trkpt lat="37.570745" lon="14.481165"><ele>249.0</ele><time>2026-05-06T12:24:52.032Z</time></trkpt><trkpt lat="37.5707617" lon="14.48146"><ele>250.0</ele><time>2026-05-06T12:24:53.032Z</time></trkpt><trkpt lat="37.5707767" lon="14.48175"><ele>251.0</ele><time>2026-05-06T12:24:54.032Z</time></trkpt><trkpt lat="37.570795" lon="14.4820417"><ele>250.5</ele><time>2026-05-06T12:24:55.032Z</time></trkpt><trkpt lat="37.5708083" lon="14.4823317"><ele>250.0</ele><time>2026-05-06T12:24:56.032Z</time></trkpt><trkpt lat="37.5708167" lon="14.4826283"><ele>250.0</ele><time>2026-05-06T12:24:57.032Z</time></trkpt><trkpt lat="37.57082" lon="14.48292"><ele>250.0</ele><time>2026-05-06T12:24:58.032Z</time></trkpt><trkpt lat="37.5708267" lon="14.4832133"><ele>250.0</ele><time>2026-05-06T12:24:59.032Z</time></trkpt><trkpt lat="37.5708333" lon="14.4835067"><ele>250.0</ele><time>2026-05-06T12:25:00.032Z</time></trkpt><trkpt lat="37.5708283" lon="14.4837983"><ele>251.0</ele><time>2026-05-06T12:25:01.032Z</time></trkpt><trkpt lat="37.5708133" lon="14.48409"><ele>252.0</ele><time>2026-05-06T12:25:02.032Z</time></trkpt><trkpt lat="37.5707883" lon="14.484385"><ele>252.5</ele><time>2026-05-06T12:25:03.032Z</time></trkpt><trkpt lat="37.570755" lon="14.48468"><ele>253.0</ele><time>2026-05-06T12:25:04.032Z</time></trkpt><trkpt lat="37.5707167" lon="14.48497"><ele>253.0</ele><time>2026-05-06T12:25:05.032Z</time></trkpt><trkpt lat="37.5706683" lon="14.48526"><ele>253.0</ele><time>2026-05-06T12:25:06.032Z</time></trkpt><trkpt lat="37.5706183" lon="14.485545"><ele>252.5</ele><time>2026-05-06T12:25:07.032Z</time></trkpt><trkpt lat="37.5705583" lon="14.4858217"><ele>252.0</ele><time>2026-05-06T12:25:08.032Z</time></trkpt><trkpt lat="37.5704867" lon="14.4860967"><ele>251.5</ele><time>2026-05-06T12:25:09.032Z</time></trkpt><trkpt lat="37.570415" lon="14.4863767"><ele>251.0</ele><time>2026-05-06T12:25:10.032Z</time></trkpt><trkpt lat="37.570345" lon="14.4866417"><ele>248.5</ele><time>2026-05-06T12:25:11.032Z</time></trkpt><trkpt lat="37.57025" lon="14.4869083"><ele>246.0</ele><time>2026-05-06T12:25:12.032Z</time></trkpt><trkpt lat="37.5701567" lon="14.4871717"><ele>245.5</ele><time>2026-05-06T12:25:13.032Z</time></trkpt><trkpt lat="37.570055" lon="14.487435"><ele>245.0</ele><time>2026-05-06T12:25:14.032Z</time></trkpt><trkpt lat="37.5699483" lon="14.4876967"><ele>246.5</ele><time>2026-05-06T12:25:15.032Z</time></trkpt><trkpt lat="37.5698317" lon="14.487955"><ele>248.0</ele><time>2026-05-06T12:25:16.032Z</time></trkpt><trkpt lat="37.5697" lon="14.4882033"><ele>248.0</ele><time>2026-05-06T12:25:17.032Z</time></trkpt><trkpt lat="37.569585" lon="14.4884433"><ele>248.0</ele><time>2026-05-06T12:25:18.032Z</time></trkpt><trkpt lat="37.5694417" lon="14.48868"><ele>247.5</ele><time>2026-05-06T12:25:19.032Z</time></trkpt><trkpt lat="37.56931" lon="14.4889167"><ele>247.0</ele><time>2026-05-06T12:25:20.032Z</time></trkpt><trkpt lat="37.5691617" lon="14.489145"><ele>247.0</ele><time>2026-05-06T12:25:21.032Z</time></trkpt><trkpt lat="37.56901" lon="14.489365"><ele>247.0</ele><time>2026-05-06T12:25:22.032Z</time></trkpt><trkpt lat="37.568855" lon="14.4895833"><ele>246.5</ele><time>2026-05-06T12:25:23.032Z</time></trkpt><trkpt lat="37.5687083" lon="14.4898067"><ele>246.0</ele><time>2026-05-06T12:25:24.032Z</time></trkpt><trkpt lat="37.5685583" lon="14.4900233"><ele>245.0</ele><time>2026-05-06T12:25:25.032Z</time></trkpt><trkpt lat="37.5684067" lon="14.4902433"><ele>244.0</ele><time>2026-05-06T12:25:26.032Z</time></trkpt><trkpt lat="37.5682533" lon="14.4904667"><ele>246.0</ele><time>2026-05-06T12:25:27.032Z</time></trkpt><trkpt lat="37.5681017" lon="14.4906833"><ele>248.0</ele><time>2026-05-06T12:25:28.031Z</time></trkpt><trkpt lat="37.56795" lon="14.4909017"><ele>248.0</ele><time>2026-05-06T12:25:29.032Z</time></trkpt><trkpt lat="37.5677917" lon="14.4911183"><ele>248.0</ele><time>2026-05-06T12:25:30.032Z</time></trkpt><trkpt lat="37.567635" lon="14.4913333"><ele>248.0</ele><time>2026-05-06T12:25:31.031Z</time></trkpt><trkpt lat="37.56748" lon="14.4915567"><ele>248.0</ele><time>2026-05-06T12:25:32.032Z</time></trkpt><trkpt lat="37.5673283" lon="14.4917783"><ele>248.0</ele><time>2026-05-06T12:25:33.032Z</time></trkpt><trkpt lat="37.56718" lon="14.4920017"><ele>248.0</ele><time>2026-05-06T12:25:34.032Z</time></trkpt><trkpt lat="37.5670283" lon="14.49222"><ele>248.0</ele><time>2026-05-06T12:25:35.032Z</time></trkpt><trkpt lat="37.566875" lon="14.4924367"><ele>248.0</ele><time>2026-05-06T12:25:36.032Z</time></trkpt><trkpt lat="37.5667217" lon="14.492655"><ele>248.0</ele><time>2026-05-06T12:25:37.032Z</time></trkpt><trkpt lat="37.56656" lon="14.4928783"><ele>248.0</ele><time>2026-05-06T12:25:38.032Z</time></trkpt><trkpt lat="37.5664067" lon="14.4930933"><ele>248.0</ele><time>2026-05-06T12:25:39.032Z</time></trkpt><trkpt lat="37.5662533" lon="14.493315"><ele>248.0</ele><time>2026-05-06T12:25:40.032Z</time></trkpt><trkpt lat="37.5661017" lon="14.49353"><ele>247.5</ele><time>2026-05-06T12:25:41.032Z</time></trkpt><trkpt lat="37.56595" lon="14.4937483"><ele>247.0</ele><time>2026-05-06T12:25:42.032Z</time></trkpt><trkpt lat="37.5657917" lon="14.4939683"><ele>247.0</ele><time>2026-05-06T12:25:43.032Z</time></trkpt><trkpt lat="37.5656417" lon="14.49419"><ele>247.0</ele><time>2026-05-06T12:25:44.032Z</time></trkpt><trkpt lat="37.5654883" lon="14.4944117"><ele>247.5</ele><time>2026-05-06T12:25:45.032Z</time></trkpt><trkpt lat="37.5653417" lon="14.4946367"><ele>248.0</ele><time>2026-05-06T12:25:46.032Z</time></trkpt><trkpt lat="37.5651967" lon="14.4948617"><ele>248.0</ele><time>2026-05-06T12:25:47.032Z</time></trkpt><trkpt lat="37.5650533" lon="14.4950883"><ele>248.0</ele><time>2026-05-06T12:25:48.032Z</time></trkpt><trkpt lat="37.5649133" lon="14.4953183"><ele>247.0</ele><time>2026-05-06T12:25:49.032Z</time></trkpt><trkpt lat="37.56477" lon="14.495555"><ele>246.0</ele><time>2026-05-06T12:25:50.032Z</time></trkpt><trkpt lat="37.5646317" lon="14.4957883"><ele>245.5</ele><time>2026-05-06T12:25:51.032Z</time></trkpt><trkpt lat="37.564495" lon="14.496025"><ele>245.0</ele><time>2026-05-06T12:25:52.032Z</time></trkpt><trkpt lat="37.5643617" lon="14.4962683"><ele>245.0</ele><time>2026-05-06T12:25:53.032Z</time></trkpt><trkpt lat="37.56423" lon="14.4965017"><ele>245.0</ele><time>2026-05-06T12:25:54.032Z</time></trkpt><trkpt lat="37.5640933" lon="14.49674"><ele>245.0</ele><time>2026-05-06T12:25:55.032Z</time></trkpt><trkpt lat="37.5639583" lon="14.4969833"><ele>245.0</ele><time>2026-05-06T12:25:56.032Z</time></trkpt><trkpt lat="37.56383" lon="14.4972217"><ele>245.0</ele><time>2026-05-06T12:25:57.032Z</time></trkpt><trkpt lat="37.5637067" lon="14.497465"><ele>245.0</ele><time>2026-05-06T12:25:58.031Z</time></trkpt><trkpt lat="37.5635817" lon="14.4977167"><ele>245.5</ele><time>2026-05-06T12:25:59.032Z</time></trkpt><trkpt lat="37.5634667" lon="14.4979567"><ele>246.0</ele><time>2026-05-06T12:26:00.032Z</time></trkpt><trkpt lat="37.5633483" lon="14.4982083"><ele>246.0</ele><time>2026-05-06T12:26:01.032Z</time></trkpt><trkpt lat="37.5632283" lon="14.4984667"><ele>246.0</ele><time>2026-05-06T12:26:02.032Z</time></trkpt><trkpt lat="37.5631217" lon="14.4987117"><ele>244.0</ele><time>2026-05-06T12:26:03.032Z</time></trkpt><trkpt lat="37.5630017" lon="14.4989717"><ele>242.0</ele><time>2026-05-06T12:26:04.032Z</time></trkpt><trkpt lat="37.562885" lon="14.499225"><ele>241.5</ele><time>2026-05-06T12:26:05.032Z</time></trkpt><trkpt lat="37.5627667" lon="14.499475"><ele>241.0</ele><time>2026-05-06T12:26:06.032Z</time></trkpt><trkpt lat="37.562655" lon="14.4997333"><ele>239.0</ele><time>2026-05-06T12:26:07.032Z</time></trkpt><trkpt lat="37.5625483" lon="14.49999"><ele>237.0</ele><time>2026-05-06T12:26:08.032Z</time></trkpt><trkpt lat="37.562445" lon="14.50025"><ele>236.0</ele><time>2026-05-06T12:26:09.032Z</time></trkpt><trkpt lat="37.56234" lon="14.5005083"><ele>235.0</ele><time>2026-05-06T12:26:10.032Z</time></trkpt><trkpt lat="37.5622317" lon="14.5007633"><ele>235.0</ele><time>2026-05-06T12:26:11.032Z</time></trkpt><trkpt lat="37.5621233" lon="14.5010167"><ele>235.0</ele><time>2026-05-06T12:26:12.032Z</time></trkpt><trkpt lat="37.5620117" lon="14.5012767"><ele>236.5</ele><time>2026-05-06T12:26:13.032Z</time></trkpt><trkpt lat="37.56191" lon="14.5015467"><ele>238.0</ele><time>2026-05-06T12:26:14.032Z</time></trkpt><trkpt lat="37.5617983" lon="14.5018067"><ele>238.0</ele><time>2026-05-06T12:26:15.032Z</time></trkpt><trkpt lat="37.5616917" lon="14.5020633"><ele>238.0</ele><time>2026-05-06T12:26:16.032Z</time></trkpt><trkpt lat="37.5615833" lon="14.5023217"><ele>237.5</ele><time>2026-05-06T12:26:17.032Z</time></trkpt><trkpt lat="37.5614767" lon="14.50258"><ele>237.0</ele><time>2026-05-06T12:26:18.032Z</time></trkpt><trkpt lat="37.5613733" lon="14.5028433"><ele>237.5</ele><time>2026-05-06T12:26:19.032Z</time></trkpt><trkpt lat="37.561265" lon="14.5031033"><ele>238.0</ele><time>2026-05-06T12:26:20.031Z</time></trkpt><trkpt lat="37.5611583" lon="14.5033567"><ele>238.0</ele><time>2026-05-06T12:26:21.032Z</time></trkpt><trkpt lat="37.56105" lon="14.5036133"><ele>238.0</ele><time>2026-05-06T12:26:22.032Z</time></trkpt><trkpt lat="37.5609467" lon="14.5038667"><ele>238.0</ele><time>2026-05-06T12:26:23.032Z</time></trkpt><trkpt lat="37.5608433" lon="14.504125"><ele>238.0</ele><time>2026-05-06T12:26:24.032Z</time></trkpt><trkpt lat="37.5607333" lon="14.5043883"><ele>238.0</ele><time>2026-05-06T12:26:25.032Z</time></trkpt><trkpt lat="37.5606267" lon="14.5046467"><ele>238.0</ele><time>2026-05-06T12:26:26.032Z</time></trkpt><trkpt lat="37.5605167" lon="14.5049083"><ele>238.0</ele><time>2026-05-06T12:26:27.032Z</time></trkpt><trkpt lat="37.5604067" lon="14.5051683"><ele>238.0</ele><time>2026-05-06T12:26:28.032Z</time></trkpt><trkpt lat="37.5602983" lon="14.5054267"><ele>235.5</ele><time>2026-05-06T12:26:29.032Z</time></trkpt><trkpt lat="37.560195" lon="14.50568"><ele>233.0</ele><time>2026-05-06T12:26:30.032Z</time></trkpt><trkpt lat="37.5600833" lon="14.50594"><ele>233.0</ele><time>2026-05-06T12:26:31.032Z</time></trkpt><trkpt lat="37.5599733" lon="14.5062033"><ele>233.0</ele><time>2026-05-06T12:26:32.032Z</time></trkpt><trkpt lat="37.5598633" lon="14.5064617"><ele>234.5</ele><time>2026-05-06T12:26:33.031Z</time></trkpt><trkpt lat="37.55976" lon="14.50672"><ele>236.0</ele><time>2026-05-06T12:26:34.031Z</time></trkpt><trkpt lat="37.5596517" lon="14.5069767"><ele>235.5</ele><time>2026-05-06T12:26:35.031Z</time></trkpt><trkpt lat="37.559545" lon="14.507235"><ele>235.0</ele><time>2026-05-06T12:26:36.031Z</time></trkpt><trkpt lat="37.5594383" lon="14.507495"><ele>235.0</ele><time>2026-05-06T12:26:37.031Z</time></trkpt><trkpt lat="37.55933" lon="14.5077567"><ele>235.0</ele><time>2026-05-06T12:26:38.031Z</time></trkpt><trkpt lat="37.55922" lon="14.5080167"><ele>236.5</ele><time>2026-05-06T12:26:39.031Z</time></trkpt><trkpt lat="37.5591083" lon="14.508275"><ele>238.0</ele><time>2026-05-06T12:26:40.031Z</time></trkpt><trkpt lat="37.559" lon="14.508535"><ele>235.5</ele><time>2026-05-06T12:26:41.031Z</time></trkpt><trkpt lat="37.5588917" lon="14.50879"><ele>233.0</ele><time>2026-05-06T12:26:42.031Z</time></trkpt><trkpt lat="37.5587933" lon="14.5090483"><ele>232.5</ele><time>2026-05-06T12:26:43.031Z</time></trkpt><trkpt lat="37.558685" lon="14.5093033"><ele>232.0</ele><time>2026-05-06T12:26:44.031Z</time></trkpt><trkpt lat="37.558575" lon="14.5095567"><ele>232.5</ele><time>2026-05-06T12:26:45.031Z</time></trkpt><trkpt lat="37.5584633" lon="14.509815"><ele>233.0</ele><time>2026-05-06T12:26:46.031Z</time></trkpt><trkpt lat="37.55836" lon="14.510075"><ele>233.0</ele><time>2026-05-06T12:26:47.031Z</time></trkpt><trkpt lat="37.5582533" lon="14.5103317"><ele>233.0</ele><time>2026-05-06T12:26:48.031Z</time></trkpt><trkpt lat="37.5581467" lon="14.5105967"><ele>231.5</ele><time>2026-05-06T12:26:49.03Z</time></trkpt><trkpt lat="37.5580417" lon="14.51085"><ele>230.0</ele><time>2026-05-06T12:26:50.031Z</time></trkpt><trkpt lat="37.5579317" lon="14.51111"><ele>229.0</ele><time>2026-05-06T12:26:51.03Z</time></trkpt><trkpt lat="37.5578267" lon="14.5113717"><ele>228.0</ele><time>2026-05-06T12:26:52.031Z</time></trkpt><trkpt lat="37.5577183" lon="14.5116283"><ele>228.0</ele><time>2026-05-06T12:26:53.031Z</time></trkpt><trkpt lat="37.5576167" lon="14.5118833"><ele>228.0</ele><time>2026-05-06T12:26:54.031Z</time></trkpt><trkpt lat="37.5575133" lon="14.5121367"><ele>228.5</ele><time>2026-05-06T12:26:55.031Z</time></trkpt><trkpt lat="37.5574083" lon="14.51239"><ele>229.0</ele><time>2026-05-06T12:26:56.031Z</time></trkpt><trkpt lat="37.5572917" lon="14.5126533"><ele>228.0</ele><time>2026-05-06T12:26:57.031Z</time></trkpt><trkpt lat="37.557185" lon="14.5129167"><ele>227.0</ele><time>2026-05-06T12:26:58.031Z</time></trkpt><trkpt lat="37.5570817" lon="14.5131717"><ele>226.0</ele><time>2026-05-06T12:26:59.031Z</time></trkpt><trkpt lat="37.5569733" lon="14.5134267"><ele>225.0</ele><time>2026-05-06T12:27:00.031Z</time></trkpt><trkpt lat="37.5568633" lon="14.5136783"><ele>226.33333333333331</ele><time>2026-05-06T12:27:01.031Z</time></trkpt><trkpt lat="37.55676" lon="14.5139133"><ele>227.66666666666666</ele><time>2026-05-06T12:27:02.031Z</time></trkpt><trkpt lat="37.55667" lon="14.5141433"><ele>229.0</ele><time>2026-05-06T12:27:03.031Z</time></trkpt><trkpt lat="37.55657" lon="14.5143733"><ele>230.66666666666666</ele><time>2026-05-06T12:27:04.031Z</time></trkpt><trkpt lat="37.5564783" lon="14.5146033"><ele>232.33333333333331</ele><time>2026-05-06T12:27:05.031Z</time></trkpt><trkpt lat="37.5563833" lon="14.5148417"><ele>234.0</ele><time>2026-05-06T12:27:06.031Z</time></trkpt><trkpt lat="37.5562833" lon="14.5150783"><ele>232.33333333333331</ele><time>2026-05-06T12:27:07.031Z</time></trkpt><trkpt lat="37.5561917" lon="14.5153033"><ele>230.66666666666666</ele><time>2026-05-06T12:27:08.031Z</time></trkpt><trkpt lat="37.5560867" lon="14.5155467"><ele>229.0</ele><time>2026-05-06T12:27:09.031Z</time></trkpt><trkpt lat="37.5559883" lon="14.5157817"><ele>229.0</ele><time>2026-05-06T12:27:10.031Z</time></trkpt><trkpt lat="37.55589" lon="14.5160217"><ele>229.0</ele><time>2026-05-06T12:27:11.031Z</time></trkpt><trkpt lat="37.555795" lon="14.5162533"><ele>229.0</ele><time>2026-05-06T12:27:12.031Z</time></trkpt><trkpt lat="37.5556967" lon="14.5164917"><ele>230.66666666666666</ele><time>2026-05-06T12:27:13.031Z</time></trkpt><trkpt lat="37.5555983" lon="14.5167283"><ele>232.33333333333331</ele><time>2026-05-06T12:27:14.031Z</time></trkpt><trkpt lat="37.5555017" lon="14.516965"><ele>234.0</ele><time>2026-05-06T12:27:15.031Z</time></trkpt><trkpt lat="37.5554017" lon="14.5171983"><ele>230.0</ele><time>2026-05-06T12:27:16.031Z</time></trkpt><trkpt lat="37.5552983" lon="14.5174433"><ele>226.0</ele><time>2026-05-06T12:27:17.031Z</time></trkpt><trkpt lat="37.555185" lon="14.5177117"><ele>228.0</ele><time>2026-05-06T12:27:18.031Z</time></trkpt><trkpt lat="37.55507" lon="14.5179917"><ele>230.0</ele><time>2026-05-06T12:27:19.031Z</time></trkpt><trkpt lat="37.5549567" lon="14.5182617"><ele>230.0</ele><time>2026-05-06T12:27:20.031Z</time></trkpt><trkpt lat="37.5548417" lon="14.5185333"><ele>230.0</ele><time>2026-05-06T12:27:21.031Z</time></trkpt><trkpt lat="37.5547317" lon="14.5188"><ele>230.5</ele><time>2026-05-06T12:27:22.031Z</time></trkpt><trkpt lat="37.554625" lon="14.5190583"><ele>231.0</ele><time>2026-05-06T12:27:23.031Z</time></trkpt><trkpt lat="37.5545183" lon="14.519305"><ele>230.0</ele><time>2026-05-06T12:27:24.031Z</time></trkpt><trkpt lat="37.554415" lon="14.5195383"><ele>229.0</ele><time>2026-05-06T12:27:25.031Z</time></trkpt><trkpt lat="37.554325" lon="14.5197617"><ele>228.0</ele><time>2026-05-06T12:27:26.031Z</time></trkpt><trkpt lat="37.5542383" lon="14.519975"><ele>228.0</ele><time>2026-05-06T12:27:27.03Z</time></trkpt><trkpt lat="37.5541517" lon="14.5201817"><ele>228.0</ele><time>2026-05-06T12:27:28.031Z</time></trkpt><trkpt lat="37.5540617" lon="14.5203767"><ele>228.0</ele><time>2026-05-06T12:27:29.031Z</time></trkpt><trkpt lat="37.5539817" lon="14.5205667"><ele>228.33333333333331</ele><time>2026-05-06T12:27:30.031Z</time></trkpt><trkpt lat="37.553905" lon="14.520745"><ele>228.66666666666666</ele><time>2026-05-06T12:27:31.031Z</time></trkpt><trkpt lat="37.5538267" lon="14.5209183"><ele>229.0</ele><time>2026-05-06T12:27:32.031Z</time></trkpt><trkpt lat="37.5537583" lon="14.5210833"><ele>228.75</ele><time>2026-05-06T12:27:33.031Z</time></trkpt><trkpt lat="37.553695" lon="14.5212367"><ele>228.5</ele><time>2026-05-06T12:27:34.031Z</time></trkpt><trkpt lat="37.5536217" lon="14.5213783"><ele>228.25</ele><time>2026-05-06T12:27:35.031Z</time></trkpt><trkpt lat="37.5535467" lon="14.5215083"><ele>228.0</ele><time>2026-05-06T12:27:36.031Z</time></trkpt><trkpt lat="37.5534633" lon="14.5216133"><ele>228.0</ele><time>2026-05-06T12:27:37.031Z</time></trkpt><trkpt lat="37.5533833" lon="14.5216967"><ele>228.0</ele><time>2026-05-06T12:27:38.03Z</time></trkpt><trkpt lat="37.5533" lon="14.52176"><ele>228.0</ele><time>2026-05-06T12:27:39.031Z</time></trkpt><trkpt lat="37.553225" lon="14.5218083"><ele>228.0</ele><time>2026-05-06T12:27:40.031Z</time></trkpt><trkpt lat="37.5531633" lon="14.521835"><ele>228.0</ele><time>2026-05-06T12:27:41.031Z</time></trkpt><trkpt lat="37.5530667" lon="14.52183"><ele>228.0</ele><time>2026-05-06T12:27:43.031Z</time></trkpt><trkpt lat="37.5530233" lon="14.52171"><ele>228.0</ele><time>2026-05-06T12:27:45.031Z</time></trkpt><trkpt lat="37.55301" lon="14.5216283"><ele>228.0</ele><time>2026-05-06T12:27:46.031Z</time></trkpt><trkpt lat="37.5529883" lon="14.5215533"><ele>228.0</ele><time>2026-05-06T12:27:47.031Z</time></trkpt><trkpt lat="37.5529033" lon="14.5214783"><ele>228.0</ele><time>2026-05-06T12:27:49.031Z</time></trkpt><trkpt lat="37.55281" lon="14.5215483"><ele>228.0</ele><time>2026-05-06T12:27:51.031Z</time></trkpt><trkpt lat="37.5527583" lon="14.5216467"><ele>228.0</ele><time>2026-05-06T12:27:52.031Z</time></trkpt><trkpt lat="37.552705" lon="14.5217733"><ele>228.0</ele><time>2026-05-06T12:27:53.031Z</time></trkpt><trkpt lat="37.5526367" lon="14.5219283"><ele>228.0</ele><time>2026-05-06T12:27:54.03Z</time></trkpt><trkpt lat="37.5525617" lon="14.5220867"><ele>228.0</ele><time>2026-05-06T12:27:55.03Z</time></trkpt><trkpt lat="37.5524817" lon="14.52225"><ele>228.0</ele><time>2026-05-06T12:27:56.031Z</time></trkpt><trkpt lat="37.5523917" lon="14.522435"><ele>228.0</ele><time>2026-05-06T12:27:57.031Z</time></trkpt><trkpt lat="37.55231" lon="14.5226117"><ele>228.0</ele><time>2026-05-06T12:27:58.031Z</time></trkpt><trkpt lat="37.5522383" lon="14.522765"><ele>228.0</ele><time>2026-05-06T12:27:59.031Z</time></trkpt><trkpt lat="37.5521817" lon="14.522905"><ele>228.0</ele><time>2026-05-06T12:28:00.031Z</time></trkpt><trkpt lat="37.55213" lon="14.5230333"><ele>228.0</ele><time>2026-05-06T12:28:01.031Z</time></trkpt><trkpt lat="37.5520767" lon="14.5231583"><ele>228.0</ele><time>2026-05-06T12:28:02.031Z</time></trkpt><trkpt lat="37.5520383" lon="14.52327"><ele>228.0</ele><time>2026-05-06T12:28:03.031Z</time></trkpt><trkpt lat="37.5520317" lon="14.5233767"><ele>228.0</ele><time>2026-05-06T12:28:04.031Z</time></trkpt><trkpt lat="37.5520483" lon="14.5234767"><ele>228.0</ele><time>2026-05-06T12:28:05.031Z</time></trkpt><trkpt lat="37.552095" lon="14.52354"><ele>228.0</ele><time>2026-05-06T12:28:06.031Z</time></trkpt><trkpt lat="37.5521583" lon="14.52359"><ele>228.0</ele><time>2026-05-06T12:28:07.031Z</time></trkpt><trkpt lat="37.552225" lon="14.5236067"><ele>228.0</ele><time>2026-05-06T12:28:08.031Z</time></trkpt><trkpt lat="37.5523017" lon="14.5235867"><ele>228.0</ele><time>2026-05-06T12:28:09.031Z</time></trkpt><trkpt lat="37.5523683" lon="14.523525"><ele>228.0</ele><time>2026-05-06T12:28:10.031Z</time></trkpt><trkpt lat="37.5524233" lon="14.5234317"><ele>228.0</ele><time>2026-05-06T12:28:11.031Z</time></trkpt><trkpt lat="37.552435" lon="14.5233183"><ele>228.0</ele><time>2026-05-06T12:28:12.031Z</time></trkpt><trkpt lat="37.5524183" lon="14.5232067"><ele>228.0</ele><time>2026-05-06T12:28:13.031Z</time></trkpt><trkpt lat="37.5523833" lon="14.5231183"><ele>228.0</ele><time>2026-05-06T12:28:14.031Z</time></trkpt><trkpt lat="37.5523317" lon="14.5230117"><ele>228.0</ele><time>2026-05-06T12:28:16.03Z</time></trkpt><trkpt lat="37.5523133" lon="14.522935"><ele>228.0</ele><time>2026-05-06T12:30:13.031Z</time></trkpt><trkpt lat="37.5523183" lon="14.5228467"><ele>228.0</ele><time>2026-05-06T12:30:15.031Z</time></trkpt><trkpt lat="37.5523667" lon="14.5227167"><ele>228.0</ele><time>2026-05-06T12:30:17.031Z</time></trkpt><trkpt lat="37.5524133" lon="14.5226567"><ele>228.16666666666666</ele><time>2026-05-06T12:30:18.031Z</time></trkpt><trkpt lat="37.5524683" lon="14.5226117"><ele>228.33333333333331</ele><time>2026-05-06T12:30:19.031Z</time></trkpt><trkpt lat="37.55259" lon="14.5226033"><ele>228.5</ele><time>2026-05-06T12:30:21.031Z</time></trkpt><trkpt lat="37.55265" lon="14.5226417"><ele>228.66666666666666</ele><time>2026-05-06T12:30:22.031Z</time></trkpt><trkpt lat="37.5527" lon="14.5226983"><ele>228.83333333333331</ele><time>2026-05-06T12:30:23.031Z</time></trkpt><trkpt lat="37.5527367" lon="14.5227683"><ele>229.0</ele><time>2026-05-06T12:30:24.031Z</time></trkpt><trkpt lat="37.55276" lon="14.5228483"><ele>228.83333333333331</ele><time>2026-05-06T12:30:25.031Z</time></trkpt><trkpt lat="37.5527783" lon="14.5229383"><ele>228.66666666666666</ele><time>2026-05-06T12:30:26.031Z</time></trkpt><trkpt lat="37.55278" lon="14.5230383"><ele>228.5</ele><time>2026-05-06T12:30:27.03Z</time></trkpt><trkpt lat="37.5527767" lon="14.5231467"><ele>228.33333333333331</ele><time>2026-05-06T12:30:28.031Z</time></trkpt><trkpt lat="37.5527667" lon="14.52326"><ele>228.16666666666666</ele><time>2026-05-06T12:30:29.031Z</time></trkpt><trkpt lat="37.552745" lon="14.5233717"><ele>228.0</ele><time>2026-05-06T12:30:30.031Z</time></trkpt><trkpt lat="37.5527033" lon="14.5234933"><ele>228.0</ele><time>2026-05-06T12:30:31.031Z</time></trkpt><trkpt lat="37.55265" lon="14.5236333"><ele>228.0</ele><time>2026-05-06T12:30:32.031Z</time></trkpt><trkpt lat="37.5525867" lon="14.52378"><ele>228.0</ele><time>2026-05-06T12:30:33.031Z</time></trkpt><trkpt lat="37.55251" lon="14.5239467"><ele>228.0</ele><time>2026-05-06T12:30:34.031Z</time></trkpt><trkpt lat="37.552425" lon="14.52414"><ele>228.0</ele><time>2026-05-06T12:30:35.031Z</time></trkpt><trkpt lat="37.5523317" lon="14.5243467"><ele>228.0</ele><time>2026-05-06T12:30:36.031Z</time></trkpt><trkpt lat="37.5522283" lon="14.5245733"><ele>228.0</ele><time>2026-05-06T12:30:37.031Z</time></trkpt><trkpt lat="37.5521217" lon="14.5247983"><ele>228.66666666666669</ele><time>2026-05-06T12:30:38.031Z</time></trkpt><trkpt lat="37.5520233" lon="14.5250067"><ele>229.33333333333334</ele><time>2026-05-06T12:30:39.031Z</time></trkpt><trkpt lat="37.551925" lon="14.52521"><ele>230.0</ele><time>2026-05-06T12:30:40.031Z</time></trkpt><trkpt lat="37.5518133" lon="14.525415"><ele>230.0</ele><time>2026-05-06T12:30:41.03Z</time></trkpt><trkpt lat="37.5517033" lon="14.5256233"><ele>230.0</ele><time>2026-05-06T12:30:42.031Z</time></trkpt><trkpt lat="37.55159" lon="14.5258383"><ele>230.0</ele><time>2026-05-06T12:30:43.031Z</time></trkpt><trkpt lat="37.5514683" lon="14.5260533"><ele>229.33333333333334</ele><time>2026-05-06T12:30:44.031Z</time></trkpt><trkpt lat="37.551345" lon="14.5262683"><ele>228.66666666666669</ele><time>2026-05-06T12:30:45.031Z</time></trkpt><trkpt lat="37.5512183" lon="14.5264917"><ele>228.0</ele><time>2026-05-06T12:30:46.031Z</time></trkpt><trkpt lat="37.5510817" lon="14.52673"><ele>227.5</ele><time>2026-05-06T12:30:47.031Z</time></trkpt><trkpt lat="37.55094" lon="14.526985"><ele>227.0</ele><time>2026-05-06T12:30:48.031Z</time></trkpt><trkpt lat="37.5507883" lon="14.5272517"><ele>227.0</ele><time>2026-05-06T12:30:49.031Z</time></trkpt><trkpt lat="37.5506333" lon="14.5275117"><ele>227.0</ele><time>2026-05-06T12:30:50.031Z</time></trkpt><trkpt lat="37.5504767" lon="14.527775"><ele>225.5</ele><time>2026-05-06T12:30:51.031Z</time></trkpt><trkpt lat="37.5503233" lon="14.5280433"><ele>224.0</ele><time>2026-05-06T12:30:52.031Z</time></trkpt><trkpt lat="37.5501683" lon="14.52831"><ele>224.0</ele><time>2026-05-06T12:30:53.031Z</time></trkpt><trkpt lat="37.5500117" lon="14.5285783"><ele>224.0</ele><time>2026-05-06T12:30:54.031Z</time></trkpt><trkpt lat="37.5498517" lon="14.52884"><ele>224.0</ele><time>2026-05-06T12:30:55.031Z</time></trkpt><trkpt lat="37.5496967" lon="14.5291033"><ele>224.0</ele><time>2026-05-06T12:30:56.031Z</time></trkpt><trkpt lat="37.549545" lon="14.5293717"><ele>223.0</ele><time>2026-05-06T12:30:57.031Z</time></trkpt><trkpt lat="37.5493967" lon="14.5296283"><ele>222.0</ele><time>2026-05-06T12:30:58.031Z</time></trkpt><trkpt lat="37.5492483" lon="14.529885"><ele>222.0</ele><time>2026-05-06T12:30:59.031Z</time></trkpt><trkpt lat="37.549095" lon="14.5301333"><ele>222.0</ele><time>2026-05-06T12:31:00.031Z</time></trkpt><trkpt lat="37.5489467" lon="14.5303817"><ele>222.5</ele><time>2026-05-06T12:31:01.03Z</time></trkpt><trkpt lat="37.5488033" lon="14.530625"><ele>223.0</ele><time>2026-05-06T12:31:02.031Z</time></trkpt><trkpt lat="37.548665" lon="14.5308717"><ele>223.5</ele><time>2026-05-06T12:31:03.031Z</time></trkpt><trkpt lat="37.5485317" lon="14.53111"><ele>224.0</ele><time>2026-05-06T12:31:04.031Z</time></trkpt><trkpt lat="37.5483967" lon="14.5313467"><ele>224.0</ele><time>2026-05-06T12:31:05.031Z</time></trkpt><trkpt lat="37.5482633" lon="14.5315783"><ele>224.0</ele><time>2026-05-06T12:31:06.031Z</time></trkpt><trkpt lat="37.5481283" lon="14.53181"><ele>224.0</ele><time>2026-05-06T12:31:07.031Z</time></trkpt><trkpt lat="37.547995" lon="14.5320317"><ele>224.0</ele><time>2026-05-06T12:31:08.031Z</time></trkpt><trkpt lat="37.547865" lon="14.532255"><ele>224.0</ele><time>2026-05-06T12:31:09.031Z</time></trkpt><trkpt lat="37.5477317" lon="14.5324817"><ele>223.66666666666669</ele><time>2026-05-06T12:31:10.031Z</time></trkpt><trkpt lat="37.5476017" lon="14.5327083"><ele>223.33333333333331</ele><time>2026-05-06T12:31:11.031Z</time></trkpt><trkpt lat="37.54747" lon="14.5329367"><ele>223.0</ele><time>2026-05-06T12:31:12.031Z</time></trkpt><trkpt lat="37.5473417" lon="14.5331733"><ele>223.0</ele><time>2026-05-06T12:31:13.031Z</time></trkpt><trkpt lat="37.5472117" lon="14.5334"><ele>223.0</ele><time>2026-05-06T12:31:14.031Z</time></trkpt><trkpt lat="37.54709" lon="14.5336333"><ele>223.0</ele><time>2026-05-06T12:31:15.031Z</time></trkpt><trkpt lat="37.5469667" lon="14.5338683"><ele>221.0</ele><time>2026-05-06T12:31:16.031Z</time></trkpt><trkpt lat="37.546845" lon="14.5341133"><ele>219.0</ele><time>2026-05-06T12:31:17.031Z</time></trkpt><trkpt lat="37.5467233" lon="14.53436"><ele>220.0</ele><time>2026-05-06T12:31:18.031Z</time></trkpt><trkpt lat="37.5466033" lon="14.5346"><ele>221.0</ele><time>2026-05-06T12:31:19.031Z</time></trkpt><trkpt lat="37.54648" lon="14.5348617"><ele>221.0</ele><time>2026-05-06T12:31:20.031Z</time></trkpt><trkpt lat="37.54636" lon="14.5351233"><ele>221.0</ele><time>2026-05-06T12:31:21.031Z</time></trkpt><trkpt lat="37.546255" lon="14.5353817"><ele>219.0</ele><time>2026-05-06T12:31:22.031Z</time></trkpt><trkpt lat="37.5461383" lon="14.5356467"><ele>217.0</ele><time>2026-05-06T12:31:23.031Z</time></trkpt><trkpt lat="37.5460267" lon="14.5359117"><ele>217.0</ele><time>2026-05-06T12:31:24.031Z</time></trkpt><trkpt lat="37.5459233" lon="14.5361733"><ele>217.0</ele><time>2026-05-06T12:31:25.031Z</time></trkpt><trkpt lat="37.545825" lon="14.5364267"><ele>218.0</ele><time>2026-05-06T12:31:26.031Z</time></trkpt><trkpt lat="37.5457283" lon="14.536685"><ele>219.0</ele><time>2026-05-06T12:31:27.031Z</time></trkpt><trkpt lat="37.5456383" lon="14.53694"><ele>220.0</ele><time>2026-05-06T12:31:28.031Z</time></trkpt><trkpt lat="37.5455483" lon="14.5371983"><ele>220.0</ele><time>2026-05-06T12:31:29.031Z</time></trkpt><trkpt lat="37.54546" lon="14.5374517"><ele>220.0</ele><time>2026-05-06T12:31:30.031Z</time></trkpt><trkpt lat="37.545375" lon="14.53771"><ele>220.0</ele><time>2026-05-06T12:31:31.031Z</time></trkpt><trkpt lat="37.5452983" lon="14.5379433"><ele>220.66666666666666</ele><time>2026-05-06T12:31:32.031Z</time></trkpt><trkpt lat="37.545225" lon="14.5381817"><ele>221.33333333333331</ele><time>2026-05-06T12:31:33.031Z</time></trkpt><trkpt lat="37.545145" lon="14.53844"><ele>222.0</ele><time>2026-05-06T12:31:34.031Z</time></trkpt><trkpt lat="37.5450617" lon="14.5387083"><ele>225.0</ele><time>2026-05-06T12:31:35.031Z</time></trkpt><trkpt lat="37.5449817" lon="14.5389883"><ele>228.0</ele><time>2026-05-06T12:31:36.031Z</time></trkpt><trkpt lat="37.5448967" lon="14.5392717"><ele>228.0</ele><time>2026-05-06T12:31:37.031Z</time></trkpt><trkpt lat="37.5448133" lon="14.5395433"><ele>228.0</ele><time>2026-05-06T12:31:38.031Z</time></trkpt><trkpt lat="37.5447417" lon="14.5397967"><ele>228.0</ele><time>2026-05-06T12:31:39.031Z</time></trkpt><trkpt lat="37.5446667" lon="14.540045"><ele>228.33333333333331</ele><time>2026-05-06T12:31:40.031Z</time></trkpt><trkpt lat="37.5445933" lon="14.5403"><ele>228.66666666666666</ele><time>2026-05-06T12:31:41.031Z</time></trkpt><trkpt lat="37.5445183" lon="14.5405617"><ele>229.0</ele><time>2026-05-06T12:31:42.031Z</time></trkpt><trkpt lat="37.5444483" lon="14.5408233"><ele>229.0</ele><time>2026-05-06T12:31:43.031Z</time></trkpt><trkpt lat="37.544375" lon="14.54108"><ele>229.0</ele><time>2026-05-06T12:31:44.031Z</time></trkpt><trkpt lat="37.5443" lon="14.5413383"><ele>229.0</ele><time>2026-05-06T12:31:45.031Z</time></trkpt><trkpt lat="37.5442283" lon="14.5416017"><ele>225.33333333333331</ele><time>2026-05-06T12:31:46.031Z</time></trkpt><trkpt lat="37.5441583" lon="14.5418683"><ele>221.66666666666669</ele><time>2026-05-06T12:31:47.031Z</time></trkpt><trkpt lat="37.5440867" lon="14.5421367"><ele>218.0</ele><time>2026-05-06T12:31:48.031Z</time></trkpt><trkpt lat="37.5440083" lon="14.5424017"><ele>217.5</ele><time>2026-05-06T12:31:49.031Z</time></trkpt><trkpt lat="37.543935" lon="14.5426717"><ele>217.0</ele><time>2026-05-06T12:31:50.031Z</time></trkpt><trkpt lat="37.543865" lon="14.542945"><ele>217.0</ele><time>2026-05-06T12:31:51.031Z</time></trkpt><trkpt lat="37.5437883" lon="14.5432133"><ele>217.0</ele><time>2026-05-06T12:31:52.031Z</time></trkpt><trkpt lat="37.543715" lon="14.5434883"><ele>215.0</ele><time>2026-05-06T12:31:53.031Z</time></trkpt><trkpt lat="37.54364" lon="14.5437633"><ele>213.0</ele><time>2026-05-06T12:31:54.031Z</time></trkpt><trkpt lat="37.5435667" lon="14.54404"><ele>213.0</ele><time>2026-05-06T12:31:55.031Z</time></trkpt><trkpt lat="37.54349" lon="14.5443133"><ele>213.0</ele><time>2026-05-06T12:31:56.031Z</time></trkpt><trkpt lat="37.5434117" lon="14.5445883"><ele>213.0</ele><time>2026-05-06T12:31:57.031Z</time></trkpt><trkpt lat="37.5433333" lon="14.5448617"><ele>213.0</ele><time>2026-05-06T12:31:58.031Z</time></trkpt><trkpt lat="37.5432567" lon="14.54514"><ele>215.0</ele><time>2026-05-06T12:31:59.03Z</time></trkpt><trkpt lat="37.54318" lon="14.5454133"><ele>217.0</ele><time>2026-05-06T12:32:00.031Z</time></trkpt><trkpt lat="37.543105" lon="14.5456883"><ele>217.0</ele><time>2026-05-06T12:32:01.031Z</time></trkpt><trkpt lat="37.54303" lon="14.5459617"><ele>217.0</ele><time>2026-05-06T12:32:02.031Z</time></trkpt><trkpt lat="37.5429567" lon="14.5462333"><ele>217.5</ele><time>2026-05-06T12:32:03.031Z</time></trkpt><trkpt lat="37.542875" lon="14.5465133"><ele>218.0</ele><time>2026-05-06T12:32:04.031Z</time></trkpt><trkpt lat="37.54281" lon="14.546785"><ele>216.5</ele><time>2026-05-06T12:32:05.031Z</time></trkpt><trkpt lat="37.5427383" lon="14.54706"><ele>215.0</ele><time>2026-05-06T12:32:06.031Z</time></trkpt><trkpt lat="37.5426617" lon="14.54734"><ele>215.0</ele><time>2026-05-06T12:32:07.031Z</time></trkpt><trkpt lat="37.5425817" lon="14.5476217"><ele>215.0</ele><time>2026-05-06T12:32:08.031Z</time></trkpt><trkpt lat="37.542505" lon="14.5479067"><ele>214.0</ele><time>2026-05-06T12:32:09.031Z</time></trkpt><trkpt lat="37.542425" lon="14.5482"><ele>213.0</ele><time>2026-05-06T12:32:10.031Z</time></trkpt><trkpt lat="37.542355" lon="14.54849"><ele>211.5</ele><time>2026-05-06T12:32:11.031Z</time></trkpt><trkpt lat="37.5422917" lon="14.5487867"><ele>210.0</ele><time>2026-05-06T12:32:12.031Z</time></trkpt><trkpt lat="37.5422317" lon="14.5490767"><ele>210.0</ele><time>2026-05-06T12:32:13.031Z</time></trkpt><trkpt lat="37.542175" lon="14.5493733"><ele>210.0</ele><time>2026-05-06T12:32:14.031Z</time></trkpt><trkpt lat="37.542125" lon="14.5496717"><ele>208.0</ele><time>2026-05-06T12:32:15.031Z</time></trkpt><trkpt lat="37.54208" lon="14.5499733"><ele>206.0</ele><time>2026-05-06T12:32:16.031Z</time></trkpt><trkpt lat="37.5420467" lon="14.5502767"><ele>205.5</ele><time>2026-05-06T12:32:17.031Z</time></trkpt><trkpt lat="37.5420283" lon="14.5505783"><ele>205.0</ele><time>2026-05-06T12:32:18.031Z</time></trkpt><trkpt lat="37.5420117" lon="14.5508883"><ele>205.0</ele><time>2026-05-06T12:32:19.031Z</time></trkpt><trkpt lat="37.5419983" lon="14.5511883"><ele>205.0</ele><time>2026-05-06T12:32:20.03Z</time></trkpt><trkpt lat="37.5419917" lon="14.5514933"><ele>205.0</ele><time>2026-05-06T12:32:21.031Z</time></trkpt><trkpt lat="37.541995" lon="14.5518"><ele>205.0</ele><time>2026-05-06T12:32:22.031Z</time></trkpt><trkpt lat="37.542005" lon="14.5521017"><ele>204.5</ele><time>2026-05-06T12:32:23.03Z</time></trkpt><trkpt lat="37.542025" lon="14.552405"><ele>204.0</ele><time>2026-05-06T12:32:24.031Z</time></trkpt><trkpt lat="37.5420483" lon="14.55271"><ele>206.0</ele><time>2026-05-06T12:32:25.031Z</time></trkpt><trkpt lat="37.54208" lon="14.5530133"><ele>208.0</ele><time>2026-05-06T12:32:26.031Z</time></trkpt><trkpt lat="37.54212" lon="14.553315"><ele>208.0</ele><time>2026-05-06T12:32:27.031Z</time></trkpt><trkpt lat="37.5421667" lon="14.5536183"><ele>208.0</ele><time>2026-05-06T12:32:28.03Z</time></trkpt><trkpt lat="37.5422183" lon="14.5539217"><ele>208.0</ele><time>2026-05-06T12:32:29.031Z</time></trkpt><trkpt lat="37.5422833" lon="14.5542333"><ele>208.0</ele><time>2026-05-06T12:32:30.031Z</time></trkpt><trkpt lat="37.5423583" lon="14.5545567"><ele>208.0</ele><time>2026-05-06T12:32:31.031Z</time></trkpt><trkpt lat="37.542445" lon="14.554885"><ele>208.0</ele><time>2026-05-06T12:32:32.031Z</time></trkpt><trkpt lat="37.5425483" lon="14.5552167"><ele>208.0</ele><time>2026-05-06T12:32:33.031Z</time></trkpt><trkpt lat="37.542665" lon="14.5555583"><ele>208.0</ele><time>2026-05-06T12:32:34.031Z</time></trkpt><trkpt lat="37.54278" lon="14.5558983"><ele>208.5</ele><time>2026-05-06T12:32:35.031Z</time></trkpt><trkpt lat="37.5428883" lon="14.5562183"><ele>209.0</ele><time>2026-05-06T12:32:36.031Z</time></trkpt><trkpt lat="37.5429883" lon="14.55652"><ele>209.0</ele><time>2026-05-06T12:32:37.031Z</time></trkpt><trkpt lat="37.5430867" lon="14.5568217"><ele>209.0</ele><time>2026-05-06T12:32:38.031Z</time></trkpt><trkpt lat="37.5431833" lon="14.5571183"><ele>209.0</ele><time>2026-05-06T12:32:39.031Z</time></trkpt><trkpt lat="37.5432733" lon="14.557415"><ele>209.0</ele><time>2026-05-06T12:32:40.031Z</time></trkpt><trkpt lat="37.5433683" lon="14.557705"><ele>206.0</ele><time>2026-05-06T12:32:41.031Z</time></trkpt><trkpt lat="37.54346" lon="14.5579867"><ele>203.0</ele><time>2026-05-06T12:32:42.03Z</time></trkpt><trkpt lat="37.543545" lon="14.5582633"><ele>203.0</ele><time>2026-05-06T12:32:43.031Z</time></trkpt><trkpt lat="37.5436333" lon="14.558535"><ele>203.0</ele><time>2026-05-06T12:32:44.031Z</time></trkpt><trkpt lat="37.5437233" lon="14.55881"><ele>206.5</ele><time>2026-05-06T12:32:45.031Z</time></trkpt><trkpt lat="37.543815" lon="14.5590767"><ele>210.0</ele><time>2026-05-06T12:32:46.031Z</time></trkpt><trkpt lat="37.5439017" lon="14.5593467"><ele>208.5</ele><time>2026-05-06T12:32:47.031Z</time></trkpt><trkpt lat="37.5439917" lon="14.5596083"><ele>207.0</ele><time>2026-05-06T12:32:48.031Z</time></trkpt><trkpt lat="37.5440783" lon="14.55987"><ele>207.0</ele><time>2026-05-06T12:32:49.031Z</time></trkpt><trkpt lat="37.544165" lon="14.56013"><ele>207.0</ele><time>2026-05-06T12:32:50.031Z</time></trkpt><trkpt lat="37.5442533" lon="14.560385"><ele>207.0</ele><time>2026-05-06T12:32:51.031Z</time></trkpt><trkpt lat="37.54434" lon="14.5606417"><ele>206.33333333333331</ele><time>2026-05-06T12:32:52.031Z</time></trkpt><trkpt lat="37.5444267" lon="14.5608967"><ele>205.66666666666666</ele><time>2026-05-06T12:32:53.031Z</time></trkpt><trkpt lat="37.544515" lon="14.5611483"><ele>205.0</ele><time>2026-05-06T12:32:54.031Z</time></trkpt><trkpt lat="37.5446067" lon="14.561405"><ele>205.0</ele><time>2026-05-06T12:32:55.031Z</time></trkpt><trkpt lat="37.544705" lon="14.56168"><ele>205.0</ele><time>2026-05-06T12:32:56.031Z</time></trkpt><trkpt lat="37.5448033" lon="14.5619667"><ele>205.0</ele><time>2026-05-06T12:32:57.031Z</time></trkpt><trkpt lat="37.5449" lon="14.562265"><ele>205.0</ele><time>2026-05-06T12:32:58.031Z</time></trkpt><trkpt lat="37.5450033" lon="14.56257"><ele>202.0</ele><time>2026-05-06T12:32:59.031Z</time></trkpt><trkpt lat="37.545105" lon="14.5628783"><ele>199.0</ele><time>2026-05-06T12:33:00.031Z</time></trkpt><trkpt lat="37.5452133" lon="14.5632017"><ele>199.0</ele><time>2026-05-06T12:33:01.031Z</time></trkpt><trkpt lat="37.545325" lon="14.5635233"><ele>199.0</ele><time>2026-05-06T12:33:02.03Z</time></trkpt><trkpt lat="37.5454367" lon="14.5638483"><ele>202.5</ele><time>2026-05-06T12:33:03.031Z</time></trkpt><trkpt lat="37.5455467" lon="14.5641783"><ele>206.0</ele><time>2026-05-06T12:33:04.031Z</time></trkpt><trkpt lat="37.5456583" lon="14.5645133"><ele>202.5</ele><time>2026-05-06T12:33:05.031Z</time></trkpt><trkpt lat="37.5457717" lon="14.56485"><ele>199.0</ele><time>2026-05-06T12:33:06.031Z</time></trkpt><trkpt lat="37.5458833" lon="14.5651933"><ele>197.0</ele><time>2026-05-06T12:33:07.031Z</time></trkpt><trkpt lat="37.5460017" lon="14.5655333"><ele>195.0</ele><time>2026-05-06T12:33:08.031Z</time></trkpt><trkpt lat="37.5461267" lon="14.5658933"><ele>197.5</ele><time>2026-05-06T12:33:09.031Z</time></trkpt><trkpt lat="37.5462533" lon="14.5662733"><ele>200.0</ele><time>2026-05-06T12:33:10.031Z</time></trkpt><trkpt lat="37.5463867" lon="14.5666667"><ele>199.0</ele><time>2026-05-06T12:33:11.031Z</time></trkpt><trkpt lat="37.546515" lon="14.56707"><ele>198.0</ele><time>2026-05-06T12:33:12.031Z</time></trkpt><trkpt lat="37.5466517" lon="14.56747"><ele>197.5</ele><time>2026-05-06T12:33:13.031Z</time></trkpt><trkpt lat="37.5467883" lon="14.5678683"><ele>197.0</ele><time>2026-05-06T12:33:14.031Z</time></trkpt><trkpt lat="37.5469267" lon="14.568275"><ele>198.0</ele><time>2026-05-06T12:33:15.031Z</time></trkpt><trkpt lat="37.5470567" lon="14.5686683"><ele>199.0</ele><time>2026-05-06T12:33:16.03Z</time></trkpt><trkpt lat="37.54719" lon="14.5690517"><ele>199.0</ele><time>2026-05-06T12:33:17.03Z</time></trkpt><trkpt lat="37.5473217" lon="14.5694317"><ele>199.0</ele><time>2026-05-06T12:33:18.031Z</time></trkpt><trkpt lat="37.5474517" lon="14.5698133"><ele>198.5</ele><time>2026-05-06T12:33:19.03Z</time></trkpt><trkpt lat="37.54758" lon="14.5701917"><ele>198.0</ele><time>2026-05-06T12:33:20.031Z</time></trkpt><trkpt lat="37.5477033" lon="14.5705733"><ele>198.0</ele><time>2026-05-06T12:33:21.031Z</time></trkpt><trkpt lat="37.5478333" lon="14.5709433"><ele>198.0</ele><time>2026-05-06T12:33:22.031Z</time></trkpt><trkpt lat="37.5479567" lon="14.57132"><ele>198.0</ele><time>2026-05-06T12:33:23.031Z</time></trkpt><trkpt lat="37.5480733" lon="14.5716933"><ele>198.0</ele><time>2026-05-06T12:33:24.031Z</time></trkpt><trkpt lat="37.5481933" lon="14.5720567"><ele>197.0</ele><time>2026-05-06T12:33:25.031Z</time></trkpt><trkpt lat="37.548315" lon="14.57242"><ele>196.0</ele><time>2026-05-06T12:33:26.03Z</time></trkpt><trkpt lat="37.5484283" lon="14.5727833"><ele>196.5</ele><time>2026-05-06T12:33:27.031Z</time></trkpt><trkpt lat="37.54854" lon="14.573145"><ele>197.0</ele><time>2026-05-06T12:33:28.031Z</time></trkpt><trkpt lat="37.5486533" lon="14.573505"><ele>199.5</ele><time>2026-05-06T12:33:29.031Z</time></trkpt><trkpt lat="37.5487667" lon="14.5738617"><ele>202.0</ele><time>2026-05-06T12:33:30.031Z</time></trkpt><trkpt lat="37.5488767" lon="14.5742183"><ele>201.0</ele><time>2026-05-06T12:33:31.031Z</time></trkpt><trkpt lat="37.5489833" lon="14.5745733"><ele>200.0</ele><time>2026-05-06T12:33:32.031Z</time></trkpt><trkpt lat="37.549085" lon="14.5749283"><ele>200.0</ele><time>2026-05-06T12:33:33.031Z</time></trkpt><trkpt lat="37.54918" lon="14.575285"><ele>200.0</ele><time>2026-05-06T12:33:34.031Z</time></trkpt><trkpt lat="37.5492733" lon="14.57564"><ele>199.5</ele><time>2026-05-06T12:33:35.031Z</time></trkpt><trkpt lat="37.54936" lon="14.57599"><ele>199.0</ele><time>2026-05-06T12:33:36.031Z</time></trkpt><trkpt lat="37.5494483" lon="14.5763433"><ele>199.0</ele><time>2026-05-06T12:33:37.031Z</time></trkpt><trkpt lat="37.54953" lon="14.5766967"><ele>199.0</ele><time>2026-05-06T12:33:38.031Z</time></trkpt><trkpt lat="37.54961" lon="14.577045"><ele>199.0</ele><time>2026-05-06T12:33:39.031Z</time></trkpt><trkpt lat="37.549685" lon="14.5773967"><ele>199.0</ele><time>2026-05-06T12:33:40.031Z</time></trkpt><trkpt lat="37.5497583" lon="14.5777517"><ele>199.5</ele><time>2026-05-06T12:33:41.031Z</time></trkpt><trkpt lat="37.5498317" lon="14.5781067"><ele>200.0</ele><time>2026-05-06T12:33:42.031Z</time></trkpt><trkpt lat="37.5499033" lon="14.57847"><ele>198.5</ele><time>2026-05-06T12:33:43.031Z</time></trkpt><trkpt lat="37.549975" lon="14.578845"><ele>197.0</ele><time>2026-05-06T12:33:44.031Z</time></trkpt><trkpt lat="37.550045" lon="14.5792433"><ele>195.5</ele><time>2026-05-06T12:33:45.031Z</time></trkpt><trkpt lat="37.5501117" lon="14.5796517"><ele>194.0</ele><time>2026-05-06T12:33:46.031Z</time></trkpt><trkpt lat="37.5501783" lon="14.5800683"><ele>192.5</ele><time>2026-05-06T12:33:47.031Z</time></trkpt><trkpt lat="37.550245" lon="14.5804883"><ele>191.0</ele><time>2026-05-06T12:33:48.03Z</time></trkpt><trkpt lat="37.5503083" lon="14.5809267"><ele>192.0</ele><time>2026-05-06T12:33:49.031Z</time></trkpt><trkpt lat="37.5503667" lon="14.581365"><ele>193.0</ele><time>2026-05-06T12:33:50.031Z</time></trkpt><trkpt lat="37.550425" lon="14.58179"><ele>193.0</ele><time>2026-05-06T12:33:51.031Z</time></trkpt><trkpt lat="37.5504817" lon="14.5822117"><ele>193.0</ele><time>2026-05-06T12:33:52.031Z</time></trkpt><trkpt lat="37.5505417" lon="14.582625"><ele>191.0</ele><time>2026-05-06T12:33:53.031Z</time></trkpt><trkpt lat="37.550595" lon="14.5830333"><ele>189.0</ele><time>2026-05-06T12:33:54.031Z</time></trkpt><trkpt lat="37.5506517" lon="14.5834417"><ele>189.0</ele><time>2026-05-06T12:33:55.031Z</time></trkpt><trkpt lat="37.55071" lon="14.583855"><ele>189.0</ele><time>2026-05-06T12:33:56.031Z</time></trkpt><trkpt lat="37.5507683" lon="14.5842817"><ele>188.0</ele><time>2026-05-06T12:33:57.031Z</time></trkpt><trkpt lat="37.5508267" lon="14.5847233"><ele>187.0</ele><time>2026-05-06T12:33:58.031Z</time></trkpt><trkpt lat="37.550885" lon="14.5851633"><ele>185.0</ele><time>2026-05-06T12:33:59.031Z</time></trkpt><trkpt lat="37.5509483" lon="14.585575"><ele>183.0</ele><time>2026-05-06T12:34:00.031Z</time></trkpt><trkpt lat="37.5510083" lon="14.585955"><ele>183.5</ele><time>2026-05-06T12:34:01.031Z</time></trkpt><trkpt lat="37.5510667" lon="14.5863133"><ele>184.0</ele><time>2026-05-06T12:34:02.031Z</time></trkpt><trkpt lat="37.551115" lon="14.5866467"><ele>184.0</ele><time>2026-05-06T12:34:03.031Z</time></trkpt><trkpt lat="37.5511617" lon="14.5869533"><ele>184.0</ele><time>2026-05-06T12:34:04.031Z</time></trkpt><trkpt lat="37.5512017" lon="14.5872433"><ele>183.5</ele><time>2026-05-06T12:34:05.031Z</time></trkpt><trkpt lat="37.55124" lon="14.587525"><ele>183.0</ele><time>2026-05-06T12:34:06.031Z</time></trkpt><trkpt lat="37.55128" lon="14.5878083"><ele>183.0</ele><time>2026-05-06T12:34:07.031Z</time></trkpt><trkpt lat="37.5513167" lon="14.5880833"><ele>183.0</ele><time>2026-05-06T12:34:08.031Z</time></trkpt><trkpt lat="37.5513483" lon="14.5883433"><ele>183.0</ele><time>2026-05-06T12:34:09.031Z</time></trkpt><trkpt lat="37.55138" lon="14.5886017"><ele>182.33333333333334</ele><time>2026-05-06T12:34:10.031Z</time></trkpt><trkpt lat="37.5514133" lon="14.5888617"><ele>181.66666666666669</ele><time>2026-05-06T12:34:11.031Z</time></trkpt><trkpt lat="37.5514483" lon="14.5891233"><ele>181.0</ele><time>2026-05-06T12:34:12.031Z</time></trkpt><trkpt lat="37.5514833" lon="14.58939"><ele>181.0</ele><time>2026-05-06T12:34:13.031Z</time></trkpt><trkpt lat="37.55152" lon="14.5896467"><ele>181.0</ele><time>2026-05-06T12:34:14.031Z</time></trkpt><trkpt lat="37.5515583" lon="14.5899017"><ele>181.0</ele><time>2026-05-06T12:34:15.031Z</time></trkpt><trkpt lat="37.551595" lon="14.5901633"><ele>180.66666666666669</ele><time>2026-05-06T12:34:16.03Z</time></trkpt><trkpt lat="37.5516317" lon="14.5904317"><ele>180.33333333333334</ele><time>2026-05-06T12:34:17.031Z</time></trkpt><trkpt lat="37.55167" lon="14.5907067"><ele>180.0</ele><time>2026-05-06T12:34:18.031Z</time></trkpt><trkpt lat="37.551705" lon="14.5909883"><ele>179.0</ele><time>2026-05-06T12:34:19.031Z</time></trkpt><trkpt lat="37.5517467" lon="14.591275"><ele>178.0</ele><time>2026-05-06T12:34:20.031Z</time></trkpt><trkpt lat="37.5517883" lon="14.5915683"><ele>178.0</ele><time>2026-05-06T12:34:21.03Z</time></trkpt><trkpt lat="37.5518267" lon="14.5918517"><ele>178.0</ele><time>2026-05-06T12:34:22.031Z</time></trkpt><trkpt lat="37.55187" lon="14.59214"><ele>178.0</ele><time>2026-05-06T12:34:23.031Z</time></trkpt><trkpt lat="37.5519083" lon="14.59243"><ele>178.0</ele><time>2026-05-06T12:34:24.03Z</time></trkpt><trkpt lat="37.5519483" lon="14.5927117"><ele>177.5</ele><time>2026-05-06T12:34:25.03Z</time></trkpt><trkpt lat="37.55199" lon="14.5929983"><ele>177.0</ele><time>2026-05-06T12:34:26.03Z</time></trkpt><trkpt lat="37.5520333" lon="14.5932883"><ele>176.5</ele><time>2026-05-06T12:34:27.03Z</time></trkpt><trkpt lat="37.5520683" lon="14.5935783"><ele>176.0</ele><time>2026-05-06T12:34:28.03Z</time></trkpt><trkpt lat="37.55211" lon="14.5938633"><ele>176.0</ele><time>2026-05-06T12:34:29.03Z</time></trkpt><trkpt lat="37.5521533" lon="14.59415"><ele>176.0</ele><time>2026-05-06T12:34:30.03Z</time></trkpt><trkpt lat="37.55219" lon="14.59442"><ele>176.0</ele><time>2026-05-06T12:34:31.03Z</time></trkpt><trkpt lat="37.55223" lon="14.5946717"><ele>177.0</ele><time>2026-05-06T12:34:32.03Z</time></trkpt><trkpt lat="37.5522667" lon="14.5949083"><ele>178.0</ele><time>2026-05-06T12:34:33.029Z</time></trkpt><trkpt lat="37.5522983" lon="14.5951367"><ele>179.0</ele><time>2026-05-06T12:34:34.03Z</time></trkpt><trkpt lat="37.5523333" lon="14.5953717"><ele>179.33333333333331</ele><time>2026-05-06T12:34:35.03Z</time></trkpt><trkpt lat="37.55236" lon="14.5955933"><ele>179.66666666666666</ele><time>2026-05-06T12:34:36.03Z</time></trkpt><trkpt lat="37.552395" lon="14.5957983"><ele>180.0</ele><time>2026-05-06T12:34:37.03Z</time></trkpt><trkpt lat="37.552415" lon="14.5960133"><ele>180.0</ele><time>2026-05-06T12:34:38.03Z</time></trkpt><trkpt lat="37.5524417" lon="14.5962133"><ele>180.0</ele><time>2026-05-06T12:34:39.03Z</time></trkpt><trkpt lat="37.5524667" lon="14.5964133"><ele>180.0</ele><time>2026-05-06T12:34:40.03Z</time></trkpt><trkpt lat="37.552495" lon="14.5966117"><ele>180.0</ele><time>2026-05-06T12:34:41.03Z</time></trkpt><trkpt lat="37.5525217" lon="14.5968017"><ele>180.0</ele><time>2026-05-06T12:34:42.03Z</time></trkpt><trkpt lat="37.552555" lon="14.5969883"><ele>180.0</ele><time>2026-05-06T12:34:43.03Z</time></trkpt><trkpt lat="37.5525867" lon="14.597195"><ele>179.33333333333334</ele><time>2026-05-06T12:34:44.03Z</time></trkpt><trkpt lat="37.55261" lon="14.5974033"><ele>178.66666666666669</ele><time>2026-05-06T12:34:45.03Z</time></trkpt><trkpt lat="37.5526417" lon="14.5976167"><ele>178.0</ele><time>2026-05-06T12:34:46.029Z</time></trkpt><trkpt lat="37.55267" lon="14.5978283"><ele>177.66666666666669</ele><time>2026-05-06T12:34:47.03Z</time></trkpt><trkpt lat="37.5527017" lon="14.5980483"><ele>177.33333333333334</ele><time>2026-05-06T12:34:48.029Z</time></trkpt><trkpt lat="37.5527317" lon="14.5982717"><ele>177.0</ele><time>2026-05-06T12:34:49.03Z</time></trkpt><trkpt lat="37.5527683" lon="14.5985"><ele>177.33333333333334</ele><time>2026-05-06T12:34:50.03Z</time></trkpt><trkpt lat="37.5527983" lon="14.598745"><ele>177.66666666666669</ele><time>2026-05-06T12:34:51.03Z</time></trkpt><trkpt lat="37.5528333" lon="14.5989833"><ele>178.0</ele><time>2026-05-06T12:34:52.03Z</time></trkpt><trkpt lat="37.5528633" lon="14.59922"><ele>178.33333333333334</ele><time>2026-05-06T12:34:53.03Z</time></trkpt><trkpt lat="37.5528967" lon="14.599455"><ele>178.66666666666666</ele><time>2026-05-06T12:34:54.03Z</time></trkpt><trkpt lat="37.55293" lon="14.599695"><ele>179.0</ele><time>2026-05-06T12:34:55.03Z</time></trkpt><trkpt lat="37.5529667" lon="14.5999383"><ele>179.0</ele><time>2026-05-06T12:34:56.03Z</time></trkpt><trkpt lat="37.5530083" lon="14.600175"><ele>179.0</ele><time>2026-05-06T12:34:57.03Z</time></trkpt><trkpt lat="37.553055" lon="14.6004133"><ele>179.0</ele><time>2026-05-06T12:34:58.03Z</time></trkpt><trkpt lat="37.5531033" lon="14.6006567"><ele>180.33333333333331</ele><time>2026-05-06T12:34:59.03Z</time></trkpt><trkpt lat="37.55316" lon="14.6009083"><ele>181.66666666666666</ele><time>2026-05-06T12:35:00.03Z</time></trkpt><trkpt lat="37.55322" lon="14.60116"><ele>183.0</ele><time>2026-05-06T12:35:01.03Z</time></trkpt><trkpt lat="37.553285" lon="14.6014133"><ele>183.33333333333334</ele><time>2026-05-06T12:35:02.03Z</time></trkpt><trkpt lat="37.55335" lon="14.6016683"><ele>183.66666666666669</ele><time>2026-05-06T12:35:03.03Z</time></trkpt><trkpt lat="37.5534267" lon="14.6019283"><ele>184.0</ele><time>2026-05-06T12:35:04.03Z</time></trkpt><trkpt lat="37.5535067" lon="14.602185"><ele>183.0</ele><time>2026-05-06T12:35:05.03Z</time></trkpt><trkpt lat="37.5535917" lon="14.6024467"><ele>182.0</ele><time>2026-05-06T12:35:06.03Z</time></trkpt><trkpt lat="37.5536833" lon="14.6027"><ele>181.0</ele><time>2026-05-06T12:35:07.03Z</time></trkpt><trkpt lat="37.553775" lon="14.60296"><ele>181.0</ele><time>2026-05-06T12:35:08.029Z</time></trkpt><trkpt lat="37.5538733" lon="14.6032233"><ele>181.0</ele><time>2026-05-06T12:35:09.03Z</time></trkpt><trkpt lat="37.5539783" lon="14.603485"><ele>181.5</ele><time>2026-05-06T12:35:10.03Z</time></trkpt><trkpt lat="37.5540883" lon="14.6037467"><ele>182.0</ele><time>2026-05-06T12:35:11.029Z</time></trkpt><trkpt lat="37.5542067" lon="14.6040033"><ele>182.0</ele><time>2026-05-06T12:35:12.03Z</time></trkpt><trkpt lat="37.5543217" lon="14.6042483"><ele>182.0</ele><time>2026-05-06T12:35:13.03Z</time></trkpt><trkpt lat="37.5544383" lon="14.60448"><ele>182.0</ele><time>2026-05-06T12:35:14.03Z</time></trkpt><trkpt lat="37.5545583" lon="14.604705"><ele>181.0</ele><time>2026-05-06T12:35:15.03Z</time></trkpt><trkpt lat="37.554675" lon="14.6049333"><ele>180.0</ele><time>2026-05-06T12:35:16.03Z</time></trkpt><trkpt lat="37.5547933" lon="14.6051633"><ele>179.0</ele><time>2026-05-06T12:35:17.03Z</time></trkpt><trkpt lat="37.5549167" lon="14.6054067"><ele>179.0</ele><time>2026-05-06T12:35:18.03Z</time></trkpt><trkpt lat="37.5550483" lon="14.6056417"><ele>179.0</ele><time>2026-05-06T12:35:19.03Z</time></trkpt><trkpt lat="37.5551733" lon="14.60589"><ele>179.0</ele><time>2026-05-06T12:35:20.03Z</time></trkpt><trkpt lat="37.5553033" lon="14.6061417"><ele>179.0</ele><time>2026-05-06T12:35:21.03Z</time></trkpt><trkpt lat="37.5554333" lon="14.6063917"><ele>177.0</ele><time>2026-05-06T12:35:22.03Z</time></trkpt><trkpt lat="37.5555617" lon="14.6066383"><ele>175.0</ele><time>2026-05-06T12:35:23.03Z</time></trkpt><trkpt lat="37.5556917" lon="14.60688"><ele>175.5</ele><time>2026-05-06T12:35:24.03Z</time></trkpt><trkpt lat="37.55582" lon="14.6071283"><ele>176.0</ele><time>2026-05-06T12:35:25.03Z</time></trkpt><trkpt lat="37.5559483" lon="14.60737"><ele>176.0</ele><time>2026-05-06T12:35:26.03Z</time></trkpt><trkpt lat="37.5560767" lon="14.60762"><ele>176.0</ele><time>2026-05-06T12:35:27.03Z</time></trkpt><trkpt lat="37.5562" lon="14.607865"><ele>176.0</ele><time>2026-05-06T12:35:28.029Z</time></trkpt><trkpt lat="37.5563283" lon="14.6081017"><ele>176.0</ele><time>2026-05-06T12:35:29.03Z</time></trkpt><trkpt lat="37.556455" lon="14.608345"><ele>176.0</ele><time>2026-05-06T12:35:30.03Z</time></trkpt><trkpt lat="37.5565833" lon="14.6085867"><ele>176.0</ele><time>2026-05-06T12:35:31.03Z</time></trkpt><trkpt lat="37.55671" lon="14.6088317"><ele>176.0</ele><time>2026-05-06T12:35:32.03Z</time></trkpt><trkpt lat="37.5568367" lon="14.60908"><ele>176.0</ele><time>2026-05-06T12:35:33.03Z</time></trkpt><trkpt lat="37.5569683" lon="14.6093167"><ele>175.5</ele><time>2026-05-06T12:35:34.03Z</time></trkpt><trkpt lat="37.5571" lon="14.6095583"><ele>175.0</ele><time>2026-05-06T12:35:35.03Z</time></trkpt><trkpt lat="37.55723" lon="14.6098"><ele>175.0</ele><time>2026-05-06T12:35:36.03Z</time></trkpt><trkpt lat="37.557355" lon="14.6100433"><ele>175.0</ele><time>2026-05-06T12:35:37.03Z</time></trkpt><trkpt lat="37.55748" lon="14.610285"><ele>176.0</ele><time>2026-05-06T12:35:38.03Z</time></trkpt><trkpt lat="37.5576067" lon="14.6105283"><ele>177.0</ele><time>2026-05-06T12:35:39.03Z</time></trkpt><trkpt lat="37.5577333" lon="14.61077"><ele>177.0</ele><time>2026-05-06T12:35:40.03Z</time></trkpt><trkpt lat="37.5578583" lon="14.6110133"><ele>177.0</ele><time>2026-05-06T12:35:41.03Z</time></trkpt><trkpt lat="37.5579833" lon="14.6112617"><ele>177.0</ele><time>2026-05-06T12:35:42.03Z</time></trkpt><trkpt lat="37.55811" lon="14.611505"><ele>177.0</ele><time>2026-05-06T12:35:43.03Z</time></trkpt><trkpt lat="37.558235" lon="14.6117517"><ele>174.5</ele><time>2026-05-06T12:35:44.03Z</time></trkpt><trkpt lat="37.5583633" lon="14.6119967"><ele>172.0</ele><time>2026-05-06T12:35:45.03Z</time></trkpt><trkpt lat="37.5584883" lon="14.612245"><ele>172.0</ele><time>2026-05-06T12:35:46.03Z</time></trkpt><trkpt lat="37.5586133" lon="14.61249"><ele>172.0</ele><time>2026-05-06T12:35:47.03Z</time></trkpt><trkpt lat="37.5587383" lon="14.6127333"><ele>172.5</ele><time>2026-05-06T12:35:48.03Z</time></trkpt><trkpt lat="37.5588667" lon="14.6129767"><ele>173.0</ele><time>2026-05-06T12:35:49.03Z</time></trkpt><trkpt lat="37.5589917" lon="14.61322"><ele>173.0</ele><time>2026-05-06T12:35:50.03Z</time></trkpt><trkpt lat="37.5591167" lon="14.61346"><ele>173.0</ele><time>2026-05-06T12:35:51.03Z</time></trkpt><trkpt lat="37.559245" lon="14.6137067"><ele>176.5</ele><time>2026-05-06T12:35:52.03Z</time></trkpt><trkpt lat="37.55937" lon="14.6139483"><ele>180.0</ele><time>2026-05-06T12:35:53.03Z</time></trkpt><trkpt lat="37.5594933" lon="14.61419"><ele>178.66666666666666</ele><time>2026-05-06T12:35:54.03Z</time></trkpt><trkpt lat="37.5596117" lon="14.6144133"><ele>177.33333333333331</ele><time>2026-05-06T12:35:55.03Z</time></trkpt><trkpt lat="37.559725" lon="14.61463"><ele>176.0</ele><time>2026-05-06T12:35:56.03Z</time></trkpt><trkpt lat="37.5598333" lon="14.6148483"><ele>179.0</ele><time>2026-05-06T12:35:57.029Z</time></trkpt><trkpt lat="37.5599367" lon="14.615055"><ele>182.0</ele><time>2026-05-06T12:35:58.03Z</time></trkpt><trkpt lat="37.5600333" lon="14.61525"><ele>185.0</ele><time>2026-05-06T12:35:59.029Z</time></trkpt><trkpt lat="37.5601267" lon="14.6154367"><ele>185.33333333333331</ele><time>2026-05-06T12:36:00.03Z</time></trkpt><trkpt lat="37.56022" lon="14.6156233"><ele>185.66666666666666</ele><time>2026-05-06T12:36:01.03Z</time></trkpt><trkpt lat="37.5603083" lon="14.6158083"><ele>186.0</ele><time>2026-05-06T12:36:02.029Z</time></trkpt><trkpt lat="37.5603967" lon="14.6159983"><ele>184.66666666666666</ele><time>2026-05-06T12:36:03.03Z</time></trkpt><trkpt lat="37.5604867" lon="14.6161983"><ele>183.33333333333331</ele><time>2026-05-06T12:36:04.03Z</time></trkpt><trkpt lat="37.5605883" lon="14.6164083"><ele>182.0</ele><time>2026-05-06T12:36:05.03Z</time></trkpt><trkpt lat="37.56068" lon="14.61662"><ele>182.0</ele><time>2026-05-06T12:36:06.03Z</time></trkpt><trkpt lat="37.56077" lon="14.6168167"><ele>182.0</ele><time>2026-05-06T12:36:07.03Z</time></trkpt><trkpt lat="37.5608533" lon="14.6170117"><ele>182.0</ele><time>2026-05-06T12:36:08.03Z</time></trkpt><trkpt lat="37.5609367" lon="14.617205"><ele>182.66666666666666</ele><time>2026-05-06T12:36:09.03Z</time></trkpt><trkpt lat="37.561005" lon="14.6173983"><ele>183.33333333333334</ele><time>2026-05-06T12:36:10.03Z</time></trkpt><trkpt lat="37.5610783" lon="14.6175867"><ele>184.0</ele><time>2026-05-06T12:36:11.03Z</time></trkpt><trkpt lat="37.5611467" lon="14.61778"><ele>182.66666666666669</ele><time>2026-05-06T12:36:12.03Z</time></trkpt><trkpt lat="37.5612167" lon="14.61797"><ele>181.33333333333334</ele><time>2026-05-06T12:36:13.03Z</time></trkpt><trkpt lat="37.5612917" lon="14.6181717"><ele>180.0</ele><time>2026-05-06T12:36:14.03Z</time></trkpt><trkpt lat="37.5613717" lon="14.6183783"><ele>180.0</ele><time>2026-05-06T12:36:15.03Z</time></trkpt><trkpt lat="37.5614417" lon="14.6185833"><ele>180.0</ele><time>2026-05-06T12:36:16.03Z</time></trkpt><trkpt lat="37.5615133" lon="14.61878"><ele>180.0</ele><time>2026-05-06T12:36:17.03Z</time></trkpt><trkpt lat="37.5615883" lon="14.6189833"><ele>178.66666666666666</ele><time>2026-05-06T12:36:18.03Z</time></trkpt><trkpt lat="37.561665" lon="14.6191933"><ele>177.33333333333331</ele><time>2026-05-06T12:36:19.03Z</time></trkpt><trkpt lat="37.5617383" lon="14.6194117"><ele>176.0</ele><time>2026-05-06T12:36:20.03Z</time></trkpt><trkpt lat="37.5618233" lon="14.6196283"><ele>174.33333333333331</ele><time>2026-05-06T12:36:21.03Z</time></trkpt><trkpt lat="37.5619117" lon="14.6198517"><ele>172.66666666666666</ele><time>2026-05-06T12:36:22.03Z</time></trkpt><trkpt lat="37.561995" lon="14.620085"><ele>171.0</ele><time>2026-05-06T12:36:23.03Z</time></trkpt><trkpt lat="37.5620733" lon="14.6203283"><ele>169.0</ele><time>2026-05-06T12:36:24.03Z</time></trkpt><trkpt lat="37.5621517" lon="14.6205767"><ele>167.0</ele><time>2026-05-06T12:36:25.029Z</time></trkpt><trkpt lat="37.5622333" lon="14.6208267"><ele>165.0</ele><time>2026-05-06T12:36:26.03Z</time></trkpt><trkpt lat="37.5623167" lon="14.62108"><ele>165.33333333333334</ele><time>2026-05-06T12:36:27.03Z</time></trkpt><trkpt lat="37.5624" lon="14.621335"><ele>165.66666666666669</ele><time>2026-05-06T12:36:28.03Z</time></trkpt><trkpt lat="37.562485" lon="14.6215883"><ele>166.0</ele><time>2026-05-06T12:36:29.03Z</time></trkpt><trkpt lat="37.5625683" lon="14.6218417"><ele>165.0</ele><time>2026-05-06T12:36:30.03Z</time></trkpt><trkpt lat="37.5626517" lon="14.6220933"><ele>164.0</ele><time>2026-05-06T12:36:31.03Z</time></trkpt><trkpt lat="37.5627383" lon="14.6223433"><ele>163.0</ele><time>2026-05-06T12:36:32.03Z</time></trkpt><trkpt lat="37.56283" lon="14.6225917"><ele>164.33333333333334</ele><time>2026-05-06T12:36:33.029Z</time></trkpt><trkpt lat="37.5629117" lon="14.62284"><ele>165.66666666666666</ele><time>2026-05-06T12:36:34.03Z</time></trkpt><trkpt lat="37.563" lon="14.6230933"><ele>167.0</ele><time>2026-05-06T12:36:35.03Z</time></trkpt><trkpt lat="37.5630967" lon="14.6233483"><ele>167.0</ele><time>2026-05-06T12:36:36.03Z</time></trkpt><trkpt lat="37.5631917" lon="14.6236317"><ele>167.0</ele><time>2026-05-06T12:36:37.03Z</time></trkpt><trkpt lat="37.563295" lon="14.6239283"><ele>166.5</ele><time>2026-05-06T12:36:38.03Z</time></trkpt><trkpt lat="37.563405" lon="14.62423"><ele>166.0</ele><time>2026-05-06T12:36:39.03Z</time></trkpt><trkpt lat="37.5635117" lon="14.6245317"><ele>164.5</ele><time>2026-05-06T12:36:40.03Z</time></trkpt><trkpt lat="37.56362" lon="14.6248317"><ele>163.0</ele><time>2026-05-06T12:36:41.029Z</time></trkpt><trkpt lat="37.5637217" lon="14.625135"><ele>162.0</ele><time>2026-05-06T12:36:42.03Z</time></trkpt><trkpt lat="37.5638267" lon="14.6254333"><ele>161.0</ele><time>2026-05-06T12:36:43.03Z</time></trkpt><trkpt lat="37.5639283" lon="14.62573"><ele>161.0</ele><time>2026-05-06T12:36:44.03Z</time></trkpt><trkpt lat="37.5640283" lon="14.6260233"><ele>161.0</ele><time>2026-05-06T12:36:45.03Z</time></trkpt><trkpt lat="37.5641317" lon="14.626315"><ele>161.5</ele><time>2026-05-06T12:36:46.03Z</time></trkpt><trkpt lat="37.564235" lon="14.6266083"><ele>162.0</ele><time>2026-05-06T12:36:47.03Z</time></trkpt><trkpt lat="37.5643383" lon="14.6268967"><ele>161.0</ele><time>2026-05-06T12:36:48.029Z</time></trkpt><trkpt lat="37.5644367" lon="14.627185"><ele>160.0</ele><time>2026-05-06T12:36:49.03Z</time></trkpt><trkpt lat="37.564535" lon="14.627475"><ele>160.0</ele><time>2026-05-06T12:36:50.03Z</time></trkpt><trkpt lat="37.5646333" lon="14.6277567"><ele>160.0</ele><time>2026-05-06T12:36:51.03Z</time></trkpt><trkpt lat="37.5647317" lon="14.6280367"><ele>160.0</ele><time>2026-05-06T12:36:52.03Z</time></trkpt><trkpt lat="37.5648217" lon="14.6283067"><ele>160.0</ele><time>2026-05-06T12:36:53.03Z</time></trkpt><trkpt lat="37.5649167" lon="14.6285767"><ele>161.0</ele><time>2026-05-06T12:36:54.03Z</time></trkpt><trkpt lat="37.565015" lon="14.6288433"><ele>162.0</ele><time>2026-05-06T12:36:55.03Z</time></trkpt><trkpt lat="37.5651083" lon="14.62911"><ele>162.0</ele><time>2026-05-06T12:36:56.03Z</time></trkpt><trkpt lat="37.5652" lon="14.6293767"><ele>162.0</ele><time>2026-05-06T12:36:57.03Z</time></trkpt><trkpt lat="37.5652933" lon="14.6296483"><ele>160.0</ele><time>2026-05-06T12:36:58.03Z</time></trkpt><trkpt lat="37.56539" lon="14.6299133"><ele>158.0</ele><time>2026-05-06T12:36:59.03Z</time></trkpt><trkpt lat="37.5654783" lon="14.6301783"><ele>158.33333333333331</ele><time>2026-05-06T12:37:00.03Z</time></trkpt><trkpt lat="37.5655667" lon="14.6304417"><ele>158.66666666666666</ele><time>2026-05-06T12:37:01.03Z</time></trkpt><trkpt lat="37.5656533" lon="14.6307"><ele>159.0</ele><time>2026-05-06T12:37:02.03Z</time></trkpt><trkpt lat="37.56574" lon="14.6309533"><ele>159.0</ele><time>2026-05-06T12:37:03.03Z</time></trkpt><trkpt lat="37.5658267" lon="14.6312183"><ele>159.0</ele><time>2026-05-06T12:37:04.03Z</time></trkpt><trkpt lat="37.5659117" lon="14.6314733"><ele>159.0</ele><time>2026-05-06T12:37:05.03Z</time></trkpt><trkpt lat="37.566" lon="14.6317267"><ele>159.0</ele><time>2026-05-06T12:37:06.03Z</time></trkpt><trkpt lat="37.56609" lon="14.6319833"><ele>159.0</ele><time>2026-05-06T12:37:07.03Z</time></trkpt><trkpt lat="37.566185" lon="14.6322433"><ele>159.0</ele><time>2026-05-06T12:37:08.03Z</time></trkpt><trkpt lat="37.5662717" lon="14.6325033"><ele>159.0</ele><time>2026-05-06T12:37:09.03Z</time></trkpt><trkpt lat="37.566365" lon="14.6327567"><ele>159.0</ele><time>2026-05-06T12:37:10.03Z</time></trkpt><trkpt lat="37.5664533" lon="14.6330083"><ele>159.0</ele><time>2026-05-06T12:37:11.03Z</time></trkpt><trkpt lat="37.5665433" lon="14.6332567"><ele>159.0</ele><time>2026-05-06T12:37:12.03Z</time></trkpt><trkpt lat="37.56663" lon="14.6335083"><ele>159.0</ele><time>2026-05-06T12:37:13.03Z</time></trkpt><trkpt lat="37.5667133" lon="14.6337517"><ele>159.0</ele><time>2026-05-06T12:37:14.03Z</time></trkpt><trkpt lat="37.566795" lon="14.6339833"><ele>158.33333333333334</ele><time>2026-05-06T12:37:15.03Z</time></trkpt><trkpt lat="37.5668767" lon="14.634205"><ele>157.66666666666669</ele><time>2026-05-06T12:37:16.03Z</time></trkpt><trkpt lat="37.5669467" lon="14.6344183"><ele>157.0</ele><time>2026-05-06T12:37:17.03Z</time></trkpt><trkpt lat="37.5670183" lon="14.6346233"><ele>156.66666666666669</ele><time>2026-05-06T12:37:18.03Z</time></trkpt><trkpt lat="37.567085" lon="14.6348267"><ele>156.33333333333334</ele><time>2026-05-06T12:37:19.03Z</time></trkpt><trkpt lat="37.56715" lon="14.6350083"><ele>156.0</ele><time>2026-05-06T12:37:20.03Z</time></trkpt><trkpt lat="37.5672083" lon="14.6351783"><ele>156.0</ele><time>2026-05-06T12:37:21.03Z</time></trkpt><trkpt lat="37.56726" lon="14.6353383"><ele>156.0</ele><time>2026-05-06T12:37:22.029Z</time></trkpt><trkpt lat="37.5673167" lon="14.6355017"><ele>156.0</ele><time>2026-05-06T12:37:23.03Z</time></trkpt><trkpt lat="37.56738" lon="14.6356733"><ele>156.0</ele><time>2026-05-06T12:37:24.03Z</time></trkpt><trkpt lat="37.5674517" lon="14.6358583"><ele>156.0</ele><time>2026-05-06T12:37:25.03Z</time></trkpt><trkpt lat="37.5675267" lon="14.6360617"><ele>156.0</ele><time>2026-05-06T12:37:26.03Z</time></trkpt><trkpt lat="37.567605" lon="14.6362683"><ele>156.0</ele><time>2026-05-06T12:37:27.03Z</time></trkpt><trkpt lat="37.5676817" lon="14.6364717"><ele>155.33333333333334</ele><time>2026-05-06T12:37:28.03Z</time></trkpt><trkpt lat="37.567755" lon="14.6366883"><ele>154.66666666666669</ele><time>2026-05-06T12:37:29.03Z</time></trkpt><trkpt lat="37.56783" lon="14.63691"><ele>154.0</ele><time>2026-05-06T12:37:30.03Z</time></trkpt><trkpt lat="37.5679067" lon="14.6371317"><ele>154.0</ele><time>2026-05-06T12:37:31.03Z</time></trkpt><trkpt lat="37.5679833" lon="14.63736"><ele>154.0</ele><time>2026-05-06T12:37:32.03Z</time></trkpt><trkpt lat="37.568055" lon="14.6375867"><ele>154.0</ele><time>2026-05-06T12:37:33.03Z</time></trkpt><trkpt lat="37.56813" lon="14.6378117"><ele>154.0</ele><time>2026-05-06T12:37:34.03Z</time></trkpt><trkpt lat="37.5682" lon="14.6380383"><ele>154.0</ele><time>2026-05-06T12:37:35.03Z</time></trkpt><trkpt lat="37.5682683" lon="14.6382667"><ele>154.0</ele><time>2026-05-06T12:37:36.03Z</time></trkpt><trkpt lat="37.5683433" lon="14.6385"><ele>153.66666666666669</ele><time>2026-05-06T12:37:37.03Z</time></trkpt><trkpt lat="37.5684217" lon="14.6387433"><ele>153.33333333333334</ele><time>2026-05-06T12:37:38.03Z</time></trkpt><trkpt lat="37.5685033" lon="14.6389967"><ele>153.0</ele><time>2026-05-06T12:37:39.03Z</time></trkpt><trkpt lat="37.56859" lon="14.6392633"><ele>154.0</ele><time>2026-05-06T12:37:40.03Z</time></trkpt><trkpt lat="37.5686767" lon="14.6395467"><ele>155.0</ele><time>2026-05-06T12:37:41.03Z</time></trkpt><trkpt lat="37.5687633" lon="14.6398333"><ele>155.5</ele><time>2026-05-06T12:37:42.03Z</time></trkpt><trkpt lat="37.5688483" lon="14.6401233"><ele>156.0</ele><time>2026-05-06T12:37:43.03Z</time></trkpt><trkpt lat="37.5689317" lon="14.640415"><ele>156.5</ele><time>2026-05-06T12:37:44.03Z</time></trkpt><trkpt lat="37.5690117" lon="14.6407"><ele>157.0</ele><time>2026-05-06T12:37:45.03Z</time></trkpt><trkpt lat="37.569085" lon="14.640985"><ele>156.5</ele><time>2026-05-06T12:37:46.03Z</time></trkpt><trkpt lat="37.5691583" lon="14.6412667"><ele>156.0</ele><time>2026-05-06T12:37:47.03Z</time></trkpt><trkpt lat="37.5692283" lon="14.6415483"><ele>156.0</ele><time>2026-05-06T12:37:48.03Z</time></trkpt><trkpt lat="37.569295" lon="14.6418317"><ele>156.0</ele><time>2026-05-06T12:37:49.03Z</time></trkpt><trkpt lat="37.5693633" lon="14.6421183"><ele>155.5</ele><time>2026-05-06T12:37:50.03Z</time></trkpt><trkpt lat="37.5694267" lon="14.6423983"><ele>155.0</ele><time>2026-05-06T12:37:51.03Z</time></trkpt><trkpt lat="37.5694883" lon="14.6426733"><ele>154.0</ele><time>2026-05-06T12:37:52.03Z</time></trkpt><trkpt lat="37.569545" lon="14.6429583"><ele>153.0</ele><time>2026-05-06T12:37:53.03Z</time></trkpt><trkpt lat="37.569605" lon="14.6432467"><ele>153.0</ele><time>2026-05-06T12:37:54.03Z</time></trkpt><trkpt lat="37.56966" lon="14.6435333"><ele>153.0</ele><time>2026-05-06T12:37:55.03Z</time></trkpt><trkpt lat="37.56971" lon="14.64382"><ele>153.0</ele><time>2026-05-06T12:37:56.03Z</time></trkpt><trkpt lat="37.569755" lon="14.6441117"><ele>153.0</ele><time>2026-05-06T12:37:57.03Z</time></trkpt><trkpt lat="37.5698017" lon="14.6444"><ele>153.0</ele><time>2026-05-06T12:37:58.03Z</time></trkpt><trkpt lat="37.569845" lon="14.6446933"><ele>153.0</ele><time>2026-05-06T12:37:59.03Z</time></trkpt><trkpt lat="37.569885" lon="14.6449783"><ele>153.0</ele><time>2026-05-06T12:38:00.03Z</time></trkpt><trkpt lat="37.5699267" lon="14.6452633"><ele>153.0</ele><time>2026-05-06T12:38:01.03Z</time></trkpt><trkpt lat="37.5699567" lon="14.6455467"><ele>152.33333333333334</ele><time>2026-05-06T12:38:02.03Z</time></trkpt><trkpt lat="37.56999" lon="14.6458183"><ele>151.66666666666669</ele><time>2026-05-06T12:38:03.03Z</time></trkpt><trkpt lat="37.57002" lon="14.6460867"><ele>151.0</ele><time>2026-05-06T12:38:04.029Z</time></trkpt><trkpt lat="37.5700467" lon="14.6463533"><ele>149.33333333333334</ele><time>2026-05-06T12:38:05.03Z</time></trkpt><trkpt lat="37.5700733" lon="14.64662"><ele>147.66666666666666</ele><time>2026-05-06T12:38:06.03Z</time></trkpt><trkpt lat="37.5700967" lon="14.646865"><ele>146.0</ele><time>2026-05-06T12:38:07.03Z</time></trkpt><trkpt lat="37.5701117" lon="14.6470933"><ele>145.33333333333331</ele><time>2026-05-06T12:38:08.03Z</time></trkpt><trkpt lat="37.5701333" lon="14.64731"><ele>144.66666666666666</ele><time>2026-05-06T12:38:09.03Z</time></trkpt><trkpt lat="37.5701467" lon="14.6475283"><ele>144.0</ele><time>2026-05-06T12:38:10.03Z</time></trkpt><trkpt lat="37.5701617" lon="14.6477433"><ele>144.33333333333334</ele><time>2026-05-06T12:38:11.029Z</time></trkpt><trkpt lat="37.5701717" lon="14.6479533"><ele>144.66666666666669</ele><time>2026-05-06T12:38:12.03Z</time></trkpt><trkpt lat="37.5701783" lon="14.6481583"><ele>145.0</ele><time>2026-05-06T12:38:13.03Z</time></trkpt><trkpt lat="37.5701867" lon="14.64837"><ele>145.0</ele><time>2026-05-06T12:38:14.03Z</time></trkpt><trkpt lat="37.5701983" lon="14.6485867"><ele>145.0</ele><time>2026-05-06T12:38:15.03Z</time></trkpt><trkpt lat="37.570205" lon="14.6488033"><ele>145.0</ele><time>2026-05-06T12:38:16.03Z</time></trkpt><trkpt lat="37.57021" lon="14.64902"><ele>145.33333333333334</ele><time>2026-05-06T12:38:17.03Z</time></trkpt><trkpt lat="37.570215" lon="14.6492367"><ele>145.66666666666666</ele><time>2026-05-06T12:38:18.03Z</time></trkpt><trkpt lat="37.5702217" lon="14.6494583"><ele>146.0</ele><time>2026-05-06T12:38:19.029Z</time></trkpt><trkpt lat="37.5702217" lon="14.6496967"><ele>145.33333333333331</ele><time>2026-05-06T12:38:20.03Z</time></trkpt><trkpt lat="37.5702233" lon="14.6499433"><ele>144.66666666666666</ele><time>2026-05-06T12:38:21.03Z</time></trkpt><trkpt lat="37.5702233" lon="14.650195"><ele>144.0</ele><time>2026-05-06T12:38:22.03Z</time></trkpt><trkpt lat="37.5702233" lon="14.6504483"><ele>143.33333333333334</ele><time>2026-05-06T12:38:23.03Z</time></trkpt><trkpt lat="37.5702183" lon="14.650705"><ele>142.66666666666669</ele><time>2026-05-06T12:38:24.03Z</time></trkpt><trkpt lat="37.5702117" lon="14.650955"><ele>142.0</ele><time>2026-05-06T12:38:25.03Z</time></trkpt><trkpt lat="37.5702033" lon="14.65121"><ele>142.33333333333334</ele><time>2026-05-06T12:38:26.03Z</time></trkpt><trkpt lat="37.5702" lon="14.651465"><ele>142.66666666666666</ele><time>2026-05-06T12:38:27.03Z</time></trkpt><trkpt lat="37.570185" lon="14.6517167"><ele>143.0</ele><time>2026-05-06T12:38:28.03Z</time></trkpt><trkpt lat="37.5701683" lon="14.65197"><ele>143.0</ele><time>2026-05-06T12:38:29.03Z</time></trkpt><trkpt lat="37.5701517" lon="14.6522133"><ele>143.0</ele><time>2026-05-06T12:38:30.03Z</time></trkpt><trkpt lat="37.5701367" lon="14.65245"><ele>143.0</ele><time>2026-05-06T12:38:31.03Z</time></trkpt><trkpt lat="37.5701233" lon="14.6526783"><ele>143.33333333333331</ele><time>2026-05-06T12:38:32.03Z</time></trkpt><trkpt lat="37.5701017" lon="14.65291"><ele>143.66666666666666</ele><time>2026-05-06T12:38:33.03Z</time></trkpt><trkpt lat="37.5700867" lon="14.6531433"><ele>144.0</ele><time>2026-05-06T12:38:34.03Z</time></trkpt><trkpt lat="37.5700633" lon="14.6533733"><ele>144.0</ele><time>2026-05-06T12:38:35.03Z</time></trkpt><trkpt lat="37.5700417" lon="14.653605"><ele>144.0</ele><time>2026-05-06T12:38:36.03Z</time></trkpt><trkpt lat="37.570015" lon="14.65383"><ele>144.0</ele><time>2026-05-06T12:38:37.03Z</time></trkpt><trkpt lat="37.5699933" lon="14.6540583"><ele>143.66666666666666</ele><time>2026-05-06T12:38:38.03Z</time></trkpt><trkpt lat="37.5699667" lon="14.654285"><ele>143.33333333333331</ele><time>2026-05-06T12:38:39.03Z</time></trkpt><trkpt lat="37.56994" lon="14.65451"><ele>143.0</ele><time>2026-05-06T12:38:40.03Z</time></trkpt><trkpt lat="37.5699083" lon="14.65473"><ele>143.0</ele><time>2026-05-06T12:38:41.03Z</time></trkpt><trkpt lat="37.5698817" lon="14.6549567"><ele>143.0</ele><time>2026-05-06T12:38:42.03Z</time></trkpt><trkpt lat="37.5698533" lon="14.6552"><ele>143.0</ele><time>2026-05-06T12:38:43.03Z</time></trkpt><trkpt lat="37.569825" lon="14.6554583"><ele>142.66666666666666</ele><time>2026-05-06T12:38:44.029Z</time></trkpt><trkpt lat="37.5697817" lon="14.6557233"><ele>142.33333333333334</ele><time>2026-05-06T12:38:45.03Z</time></trkpt><trkpt lat="37.5697383" lon="14.6559917"><ele>142.0</ele><time>2026-05-06T12:38:46.03Z</time></trkpt><trkpt lat="37.56969" lon="14.65627"><ele>141.5</ele><time>2026-05-06T12:38:47.03Z</time></trkpt><trkpt lat="37.5696367" lon="14.6565533"><ele>141.0</ele><time>2026-05-06T12:38:48.03Z</time></trkpt><trkpt lat="37.5695783" lon="14.6568467"><ele>140.5</ele><time>2026-05-06T12:38:49.03Z</time></trkpt><trkpt lat="37.5695183" lon="14.6571417"><ele>140.0</ele><time>2026-05-06T12:38:50.03Z</time></trkpt><trkpt lat="37.5694517" lon="14.6574317"><ele>140.0</ele><time>2026-05-06T12:38:51.03Z</time></trkpt><trkpt lat="37.5693917" lon="14.6577233"><ele>140.0</ele><time>2026-05-06T12:38:52.03Z</time></trkpt><trkpt lat="37.5693217" lon="14.658015"><ele>140.5</ele><time>2026-05-06T12:38:53.03Z</time></trkpt><trkpt lat="37.56925" lon="14.6583117"><ele>141.0</ele><time>2026-05-06T12:38:54.03Z</time></trkpt><trkpt lat="37.5691783" lon="14.658605"><ele>140.5</ele><time>2026-05-06T12:38:55.03Z</time></trkpt><trkpt lat="37.569105" lon="14.6589033"><ele>140.0</ele><time>2026-05-06T12:38:56.03Z</time></trkpt><trkpt lat="37.5690233" lon="14.6591933"><ele>140.5</ele><time>2026-05-06T12:38:57.03Z</time></trkpt><trkpt lat="37.5689383" lon="14.659485"><ele>141.0</ele><time>2026-05-06T12:38:58.03Z</time></trkpt><trkpt lat="37.5688583" lon="14.65978"><ele>141.0</ele><time>2026-05-06T12:38:59.03Z</time></trkpt><trkpt lat="37.56878" lon="14.66007"><ele>141.0</ele><time>2026-05-06T12:39:00.03Z</time></trkpt><trkpt lat="37.5686883" lon="14.6603617"><ele>140.0</ele><time>2026-05-06T12:39:01.03Z</time></trkpt><trkpt lat="37.56859" lon="14.6606483"><ele>139.0</ele><time>2026-05-06T12:39:02.03Z</time></trkpt><trkpt lat="37.568495" lon="14.660935"><ele>139.0</ele><time>2026-05-06T12:39:03.03Z</time></trkpt><trkpt lat="37.5684017" lon="14.6612267"><ele>139.0</ele><time>2026-05-06T12:39:04.03Z</time></trkpt><trkpt lat="37.568305" lon="14.661515"><ele>139.0</ele><time>2026-05-06T12:39:05.03Z</time></trkpt><trkpt lat="37.5682033" lon="14.6617983"><ele>139.0</ele><time>2026-05-06T12:39:06.03Z</time></trkpt><trkpt lat="37.5681033" lon="14.6620817"><ele>138.5</ele><time>2026-05-06T12:39:07.03Z</time></trkpt><trkpt lat="37.567995" lon="14.662365"><ele>138.0</ele><time>2026-05-06T12:39:08.03Z</time></trkpt><trkpt lat="37.5678767" lon="14.66264"><ele>137.0</ele><time>2026-05-06T12:39:09.03Z</time></trkpt><trkpt lat="37.5677683" lon="14.66292"><ele>136.0</ele><time>2026-05-06T12:39:10.03Z</time></trkpt><trkpt lat="37.567655" lon="14.6631967"><ele>136.0</ele><time>2026-05-06T12:39:11.029Z</time></trkpt><trkpt lat="37.5675367" lon="14.6634733"><ele>136.0</ele><time>2026-05-06T12:39:12.03Z</time></trkpt><trkpt lat="37.5674167" lon="14.66375"><ele>137.0</ele><time>2026-05-06T12:39:13.03Z</time></trkpt><trkpt lat="37.567295" lon="14.664025"><ele>138.0</ele><time>2026-05-06T12:39:14.03Z</time></trkpt><trkpt lat="37.5671767" lon="14.6643033"><ele>138.5</ele><time>2026-05-06T12:39:15.03Z</time></trkpt><trkpt lat="37.56705" lon="14.6645833"><ele>139.0</ele><time>2026-05-06T12:39:16.03Z</time></trkpt><trkpt lat="37.566925" lon="14.6648617"><ele>140.5</ele><time>2026-05-06T12:39:17.03Z</time></trkpt><trkpt lat="37.5667983" lon="14.665135"><ele>142.0</ele><time>2026-05-06T12:39:18.03Z</time></trkpt><trkpt lat="37.5666683" lon="14.6654083"><ele>142.0</ele><time>2026-05-06T12:39:19.03Z</time></trkpt><trkpt lat="37.5665383" lon="14.6656833"><ele>142.0</ele><time>2026-05-06T12:39:20.03Z</time></trkpt><trkpt lat="37.5664017" lon="14.6659533"><ele>141.0</ele><time>2026-05-06T12:39:21.03Z</time></trkpt><trkpt lat="37.56625" lon="14.6662117"><ele>140.0</ele><time>2026-05-06T12:39:22.029Z</time></trkpt><trkpt lat="37.5661067" lon="14.6664683"><ele>140.0</ele><time>2026-05-06T12:39:23.03Z</time></trkpt><trkpt lat="37.565965" lon="14.66672"><ele>140.0</ele><time>2026-05-06T12:39:24.03Z</time></trkpt><trkpt lat="37.5658183" lon="14.6669783"><ele>140.0</ele><time>2026-05-06T12:39:25.03Z</time></trkpt><trkpt lat="37.5656667" lon="14.6672383"><ele>140.0</ele><time>2026-05-06T12:39:26.029Z</time></trkpt><trkpt lat="37.565515" lon="14.6675033"><ele>140.0</ele><time>2026-05-06T12:39:27.03Z</time></trkpt><trkpt lat="37.5653583" lon="14.6677583"><ele>140.0</ele><time>2026-05-06T12:39:28.03Z</time></trkpt><trkpt lat="37.5652067" lon="14.6680167"><ele>141.0</ele><time>2026-05-06T12:39:29.03Z</time></trkpt><trkpt lat="37.5650533" lon="14.66827"><ele>142.0</ele><time>2026-05-06T12:39:30.03Z</time></trkpt><trkpt lat="37.5649017" lon="14.66852"><ele>141.5</ele><time>2026-05-06T12:39:31.03Z</time></trkpt><trkpt lat="37.5647517" lon="14.668775"><ele>141.0</ele><time>2026-05-06T12:39:32.03Z</time></trkpt><trkpt lat="37.5646017" lon="14.6690233"><ele>141.0</ele><time>2026-05-06T12:39:33.03Z</time></trkpt><trkpt lat="37.56445" lon="14.6692783"><ele>141.0</ele><time>2026-05-06T12:39:34.03Z</time></trkpt><trkpt lat="37.564295" lon="14.6695333"><ele>141.0</ele><time>2026-05-06T12:39:35.03Z</time></trkpt><trkpt lat="37.5641483" lon="14.6697817"><ele>141.0</ele><time>2026-05-06T12:39:36.03Z</time></trkpt><trkpt lat="37.5639983" lon="14.6700317"><ele>140.0</ele><time>2026-05-06T12:39:37.03Z</time></trkpt><trkpt lat="37.5638517" lon="14.67029"><ele>139.0</ele><time>2026-05-06T12:39:38.03Z</time></trkpt><trkpt lat="37.5636967" lon="14.67055"><ele>139.0</ele><time>2026-05-06T12:39:39.03Z</time></trkpt><trkpt lat="37.5635533" lon="14.6708067"><ele>139.0</ele><time>2026-05-06T12:39:40.029Z</time></trkpt><trkpt lat="37.5634167" lon="14.671065"><ele>138.0</ele><time>2026-05-06T12:39:41.03Z</time></trkpt><trkpt lat="37.563275" lon="14.6713217"><ele>137.0</ele><time>2026-05-06T12:39:42.03Z</time></trkpt><trkpt lat="37.563135" lon="14.67158"><ele>137.0</ele><time>2026-05-06T12:39:43.03Z</time></trkpt><trkpt lat="37.5629933" lon="14.6718383"><ele>137.0</ele><time>2026-05-06T12:39:44.03Z</time></trkpt><trkpt lat="37.562855" lon="14.6721"><ele>138.0</ele><time>2026-05-06T12:39:45.03Z</time></trkpt><trkpt lat="37.562725" lon="14.6723683"><ele>139.0</ele><time>2026-05-06T12:39:46.03Z</time></trkpt><trkpt lat="37.5625983" lon="14.67264"><ele>138.5</ele><time>2026-05-06T12:39:47.03Z</time></trkpt><trkpt lat="37.5624783" lon="14.6729133"><ele>138.0</ele><time>2026-05-06T12:39:48.03Z</time></trkpt><trkpt lat="37.5623733" lon="14.673185"><ele>138.0</ele><time>2026-05-06T12:39:49.03Z</time></trkpt><trkpt lat="37.5622683" lon="14.6734567"><ele>138.0</ele><time>2026-05-06T12:39:50.03Z</time></trkpt><trkpt lat="37.5621717" lon="14.6737333"><ele>137.0</ele><time>2026-05-06T12:39:51.029Z</time></trkpt><trkpt lat="37.56208" lon="14.6740033"><ele>136.0</ele><time>2026-05-06T12:39:52.03Z</time></trkpt><trkpt lat="37.562" lon="14.6742683"><ele>135.0</ele><time>2026-05-06T12:39:53.03Z</time></trkpt><trkpt lat="37.56192" lon="14.674525"><ele>134.0</ele><time>2026-05-06T12:39:54.03Z</time></trkpt><trkpt lat="37.5618417" lon="14.6747883"><ele>133.0</ele><time>2026-05-06T12:39:55.03Z</time></trkpt><trkpt lat="37.5617667" lon="14.6750417"><ele>131.33333333333334</ele><time>2026-05-06T12:39:56.03Z</time></trkpt><trkpt lat="37.5616983" lon="14.675295"><ele>129.66666666666666</ele><time>2026-05-06T12:39:57.03Z</time></trkpt><trkpt lat="37.5616317" lon="14.6755583"><ele>128.0</ele><time>2026-05-06T12:39:58.03Z</time></trkpt><trkpt lat="37.5615683" lon="14.67582"><ele>128.0</ele><time>2026-05-06T12:39:59.03Z</time></trkpt><trkpt lat="37.5615133" lon="14.67609"><ele>128.0</ele><time>2026-05-06T12:40:00.03Z</time></trkpt><trkpt lat="37.5614583" lon="14.6763533"><ele>128.0</ele><time>2026-05-06T12:40:01.03Z</time></trkpt><trkpt lat="37.56141" lon="14.6766167"><ele>129.33333333333331</ele><time>2026-05-06T12:40:02.029Z</time></trkpt><trkpt lat="37.5613667" lon="14.6768783"><ele>130.66666666666666</ele><time>2026-05-06T12:40:03.03Z</time></trkpt><trkpt lat="37.56132" lon="14.6771433"><ele>132.0</ele><time>2026-05-06T12:40:04.03Z</time></trkpt><trkpt lat="37.5612783" lon="14.6774033"><ele>132.33333333333334</ele><time>2026-05-06T12:40:05.03Z</time></trkpt><trkpt lat="37.5612433" lon="14.6776717"><ele>132.66666666666669</ele><time>2026-05-06T12:40:06.03Z</time></trkpt><trkpt lat="37.5612067" lon="14.677945"><ele>133.0</ele><time>2026-05-06T12:40:07.03Z</time></trkpt><trkpt lat="37.5611733" lon="14.67821"><ele>132.0</ele><time>2026-05-06T12:40:08.03Z</time></trkpt><trkpt lat="37.5611367" lon="14.6784867"><ele>131.0</ele><time>2026-05-06T12:40:09.03Z</time></trkpt><trkpt lat="37.5611" lon="14.6787533"><ele>130.0</ele><time>2026-05-06T12:40:10.03Z</time></trkpt><trkpt lat="37.56107" lon="14.6790183"><ele>130.0</ele><time>2026-05-06T12:40:11.03Z</time></trkpt><trkpt lat="37.561035" lon="14.6792933"><ele>130.0</ele><time>2026-05-06T12:40:12.03Z</time></trkpt><trkpt lat="37.561" lon="14.6795483"><ele>130.0</ele><time>2026-05-06T12:40:13.03Z</time></trkpt><trkpt lat="37.5609683" lon="14.6798083"><ele>129.66666666666669</ele><time>2026-05-06T12:40:14.03Z</time></trkpt><trkpt lat="37.5609367" lon="14.6800617"><ele>129.33333333333334</ele><time>2026-05-06T12:40:15.03Z</time></trkpt><trkpt lat="37.5608983" lon="14.6803067"><ele>129.0</ele><time>2026-05-06T12:40:16.03Z</time></trkpt><trkpt lat="37.56086" lon="14.680555"><ele>129.0</ele><time>2026-05-06T12:40:17.03Z</time></trkpt><trkpt lat="37.560825" lon="14.6807967"><ele>129.0</ele><time>2026-05-06T12:40:18.03Z</time></trkpt><trkpt lat="37.56079" lon="14.6810233"><ele>129.0</ele><time>2026-05-06T12:40:19.03Z</time></trkpt><trkpt lat="37.5607533" lon="14.6812367"><ele>128.33333333333334</ele><time>2026-05-06T12:40:20.03Z</time></trkpt><trkpt lat="37.5607117" lon="14.68145"><ele>127.66666666666667</ele><time>2026-05-06T12:40:21.03Z</time></trkpt><trkpt lat="37.5606683" lon="14.681665"><ele>127.0</ele><time>2026-05-06T12:40:22.03Z</time></trkpt><trkpt lat="37.5606283" lon="14.6818767"><ele>128.0</ele><time>2026-05-06T12:40:23.03Z</time></trkpt><trkpt lat="37.560585" lon="14.6821"><ele>129.0</ele><time>2026-05-06T12:40:24.03Z</time></trkpt><trkpt lat="37.56054" lon="14.6823283"><ele>130.0</ele><time>2026-05-06T12:40:25.03Z</time></trkpt><trkpt lat="37.5604917" lon="14.6825617"><ele>130.0</ele><time>2026-05-06T12:40:26.03Z</time></trkpt><trkpt lat="37.5604367" lon="14.6827883"><ele>130.0</ele><time>2026-05-06T12:40:27.03Z</time></trkpt><trkpt lat="37.560385" lon="14.6830017"><ele>130.0</ele><time>2026-05-06T12:40:28.03Z</time></trkpt><trkpt lat="37.5603383" lon="14.6832067"><ele>130.0</ele><time>2026-05-06T12:40:29.029Z</time></trkpt><trkpt lat="37.5602883" lon="14.6834017"><ele>130.0</ele><time>2026-05-06T12:40:30.03Z</time></trkpt><trkpt lat="37.56023" lon="14.683595"><ele>130.0</ele><time>2026-05-06T12:40:31.03Z</time></trkpt><trkpt lat="37.560175" lon="14.6837867"><ele>130.33333333333334</ele><time>2026-05-06T12:40:32.03Z</time></trkpt><trkpt lat="37.5601183" lon="14.6839883"><ele>130.66666666666666</ele><time>2026-05-06T12:40:33.029Z</time></trkpt><trkpt lat="37.56006" lon="14.6841867"><ele>131.0</ele><time>2026-05-06T12:40:34.03Z</time></trkpt><trkpt lat="37.5599883" lon="14.684395"><ele>131.33333333333331</ele><time>2026-05-06T12:40:35.03Z</time></trkpt><trkpt lat="37.55992" lon="14.6846"><ele>131.66666666666666</ele><time>2026-05-06T12:40:36.03Z</time></trkpt><trkpt lat="37.5598567" lon="14.6847967"><ele>132.0</ele><time>2026-05-06T12:40:37.03Z</time></trkpt><trkpt lat="37.55979" lon="14.68499"><ele>132.0</ele><time>2026-05-06T12:40:38.03Z</time></trkpt><trkpt lat="37.55972" lon="14.6851833"><ele>132.0</ele><time>2026-05-06T12:40:39.03Z</time></trkpt><trkpt lat="37.559645" lon="14.685385"><ele>132.0</ele><time>2026-05-06T12:40:40.03Z</time></trkpt><trkpt lat="37.5595683" lon="14.6855833"><ele>131.66666666666666</ele><time>2026-05-06T12:40:41.03Z</time></trkpt><trkpt lat="37.5594983" lon="14.6857817"><ele>131.33333333333331</ele><time>2026-05-06T12:40:42.03Z</time></trkpt><trkpt lat="37.5594217" lon="14.6859783"><ele>131.0</ele><time>2026-05-06T12:40:43.03Z</time></trkpt><trkpt lat="37.5593383" lon="14.6861833"><ele>130.66666666666666</ele><time>2026-05-06T12:40:44.029Z</time></trkpt><trkpt lat="37.5592533" lon="14.6863883"><ele>130.33333333333334</ele><time>2026-05-06T12:40:45.03Z</time></trkpt><trkpt lat="37.5591583" lon="14.6865983"><ele>130.0</ele><time>2026-05-06T12:40:46.03Z</time></trkpt><trkpt lat="37.5590633" lon="14.6868067"><ele>130.33333333333334</ele><time>2026-05-06T12:40:47.029Z</time></trkpt><trkpt lat="37.5589667" lon="14.6870267"><ele>130.66666666666666</ele><time>2026-05-06T12:40:48.03Z</time></trkpt><trkpt lat="37.558875" lon="14.687245"><ele>131.0</ele><time>2026-05-06T12:40:49.03Z</time></trkpt><trkpt lat="37.5587833" lon="14.6874683"><ele>131.0</ele><time>2026-05-06T12:40:50.03Z</time></trkpt><trkpt lat="37.5586833" lon="14.6876917"><ele>131.0</ele><time>2026-05-06T12:40:51.03Z</time></trkpt><trkpt lat="37.5585833" lon="14.6879133"><ele>131.0</ele><time>2026-05-06T12:40:52.03Z</time></trkpt><trkpt lat="37.55848" lon="14.6881283"><ele>131.0</ele><time>2026-05-06T12:40:53.029Z</time></trkpt><trkpt lat="37.5583867" lon="14.6883333"><ele>131.0</ele><time>2026-05-06T12:40:54.03Z</time></trkpt><trkpt lat="37.5582983" lon="14.688535"><ele>131.0</ele><time>2026-05-06T12:40:55.03Z</time></trkpt><trkpt lat="37.5582133" lon="14.6887383"><ele>131.0</ele><time>2026-05-06T12:40:56.03Z</time></trkpt><trkpt lat="37.5581283" lon="14.6889333"><ele>131.0</ele><time>2026-05-06T12:40:57.03Z</time></trkpt><trkpt lat="37.55804" lon="14.6891183"><ele>131.0</ele><time>2026-05-06T12:40:58.029Z</time></trkpt><trkpt lat="37.55796" lon="14.6893017"><ele>131.0</ele><time>2026-05-06T12:40:59.03Z</time></trkpt><trkpt lat="37.5578817" lon="14.6894767"><ele>131.0</ele><time>2026-05-06T12:41:00.03Z</time></trkpt><trkpt lat="37.5578067" lon="14.6896433"><ele>131.0</ele><time>2026-05-06T12:41:01.03Z</time></trkpt><trkpt lat="37.55774" lon="14.6898"><ele>130.5</ele><time>2026-05-06T12:41:02.03Z</time></trkpt><trkpt lat="37.55767" lon="14.68995"><ele>130.0</ele><time>2026-05-06T12:41:03.03Z</time></trkpt><trkpt lat="37.557605" lon="14.6900983"><ele>129.5</ele><time>2026-05-06T12:41:04.03Z</time></trkpt><trkpt lat="37.557545" lon="14.69025"><ele>129.0</ele><time>2026-05-06T12:41:05.03Z</time></trkpt><trkpt lat="37.5574817" lon="14.6904033"><ele>129.0</ele><time>2026-05-06T12:41:06.03Z</time></trkpt><trkpt lat="37.55742" lon="14.6905483"><ele>129.0</ele><time>2026-05-06T12:41:07.029Z</time></trkpt><trkpt lat="37.5573567" lon="14.6906917"><ele>129.0</ele><time>2026-05-06T12:41:08.03Z</time></trkpt><trkpt lat="37.5572867" lon="14.69084"><ele>129.0</ele><time>2026-05-06T12:41:09.03Z</time></trkpt><trkpt lat="37.5572183" lon="14.6909867"><ele>129.0</ele><time>2026-05-06T12:41:10.03Z</time></trkpt><trkpt lat="37.55714" lon="14.6911433"><ele>129.0</ele><time>2026-05-06T12:41:11.03Z</time></trkpt><trkpt lat="37.557065" lon="14.691315"><ele>129.0</ele><time>2026-05-06T12:41:12.03Z</time></trkpt><trkpt lat="37.5569983" lon="14.6914917"><ele>128.25</ele><time>2026-05-06T12:41:13.03Z</time></trkpt><trkpt lat="37.55693" lon="14.6916583"><ele>127.5</ele><time>2026-05-06T12:41:14.03Z</time></trkpt><trkpt lat="37.55686" lon="14.69181"><ele>126.75</ele><time>2026-05-06T12:41:15.03Z</time></trkpt><trkpt lat="37.5567983" lon="14.6919417"><ele>126.0</ele><time>2026-05-06T12:41:16.03Z</time></trkpt><trkpt lat="37.5567417" lon="14.692065"><ele>125.8</ele><time>2026-05-06T12:41:17.03Z</time></trkpt><trkpt lat="37.55669" lon="14.6921767"><ele>125.6</ele><time>2026-05-06T12:41:18.03Z</time></trkpt><trkpt lat="37.5566367" lon="14.6922883"><ele>125.4</ele><time>2026-05-06T12:41:19.03Z</time></trkpt><trkpt lat="37.5565883" lon="14.6923933"><ele>125.2</ele><time>2026-05-06T12:41:20.03Z</time></trkpt><trkpt lat="37.5565433" lon="14.6924933"><ele>125.0</ele><time>2026-05-06T12:41:21.03Z</time></trkpt><trkpt lat="37.5565" lon="14.6925967"><ele>125.0</ele><time>2026-05-06T12:41:22.03Z</time></trkpt><trkpt lat="37.5564617" lon="14.6926983"><ele>125.0</ele><time>2026-05-06T12:41:23.03Z</time></trkpt><trkpt lat="37.55642" lon="14.6928017"><ele>125.0</ele><time>2026-05-06T12:41:24.03Z</time></trkpt><trkpt lat="37.5563717" lon="14.6928967"><ele>125.0</ele><time>2026-05-06T12:41:25.03Z</time></trkpt><trkpt lat="37.55633" lon="14.6929983"><ele>125.0</ele><time>2026-05-06T12:41:26.03Z</time></trkpt><trkpt lat="37.556295" lon="14.6931083"><ele>124.6</ele><time>2026-05-06T12:41:27.03Z</time></trkpt><trkpt lat="37.55627" lon="14.6932283"><ele>124.2</ele><time>2026-05-06T12:41:28.03Z</time></trkpt><trkpt lat="37.5562383" lon="14.6933517"><ele>123.80000000000001</ele><time>2026-05-06T12:41:29.03Z</time></trkpt><trkpt lat="37.5561917" lon="14.6934767"><ele>123.4</ele><time>2026-05-06T12:41:30.03Z</time></trkpt><trkpt lat="37.5561333" lon="14.69361"><ele>123.0</ele><time>2026-05-06T12:41:31.03Z</time></trkpt><trkpt lat="37.5560667" lon="14.6937483"><ele>122.75</ele><time>2026-05-06T12:41:32.03Z</time></trkpt><trkpt lat="37.5560033" lon="14.693885"><ele>122.5</ele><time>2026-05-06T12:41:33.03Z</time></trkpt><trkpt lat="37.5559483" lon="14.6940117"><ele>122.25</ele><time>2026-05-06T12:41:34.03Z</time></trkpt><trkpt lat="37.5558933" lon="14.6941333"><ele>122.0</ele><time>2026-05-06T12:41:35.03Z</time></trkpt><trkpt lat="37.55584" lon="14.6942633"><ele>122.0</ele><time>2026-05-06T12:41:36.03Z</time></trkpt><trkpt lat="37.5557867" lon="14.694385"><ele>122.0</ele><time>2026-05-06T12:41:37.03Z</time></trkpt><trkpt lat="37.5557283" lon="14.6945083"><ele>122.0</ele><time>2026-05-06T12:41:38.03Z</time></trkpt><trkpt lat="37.5556667" lon="14.6946333"><ele>122.0</ele><time>2026-05-06T12:41:39.03Z</time></trkpt><trkpt lat="37.555615" lon="14.694755"><ele>121.19999999999999</ele><time>2026-05-06T12:41:40.03Z</time></trkpt><trkpt lat="37.55556" lon="14.6948667"><ele>120.39999999999999</ele><time>2026-05-06T12:41:41.03Z</time></trkpt><trkpt lat="37.5555067" lon="14.6949817"><ele>119.60000000000001</ele><time>2026-05-06T12:41:42.03Z</time></trkpt><trkpt lat="37.5554617" lon="14.6951017"><ele>118.80000000000001</ele><time>2026-05-06T12:41:43.03Z</time></trkpt><trkpt lat="37.5554133" lon="14.6952233"><ele>118.0</ele><time>2026-05-06T12:41:44.03Z</time></trkpt><trkpt lat="37.555365" lon="14.6953433"><ele>117.80000000000001</ele><time>2026-05-06T12:41:45.03Z</time></trkpt><trkpt lat="37.5553083" lon="14.6954633"><ele>117.60000000000001</ele><time>2026-05-06T12:41:46.03Z</time></trkpt><trkpt lat="37.5552567" lon="14.6955817"><ele>117.39999999999999</ele><time>2026-05-06T12:41:47.03Z</time></trkpt><trkpt lat="37.5552017" lon="14.6957"><ele>117.19999999999999</ele><time>2026-05-06T12:41:48.03Z</time></trkpt><trkpt lat="37.5551483" lon="14.6958233"><ele>117.0</ele><time>2026-05-06T12:41:49.03Z</time></trkpt><trkpt lat="37.555095" lon="14.6959483"><ele>117.0</ele><time>2026-05-06T12:41:50.03Z</time></trkpt><trkpt lat="37.5550417" lon="14.6960767"><ele>117.0</ele><time>2026-05-06T12:41:51.03Z</time></trkpt><trkpt lat="37.5549817" lon="14.696215"><ele>117.0</ele><time>2026-05-06T12:41:52.03Z</time></trkpt><trkpt lat="37.5549183" lon="14.696365"><ele>117.0</ele><time>2026-05-06T12:41:53.03Z</time></trkpt><trkpt lat="37.5548433" lon="14.69654"><ele>116.0</ele><time>2026-05-06T12:41:54.03Z</time></trkpt><trkpt lat="37.5547633" lon="14.69674"><ele>115.0</ele><time>2026-05-06T12:41:55.03Z</time></trkpt><trkpt lat="37.55467" lon="14.69698"><ele>114.0</ele><time>2026-05-06T12:41:56.029Z</time></trkpt><trkpt lat="37.5545767" lon="14.69724"><ele>114.33333333333334</ele><time>2026-05-06T12:41:57.03Z</time></trkpt><trkpt lat="37.5544933" lon="14.6974817"><ele>114.66666666666667</ele><time>2026-05-06T12:41:58.03Z</time></trkpt><trkpt lat="37.5544133" lon="14.6977083"><ele>115.0</ele><time>2026-05-06T12:41:59.03Z</time></trkpt><trkpt lat="37.554335" lon="14.697915"><ele>115.66666666666667</ele><time>2026-05-06T12:42:00.03Z</time></trkpt><trkpt lat="37.554265" lon="14.69811"><ele>116.33333333333334</ele><time>2026-05-06T12:42:01.03Z</time></trkpt><trkpt lat="37.5542017" lon="14.698305"><ele>117.0</ele><time>2026-05-06T12:42:02.03Z</time></trkpt><trkpt lat="37.5541417" lon="14.6984883"><ele>116.33333333333334</ele><time>2026-05-06T12:42:03.03Z</time></trkpt><trkpt lat="37.554085" lon="14.69867"><ele>115.66666666666667</ele><time>2026-05-06T12:42:04.03Z</time></trkpt><trkpt lat="37.55403" lon="14.6988467"><ele>115.0</ele><time>2026-05-06T12:42:05.03Z</time></trkpt><trkpt lat="37.5539783" lon="14.6990183"><ele>115.0</ele><time>2026-05-06T12:42:06.03Z</time></trkpt><trkpt lat="37.5539267" lon="14.69919"><ele>115.0</ele><time>2026-05-06T12:42:07.03Z</time></trkpt><trkpt lat="37.5538733" lon="14.69936"><ele>115.0</ele><time>2026-05-06T12:42:08.03Z</time></trkpt><trkpt lat="37.5538267" lon="14.6995167"><ele>115.0</ele><time>2026-05-06T12:42:09.03Z</time></trkpt><trkpt lat="37.55378" lon="14.6996717"><ele>115.0</ele><time>2026-05-06T12:42:10.03Z</time></trkpt><trkpt lat="37.5537383" lon="14.6998267"><ele>115.0</ele><time>2026-05-06T12:42:11.03Z</time></trkpt><trkpt lat="37.5536967" lon="14.699985"><ele>115.0</ele><time>2026-05-06T12:42:12.03Z</time></trkpt><trkpt lat="37.5536517" lon="14.700145"><ele>115.0</ele><time>2026-05-06T12:42:13.03Z</time></trkpt><trkpt lat="37.5536067" lon="14.7003167"><ele>114.66666666666667</ele><time>2026-05-06T12:42:14.03Z</time></trkpt><trkpt lat="37.5535583" lon="14.7005"><ele>114.33333333333334</ele><time>2026-05-06T12:42:15.029Z</time></trkpt><trkpt lat="37.5535067" lon="14.7006933"><ele>114.0</ele><time>2026-05-06T12:42:16.03Z</time></trkpt><trkpt lat="37.5534567" lon="14.7008817"><ele>114.0</ele><time>2026-05-06T12:42:17.03Z</time></trkpt><trkpt lat="37.5534083" lon="14.7010767"><ele>114.0</ele><time>2026-05-06T12:42:18.03Z</time></trkpt><trkpt lat="37.553365" lon="14.7012733"><ele>114.0</ele><time>2026-05-06T12:42:19.03Z</time></trkpt><trkpt lat="37.553325" lon="14.701465"><ele>114.66666666666666</ele><time>2026-05-06T12:42:20.03Z</time></trkpt><trkpt lat="37.5532867" lon="14.7016567"><ele>115.33333333333333</ele><time>2026-05-06T12:42:21.03Z</time></trkpt><trkpt lat="37.5532517" lon="14.70184"><ele>116.0</ele><time>2026-05-06T12:42:22.03Z</time></trkpt><trkpt lat="37.5532117" lon="14.7020267"><ele>117.0</ele><time>2026-05-06T12:42:23.03Z</time></trkpt><trkpt lat="37.5531717" lon="14.7022167"><ele>118.0</ele><time>2026-05-06T12:42:24.03Z</time></trkpt><trkpt lat="37.5531333" lon="14.70241"><ele>119.0</ele><time>2026-05-06T12:42:25.03Z</time></trkpt><trkpt lat="37.5530917" lon="14.7026017"><ele>119.5</ele><time>2026-05-06T12:42:26.03Z</time></trkpt><trkpt lat="37.5530517" lon="14.70279"><ele>120.0</ele><time>2026-05-06T12:42:27.03Z</time></trkpt><trkpt lat="37.5530233" lon="14.702975"><ele>120.5</ele><time>2026-05-06T12:42:28.03Z</time></trkpt><trkpt lat="37.5529967" lon="14.7031483"><ele>121.0</ele><time>2026-05-06T12:42:29.03Z</time></trkpt><trkpt lat="37.5529667" lon="14.703315"><ele>121.0</ele><time>2026-05-06T12:42:30.03Z</time></trkpt><trkpt lat="37.5529433" lon="14.7034783"><ele>121.0</ele><time>2026-05-06T12:42:31.03Z</time></trkpt><trkpt lat="37.5529167" lon="14.7036333"><ele>121.0</ele><time>2026-05-06T12:42:32.03Z</time></trkpt><trkpt lat="37.55289" lon="14.7037867"><ele>121.0</ele><time>2026-05-06T12:42:33.03Z</time></trkpt><trkpt lat="37.5528633" lon="14.7039417"><ele>121.0</ele><time>2026-05-06T12:42:34.03Z</time></trkpt><trkpt lat="37.5528367" lon="14.7040933"><ele>121.0</ele><time>2026-05-06T12:42:35.03Z</time></trkpt><trkpt lat="37.5528083" lon="14.704235"><ele>121.0</ele><time>2026-05-06T12:42:36.03Z</time></trkpt><trkpt lat="37.5527917" lon="14.7043717"><ele>121.0</ele><time>2026-05-06T12:42:37.03Z</time></trkpt><trkpt lat="37.5527617" lon="14.70451"><ele>121.0</ele><time>2026-05-06T12:42:38.03Z</time></trkpt><trkpt lat="37.5527167" lon="14.70464"><ele>121.0</ele><time>2026-05-06T12:42:39.03Z</time></trkpt><trkpt lat="37.5526717" lon="14.7047867"><ele>121.0</ele><time>2026-05-06T12:42:40.03Z</time></trkpt><trkpt lat="37.552635" lon="14.7049417"><ele>121.0</ele><time>2026-05-06T12:42:41.03Z</time></trkpt><trkpt lat="37.552605" lon="14.7051283"><ele>121.66666666666667</ele><time>2026-05-06T12:42:42.03Z</time></trkpt><trkpt lat="37.5525783" lon="14.7053333"><ele>122.33333333333334</ele><time>2026-05-06T12:42:43.03Z</time></trkpt><trkpt lat="37.5525567" lon="14.7055483"><ele>123.0</ele><time>2026-05-06T12:42:44.029Z</time></trkpt><trkpt lat="37.5525367" lon="14.705765"><ele>123.0</ele><time>2026-05-06T12:42:45.03Z</time></trkpt><trkpt lat="37.5525183" lon="14.705975"><ele>123.0</ele><time>2026-05-06T12:42:46.03Z</time></trkpt><trkpt lat="37.5525017" lon="14.70618"><ele>123.0</ele><time>2026-05-06T12:42:47.03Z</time></trkpt><trkpt lat="37.5524817" lon="14.7063917"><ele>123.33333333333334</ele><time>2026-05-06T12:42:48.03Z</time></trkpt><trkpt lat="37.5524683" lon="14.7066083"><ele>123.66666666666667</ele><time>2026-05-06T12:42:49.03Z</time></trkpt><trkpt lat="37.5524533" lon="14.7068283"><ele>124.0</ele><time>2026-05-06T12:42:50.03Z</time></trkpt><trkpt lat="37.5524417" lon="14.7070417"><ele>124.33333333333334</ele><time>2026-05-06T12:42:51.03Z</time></trkpt><trkpt lat="37.5524317" lon="14.7072567"><ele>124.66666666666666</ele><time>2026-05-06T12:42:52.03Z</time></trkpt><trkpt lat="37.5524267" lon="14.707475"><ele>125.0</ele><time>2026-05-06T12:42:53.03Z</time></trkpt><trkpt lat="37.55241" lon="14.7077133"><ele>124.0</ele><time>2026-05-06T12:42:54.03Z</time></trkpt><trkpt lat="37.5524017" lon="14.7079533"><ele>123.0</ele><time>2026-05-06T12:42:55.03Z</time></trkpt><trkpt lat="37.5523933" lon="14.70821"><ele>122.0</ele><time>2026-05-06T12:42:56.03Z</time></trkpt><trkpt lat="37.5523817" lon="14.7084883"><ele>123.0</ele><time>2026-05-06T12:42:57.029Z</time></trkpt><trkpt lat="37.5523717" lon="14.7087817"><ele>124.0</ele><time>2026-05-06T12:42:58.029Z</time></trkpt><trkpt lat="37.5523683" lon="14.70908"><ele>124.0</ele><time>2026-05-06T12:42:59.029Z</time></trkpt><trkpt lat="37.5523583" lon="14.7093783"><ele>124.0</ele><time>2026-05-06T12:43:00.029Z</time></trkpt><trkpt lat="37.5523483" lon="14.709675"><ele>124.0</ele><time>2026-05-06T12:43:01.029Z</time></trkpt><trkpt lat="37.552345" lon="14.7099767"><ele>124.0</ele><time>2026-05-06T12:43:02.029Z</time></trkpt><trkpt lat="37.5523367" lon="14.71028"><ele>124.0</ele><time>2026-05-06T12:43:03.029Z</time></trkpt><trkpt lat="37.552335" lon="14.7105767"><ele>124.0</ele><time>2026-05-06T12:43:04.029Z</time></trkpt><trkpt lat="37.5523333" lon="14.710875"><ele>123.0</ele><time>2026-05-06T12:43:05.029Z</time></trkpt><trkpt lat="37.5523317" lon="14.71117"><ele>122.0</ele><time>2026-05-06T12:43:06.029Z</time></trkpt><trkpt lat="37.552325" lon="14.7114633"><ele>122.0</ele><time>2026-05-06T12:43:07.029Z</time></trkpt><trkpt lat="37.55232" lon="14.7117483"><ele>122.0</ele><time>2026-05-06T12:43:08.029Z</time></trkpt><trkpt lat="37.5523133" lon="14.7120217"><ele>122.0</ele><time>2026-05-06T12:43:09.028Z</time></trkpt><trkpt lat="37.5523067" lon="14.7122933"><ele>122.33333333333333</ele><time>2026-05-06T12:43:10.029Z</time></trkpt><trkpt lat="37.5522967" lon="14.712555"><ele>122.66666666666666</ele><time>2026-05-06T12:43:11.029Z</time></trkpt><trkpt lat="37.5522917" lon="14.7128183"><ele>123.0</ele><time>2026-05-06T12:43:12.029Z</time></trkpt><trkpt lat="37.5522883" lon="14.7130883"><ele>123.0</ele><time>2026-05-06T12:43:13.029Z</time></trkpt><trkpt lat="37.5522817" lon="14.7133583"><ele>123.0</ele><time>2026-05-06T12:43:14.029Z</time></trkpt><trkpt lat="37.552275" lon="14.713625"><ele>123.0</ele><time>2026-05-06T12:43:15.029Z</time></trkpt><trkpt lat="37.5522667" lon="14.7138933"><ele>123.0</ele><time>2026-05-06T12:43:16.029Z</time></trkpt><trkpt lat="37.5522483" lon="14.7141633"><ele>123.0</ele><time>2026-05-06T12:43:17.029Z</time></trkpt><trkpt lat="37.552225" lon="14.7144283"><ele>123.0</ele><time>2026-05-06T12:43:18.029Z</time></trkpt><trkpt lat="37.5521967" lon="14.7146933"><ele>123.33333333333334</ele><time>2026-05-06T12:43:19.029Z</time></trkpt><trkpt lat="37.55216" lon="14.7149583"><ele>123.66666666666667</ele><time>2026-05-06T12:43:20.029Z</time></trkpt><trkpt lat="37.5521217" lon="14.715225"><ele>124.0</ele><time>2026-05-06T12:43:21.029Z</time></trkpt><trkpt lat="37.5520767" lon="14.7154933"><ele>123.66666666666667</ele><time>2026-05-06T12:43:22.029Z</time></trkpt><trkpt lat="37.5520233" lon="14.7157617"><ele>123.33333333333334</ele><time>2026-05-06T12:43:23.029Z</time></trkpt><trkpt lat="37.5519583" lon="14.7160217"><ele>123.0</ele><time>2026-05-06T12:43:24.029Z</time></trkpt><trkpt lat="37.551885" lon="14.7162767"><ele>123.0</ele><time>2026-05-06T12:43:25.029Z</time></trkpt><trkpt lat="37.5518083" lon="14.7165317"><ele>123.0</ele><time>2026-05-06T12:43:26.029Z</time></trkpt><trkpt lat="37.55173" lon="14.7167917"><ele>123.0</ele><time>2026-05-06T12:43:27.029Z</time></trkpt><trkpt lat="37.5516417" lon="14.7170483"><ele>122.5</ele><time>2026-05-06T12:43:28.029Z</time></trkpt><trkpt lat="37.551545" lon="14.7173017"><ele>122.0</ele><time>2026-05-06T12:43:29.029Z</time></trkpt><trkpt lat="37.55144" lon="14.7175617"><ele>121.0</ele><time>2026-05-06T12:43:30.029Z</time></trkpt><trkpt lat="37.5513333" lon="14.7178167"><ele>120.0</ele><time>2026-05-06T12:43:31.029Z</time></trkpt><trkpt lat="37.5512167" lon="14.7180633"><ele>120.5</ele><time>2026-05-06T12:43:32.029Z</time></trkpt><trkpt lat="37.551095" lon="14.71831"><ele>121.0</ele><time>2026-05-06T12:43:33.029Z</time></trkpt><trkpt lat="37.5509717" lon="14.7185433"><ele>121.0</ele><time>2026-05-06T12:43:34.029Z</time></trkpt><trkpt lat="37.5508467" lon="14.7187633"><ele>121.0</ele><time>2026-05-06T12:43:35.029Z</time></trkpt><trkpt lat="37.5507067" lon="14.7189833"><ele>121.0</ele><time>2026-05-06T12:43:36.029Z</time></trkpt><trkpt lat="37.550565" lon="14.7191983"><ele>121.0</ele><time>2026-05-06T12:43:37.029Z</time></trkpt><trkpt lat="37.5504167" lon="14.7193983"><ele>121.0</ele><time>2026-05-06T12:43:38.028Z</time></trkpt><trkpt lat="37.5502667" lon="14.7195983"><ele>121.0</ele><time>2026-05-06T12:43:39.028Z</time></trkpt><trkpt lat="37.5501117" lon="14.7197917"><ele>120.33333333333334</ele><time>2026-05-06T12:43:40.029Z</time></trkpt><trkpt lat="37.5499483" lon="14.7199817"><ele>119.66666666666666</ele><time>2026-05-06T12:43:41.029Z</time></trkpt><trkpt lat="37.54979" lon="14.7201617"><ele>119.0</ele><time>2026-05-06T12:43:42.029Z</time></trkpt><trkpt lat="37.5496333" lon="14.7203367"><ele>118.66666666666666</ele><time>2026-05-06T12:43:43.029Z</time></trkpt><trkpt lat="37.5494733" lon="14.7205117"><ele>118.33333333333334</ele><time>2026-05-06T12:43:44.029Z</time></trkpt><trkpt lat="37.549315" lon="14.7206833"><ele>118.0</ele><time>2026-05-06T12:43:45.029Z</time></trkpt><trkpt lat="37.5491567" lon="14.7208567"><ele>118.0</ele><time>2026-05-06T12:43:46.029Z</time></trkpt><trkpt lat="37.549" lon="14.7210283"><ele>118.0</ele><time>2026-05-06T12:43:47.029Z</time></trkpt><trkpt lat="37.548855" lon="14.7211833"><ele>118.0</ele><time>2026-05-06T12:43:48.029Z</time></trkpt><trkpt lat="37.5487017" lon="14.7213367"><ele>119.0</ele><time>2026-05-06T12:43:49.029Z</time></trkpt><trkpt lat="37.5485533" lon="14.72149"><ele>120.0</ele><time>2026-05-06T12:43:50.029Z</time></trkpt><trkpt lat="37.5483933" lon="14.7216617"><ele>121.0</ele><time>2026-05-06T12:43:51.029Z</time></trkpt><trkpt lat="37.548225" lon="14.721845"><ele>121.5</ele><time>2026-05-06T12:43:52.029Z</time></trkpt><trkpt lat="37.5480433" lon="14.7220333"><ele>122.0</ele><time>2026-05-06T12:43:53.029Z</time></trkpt><trkpt lat="37.547865" lon="14.7222233"><ele>122.0</ele><time>2026-05-06T12:43:54.028Z</time></trkpt><trkpt lat="37.5476883" lon="14.7224083"><ele>122.0</ele><time>2026-05-06T12:43:55.028Z</time></trkpt><trkpt lat="37.547515" lon="14.722595"><ele>121.66666666666666</ele><time>2026-05-06T12:43:56.029Z</time></trkpt><trkpt lat="37.5473467" lon="14.722775"><ele>121.33333333333334</ele><time>2026-05-06T12:43:57.029Z</time></trkpt><trkpt lat="37.5471783" lon="14.7229533"><ele>121.0</ele><time>2026-05-06T12:43:58.029Z</time></trkpt><trkpt lat="37.5470033" lon="14.72313"><ele>121.0</ele><time>2026-05-06T12:43:59.029Z</time></trkpt><trkpt lat="37.5468383" lon="14.7233083"><ele>121.0</ele><time>2026-05-06T12:44:00.029Z</time></trkpt><trkpt lat="37.5466767" lon="14.72348"><ele>121.0</ele><time>2026-05-06T12:44:01.029Z</time></trkpt><trkpt lat="37.54652" lon="14.723645"><ele>120.33333333333334</ele><time>2026-05-06T12:44:02.029Z</time></trkpt><trkpt lat="37.5463567" lon="14.7238133"><ele>119.66666666666666</ele><time>2026-05-06T12:44:03.029Z</time></trkpt><trkpt lat="37.5461883" lon="14.723995"><ele>119.0</ele><time>2026-05-06T12:44:04.029Z</time></trkpt><trkpt lat="37.5460167" lon="14.724175"><ele>119.0</ele><time>2026-05-06T12:44:05.029Z</time></trkpt><trkpt lat="37.5458483" lon="14.72436"><ele>119.0</ele><time>2026-05-06T12:44:06.028Z</time></trkpt><trkpt lat="37.5456833" lon="14.7245417"><ele>119.0</ele><time>2026-05-06T12:44:07.029Z</time></trkpt><trkpt lat="37.54552" lon="14.7247133"><ele>118.33333333333333</ele><time>2026-05-06T12:44:08.028Z</time></trkpt><trkpt lat="37.5453583" lon="14.7248833"><ele>117.66666666666666</ele><time>2026-05-06T12:44:09.029Z</time></trkpt><trkpt lat="37.545195" lon="14.72506"><ele>117.0</ele><time>2026-05-06T12:44:10.029Z</time></trkpt><trkpt lat="37.5450317" lon="14.7252333"><ele>116.66666666666666</ele><time>2026-05-06T12:44:11.029Z</time></trkpt><trkpt lat="37.5448617" lon="14.7254083"><ele>116.33333333333333</ele><time>2026-05-06T12:44:12.029Z</time></trkpt><trkpt lat="37.5446933" lon="14.72559"><ele>116.0</ele><time>2026-05-06T12:44:13.029Z</time></trkpt><trkpt lat="37.5445233" lon="14.7257667"><ele>116.0</ele><time>2026-05-06T12:44:14.029Z</time></trkpt><trkpt lat="37.544355" lon="14.7259517"><ele>116.0</ele><time>2026-05-06T12:44:15.029Z</time></trkpt><trkpt lat="37.54418" lon="14.7261367"><ele>115.0</ele><time>2026-05-06T12:44:16.029Z</time></trkpt><trkpt lat="37.5440017" lon="14.726325"><ele>114.0</ele><time>2026-05-06T12:44:17.028Z</time></trkpt><trkpt lat="37.543825" lon="14.7265167"><ele>114.0</ele><time>2026-05-06T12:44:18.029Z</time></trkpt><trkpt lat="37.5436483" lon="14.7267033"><ele>114.0</ele><time>2026-05-06T12:44:19.029Z</time></trkpt><trkpt lat="37.543475" lon="14.7268917"><ele>114.0</ele><time>2026-05-06T12:44:20.029Z</time></trkpt><trkpt lat="37.5432933" lon="14.727085"><ele>114.0</ele><time>2026-05-06T12:44:21.029Z</time></trkpt><trkpt lat="37.5431183" lon="14.727275"><ele>114.0</ele><time>2026-05-06T12:44:22.029Z</time></trkpt><trkpt lat="37.5429417" lon="14.72746"><ele>114.0</ele><time>2026-05-06T12:44:23.029Z</time></trkpt><trkpt lat="37.5427617" lon="14.7276533"><ele>115.0</ele><time>2026-05-06T12:44:24.029Z</time></trkpt><trkpt lat="37.5425867" lon="14.7278383"><ele>116.0</ele><time>2026-05-06T12:44:25.029Z</time></trkpt><trkpt lat="37.54241" lon="14.72803"><ele>116.0</ele><time>2026-05-06T12:44:26.029Z</time></trkpt><trkpt lat="37.542235" lon="14.7282267"><ele>116.0</ele><time>2026-05-06T12:44:27.029Z</time></trkpt><trkpt lat="37.5420617" lon="14.72842"><ele>116.5</ele><time>2026-05-06T12:44:28.029Z</time></trkpt><trkpt lat="37.5418883" lon="14.7286167"><ele>117.0</ele><time>2026-05-06T12:44:29.029Z</time></trkpt><trkpt lat="37.541715" lon="14.72881"><ele>117.0</ele><time>2026-05-06T12:44:30.029Z</time></trkpt><trkpt lat="37.5415417" lon="14.7290033"><ele>117.0</ele><time>2026-05-06T12:44:31.029Z</time></trkpt><trkpt lat="37.5413783" lon="14.7292017"><ele>115.5</ele><time>2026-05-06T12:44:32.029Z</time></trkpt><trkpt lat="37.5412117" lon="14.7294133"><ele>114.0</ele><time>2026-05-06T12:44:33.029Z</time></trkpt><trkpt lat="37.541045" lon="14.7296333"><ele>114.0</ele><time>2026-05-06T12:44:34.029Z</time></trkpt><trkpt lat="37.54088" lon="14.7298567"><ele>114.0</ele><time>2026-05-06T12:44:35.029Z</time></trkpt><trkpt lat="37.5407117" lon="14.73009"><ele>112.5</ele><time>2026-05-06T12:44:36.029Z</time></trkpt><trkpt lat="37.5405483" lon="14.7303317"><ele>111.0</ele><time>2026-05-06T12:44:37.028Z</time></trkpt><trkpt lat="37.54039" lon="14.7305683"><ele>112.0</ele><time>2026-05-06T12:44:38.029Z</time></trkpt><trkpt lat="37.5402267" lon="14.7308133"><ele>113.0</ele><time>2026-05-06T12:44:39.029Z</time></trkpt><trkpt lat="37.54007" lon="14.73106"><ele>113.0</ele><time>2026-05-06T12:44:40.029Z</time></trkpt><trkpt lat="37.53991" lon="14.7313167"><ele>113.0</ele><time>2026-05-06T12:44:41.029Z</time></trkpt><trkpt lat="37.5397483" lon="14.7315667"><ele>113.0</ele><time>2026-05-06T12:44:42.029Z</time></trkpt><trkpt lat="37.5395917" lon="14.731815"><ele>113.0</ele><time>2026-05-06T12:44:43.029Z</time></trkpt><trkpt lat="37.539425" lon="14.7320667"><ele>113.5</ele><time>2026-05-06T12:44:44.029Z</time></trkpt><trkpt lat="37.5392667" lon="14.732315"><ele>114.0</ele><time>2026-05-06T12:44:45.029Z</time></trkpt><trkpt lat="37.5391" lon="14.7325683"><ele>115.0</ele><time>2026-05-06T12:44:46.029Z</time></trkpt><trkpt lat="37.5389417" lon="14.732815"><ele>116.0</ele><time>2026-05-06T12:44:47.029Z</time></trkpt><trkpt lat="37.538775" lon="14.73307"><ele>115.5</ele><time>2026-05-06T12:44:48.029Z</time></trkpt><trkpt lat="37.5386067" lon="14.7333283"><ele>115.0</ele><time>2026-05-06T12:44:49.029Z</time></trkpt><trkpt lat="37.5384383" lon="14.733585"><ele>114.0</ele><time>2026-05-06T12:44:50.029Z</time></trkpt><trkpt lat="37.5382817" lon="14.7338383"><ele>113.0</ele><time>2026-05-06T12:44:51.029Z</time></trkpt><trkpt lat="37.53811" lon="14.734105"><ele>113.0</ele><time>2026-05-06T12:44:52.029Z</time></trkpt><trkpt lat="37.53794" lon="14.734385"><ele>113.0</ele><time>2026-05-06T12:44:53.029Z</time></trkpt><trkpt lat="37.5377567" lon="14.7346767"><ele>112.0</ele><time>2026-05-06T12:44:54.029Z</time></trkpt><trkpt lat="37.53757" lon="14.7349683"><ele>111.0</ele><time>2026-05-06T12:44:55.029Z</time></trkpt><trkpt lat="37.5373933" lon="14.7352417"><ele>109.5</ele><time>2026-05-06T12:44:56.029Z</time></trkpt><trkpt lat="37.5372267" lon="14.7355017"><ele>108.0</ele><time>2026-05-06T12:44:57.029Z</time></trkpt><trkpt lat="37.5370633" lon="14.7357617"><ele>108.0</ele><time>2026-05-06T12:44:58.029Z</time></trkpt><trkpt lat="37.5369033" lon="14.736015"><ele>108.0</ele><time>2026-05-06T12:44:59.029Z</time></trkpt><trkpt lat="37.536745" lon="14.7362533"><ele>108.0</ele><time>2026-05-06T12:45:00.029Z</time></trkpt><trkpt lat="37.536595" lon="14.7364933"><ele>108.0</ele><time>2026-05-06T12:45:01.029Z</time></trkpt><trkpt lat="37.536445" lon="14.7367233"><ele>109.5</ele><time>2026-05-06T12:45:02.029Z</time></trkpt><trkpt lat="37.5363017" lon="14.736955"><ele>111.0</ele><time>2026-05-06T12:45:03.029Z</time></trkpt><trkpt lat="37.5361567" lon="14.73719"><ele>111.0</ele><time>2026-05-06T12:45:04.029Z</time></trkpt><trkpt lat="37.536015" lon="14.73741"><ele>111.0</ele><time>2026-05-06T12:45:05.029Z</time></trkpt><trkpt lat="37.53588" lon="14.7376183"><ele>111.0</ele><time>2026-05-06T12:45:06.029Z</time></trkpt><trkpt lat="37.535745" lon="14.7378183"><ele>111.66666666666666</ele><time>2026-05-06T12:45:07.029Z</time></trkpt><trkpt lat="37.535605" lon="14.738015"><ele>112.33333333333333</ele><time>2026-05-06T12:45:08.029Z</time></trkpt><trkpt lat="37.5354617" lon="14.738225"><ele>113.0</ele><time>2026-05-06T12:45:09.029Z</time></trkpt><trkpt lat="37.5353233" lon="14.7384417"><ele>113.66666666666666</ele><time>2026-05-06T12:45:10.029Z</time></trkpt><trkpt lat="37.5351833" lon="14.7386617"><ele>114.33333333333334</ele><time>2026-05-06T12:45:11.029Z</time></trkpt><trkpt lat="37.53505" lon="14.73888"><ele>115.0</ele><time>2026-05-06T12:45:12.029Z</time></trkpt><trkpt lat="37.534905" lon="14.7390833"><ele>115.0</ele><time>2026-05-06T12:45:13.029Z</time></trkpt><trkpt lat="37.5347633" lon="14.73928"><ele>115.0</ele><time>2026-05-06T12:45:14.029Z</time></trkpt><trkpt lat="37.5346233" lon="14.7394567"><ele>115.0</ele><time>2026-05-06T12:45:15.028Z</time></trkpt><trkpt lat="37.5344967" lon="14.7396267"><ele>114.66666666666667</ele><time>2026-05-06T12:45:16.029Z</time></trkpt><trkpt lat="37.5343667" lon="14.7397867"><ele>114.33333333333334</ele><time>2026-05-06T12:45:17.029Z</time></trkpt><trkpt lat="37.534245" lon="14.7399383"><ele>114.0</ele><time>2026-05-06T12:45:18.029Z</time></trkpt><trkpt lat="37.534135" lon="14.7400667"><ele>114.0</ele><time>2026-05-06T12:45:19.029Z</time></trkpt><trkpt lat="37.53403" lon="14.7401667"><ele>114.0</ele><time>2026-05-06T12:45:20.029Z</time></trkpt><trkpt lat="37.5339217" lon="14.7402317"><ele>114.0</ele><time>2026-05-06T12:45:21.028Z</time></trkpt><trkpt lat="37.5338117" lon="14.7402733"><ele>114.0</ele><time>2026-05-06T12:45:22.029Z</time></trkpt><trkpt lat="37.533705" lon="14.740315"><ele>114.2</ele><time>2026-05-06T12:45:23.029Z</time></trkpt><trkpt lat="37.5335933" lon="14.740365"><ele>114.4</ele><time>2026-05-06T12:45:24.029Z</time></trkpt><trkpt lat="37.5334867" lon="14.7404167"><ele>114.6</ele><time>2026-05-06T12:45:25.029Z</time></trkpt><trkpt lat="37.5333933" lon="14.7404767"><ele>114.8</ele><time>2026-05-06T12:45:26.029Z</time></trkpt><trkpt lat="37.533315" lon="14.740525"><ele>115.0</ele><time>2026-05-06T12:45:27.029Z</time></trkpt><trkpt lat="37.5332533" lon="14.7405783"><ele>115.0</ele><time>2026-05-06T12:45:28.029Z</time></trkpt><trkpt lat="37.53319" lon="14.74063"><ele>115.0</ele><time>2026-05-06T12:45:29.029Z</time></trkpt><trkpt lat="37.5331367" lon="14.7406883"><ele>115.0</ele><time>2026-05-06T12:45:30.029Z</time></trkpt><trkpt lat="37.5330467" lon="14.7407717"><ele>115.0</ele><time>2026-05-06T12:45:32.029Z</time></trkpt><trkpt lat="37.532965" lon="14.7408717"><ele>115.0</ele><time>2026-05-06T12:46:07.029Z</time></trkpt><trkpt lat="37.532875" lon="14.7409817"><ele>114.83333333333334</ele><time>2026-05-06T12:46:09.029Z</time></trkpt><trkpt lat="37.5328183" lon="14.7410533"><ele>114.66666666666667</ele><time>2026-05-06T12:46:10.029Z</time></trkpt><trkpt lat="37.532755" lon="14.7411233"><ele>114.5</ele><time>2026-05-06T12:46:11.029Z</time></trkpt><trkpt lat="37.53269" lon="14.7411917"><ele>114.33333333333334</ele><time>2026-05-06T12:46:12.029Z</time></trkpt><trkpt lat="37.5326267" lon="14.7412617"><ele>114.16666666666667</ele><time>2026-05-06T12:46:13.029Z</time></trkpt><trkpt lat="37.532565" lon="14.7413283"><ele>114.0</ele><time>2026-05-06T12:46:14.029Z</time></trkpt><trkpt lat="37.5325167" lon="14.7413833"><ele>114.0</ele><time>2026-05-06T12:46:15.028Z</time></trkpt><trkpt lat="37.5324467" lon="14.7414517"><ele>114.0</ele><time>2026-05-06T12:46:17.029Z</time></trkpt><trkpt lat="37.532395" lon="14.7414983"><ele>114.0</ele><time>2026-05-06T12:46:19.029Z</time></trkpt><trkpt lat="37.532335" lon="14.7415817"><ele>114.0</ele><time>2026-05-06T12:46:21.029Z</time></trkpt><trkpt lat="37.5323017" lon="14.74165"><ele>114.0</ele><time>2026-05-06T12:46:22.029Z</time></trkpt><trkpt lat="37.5322633" lon="14.74173"><ele>114.0</ele><time>2026-05-06T12:46:23.029Z</time></trkpt><trkpt lat="37.5322267" lon="14.7418233"><ele>114.2</ele><time>2026-05-06T12:46:24.029Z</time></trkpt><trkpt lat="37.5321933" lon="14.7419217"><ele>114.4</ele><time>2026-05-06T12:46:25.029Z</time></trkpt><trkpt lat="37.5321617" lon="14.742025"><ele>114.6</ele><time>2026-05-06T12:46:26.029Z</time></trkpt><trkpt lat="37.5321217" lon="14.7421333"><ele>114.8</ele><time>2026-05-06T12:46:27.029Z</time></trkpt><trkpt lat="37.5320667" lon="14.7422433"><ele>115.0</ele><time>2026-05-06T12:46:28.029Z</time></trkpt><trkpt lat="37.5319883" lon="14.74236"><ele>113.66666666666667</ele><time>2026-05-06T12:46:29.029Z</time></trkpt><trkpt lat="37.53189" lon="14.7424767"><ele>112.33333333333334</ele><time>2026-05-06T12:46:30.028Z</time></trkpt><trkpt lat="37.53177" lon="14.742605"><ele>111.0</ele><time>2026-05-06T12:46:31.029Z</time></trkpt><trkpt lat="37.531635" lon="14.742745"><ele>111.0</ele><time>2026-05-06T12:46:32.029Z</time></trkpt><trkpt lat="37.5314833" lon="14.7429017"><ele>111.0</ele><time>2026-05-06T12:46:33.029Z</time></trkpt><trkpt lat="37.531315" lon="14.7430767"><ele>111.0</ele><time>2026-05-06T12:46:34.029Z</time></trkpt><trkpt lat="37.5311233" lon="14.743275"><ele>108.5</ele><time>2026-05-06T12:46:35.029Z</time></trkpt><trkpt lat="37.530915" lon="14.7434767"><ele>106.0</ele><time>2026-05-06T12:46:36.029Z</time></trkpt><trkpt lat="37.53069" lon="14.74371"><ele>106.0</ele><time>2026-05-06T12:46:37.028Z</time></trkpt><trkpt lat="37.5304467" lon="14.7439517"><ele>106.0</ele><time>2026-05-06T12:46:38.029Z</time></trkpt><trkpt lat="37.5301917" lon="14.7442017"><ele>104.0</ele><time>2026-05-06T12:46:39.029Z</time></trkpt><trkpt lat="37.5299283" lon="14.744465"><ele>102.0</ele><time>2026-05-06T12:46:40.029Z</time></trkpt><trkpt lat="37.529655" lon="14.74474"><ele>102.0</ele><time>2026-05-06T12:46:41.029Z</time></trkpt><trkpt lat="37.5293683" lon="14.74503"><ele>102.0</ele><time>2026-05-06T12:46:42.029Z</time></trkpt><trkpt lat="37.52907" lon="14.7453267"><ele>102.0</ele><time>2026-05-06T12:46:43.029Z</time></trkpt><trkpt lat="37.528775" lon="14.745625"><ele>102.0</ele><time>2026-05-06T12:46:44.029Z</time></trkpt><trkpt lat="37.5284917" lon="14.745915"><ele>100.5</ele><time>2026-05-06T12:46:45.029Z</time></trkpt><trkpt lat="37.528225" lon="14.746205"><ele>99.0</ele><time>2026-05-06T12:46:46.029Z</time></trkpt><trkpt lat="37.5279617" lon="14.7465033"><ele>98.5</ele><time>2026-05-06T12:46:47.029Z</time></trkpt><trkpt lat="37.52769" lon="14.746815"><ele>98.0</ele><time>2026-05-06T12:46:48.029Z</time></trkpt><trkpt lat="37.5274233" lon="14.747135"><ele>97.5</ele><time>2026-05-06T12:46:49.029Z</time></trkpt><trkpt lat="37.5271617" lon="14.747465"><ele>97.0</ele><time>2026-05-06T12:46:50.029Z</time></trkpt><trkpt lat="37.526905" lon="14.7478083"><ele>97.0</ele><time>2026-05-06T12:46:51.029Z</time></trkpt><trkpt lat="37.5266533" lon="14.7481517"><ele>97.0</ele><time>2026-05-06T12:46:52.029Z</time></trkpt><trkpt lat="37.5263917" lon="14.7485067"><ele>95.0</ele><time>2026-05-06T12:46:53.029Z</time></trkpt><trkpt lat="37.52613" lon="14.7488733"><ele>93.0</ele><time>2026-05-06T12:46:54.029Z</time></trkpt><trkpt lat="37.52586" lon="14.7492467"><ele>93.0</ele><time>2026-05-06T12:46:55.029Z</time></trkpt><trkpt lat="37.5255967" lon="14.74961"><ele>93.0</ele><time>2026-05-06T12:46:56.029Z</time></trkpt><trkpt lat="37.5253267" lon="14.74997"><ele>93.5</ele><time>2026-05-06T12:46:57.029Z</time></trkpt><trkpt lat="37.5250583" lon="14.7503317"><ele>94.0</ele><time>2026-05-06T12:46:58.029Z</time></trkpt><trkpt lat="37.5248" lon="14.7506917"><ele>93.0</ele><time>2026-05-06T12:46:59.029Z</time></trkpt><trkpt lat="37.5245367" lon="14.751045"><ele>92.0</ele><time>2026-05-06T12:47:00.029Z</time></trkpt><trkpt lat="37.5242783" lon="14.7513967"><ele>92.0</ele><time>2026-05-06T12:47:01.029Z</time></trkpt><trkpt lat="37.52402" lon="14.7517483"><ele>92.0</ele><time>2026-05-06T12:47:02.029Z</time></trkpt><trkpt lat="37.5237717" lon="14.7520883"><ele>91.0</ele><time>2026-05-06T12:47:03.029Z</time></trkpt><trkpt lat="37.5235183" lon="14.7524267"><ele>90.0</ele><time>2026-05-06T12:47:04.029Z</time></trkpt><trkpt lat="37.5232733" lon="14.7527517"><ele>90.0</ele><time>2026-05-06T12:47:05.029Z</time></trkpt><trkpt lat="37.5230467" lon="14.7530567"><ele>90.0</ele><time>2026-05-06T12:47:06.029Z</time></trkpt><trkpt lat="37.522835" lon="14.753335"><ele>90.0</ele><time>2026-05-06T12:47:07.029Z</time></trkpt><trkpt lat="37.5226383" lon="14.7535967"><ele>90.0</ele><time>2026-05-06T12:47:08.029Z</time></trkpt><trkpt lat="37.5224417" lon="14.7538483"><ele>90.0</ele><time>2026-05-06T12:47:09.029Z</time></trkpt><trkpt lat="37.52225" lon="14.7541017"><ele>90.0</ele><time>2026-05-06T12:47:10.029Z</time></trkpt><trkpt lat="37.5220617" lon="14.7543467"><ele>90.0</ele><time>2026-05-06T12:47:11.029Z</time></trkpt><trkpt lat="37.52188" lon="14.7545917"><ele>90.0</ele><time>2026-05-06T12:47:12.029Z</time></trkpt><trkpt lat="37.5217017" lon="14.754835"><ele>90.0</ele><time>2026-05-06T12:47:13.029Z</time></trkpt><trkpt lat="37.5215233" lon="14.7550717"><ele>90.0</ele><time>2026-05-06T12:47:14.029Z</time></trkpt><trkpt lat="37.521345" lon="14.7553067"><ele>88.0</ele><time>2026-05-06T12:47:15.029Z</time></trkpt><trkpt lat="37.5211767" lon="14.755535"><ele>86.0</ele><time>2026-05-06T12:47:16.029Z</time></trkpt><trkpt lat="37.52101" lon="14.7557583"><ele>86.0</ele><time>2026-05-06T12:47:17.028Z</time></trkpt><trkpt lat="37.5208467" lon="14.7559783"><ele>86.0</ele><time>2026-05-06T12:47:18.029Z</time></trkpt><trkpt lat="37.5206883" lon="14.7561967"><ele>86.5</ele><time>2026-05-06T12:47:19.029Z</time></trkpt><trkpt lat="37.52053" lon="14.75641"><ele>87.0</ele><time>2026-05-06T12:47:20.029Z</time></trkpt><trkpt lat="37.5203717" lon="14.7566217"><ele>86.33333333333333</ele><time>2026-05-06T12:47:21.029Z</time></trkpt><trkpt lat="37.5202183" lon="14.7568283"><ele>85.66666666666666</ele><time>2026-05-06T12:47:22.029Z</time></trkpt><trkpt lat="37.520065" lon="14.757035"><ele>85.0</ele><time>2026-05-06T12:47:23.029Z</time></trkpt><trkpt lat="37.51991" lon="14.7572417"><ele>86.0</ele><time>2026-05-06T12:47:24.029Z</time></trkpt><trkpt lat="37.519765" lon="14.7574433"><ele>87.0</ele><time>2026-05-06T12:47:25.029Z</time></trkpt><trkpt lat="37.5196183" lon="14.7576367"><ele>88.0</ele><time>2026-05-06T12:47:26.029Z</time></trkpt><trkpt lat="37.5194683" lon="14.7578383"><ele>88.0</ele><time>2026-05-06T12:47:27.029Z</time></trkpt><trkpt lat="37.51932" lon="14.7580383"><ele>88.0</ele><time>2026-05-06T12:47:28.029Z</time></trkpt><trkpt lat="37.51917" lon="14.7582333"><ele>88.0</ele><time>2026-05-06T12:47:29.028Z</time></trkpt><trkpt lat="37.5190183" lon="14.7584267"><ele>87.33333333333333</ele><time>2026-05-06T12:47:30.029Z</time></trkpt><trkpt lat="37.5188733" lon="14.7586267"><ele>86.66666666666667</ele><time>2026-05-06T12:47:31.029Z</time></trkpt><trkpt lat="37.518725" lon="14.7588233"><ele>86.0</ele><time>2026-05-06T12:47:32.029Z</time></trkpt><trkpt lat="37.5185767" lon="14.7590167"><ele>86.0</ele><time>2026-05-06T12:47:33.029Z</time></trkpt><trkpt lat="37.5184317" lon="14.7592083"><ele>86.0</ele><time>2026-05-06T12:47:34.029Z</time></trkpt><trkpt lat="37.5182883" lon="14.759405"><ele>86.0</ele><time>2026-05-06T12:47:35.029Z</time></trkpt><trkpt lat="37.5181483" lon="14.7595967"><ele>85.66666666666667</ele><time>2026-05-06T12:47:36.028Z</time></trkpt><trkpt lat="37.51801" lon="14.7597867"><ele>85.33333333333333</ele><time>2026-05-06T12:47:37.029Z</time></trkpt><trkpt lat="37.517875" lon="14.759965"><ele>85.0</ele><time>2026-05-06T12:47:38.029Z</time></trkpt><trkpt lat="37.517745" lon="14.76014"><ele>85.0</ele><time>2026-05-06T12:47:39.029Z</time></trkpt><trkpt lat="37.5176183" lon="14.7603183"><ele>85.0</ele><time>2026-05-06T12:47:40.029Z</time></trkpt><trkpt lat="37.5174967" lon="14.7604867"><ele>85.0</ele><time>2026-05-06T12:47:41.029Z</time></trkpt><trkpt lat="37.5173833" lon="14.760645"><ele>85.0</ele><time>2026-05-06T12:47:42.029Z</time></trkpt><trkpt lat="37.5172767" lon="14.76079"><ele>85.0</ele><time>2026-05-06T12:47:43.029Z</time></trkpt><trkpt lat="37.5171717" lon="14.7609383"><ele>85.0</ele><time>2026-05-06T12:47:44.029Z</time></trkpt><trkpt lat="37.5170683" lon="14.7610733"><ele>85.5</ele><time>2026-05-06T12:47:45.029Z</time></trkpt><trkpt lat="37.5169667" lon="14.7612083"><ele>86.0</ele><time>2026-05-06T12:47:46.029Z</time></trkpt><trkpt lat="37.5168667" lon="14.7613433"><ele>86.5</ele><time>2026-05-06T12:47:47.029Z</time></trkpt><trkpt lat="37.5167683" lon="14.76148"><ele>87.0</ele><time>2026-05-06T12:47:48.029Z</time></trkpt><trkpt lat="37.516665" lon="14.7616167"><ele>87.0</ele><time>2026-05-06T12:47:49.029Z</time></trkpt><trkpt lat="37.5165617" lon="14.7617567"><ele>87.0</ele><time>2026-05-06T12:47:50.029Z</time></trkpt><trkpt lat="37.516465" lon="14.76189"><ele>87.0</ele><time>2026-05-06T12:47:51.029Z</time></trkpt><trkpt lat="37.516365" lon="14.76204"><ele>86.66666666666667</ele><time>2026-05-06T12:47:52.029Z</time></trkpt><trkpt lat="37.5162667" lon="14.7621783"><ele>86.33333333333334</ele><time>2026-05-06T12:47:53.029Z</time></trkpt><trkpt lat="37.5161667" lon="14.76233"><ele>86.0</ele><time>2026-05-06T12:47:54.029Z</time></trkpt><trkpt lat="37.516075" lon="14.7624817"><ele>85.0</ele><time>2026-05-06T12:47:55.029Z</time></trkpt><trkpt lat="37.5159783" lon="14.7626333"><ele>84.0</ele><time>2026-05-06T12:47:56.029Z</time></trkpt><trkpt lat="37.5158817" lon="14.762785"><ele>83.0</ele><time>2026-05-06T12:47:57.029Z</time></trkpt><trkpt lat="37.51578" lon="14.762945"><ele>83.0</ele><time>2026-05-06T12:47:58.029Z</time></trkpt><trkpt lat="37.5156767" lon="14.7631083"><ele>83.0</ele><time>2026-05-06T12:47:59.029Z</time></trkpt><trkpt lat="37.51557" lon="14.7632783"><ele>83.0</ele><time>2026-05-06T12:48:00.029Z</time></trkpt><trkpt lat="37.5154683" lon="14.763455"><ele>83.33333333333334</ele><time>2026-05-06T12:48:01.029Z</time></trkpt><trkpt lat="37.515365" lon="14.763635"><ele>83.66666666666667</ele><time>2026-05-06T12:48:02.029Z</time></trkpt><trkpt lat="37.5152667" lon="14.7638233"><ele>84.0</ele><time>2026-05-06T12:48:03.029Z</time></trkpt><trkpt lat="37.5151617" lon="14.7640133"><ele>84.0</ele><time>2026-05-06T12:48:04.029Z</time></trkpt><trkpt lat="37.5150567" lon="14.7642083"><ele>84.0</ele><time>2026-05-06T12:48:05.029Z</time></trkpt><trkpt lat="37.5149683" lon="14.764405"><ele>84.0</ele><time>2026-05-06T12:48:06.029Z</time></trkpt><trkpt lat="37.514875" lon="14.7646083"><ele>83.66666666666667</ele><time>2026-05-06T12:48:07.029Z</time></trkpt><trkpt lat="37.5147817" lon="14.7648167"><ele>83.33333333333334</ele><time>2026-05-06T12:48:08.029Z</time></trkpt><trkpt lat="37.5146883" lon="14.7650283"><ele>83.0</ele><time>2026-05-06T12:48:09.029Z</time></trkpt><trkpt lat="37.51459" lon="14.7652417"><ele>81.66666666666667</ele><time>2026-05-06T12:48:10.029Z</time></trkpt><trkpt lat="37.5144983" lon="14.7654533"><ele>80.33333333333333</ele><time>2026-05-06T12:48:11.029Z</time></trkpt><trkpt lat="37.5144133" lon="14.7656733"><ele>79.0</ele><time>2026-05-06T12:48:12.029Z</time></trkpt><trkpt lat="37.5143333" lon="14.7658933"><ele>79.0</ele><time>2026-05-06T12:48:13.029Z</time></trkpt><trkpt lat="37.5142533" lon="14.7661217"><ele>79.0</ele><time>2026-05-06T12:48:14.029Z</time></trkpt><trkpt lat="37.5141767" lon="14.766345"><ele>79.0</ele><time>2026-05-06T12:48:15.029Z</time></trkpt><trkpt lat="37.514105" lon="14.766575"><ele>79.0</ele><time>2026-05-06T12:48:16.029Z</time></trkpt><trkpt lat="37.5140283" lon="14.7668067"><ele>79.0</ele><time>2026-05-06T12:48:17.029Z</time></trkpt><trkpt lat="37.51397" lon="14.76705"><ele>79.0</ele><time>2026-05-06T12:48:18.029Z</time></trkpt><trkpt lat="37.5139133" lon="14.7672967"><ele>79.33333333333333</ele><time>2026-05-06T12:48:19.029Z</time></trkpt><trkpt lat="37.5138417" lon="14.767545"><ele>79.66666666666667</ele><time>2026-05-06T12:48:20.029Z</time></trkpt><trkpt lat="37.513775" lon="14.76779"><ele>80.0</ele><time>2026-05-06T12:48:21.029Z</time></trkpt><trkpt lat="37.5137183" lon="14.7680317"><ele>80.0</ele><time>2026-05-06T12:48:22.029Z</time></trkpt><trkpt lat="37.5136683" lon="14.7682833"><ele>80.0</ele><time>2026-05-06T12:48:23.029Z</time></trkpt><trkpt lat="37.5136033" lon="14.7685433"><ele>80.0</ele><time>2026-05-06T12:48:24.029Z</time></trkpt><trkpt lat="37.5135533" lon="14.7687933"><ele>80.0</ele><time>2026-05-06T12:48:25.029Z</time></trkpt><trkpt lat="37.5135017" lon="14.769045"><ele>80.0</ele><time>2026-05-06T12:48:26.029Z</time></trkpt><trkpt lat="37.5134567" lon="14.7692983"><ele>80.0</ele><time>2026-05-06T12:48:27.029Z</time></trkpt><trkpt lat="37.5134017" lon="14.7695533"><ele>80.33333333333334</ele><time>2026-05-06T12:48:28.029Z</time></trkpt><trkpt lat="37.5133533" lon="14.7698017"><ele>80.66666666666667</ele><time>2026-05-06T12:48:29.029Z</time></trkpt><trkpt lat="37.5133033" lon="14.77006"><ele>81.0</ele><time>2026-05-06T12:48:30.029Z</time></trkpt><trkpt lat="37.5132567" lon="14.7703133"><ele>80.0</ele><time>2026-05-06T12:48:31.029Z</time></trkpt><trkpt lat="37.5132117" lon="14.7705583"><ele>79.0</ele><time>2026-05-06T12:48:32.028Z</time></trkpt><trkpt lat="37.5131667" lon="14.770815"><ele>78.0</ele><time>2026-05-06T12:48:33.029Z</time></trkpt><trkpt lat="37.51312" lon="14.77107"><ele>78.0</ele><time>2026-05-06T12:48:34.029Z</time></trkpt><trkpt lat="37.51307" lon="14.7713267"><ele>78.0</ele><time>2026-05-06T12:48:35.029Z</time></trkpt><trkpt lat="37.5130217" lon="14.77158"><ele>78.0</ele><time>2026-05-06T12:48:36.029Z</time></trkpt><trkpt lat="37.5129717" lon="14.7718367"><ele>78.0</ele><time>2026-05-06T12:48:37.029Z</time></trkpt><trkpt lat="37.5129283" lon="14.77209"><ele>78.0</ele><time>2026-05-06T12:48:38.029Z</time></trkpt><trkpt lat="37.5128817" lon="14.7723417"><ele>78.0</ele><time>2026-05-06T12:48:39.029Z</time></trkpt><trkpt lat="37.5128333" lon="14.7725917"><ele>77.66666666666667</ele><time>2026-05-06T12:48:40.029Z</time></trkpt><trkpt lat="37.5127833" lon="14.7728467"><ele>77.33333333333334</ele><time>2026-05-06T12:48:41.029Z</time></trkpt><trkpt lat="37.5127333" lon="14.773095"><ele>77.0</ele><time>2026-05-06T12:48:42.029Z</time></trkpt><trkpt lat="37.5126767" lon="14.7733467"><ele>77.0</ele><time>2026-05-06T12:48:43.029Z</time></trkpt><trkpt lat="37.5126267" lon="14.7735967"><ele>77.0</ele><time>2026-05-06T12:48:44.029Z</time></trkpt><trkpt lat="37.5125867" lon="14.7738467"><ele>77.0</ele><time>2026-05-06T12:48:45.029Z</time></trkpt><trkpt lat="37.512535" lon="14.774095"><ele>77.0</ele><time>2026-05-06T12:48:46.029Z</time></trkpt><trkpt lat="37.5124817" lon="14.7743433"><ele>77.0</ele><time>2026-05-06T12:48:47.029Z</time></trkpt><trkpt lat="37.5124333" lon="14.7746033"><ele>77.0</ele><time>2026-05-06T12:48:48.029Z</time></trkpt><trkpt lat="37.5123667" lon="14.7748533"><ele>77.0</ele><time>2026-05-06T12:48:49.028Z</time></trkpt><trkpt lat="37.5123133" lon="14.775115"><ele>77.0</ele><time>2026-05-06T12:48:50.028Z</time></trkpt><trkpt lat="37.512255" lon="14.7753767"><ele>77.0</ele><time>2026-05-06T12:48:51.029Z</time></trkpt><trkpt lat="37.5121833" lon="14.7756333"><ele>77.0</ele><time>2026-05-06T12:48:52.029Z</time></trkpt><trkpt lat="37.512115" lon="14.7758933"><ele>77.0</ele><time>2026-05-06T12:48:53.029Z</time></trkpt><trkpt lat="37.512045" lon="14.7761517"><ele>77.0</ele><time>2026-05-06T12:48:54.029Z</time></trkpt><trkpt lat="37.5119683" lon="14.7764083"><ele>77.66666666666667</ele><time>2026-05-06T12:48:55.029Z</time></trkpt><trkpt lat="37.5118967" lon="14.7766683"><ele>78.33333333333333</ele><time>2026-05-06T12:48:56.029Z</time></trkpt><trkpt lat="37.5118167" lon="14.7769233"><ele>79.0</ele><time>2026-05-06T12:48:57.029Z</time></trkpt><trkpt lat="37.5117367" lon="14.77717"><ele>79.33333333333333</ele><time>2026-05-06T12:48:58.029Z</time></trkpt><trkpt lat="37.5116567" lon="14.77743"><ele>79.66666666666667</ele><time>2026-05-06T12:48:59.029Z</time></trkpt><trkpt lat="37.5115717" lon="14.7776867"><ele>80.0</ele><time>2026-05-06T12:49:00.029Z</time></trkpt><trkpt lat="37.5114817" lon="14.7779333"><ele>80.66666666666667</ele><time>2026-05-06T12:49:01.029Z</time></trkpt><trkpt lat="37.5113883" lon="14.7781817"><ele>81.33333333333333</ele><time>2026-05-06T12:49:02.029Z</time></trkpt><trkpt lat="37.51129" lon="14.7784283"><ele>82.0</ele><time>2026-05-06T12:49:03.029Z</time></trkpt><trkpt lat="37.5111867" lon="14.7786733"><ele>82.0</ele><time>2026-05-06T12:49:04.029Z</time></trkpt><trkpt lat="37.5110817" lon="14.7789117"><ele>82.0</ele><time>2026-05-06T12:49:05.028Z</time></trkpt><trkpt lat="37.5109683" lon="14.7791517"><ele>82.0</ele><time>2026-05-06T12:49:06.029Z</time></trkpt><trkpt lat="37.5108567" lon="14.7793817"><ele>82.33333333333333</ele><time>2026-05-06T12:49:07.029Z</time></trkpt><trkpt lat="37.510735" lon="14.7796133"><ele>82.66666666666667</ele><time>2026-05-06T12:49:08.029Z</time></trkpt><trkpt lat="37.5106117" lon="14.7798367"><ele>83.0</ele><time>2026-05-06T12:49:09.029Z</time></trkpt><trkpt lat="37.5104933" lon="14.7800583"><ele>83.0</ele><time>2026-05-06T12:49:10.029Z</time></trkpt><trkpt lat="37.5103683" lon="14.7802783"><ele>83.0</ele><time>2026-05-06T12:49:11.029Z</time></trkpt><trkpt lat="37.510245" lon="14.780495"><ele>83.0</ele><time>2026-05-06T12:49:12.029Z</time></trkpt><trkpt lat="37.5101167" lon="14.780715"><ele>83.0</ele><time>2026-05-06T12:49:13.029Z</time></trkpt><trkpt lat="37.50999" lon="14.7809317"><ele>83.0</ele><time>2026-05-06T12:49:14.029Z</time></trkpt><trkpt lat="37.5098617" lon="14.7811483"><ele>83.0</ele><time>2026-05-06T12:49:15.029Z</time></trkpt><trkpt lat="37.50973" lon="14.7813583"><ele>83.33333333333334</ele><time>2026-05-06T12:49:16.029Z</time></trkpt><trkpt lat="37.5096033" lon="14.7815683"><ele>83.66666666666667</ele><time>2026-05-06T12:49:17.029Z</time></trkpt><trkpt lat="37.5094717" lon="14.78178"><ele>84.0</ele><time>2026-05-06T12:49:18.029Z</time></trkpt><trkpt lat="37.5093367" lon="14.7819883"><ele>84.0</ele><time>2026-05-06T12:49:19.029Z</time></trkpt><trkpt lat="37.509205" lon="14.7821967"><ele>84.0</ele><time>2026-05-06T12:49:20.029Z</time></trkpt><trkpt lat="37.5090767" lon="14.7824"><ele>84.0</ele><time>2026-05-06T12:49:21.029Z</time></trkpt><trkpt lat="37.508945" lon="14.7826017"><ele>84.0</ele><time>2026-05-06T12:49:22.028Z</time></trkpt><trkpt lat="37.5088183" lon="14.7828133"><ele>84.0</ele><time>2026-05-06T12:49:23.028Z</time></trkpt><trkpt lat="37.5086933" lon="14.7830217"><ele>84.0</ele><time>2026-05-06T12:49:24.029Z</time></trkpt><trkpt lat="37.508565" lon="14.7832267"><ele>84.0</ele><time>2026-05-06T12:49:25.029Z</time></trkpt><trkpt lat="37.5084417" lon="14.7834283"><ele>84.0</ele><time>2026-05-06T12:49:26.029Z</time></trkpt><trkpt lat="37.508315" lon="14.783625"><ele>84.0</ele><time>2026-05-06T12:49:27.029Z</time></trkpt><trkpt lat="37.508195" lon="14.7838267"><ele>84.33333333333333</ele><time>2026-05-06T12:49:28.029Z</time></trkpt><trkpt lat="37.5080733" lon="14.78402"><ele>84.66666666666666</ele><time>2026-05-06T12:49:29.029Z</time></trkpt><trkpt lat="37.507955" lon="14.784215"><ele>85.0</ele><time>2026-05-06T12:49:30.029Z</time></trkpt><trkpt lat="37.5078383" lon="14.784415"><ele>85.0</ele><time>2026-05-06T12:49:31.028Z</time></trkpt><trkpt lat="37.5077233" lon="14.78462"><ele>85.0</ele><time>2026-05-06T12:49:32.029Z</time></trkpt><trkpt lat="37.5076083" lon="14.7848217"><ele>85.0</ele><time>2026-05-06T12:49:33.029Z</time></trkpt><trkpt lat="37.5074933" lon="14.7850333"><ele>86.33333333333333</ele><time>2026-05-06T12:49:34.029Z</time></trkpt><trkpt lat="37.507385" lon="14.78524"><ele>87.66666666666667</ele><time>2026-05-06T12:49:35.028Z</time></trkpt><trkpt lat="37.507275" lon="14.785455"><ele>89.0</ele><time>2026-05-06T12:49:36.029Z</time></trkpt><trkpt lat="37.50717" lon="14.7856717"><ele>87.66666666666667</ele><time>2026-05-06T12:49:37.029Z</time></trkpt><trkpt lat="37.507065" lon="14.7858883"><ele>86.33333333333333</ele><time>2026-05-06T12:49:38.029Z</time></trkpt><trkpt lat="37.5069667" lon="14.7860983"><ele>85.0</ele><time>2026-05-06T12:49:39.029Z</time></trkpt><trkpt lat="37.5068667" lon="14.7863117"><ele>84.33333333333333</ele><time>2026-05-06T12:49:40.029Z</time></trkpt><trkpt lat="37.5067717" lon="14.7865283"><ele>83.66666666666667</ele><time>2026-05-06T12:49:41.029Z</time></trkpt><trkpt lat="37.5066783" lon="14.7867467"><ele>83.0</ele><time>2026-05-06T12:49:42.029Z</time></trkpt><trkpt lat="37.5065867" lon="14.7869717"><ele>82.33333333333334</ele><time>2026-05-06T12:49:43.029Z</time></trkpt><trkpt lat="37.506495" lon="14.7871983"><ele>81.66666666666667</ele><time>2026-05-06T12:49:44.028Z</time></trkpt><trkpt lat="37.506405" lon="14.7874167"><ele>81.0</ele><time>2026-05-06T12:49:45.029Z</time></trkpt><trkpt lat="37.5063233" lon="14.78764"><ele>80.0</ele><time>2026-05-06T12:49:46.029Z</time></trkpt><trkpt lat="37.5062367" lon="14.787865"><ele>79.0</ele><time>2026-05-06T12:49:47.029Z</time></trkpt><trkpt lat="37.5061567" lon="14.7880917"><ele>78.0</ele><time>2026-05-06T12:49:48.028Z</time></trkpt><trkpt lat="37.5060767" lon="14.7883267"><ele>78.0</ele><time>2026-05-06T12:49:49.029Z</time></trkpt><trkpt lat="37.506" lon="14.788565"><ele>78.0</ele><time>2026-05-06T12:49:50.029Z</time></trkpt><trkpt lat="37.50592" lon="14.7888133"><ele>78.0</ele><time>2026-05-06T12:49:51.029Z</time></trkpt><trkpt lat="37.505845" lon="14.789075"><ele>78.0</ele><time>2026-05-06T12:49:52.029Z</time></trkpt><trkpt lat="37.5057617" lon="14.7893417"><ele>78.0</ele><time>2026-05-06T12:49:53.029Z</time></trkpt><trkpt lat="37.50568" lon="14.78962"><ele>79.5</ele><time>2026-05-06T12:49:54.029Z</time></trkpt><trkpt lat="37.5055933" lon="14.789905"><ele>81.0</ele><time>2026-05-06T12:49:55.029Z</time></trkpt><trkpt lat="37.5055067" lon="14.7901933"><ele>82.0</ele><time>2026-05-06T12:49:56.029Z</time></trkpt><trkpt lat="37.5054117" lon="14.79049"><ele>83.0</ele><time>2026-05-06T12:49:57.029Z</time></trkpt><trkpt lat="37.505325" lon="14.790795"><ele>83.5</ele><time>2026-05-06T12:49:58.029Z</time></trkpt><trkpt lat="37.5052383" lon="14.7911017"><ele>84.0</ele><time>2026-05-06T12:49:59.029Z</time></trkpt><trkpt lat="37.5051383" lon="14.7914183"><ele>84.0</ele><time>2026-05-06T12:50:00.029Z</time></trkpt><trkpt lat="37.505045" lon="14.79173"><ele>84.0</ele><time>2026-05-06T12:50:01.029Z</time></trkpt><trkpt lat="37.50495" lon="14.792035"><ele>86.5</ele><time>2026-05-06T12:50:02.029Z</time></trkpt><trkpt lat="37.504855" lon="14.7923383"><ele>89.0</ele><time>2026-05-06T12:50:03.029Z</time></trkpt><trkpt lat="37.504765" lon="14.792635"><ele>88.0</ele><time>2026-05-06T12:50:04.029Z</time></trkpt><trkpt lat="37.504675" lon="14.7929133"><ele>87.0</ele><time>2026-05-06T12:50:05.029Z</time></trkpt><trkpt lat="37.5045933" lon="14.79319"><ele>86.0</ele><time>2026-05-06T12:50:06.029Z</time></trkpt><trkpt lat="37.5045083" lon="14.793455"><ele>85.0</ele><time>2026-05-06T12:50:07.029Z</time></trkpt><trkpt lat="37.5044317" lon="14.7937167"><ele>84.0</ele><time>2026-05-06T12:50:08.028Z</time></trkpt><trkpt lat="37.504345" lon="14.79397"><ele>83.5</ele><time>2026-05-06T12:50:09.029Z</time></trkpt><trkpt lat="37.50427" lon="14.7942417"><ele>83.0</ele><time>2026-05-06T12:50:10.029Z</time></trkpt><trkpt lat="37.5041883" lon="14.7945217"><ele>84.5</ele><time>2026-05-06T12:50:11.029Z</time></trkpt><trkpt lat="37.5041083" lon="14.7948017"><ele>86.0</ele><time>2026-05-06T12:50:12.029Z</time></trkpt><trkpt lat="37.5040267" lon="14.79508"><ele>86.0</ele><time>2026-05-06T12:50:13.029Z</time></trkpt><trkpt lat="37.50394" lon="14.795355"><ele>86.0</ele><time>2026-05-06T12:50:14.029Z</time></trkpt><trkpt lat="37.5038533" lon="14.79563"><ele>86.0</ele><time>2026-05-06T12:50:15.029Z</time></trkpt><trkpt lat="37.5037633" lon="14.7959083"><ele>86.0</ele><time>2026-05-06T12:50:16.029Z</time></trkpt><trkpt lat="37.503675" lon="14.796185"><ele>85.5</ele><time>2026-05-06T12:50:17.028Z</time></trkpt><trkpt lat="37.5035867" lon="14.7964683"><ele>85.0</ele><time>2026-05-06T12:50:18.029Z</time></trkpt><trkpt lat="37.5034983" lon="14.7967517"><ele>85.0</ele><time>2026-05-06T12:50:19.029Z</time></trkpt><trkpt lat="37.5034117" lon="14.7970283"><ele>85.0</ele><time>2026-05-06T12:50:20.029Z</time></trkpt><trkpt lat="37.5033267" lon="14.797305"><ele>85.0</ele><time>2026-05-06T12:50:21.029Z</time></trkpt><trkpt lat="37.50324" lon="14.7975833"><ele>85.0</ele><time>2026-05-06T12:50:22.029Z</time></trkpt><trkpt lat="37.5031533" lon="14.7978583"><ele>85.5</ele><time>2026-05-06T12:50:23.029Z</time></trkpt><trkpt lat="37.5030667" lon="14.7981417"><ele>86.0</ele><time>2026-05-06T12:50:24.029Z</time></trkpt><trkpt lat="37.5029783" lon="14.7984183"><ele>84.5</ele><time>2026-05-06T12:50:25.029Z</time></trkpt><trkpt lat="37.5028917" lon="14.798695"><ele>83.0</ele><time>2026-05-06T12:50:26.029Z</time></trkpt><trkpt lat="37.50281" lon="14.7989733"><ele>83.0</ele><time>2026-05-06T12:50:27.029Z</time></trkpt><trkpt lat="37.5027217" lon="14.7992517"><ele>83.0</ele><time>2026-05-06T12:50:28.029Z</time></trkpt><trkpt lat="37.5026283" lon="14.7995317"><ele>83.5</ele><time>2026-05-06T12:50:29.028Z</time></trkpt><trkpt lat="37.5025383" lon="14.7998083"><ele>84.0</ele><time>2026-05-06T12:50:30.029Z</time></trkpt><trkpt lat="37.502445" lon="14.8000867"><ele>84.0</ele><time>2026-05-06T12:50:31.029Z</time></trkpt><trkpt lat="37.5023467" lon="14.80036"><ele>84.0</ele><time>2026-05-06T12:50:32.029Z</time></trkpt><trkpt lat="37.5022483" lon="14.8006283"><ele>84.0</ele><time>2026-05-06T12:50:33.029Z</time></trkpt><trkpt lat="37.5021433" lon="14.800895"><ele>84.0</ele><time>2026-05-06T12:50:34.029Z</time></trkpt><trkpt lat="37.5020283" lon="14.801165"><ele>83.5</ele><time>2026-05-06T12:50:35.029Z</time></trkpt><trkpt lat="37.5019183" lon="14.8014283"><ele>83.0</ele><time>2026-05-06T12:50:36.029Z</time></trkpt><trkpt lat="37.5018017" lon="14.80169"><ele>82.5</ele><time>2026-05-06T12:50:37.029Z</time></trkpt><trkpt lat="37.501685" lon="14.801955"><ele>82.0</ele><time>2026-05-06T12:50:38.029Z</time></trkpt><trkpt lat="37.5015567" lon="14.802205"><ele>82.0</ele><time>2026-05-06T12:50:39.029Z</time></trkpt><trkpt lat="37.5014233" lon="14.8024533"><ele>82.0</ele><time>2026-05-06T12:50:40.029Z</time></trkpt><trkpt lat="37.50128" lon="14.8026867"><ele>81.5</ele><time>2026-05-06T12:50:41.029Z</time></trkpt><trkpt lat="37.5011283" lon="14.8029233"><ele>81.0</ele><time>2026-05-06T12:50:42.029Z</time></trkpt><trkpt lat="37.500975" lon="14.80315"><ele>81.0</ele><time>2026-05-06T12:50:43.029Z</time></trkpt><trkpt lat="37.50082" lon="14.803375"><ele>81.0</ele><time>2026-05-06T12:50:44.029Z</time></trkpt><trkpt lat="37.50066" lon="14.8036017"><ele>80.5</ele><time>2026-05-06T12:50:45.029Z</time></trkpt><trkpt lat="37.500505" lon="14.8038183"><ele>80.0</ele><time>2026-05-06T12:50:46.029Z</time></trkpt><trkpt lat="37.50034" lon="14.8040383"><ele>80.0</ele><time>2026-05-06T12:50:47.029Z</time></trkpt><trkpt lat="37.5001733" lon="14.8042533"><ele>80.0</ele><time>2026-05-06T12:50:48.029Z</time></trkpt><trkpt lat="37.50001" lon="14.8044683"><ele>81.0</ele><time>2026-05-06T12:50:49.029Z</time></trkpt><trkpt lat="37.4998433" lon="14.8046833"><ele>82.0</ele><time>2026-05-06T12:50:50.028Z</time></trkpt><trkpt lat="37.499675" lon="14.8049"><ele>80.0</ele><time>2026-05-06T12:50:51.029Z</time></trkpt><trkpt lat="37.4995117" lon="14.8051083"><ele>78.0</ele><time>2026-05-06T12:50:52.029Z</time></trkpt><trkpt lat="37.499345" lon="14.80532"><ele>78.0</ele><time>2026-05-06T12:50:53.029Z</time></trkpt><trkpt lat="37.4991783" lon="14.8055383"><ele>78.0</ele><time>2026-05-06T12:50:54.029Z</time></trkpt><trkpt lat="37.4990083" lon="14.8057617"><ele>78.0</ele><time>2026-05-06T12:50:55.029Z</time></trkpt><trkpt lat="37.498845" lon="14.8059817"><ele>78.0</ele><time>2026-05-06T12:50:56.029Z</time></trkpt><trkpt lat="37.4986833" lon="14.8062017"><ele>77.5</ele><time>2026-05-06T12:50:57.029Z</time></trkpt><trkpt lat="37.49852" lon="14.8064217"><ele>77.0</ele><time>2026-05-06T12:50:58.029Z</time></trkpt><trkpt lat="37.4983617" lon="14.8066483"><ele>77.5</ele><time>2026-05-06T12:50:59.028Z</time></trkpt><trkpt lat="37.4982017" lon="14.8068767"><ele>78.0</ele><time>2026-05-06T12:51:00.029Z</time></trkpt><trkpt lat="37.4980483" lon="14.8071033"><ele>77.5</ele><time>2026-05-06T12:51:01.029Z</time></trkpt><trkpt lat="37.497895" lon="14.807335"><ele>77.0</ele><time>2026-05-06T12:51:02.029Z</time></trkpt><trkpt lat="37.49775" lon="14.8075667"><ele>77.5</ele><time>2026-05-06T12:51:03.029Z</time></trkpt><trkpt lat="37.4976033" lon="14.8078017"><ele>78.0</ele><time>2026-05-06T12:51:04.029Z</time></trkpt><trkpt lat="37.4974533" lon="14.8080433"><ele>78.0</ele><time>2026-05-06T12:51:05.029Z</time></trkpt><trkpt lat="37.4973167" lon="14.80829"><ele>78.0</ele><time>2026-05-06T12:51:06.029Z</time></trkpt><trkpt lat="37.4971833" lon="14.8085417"><ele>76.0</ele><time>2026-05-06T12:51:07.029Z</time></trkpt><trkpt lat="37.49705" lon="14.8087917"><ele>74.0</ele><time>2026-05-06T12:51:08.029Z</time></trkpt><trkpt lat="37.4969183" lon="14.8090467"><ele>74.0</ele><time>2026-05-06T12:51:09.029Z</time></trkpt><trkpt lat="37.4967967" lon="14.8093"><ele>74.0</ele><time>2026-05-06T12:51:10.029Z</time></trkpt><trkpt lat="37.4966733" lon="14.8095617"><ele>75.5</ele><time>2026-05-06T12:51:11.029Z</time></trkpt><trkpt lat="37.4965533" lon="14.8098233"><ele>77.0</ele><time>2026-05-06T12:51:12.029Z</time></trkpt><trkpt lat="37.496435" lon="14.8100833"><ele>76.5</ele><time>2026-05-06T12:51:13.029Z</time></trkpt><trkpt lat="37.4963217" lon="14.8103467"><ele>76.0</ele><time>2026-05-06T12:51:14.029Z</time></trkpt><trkpt lat="37.49621" lon="14.8106083"><ele>74.0</ele><time>2026-05-06T12:51:15.029Z</time></trkpt><trkpt lat="37.4961017" lon="14.8108683"><ele>72.0</ele><time>2026-05-06T12:51:16.029Z</time></trkpt><trkpt lat="37.4959967" lon="14.8111383"><ele>71.0</ele><time>2026-05-06T12:51:17.029Z</time></trkpt><trkpt lat="37.4958933" lon="14.8114083"><ele>70.0</ele><time>2026-05-06T12:51:18.029Z</time></trkpt><trkpt lat="37.495795" lon="14.8116833"><ele>68.0</ele><time>2026-05-06T12:51:19.029Z</time></trkpt><trkpt lat="37.4957033" lon="14.8119533"><ele>66.0</ele><time>2026-05-06T12:51:20.029Z</time></trkpt><trkpt lat="37.49561" lon="14.812225"><ele>66.0</ele><time>2026-05-06T12:51:21.029Z</time></trkpt><trkpt lat="37.4955067" lon="14.8125033"><ele>66.0</ele><time>2026-05-06T12:51:22.029Z</time></trkpt><trkpt lat="37.495415" lon="14.8127817"><ele>68.5</ele><time>2026-05-06T12:51:23.029Z</time></trkpt><trkpt lat="37.495325" lon="14.8130583"><ele>71.0</ele><time>2026-05-06T12:51:24.029Z</time></trkpt><trkpt lat="37.4952383" lon="14.8133417"><ele>73.0</ele><time>2026-05-06T12:51:25.029Z</time></trkpt><trkpt lat="37.4951467" lon="14.8136167"><ele>75.0</ele><time>2026-05-06T12:51:26.029Z</time></trkpt><trkpt lat="37.4950533" lon="14.8138917"><ele>75.0</ele><time>2026-05-06T12:51:27.029Z</time></trkpt><trkpt lat="37.4949633" lon="14.8141717"><ele>75.0</ele><time>2026-05-06T12:51:28.029Z</time></trkpt><trkpt lat="37.4948733" lon="14.8144517"><ele>75.5</ele><time>2026-05-06T12:51:29.029Z</time></trkpt><trkpt lat="37.494785" lon="14.81473"><ele>76.0</ele><time>2026-05-06T12:51:30.029Z</time></trkpt><trkpt lat="37.4946933" lon="14.81501"><ele>76.0</ele><time>2026-05-06T12:51:31.029Z</time></trkpt><trkpt lat="37.4946017" lon="14.81529"><ele>76.0</ele><time>2026-05-06T12:51:32.029Z</time></trkpt><trkpt lat="37.4945083" lon="14.8155633"><ele>75.5</ele><time>2026-05-06T12:51:33.029Z</time></trkpt><trkpt lat="37.4944233" lon="14.8158383"><ele>75.0</ele><time>2026-05-06T12:51:34.029Z</time></trkpt><trkpt lat="37.49433" lon="14.8161167"><ele>74.5</ele><time>2026-05-06T12:51:35.029Z</time></trkpt><trkpt lat="37.4942417" lon="14.816385"><ele>74.0</ele><time>2026-05-06T12:51:36.029Z</time></trkpt><trkpt lat="37.4941533" lon="14.81666"><ele>74.5</ele><time>2026-05-06T12:51:37.029Z</time></trkpt><trkpt lat="37.494055" lon="14.81694"><ele>75.0</ele><time>2026-05-06T12:51:38.029Z</time></trkpt><trkpt lat="37.49396" lon="14.81721"><ele>75.0</ele><time>2026-05-06T12:51:39.029Z</time></trkpt><trkpt lat="37.4938733" lon="14.8174917"><ele>75.0</ele><time>2026-05-06T12:51:40.029Z</time></trkpt><trkpt lat="37.4937833" lon="14.8177717"><ele>74.5</ele><time>2026-05-06T12:51:41.029Z</time></trkpt><trkpt lat="37.4936867" lon="14.8180433"><ele>74.0</ele><time>2026-05-06T12:51:42.029Z</time></trkpt><trkpt lat="37.4936" lon="14.81832"><ele>73.5</ele><time>2026-05-06T12:51:43.029Z</time></trkpt><trkpt lat="37.4935067" lon="14.8185983"><ele>73.0</ele><time>2026-05-06T12:51:44.029Z</time></trkpt><trkpt lat="37.4934183" lon="14.81887"><ele>73.0</ele><time>2026-05-06T12:51:45.029Z</time></trkpt><trkpt lat="37.4933217" lon="14.819145"><ele>73.0</ele><time>2026-05-06T12:51:46.029Z</time></trkpt><trkpt lat="37.4932333" lon="14.8194233"><ele>73.0</ele><time>2026-05-06T12:51:47.029Z</time></trkpt><trkpt lat="37.493145" lon="14.8197"><ele>73.0</ele><time>2026-05-06T12:51:48.029Z</time></trkpt><trkpt lat="37.4930567" lon="14.8199817"><ele>73.5</ele><time>2026-05-06T12:51:49.029Z</time></trkpt><trkpt lat="37.4929667" lon="14.8202583"><ele>74.0</ele><time>2026-05-06T12:51:50.029Z</time></trkpt><trkpt lat="37.4928733" lon="14.8205383"><ele>73.5</ele><time>2026-05-06T12:51:51.029Z</time></trkpt><trkpt lat="37.4927867" lon="14.820815"><ele>73.0</ele><time>2026-05-06T12:51:52.029Z</time></trkpt><trkpt lat="37.4926933" lon="14.82109"><ele>73.0</ele><time>2026-05-06T12:51:53.029Z</time></trkpt><trkpt lat="37.4926" lon="14.8213667"><ele>73.0</ele><time>2026-05-06T12:51:54.029Z</time></trkpt><trkpt lat="37.4925083" lon="14.8216433"><ele>73.0</ele><time>2026-05-06T12:51:55.028Z</time></trkpt><trkpt lat="37.4924183" lon="14.8219183"><ele>73.0</ele><time>2026-05-06T12:51:56.029Z</time></trkpt><trkpt lat="37.4923233" lon="14.822195"><ele>73.0</ele><time>2026-05-06T12:51:57.029Z</time></trkpt><trkpt lat="37.492235" lon="14.822465"><ele>73.0</ele><time>2026-05-06T12:51:58.029Z</time></trkpt><trkpt lat="37.4921417" lon="14.822745"><ele>72.0</ele><time>2026-05-06T12:51:59.029Z</time></trkpt><trkpt lat="37.49205" lon="14.82302"><ele>71.0</ele><time>2026-05-06T12:52:00.029Z</time></trkpt><trkpt lat="37.4919567" lon="14.8232983"><ele>71.0</ele><time>2026-05-06T12:52:01.029Z</time></trkpt><trkpt lat="37.4918667" lon="14.8235733"><ele>71.0</ele><time>2026-05-06T12:52:02.029Z</time></trkpt><trkpt lat="37.49177" lon="14.8238517"><ele>71.0</ele><time>2026-05-06T12:52:03.028Z</time></trkpt><trkpt lat="37.4916767" lon="14.8241283"><ele>71.0</ele><time>2026-05-06T12:52:04.029Z</time></trkpt><trkpt lat="37.49159" lon="14.8244033"><ele>71.0</ele><time>2026-05-06T12:52:05.029Z</time></trkpt><trkpt lat="37.491495" lon="14.8246833"><ele>71.0</ele><time>2026-05-06T12:52:06.029Z</time></trkpt><trkpt lat="37.491405" lon="14.8249617"><ele>71.0</ele><time>2026-05-06T12:52:07.029Z</time></trkpt><trkpt lat="37.491315" lon="14.8252383"><ele>71.0</ele><time>2026-05-06T12:52:08.029Z</time></trkpt><trkpt lat="37.4912217" lon="14.82551"><ele>70.5</ele><time>2026-05-06T12:52:09.028Z</time></trkpt><trkpt lat="37.491135" lon="14.8257833"><ele>70.0</ele><time>2026-05-06T12:52:10.029Z</time></trkpt><trkpt lat="37.49104" lon="14.8260567"><ele>69.0</ele><time>2026-05-06T12:52:11.029Z</time></trkpt><trkpt lat="37.4909517" lon="14.8263367"><ele>68.0</ele><time>2026-05-06T12:52:12.029Z</time></trkpt><trkpt lat="37.4908567" lon="14.82662"><ele>67.5</ele><time>2026-05-06T12:52:13.029Z</time></trkpt><trkpt lat="37.490765" lon="14.8268983"><ele>67.0</ele><time>2026-05-06T12:52:14.029Z</time></trkpt><trkpt lat="37.49067" lon="14.8271767"><ele>67.0</ele><time>2026-05-06T12:52:15.029Z</time></trkpt><trkpt lat="37.4905733" lon="14.82746"><ele>67.0</ele><time>2026-05-06T12:52:16.029Z</time></trkpt><trkpt lat="37.4904833" lon="14.8277383"><ele>67.0</ele><time>2026-05-06T12:52:17.029Z</time></trkpt><trkpt lat="37.4903917" lon="14.8280133"><ele>67.0</ele><time>2026-05-06T12:52:18.029Z</time></trkpt><trkpt lat="37.4903017" lon="14.8282867"><ele>67.5</ele><time>2026-05-06T12:52:19.029Z</time></trkpt><trkpt lat="37.4902083" lon="14.8285633"><ele>68.0</ele><time>2026-05-06T12:52:20.028Z</time></trkpt><trkpt lat="37.490115" lon="14.8288383"><ele>68.0</ele><time>2026-05-06T12:52:21.029Z</time></trkpt><trkpt lat="37.4900233" lon="14.8291167"><ele>68.0</ele><time>2026-05-06T12:52:22.029Z</time></trkpt><trkpt lat="37.489935" lon="14.8293917"><ele>68.5</ele><time>2026-05-06T12:52:23.029Z</time></trkpt><trkpt lat="37.489845" lon="14.8296667"><ele>69.0</ele><time>2026-05-06T12:52:24.029Z</time></trkpt><trkpt lat="37.4897533" lon="14.8299467"><ele>69.0</ele><time>2026-05-06T12:52:25.029Z</time></trkpt><trkpt lat="37.4896633" lon="14.8302217"><ele>69.0</ele><time>2026-05-06T12:52:26.029Z</time></trkpt><trkpt lat="37.4895667" lon="14.8304967"><ele>69.0</ele><time>2026-05-06T12:52:27.029Z</time></trkpt><trkpt lat="37.4894667" lon="14.8307667"><ele>69.0</ele><time>2026-05-06T12:52:28.029Z</time></trkpt><trkpt lat="37.4893733" lon="14.831045"><ele>69.0</ele><time>2026-05-06T12:52:29.029Z</time></trkpt><trkpt lat="37.48928" lon="14.8313217"><ele>69.0</ele><time>2026-05-06T12:52:30.029Z</time></trkpt><trkpt lat="37.4891833" lon="14.8316017"><ele>69.0</ele><time>2026-05-06T12:52:31.029Z</time></trkpt><trkpt lat="37.4890833" lon="14.83187"><ele>69.0</ele><time>2026-05-06T12:52:32.029Z</time></trkpt><trkpt lat="37.4889783" lon="14.8321417"><ele>69.0</ele><time>2026-05-06T12:52:33.028Z</time></trkpt><trkpt lat="37.4888667" lon="14.8324083"><ele>69.0</ele><time>2026-05-06T12:52:34.029Z</time></trkpt><trkpt lat="37.48876" lon="14.8326717"><ele>68.0</ele><time>2026-05-06T12:52:35.029Z</time></trkpt><trkpt lat="37.48865" lon="14.8329367"><ele>67.0</ele><time>2026-05-06T12:52:36.029Z</time></trkpt><trkpt lat="37.4885383" lon="14.8332083"><ele>68.0</ele><time>2026-05-06T12:52:37.029Z</time></trkpt><trkpt lat="37.4884233" lon="14.8334733"><ele>69.0</ele><time>2026-05-06T12:52:38.029Z</time></trkpt><trkpt lat="37.4883117" lon="14.833735"><ele>69.0</ele><time>2026-05-06T12:52:39.029Z</time></trkpt><trkpt lat="37.4881933" lon="14.8339867"><ele>69.0</ele><time>2026-05-06T12:52:40.029Z</time></trkpt><trkpt lat="37.488075" lon="14.8342433"><ele>68.5</ele><time>2026-05-06T12:52:41.029Z</time></trkpt><trkpt lat="37.4879467" lon="14.8344967"><ele>68.0</ele><time>2026-05-06T12:52:42.029Z</time></trkpt><trkpt lat="37.4878183" lon="14.834745"><ele>68.0</ele><time>2026-05-06T12:52:43.029Z</time></trkpt><trkpt lat="37.48769" lon="14.8350017"><ele>68.0</ele><time>2026-05-06T12:52:44.029Z</time></trkpt><trkpt lat="37.4875583" lon="14.835255"><ele>68.0</ele><time>2026-05-06T12:52:45.029Z</time></trkpt><trkpt lat="37.487425" lon="14.8355067"><ele>68.0</ele><time>2026-05-06T12:52:46.029Z</time></trkpt><trkpt lat="37.48729" lon="14.835755"><ele>68.0</ele><time>2026-05-06T12:52:47.028Z</time></trkpt><trkpt lat="37.4871533" lon="14.8360017"><ele>68.0</ele><time>2026-05-06T12:52:48.028Z</time></trkpt><trkpt lat="37.487015" lon="14.83625"><ele>67.5</ele><time>2026-05-06T12:52:49.028Z</time></trkpt><trkpt lat="37.4868633" lon="14.8365017"><ele>67.0</ele><time>2026-05-06T12:52:50.027Z</time></trkpt><trkpt lat="37.4867117" lon="14.836755"><ele>66.5</ele><time>2026-05-06T12:52:51.027Z</time></trkpt><trkpt lat="37.4865633" lon="14.8370033"><ele>66.0</ele><time>2026-05-06T12:52:52.028Z</time></trkpt><trkpt lat="37.486405" lon="14.837255"><ele>66.5</ele><time>2026-05-06T12:52:53.028Z</time></trkpt><trkpt lat="37.4862483" lon="14.8375033"><ele>67.0</ele><time>2026-05-06T12:52:54.028Z</time></trkpt><trkpt lat="37.4860817" lon="14.8377533"><ele>67.0</ele><time>2026-05-06T12:52:55.028Z</time></trkpt><trkpt lat="37.485915" lon="14.8379883"><ele>67.0</ele><time>2026-05-06T12:52:56.028Z</time></trkpt><trkpt lat="37.48574" lon="14.838225"><ele>67.0</ele><time>2026-05-06T12:52:57.028Z</time></trkpt><trkpt lat="37.4855683" lon="14.8384583"><ele>67.0</ele><time>2026-05-06T12:52:58.028Z</time></trkpt><trkpt lat="37.485395" lon="14.838695"><ele>67.0</ele><time>2026-05-06T12:52:59.028Z</time></trkpt><trkpt lat="37.4852167" lon="14.8389267"><ele>67.0</ele><time>2026-05-06T12:53:00.028Z</time></trkpt><trkpt lat="37.4850367" lon="14.8391517"><ele>66.0</ele><time>2026-05-06T12:53:01.028Z</time></trkpt><trkpt lat="37.4848567" lon="14.839375"><ele>65.0</ele><time>2026-05-06T12:53:02.028Z</time></trkpt><trkpt lat="37.4846683" lon="14.8395967"><ele>65.0</ele><time>2026-05-06T12:53:03.028Z</time></trkpt><trkpt lat="37.4844817" lon="14.839815"><ele>65.0</ele><time>2026-05-06T12:53:04.028Z</time></trkpt><trkpt lat="37.4842917" lon="14.840035"><ele>65.5</ele><time>2026-05-06T12:53:05.028Z</time></trkpt><trkpt lat="37.4841033" lon="14.8402533"><ele>66.0</ele><time>2026-05-06T12:53:06.028Z</time></trkpt><trkpt lat="37.4839183" lon="14.8404683"><ele>66.0</ele><time>2026-05-06T12:53:07.028Z</time></trkpt><trkpt lat="37.48373" lon="14.84069"><ele>66.0</ele><time>2026-05-06T12:53:08.028Z</time></trkpt><trkpt lat="37.4835417" lon="14.84091"><ele>65.5</ele><time>2026-05-06T12:53:09.028Z</time></trkpt><trkpt lat="37.4833533" lon="14.8411267"><ele>65.0</ele><time>2026-05-06T12:53:10.028Z</time></trkpt><trkpt lat="37.4831617" lon="14.841345"><ele>65.0</ele><time>2026-05-06T12:53:11.028Z</time></trkpt><trkpt lat="37.4829733" lon="14.84156"><ele>65.0</ele><time>2026-05-06T12:53:12.027Z</time></trkpt><trkpt lat="37.4827817" lon="14.841775"><ele>64.5</ele><time>2026-05-06T12:53:13.028Z</time></trkpt><trkpt lat="37.482595" lon="14.8419917"><ele>64.0</ele><time>2026-05-06T12:53:14.028Z</time></trkpt><trkpt lat="37.4824033" lon="14.8422117"><ele>64.0</ele><time>2026-05-06T12:53:15.028Z</time></trkpt><trkpt lat="37.482215" lon="14.84243"><ele>64.0</ele><time>2026-05-06T12:53:16.028Z</time></trkpt><trkpt lat="37.4820317" lon="14.84264"><ele>63.0</ele><time>2026-05-06T12:53:17.028Z</time></trkpt><trkpt lat="37.4818467" lon="14.84285"><ele>62.0</ele><time>2026-05-06T12:53:18.028Z</time></trkpt><trkpt lat="37.481655" lon="14.8430633"><ele>62.0</ele><time>2026-05-06T12:53:19.028Z</time></trkpt><trkpt lat="37.48147" lon="14.8432783"><ele>62.0</ele><time>2026-05-06T12:53:20.028Z</time></trkpt><trkpt lat="37.4812867" lon="14.8434933"><ele>62.5</ele><time>2026-05-06T12:53:21.028Z</time></trkpt><trkpt lat="37.481105" lon="14.8437017"><ele>63.0</ele><time>2026-05-06T12:53:22.028Z</time></trkpt><trkpt lat="37.48092" lon="14.8439083"><ele>63.0</ele><time>2026-05-06T12:53:23.028Z</time></trkpt><trkpt lat="37.48074" lon="14.8441183"><ele>63.0</ele><time>2026-05-06T12:53:24.028Z</time></trkpt><trkpt lat="37.4805517" lon="14.8443317"><ele>63.5</ele><time>2026-05-06T12:53:25.028Z</time></trkpt><trkpt lat="37.4803667" lon="14.8445417"><ele>64.0</ele><time>2026-05-06T12:53:26.027Z</time></trkpt><trkpt lat="37.4801833" lon="14.844755"><ele>64.0</ele><time>2026-05-06T12:53:27.027Z</time></trkpt><trkpt lat="37.479995" lon="14.8449633"><ele>64.0</ele><time>2026-05-06T12:53:28.028Z</time></trkpt><trkpt lat="37.47981" lon="14.8451833"><ele>64.0</ele><time>2026-05-06T12:53:29.028Z</time></trkpt><trkpt lat="37.479625" lon="14.8453967"><ele>64.0</ele><time>2026-05-06T12:53:30.028Z</time></trkpt><trkpt lat="37.4794383" lon="14.8456117"><ele>64.0</ele><time>2026-05-06T12:53:31.027Z</time></trkpt><trkpt lat="37.47925" lon="14.84583"><ele>64.0</ele><time>2026-05-06T12:53:32.028Z</time></trkpt><trkpt lat="37.4790683" lon="14.84604"><ele>64.0</ele><time>2026-05-06T12:53:33.028Z</time></trkpt><trkpt lat="37.4788833" lon="14.84625"><ele>64.0</ele><time>2026-05-06T12:53:34.028Z</time></trkpt><trkpt lat="37.4786967" lon="14.8464617"><ele>64.0</ele><time>2026-05-06T12:53:35.028Z</time></trkpt><trkpt lat="37.4785117" lon="14.8466767"><ele>64.0</ele><time>2026-05-06T12:53:36.028Z</time></trkpt><trkpt lat="37.47833" lon="14.8468867"><ele>63.5</ele><time>2026-05-06T12:53:37.028Z</time></trkpt><trkpt lat="37.478145" lon="14.8471033"><ele>63.0</ele><time>2026-05-06T12:53:38.027Z</time></trkpt><trkpt lat="37.477955" lon="14.8473283"><ele>63.0</ele><time>2026-05-06T12:53:39.028Z</time></trkpt><trkpt lat="37.4777583" lon="14.847555"><ele>63.0</ele><time>2026-05-06T12:53:40.028Z</time></trkpt><trkpt lat="37.4775617" lon="14.84778"><ele>63.0</ele><time>2026-05-06T12:53:41.028Z</time></trkpt><trkpt lat="37.4773583" lon="14.8480167"><ele>63.0</ele><time>2026-05-06T12:53:42.028Z</time></trkpt><trkpt lat="37.4771517" lon="14.8482433"><ele>63.0</ele><time>2026-05-06T12:53:43.028Z</time></trkpt><trkpt lat="37.4769467" lon="14.8484767"><ele>63.0</ele><time>2026-05-06T12:53:44.028Z</time></trkpt><trkpt lat="37.47674" lon="14.8487117"><ele>63.0</ele><time>2026-05-06T12:53:45.028Z</time></trkpt><trkpt lat="37.4765383" lon="14.8489433"><ele>63.0</ele><time>2026-05-06T12:53:46.028Z</time></trkpt><trkpt lat="37.4763333" lon="14.8491717"><ele>64.5</ele><time>2026-05-06T12:53:47.028Z</time></trkpt><trkpt lat="37.47613" lon="14.849405"><ele>66.0</ele><time>2026-05-06T12:53:48.028Z</time></trkpt><trkpt lat="37.475925" lon="14.8496467"><ele>66.0</ele><time>2026-05-06T12:53:49.028Z</time></trkpt><trkpt lat="37.47572" lon="14.84989"><ele>66.0</ele><time>2026-05-06T12:53:50.028Z</time></trkpt><trkpt lat="37.4755133" lon="14.85013"><ele>66.5</ele><time>2026-05-06T12:53:51.028Z</time></trkpt><trkpt lat="37.4753067" lon="14.8503667"><ele>67.0</ele><time>2026-05-06T12:53:52.028Z</time></trkpt><trkpt lat="37.4751117" lon="14.8506067"><ele>67.0</ele><time>2026-05-06T12:53:53.028Z</time></trkpt><trkpt lat="37.4749167" lon="14.8508617"><ele>67.0</ele><time>2026-05-06T12:53:54.028Z</time></trkpt><trkpt lat="37.4747217" lon="14.8511167"><ele>67.0</ele><time>2026-05-06T12:53:55.028Z</time></trkpt><trkpt lat="37.4745283" lon="14.8513733"><ele>67.0</ele><time>2026-05-06T12:53:56.027Z</time></trkpt><trkpt lat="37.4743433" lon="14.8516417"><ele>67.0</ele><time>2026-05-06T12:53:57.027Z</time></trkpt><trkpt lat="37.474165" lon="14.8519083"><ele>67.0</ele><time>2026-05-06T12:53:58.027Z</time></trkpt><trkpt lat="37.47399" lon="14.8521783"><ele>67.0</ele><time>2026-05-06T12:53:59.028Z</time></trkpt><trkpt lat="37.4738217" lon="14.8524583"><ele>67.0</ele><time>2026-05-06T12:54:00.028Z</time></trkpt><trkpt lat="37.4736633" lon="14.8527417"><ele>67.5</ele><time>2026-05-06T12:54:01.028Z</time></trkpt><trkpt lat="37.4735083" lon="14.8530383"><ele>68.0</ele><time>2026-05-06T12:54:02.028Z</time></trkpt><trkpt lat="37.4733633" lon="14.85334"><ele>67.5</ele><time>2026-05-06T12:54:03.028Z</time></trkpt><trkpt lat="37.4732183" lon="14.8536417"><ele>67.0</ele><time>2026-05-06T12:54:04.028Z</time></trkpt><trkpt lat="37.4730767" lon="14.8539467"><ele>67.0</ele><time>2026-05-06T12:54:05.028Z</time></trkpt><trkpt lat="37.472945" lon="14.854255"><ele>67.0</ele><time>2026-05-06T12:54:06.028Z</time></trkpt><trkpt lat="37.4728217" lon="14.85456"><ele>68.0</ele><time>2026-05-06T12:54:07.028Z</time></trkpt><trkpt lat="37.47269" lon="14.8548683"><ele>69.0</ele><time>2026-05-06T12:54:08.028Z</time></trkpt><trkpt lat="37.472565" lon="14.85518"><ele>69.0</ele><time>2026-05-06T12:54:09.028Z</time></trkpt><trkpt lat="37.4724417" lon="14.8554967"><ele>69.0</ele><time>2026-05-06T12:54:10.028Z</time></trkpt><trkpt lat="37.4723217" lon="14.8558167"><ele>69.0</ele><time>2026-05-06T12:54:11.028Z</time></trkpt><trkpt lat="37.4722033" lon="14.8561333"><ele>69.0</ele><time>2026-05-06T12:54:12.028Z</time></trkpt><trkpt lat="37.47208" lon="14.8564483"><ele>69.0</ele><time>2026-05-06T12:54:13.028Z</time></trkpt><trkpt lat="37.4719583" lon="14.856765"><ele>69.0</ele><time>2026-05-06T12:54:14.028Z</time></trkpt><trkpt lat="37.4718383" lon="14.8570733"><ele>69.5</ele><time>2026-05-06T12:54:15.028Z</time></trkpt><trkpt lat="37.47172" lon="14.8573867"><ele>70.0</ele><time>2026-05-06T12:54:16.028Z</time></trkpt><trkpt lat="37.4716" lon="14.8576983"><ele>70.0</ele><time>2026-05-06T12:54:17.028Z</time></trkpt><trkpt lat="37.47147" lon="14.8580133"><ele>70.0</ele><time>2026-05-06T12:54:18.028Z</time></trkpt><trkpt lat="37.471345" lon="14.85833"><ele>69.5</ele><time>2026-05-06T12:54:19.028Z</time></trkpt><trkpt lat="37.4712283" lon="14.8586483"><ele>69.0</ele><time>2026-05-06T12:54:20.028Z</time></trkpt><trkpt lat="37.4711067" lon="14.8589617"><ele>69.0</ele><time>2026-05-06T12:54:21.028Z</time></trkpt><trkpt lat="37.4709833" lon="14.8592733"><ele>69.0</ele><time>2026-05-06T12:54:22.028Z</time></trkpt><trkpt lat="37.4708617" lon="14.85959"><ele>70.0</ele><time>2026-05-06T12:54:23.028Z</time></trkpt><trkpt lat="37.4707417" lon="14.859905"><ele>71.0</ele><time>2026-05-06T12:54:24.028Z</time></trkpt><trkpt lat="37.4706167" lon="14.8602267"><ele>71.0</ele><time>2026-05-06T12:54:25.028Z</time></trkpt><trkpt lat="37.470495" lon="14.8605383"><ele>71.0</ele><time>2026-05-06T12:54:26.028Z</time></trkpt><trkpt lat="37.470375" lon="14.86085"><ele>72.0</ele><time>2026-05-06T12:54:27.028Z</time></trkpt><trkpt lat="37.4702567" lon="14.861165"><ele>73.0</ele><time>2026-05-06T12:54:28.028Z</time></trkpt><trkpt lat="37.4701333" lon="14.8614817"><ele>73.0</ele><time>2026-05-06T12:54:29.028Z</time></trkpt><trkpt lat="37.47001" lon="14.861795"><ele>73.0</ele><time>2026-05-06T12:54:30.028Z</time></trkpt><trkpt lat="37.4698867" lon="14.86211"><ele>73.0</ele><time>2026-05-06T12:54:31.028Z</time></trkpt><trkpt lat="37.4697633" lon="14.862425"><ele>73.0</ele><time>2026-05-06T12:54:32.028Z</time></trkpt><trkpt lat="37.469645" lon="14.86274"><ele>70.5</ele><time>2026-05-06T12:54:33.028Z</time></trkpt><trkpt lat="37.4695183" lon="14.8630517"><ele>68.0</ele><time>2026-05-06T12:54:34.028Z</time></trkpt><trkpt lat="37.4694017" lon="14.8633717"><ele>68.5</ele><time>2026-05-06T12:54:35.028Z</time></trkpt><trkpt lat="37.469285" lon="14.8636867"><ele>69.0</ele><time>2026-05-06T12:54:36.028Z</time></trkpt><trkpt lat="37.4691633" lon="14.8640033"><ele>69.0</ele><time>2026-05-06T12:54:37.028Z</time></trkpt><trkpt lat="37.4690417" lon="14.86432"><ele>69.0</ele><time>2026-05-06T12:54:38.028Z</time></trkpt><trkpt lat="37.4689167" lon="14.8646317"><ele>69.0</ele><time>2026-05-06T12:54:39.028Z</time></trkpt><trkpt lat="37.468795" lon="14.8649433"><ele>69.0</ele><time>2026-05-06T12:54:40.028Z</time></trkpt><trkpt lat="37.46868" lon="14.86526"><ele>66.5</ele><time>2026-05-06T12:54:41.027Z</time></trkpt><trkpt lat="37.4685733" lon="14.86558"><ele>64.0</ele><time>2026-05-06T12:54:42.028Z</time></trkpt><trkpt lat="37.4684667" lon="14.8659083"><ele>64.5</ele><time>2026-05-06T12:54:43.028Z</time></trkpt><trkpt lat="37.4683633" lon="14.8662333"><ele>65.0</ele><time>2026-05-06T12:54:44.028Z</time></trkpt><trkpt lat="37.4682683" lon="14.8665633"><ele>65.0</ele><time>2026-05-06T12:54:45.028Z</time></trkpt><trkpt lat="37.4681783" lon="14.866895"><ele>65.0</ele><time>2026-05-06T12:54:46.028Z</time></trkpt><trkpt lat="37.4680933" lon="14.86723"><ele>65.0</ele><time>2026-05-06T12:54:47.028Z</time></trkpt><trkpt lat="37.4680167" lon="14.8675633"><ele>65.0</ele><time>2026-05-06T12:54:48.028Z</time></trkpt><trkpt lat="37.4679483" lon="14.8679033"><ele>64.5</ele><time>2026-05-06T12:54:49.028Z</time></trkpt><trkpt lat="37.4678933" lon="14.8682417"><ele>64.0</ele><time>2026-05-06T12:54:50.027Z</time></trkpt><trkpt lat="37.4678367" lon="14.868585"><ele>64.0</ele><time>2026-05-06T12:54:51.028Z</time></trkpt><trkpt lat="37.467785" lon="14.86892"><ele>64.0</ele><time>2026-05-06T12:54:52.028Z</time></trkpt><trkpt lat="37.4677367" lon="14.8692617"><ele>63.0</ele><time>2026-05-06T12:54:53.028Z</time></trkpt><trkpt lat="37.46769" lon="14.869605"><ele>62.0</ele><time>2026-05-06T12:54:54.028Z</time></trkpt><trkpt lat="37.4676483" lon="14.8699533"><ele>62.5</ele><time>2026-05-06T12:54:55.028Z</time></trkpt><trkpt lat="37.4676133" lon="14.8703017"><ele>63.0</ele><time>2026-05-06T12:54:56.028Z</time></trkpt><trkpt lat="37.4675867" lon="14.8706533"><ele>62.0</ele><time>2026-05-06T12:54:57.028Z</time></trkpt><trkpt lat="37.467565" lon="14.8710017"><ele>61.0</ele><time>2026-05-06T12:54:58.028Z</time></trkpt><trkpt lat="37.4675467" lon="14.871355"><ele>61.0</ele><time>2026-05-06T12:54:59.028Z</time></trkpt><trkpt lat="37.46754" lon="14.8717"><ele>61.0</ele><time>2026-05-06T12:55:00.028Z</time></trkpt><trkpt lat="37.4675417" lon="14.8720467"><ele>61.0</ele><time>2026-05-06T12:55:01.028Z</time></trkpt><trkpt lat="37.467545" lon="14.8723983"><ele>61.0</ele><time>2026-05-06T12:55:02.028Z</time></trkpt><trkpt lat="37.467555" lon="14.87275"><ele>60.5</ele><time>2026-05-06T12:55:03.028Z</time></trkpt><trkpt lat="37.4675733" lon="14.873105"><ele>60.0</ele><time>2026-05-06T12:55:04.028Z</time></trkpt><trkpt lat="37.4675967" lon="14.8734533"><ele>58.5</ele><time>2026-05-06T12:55:05.028Z</time></trkpt><trkpt lat="37.46762" lon="14.8738033"><ele>57.0</ele><time>2026-05-06T12:55:06.028Z</time></trkpt><trkpt lat="37.46764" lon="14.8741533"><ele>53.5</ele><time>2026-05-06T12:55:07.028Z</time></trkpt><trkpt lat="37.4676667" lon="14.8744983"><ele>50.0</ele><time>2026-05-06T12:55:08.028Z</time></trkpt><trkpt lat="37.46769" lon="14.8748433"><ele>46.5</ele><time>2026-05-06T12:55:09.028Z</time></trkpt><trkpt lat="37.4677133" lon="14.8751867"><ele>43.0</ele><time>2026-05-06T12:55:10.028Z</time></trkpt><trkpt lat="37.4677417" lon="14.875535"><ele>43.0</ele><time>2026-05-06T12:55:11.028Z</time></trkpt><trkpt lat="37.4677667" lon="14.8758833"><ele>43.0</ele><time>2026-05-06T12:55:12.028Z</time></trkpt><trkpt lat="37.4677917" lon="14.8762367"><ele>42.0</ele><time>2026-05-06T12:55:13.028Z</time></trkpt><trkpt lat="37.467815" lon="14.8765833"><ele>41.0</ele><time>2026-05-06T12:55:14.028Z</time></trkpt><trkpt lat="37.4678367" lon="14.8769233"><ele>40.5</ele><time>2026-05-06T12:55:15.028Z</time></trkpt><trkpt lat="37.4678583" lon="14.87727"><ele>40.0</ele><time>2026-05-06T12:55:16.028Z</time></trkpt><trkpt lat="37.4678817" lon="14.8776133"><ele>39.0</ele><time>2026-05-06T12:55:17.028Z</time></trkpt><trkpt lat="37.4679017" lon="14.8779633"><ele>38.0</ele><time>2026-05-06T12:55:18.028Z</time></trkpt><trkpt lat="37.4679183" lon="14.8783133"><ele>38.5</ele><time>2026-05-06T12:55:19.028Z</time></trkpt><trkpt lat="37.4679367" lon="14.8786633"><ele>39.0</ele><time>2026-05-06T12:55:20.028Z</time></trkpt><trkpt lat="37.46796" lon="14.8790067"><ele>39.0</ele><time>2026-05-06T12:55:21.028Z</time></trkpt><trkpt lat="37.4679867" lon="14.8793533"><ele>39.0</ele><time>2026-05-06T12:55:22.028Z</time></trkpt><trkpt lat="37.4680117" lon="14.8797017"><ele>39.0</ele><time>2026-05-06T12:55:23.028Z</time></trkpt><trkpt lat="37.4680317" lon="14.8800517"><ele>39.0</ele><time>2026-05-06T12:55:24.028Z</time></trkpt><trkpt lat="37.4680533" lon="14.8804017"><ele>38.0</ele><time>2026-05-06T12:55:25.028Z</time></trkpt><trkpt lat="37.4680767" lon="14.8807517"><ele>37.0</ele><time>2026-05-06T12:55:26.028Z</time></trkpt><trkpt lat="37.4680967" lon="14.8811033"><ele>37.0</ele><time>2026-05-06T12:55:27.028Z</time></trkpt><trkpt lat="37.4681167" lon="14.8814533"><ele>37.0</ele><time>2026-05-06T12:55:28.028Z</time></trkpt><trkpt lat="37.4681417" lon="14.8818033"><ele>37.0</ele><time>2026-05-06T12:55:29.028Z</time></trkpt><trkpt lat="37.4681617" lon="14.8821533"><ele>37.0</ele><time>2026-05-06T12:55:30.028Z</time></trkpt><trkpt lat="37.4681783" lon="14.8824983"><ele>36.5</ele><time>2026-05-06T12:55:31.028Z</time></trkpt><trkpt lat="37.4682" lon="14.8828467"><ele>36.0</ele><time>2026-05-06T12:55:32.028Z</time></trkpt><trkpt lat="37.468225" lon="14.8831933"><ele>36.0</ele><time>2026-05-06T12:55:33.028Z</time></trkpt><trkpt lat="37.46824" lon="14.8835417"><ele>36.0</ele><time>2026-05-06T12:55:34.028Z</time></trkpt><trkpt lat="37.4682583" lon="14.8838817"><ele>36.0</ele><time>2026-05-06T12:55:35.028Z</time></trkpt><trkpt lat="37.4682733" lon="14.8842317"><ele>36.0</ele><time>2026-05-06T12:55:36.028Z</time></trkpt><trkpt lat="37.4682833" lon="14.884585"><ele>36.5</ele><time>2026-05-06T12:55:37.028Z</time></trkpt><trkpt lat="37.4682983" lon="14.8849333"><ele>37.0</ele><time>2026-05-06T12:55:38.028Z</time></trkpt><trkpt lat="37.4683117" lon="14.8852833"><ele>37.0</ele><time>2026-05-06T12:55:39.028Z</time></trkpt><trkpt lat="37.46833" lon="14.885635"><ele>37.0</ele><time>2026-05-06T12:55:40.028Z</time></trkpt><trkpt lat="37.468345" lon="14.8859867"><ele>36.0</ele><time>2026-05-06T12:55:41.028Z</time></trkpt><trkpt lat="37.4683583" lon="14.8863333"><ele>35.0</ele><time>2026-05-06T12:55:42.028Z</time></trkpt><trkpt lat="37.4683717" lon="14.8866867"><ele>35.5</ele><time>2026-05-06T12:55:43.028Z</time></trkpt><trkpt lat="37.46838" lon="14.8870417"><ele>36.0</ele><time>2026-05-06T12:55:44.028Z</time></trkpt><trkpt lat="37.4683867" lon="14.8873917"><ele>36.0</ele><time>2026-05-06T12:55:45.028Z</time></trkpt><trkpt lat="37.4683867" lon="14.8877483"><ele>36.0</ele><time>2026-05-06T12:55:46.028Z</time></trkpt><trkpt lat="37.46839" lon="14.8880917"><ele>35.0</ele><time>2026-05-06T12:55:47.028Z</time></trkpt><trkpt lat="37.4683917" lon="14.8884383"><ele>34.0</ele><time>2026-05-06T12:55:48.028Z</time></trkpt><trkpt lat="37.46839" lon="14.8887867"><ele>34.0</ele><time>2026-05-06T12:55:49.028Z</time></trkpt><trkpt lat="37.4683883" lon="14.88913"><ele>34.0</ele><time>2026-05-06T12:55:50.028Z</time></trkpt><trkpt lat="37.46839" lon="14.8894767"><ele>34.0</ele><time>2026-05-06T12:55:51.028Z</time></trkpt><trkpt lat="37.468385" lon="14.8898267"><ele>34.0</ele><time>2026-05-06T12:55:52.028Z</time></trkpt><trkpt lat="37.46838" lon="14.890175"><ele>34.0</ele><time>2026-05-06T12:55:53.028Z</time></trkpt><trkpt lat="37.4683783" lon="14.890525"><ele>34.0</ele><time>2026-05-06T12:55:54.028Z</time></trkpt><trkpt lat="37.4683717" lon="14.8908733"><ele>34.5</ele><time>2026-05-06T12:55:55.028Z</time></trkpt><trkpt lat="37.4683683" lon="14.8912233"><ele>35.0</ele><time>2026-05-06T12:55:56.028Z</time></trkpt><trkpt lat="37.4683633" lon="14.891575"><ele>35.0</ele><time>2026-05-06T12:55:57.028Z</time></trkpt><trkpt lat="37.46836" lon="14.8919233"><ele>35.0</ele><time>2026-05-06T12:55:58.028Z</time></trkpt><trkpt lat="37.4683567" lon="14.89227"><ele>35.0</ele><time>2026-05-06T12:55:59.028Z</time></trkpt><trkpt lat="37.468355" lon="14.8926183"><ele>35.0</ele><time>2026-05-06T12:56:00.028Z</time></trkpt><trkpt lat="37.4683483" lon="14.8929667"><ele>35.0</ele><time>2026-05-06T12:56:01.028Z</time></trkpt><trkpt lat="37.4683467" lon="14.8933133"><ele>35.0</ele><time>2026-05-06T12:56:02.028Z</time></trkpt><trkpt lat="37.46834" lon="14.89366"><ele>35.0</ele><time>2026-05-06T12:56:03.028Z</time></trkpt><trkpt lat="37.468335" lon="14.8940133"><ele>35.0</ele><time>2026-05-06T12:56:04.028Z</time></trkpt><trkpt lat="37.468335" lon="14.8943617"><ele>35.0</ele><time>2026-05-06T12:56:05.028Z</time></trkpt><trkpt lat="37.4683367" lon="14.8947117"><ele>35.0</ele><time>2026-05-06T12:56:06.028Z</time></trkpt><trkpt lat="37.4683317" lon="14.8950617"><ele>34.5</ele><time>2026-05-06T12:56:07.028Z</time></trkpt><trkpt lat="37.46833" lon="14.895415"><ele>34.0</ele><time>2026-05-06T12:56:08.027Z</time></trkpt><trkpt lat="37.4683317" lon="14.8957667"><ele>34.5</ele><time>2026-05-06T12:56:09.028Z</time></trkpt><trkpt lat="37.4683317" lon="14.8961133"><ele>35.0</ele><time>2026-05-06T12:56:10.028Z</time></trkpt><trkpt lat="37.4683317" lon="14.8964583"><ele>35.5</ele><time>2026-05-06T12:56:11.028Z</time></trkpt><trkpt lat="37.46833" lon="14.8967783"><ele>36.0</ele><time>2026-05-06T12:56:12.028Z</time></trkpt><trkpt lat="37.46833" lon="14.8970933"><ele>36.0</ele><time>2026-05-06T12:56:13.028Z</time></trkpt><trkpt lat="37.468325" lon="14.8973833"><ele>36.0</ele><time>2026-05-06T12:56:14.028Z</time></trkpt><trkpt lat="37.4683217" lon="14.8976633"><ele>36.0</ele><time>2026-05-06T12:56:15.028Z</time></trkpt><trkpt lat="37.46832" lon="14.897935"><ele>36.0</ele><time>2026-05-06T12:56:16.028Z</time></trkpt><trkpt lat="37.4683183" lon="14.8981883"><ele>36.0</ele><time>2026-05-06T12:56:17.028Z</time></trkpt><trkpt lat="37.468315" lon="14.898445"><ele>36.0</ele><time>2026-05-06T12:56:18.028Z</time></trkpt><trkpt lat="37.4683083" lon="14.8986983"><ele>36.0</ele><time>2026-05-06T12:56:19.028Z</time></trkpt><trkpt lat="37.46831" lon="14.8989467"><ele>36.0</ele><time>2026-05-06T12:56:20.028Z</time></trkpt><trkpt lat="37.46831" lon="14.8991817"><ele>38.0</ele><time>2026-05-06T12:56:21.028Z</time></trkpt><trkpt lat="37.4683133" lon="14.8994083"><ele>40.0</ele><time>2026-05-06T12:56:22.028Z</time></trkpt><trkpt lat="37.46831" lon="14.8996367"><ele>42.0</ele><time>2026-05-06T12:56:23.028Z</time></trkpt><trkpt lat="37.468305" lon="14.8998583"><ele>42.0</ele><time>2026-05-06T12:56:24.028Z</time></trkpt><trkpt lat="37.4683067" lon="14.9000717"><ele>42.0</ele><time>2026-05-06T12:56:25.028Z</time></trkpt><trkpt lat="37.4683033" lon="14.90028"><ele>42.0</ele><time>2026-05-06T12:56:26.028Z</time></trkpt><trkpt lat="37.4682983" lon="14.9004817"><ele>43.75</ele><time>2026-05-06T12:56:27.028Z</time></trkpt><trkpt lat="37.4683017" lon="14.9006567"><ele>45.5</ele><time>2026-05-06T12:56:28.028Z</time></trkpt><trkpt lat="37.46831" lon="14.9008117"><ele>47.25</ele><time>2026-05-06T12:56:29.028Z</time></trkpt><trkpt lat="37.4683433" lon="14.900935"><ele>49.0</ele><time>2026-05-06T12:56:30.028Z</time></trkpt><trkpt lat="37.4683817" lon="14.90106"><ele>49.0</ele><time>2026-05-06T12:56:31.028Z</time></trkpt><trkpt lat="37.468415" lon="14.9011917"><ele>49.0</ele><time>2026-05-06T12:56:32.028Z</time></trkpt><trkpt lat="37.4684317" lon="14.9013267"><ele>49.0</ele><time>2026-05-06T12:56:33.028Z</time></trkpt><trkpt lat="37.4684333" lon="14.9014833"><ele>49.0</ele><time>2026-05-06T12:56:34.028Z</time></trkpt><trkpt lat="37.4684317" lon="14.9016617"><ele>48.33333333333333</ele><time>2026-05-06T12:56:35.028Z</time></trkpt><trkpt lat="37.4684317" lon="14.90187"><ele>47.666666666666664</ele><time>2026-05-06T12:56:36.028Z</time></trkpt><trkpt lat="37.468425" lon="14.9020917"><ele>47.0</ele><time>2026-05-06T12:56:37.028Z</time></trkpt><trkpt lat="37.46842" lon="14.90232"><ele>47.0</ele><time>2026-05-06T12:56:38.028Z</time></trkpt><trkpt lat="37.4684167" lon="14.9025567"><ele>47.0</ele><time>2026-05-06T12:56:39.028Z</time></trkpt><trkpt lat="37.468405" lon="14.9027983"><ele>47.0</ele><time>2026-05-06T12:56:40.028Z</time></trkpt><trkpt lat="37.4683967" lon="14.9030433"><ele>46.666666666666664</ele><time>2026-05-06T12:56:41.028Z</time></trkpt><trkpt lat="37.468385" lon="14.903285"><ele>46.333333333333336</ele><time>2026-05-06T12:56:42.028Z</time></trkpt><trkpt lat="37.4683717" lon="14.9035317"><ele>46.0</ele><time>2026-05-06T12:56:43.028Z</time></trkpt><trkpt lat="37.4683583" lon="14.903775"><ele>46.0</ele><time>2026-05-06T12:56:44.028Z</time></trkpt><trkpt lat="37.4683433" lon="14.9040217"><ele>46.0</ele><time>2026-05-06T12:56:45.028Z</time></trkpt><trkpt lat="37.4683217" lon="14.9042733"><ele>46.0</ele><time>2026-05-06T12:56:46.028Z</time></trkpt><trkpt lat="37.468295" lon="14.904525"><ele>46.0</ele><time>2026-05-06T12:56:47.028Z</time></trkpt><trkpt lat="37.468275" lon="14.9047767"><ele>46.0</ele><time>2026-05-06T12:56:48.028Z</time></trkpt><trkpt lat="37.4682483" lon="14.9050283"><ele>46.0</ele><time>2026-05-06T12:56:49.028Z</time></trkpt><trkpt lat="37.4682183" lon="14.9052817"><ele>46.0</ele><time>2026-05-06T12:56:50.028Z</time></trkpt><trkpt lat="37.46818" lon="14.9055417"><ele>46.0</ele><time>2026-05-06T12:56:51.028Z</time></trkpt><trkpt lat="37.46814" lon="14.905805"><ele>46.0</ele><time>2026-05-06T12:56:52.028Z</time></trkpt><trkpt lat="37.4680967" lon="14.9060617"><ele>46.0</ele><time>2026-05-06T12:56:53.028Z</time></trkpt><trkpt lat="37.4680467" lon="14.9063183"><ele>46.0</ele><time>2026-05-06T12:56:54.028Z</time></trkpt><trkpt lat="37.4680017" lon="14.9065783"><ele>46.0</ele><time>2026-05-06T12:56:55.028Z</time></trkpt><trkpt lat="37.4679533" lon="14.906835"><ele>44.66666666666667</ele><time>2026-05-06T12:56:56.028Z</time></trkpt><trkpt lat="37.4679017" lon="14.9070883"><ele>43.333333333333336</ele><time>2026-05-06T12:56:57.028Z</time></trkpt><trkpt lat="37.4678433" lon="14.9073483"><ele>42.0</ele><time>2026-05-06T12:56:58.028Z</time></trkpt><trkpt lat="37.467785" lon="14.9076083"><ele>42.0</ele><time>2026-05-06T12:56:59.027Z</time></trkpt><trkpt lat="37.4677183" lon="14.90787"><ele>42.0</ele><time>2026-05-06T12:57:00.028Z</time></trkpt><trkpt lat="37.4676567" lon="14.908115"><ele>42.0</ele><time>2026-05-06T12:57:01.028Z</time></trkpt><trkpt lat="37.4675883" lon="14.908365"><ele>41.666666666666664</ele><time>2026-05-06T12:57:02.028Z</time></trkpt><trkpt lat="37.46751" lon="14.9086183"><ele>41.33333333333333</ele><time>2026-05-06T12:57:03.028Z</time></trkpt><trkpt lat="37.4674333" lon="14.9088683"><ele>41.0</ele><time>2026-05-06T12:57:04.028Z</time></trkpt><trkpt lat="37.4673583" lon="14.9091167"><ele>41.33333333333333</ele><time>2026-05-06T12:57:05.028Z</time></trkpt><trkpt lat="37.4672833" lon="14.9093667"><ele>41.666666666666664</ele><time>2026-05-06T12:57:06.027Z</time></trkpt><trkpt lat="37.4672067" lon="14.9096167"><ele>42.0</ele><time>2026-05-06T12:57:07.028Z</time></trkpt><trkpt lat="37.4671267" lon="14.90987"><ele>40.666666666666664</ele><time>2026-05-06T12:57:08.028Z</time></trkpt><trkpt lat="37.46705" lon="14.9101217"><ele>39.33333333333333</ele><time>2026-05-06T12:57:09.028Z</time></trkpt><trkpt lat="37.466975" lon="14.9103717"><ele>38.0</ele><time>2026-05-06T12:57:10.028Z</time></trkpt><trkpt lat="37.4668933" lon="14.9106183"><ele>38.0</ele><time>2026-05-06T12:57:11.028Z</time></trkpt><trkpt lat="37.4668183" lon="14.91087"><ele>38.0</ele><time>2026-05-06T12:57:12.028Z</time></trkpt><trkpt lat="37.46674" lon="14.9111183"><ele>38.0</ele><time>2026-05-06T12:57:13.028Z</time></trkpt><trkpt lat="37.4666633" lon="14.9113683"><ele>38.0</ele><time>2026-05-06T12:57:14.028Z</time></trkpt><trkpt lat="37.46659" lon="14.9116167"><ele>38.0</ele><time>2026-05-06T12:57:15.028Z</time></trkpt><trkpt lat="37.4665117" lon="14.9118633"><ele>38.0</ele><time>2026-05-06T12:57:16.028Z</time></trkpt><trkpt lat="37.4664317" lon="14.9121083"><ele>38.33333333333333</ele><time>2026-05-06T12:57:17.028Z</time></trkpt><trkpt lat="37.4663583" lon="14.9123567"><ele>38.666666666666664</ele><time>2026-05-06T12:57:18.027Z</time></trkpt><trkpt lat="37.46628" lon="14.912605"><ele>39.0</ele><time>2026-05-06T12:57:19.028Z</time></trkpt><trkpt lat="37.4662017" lon="14.912855"><ele>38.333333333333336</ele><time>2026-05-06T12:57:20.028Z</time></trkpt><trkpt lat="37.4661267" lon="14.913105"><ele>37.66666666666667</ele><time>2026-05-06T12:57:21.028Z</time></trkpt><trkpt lat="37.4660417" lon="14.913355"><ele>37.0</ele><time>2026-05-06T12:57:22.028Z</time></trkpt><trkpt lat="37.46596" lon="14.9136033"><ele>37.0</ele><time>2026-05-06T12:57:23.028Z</time></trkpt><trkpt lat="37.46588" lon="14.9138567"><ele>37.0</ele><time>2026-05-06T12:57:24.028Z</time></trkpt><trkpt lat="37.4658017" lon="14.9141133"><ele>37.0</ele><time>2026-05-06T12:57:25.028Z</time></trkpt><trkpt lat="37.465725" lon="14.9143567"><ele>37.333333333333336</ele><time>2026-05-06T12:57:26.028Z</time></trkpt><trkpt lat="37.4656517" lon="14.9146017"><ele>37.666666666666664</ele><time>2026-05-06T12:57:27.028Z</time></trkpt><trkpt lat="37.4655733" lon="14.91485"><ele>38.0</ele><time>2026-05-06T12:57:28.028Z</time></trkpt><trkpt lat="37.4654933" lon="14.9151017"><ele>37.0</ele><time>2026-05-06T12:57:29.028Z</time></trkpt><trkpt lat="37.46542" lon="14.915345"><ele>36.0</ele><time>2026-05-06T12:57:30.028Z</time></trkpt><trkpt lat="37.46535" lon="14.9155933"><ele>35.0</ele><time>2026-05-06T12:57:31.027Z</time></trkpt><trkpt lat="37.465275" lon="14.9158433"><ele>35.33333333333333</ele><time>2026-05-06T12:57:32.028Z</time></trkpt><trkpt lat="37.4651967" lon="14.9160917"><ele>35.666666666666664</ele><time>2026-05-06T12:57:33.028Z</time></trkpt><trkpt lat="37.46512" lon="14.9163383"><ele>36.0</ele><time>2026-05-06T12:57:34.027Z</time></trkpt><trkpt lat="37.4650483" lon="14.916585"><ele>36.0</ele><time>2026-05-06T12:57:35.028Z</time></trkpt><trkpt lat="37.4649733" lon="14.9168383"><ele>36.0</ele><time>2026-05-06T12:57:36.028Z</time></trkpt><trkpt lat="37.4648883" lon="14.917095"><ele>36.0</ele><time>2026-05-06T12:57:37.028Z</time></trkpt><trkpt lat="37.4648083" lon="14.9173533"><ele>35.333333333333336</ele><time>2026-05-06T12:57:38.028Z</time></trkpt><trkpt lat="37.46473" lon="14.91761"><ele>34.66666666666667</ele><time>2026-05-06T12:57:39.028Z</time></trkpt><trkpt lat="37.4646483" lon="14.91786"><ele>34.0</ele><time>2026-05-06T12:57:40.028Z</time></trkpt><trkpt lat="37.4645683" lon="14.91811"><ele>33.66666666666667</ele><time>2026-05-06T12:57:41.028Z</time></trkpt><trkpt lat="37.4644933" lon="14.9183617"><ele>33.333333333333336</ele><time>2026-05-06T12:57:42.028Z</time></trkpt><trkpt lat="37.4644183" lon="14.9186183"><ele>33.0</ele><time>2026-05-06T12:57:43.028Z</time></trkpt><trkpt lat="37.4643467" lon="14.9188767"><ele>33.0</ele><time>2026-05-06T12:57:44.028Z</time></trkpt><trkpt lat="37.46428" lon="14.9191367"><ele>33.0</ele><time>2026-05-06T12:57:45.028Z</time></trkpt><trkpt lat="37.4642183" lon="14.9193867"><ele>33.0</ele><time>2026-05-06T12:57:46.028Z</time></trkpt><trkpt lat="37.464155" lon="14.9196433"><ele>32.666666666666664</ele><time>2026-05-06T12:57:47.028Z</time></trkpt><trkpt lat="37.4640983" lon="14.9198967"><ele>32.33333333333333</ele><time>2026-05-06T12:57:48.028Z</time></trkpt><trkpt lat="37.4640433" lon="14.92015"><ele>32.0</ele><time>2026-05-06T12:57:49.028Z</time></trkpt><trkpt lat="37.4639917" lon="14.9203933"><ele>32.666666666666664</ele><time>2026-05-06T12:57:50.028Z</time></trkpt><trkpt lat="37.4639467" lon="14.9206283"><ele>33.333333333333336</ele><time>2026-05-06T12:57:51.028Z</time></trkpt><trkpt lat="37.4639017" lon="14.9208533"><ele>34.0</ele><time>2026-05-06T12:57:52.028Z</time></trkpt><trkpt lat="37.4638633" lon="14.92107"><ele>34.0</ele><time>2026-05-06T12:57:53.028Z</time></trkpt><trkpt lat="37.46383" lon="14.9212783"><ele>34.0</ele><time>2026-05-06T12:57:54.028Z</time></trkpt><trkpt lat="37.4638033" lon="14.9214817"><ele>34.0</ele><time>2026-05-06T12:57:55.028Z</time></trkpt><trkpt lat="37.4637817" lon="14.9216767"><ele>33.5</ele><time>2026-05-06T12:57:56.028Z</time></trkpt><trkpt lat="37.4637583" lon="14.9218483"><ele>33.0</ele><time>2026-05-06T12:57:57.028Z</time></trkpt><trkpt lat="37.4637383" lon="14.9220167"><ele>32.5</ele><time>2026-05-06T12:57:58.028Z</time></trkpt><trkpt lat="37.46372" lon="14.9221717"><ele>32.0</ele><time>2026-05-06T12:57:59.028Z</time></trkpt><trkpt lat="37.4637017" lon="14.9223233"><ele>32.0</ele><time>2026-05-06T12:58:00.027Z</time></trkpt><trkpt lat="37.4636783" lon="14.92247"><ele>32.0</ele><time>2026-05-06T12:58:01.028Z</time></trkpt><trkpt lat="37.4636333" lon="14.922605"><ele>32.0</ele><time>2026-05-06T12:58:02.028Z</time></trkpt><trkpt lat="37.4635817" lon="14.92274"><ele>32.0</ele><time>2026-05-06T12:58:03.028Z</time></trkpt><trkpt lat="37.4635383" lon="14.9228967"><ele>31.333333333333332</ele><time>2026-05-06T12:58:04.028Z</time></trkpt><trkpt lat="37.46351" lon="14.92308"><ele>30.666666666666664</ele><time>2026-05-06T12:58:05.028Z</time></trkpt><trkpt lat="37.4634917" lon="14.92329"><ele>30.0</ele><time>2026-05-06T12:58:06.028Z</time></trkpt><trkpt lat="37.46348" lon="14.923505"><ele>30.0</ele><time>2026-05-06T12:58:07.028Z</time></trkpt><trkpt lat="37.463475" lon="14.92373"><ele>30.0</ele><time>2026-05-06T12:58:08.028Z</time></trkpt><trkpt lat="37.4634683" lon="14.9239567"><ele>30.0</ele><time>2026-05-06T12:58:09.028Z</time></trkpt><trkpt lat="37.463465" lon="14.924195"><ele>30.0</ele><time>2026-05-06T12:58:10.028Z</time></trkpt><trkpt lat="37.463465" lon="14.9244333"><ele>30.0</ele><time>2026-05-06T12:58:11.028Z</time></trkpt><trkpt lat="37.4634617" lon="14.9246817"><ele>30.0</ele><time>2026-05-06T12:58:12.028Z</time></trkpt><trkpt lat="37.4634617" lon="14.9249317"><ele>30.0</ele><time>2026-05-06T12:58:13.028Z</time></trkpt><trkpt lat="37.4634633" lon="14.9251867"><ele>30.0</ele><time>2026-05-06T12:58:14.028Z</time></trkpt><trkpt lat="37.4634717" lon="14.9254467"><ele>30.0</ele><time>2026-05-06T12:58:15.028Z</time></trkpt><trkpt lat="37.463485" lon="14.9257083"><ele>30.333333333333336</ele><time>2026-05-06T12:58:16.028Z</time></trkpt><trkpt lat="37.4634983" lon="14.92597"><ele>30.666666666666668</ele><time>2026-05-06T12:58:17.028Z</time></trkpt><trkpt lat="37.4635183" lon="14.9262333"><ele>31.0</ele><time>2026-05-06T12:58:18.027Z</time></trkpt><trkpt lat="37.46354" lon="14.9265"><ele>31.333333333333336</ele><time>2026-05-06T12:58:19.028Z</time></trkpt><trkpt lat="37.463565" lon="14.9267717"><ele>31.666666666666664</ele><time>2026-05-06T12:58:20.028Z</time></trkpt><trkpt lat="37.4635883" lon="14.9270433"><ele>32.0</ele><time>2026-05-06T12:58:21.028Z</time></trkpt><trkpt lat="37.4636167" lon="14.9273233"><ele>31.0</ele><time>2026-05-06T12:58:22.028Z</time></trkpt><trkpt lat="37.4636467" lon="14.9276067"><ele>30.0</ele><time>2026-05-06T12:58:23.028Z</time></trkpt><trkpt lat="37.4636767" lon="14.9278767"><ele>29.0</ele><time>2026-05-06T12:58:24.028Z</time></trkpt><trkpt lat="37.46371" lon="14.9281367"><ele>29.666666666666664</ele><time>2026-05-06T12:58:25.028Z</time></trkpt><trkpt lat="37.46375" lon="14.9283933"><ele>30.333333333333336</ele><time>2026-05-06T12:58:26.027Z</time></trkpt><trkpt lat="37.463785" lon="14.9286433"><ele>31.0</ele><time>2026-05-06T12:58:27.027Z</time></trkpt><trkpt lat="37.463825" lon="14.9288933"><ele>31.0</ele><time>2026-05-06T12:58:28.028Z</time></trkpt><trkpt lat="37.46386" lon="14.9291283"><ele>31.0</ele><time>2026-05-06T12:58:29.028Z</time></trkpt><trkpt lat="37.4639" lon="14.929355"><ele>31.0</ele><time>2026-05-06T12:58:30.028Z</time></trkpt><trkpt lat="37.4639317" lon="14.9295683"><ele>31.0</ele><time>2026-05-06T12:58:31.028Z</time></trkpt><trkpt lat="37.4639583" lon="14.9297783"><ele>31.0</ele><time>2026-05-06T12:58:32.028Z</time></trkpt><trkpt lat="37.4639917" lon="14.9299867"><ele>31.0</ele><time>2026-05-06T12:58:33.028Z</time></trkpt><trkpt lat="37.464025" lon="14.9301917"><ele>31.333333333333336</ele><time>2026-05-06T12:58:34.028Z</time></trkpt><trkpt lat="37.4640617" lon="14.9304167"><ele>31.666666666666664</ele><time>2026-05-06T12:58:35.028Z</time></trkpt><trkpt lat="37.4641017" lon="14.9306733"><ele>32.0</ele><time>2026-05-06T12:58:36.028Z</time></trkpt><trkpt lat="37.464145" lon="14.9309683"><ele>32.0</ele><time>2026-05-06T12:58:37.028Z</time></trkpt><trkpt lat="37.4641933" lon="14.9312917"><ele>32.0</ele><time>2026-05-06T12:58:38.028Z</time></trkpt><trkpt lat="37.464245" lon="14.9316517"><ele>32.0</ele><time>2026-05-06T12:58:39.028Z</time></trkpt><trkpt lat="37.464305" lon="14.93204"><ele>32.0</ele><time>2026-05-06T12:58:40.028Z</time></trkpt><trkpt lat="37.4643667" lon="14.9324617"><ele>32.5</ele><time>2026-05-06T12:58:41.028Z</time></trkpt><trkpt lat="37.46443" lon="14.9329083"><ele>33.0</ele><time>2026-05-06T12:58:42.028Z</time></trkpt><trkpt lat="37.4645033" lon="14.93336"><ele>34.0</ele><time>2026-05-06T12:58:43.028Z</time></trkpt><trkpt lat="37.4645767" lon="14.9338"><ele>35.0</ele><time>2026-05-06T12:58:44.028Z</time></trkpt><trkpt lat="37.4646417" lon="14.934205"><ele>39.5</ele><time>2026-05-06T12:58:45.028Z</time></trkpt><trkpt lat="37.4646933" lon="14.9346067"><ele>44.0</ele><time>2026-05-06T12:58:46.028Z</time></trkpt><trkpt lat="37.4647517" lon="14.9349867"><ele>42.0</ele><time>2026-05-06T12:58:47.028Z</time></trkpt><trkpt lat="37.4648" lon="14.93534"><ele>40.0</ele><time>2026-05-06T12:58:48.028Z</time></trkpt><trkpt lat="37.4648533" lon="14.935685"><ele>38.5</ele><time>2026-05-06T12:58:49.028Z</time></trkpt><trkpt lat="37.4649033" lon="14.9360183"><ele>37.0</ele><time>2026-05-06T12:58:50.028Z</time></trkpt><trkpt lat="37.4649533" lon="14.93635"><ele>37.0</ele><time>2026-05-06T12:58:51.028Z</time></trkpt><trkpt lat="37.4650033" lon="14.9366767"><ele>37.0</ele><time>2026-05-06T12:58:52.028Z</time></trkpt><trkpt lat="37.4650483" lon="14.9370033"><ele>37.0</ele><time>2026-05-06T12:58:53.028Z</time></trkpt><trkpt lat="37.465095" lon="14.9373217"><ele>37.0</ele><time>2026-05-06T12:58:54.028Z</time></trkpt><trkpt lat="37.46514" lon="14.9376433"><ele>37.5</ele><time>2026-05-06T12:58:55.028Z</time></trkpt><trkpt lat="37.46519" lon="14.9379583"><ele>38.0</ele><time>2026-05-06T12:58:56.028Z</time></trkpt><trkpt lat="37.46524" lon="14.9382733"><ele>38.0</ele><time>2026-05-06T12:58:57.028Z</time></trkpt><trkpt lat="37.465285" lon="14.9385883"><ele>38.0</ele><time>2026-05-06T12:58:58.028Z</time></trkpt><trkpt lat="37.4653333" lon="14.9389083"><ele>38.5</ele><time>2026-05-06T12:58:59.028Z</time></trkpt><trkpt lat="37.4653867" lon="14.93922"><ele>39.0</ele><time>2026-05-06T12:59:00.027Z</time></trkpt><trkpt lat="37.4654333" lon="14.9395283"><ele>39.0</ele><time>2026-05-06T12:59:01.028Z</time></trkpt><trkpt lat="37.46548" lon="14.9398383"><ele>39.0</ele><time>2026-05-06T12:59:02.028Z</time></trkpt><trkpt lat="37.465525" lon="14.9401417"><ele>39.0</ele><time>2026-05-06T12:59:03.028Z</time></trkpt><trkpt lat="37.4655667" lon="14.94045"><ele>39.0</ele><time>2026-05-06T12:59:04.028Z</time></trkpt><trkpt lat="37.4656233" lon="14.940775"><ele>39.5</ele><time>2026-05-06T12:59:05.027Z</time></trkpt><trkpt lat="37.4656833" lon="14.9411167"><ele>40.0</ele><time>2026-05-06T12:59:06.028Z</time></trkpt><trkpt lat="37.4657417" lon="14.9414667"><ele>40.0</ele><time>2026-05-06T12:59:07.028Z</time></trkpt><trkpt lat="37.4657983" lon="14.941815"><ele>40.0</ele><time>2026-05-06T12:59:08.028Z</time></trkpt><trkpt lat="37.46585" lon="14.9421617"><ele>40.0</ele><time>2026-05-06T12:59:09.028Z</time></trkpt><trkpt lat="37.4659017" lon="14.9425067"><ele>40.0</ele><time>2026-05-06T12:59:10.028Z</time></trkpt><trkpt lat="37.4659483" lon="14.9428417"><ele>41.0</ele><time>2026-05-06T12:59:11.028Z</time></trkpt><trkpt lat="37.4659967" lon="14.9431717"><ele>42.0</ele><time>2026-05-06T12:59:12.028Z</time></trkpt><trkpt lat="37.46604" lon="14.943505"><ele>42.0</ele><time>2026-05-06T12:59:13.028Z</time></trkpt><trkpt lat="37.4660867" lon="14.9438417"><ele>42.0</ele><time>2026-05-06T12:59:14.028Z</time></trkpt><trkpt lat="37.4661333" lon="14.9441733"><ele>40.5</ele><time>2026-05-06T12:59:15.028Z</time></trkpt><trkpt lat="37.4661783" lon="14.94451"><ele>39.0</ele><time>2026-05-06T12:59:16.028Z</time></trkpt><trkpt lat="37.466225" lon="14.944845"><ele>38.5</ele><time>2026-05-06T12:59:17.028Z</time></trkpt><trkpt lat="37.466275" lon="14.9451817"><ele>38.0</ele><time>2026-05-06T12:59:18.027Z</time></trkpt><trkpt lat="37.4663233" lon="14.945515"><ele>38.5</ele><time>2026-05-06T12:59:19.028Z</time></trkpt><trkpt lat="37.4663717" lon="14.9458467"><ele>39.0</ele><time>2026-05-06T12:59:20.028Z</time></trkpt><trkpt lat="37.46642" lon="14.9461783"><ele>39.0</ele><time>2026-05-06T12:59:21.028Z</time></trkpt><trkpt lat="37.46647" lon="14.946515"><ele>39.0</ele><time>2026-05-06T12:59:22.028Z</time></trkpt><trkpt lat="37.4665233" lon="14.9468467"><ele>40.5</ele><time>2026-05-06T12:59:23.028Z</time></trkpt><trkpt lat="37.4665733" lon="14.94718"><ele>42.0</ele><time>2026-05-06T12:59:24.028Z</time></trkpt><trkpt lat="37.46662" lon="14.9475117"><ele>43.5</ele><time>2026-05-06T12:59:25.028Z</time></trkpt><trkpt lat="37.4666717" lon="14.9478433"><ele>45.0</ele><time>2026-05-06T12:59:26.028Z</time></trkpt><trkpt lat="37.4667267" lon="14.9481733"><ele>46.0</ele><time>2026-05-06T12:59:27.028Z</time></trkpt><trkpt lat="37.4667717" lon="14.948505"><ele>47.0</ele><time>2026-05-06T12:59:28.028Z</time></trkpt><trkpt lat="37.46682" lon="14.9488417"><ele>47.0</ele><time>2026-05-06T12:59:29.028Z</time></trkpt><trkpt lat="37.4668617" lon="14.9491733"><ele>47.0</ele><time>2026-05-06T12:59:30.028Z</time></trkpt><trkpt lat="37.4668933" lon="14.949505"><ele>51.5</ele><time>2026-05-06T12:59:31.028Z</time></trkpt><trkpt lat="37.4669117" lon="14.9498433"><ele>56.0</ele><time>2026-05-06T12:59:32.028Z</time></trkpt><trkpt lat="37.4669217" lon="14.9501783"><ele>57.5</ele><time>2026-05-06T12:59:33.028Z</time></trkpt><trkpt lat="37.4669267" lon="14.9505083"><ele>59.0</ele><time>2026-05-06T12:59:34.028Z</time></trkpt><trkpt lat="37.4669233" lon="14.9508483"><ele>58.5</ele><time>2026-05-06T12:59:35.027Z</time></trkpt><trkpt lat="37.4669233" lon="14.9511833"><ele>58.0</ele><time>2026-05-06T12:59:36.028Z</time></trkpt><trkpt lat="37.466925" lon="14.9515267"><ele>58.5</ele><time>2026-05-06T12:59:37.028Z</time></trkpt><trkpt lat="37.4669217" lon="14.951865"><ele>59.0</ele><time>2026-05-06T12:59:38.028Z</time></trkpt><trkpt lat="37.4669217" lon="14.9522"><ele>59.0</ele><time>2026-05-06T12:59:39.028Z</time></trkpt><trkpt lat="37.4669283" lon="14.952535"><ele>59.0</ele><time>2026-05-06T12:59:40.028Z</time></trkpt><trkpt lat="37.4669267" lon="14.95287"><ele>58.5</ele><time>2026-05-06T12:59:41.028Z</time></trkpt><trkpt lat="37.4669217" lon="14.95321"><ele>58.0</ele><time>2026-05-06T12:59:42.028Z</time></trkpt><trkpt lat="37.466925" lon="14.95354"><ele>58.0</ele><time>2026-05-06T12:59:43.028Z</time></trkpt><trkpt lat="37.4669217" lon="14.9538867"><ele>58.0</ele><time>2026-05-06T12:59:44.028Z</time></trkpt><trkpt lat="37.4669167" lon="14.95422"><ele>59.0</ele><time>2026-05-06T12:59:45.028Z</time></trkpt><trkpt lat="37.4669133" lon="14.95455"><ele>60.0</ele><time>2026-05-06T12:59:46.028Z</time></trkpt><trkpt lat="37.4669067" lon="14.95489"><ele>62.0</ele><time>2026-05-06T12:59:47.027Z</time></trkpt><trkpt lat="37.4669067" lon="14.955225"><ele>64.0</ele><time>2026-05-06T12:59:48.028Z</time></trkpt><trkpt lat="37.466905" lon="14.955565"><ele>66.5</ele><time>2026-05-06T12:59:49.028Z</time></trkpt><trkpt lat="37.466895" lon="14.9559033"><ele>69.0</ele><time>2026-05-06T12:59:50.028Z</time></trkpt><trkpt lat="37.4668933" lon="14.956235"><ele>69.0</ele><time>2026-05-06T12:59:51.028Z</time></trkpt><trkpt lat="37.4668833" lon="14.95658"><ele>69.0</ele><time>2026-05-06T12:59:52.028Z</time></trkpt><trkpt lat="37.466875" lon="14.95692"><ele>69.0</ele><time>2026-05-06T12:59:53.028Z</time></trkpt><trkpt lat="37.46687" lon="14.95726"><ele>69.0</ele><time>2026-05-06T12:59:54.028Z</time></trkpt><trkpt lat="37.4668583" lon="14.9575967"><ele>68.5</ele><time>2026-05-06T12:59:55.028Z</time></trkpt><trkpt lat="37.4668583" lon="14.95793"><ele>68.0</ele><time>2026-05-06T12:59:56.027Z</time></trkpt><trkpt lat="37.4668533" lon="14.9582633"><ele>67.5</ele><time>2026-05-06T12:59:57.028Z</time></trkpt><trkpt lat="37.4668467" lon="14.9586017"><ele>67.0</ele><time>2026-05-06T12:59:58.028Z</time></trkpt><trkpt lat="37.4668467" lon="14.9589417"><ele>67.5</ele><time>2026-05-06T12:59:59.028Z</time></trkpt><trkpt lat="37.4668417" lon="14.95928"><ele>68.0</ele><time>2026-05-06T13:00:00.028Z</time></trkpt><trkpt lat="37.46684" lon="14.959615"><ele>68.0</ele><time>2026-05-06T13:00:01.027Z</time></trkpt><trkpt lat="37.4668367" lon="14.959955"><ele>68.0</ele><time>2026-05-06T13:00:02.028Z</time></trkpt><trkpt lat="37.4668283" lon="14.960295"><ele>68.0</ele><time>2026-05-06T13:00:03.028Z</time></trkpt><trkpt lat="37.46682" lon="14.96063"><ele>68.0</ele><time>2026-05-06T13:00:04.028Z</time></trkpt><trkpt lat="37.466815" lon="14.960965"><ele>66.5</ele><time>2026-05-06T13:00:05.028Z</time></trkpt><trkpt lat="37.46681" lon="14.9613"><ele>65.0</ele><time>2026-05-06T13:00:06.028Z</time></trkpt><trkpt lat="37.4668033" lon="14.9616417"><ele>65.5</ele><time>2026-05-06T13:00:07.027Z</time></trkpt><trkpt lat="37.4668033" lon="14.9619833"><ele>66.0</ele><time>2026-05-06T13:00:08.028Z</time></trkpt><trkpt lat="37.466805" lon="14.9623167"><ele>65.5</ele><time>2026-05-06T13:00:09.028Z</time></trkpt><trkpt lat="37.4667983" lon="14.9626583"><ele>65.0</ele><time>2026-05-06T13:00:10.028Z</time></trkpt><trkpt lat="37.46679" lon="14.9629967"><ele>65.0</ele><time>2026-05-06T13:00:11.027Z</time></trkpt><trkpt lat="37.466785" lon="14.963335"><ele>65.0</ele><time>2026-05-06T13:00:12.028Z</time></trkpt><trkpt lat="37.4667767" lon="14.963675"><ele>63.0</ele><time>2026-05-06T13:00:13.028Z</time></trkpt><trkpt lat="37.4667683" lon="14.9640167"><ele>61.0</ele><time>2026-05-06T13:00:14.028Z</time></trkpt><trkpt lat="37.4667633" lon="14.9643533"><ele>61.0</ele><time>2026-05-06T13:00:15.027Z</time></trkpt><trkpt lat="37.4667583" lon="14.9646933"><ele>61.0</ele><time>2026-05-06T13:00:16.027Z</time></trkpt><trkpt lat="37.4667533" lon="14.96503"><ele>61.0</ele><time>2026-05-06T13:00:17.028Z</time></trkpt><trkpt lat="37.46675" lon="14.9653733"><ele>61.0</ele><time>2026-05-06T13:00:18.028Z</time></trkpt><trkpt lat="37.4667383" lon="14.9657133"><ele>62.0</ele><time>2026-05-06T13:00:19.028Z</time></trkpt><trkpt lat="37.4667333" lon="14.9660483"><ele>63.0</ele><time>2026-05-06T13:00:20.028Z</time></trkpt><trkpt lat="37.4667233" lon="14.9663867"><ele>65.5</ele><time>2026-05-06T13:00:21.028Z</time></trkpt><trkpt lat="37.4667117" lon="14.9667233"><ele>68.0</ele><time>2026-05-06T13:00:22.028Z</time></trkpt><trkpt lat="37.4666917" lon="14.9670617"><ele>68.0</ele><time>2026-05-06T13:00:23.028Z</time></trkpt><trkpt lat="37.466675" lon="14.9674"><ele>68.0</ele><time>2026-05-06T13:00:24.028Z</time></trkpt><trkpt lat="37.4666533" lon="14.9677333"><ele>70.0</ele><time>2026-05-06T13:00:25.028Z</time></trkpt><trkpt lat="37.4666333" lon="14.96807"><ele>72.0</ele><time>2026-05-06T13:00:26.028Z</time></trkpt><trkpt lat="37.4666133" lon="14.968405"><ele>72.5</ele><time>2026-05-06T13:00:27.028Z</time></trkpt><trkpt lat="37.4665967" lon="14.96874"><ele>73.0</ele><time>2026-05-06T13:00:28.028Z</time></trkpt><trkpt lat="37.4665867" lon="14.9690783"><ele>73.0</ele><time>2026-05-06T13:00:29.028Z</time></trkpt><trkpt lat="37.46657" lon="14.9694167"><ele>73.0</ele><time>2026-05-06T13:00:30.027Z</time></trkpt><trkpt lat="37.4665583" lon="14.969755"><ele>73.0</ele><time>2026-05-06T13:00:31.028Z</time></trkpt><trkpt lat="37.46654" lon="14.9700917"><ele>73.0</ele><time>2026-05-06T13:00:32.028Z</time></trkpt><trkpt lat="37.46652" lon="14.9704233"><ele>73.0</ele><time>2026-05-06T13:00:33.027Z</time></trkpt><trkpt lat="37.4665033" lon="14.9707583"><ele>73.0</ele><time>2026-05-06T13:00:34.028Z</time></trkpt><trkpt lat="37.4664833" lon="14.9710917"><ele>73.0</ele><time>2026-05-06T13:00:35.028Z</time></trkpt><trkpt lat="37.4664683" lon="14.9714283"><ele>73.0</ele><time>2026-05-06T13:00:36.028Z</time></trkpt><trkpt lat="37.4664483" lon="14.9717667"><ele>72.5</ele><time>2026-05-06T13:00:37.028Z</time></trkpt><trkpt lat="37.4664283" lon="14.972105"><ele>72.0</ele><time>2026-05-06T13:00:38.028Z</time></trkpt><trkpt lat="37.4664167" lon="14.972445"><ele>72.0</ele><time>2026-05-06T13:00:39.028Z</time></trkpt><trkpt lat="37.4664033" lon="14.97279"><ele>72.0</ele><time>2026-05-06T13:00:40.028Z</time></trkpt><trkpt lat="37.4663817" lon="14.97313"><ele>71.5</ele><time>2026-05-06T13:00:41.028Z</time></trkpt><trkpt lat="37.4663633" lon="14.973465"><ele>71.0</ele><time>2026-05-06T13:00:42.028Z</time></trkpt><trkpt lat="37.466345" lon="14.973805"><ele>71.0</ele><time>2026-05-06T13:00:43.028Z</time></trkpt><trkpt lat="37.4663283" lon="14.97414"><ele>71.0</ele><time>2026-05-06T13:00:44.028Z</time></trkpt><trkpt lat="37.4663133" lon="14.9744767"><ele>71.0</ele><time>2026-05-06T13:00:45.028Z</time></trkpt><trkpt lat="37.466295" lon="14.974815"><ele>71.0</ele><time>2026-05-06T13:00:46.028Z</time></trkpt><trkpt lat="37.4662817" lon="14.9751533"><ele>68.0</ele><time>2026-05-06T13:00:47.028Z</time></trkpt><trkpt lat="37.4662683" lon="14.9754933"><ele>65.0</ele><time>2026-05-06T13:00:48.028Z</time></trkpt><trkpt lat="37.4662517" lon="14.97583"><ele>64.0</ele><time>2026-05-06T13:00:49.028Z</time></trkpt><trkpt lat="37.466245" lon="14.9761717"><ele>63.0</ele><time>2026-05-06T13:00:50.028Z</time></trkpt><trkpt lat="37.4662417" lon="14.976505"><ele>63.0</ele><time>2026-05-06T13:00:51.028Z</time></trkpt><trkpt lat="37.4662367" lon="14.97684"><ele>63.0</ele><time>2026-05-06T13:00:52.028Z</time></trkpt><trkpt lat="37.466235" lon="14.97718"><ele>63.0</ele><time>2026-05-06T13:00:53.028Z</time></trkpt><trkpt lat="37.46624" lon="14.977515"><ele>63.0</ele><time>2026-05-06T13:00:54.028Z</time></trkpt><trkpt lat="37.4662417" lon="14.9778233"><ele>63.0</ele><time>2026-05-06T13:00:55.028Z</time></trkpt><trkpt lat="37.4662417" lon="14.9781233"><ele>63.0</ele><time>2026-05-06T13:00:56.028Z</time></trkpt><trkpt lat="37.4662433" lon="14.9784167"><ele>63.0</ele><time>2026-05-06T13:00:57.028Z</time></trkpt><trkpt lat="37.4662367" lon="14.978705"><ele>63.0</ele><time>2026-05-06T13:00:58.028Z</time></trkpt><trkpt lat="37.46623" lon="14.9789917"><ele>61.0</ele><time>2026-05-06T13:00:59.028Z</time></trkpt><trkpt lat="37.466225" lon="14.9792833"><ele>59.0</ele><time>2026-05-06T13:01:00.028Z</time></trkpt><trkpt lat="37.4662233" lon="14.9795783"><ele>59.0</ele><time>2026-05-06T13:01:01.028Z</time></trkpt><trkpt lat="37.4662233" lon="14.9798617"><ele>59.0</ele><time>2026-05-06T13:01:02.027Z</time></trkpt><trkpt lat="37.4662233" lon="14.98015"><ele>59.0</ele><time>2026-05-06T13:01:03.028Z</time></trkpt><trkpt lat="37.4662233" lon="14.9804333"><ele>59.0</ele><time>2026-05-06T13:01:04.028Z</time></trkpt><trkpt lat="37.46622" lon="14.9807183"><ele>58.5</ele><time>2026-05-06T13:01:05.028Z</time></trkpt><trkpt lat="37.46622" lon="14.98101"><ele>58.0</ele><time>2026-05-06T13:01:06.028Z</time></trkpt><trkpt lat="37.46622" lon="14.9813033"><ele>58.0</ele><time>2026-05-06T13:01:07.028Z</time></trkpt><trkpt lat="37.4662133" lon="14.9816067"><ele>58.0</ele><time>2026-05-06T13:01:08.028Z</time></trkpt><trkpt lat="37.4662183" lon="14.9819067"><ele>57.0</ele><time>2026-05-06T13:01:09.028Z</time></trkpt><trkpt lat="37.466215" lon="14.9822083"><ele>56.0</ele><time>2026-05-06T13:01:10.028Z</time></trkpt><trkpt lat="37.4662117" lon="14.9825083"><ele>54.5</ele><time>2026-05-06T13:01:11.028Z</time></trkpt><trkpt lat="37.46621" lon="14.9828117"><ele>53.0</ele><time>2026-05-06T13:01:12.027Z</time></trkpt><trkpt lat="37.4662083" lon="14.9831"><ele>52.5</ele><time>2026-05-06T13:01:13.028Z</time></trkpt><trkpt lat="37.4662067" lon="14.9833917"><ele>52.0</ele><time>2026-05-06T13:01:14.028Z</time></trkpt><trkpt lat="37.4662067" lon="14.9836717"><ele>52.0</ele><time>2026-05-06T13:01:15.028Z</time></trkpt><trkpt lat="37.4662083" lon="14.9839583"><ele>52.0</ele><time>2026-05-06T13:01:16.028Z</time></trkpt><trkpt lat="37.46621" lon="14.9842433"><ele>51.666666666666664</ele><time>2026-05-06T13:01:17.028Z</time></trkpt><trkpt lat="37.4662117" lon="14.9845267"><ele>51.33333333333333</ele><time>2026-05-06T13:01:18.028Z</time></trkpt><trkpt lat="37.4662067" lon="14.9848017"><ele>51.0</ele><time>2026-05-06T13:01:19.028Z</time></trkpt><trkpt lat="37.466205" lon="14.9850767"><ele>50.0</ele><time>2026-05-06T13:01:20.028Z</time></trkpt><trkpt lat="37.4662067" lon="14.98536"><ele>49.0</ele><time>2026-05-06T13:01:21.028Z</time></trkpt><trkpt lat="37.4662017" lon="14.9856433"><ele>49.0</ele><time>2026-05-06T13:01:22.028Z</time></trkpt><trkpt lat="37.4662017" lon="14.9859283"><ele>49.0</ele><time>2026-05-06T13:01:23.028Z</time></trkpt><trkpt lat="37.4662017" lon="14.986215"><ele>49.0</ele><time>2026-05-06T13:01:24.028Z</time></trkpt><trkpt lat="37.4662" lon="14.9865017"><ele>49.0</ele><time>2026-05-06T13:01:25.028Z</time></trkpt><trkpt lat="37.466195" lon="14.986785"><ele>49.0</ele><time>2026-05-06T13:01:26.028Z</time></trkpt><trkpt lat="37.4661783" lon="14.987065"><ele>49.0</ele><time>2026-05-06T13:01:27.028Z</time></trkpt><trkpt lat="37.466155" lon="14.9873467"><ele>49.0</ele><time>2026-05-06T13:01:28.028Z</time></trkpt><trkpt lat="37.466125" lon="14.98763"><ele>49.0</ele><time>2026-05-06T13:01:29.028Z</time></trkpt><trkpt lat="37.4660933" lon="14.9879133"><ele>49.0</ele><time>2026-05-06T13:01:30.028Z</time></trkpt><trkpt lat="37.46606" lon="14.9881867"><ele>49.0</ele><time>2026-05-06T13:01:31.028Z</time></trkpt><trkpt lat="37.4660183" lon="14.9884633"><ele>48.666666666666664</ele><time>2026-05-06T13:01:32.028Z</time></trkpt><trkpt lat="37.4659717" lon="14.988735"><ele>48.33333333333333</ele><time>2026-05-06T13:01:33.028Z</time></trkpt><trkpt lat="37.465915" lon="14.9890083"><ele>48.0</ele><time>2026-05-06T13:01:34.028Z</time></trkpt><trkpt lat="37.46585" lon="14.9892867"><ele>48.0</ele><time>2026-05-06T13:01:35.028Z</time></trkpt><trkpt lat="37.4657867" lon="14.989555"><ele>48.0</ele><time>2026-05-06T13:01:36.028Z</time></trkpt><trkpt lat="37.46572" lon="14.98982"><ele>48.0</ele><time>2026-05-06T13:01:37.028Z</time></trkpt><trkpt lat="37.465645" lon="14.9900717"><ele>48.0</ele><time>2026-05-06T13:01:38.028Z</time></trkpt><trkpt lat="37.4655717" lon="14.99032"><ele>48.0</ele><time>2026-05-06T13:01:39.028Z</time></trkpt><trkpt lat="37.4655033" lon="14.99056"><ele>48.0</ele><time>2026-05-06T13:01:40.028Z</time></trkpt><trkpt lat="37.465435" lon="14.9908083"><ele>47.333333333333336</ele><time>2026-05-06T13:01:41.028Z</time></trkpt><trkpt lat="37.4653667" lon="14.9910617"><ele>46.66666666666667</ele><time>2026-05-06T13:01:42.028Z</time></trkpt><trkpt lat="37.4652967" lon="14.9913183"><ele>46.0</ele><time>2026-05-06T13:01:43.028Z</time></trkpt><trkpt lat="37.465225" lon="14.99157"><ele>45.333333333333336</ele><time>2026-05-06T13:01:44.028Z</time></trkpt><trkpt lat="37.4651567" lon="14.99182"><ele>44.666666666666664</ele><time>2026-05-06T13:01:45.028Z</time></trkpt><trkpt lat="37.4650833" lon="14.9920717"><ele>44.0</ele><time>2026-05-06T13:01:46.028Z</time></trkpt><trkpt lat="37.465015" lon="14.99232"><ele>45.666666666666664</ele><time>2026-05-06T13:01:47.028Z</time></trkpt><trkpt lat="37.464945" lon="14.99257"><ele>47.33333333333333</ele><time>2026-05-06T13:01:48.028Z</time></trkpt><trkpt lat="37.4648767" lon="14.99282"><ele>49.0</ele><time>2026-05-06T13:01:49.028Z</time></trkpt><trkpt lat="37.4648067" lon="14.9930683"><ele>49.0</ele><time>2026-05-06T13:01:50.028Z</time></trkpt><trkpt lat="37.4647383" lon="14.9933117"><ele>49.0</ele><time>2026-05-06T13:01:51.027Z</time></trkpt><trkpt lat="37.4646733" lon="14.9935583"><ele>49.0</ele><time>2026-05-06T13:01:52.028Z</time></trkpt><trkpt lat="37.4646067" lon="14.9938017"><ele>47.33333333333333</ele><time>2026-05-06T13:01:53.028Z</time></trkpt><trkpt lat="37.46454" lon="14.9940417"><ele>45.666666666666664</ele><time>2026-05-06T13:01:54.028Z</time></trkpt><trkpt lat="37.46447" lon="14.99428"><ele>44.0</ele><time>2026-05-06T13:01:55.028Z</time></trkpt><trkpt lat="37.4644" lon="14.9945233"><ele>44.0</ele><time>2026-05-06T13:01:56.028Z</time></trkpt><trkpt lat="37.464335" lon="14.9947633"><ele>44.0</ele><time>2026-05-06T13:01:57.028Z</time></trkpt><trkpt lat="37.4642667" lon="14.9950033"><ele>44.0</ele><time>2026-05-06T13:01:58.028Z</time></trkpt><trkpt lat="37.4641917" lon="14.9952467"><ele>44.33333333333333</ele><time>2026-05-06T13:01:59.028Z</time></trkpt><trkpt lat="37.4641217" lon="14.99549"><ele>44.666666666666664</ele><time>2026-05-06T13:02:00.028Z</time></trkpt><trkpt lat="37.464055" lon="14.9957267"><ele>45.0</ele><time>2026-05-06T13:02:01.028Z</time></trkpt><trkpt lat="37.4639933" lon="14.9959583"><ele>45.333333333333336</ele><time>2026-05-06T13:02:02.028Z</time></trkpt><trkpt lat="37.4639267" lon="14.9961883"><ele>45.66666666666667</ele><time>2026-05-06T13:02:03.028Z</time></trkpt><trkpt lat="37.4638583" lon="14.9964233"><ele>46.0</ele><time>2026-05-06T13:02:04.028Z</time></trkpt><trkpt lat="37.4637967" lon="14.9966517"><ele>44.333333333333336</ele><time>2026-05-06T13:02:05.028Z</time></trkpt><trkpt lat="37.4637317" lon="14.9968883"><ele>42.666666666666664</ele><time>2026-05-06T13:02:06.028Z</time></trkpt><trkpt lat="37.463665" lon="14.9971233"><ele>41.0</ele><time>2026-05-06T13:02:07.028Z</time></trkpt><trkpt lat="37.4636017" lon="14.9973617"><ele>41.33333333333333</ele><time>2026-05-06T13:02:08.028Z</time></trkpt><trkpt lat="37.463535" lon="14.9976083"><ele>41.666666666666664</ele><time>2026-05-06T13:02:09.028Z</time></trkpt><trkpt lat="37.4634667" lon="14.9978633"><ele>42.0</ele><time>2026-05-06T13:02:10.028Z</time></trkpt><trkpt lat="37.4634067" lon="14.9981233"><ele>43.0</ele><time>2026-05-06T13:02:11.028Z</time></trkpt><trkpt lat="37.463335" lon="14.9984083"><ele>44.0</ele><time>2026-05-06T13:02:12.028Z</time></trkpt><trkpt lat="37.4632583" lon="14.9986967"><ele>44.0</ele><time>2026-05-06T13:02:13.028Z</time></trkpt><trkpt lat="37.46318" lon="14.9989833"><ele>44.0</ele><time>2026-05-06T13:02:14.028Z</time></trkpt><trkpt lat="37.4631033" lon="14.9992733"><ele>45.5</ele><time>2026-05-06T13:02:15.028Z</time></trkpt><trkpt lat="37.4630217" lon="14.99957"><ele>47.0</ele><time>2026-05-06T13:02:16.028Z</time></trkpt><trkpt lat="37.4629383" lon="14.999875"><ele>43.5</ele><time>2026-05-06T13:02:17.028Z</time></trkpt><trkpt lat="37.46285" lon="15.0001933"><ele>40.0</ele><time>2026-05-06T13:02:18.028Z</time></trkpt><trkpt lat="37.4627617" lon="15.0005167"><ele>40.5</ele><time>2026-05-06T13:02:19.028Z</time></trkpt><trkpt lat="37.46267" lon="15.0008467"><ele>41.0</ele><time>2026-05-06T13:02:20.028Z</time></trkpt><trkpt lat="37.4625733" lon="15.0011817"><ele>41.0</ele><time>2026-05-06T13:02:21.028Z</time></trkpt><trkpt lat="37.46248" lon="15.00151"><ele>41.0</ele><time>2026-05-06T13:02:22.028Z</time></trkpt><trkpt lat="37.4623833" lon="15.001825"><ele>41.5</ele><time>2026-05-06T13:02:23.028Z</time></trkpt><trkpt lat="37.4622883" lon="15.0021433"><ele>42.0</ele><time>2026-05-06T13:02:24.027Z</time></trkpt><trkpt lat="37.462205" lon="15.0024667"><ele>39.5</ele><time>2026-05-06T13:02:25.028Z</time></trkpt><trkpt lat="37.4621117" lon="15.0027817"><ele>37.0</ele><time>2026-05-06T13:02:26.028Z</time></trkpt><trkpt lat="37.46203" lon="15.0030933"><ele>36.0</ele><time>2026-05-06T13:02:27.028Z</time></trkpt><trkpt lat="37.461945" lon="15.0034033"><ele>35.0</ele><time>2026-05-06T13:02:28.028Z</time></trkpt><trkpt lat="37.4618683" lon="15.0037"><ele>35.0</ele><time>2026-05-06T13:02:29.028Z</time></trkpt><trkpt lat="37.4618017" lon="15.0039917"><ele>35.0</ele><time>2026-05-06T13:02:30.028Z</time></trkpt><trkpt lat="37.4617517" lon="15.004275"><ele>35.33333333333333</ele><time>2026-05-06T13:02:31.028Z</time></trkpt><trkpt lat="37.4617183" lon="15.0045483"><ele>35.666666666666664</ele><time>2026-05-06T13:02:32.028Z</time></trkpt><trkpt lat="37.4616883" lon="15.004815"><ele>36.0</ele><time>2026-05-06T13:02:33.028Z</time></trkpt><trkpt lat="37.4616633" lon="15.005075"><ele>36.0</ele><time>2026-05-06T13:02:34.028Z</time></trkpt><trkpt lat="37.4616467" lon="15.00533"><ele>36.0</ele><time>2026-05-06T13:02:35.028Z</time></trkpt><trkpt lat="37.4616317" lon="15.0055933"><ele>36.0</ele><time>2026-05-06T13:02:36.028Z</time></trkpt><trkpt lat="37.46162" lon="15.0058517"><ele>37.333333333333336</ele><time>2026-05-06T13:02:37.028Z</time></trkpt><trkpt lat="37.46162" lon="15.006105"><ele>38.66666666666667</ele><time>2026-05-06T13:02:38.028Z</time></trkpt><trkpt lat="37.4616217" lon="15.0063517"><ele>40.0</ele><time>2026-05-06T13:02:39.028Z</time></trkpt><trkpt lat="37.4616317" lon="15.006595"><ele>41.0</ele><time>2026-05-06T13:02:40.028Z</time></trkpt><trkpt lat="37.4616467" lon="15.00683"><ele>42.0</ele><time>2026-05-06T13:02:41.028Z</time></trkpt><trkpt lat="37.4616667" lon="15.00707"><ele>43.0</ele><time>2026-05-06T13:02:42.028Z</time></trkpt><trkpt lat="37.461695" lon="15.0073067"><ele>43.333333333333336</ele><time>2026-05-06T13:02:43.028Z</time></trkpt><trkpt lat="37.461735" lon="15.0075533"><ele>43.666666666666664</ele><time>2026-05-06T13:02:44.028Z</time></trkpt><trkpt lat="37.46178" lon="15.0078233"><ele>44.0</ele><time>2026-05-06T13:02:45.028Z</time></trkpt><trkpt lat="37.46184" lon="15.0081133"><ele>45.0</ele><time>2026-05-06T13:02:46.028Z</time></trkpt><trkpt lat="37.461915" lon="15.0084217"><ele>46.0</ele><time>2026-05-06T13:02:47.028Z</time></trkpt><trkpt lat="37.4619917" lon="15.008755"><ele>46.0</ele><time>2026-05-06T13:02:48.028Z</time></trkpt><trkpt lat="37.4620817" lon="15.0091033"><ele>46.0</ele><time>2026-05-06T13:02:49.028Z</time></trkpt><trkpt lat="37.4621867" lon="15.00945"><ele>47.0</ele><time>2026-05-06T13:02:50.028Z</time></trkpt><trkpt lat="37.462295" lon="15.0097817"><ele>48.0</ele><time>2026-05-06T13:02:51.028Z</time></trkpt><trkpt lat="37.46241" lon="15.0100983"><ele>48.0</ele><time>2026-05-06T13:02:52.028Z</time></trkpt><trkpt lat="37.4625383" lon="15.0104067"><ele>48.0</ele><time>2026-05-06T13:02:53.028Z</time></trkpt><trkpt lat="37.4626733" lon="15.0107117"><ele>48.0</ele><time>2026-05-06T13:02:54.028Z</time></trkpt><trkpt lat="37.4628183" lon="15.0110033"><ele>48.0</ele><time>2026-05-06T13:02:55.028Z</time></trkpt><trkpt lat="37.4629667" lon="15.01129"><ele>48.0</ele><time>2026-05-06T13:02:56.028Z</time></trkpt><trkpt lat="37.4631267" lon="15.0115717"><ele>48.0</ele><time>2026-05-06T13:02:57.028Z</time></trkpt><trkpt lat="37.4632833" lon="15.01185"><ele>45.5</ele><time>2026-05-06T13:02:58.028Z</time></trkpt><trkpt lat="37.463435" lon="15.0121283"><ele>43.0</ele><time>2026-05-06T13:02:59.028Z</time></trkpt><trkpt lat="37.4635883" lon="15.0124117"><ele>44.5</ele><time>2026-05-06T13:03:00.028Z</time></trkpt><trkpt lat="37.46374" lon="15.012695"><ele>46.0</ele><time>2026-05-06T13:03:01.028Z</time></trkpt><trkpt lat="37.4638867" lon="15.0129783"><ele>46.0</ele><time>2026-05-06T13:03:02.028Z</time></trkpt><trkpt lat="37.4640317" lon="15.0132617"><ele>46.0</ele><time>2026-05-06T13:03:03.027Z</time></trkpt><trkpt lat="37.464175" lon="15.0135467"><ele>45.5</ele><time>2026-05-06T13:03:04.028Z</time></trkpt><trkpt lat="37.46431" lon="15.0138383"><ele>45.0</ele><time>2026-05-06T13:03:05.028Z</time></trkpt><trkpt lat="37.46443" lon="15.014135"><ele>46.5</ele><time>2026-05-06T13:03:06.028Z</time></trkpt><trkpt lat="37.464535" lon="15.0144433"><ele>48.0</ele><time>2026-05-06T13:03:07.028Z</time></trkpt><trkpt lat="37.4646417" lon="15.0147517"><ele>43.5</ele><time>2026-05-06T13:03:08.028Z</time></trkpt><trkpt lat="37.4647367" lon="15.015065"><ele>39.0</ele><time>2026-05-06T13:03:09.028Z</time></trkpt><trkpt lat="37.464825" lon="15.0153933"><ele>39.0</ele><time>2026-05-06T13:03:10.028Z</time></trkpt><trkpt lat="37.4648967" lon="15.0157233"><ele>39.0</ele><time>2026-05-06T13:03:11.028Z</time></trkpt><trkpt lat="37.4649667" lon="15.0160483"><ele>38.5</ele><time>2026-05-06T13:03:12.028Z</time></trkpt><trkpt lat="37.4650267" lon="15.0163783"><ele>38.0</ele><time>2026-05-06T13:03:13.028Z</time></trkpt><trkpt lat="37.465085" lon="15.0167017"><ele>37.5</ele><time>2026-05-06T13:03:14.028Z</time></trkpt><trkpt lat="37.46514" lon="15.0170217"><ele>37.0</ele><time>2026-05-06T13:03:15.028Z</time></trkpt><trkpt lat="37.4651933" lon="15.017345"><ele>36.5</ele><time>2026-05-06T13:03:16.028Z</time></trkpt><trkpt lat="37.4652467" lon="15.0176633"><ele>36.0</ele><time>2026-05-06T13:03:17.028Z</time></trkpt><trkpt lat="37.4653017" lon="15.0179767"><ele>36.0</ele><time>2026-05-06T13:03:18.028Z</time></trkpt><trkpt lat="37.4653583" lon="15.018295"><ele>36.0</ele><time>2026-05-06T13:03:19.028Z</time></trkpt><trkpt lat="37.4654133" lon="15.0186033"><ele>40.0</ele><time>2026-05-06T13:03:20.027Z</time></trkpt><trkpt lat="37.4654683" lon="15.0189117"><ele>44.0</ele><time>2026-05-06T13:03:21.028Z</time></trkpt><trkpt lat="37.46552" lon="15.0192117"><ele>44.5</ele><time>2026-05-06T13:03:22.028Z</time></trkpt><trkpt lat="37.465575" lon="15.0195067"><ele>45.0</ele><time>2026-05-06T13:03:23.028Z</time></trkpt><trkpt lat="37.4656283" lon="15.019805"><ele>45.5</ele><time>2026-05-06T13:03:24.028Z</time></trkpt><trkpt lat="37.4656817" lon="15.0200933"><ele>46.0</ele><time>2026-05-06T13:03:25.028Z</time></trkpt><trkpt lat="37.4657417" lon="15.0203717"><ele>46.0</ele><time>2026-05-06T13:03:26.028Z</time></trkpt><trkpt lat="37.4658017" lon="15.02064"><ele>46.0</ele><time>2026-05-06T13:03:27.028Z</time></trkpt><trkpt lat="37.46587" lon="15.0209"><ele>46.0</ele><time>2026-05-06T13:03:28.028Z</time></trkpt><trkpt lat="37.46594" lon="15.0211583"><ele>44.66666666666667</ele><time>2026-05-06T13:03:29.027Z</time></trkpt><trkpt lat="37.4660183" lon="15.021405"><ele>43.333333333333336</ele><time>2026-05-06T13:03:30.028Z</time></trkpt><trkpt lat="37.46609" lon="15.021645"><ele>42.0</ele><time>2026-05-06T13:03:31.028Z</time></trkpt><trkpt lat="37.466165" lon="15.02188"><ele>42.0</ele><time>2026-05-06T13:03:32.028Z</time></trkpt><trkpt lat="37.466235" lon="15.0221067"><ele>42.0</ele><time>2026-05-06T13:03:33.028Z</time></trkpt><trkpt lat="37.4663033" lon="15.0223217"><ele>42.0</ele><time>2026-05-06T13:03:34.028Z</time></trkpt><trkpt lat="37.4663683" lon="15.02253"><ele>43.666666666666664</ele><time>2026-05-06T13:03:35.028Z</time></trkpt><trkpt lat="37.4664367" lon="15.02272"><ele>45.33333333333333</ele><time>2026-05-06T13:03:36.028Z</time></trkpt><trkpt lat="37.4664817" lon="15.0229167"><ele>47.0</ele><time>2026-05-06T13:03:37.028Z</time></trkpt><trkpt lat="37.4665267" lon="15.0230833"><ele>47.0</ele><time>2026-05-06T13:03:38.027Z</time></trkpt><trkpt lat="37.4665733" lon="15.0232367"><ele>47.0</ele><time>2026-05-06T13:03:39.028Z</time></trkpt><trkpt lat="37.4666067" lon="15.0233867"><ele>47.0</ele><time>2026-05-06T13:03:40.028Z</time></trkpt><trkpt lat="37.466625" lon="15.0235367"><ele>47.0</ele><time>2026-05-06T13:03:41.028Z</time></trkpt><trkpt lat="37.4666183" lon="15.0236733"><ele>45.5</ele><time>2026-05-06T13:03:42.028Z</time></trkpt><trkpt lat="37.466585" lon="15.02381"><ele>44.0</ele><time>2026-05-06T13:03:43.028Z</time></trkpt><trkpt lat="37.4665183" lon="15.0239283"><ele>42.5</ele><time>2026-05-06T13:03:44.028Z</time></trkpt><trkpt lat="37.4664233" lon="15.0240117"><ele>41.0</ele><time>2026-05-06T13:03:45.028Z</time></trkpt><trkpt lat="37.4663183" lon="15.0240483"><ele>41.8</ele><time>2026-05-06T13:03:46.028Z</time></trkpt><trkpt lat="37.4662083" lon="15.0240683"><ele>42.599999999999994</ele><time>2026-05-06T13:03:47.028Z</time></trkpt><trkpt lat="37.4661" lon="15.0240517"><ele>43.4</ele><time>2026-05-06T13:03:48.028Z</time></trkpt><trkpt lat="37.4660067" lon="15.0240067"><ele>44.2</ele><time>2026-05-06T13:03:49.028Z</time></trkpt><trkpt lat="37.4659217" lon="15.0239383"><ele>45.0</ele><time>2026-05-06T13:03:50.027Z</time></trkpt><trkpt lat="37.4658567" lon="15.0238433"><ele>45.0</ele><time>2026-05-06T13:03:51.028Z</time></trkpt><trkpt lat="37.46581" lon="15.023745"><ele>45.0</ele><time>2026-05-06T13:03:52.028Z</time></trkpt><trkpt lat="37.465785" lon="15.023655"><ele>45.0</ele><time>2026-05-06T13:03:53.028Z</time></trkpt><trkpt lat="37.4657733" lon="15.0235167"><ele>45.0</ele><time>2026-05-06T13:03:55.028Z</time></trkpt><trkpt lat="37.4657883" lon="15.0234083"><ele>45.0</ele><time>2026-05-06T13:03:58.028Z</time></trkpt><trkpt lat="37.46581" lon="15.0233183"><ele>45.0</ele><time>2026-05-06T13:04:01.028Z</time></trkpt><trkpt lat="37.4658467" lon="15.02322"><ele>44.666666666666664</ele><time>2026-05-06T13:04:03.028Z</time></trkpt><trkpt lat="37.4659133" lon="15.0231217"><ele>44.333333333333336</ele><time>2026-05-06T13:04:05.028Z</time></trkpt><trkpt lat="37.465965" lon="15.02307"><ele>44.0</ele><time>2026-05-06T13:04:06.028Z</time></trkpt><trkpt lat="37.4660233" lon="15.02301"><ele>43.66666666666667</ele><time>2026-05-06T13:04:07.028Z</time></trkpt><trkpt lat="37.4660883" lon="15.0229433"><ele>43.333333333333336</ele><time>2026-05-06T13:04:08.028Z</time></trkpt><trkpt lat="37.4661567" lon="15.0228667"><ele>43.0</ele><time>2026-05-06T13:04:09.028Z</time></trkpt><trkpt lat="37.4662383" lon="15.0227883"><ele>42.75</ele><time>2026-05-06T13:04:10.028Z</time></trkpt><trkpt lat="37.46633" lon="15.0226983"><ele>42.5</ele><time>2026-05-06T13:04:11.028Z</time></trkpt><trkpt lat="37.4664233" lon="15.0226067"><ele>42.25</ele><time>2026-05-06T13:04:12.028Z</time></trkpt><trkpt lat="37.4665283" lon="15.02251"><ele>42.0</ele><time>2026-05-06T13:04:13.028Z</time></trkpt><trkpt lat="37.466635" lon="15.02241"><ele>42.0</ele><time>2026-05-06T13:04:14.028Z</time></trkpt><trkpt lat="37.4667467" lon="15.0223017"><ele>42.0</ele><time>2026-05-06T13:04:15.028Z</time></trkpt><trkpt lat="37.4668567" lon="15.022195"><ele>42.0</ele><time>2026-05-06T13:04:16.028Z</time></trkpt><trkpt lat="37.466975" lon="15.02209"><ele>42.0</ele><time>2026-05-06T13:04:17.028Z</time></trkpt><trkpt lat="37.4671017" lon="15.0219767"><ele>42.666666666666664</ele><time>2026-05-06T13:04:18.028Z</time></trkpt><trkpt lat="37.46723" lon="15.0218667"><ele>43.33333333333333</ele><time>2026-05-06T13:04:19.028Z</time></trkpt><trkpt lat="37.4673617" lon="15.0217433"><ele>44.0</ele><time>2026-05-06T13:04:20.028Z</time></trkpt><trkpt lat="37.4674983" lon="15.021615"><ele>44.0</ele><time>2026-05-06T13:04:21.028Z</time></trkpt><trkpt lat="37.46764" lon="15.021485"><ele>44.0</ele><time>2026-05-06T13:04:22.028Z</time></trkpt><trkpt lat="37.4677867" lon="15.021355"><ele>44.0</ele><time>2026-05-06T13:04:23.028Z</time></trkpt><trkpt lat="37.4679317" lon="15.021225"><ele>43.666666666666664</ele><time>2026-05-06T13:04:24.028Z</time></trkpt><trkpt lat="37.4680767" lon="15.0210883"><ele>43.333333333333336</ele><time>2026-05-06T13:04:25.028Z</time></trkpt><trkpt lat="37.468225" lon="15.0209533"><ele>43.0</ele><time>2026-05-06T13:04:26.028Z</time></trkpt><trkpt lat="37.4683767" lon="15.020805"><ele>43.0</ele><time>2026-05-06T13:04:27.028Z</time></trkpt><trkpt lat="37.4685383" lon="15.0206467"><ele>43.0</ele><time>2026-05-06T13:04:28.028Z</time></trkpt><trkpt lat="37.4687033" lon="15.0204833"><ele>43.0</ele><time>2026-05-06T13:04:29.028Z</time></trkpt><trkpt lat="37.4688767" lon="15.0203183"><ele>44.0</ele><time>2026-05-06T13:04:30.028Z</time></trkpt><trkpt lat="37.4690467" lon="15.020165"><ele>45.0</ele><time>2026-05-06T13:04:31.027Z</time></trkpt><trkpt lat="37.4692133" lon="15.020015"><ele>46.0</ele><time>2026-05-06T13:04:32.028Z</time></trkpt><trkpt lat="37.4693833" lon="15.0198533"><ele>46.0</ele><time>2026-05-06T13:04:33.028Z</time></trkpt><trkpt lat="37.4695583" lon="15.0196967"><ele>46.0</ele><time>2026-05-06T13:04:34.028Z</time></trkpt><trkpt lat="37.469735" lon="15.0195383"><ele>46.0</ele><time>2026-05-06T13:04:35.028Z</time></trkpt><trkpt lat="37.4699133" lon="15.01938"><ele>46.0</ele><time>2026-05-06T13:04:36.028Z</time></trkpt><trkpt lat="37.4700967" lon="15.0192117"><ele>46.0</ele><time>2026-05-06T13:04:37.027Z</time></trkpt><trkpt lat="37.4702817" lon="15.0190417"><ele>45.5</ele><time>2026-05-06T13:04:38.028Z</time></trkpt><trkpt lat="37.47046" lon="15.018875"><ele>45.0</ele><time>2026-05-06T13:04:39.028Z</time></trkpt><trkpt lat="37.4706467" lon="15.0187017"><ele>45.0</ele><time>2026-05-06T13:04:40.028Z</time></trkpt><trkpt lat="37.4708417" lon="15.0185217"><ele>45.0</ele><time>2026-05-06T13:04:41.028Z</time></trkpt><trkpt lat="37.471045" lon="15.018335"><ele>46.0</ele><time>2026-05-06T13:04:42.028Z</time></trkpt><trkpt lat="37.4712533" lon="15.01815"><ele>47.0</ele><time>2026-05-06T13:04:43.027Z</time></trkpt><trkpt lat="37.4714683" lon="15.01796"><ele>47.5</ele><time>2026-05-06T13:04:44.028Z</time></trkpt><trkpt lat="37.471675" lon="15.017765"><ele>48.0</ele><time>2026-05-06T13:04:45.028Z</time></trkpt><trkpt lat="37.4718867" lon="15.0175733"><ele>47.5</ele><time>2026-05-06T13:04:46.028Z</time></trkpt><trkpt lat="37.4720983" lon="15.017385"><ele>47.0</ele><time>2026-05-06T13:04:47.028Z</time></trkpt><trkpt lat="37.472315" lon="15.0172033"><ele>48.5</ele><time>2026-05-06T13:04:48.028Z</time></trkpt><trkpt lat="37.4725317" lon="15.0170233"><ele>50.0</ele><time>2026-05-06T13:04:49.028Z</time></trkpt><trkpt lat="37.4727517" lon="15.016845"><ele>50.0</ele><time>2026-05-06T13:04:50.027Z</time></trkpt><trkpt lat="37.472975" lon="15.0166683"><ele>50.0</ele><time>2026-05-06T13:04:51.028Z</time></trkpt><trkpt lat="37.4731933" lon="15.016495"><ele>50.5</ele><time>2026-05-06T13:04:52.028Z</time></trkpt><trkpt lat="37.4734133" lon="15.0163283"><ele>51.0</ele><time>2026-05-06T13:04:53.028Z</time></trkpt><trkpt lat="37.473635" lon="15.01617"><ele>51.0</ele><time>2026-05-06T13:04:54.027Z</time></trkpt><trkpt lat="37.4738633" lon="15.0160083"><ele>51.0</ele><time>2026-05-06T13:04:55.027Z</time></trkpt><trkpt lat="37.4740967" lon="15.0158533"><ele>50.5</ele><time>2026-05-06T13:04:56.028Z</time></trkpt><trkpt lat="37.4743267" lon="15.0157033"><ele>50.0</ele><time>2026-05-06T13:04:57.028Z</time></trkpt><trkpt lat="37.47456" lon="15.0155617"><ele>52.0</ele><time>2026-05-06T13:04:58.028Z</time></trkpt><trkpt lat="37.4747933" lon="15.0154167"><ele>54.0</ele><time>2026-05-06T13:04:59.028Z</time></trkpt><trkpt lat="37.475025" lon="15.0152767"><ele>54.0</ele><time>2026-05-06T13:05:00.028Z</time></trkpt><trkpt lat="37.47526" lon="15.0151383"><ele>54.0</ele><time>2026-05-06T13:05:01.028Z</time></trkpt><trkpt lat="37.4754917" lon="15.0150017"><ele>55.5</ele><time>2026-05-06T13:05:02.028Z</time></trkpt><trkpt lat="37.47573" lon="15.014865"><ele>57.0</ele><time>2026-05-06T13:05:03.028Z</time></trkpt><trkpt lat="37.4759683" lon="15.0147367"><ele>57.0</ele><time>2026-05-06T13:05:04.028Z</time></trkpt><trkpt lat="37.4762083" lon="15.01461"><ele>57.0</ele><time>2026-05-06T13:05:05.027Z</time></trkpt><trkpt lat="37.47645" lon="15.0144833"><ele>58.0</ele><time>2026-05-06T13:05:06.027Z</time></trkpt><trkpt lat="37.4766933" lon="15.0143667"><ele>59.0</ele><time>2026-05-06T13:05:07.027Z</time></trkpt><trkpt lat="37.4769333" lon="15.0142483"><ele>61.0</ele><time>2026-05-06T13:05:08.027Z</time></trkpt><trkpt lat="37.47718" lon="15.0141383"><ele>63.0</ele><time>2026-05-06T13:05:09.027Z</time></trkpt><trkpt lat="37.47742" lon="15.0140283"><ele>63.0</ele><time>2026-05-06T13:05:10.027Z</time></trkpt><trkpt lat="37.4776667" lon="15.0139217"><ele>63.0</ele><time>2026-05-06T13:05:11.027Z</time></trkpt><trkpt lat="37.477915" lon="15.0138217"><ele>62.5</ele><time>2026-05-06T13:05:12.027Z</time></trkpt><trkpt lat="37.4781617" lon="15.0137233"><ele>62.0</ele><time>2026-05-06T13:05:13.027Z</time></trkpt><trkpt lat="37.4784133" lon="15.013635"><ele>62.0</ele><time>2026-05-06T13:05:14.027Z</time></trkpt><trkpt lat="37.4786617" lon="15.01354"><ele>62.0</ele><time>2026-05-06T13:05:15.027Z</time></trkpt><trkpt lat="37.478915" lon="15.0134533"><ele>62.0</ele><time>2026-05-06T13:05:16.027Z</time></trkpt><trkpt lat="37.4791683" lon="15.01337"><ele>62.0</ele><time>2026-05-06T13:05:17.027Z</time></trkpt><trkpt lat="37.479415" lon="15.0132917"><ele>65.0</ele><time>2026-05-06T13:05:18.027Z</time></trkpt><trkpt lat="37.4796667" lon="15.0132167"><ele>68.0</ele><time>2026-05-06T13:05:19.027Z</time></trkpt><trkpt lat="37.4799283" lon="15.0131467"><ele>68.0</ele><time>2026-05-06T13:05:20.027Z</time></trkpt><trkpt lat="37.4801817" lon="15.0130733"><ele>68.0</ele><time>2026-05-06T13:05:21.027Z</time></trkpt><trkpt lat="37.480435" lon="15.0130117"><ele>68.5</ele><time>2026-05-06T13:05:22.027Z</time></trkpt><trkpt lat="37.4806867" lon="15.012955"><ele>69.0</ele><time>2026-05-06T13:05:23.027Z</time></trkpt><trkpt lat="37.4809317" lon="15.0128967"><ele>69.0</ele><time>2026-05-06T13:05:24.027Z</time></trkpt><trkpt lat="37.4811633" lon="15.0128483"><ele>69.0</ele><time>2026-05-06T13:05:25.027Z</time></trkpt><trkpt lat="37.4813817" lon="15.0128067"><ele>69.33333333333333</ele><time>2026-05-06T13:05:26.027Z</time></trkpt><trkpt lat="37.4815967" lon="15.01277"><ele>69.66666666666666</ele><time>2026-05-06T13:05:27.027Z</time></trkpt><trkpt lat="37.4818083" lon="15.0127317"><ele>70.0</ele><time>2026-05-06T13:05:28.027Z</time></trkpt><trkpt lat="37.48202" lon="15.0126833"><ele>71.33333333333333</ele><time>2026-05-06T13:05:29.027Z</time></trkpt><trkpt lat="37.48224" lon="15.012635"><ele>72.66666666666667</ele><time>2026-05-06T13:05:30.027Z</time></trkpt><trkpt lat="37.4824617" lon="15.012595"><ele>74.0</ele><time>2026-05-06T13:05:31.027Z</time></trkpt><trkpt lat="37.482685" lon="15.012565"><ele>74.0</ele><time>2026-05-06T13:05:32.027Z</time></trkpt><trkpt lat="37.4829117" lon="15.01254"><ele>74.0</ele><time>2026-05-06T13:05:33.027Z</time></trkpt><trkpt lat="37.48314" lon="15.0125167"><ele>75.5</ele><time>2026-05-06T13:05:34.027Z</time></trkpt><trkpt lat="37.4833667" lon="15.0125017"><ele>77.0</ele><time>2026-05-06T13:05:35.027Z</time></trkpt><trkpt lat="37.4835983" lon="15.0125017"><ele>81.5</ele><time>2026-05-06T13:05:36.027Z</time></trkpt><trkpt lat="37.4838283" lon="15.01251"><ele>86.0</ele><time>2026-05-06T13:05:37.027Z</time></trkpt><trkpt lat="37.4840567" lon="15.0125183"><ele>86.0</ele><time>2026-05-06T13:05:38.027Z</time></trkpt><trkpt lat="37.4842817" lon="15.0125317"><ele>86.0</ele><time>2026-05-06T13:05:39.027Z</time></trkpt><trkpt lat="37.4845067" lon="15.0125467"><ele>88.0</ele><time>2026-05-06T13:05:40.027Z</time></trkpt><trkpt lat="37.4847283" lon="15.01257"><ele>90.0</ele><time>2026-05-06T13:05:41.027Z</time></trkpt><trkpt lat="37.4849567" lon="15.0125983"><ele>90.0</ele><time>2026-05-06T13:05:42.027Z</time></trkpt><trkpt lat="37.4851733" lon="15.0126183"><ele>90.0</ele><time>2026-05-06T13:05:43.027Z</time></trkpt><trkpt lat="37.4853767" lon="15.0126483"><ele>90.0</ele><time>2026-05-06T13:05:44.027Z</time></trkpt><trkpt lat="37.485575" lon="15.0126883"><ele>91.33333333333333</ele><time>2026-05-06T13:05:45.027Z</time></trkpt><trkpt lat="37.4857633" lon="15.012735"><ele>92.66666666666666</ele><time>2026-05-06T13:05:46.027Z</time></trkpt><trkpt lat="37.4859417" lon="15.0127833"><ele>94.0</ele><time>2026-05-06T13:05:47.027Z</time></trkpt><trkpt lat="37.4861033" lon="15.01282"><ele>94.0</ele><time>2026-05-06T13:05:48.027Z</time></trkpt><trkpt lat="37.48626" lon="15.01286"><ele>94.0</ele><time>2026-05-06T13:05:49.027Z</time></trkpt><trkpt lat="37.4864067" lon="15.012905"><ele>94.0</ele><time>2026-05-06T13:05:50.027Z</time></trkpt><trkpt lat="37.4865433" lon="15.01295"><ele>94.25</ele><time>2026-05-06T13:05:51.027Z</time></trkpt><trkpt lat="37.4866683" lon="15.0129983"><ele>94.5</ele><time>2026-05-06T13:05:52.027Z</time></trkpt><trkpt lat="37.4867917" lon="15.0130367"><ele>94.75</ele><time>2026-05-06T13:05:53.027Z</time></trkpt><trkpt lat="37.4869067" lon="15.0130817"><ele>95.0</ele><time>2026-05-06T13:05:54.027Z</time></trkpt><trkpt lat="37.4870117" lon="15.0131283"><ele>96.2</ele><time>2026-05-06T13:05:55.027Z</time></trkpt><trkpt lat="37.487105" lon="15.0131917"><ele>97.4</ele><time>2026-05-06T13:05:56.027Z</time></trkpt><trkpt lat="37.4872067" lon="15.0132517"><ele>98.6</ele><time>2026-05-06T13:05:57.027Z</time></trkpt><trkpt lat="37.487305" lon="15.0133067"><ele>99.8</ele><time>2026-05-06T13:05:58.027Z</time></trkpt><trkpt lat="37.4874067" lon="15.0133583"><ele>101.0</ele><time>2026-05-06T13:05:59.027Z</time></trkpt><trkpt lat="37.48752" lon="15.0134117"><ele>101.0</ele><time>2026-05-06T13:06:00.027Z</time></trkpt><trkpt lat="37.4876383" lon="15.013465"><ele>101.0</ele><time>2026-05-06T13:06:01.027Z</time></trkpt><trkpt lat="37.4877667" lon="15.0135267"><ele>101.0</ele><time>2026-05-06T13:06:02.027Z</time></trkpt><trkpt lat="37.4878867" lon="15.0135817"><ele>101.0</ele><time>2026-05-06T13:06:03.026Z</time></trkpt><trkpt lat="37.4879967" lon="15.01364"><ele>102.0</ele><time>2026-05-06T13:06:04.027Z</time></trkpt><trkpt lat="37.4881033" lon="15.013695"><ele>103.0</ele><time>2026-05-06T13:06:05.026Z</time></trkpt><trkpt lat="37.4882017" lon="15.0137517"><ele>104.0</ele><time>2026-05-06T13:06:06.027Z</time></trkpt><trkpt lat="37.4882967" lon="15.0138017"><ele>105.0</ele><time>2026-05-06T13:06:07.027Z</time></trkpt><trkpt lat="37.4883833" lon="15.0138433"><ele>106.0</ele><time>2026-05-06T13:06:08.027Z</time></trkpt><trkpt lat="37.4884633" lon="15.0138967"><ele>106.0</ele><time>2026-05-06T13:06:09.027Z</time></trkpt><trkpt lat="37.488545" lon="15.0139583"><ele>106.0</ele><time>2026-05-06T13:06:10.027Z</time></trkpt><trkpt lat="37.4886283" lon="15.0140117"><ele>106.0</ele><time>2026-05-06T13:06:11.027Z</time></trkpt><trkpt lat="37.4887083" lon="15.0140667"><ele>106.0</ele><time>2026-05-06T13:06:12.027Z</time></trkpt><trkpt lat="37.488795" lon="15.014125"><ele>106.0</ele><time>2026-05-06T13:06:13.027Z</time></trkpt><trkpt lat="37.4888817" lon="15.0141783"><ele>106.8</ele><time>2026-05-06T13:06:14.027Z</time></trkpt><trkpt lat="37.48897" lon="15.0142367"><ele>107.6</ele><time>2026-05-06T13:06:15.027Z</time></trkpt><trkpt lat="37.4890617" lon="15.0142983"><ele>108.4</ele><time>2026-05-06T13:06:16.027Z</time></trkpt><trkpt lat="37.489155" lon="15.014375"><ele>109.2</ele><time>2026-05-06T13:06:17.027Z</time></trkpt><trkpt lat="37.48926" lon="15.0144567"><ele>110.0</ele><time>2026-05-06T13:06:18.027Z</time></trkpt><trkpt lat="37.4893717" lon="15.0145433"><ele>110.0</ele><time>2026-05-06T13:06:19.027Z</time></trkpt><trkpt lat="37.489495" lon="15.0146383"><ele>110.0</ele><time>2026-05-06T13:06:20.027Z</time></trkpt><trkpt lat="37.4896167" lon="15.0147333"><ele>110.0</ele><time>2026-05-06T13:06:21.027Z</time></trkpt><trkpt lat="37.4897433" lon="15.014825"><ele>110.0</ele><time>2026-05-06T13:06:22.027Z</time></trkpt><trkpt lat="37.48987" lon="15.0149317"><ele>110.66666666666666</ele><time>2026-05-06T13:06:23.027Z</time></trkpt><trkpt lat="37.4900033" lon="15.0150517"><ele>111.33333333333334</ele><time>2026-05-06T13:06:24.027Z</time></trkpt><trkpt lat="37.4901367" lon="15.0151767"><ele>112.0</ele><time>2026-05-06T13:06:25.027Z</time></trkpt><trkpt lat="37.490275" lon="15.015305"><ele>112.0</ele><time>2026-05-06T13:06:26.027Z</time></trkpt><trkpt lat="37.4904167" lon="15.0154317"><ele>112.0</ele><time>2026-05-06T13:06:27.027Z</time></trkpt><trkpt lat="37.4905517" lon="15.01558"><ele>112.0</ele><time>2026-05-06T13:06:28.027Z</time></trkpt><trkpt lat="37.49069" lon="15.0157117"><ele>113.33333333333334</ele><time>2026-05-06T13:06:29.027Z</time></trkpt><trkpt lat="37.4908233" lon="15.0158467"><ele>114.66666666666666</ele><time>2026-05-06T13:06:30.027Z</time></trkpt><trkpt lat="37.4909567" lon="15.015995"><ele>116.0</ele><time>2026-05-06T13:06:31.027Z</time></trkpt><trkpt lat="37.491095" lon="15.0161433"><ele>116.0</ele><time>2026-05-06T13:06:32.027Z</time></trkpt><trkpt lat="37.491225" lon="15.0162967"><ele>116.0</ele><time>2026-05-06T13:06:33.027Z</time></trkpt><trkpt lat="37.49135" lon="15.01645"><ele>116.0</ele><time>2026-05-06T13:06:34.027Z</time></trkpt><trkpt lat="37.49147" lon="15.016605"><ele>116.0</ele><time>2026-05-06T13:06:35.027Z</time></trkpt><trkpt lat="37.4915867" lon="15.016755"><ele>116.0</ele><time>2026-05-06T13:06:36.027Z</time></trkpt><trkpt lat="37.491705" lon="15.0169133"><ele>116.0</ele><time>2026-05-06T13:06:37.027Z</time></trkpt><trkpt lat="37.4918167" lon="15.0170967"><ele>116.0</ele><time>2026-05-06T13:06:38.027Z</time></trkpt><trkpt lat="37.4919383" lon="15.01725"><ele>116.0</ele><time>2026-05-06T13:06:39.027Z</time></trkpt><trkpt lat="37.4920567" lon="15.0174133"><ele>116.0</ele><time>2026-05-06T13:06:40.027Z</time></trkpt><trkpt lat="37.4921733" lon="15.01758"><ele>117.66666666666666</ele><time>2026-05-06T13:06:41.027Z</time></trkpt><trkpt lat="37.49229" lon="15.017755"><ele>119.33333333333334</ele><time>2026-05-06T13:06:42.027Z</time></trkpt><trkpt lat="37.4924033" lon="15.0179333"><ele>121.0</ele><time>2026-05-06T13:06:43.027Z</time></trkpt><trkpt lat="37.49252" lon="15.0181133"><ele>121.0</ele><time>2026-05-06T13:06:44.027Z</time></trkpt><trkpt lat="37.4926383" lon="15.0182983"><ele>121.0</ele><time>2026-05-06T13:06:45.027Z</time></trkpt><trkpt lat="37.4927533" lon="15.0184817"><ele>121.0</ele><time>2026-05-06T13:06:46.027Z</time></trkpt><trkpt lat="37.49287" lon="15.0186683"><ele>121.66666666666667</ele><time>2026-05-06T13:06:47.027Z</time></trkpt><trkpt lat="37.49299" lon="15.0188533"><ele>122.33333333333334</ele><time>2026-05-06T13:06:48.027Z</time></trkpt><trkpt lat="37.4931117" lon="15.0190433"><ele>123.0</ele><time>2026-05-06T13:06:49.027Z</time></trkpt><trkpt lat="37.4932317" lon="15.0192333"><ele>123.0</ele><time>2026-05-06T13:06:50.027Z</time></trkpt><trkpt lat="37.4933517" lon="15.01942"><ele>123.0</ele><time>2026-05-06T13:06:51.027Z</time></trkpt><trkpt lat="37.4934733" lon="15.0196083"><ele>123.0</ele><time>2026-05-06T13:06:52.027Z</time></trkpt><trkpt lat="37.4935967" lon="15.0197933"><ele>123.0</ele><time>2026-05-06T13:06:53.027Z</time></trkpt><trkpt lat="37.4937167" lon="15.0199767"><ele>123.0</ele><time>2026-05-06T13:06:54.027Z</time></trkpt><trkpt lat="37.49384" lon="15.0201583"><ele>123.0</ele><time>2026-05-06T13:06:55.027Z</time></trkpt><trkpt lat="37.4939633" lon="15.02034"><ele>123.33333333333334</ele><time>2026-05-06T13:06:56.027Z</time></trkpt><trkpt lat="37.4940867" lon="15.0205183"><ele>123.66666666666667</ele><time>2026-05-06T13:06:57.026Z</time></trkpt><trkpt lat="37.4942167" lon="15.0206917"><ele>124.0</ele><time>2026-05-06T13:06:58.027Z</time></trkpt><trkpt lat="37.4943467" lon="15.0208683"><ele>126.66666666666667</ele><time>2026-05-06T13:06:59.027Z</time></trkpt><trkpt lat="37.4944767" lon="15.0210417"><ele>129.33333333333334</ele><time>2026-05-06T13:07:00.027Z</time></trkpt><trkpt lat="37.49461" lon="15.0212133"><ele>132.0</ele><time>2026-05-06T13:07:01.027Z</time></trkpt><trkpt lat="37.4947467" lon="15.021385"><ele>134.0</ele><time>2026-05-06T13:07:02.027Z</time></trkpt><trkpt lat="37.4948867" lon="15.021555"><ele>136.0</ele><time>2026-05-06T13:07:03.027Z</time></trkpt><trkpt lat="37.4950283" lon="15.0217217"><ele>138.0</ele><time>2026-05-06T13:07:04.027Z</time></trkpt><trkpt lat="37.4951783" lon="15.0218833"><ele>138.33333333333334</ele><time>2026-05-06T13:07:05.027Z</time></trkpt><trkpt lat="37.4953317" lon="15.0220367"><ele>138.66666666666669</ele><time>2026-05-06T13:07:06.027Z</time></trkpt><trkpt lat="37.49549" lon="15.0221833"><ele>139.0</ele><time>2026-05-06T13:07:07.027Z</time></trkpt><trkpt lat="37.4956517" lon="15.0223283"><ele>141.0</ele><time>2026-05-06T13:07:08.026Z</time></trkpt><trkpt lat="37.4958167" lon="15.0224683"><ele>143.0</ele><time>2026-05-06T13:07:09.027Z</time></trkpt><trkpt lat="37.4959833" lon="15.022605"><ele>145.0</ele><time>2026-05-06T13:07:10.027Z</time></trkpt><trkpt lat="37.49615" lon="15.02274"><ele>147.66666666666669</ele><time>2026-05-06T13:07:11.027Z</time></trkpt><trkpt lat="37.4963233" lon="15.0228717"><ele>150.33333333333334</ele><time>2026-05-06T13:07:12.027Z</time></trkpt><trkpt lat="37.4965" lon="15.0229933"><ele>153.0</ele><time>2026-05-06T13:07:13.027Z</time></trkpt><trkpt lat="37.4966783" lon="15.0231067"><ele>153.0</ele><time>2026-05-06T13:07:14.027Z</time></trkpt><trkpt lat="37.49686" lon="15.0232183"><ele>153.0</ele><time>2026-05-06T13:07:15.027Z</time></trkpt><trkpt lat="37.4970467" lon="15.02332"><ele>153.0</ele><time>2026-05-06T13:07:16.027Z</time></trkpt><trkpt lat="37.4972317" lon="15.0234083"><ele>156.33333333333334</ele><time>2026-05-06T13:07:17.027Z</time></trkpt><trkpt lat="37.49742" lon="15.0234917"><ele>159.66666666666669</ele><time>2026-05-06T13:07:18.027Z</time></trkpt><trkpt lat="37.497615" lon="15.02357"><ele>163.0</ele><time>2026-05-06T13:07:19.027Z</time></trkpt><trkpt lat="37.4978117" lon="15.0236433"><ele>165.0</ele><time>2026-05-06T13:07:20.027Z</time></trkpt><trkpt lat="37.498005" lon="15.0237067"><ele>167.0</ele><time>2026-05-06T13:07:21.027Z</time></trkpt><trkpt lat="37.4982017" lon="15.023765"><ele>169.0</ele><time>2026-05-06T13:07:22.027Z</time></trkpt><trkpt lat="37.4983983" lon="15.0238117"><ele>169.0</ele><time>2026-05-06T13:07:23.027Z</time></trkpt><trkpt lat="37.49859" lon="15.0238567"><ele>169.0</ele><time>2026-05-06T13:07:24.027Z</time></trkpt><trkpt lat="37.4987917" lon="15.0238933"><ele>169.0</ele><time>2026-05-06T13:07:25.027Z</time></trkpt><trkpt lat="37.4989933" lon="15.0239217"><ele>171.66666666666669</ele><time>2026-05-06T13:07:26.027Z</time></trkpt><trkpt lat="37.4991967" lon="15.0239317"><ele>174.33333333333334</ele><time>2026-05-06T13:07:27.027Z</time></trkpt><trkpt lat="37.4993967" lon="15.0239517"><ele>177.0</ele><time>2026-05-06T13:07:28.027Z</time></trkpt><trkpt lat="37.499605" lon="15.0239483"><ele>179.66666666666666</ele><time>2026-05-06T13:07:29.027Z</time></trkpt><trkpt lat="37.499815" lon="15.0239417"><ele>182.33333333333331</ele><time>2026-05-06T13:07:30.027Z</time></trkpt><trkpt lat="37.500025" lon="15.0239317"><ele>185.0</ele><time>2026-05-06T13:07:31.027Z</time></trkpt><trkpt lat="37.50023" lon="15.0239183"><ele>186.66666666666666</ele><time>2026-05-06T13:07:32.027Z</time></trkpt><trkpt lat="37.50043" lon="15.023895"><ele>188.33333333333334</ele><time>2026-05-06T13:07:33.027Z</time></trkpt><trkpt lat="37.5006283" lon="15.0238717"><ele>190.0</ele><time>2026-05-06T13:07:34.027Z</time></trkpt><trkpt lat="37.5008267" lon="15.023835"><ele>190.0</ele><time>2026-05-06T13:07:35.027Z</time></trkpt><trkpt lat="37.5010267" lon="15.0237917"><ele>190.0</ele><time>2026-05-06T13:07:36.027Z</time></trkpt><trkpt lat="37.5012233" lon="15.023745"><ele>190.0</ele><time>2026-05-06T13:07:37.027Z</time></trkpt><trkpt lat="37.5014183" lon="15.0236933"><ele>188.33333333333334</ele><time>2026-05-06T13:07:38.027Z</time></trkpt><trkpt lat="37.501605" lon="15.0236283"><ele>186.66666666666666</ele><time>2026-05-06T13:07:39.026Z</time></trkpt><trkpt lat="37.501785" lon="15.023555"><ele>185.0</ele><time>2026-05-06T13:07:40.027Z</time></trkpt><trkpt lat="37.5019733" lon="15.023475"><ele>186.0</ele><time>2026-05-06T13:07:41.027Z</time></trkpt><trkpt lat="37.5021567" lon="15.0233933"><ele>187.0</ele><time>2026-05-06T13:07:42.027Z</time></trkpt><trkpt lat="37.5023417" lon="15.023305"><ele>188.0</ele><time>2026-05-06T13:07:43.027Z</time></trkpt><trkpt lat="37.5025233" lon="15.0232083"><ele>189.0</ele><time>2026-05-06T13:07:44.027Z</time></trkpt><trkpt lat="37.502705" lon="15.02311"><ele>190.0</ele><time>2026-05-06T13:07:45.027Z</time></trkpt><trkpt lat="37.5028883" lon="15.023005"><ele>191.0</ele><time>2026-05-06T13:07:46.027Z</time></trkpt><trkpt lat="37.5030667" lon="15.0228967"><ele>191.0</ele><time>2026-05-06T13:07:47.027Z</time></trkpt><trkpt lat="37.5032383" lon="15.0227833"><ele>191.0</ele><time>2026-05-06T13:07:48.027Z</time></trkpt><trkpt lat="37.5034117" lon="15.0226767"><ele>191.0</ele><time>2026-05-06T13:07:49.027Z</time></trkpt><trkpt lat="37.5035767" lon="15.0225567"><ele>190.66666666666666</ele><time>2026-05-06T13:07:50.027Z</time></trkpt><trkpt lat="37.5037333" lon="15.0224367"><ele>190.33333333333334</ele><time>2026-05-06T13:07:51.027Z</time></trkpt><trkpt lat="37.5038867" lon="15.0223117"><ele>190.0</ele><time>2026-05-06T13:07:52.027Z</time></trkpt><trkpt lat="37.5040467" lon="15.0221867"><ele>190.0</ele><time>2026-05-06T13:07:53.027Z</time></trkpt><trkpt lat="37.5042183" lon="15.0220567"><ele>190.0</ele><time>2026-05-06T13:07:54.027Z</time></trkpt><trkpt lat="37.5043783" lon="15.0219133"><ele>190.0</ele><time>2026-05-06T13:07:55.027Z</time></trkpt><trkpt lat="37.5045383" lon="15.0217833"><ele>190.0</ele><time>2026-05-06T13:07:56.027Z</time></trkpt><trkpt lat="37.5047033" lon="15.02166"><ele>190.0</ele><time>2026-05-06T13:07:57.027Z</time></trkpt><trkpt lat="37.5048667" lon="15.0215283"><ele>190.0</ele><time>2026-05-06T13:07:58.027Z</time></trkpt><trkpt lat="37.50504" lon="15.02139"><ele>190.0</ele><time>2026-05-06T13:07:59.027Z</time></trkpt><trkpt lat="37.505215" lon="15.0212433"><ele>190.0</ele><time>2026-05-06T13:08:00.027Z</time></trkpt><trkpt lat="37.505395" lon="15.0210933"><ele>190.0</ele><time>2026-05-06T13:08:01.026Z</time></trkpt><trkpt lat="37.5055767" lon="15.02095"><ele>186.33333333333334</ele><time>2026-05-06T13:08:02.026Z</time></trkpt><trkpt lat="37.505765" lon="15.0208017"><ele>182.66666666666666</ele><time>2026-05-06T13:08:03.027Z</time></trkpt><trkpt lat="37.505955" lon="15.0206517"><ele>179.0</ele><time>2026-05-06T13:08:04.027Z</time></trkpt><trkpt lat="37.50615" lon="15.0205033"><ele>176.0</ele><time>2026-05-06T13:08:05.027Z</time></trkpt><trkpt lat="37.5063417" lon="15.02036"><ele>173.0</ele><time>2026-05-06T13:08:06.027Z</time></trkpt><trkpt lat="37.5065433" lon="15.02022"><ele>173.0</ele><time>2026-05-06T13:08:07.027Z</time></trkpt><trkpt lat="37.5067483" lon="15.0200917"><ele>173.0</ele><time>2026-05-06T13:08:08.027Z</time></trkpt><trkpt lat="37.5069567" lon="15.0199683"><ele>171.5</ele><time>2026-05-06T13:08:09.027Z</time></trkpt><trkpt lat="37.50717" lon="15.0198533"><ele>170.0</ele><time>2026-05-06T13:08:10.027Z</time></trkpt><trkpt lat="37.5073867" lon="15.019745"><ele>170.0</ele><time>2026-05-06T13:08:11.027Z</time></trkpt><trkpt lat="37.507605" lon="15.0196433"><ele>170.0</ele><time>2026-05-06T13:08:12.027Z</time></trkpt><trkpt lat="37.5078283" lon="15.0195517"><ele>169.0</ele><time>2026-05-06T13:08:13.027Z</time></trkpt><trkpt lat="37.5080517" lon="15.0194717"><ele>168.0</ele><time>2026-05-06T13:08:14.027Z</time></trkpt><trkpt lat="37.5082833" lon="15.0193983"><ele>168.0</ele><time>2026-05-06T13:08:15.027Z</time></trkpt><trkpt lat="37.508515" lon="15.0193367"><ele>168.0</ele><time>2026-05-06T13:08:16.027Z</time></trkpt><trkpt lat="37.5087417" lon="15.0192833"><ele>166.5</ele><time>2026-05-06T13:08:17.027Z</time></trkpt><trkpt lat="37.5089733" lon="15.01924"><ele>165.0</ele><time>2026-05-06T13:08:18.027Z</time></trkpt><trkpt lat="37.509205" lon="15.0192083"><ele>165.0</ele><time>2026-05-06T13:08:19.027Z</time></trkpt><trkpt lat="37.5094333" lon="15.0191817"><ele>165.0</ele><time>2026-05-06T13:08:20.027Z</time></trkpt><trkpt lat="37.509655" lon="15.0191617"><ele>164.0</ele><time>2026-05-06T13:08:21.027Z</time></trkpt><trkpt lat="37.5098717" lon="15.0191633"><ele>163.0</ele><time>2026-05-06T13:08:22.027Z</time></trkpt><trkpt lat="37.5100983" lon="15.0191533"><ele>162.0</ele><time>2026-05-06T13:08:23.026Z</time></trkpt><trkpt lat="37.510325" lon="15.01916"><ele>161.66666666666666</ele><time>2026-05-06T13:08:24.027Z</time></trkpt><trkpt lat="37.5105467" lon="15.0191783"><ele>161.33333333333331</ele><time>2026-05-06T13:08:25.027Z</time></trkpt><trkpt lat="37.5107567" lon="15.019205"><ele>161.0</ele><time>2026-05-06T13:08:26.027Z</time></trkpt><trkpt lat="37.5109617" lon="15.0192367"><ele>161.0</ele><time>2026-05-06T13:08:27.027Z</time></trkpt><trkpt lat="37.5111583" lon="15.0192717"><ele>161.0</ele><time>2026-05-06T13:08:28.027Z</time></trkpt><trkpt lat="37.5113483" lon="15.0192983"><ele>161.0</ele><time>2026-05-06T13:08:29.027Z</time></trkpt><trkpt lat="37.5115333" lon="15.019325"><ele>161.66666666666666</ele><time>2026-05-06T13:08:30.027Z</time></trkpt><trkpt lat="37.5117133" lon="15.019355"><ele>162.33333333333334</ele><time>2026-05-06T13:08:31.026Z</time></trkpt><trkpt lat="37.51189" lon="15.0193883"><ele>163.0</ele><time>2026-05-06T13:08:32.027Z</time></trkpt><trkpt lat="37.5120683" lon="15.0194217"><ele>162.33333333333334</ele><time>2026-05-06T13:08:33.027Z</time></trkpt><trkpt lat="37.512245" lon="15.0194483"><ele>161.66666666666666</ele><time>2026-05-06T13:08:34.027Z</time></trkpt><trkpt lat="37.5124233" lon="15.01947"><ele>161.0</ele><time>2026-05-06T13:08:35.027Z</time></trkpt><trkpt lat="37.5126033" lon="15.0195033"><ele>161.0</ele><time>2026-05-06T13:08:36.027Z</time></trkpt><trkpt lat="37.5127833" lon="15.0195283"><ele>161.0</ele><time>2026-05-06T13:08:37.027Z</time></trkpt><trkpt lat="37.51297" lon="15.0195667"><ele>161.0</ele><time>2026-05-06T13:08:38.027Z</time></trkpt><trkpt lat="37.5131633" lon="15.0195967"><ele>160.66666666666666</ele><time>2026-05-06T13:08:39.027Z</time></trkpt><trkpt lat="37.5133517" lon="15.019625"><ele>160.33333333333334</ele><time>2026-05-06T13:08:40.027Z</time></trkpt><trkpt lat="37.5135367" lon="15.019655"><ele>160.0</ele><time>2026-05-06T13:08:41.027Z</time></trkpt><trkpt lat="37.5137233" lon="15.0196917"><ele>160.0</ele><time>2026-05-06T13:08:42.027Z</time></trkpt><trkpt lat="37.5139117" lon="15.01972"><ele>160.0</ele><time>2026-05-06T13:08:43.027Z</time></trkpt><trkpt lat="37.5140967" lon="15.01975"><ele>160.0</ele><time>2026-05-06T13:08:44.027Z</time></trkpt><trkpt lat="37.51427" lon="15.019775"><ele>160.0</ele><time>2026-05-06T13:08:45.027Z</time></trkpt><trkpt lat="37.5144367" lon="15.0198017"><ele>160.0</ele><time>2026-05-06T13:08:46.027Z</time></trkpt><trkpt lat="37.5146017" lon="15.0198283"><ele>160.0</ele><time>2026-05-06T13:08:47.027Z</time></trkpt><trkpt lat="37.5147683" lon="15.019855"><ele>160.66666666666669</ele><time>2026-05-06T13:08:48.027Z</time></trkpt><trkpt lat="37.5149367" lon="15.019875"><ele>161.33333333333334</ele><time>2026-05-06T13:08:49.027Z</time></trkpt><trkpt lat="37.5151033" lon="15.0198967"><ele>162.0</ele><time>2026-05-06T13:08:50.027Z</time></trkpt><trkpt lat="37.515265" lon="15.01993"><ele>164.33333333333334</ele><time>2026-05-06T13:08:51.027Z</time></trkpt><trkpt lat="37.5154183" lon="15.01996"><ele>166.66666666666669</ele><time>2026-05-06T13:08:52.027Z</time></trkpt><trkpt lat="37.5155783" lon="15.0199833"><ele>169.0</ele><time>2026-05-06T13:08:53.027Z</time></trkpt><trkpt lat="37.51574" lon="15.02001"><ele>170.0</ele><time>2026-05-06T13:08:54.027Z</time></trkpt><trkpt lat="37.515905" lon="15.0200367"><ele>171.0</ele><time>2026-05-06T13:08:55.027Z</time></trkpt><trkpt lat="37.5160767" lon="15.02007"><ele>172.0</ele><time>2026-05-06T13:08:56.027Z</time></trkpt><trkpt lat="37.51626" lon="15.0201067"><ele>174.33333333333334</ele><time>2026-05-06T13:08:57.027Z</time></trkpt><trkpt lat="37.5164517" lon="15.0201433"><ele>176.66666666666666</ele><time>2026-05-06T13:08:58.027Z</time></trkpt><trkpt lat="37.5166433" lon="15.02017"><ele>179.0</ele><time>2026-05-06T13:08:59.027Z</time></trkpt><trkpt lat="37.516845" lon="15.0202033"><ele>179.0</ele><time>2026-05-06T13:09:00.027Z</time></trkpt><trkpt lat="37.5170633" lon="15.0202417"><ele>179.0</ele><time>2026-05-06T13:09:01.027Z</time></trkpt><trkpt lat="37.5173033" lon="15.02029"><ele>182.5</ele><time>2026-05-06T13:09:02.027Z</time></trkpt><trkpt lat="37.5175567" lon="15.0203333"><ele>186.0</ele><time>2026-05-06T13:09:03.027Z</time></trkpt><trkpt lat="37.51782" lon="15.020385"><ele>189.5</ele><time>2026-05-06T13:09:04.027Z</time></trkpt><trkpt lat="37.5180817" lon="15.020435"><ele>193.0</ele><time>2026-05-06T13:09:05.027Z</time></trkpt><trkpt lat="37.5183283" lon="15.0204883"><ele>193.0</ele><time>2026-05-06T13:09:06.027Z</time></trkpt><trkpt lat="37.5185583" lon="15.02054"><ele>193.0</ele><time>2026-05-06T13:09:07.027Z</time></trkpt><trkpt lat="37.5187867" lon="15.0206"><ele>192.5</ele><time>2026-05-06T13:09:08.027Z</time></trkpt><trkpt lat="37.519015" lon="15.02068"><ele>192.0</ele><time>2026-05-06T13:09:09.027Z</time></trkpt><trkpt lat="37.5192367" lon="15.0207667"><ele>191.0</ele><time>2026-05-06T13:09:10.027Z</time></trkpt><trkpt lat="37.5194583" lon="15.0208633"><ele>190.0</ele><time>2026-05-06T13:09:11.027Z</time></trkpt><trkpt lat="37.5196717" lon="15.02095"><ele>190.0</ele><time>2026-05-06T13:09:12.027Z</time></trkpt><trkpt lat="37.51988" lon="15.0210433"><ele>190.0</ele><time>2026-05-06T13:09:13.027Z</time></trkpt><trkpt lat="37.5200867" lon="15.0211517"><ele>190.0</ele><time>2026-05-06T13:09:14.027Z</time></trkpt><trkpt lat="37.5202983" lon="15.021275"><ele>190.5</ele><time>2026-05-06T13:09:15.027Z</time></trkpt><trkpt lat="37.5205167" lon="15.021385"><ele>191.0</ele><time>2026-05-06T13:09:16.026Z</time></trkpt><trkpt lat="37.5207283" lon="15.0215283"><ele>189.5</ele><time>2026-05-06T13:09:17.026Z</time></trkpt><trkpt lat="37.5209333" lon="15.02165"><ele>188.0</ele><time>2026-05-06T13:09:18.027Z</time></trkpt><trkpt lat="37.5211317" lon="15.0217783"><ele>188.0</ele><time>2026-05-06T13:09:19.027Z</time></trkpt><trkpt lat="37.5213333" lon="15.0219267"><ele>188.0</ele><time>2026-05-06T13:09:20.027Z</time></trkpt><trkpt lat="37.5215367" lon="15.022075"><ele>188.0</ele><time>2026-05-06T13:09:21.027Z</time></trkpt><trkpt lat="37.5217333" lon="15.0222483"><ele>188.0</ele><time>2026-05-06T13:09:22.027Z</time></trkpt><trkpt lat="37.5219317" lon="15.0224283"><ele>186.0</ele><time>2026-05-06T13:09:23.027Z</time></trkpt><trkpt lat="37.522125" lon="15.0226067"><ele>184.0</ele><time>2026-05-06T13:09:24.026Z</time></trkpt><trkpt lat="37.5223083" lon="15.0227933"><ele>184.0</ele><time>2026-05-06T13:09:25.027Z</time></trkpt><trkpt lat="37.5224883" lon="15.0229883"><ele>184.0</ele><time>2026-05-06T13:09:26.027Z</time></trkpt><trkpt lat="37.5226717" lon="15.0231883"><ele>183.0</ele><time>2026-05-06T13:09:27.027Z</time></trkpt><trkpt lat="37.5228533" lon="15.0233917"><ele>182.0</ele><time>2026-05-06T13:09:28.026Z</time></trkpt><trkpt lat="37.523025" lon="15.023605"><ele>182.0</ele><time>2026-05-06T13:09:29.027Z</time></trkpt><trkpt lat="37.5231933" lon="15.02383"><ele>182.0</ele><time>2026-05-06T13:09:30.027Z</time></trkpt><trkpt lat="37.5233633" lon="15.0240283"><ele>179.0</ele><time>2026-05-06T13:09:31.027Z</time></trkpt><trkpt lat="37.5235117" lon="15.0242617"><ele>176.0</ele><time>2026-05-06T13:09:32.027Z</time></trkpt><trkpt lat="37.5236617" lon="15.0244933"><ele>178.5</ele><time>2026-05-06T13:09:33.027Z</time></trkpt><trkpt lat="37.523805" lon="15.0247267"><ele>181.0</ele><time>2026-05-06T13:09:34.027Z</time></trkpt><trkpt lat="37.5239433" lon="15.02496"><ele>179.5</ele><time>2026-05-06T13:09:35.027Z</time></trkpt><trkpt lat="37.5240783" lon="15.025195"><ele>178.0</ele><time>2026-05-06T13:09:36.027Z</time></trkpt><trkpt lat="37.5242083" lon="15.0254433"><ele>178.0</ele><time>2026-05-06T13:09:37.027Z</time></trkpt><trkpt lat="37.5243383" lon="15.025695"><ele>178.0</ele><time>2026-05-06T13:09:38.027Z</time></trkpt><trkpt lat="37.5244667" lon="15.0259433"><ele>179.5</ele><time>2026-05-06T13:09:39.027Z</time></trkpt><trkpt lat="37.524595" lon="15.0261983"><ele>181.0</ele><time>2026-05-06T13:09:40.027Z</time></trkpt><trkpt lat="37.5247183" lon="15.02646"><ele>179.0</ele><time>2026-05-06T13:09:41.027Z</time></trkpt><trkpt lat="37.524845" lon="15.0267217"><ele>177.0</ele><time>2026-05-06T13:09:42.027Z</time></trkpt><trkpt lat="37.524965" lon="15.02698"><ele>177.0</ele><time>2026-05-06T13:09:43.027Z</time></trkpt><trkpt lat="37.5250917" lon="15.0272417"><ele>177.0</ele><time>2026-05-06T13:09:44.027Z</time></trkpt><trkpt lat="37.5252167" lon="15.0274967"><ele>176.0</ele><time>2026-05-06T13:09:45.027Z</time></trkpt><trkpt lat="37.5253417" lon="15.0277533"><ele>175.0</ele><time>2026-05-06T13:09:46.026Z</time></trkpt><trkpt lat="37.5254617" lon="15.02801"><ele>180.5</ele><time>2026-05-06T13:09:47.027Z</time></trkpt><trkpt lat="37.525575" lon="15.0282583"><ele>186.0</ele><time>2026-05-06T13:09:48.027Z</time></trkpt><trkpt lat="37.5256867" lon="15.0285033"><ele>186.0</ele><time>2026-05-06T13:09:49.027Z</time></trkpt><trkpt lat="37.5258017" lon="15.0287417"><ele>186.0</ele><time>2026-05-06T13:09:50.027Z</time></trkpt><trkpt lat="37.5259167" lon="15.0289717"><ele>186.0</ele><time>2026-05-06T13:09:51.027Z</time></trkpt><trkpt lat="37.5260283" lon="15.0292033"><ele>185.33333333333334</ele><time>2026-05-06T13:09:52.027Z</time></trkpt><trkpt lat="37.5261417" lon="15.0294333"><ele>184.66666666666669</ele><time>2026-05-06T13:09:53.027Z</time></trkpt><trkpt lat="37.52625" lon="15.0296617"><ele>184.0</ele><time>2026-05-06T13:09:54.027Z</time></trkpt><trkpt lat="37.526355" lon="15.0299"><ele>188.0</ele><time>2026-05-06T13:09:55.027Z</time></trkpt><trkpt lat="37.52647" lon="15.030135"><ele>192.0</ele><time>2026-05-06T13:09:56.027Z</time></trkpt><trkpt lat="37.5265867" lon="15.03037"><ele>196.0</ele><time>2026-05-06T13:09:57.027Z</time></trkpt><trkpt lat="37.5267067" lon="15.0306133"><ele>195.5</ele><time>2026-05-06T13:09:58.026Z</time></trkpt><trkpt lat="37.5268267" lon="15.0308617"><ele>195.0</ele><time>2026-05-06T13:09:59.027Z</time></trkpt><trkpt lat="37.5269517" lon="15.0311183"><ele>199.0</ele><time>2026-05-06T13:10:00.027Z</time></trkpt><trkpt lat="37.5270767" lon="15.03138"><ele>203.0</ele><time>2026-05-06T13:10:01.027Z</time></trkpt><trkpt lat="37.5272067" lon="15.03163"><ele>201.5</ele><time>2026-05-06T13:10:02.027Z</time></trkpt><trkpt lat="37.5273367" lon="15.0318917"><ele>200.0</ele><time>2026-05-06T13:10:03.027Z</time></trkpt><trkpt lat="37.527465" lon="15.0321467"><ele>200.0</ele><time>2026-05-06T13:10:04.026Z</time></trkpt><trkpt lat="37.527595" lon="15.0323983"><ele>200.0</ele><time>2026-05-06T13:10:05.027Z</time></trkpt><trkpt lat="37.527725" lon="15.0326533"><ele>200.5</ele><time>2026-05-06T13:10:06.027Z</time></trkpt><trkpt lat="37.527855" lon="15.03291"><ele>201.0</ele><time>2026-05-06T13:10:07.027Z</time></trkpt><trkpt lat="37.5279867" lon="15.03317"><ele>202.5</ele><time>2026-05-06T13:10:08.027Z</time></trkpt><trkpt lat="37.5281217" lon="15.0334283"><ele>204.0</ele><time>2026-05-06T13:10:09.027Z</time></trkpt><trkpt lat="37.5282567" lon="15.033695"><ele>204.0</ele><time>2026-05-06T13:10:10.027Z</time></trkpt><trkpt lat="37.5283933" lon="15.0339583"><ele>204.0</ele><time>2026-05-06T13:10:11.027Z</time></trkpt><trkpt lat="37.5285367" lon="15.0342083"><ele>203.0</ele><time>2026-05-06T13:10:12.027Z</time></trkpt><trkpt lat="37.5286817" lon="15.0344633"><ele>202.0</ele><time>2026-05-06T13:10:13.027Z</time></trkpt><trkpt lat="37.52883" lon="15.0347117"><ele>204.0</ele><time>2026-05-06T13:10:14.027Z</time></trkpt><trkpt lat="37.5289783" lon="15.0349617"><ele>206.0</ele><time>2026-05-06T13:10:15.027Z</time></trkpt><trkpt lat="37.52913" lon="15.0352083"><ele>206.0</ele><time>2026-05-06T13:10:16.027Z</time></trkpt><trkpt lat="37.5292817" lon="15.0354567"><ele>206.0</ele><time>2026-05-06T13:10:17.027Z</time></trkpt><trkpt lat="37.5294367" lon="15.0357033"><ele>206.5</ele><time>2026-05-06T13:10:18.027Z</time></trkpt><trkpt lat="37.5295967" lon="15.035945"><ele>207.0</ele><time>2026-05-06T13:10:19.027Z</time></trkpt><trkpt lat="37.5297467" lon="15.0361817"><ele>207.0</ele><time>2026-05-06T13:10:20.027Z</time></trkpt><trkpt lat="37.5299117" lon="15.036425"><ele>207.0</ele><time>2026-05-06T13:10:21.027Z</time></trkpt><trkpt lat="37.5300783" lon="15.0366517"><ele>207.0</ele><time>2026-05-06T13:10:22.027Z</time></trkpt><trkpt lat="37.5302467" lon="15.03688"><ele>207.0</ele><time>2026-05-06T13:10:23.026Z</time></trkpt><trkpt lat="37.530415" lon="15.03711"><ele>207.0</ele><time>2026-05-06T13:10:24.027Z</time></trkpt><trkpt lat="37.5305817" lon="15.0373283"><ele>207.0</ele><time>2026-05-06T13:10:25.027Z</time></trkpt><trkpt lat="37.5307383" lon="15.0375317"><ele>207.0</ele><time>2026-05-06T13:10:26.027Z</time></trkpt><trkpt lat="37.5308917" lon="15.0377317"><ele>207.0</ele><time>2026-05-06T13:10:27.027Z</time></trkpt><trkpt lat="37.531045" lon="15.0379217"><ele>207.0</ele><time>2026-05-06T13:10:28.027Z</time></trkpt><trkpt lat="37.53119" lon="15.0380983"><ele>208.33333333333331</ele><time>2026-05-06T13:10:29.027Z</time></trkpt><trkpt lat="37.5313367" lon="15.03827"><ele>209.66666666666666</ele><time>2026-05-06T13:10:30.027Z</time></trkpt><trkpt lat="37.5314783" lon="15.0384383"><ele>211.0</ele><time>2026-05-06T13:10:31.027Z</time></trkpt><trkpt lat="37.531615" lon="15.0385967"><ele>211.66666666666666</ele><time>2026-05-06T13:10:32.027Z</time></trkpt><trkpt lat="37.53175" lon="15.038755"><ele>212.33333333333331</ele><time>2026-05-06T13:10:33.027Z</time></trkpt><trkpt lat="37.5318867" lon="15.038915"><ele>213.0</ele><time>2026-05-06T13:10:34.027Z</time></trkpt><trkpt lat="37.5320217" lon="15.03907"><ele>215.33333333333331</ele><time>2026-05-06T13:10:35.027Z</time></trkpt><trkpt lat="37.532155" lon="15.0392067"><ele>217.66666666666666</ele><time>2026-05-06T13:10:36.027Z</time></trkpt><trkpt lat="37.5322817" lon="15.0393367"><ele>220.0</ele><time>2026-05-06T13:10:37.027Z</time></trkpt><trkpt lat="37.53241" lon="15.0394717"><ele>220.0</ele><time>2026-05-06T13:10:38.026Z</time></trkpt><trkpt lat="37.532535" lon="15.0396033"><ele>220.0</ele><time>2026-05-06T13:10:39.027Z</time></trkpt><trkpt lat="37.5326533" lon="15.03974"><ele>220.0</ele><time>2026-05-06T13:10:40.027Z</time></trkpt><trkpt lat="37.5327683" lon="15.0398617"><ele>220.75</ele><time>2026-05-06T13:10:41.027Z</time></trkpt><trkpt lat="37.532885" lon="15.0399733"><ele>221.5</ele><time>2026-05-06T13:10:42.027Z</time></trkpt><trkpt lat="37.5329983" lon="15.0400967"><ele>222.25</ele><time>2026-05-06T13:10:43.027Z</time></trkpt><trkpt lat="37.5331183" lon="15.0402117"><ele>223.0</ele><time>2026-05-06T13:10:44.027Z</time></trkpt><trkpt lat="37.5332383" lon="15.0403383"><ele>223.33333333333331</ele><time>2026-05-06T13:10:45.027Z</time></trkpt><trkpt lat="37.5333583" lon="15.0404633"><ele>223.66666666666669</ele><time>2026-05-06T13:10:46.027Z</time></trkpt><trkpt lat="37.53349" lon="15.0405983"><ele>224.0</ele><time>2026-05-06T13:10:47.027Z</time></trkpt><trkpt lat="37.533615" lon="15.0407283"><ele>225.33333333333334</ele><time>2026-05-06T13:10:48.027Z</time></trkpt><trkpt lat="37.5337433" lon="15.0408583"><ele>226.66666666666669</ele><time>2026-05-06T13:10:49.027Z</time></trkpt><trkpt lat="37.5338767" lon="15.0409883"><ele>228.0</ele><time>2026-05-06T13:10:50.027Z</time></trkpt><trkpt lat="37.5340117" lon="15.0411233"><ele>228.0</ele><time>2026-05-06T13:10:51.027Z</time></trkpt><trkpt lat="37.5341483" lon="15.0412633"><ele>228.0</ele><time>2026-05-06T13:10:52.027Z</time></trkpt><trkpt lat="37.534285" lon="15.0413967"><ele>228.0</ele><time>2026-05-06T13:10:53.027Z</time></trkpt><trkpt lat="37.534425" lon="15.0415383"><ele>228.33333333333331</ele><time>2026-05-06T13:10:54.027Z</time></trkpt><trkpt lat="37.534565" lon="15.041675"><ele>228.66666666666666</ele><time>2026-05-06T13:10:55.027Z</time></trkpt><trkpt lat="37.5347" lon="15.0418067"><ele>229.0</ele><time>2026-05-06T13:10:56.027Z</time></trkpt><trkpt lat="37.5348333" lon="15.04195"><ele>229.0</ele><time>2026-05-06T13:10:57.027Z</time></trkpt><trkpt lat="37.5349717" lon="15.0420933"><ele>229.0</ele><time>2026-05-06T13:10:58.027Z</time></trkpt><trkpt lat="37.535115" lon="15.0422317"><ele>229.0</ele><time>2026-05-06T13:10:59.027Z</time></trkpt><trkpt lat="37.5352633" lon="15.042375"><ele>228.66666666666666</ele><time>2026-05-06T13:11:00.027Z</time></trkpt><trkpt lat="37.5354167" lon="15.04252"><ele>228.33333333333331</ele><time>2026-05-06T13:11:01.027Z</time></trkpt><trkpt lat="37.5355767" lon="15.04267"><ele>228.0</ele><time>2026-05-06T13:11:02.027Z</time></trkpt><trkpt lat="37.535735" lon="15.0428233"><ele>228.0</ele><time>2026-05-06T13:11:03.027Z</time></trkpt><trkpt lat="37.5358917" lon="15.04298"><ele>228.0</ele><time>2026-05-06T13:11:04.027Z</time></trkpt><trkpt lat="37.5360517" lon="15.04314"><ele>228.0</ele><time>2026-05-06T13:11:05.027Z</time></trkpt><trkpt lat="37.536215" lon="15.0432983"><ele>229.33333333333331</ele><time>2026-05-06T13:11:06.026Z</time></trkpt><trkpt lat="37.536375" lon="15.043475"><ele>230.66666666666666</ele><time>2026-05-06T13:11:07.027Z</time></trkpt><trkpt lat="37.536535" lon="15.0436417"><ele>232.0</ele><time>2026-05-06T13:11:08.027Z</time></trkpt><trkpt lat="37.536695" lon="15.04381"><ele>232.0</ele><time>2026-05-06T13:11:09.027Z</time></trkpt><trkpt lat="37.536855" lon="15.0439883"><ele>232.0</ele><time>2026-05-06T13:11:10.027Z</time></trkpt><trkpt lat="37.53701" lon="15.04417"><ele>232.0</ele><time>2026-05-06T13:11:11.027Z</time></trkpt><trkpt lat="37.5371667" lon="15.044355"><ele>234.33333333333331</ele><time>2026-05-06T13:11:12.027Z</time></trkpt><trkpt lat="37.5373133" lon="15.04454"><ele>236.66666666666669</ele><time>2026-05-06T13:11:13.027Z</time></trkpt><trkpt lat="37.5374683" lon="15.0447367"><ele>239.0</ele><time>2026-05-06T13:11:14.027Z</time></trkpt><trkpt lat="37.5376133" lon="15.0449367"><ele>239.33333333333334</ele><time>2026-05-06T13:11:15.027Z</time></trkpt><trkpt lat="37.537755" lon="15.045135"><ele>239.66666666666669</ele><time>2026-05-06T13:11:16.027Z</time></trkpt><trkpt lat="37.5378883" lon="15.0453183"><ele>240.0</ele><time>2026-05-06T13:11:17.027Z</time></trkpt><trkpt lat="37.5380217" lon="15.045505"><ele>240.0</ele><time>2026-05-06T13:11:18.026Z</time></trkpt><trkpt lat="37.5381483" lon="15.0456933"><ele>240.0</ele><time>2026-05-06T13:11:19.027Z</time></trkpt><trkpt lat="37.5382783" lon="15.04588"><ele>240.0</ele><time>2026-05-06T13:11:20.027Z</time></trkpt><trkpt lat="37.5383967" lon="15.046075"><ele>240.0</ele><time>2026-05-06T13:11:21.027Z</time></trkpt><trkpt lat="37.5385183" lon="15.0462717"><ele>240.0</ele><time>2026-05-06T13:11:22.027Z</time></trkpt><trkpt lat="37.538645" lon="15.046475"><ele>240.0</ele><time>2026-05-06T13:11:23.027Z</time></trkpt><trkpt lat="37.5387683" lon="15.046685"><ele>241.33333333333331</ele><time>2026-05-06T13:11:24.027Z</time></trkpt><trkpt lat="37.5388917" lon="15.0469"><ele>242.66666666666666</ele><time>2026-05-06T13:11:25.027Z</time></trkpt><trkpt lat="37.5390033" lon="15.0471233"><ele>244.0</ele><time>2026-05-06T13:11:26.027Z</time></trkpt><trkpt lat="37.5391133" lon="15.0473517"><ele>243.66666666666666</ele><time>2026-05-06T13:11:27.027Z</time></trkpt><trkpt lat="37.5392317" lon="15.0475817"><ele>243.33333333333331</ele><time>2026-05-06T13:11:28.027Z</time></trkpt><trkpt lat="37.5393467" lon="15.0478167"><ele>243.0</ele><time>2026-05-06T13:11:29.027Z</time></trkpt><trkpt lat="37.539455" lon="15.0480417"><ele>244.33333333333331</ele><time>2026-05-06T13:11:30.027Z</time></trkpt><trkpt lat="37.5395617" lon="15.048275"><ele>245.66666666666666</ele><time>2026-05-06T13:11:31.027Z</time></trkpt><trkpt lat="37.5396667" lon="15.04851"><ele>247.0</ele><time>2026-05-06T13:11:32.027Z</time></trkpt><trkpt lat="37.539765" lon="15.048745"><ele>247.33333333333331</ele><time>2026-05-06T13:11:33.027Z</time></trkpt><trkpt lat="37.5398633" lon="15.0489733"><ele>247.66666666666669</ele><time>2026-05-06T13:11:34.027Z</time></trkpt><trkpt lat="37.5399567" lon="15.049205"><ele>248.0</ele><time>2026-05-06T13:11:35.027Z</time></trkpt><trkpt lat="37.54005" lon="15.0494333"><ele>249.33333333333334</ele><time>2026-05-06T13:11:36.026Z</time></trkpt><trkpt lat="37.5401467" lon="15.0496683"><ele>250.66666666666669</ele><time>2026-05-06T13:11:37.027Z</time></trkpt><trkpt lat="37.54024" lon="15.0498917"><ele>252.0</ele><time>2026-05-06T13:11:38.027Z</time></trkpt><trkpt lat="37.5403267" lon="15.0501083"><ele>254.0</ele><time>2026-05-06T13:11:39.027Z</time></trkpt><trkpt lat="37.54042" lon="15.0503317"><ele>256.0</ele><time>2026-05-06T13:11:40.027Z</time></trkpt><trkpt lat="37.54051" lon="15.050555"><ele>258.0</ele><time>2026-05-06T13:11:41.027Z</time></trkpt><trkpt lat="37.5405967" lon="15.0507767"><ele>258.0</ele><time>2026-05-06T13:11:42.027Z</time></trkpt><trkpt lat="37.5406833" lon="15.0509967"><ele>258.0</ele><time>2026-05-06T13:11:43.027Z</time></trkpt><trkpt lat="37.5407683" lon="15.0512183"><ele>258.0</ele><time>2026-05-06T13:11:44.027Z</time></trkpt><trkpt lat="37.5408533" lon="15.0514383"><ele>256.6666666666667</ele><time>2026-05-06T13:11:45.027Z</time></trkpt><trkpt lat="37.5409467" lon="15.0516633"><ele>255.33333333333334</ele><time>2026-05-06T13:11:46.027Z</time></trkpt><trkpt lat="37.5410367" lon="15.05189"><ele>254.0</ele><time>2026-05-06T13:11:47.027Z</time></trkpt><trkpt lat="37.54113" lon="15.0521233"><ele>254.66666666666669</ele><time>2026-05-06T13:11:48.027Z</time></trkpt><trkpt lat="37.541225" lon="15.0523533"><ele>255.33333333333331</ele><time>2026-05-06T13:11:49.027Z</time></trkpt><trkpt lat="37.5413217" lon="15.0525867"><ele>256.0</ele><time>2026-05-06T13:11:50.027Z</time></trkpt><trkpt lat="37.54142" lon="15.0528183"><ele>256.0</ele><time>2026-05-06T13:11:51.027Z</time></trkpt><trkpt lat="37.54152" lon="15.0530483"><ele>256.0</ele><time>2026-05-06T13:11:52.027Z</time></trkpt><trkpt lat="37.5416217" lon="15.05328"><ele>256.0</ele><time>2026-05-06T13:11:53.027Z</time></trkpt><trkpt lat="37.54172" lon="15.053515"><ele>256.0</ele><time>2026-05-06T13:11:54.027Z</time></trkpt><trkpt lat="37.5418217" lon="15.0537383"><ele>256.0</ele><time>2026-05-06T13:11:55.027Z</time></trkpt><trkpt lat="37.5419283" lon="15.05396"><ele>256.0</ele><time>2026-05-06T13:11:56.027Z</time></trkpt><trkpt lat="37.5420333" lon="15.0541833"><ele>258.66666666666663</ele><time>2026-05-06T13:11:57.027Z</time></trkpt><trkpt lat="37.5421467" lon="15.0544"><ele>261.3333333333333</ele><time>2026-05-06T13:11:58.026Z</time></trkpt><trkpt lat="37.54226" lon="15.0546067"><ele>264.0</ele><time>2026-05-06T13:11:59.027Z</time></trkpt><trkpt lat="37.5423783" lon="15.05482"><ele>263.6666666666667</ele><time>2026-05-06T13:12:00.027Z</time></trkpt><trkpt lat="37.5424917" lon="15.0550333"><ele>263.33333333333337</ele><time>2026-05-06T13:12:01.027Z</time></trkpt><trkpt lat="37.54261" lon="15.055225"><ele>263.0</ele><time>2026-05-06T13:12:02.027Z</time></trkpt><trkpt lat="37.5427133" lon="15.0554267"><ele>263.0</ele><time>2026-05-06T13:12:03.027Z</time></trkpt><trkpt lat="37.54285" lon="15.05562"><ele>263.0</ele><time>2026-05-06T13:12:04.026Z</time></trkpt><trkpt lat="37.5429317" lon="15.05583"><ele>263.0</ele><time>2026-05-06T13:12:05.027Z</time></trkpt><trkpt lat="37.5430717" lon="15.0559933"><ele>264.0</ele><time>2026-05-06T13:12:06.027Z</time></trkpt><trkpt lat="37.543195" lon="15.0561583"><ele>265.0</ele><time>2026-05-06T13:12:07.027Z</time></trkpt><trkpt lat="37.5433117" lon="15.0563233"><ele>266.0</ele><time>2026-05-06T13:12:08.027Z</time></trkpt><trkpt lat="37.54343" lon="15.0564883"><ele>266.33333333333337</ele><time>2026-05-06T13:12:09.027Z</time></trkpt><trkpt lat="37.5435433" lon="15.0566467"><ele>266.6666666666667</ele><time>2026-05-06T13:12:10.027Z</time></trkpt><trkpt lat="37.5436583" lon="15.05681"><ele>267.0</ele><time>2026-05-06T13:12:11.027Z</time></trkpt><trkpt lat="37.543765" lon="15.0569533"><ele>267.5</ele><time>2026-05-06T13:12:12.026Z</time></trkpt><trkpt lat="37.543865" lon="15.0570967"><ele>268.0</ele><time>2026-05-06T13:12:13.027Z</time></trkpt><trkpt lat="37.5439617" lon="15.0572317"><ele>268.5</ele><time>2026-05-06T13:12:14.027Z</time></trkpt><trkpt lat="37.5440617" lon="15.0573533"><ele>269.0</ele><time>2026-05-06T13:12:15.027Z</time></trkpt><trkpt lat="37.5441617" lon="15.0574833"><ele>269.0</ele><time>2026-05-06T13:12:16.027Z</time></trkpt><trkpt lat="37.54426" lon="15.05761"><ele>269.0</ele><time>2026-05-06T13:12:17.027Z</time></trkpt><trkpt lat="37.5443583" lon="15.057735"><ele>269.0</ele><time>2026-05-06T13:12:18.027Z</time></trkpt><trkpt lat="37.5444567" lon="15.0578567"><ele>269.0</ele><time>2026-05-06T13:12:19.027Z</time></trkpt><trkpt lat="37.5445567" lon="15.057985"><ele>269.0</ele><time>2026-05-06T13:12:20.027Z</time></trkpt><trkpt lat="37.544655" lon="15.0581183"><ele>269.0</ele><time>2026-05-06T13:12:21.027Z</time></trkpt><trkpt lat="37.5447567" lon="15.05825"><ele>269.0</ele><time>2026-05-06T13:12:22.027Z</time></trkpt><trkpt lat="37.5448517" lon="15.0583817"><ele>269.0</ele><time>2026-05-06T13:12:23.027Z</time></trkpt><trkpt lat="37.5449517" lon="15.058505"><ele>269.0</ele><time>2026-05-06T13:12:24.027Z</time></trkpt><trkpt lat="37.5450717" lon="15.058625"><ele>269.0</ele><time>2026-05-06T13:12:25.027Z</time></trkpt><trkpt lat="37.54519" lon="15.0587617"><ele>269.0</ele><time>2026-05-06T13:12:26.027Z</time></trkpt><trkpt lat="37.5453133" lon="15.0589167"><ele>270.6666666666667</ele><time>2026-05-06T13:12:27.027Z</time></trkpt><trkpt lat="37.545445" lon="15.0590783"><ele>272.3333333333333</ele><time>2026-05-06T13:12:28.027Z</time></trkpt><trkpt lat="37.5455783" lon="15.0592483"><ele>274.0</ele><time>2026-05-06T13:12:29.027Z</time></trkpt><trkpt lat="37.5457133" lon="15.0594233"><ele>274.0</ele><time>2026-05-06T13:12:30.027Z</time></trkpt><trkpt lat="37.545855" lon="15.0596017"><ele>274.0</ele><time>2026-05-06T13:12:31.027Z</time></trkpt><trkpt lat="37.5460017" lon="15.0597867"><ele>274.0</ele><time>2026-05-06T13:12:32.027Z</time></trkpt><trkpt lat="37.54615" lon="15.0599767"><ele>274.3333333333333</ele><time>2026-05-06T13:12:33.027Z</time></trkpt><trkpt lat="37.5463067" lon="15.0601733"><ele>274.6666666666667</ele><time>2026-05-06T13:12:34.027Z</time></trkpt><trkpt lat="37.5464633" lon="15.0603733"><ele>275.0</ele><time>2026-05-06T13:12:35.027Z</time></trkpt><trkpt lat="37.5466217" lon="15.0605733"><ele>275.0</ele><time>2026-05-06T13:12:36.027Z</time></trkpt><trkpt lat="37.5467767" lon="15.060775"><ele>275.0</ele><time>2026-05-06T13:12:37.027Z</time></trkpt><trkpt lat="37.5469367" lon="15.060985"><ele>275.5</ele><time>2026-05-06T13:12:38.027Z</time></trkpt><trkpt lat="37.5470967" lon="15.0611867"><ele>276.0</ele><time>2026-05-06T13:12:39.027Z</time></trkpt><trkpt lat="37.5472583" lon="15.0614"><ele>276.0</ele><time>2026-05-06T13:12:40.027Z</time></trkpt><trkpt lat="37.5474183" lon="15.0616133"><ele>276.0</ele><time>2026-05-06T13:12:41.027Z</time></trkpt><trkpt lat="37.5475767" lon="15.06182"><ele>275.0</ele><time>2026-05-06T13:12:42.027Z</time></trkpt><trkpt lat="37.54774" lon="15.06203"><ele>274.0</ele><time>2026-05-06T13:12:43.027Z</time></trkpt><trkpt lat="37.5478983" lon="15.0622417"><ele>272.5</ele><time>2026-05-06T13:12:44.027Z</time></trkpt><trkpt lat="37.5480483" lon="15.0624633"><ele>271.0</ele><time>2026-05-06T13:12:45.027Z</time></trkpt><trkpt lat="37.5482" lon="15.06269"><ele>271.0</ele><time>2026-05-06T13:12:46.027Z</time></trkpt><trkpt lat="37.54835" lon="15.0629267"><ele>271.0</ele><time>2026-05-06T13:12:47.027Z</time></trkpt><trkpt lat="37.5484983" lon="15.06318"><ele>270.5</ele><time>2026-05-06T13:12:48.027Z</time></trkpt><trkpt lat="37.5486333" lon="15.0634433"><ele>270.0</ele><time>2026-05-06T13:12:49.027Z</time></trkpt><trkpt lat="37.5487633" lon="15.06371"><ele>271.0</ele><time>2026-05-06T13:12:50.027Z</time></trkpt><trkpt lat="37.5488767" lon="15.063975"><ele>272.0</ele><time>2026-05-06T13:12:51.027Z</time></trkpt><trkpt lat="37.54898" lon="15.0642483"><ele>272.0</ele><time>2026-05-06T13:12:52.027Z</time></trkpt><trkpt lat="37.549075" lon="15.06452"><ele>272.0</ele><time>2026-05-06T13:12:53.027Z</time></trkpt><trkpt lat="37.5491633" lon="15.0647983"><ele>271.0</ele><time>2026-05-06T13:12:54.027Z</time></trkpt><trkpt lat="37.54925" lon="15.065085"><ele>270.0</ele><time>2026-05-06T13:12:55.027Z</time></trkpt><trkpt lat="37.5493283" lon="15.0653667"><ele>270.0</ele><time>2026-05-06T13:12:56.027Z</time></trkpt><trkpt lat="37.5494" lon="15.0656517"><ele>270.0</ele><time>2026-05-06T13:12:57.027Z</time></trkpt><trkpt lat="37.5494617" lon="15.06595"><ele>270.5</ele><time>2026-05-06T13:12:58.027Z</time></trkpt><trkpt lat="37.5495033" lon="15.06626"><ele>271.0</ele><time>2026-05-06T13:12:59.027Z</time></trkpt><trkpt lat="37.54954" lon="15.0665683"><ele>272.5</ele><time>2026-05-06T13:13:00.027Z</time></trkpt><trkpt lat="37.549565" lon="15.06686"><ele>274.0</ele><time>2026-05-06T13:13:01.027Z</time></trkpt><trkpt lat="37.5495817" lon="15.067145"><ele>274.0</ele><time>2026-05-06T13:13:02.027Z</time></trkpt><trkpt lat="37.5495917" lon="15.0674383"><ele>274.0</ele><time>2026-05-06T13:13:03.027Z</time></trkpt><trkpt lat="37.54957" lon="15.067745"><ele>273.5</ele><time>2026-05-06T13:13:04.027Z</time></trkpt><trkpt lat="37.5495633" lon="15.0680367"><ele>273.0</ele><time>2026-05-06T13:13:05.027Z</time></trkpt><trkpt lat="37.5495483" lon="15.068325"><ele>271.5</ele><time>2026-05-06T13:13:06.027Z</time></trkpt><trkpt lat="37.5495383" lon="15.0686083"><ele>270.0</ele><time>2026-05-06T13:13:07.027Z</time></trkpt><trkpt lat="37.5495267" lon="15.0689"><ele>268.5</ele><time>2026-05-06T13:13:08.027Z</time></trkpt><trkpt lat="37.5495117" lon="15.0691917"><ele>267.0</ele><time>2026-05-06T13:13:09.027Z</time></trkpt><trkpt lat="37.5494867" lon="15.0694817"><ele>267.0</ele><time>2026-05-06T13:13:10.027Z</time></trkpt><trkpt lat="37.5494567" lon="15.0697733"><ele>267.0</ele><time>2026-05-06T13:13:11.026Z</time></trkpt><trkpt lat="37.5494433" lon="15.0700767"><ele>266.5</ele><time>2026-05-06T13:13:12.027Z</time></trkpt><trkpt lat="37.54943" lon="15.07038"><ele>266.0</ele><time>2026-05-06T13:13:13.027Z</time></trkpt><trkpt lat="37.5494283" lon="15.070695"><ele>265.5</ele><time>2026-05-06T13:13:14.027Z</time></trkpt><trkpt lat="37.5494283" lon="15.0710133"><ele>265.0</ele><time>2026-05-06T13:13:15.027Z</time></trkpt><trkpt lat="37.5494333" lon="15.071335"><ele>264.0</ele><time>2026-05-06T13:13:16.027Z</time></trkpt><trkpt lat="37.5494517" lon="15.071655"><ele>263.0</ele><time>2026-05-06T13:13:17.027Z</time></trkpt><trkpt lat="37.549475" lon="15.0719683"><ele>263.0</ele><time>2026-05-06T13:13:18.026Z</time></trkpt><trkpt lat="37.549505" lon="15.07228"><ele>263.0</ele><time>2026-05-06T13:13:19.027Z</time></trkpt><trkpt lat="37.5495467" lon="15.072595"><ele>269.0</ele><time>2026-05-06T13:13:20.027Z</time></trkpt><trkpt lat="37.5495967" lon="15.0729"><ele>275.0</ele><time>2026-05-06T13:13:21.027Z</time></trkpt><trkpt lat="37.54966" lon="15.0732133"><ele>276.0</ele><time>2026-05-06T13:13:22.027Z</time></trkpt><trkpt lat="37.5497167" lon="15.07352"><ele>277.0</ele><time>2026-05-06T13:13:23.026Z</time></trkpt><trkpt lat="37.5497767" lon="15.0738333"><ele>279.5</ele><time>2026-05-06T13:13:24.027Z</time></trkpt><trkpt lat="37.549835" lon="15.07414"><ele>282.0</ele><time>2026-05-06T13:13:25.027Z</time></trkpt><trkpt lat="37.54989" lon="15.0744533"><ele>282.0</ele><time>2026-05-06T13:13:26.027Z</time></trkpt><trkpt lat="37.5499483" lon="15.0747683"><ele>282.0</ele><time>2026-05-06T13:13:27.027Z</time></trkpt><trkpt lat="37.5500033" lon="15.075075"><ele>280.5</ele><time>2026-05-06T13:13:28.027Z</time></trkpt><trkpt lat="37.5500617" lon="15.0753817"><ele>279.0</ele><time>2026-05-06T13:13:29.027Z</time></trkpt><trkpt lat="37.5502783" lon="15.0769533"><ele>277.0</ele><time>2026-05-06T13:13:34.04Z</time></trkpt><trkpt lat="37.5502767" lon="15.0772883"><ele>275.0</ele><time>2026-05-06T13:13:35.04Z</time></trkpt><trkpt lat="37.550295" lon="15.0776317"><ele>273.0</ele><time>2026-05-06T13:13:36.04Z</time></trkpt><trkpt lat="37.55032" lon="15.0779633"><ele>271.0</ele><time>2026-05-06T13:13:37.04Z</time></trkpt><trkpt lat="37.5503467" lon="15.07828"><ele>277.0</ele><time>2026-05-06T13:13:38.04Z</time></trkpt><trkpt lat="37.5503867" lon="15.0785983"><ele>283.0</ele><time>2026-05-06T13:13:39.04Z</time></trkpt><trkpt lat="37.5504317" lon="15.078915"><ele>282.0</ele><time>2026-05-06T13:13:40.04Z</time></trkpt><trkpt lat="37.550475" lon="15.0792367"><ele>281.0</ele><time>2026-05-06T13:13:41.04Z</time></trkpt><trkpt lat="37.5505183" lon="15.0795617"><ele>281.0</ele><time>2026-05-06T13:13:42.04Z</time></trkpt><trkpt lat="37.5505617" lon="15.0798833"><ele>281.0</ele><time>2026-05-06T13:13:43.039Z</time></trkpt><trkpt lat="37.550605" lon="15.0802067"><ele>281.0</ele><time>2026-05-06T13:13:44.04Z</time></trkpt><trkpt lat="37.551585" lon="15.08258"><ele>281.0</ele><time>2026-05-06T13:13:52.037Z</time></trkpt><trkpt lat="37.5517467" lon="15.0828333"><ele>281.0</ele><time>2026-05-06T13:13:53.037Z</time></trkpt><trkpt lat="37.5518933" lon="15.083095"><ele>281.5</ele><time>2026-05-06T13:13:54.037Z</time></trkpt><trkpt lat="37.5520517" lon="15.0833433"><ele>282.0</ele><time>2026-05-06T13:13:55.037Z</time></trkpt><trkpt lat="37.5522183" lon="15.0835867"><ele>282.0</ele><time>2026-05-06T13:13:56.037Z</time></trkpt><trkpt lat="37.552385" lon="15.0838317"><ele>282.0</ele><time>2026-05-06T13:13:57.037Z</time></trkpt><trkpt lat="37.552555" lon="15.0840633"><ele>281.5</ele><time>2026-05-06T13:13:58.037Z</time></trkpt><trkpt lat="37.55273" lon="15.0843"><ele>281.0</ele><time>2026-05-06T13:13:59.037Z</time></trkpt><trkpt lat="37.5529133" lon="15.0845217"><ele>284.0</ele><time>2026-05-06T13:14:00.037Z</time></trkpt><trkpt lat="37.5530983" lon="15.0847317"><ele>287.0</ele><time>2026-05-06T13:14:01.037Z</time></trkpt><trkpt lat="37.5532883" lon="15.084935"><ele>287.0</ele><time>2026-05-06T13:14:02.037Z</time></trkpt><trkpt lat="37.5534817" lon="15.0851283"><ele>287.0</ele><time>2026-05-06T13:14:03.037Z</time></trkpt><trkpt lat="37.5536783" lon="15.085315"><ele>291.0</ele><time>2026-05-06T13:14:04.037Z</time></trkpt><trkpt lat="37.5538783" lon="15.0855017"><ele>295.0</ele><time>2026-05-06T13:14:05.037Z</time></trkpt><trkpt lat="37.5540817" lon="15.08569"><ele>294.5</ele><time>2026-05-06T13:14:06.037Z</time></trkpt><trkpt lat="37.5542833" lon="15.0858667"><ele>294.0</ele><time>2026-05-06T13:14:07.037Z</time></trkpt><trkpt lat="37.5544867" lon="15.0860467"><ele>295.5</ele><time>2026-05-06T13:14:08.037Z</time></trkpt><trkpt lat="37.5546883" lon="15.0862267"><ele>297.0</ele><time>2026-05-06T13:14:09.037Z</time></trkpt><trkpt lat="37.55489" lon="15.0864083"><ele>297.0</ele><time>2026-05-06T13:14:10.037Z</time></trkpt><trkpt lat="37.5550917" lon="15.0865917"><ele>297.0</ele><time>2026-05-06T13:14:11.037Z</time></trkpt><trkpt lat="37.5552983" lon="15.0867733"><ele>299.0</ele><time>2026-05-06T13:14:12.037Z</time></trkpt><trkpt lat="37.5555033" lon="15.0869583"><ele>301.0</ele><time>2026-05-06T13:14:13.037Z</time></trkpt><trkpt lat="37.5557033" lon="15.0871517"><ele>301.0</ele><time>2026-05-06T13:14:14.037Z</time></trkpt><trkpt lat="37.5559" lon="15.08735"><ele>301.0</ele><time>2026-05-06T13:14:15.037Z</time></trkpt><trkpt lat="37.5560933" lon="15.087555"><ele>302.0</ele><time>2026-05-06T13:14:16.037Z</time></trkpt><trkpt lat="37.5562833" lon="15.087765"><ele>303.0</ele><time>2026-05-06T13:14:17.037Z</time></trkpt><trkpt lat="37.5564633" lon="15.0879817"><ele>303.0</ele><time>2026-05-06T13:14:18.037Z</time></trkpt><trkpt lat="37.556645" lon="15.0882117"><ele>303.0</ele><time>2026-05-06T13:14:19.037Z</time></trkpt><trkpt lat="37.556835" lon="15.0884583"><ele>303.5</ele><time>2026-05-06T13:14:20.037Z</time></trkpt><trkpt lat="37.5570183" lon="15.08869"><ele>304.0</ele><time>2026-05-06T13:14:21.037Z</time></trkpt><trkpt lat="37.55861" lon="15.0917583"><ele>308.0</ele><time>2026-05-06T13:14:33.036Z</time></trkpt><trkpt lat="37.5587533" lon="15.0920167"><ele>312.0</ele><time>2026-05-06T13:14:34.036Z</time></trkpt><trkpt lat="37.5588917" lon="15.0922683"><ele>308.5</ele><time>2026-05-06T13:14:35.036Z</time></trkpt><trkpt lat="37.559035" lon="15.09251"><ele>305.0</ele><time>2026-05-06T13:14:36.036Z</time></trkpt><trkpt lat="37.5591867" lon="15.0927467"><ele>305.0</ele><time>2026-05-06T13:14:37.036Z</time></trkpt><trkpt lat="37.5593367" lon="15.0929783"><ele>305.0</ele><time>2026-05-06T13:14:38.036Z</time></trkpt><trkpt lat="37.5594917" lon="15.09319"><ele>307.0</ele><time>2026-05-06T13:14:39.036Z</time></trkpt><trkpt lat="37.5596433" lon="15.0934"><ele>309.0</ele><time>2026-05-06T13:14:40.036Z</time></trkpt><trkpt lat="37.5597917" lon="15.0936133"><ele>309.0</ele><time>2026-05-06T13:14:41.036Z</time></trkpt><trkpt lat="37.5599417" lon="15.0938267"><ele>309.0</ele><time>2026-05-06T13:14:42.036Z</time></trkpt><trkpt lat="37.5600883" lon="15.0940533"><ele>310.0</ele><time>2026-05-06T13:14:43.036Z</time></trkpt><trkpt lat="37.5602333" lon="15.0942717"><ele>311.0</ele><time>2026-05-06T13:14:44.036Z</time></trkpt><trkpt lat="37.56038" lon="15.094495"><ele>311.0</ele><time>2026-05-06T13:14:45.036Z</time></trkpt><trkpt lat="37.5605367" lon="15.0947117"><ele>311.0</ele><time>2026-05-06T13:14:46.036Z</time></trkpt><trkpt lat="37.5606867" lon="15.0949333"><ele>310.0</ele><time>2026-05-06T13:14:47.036Z</time></trkpt><trkpt lat="37.5608367" lon="15.0951517"><ele>309.0</ele><time>2026-05-06T13:14:48.036Z</time></trkpt><trkpt lat="37.560985" lon="15.09536"><ele>309.0</ele><time>2026-05-06T13:14:49.036Z</time></trkpt><trkpt lat="37.5611383" lon="15.0955767"><ele>309.0</ele><time>2026-05-06T13:14:50.036Z</time></trkpt><trkpt lat="37.5612783" lon="15.095785"><ele>309.0</ele><time>2026-05-06T13:14:51.036Z</time></trkpt><trkpt lat="37.5614217" lon="15.0959883"><ele>312.5</ele><time>2026-05-06T13:14:52.036Z</time></trkpt><trkpt lat="37.5615667" lon="15.0962067"><ele>316.0</ele><time>2026-05-06T13:14:53.036Z</time></trkpt><trkpt lat="37.5617167" lon="15.0964167"><ele>316.3333333333333</ele><time>2026-05-06T13:14:54.036Z</time></trkpt><trkpt lat="37.5618683" lon="15.0966233"><ele>316.6666666666667</ele><time>2026-05-06T13:14:55.036Z</time></trkpt><trkpt lat="37.5620117" lon="15.0968417"><ele>317.0</ele><time>2026-05-06T13:14:56.036Z</time></trkpt><trkpt lat="37.5621583" lon="15.0970617"><ele>317.0</ele><time>2026-05-06T13:14:57.036Z</time></trkpt><trkpt lat="37.562305" lon="15.0972817"><ele>317.0</ele><time>2026-05-06T13:14:58.036Z</time></trkpt><trkpt lat="37.5624517" lon="15.0975017"><ele>316.5</ele><time>2026-05-06T13:14:59.035Z</time></trkpt><trkpt lat="37.562605" lon="15.0977133"><ele>316.0</ele><time>2026-05-06T13:15:00.036Z</time></trkpt><trkpt lat="37.5627533" lon="15.09793"><ele>320.5</ele><time>2026-05-06T13:15:01.036Z</time></trkpt><trkpt lat="37.5629067" lon="15.0981467"><ele>325.0</ele><time>2026-05-06T13:15:02.036Z</time></trkpt><trkpt lat="37.563055" lon="15.09837"><ele>325.0</ele><time>2026-05-06T13:15:03.036Z</time></trkpt><trkpt lat="37.5632033" lon="15.0985917"><ele>325.0</ele><time>2026-05-06T13:15:04.036Z</time></trkpt><trkpt lat="37.5633467" lon="15.098815"><ele>325.0</ele><time>2026-05-06T13:15:05.036Z</time></trkpt><trkpt lat="37.5634933" lon="15.0990367"><ele>325.0</ele><time>2026-05-06T13:15:06.036Z</time></trkpt><trkpt lat="37.5636433" lon="15.0992517"><ele>330.5</ele><time>2026-05-06T13:15:07.036Z</time></trkpt><trkpt lat="37.5637967" lon="15.099465"><ele>336.0</ele><time>2026-05-06T13:15:08.036Z</time></trkpt><trkpt lat="37.563945" lon="15.0996833"><ele>336.0</ele><time>2026-05-06T13:15:09.036Z</time></trkpt><trkpt lat="37.5640933" lon="15.099895"><ele>336.0</ele><time>2026-05-06T13:15:10.036Z</time></trkpt><trkpt lat="37.56424" lon="15.100105"><ele>336.0</ele><time>2026-05-06T13:15:11.036Z</time></trkpt><trkpt lat="37.56439" lon="15.1003133"><ele>337.3333333333333</ele><time>2026-05-06T13:15:12.036Z</time></trkpt><trkpt lat="37.56454" lon="15.1005233"><ele>338.66666666666663</ele><time>2026-05-06T13:15:13.036Z</time></trkpt><trkpt lat="37.5646933" lon="15.1007233"><ele>340.0</ele><time>2026-05-06T13:15:14.036Z</time></trkpt><trkpt lat="37.5648417" lon="15.1008983"><ele>340.0</ele><time>2026-05-06T13:15:15.036Z</time></trkpt><trkpt lat="37.5649817" lon="15.1010683"><ele>340.0</ele><time>2026-05-06T13:15:16.036Z</time></trkpt><trkpt lat="37.565115" lon="15.1012233"><ele>340.0</ele><time>2026-05-06T13:15:17.036Z</time></trkpt><trkpt lat="37.56525" lon="15.101365"><ele>339.66666666666663</ele><time>2026-05-06T13:15:18.036Z</time></trkpt><trkpt lat="37.56538" lon="15.1014883"><ele>339.3333333333333</ele><time>2026-05-06T13:15:19.036Z</time></trkpt><trkpt lat="37.5655033" lon="15.10161"><ele>339.0</ele><time>2026-05-06T13:15:20.036Z</time></trkpt><trkpt lat="37.5656317" lon="15.101735"><ele>339.0</ele><time>2026-05-06T13:15:21.036Z</time></trkpt><trkpt lat="37.5657467" lon="15.1018517"><ele>339.0</ele><time>2026-05-06T13:15:22.036Z</time></trkpt><trkpt lat="37.5658583" lon="15.1019433"><ele>339.0</ele><time>2026-05-06T13:15:23.036Z</time></trkpt><trkpt lat="37.5659517" lon="15.1020417"><ele>339.0</ele><time>2026-05-06T13:15:24.036Z</time></trkpt><trkpt lat="37.5660433" lon="15.102135"><ele>339.0</ele><time>2026-05-06T13:15:25.036Z</time></trkpt><trkpt lat="37.5661283" lon="15.1022233"><ele>339.0</ele><time>2026-05-06T13:15:26.036Z</time></trkpt><trkpt lat="37.5662117" lon="15.1023117"><ele>339.0</ele><time>2026-05-06T13:15:27.036Z</time></trkpt><trkpt lat="37.5662867" lon="15.1023867"><ele>339.0</ele><time>2026-05-06T13:15:28.035Z</time></trkpt><trkpt lat="37.5663483" lon="15.1024567"><ele>339.0</ele><time>2026-05-06T13:15:29.036Z</time></trkpt><trkpt lat="37.5664083" lon="15.1025117"><ele>339.0</ele><time>2026-05-06T13:15:30.036Z</time></trkpt><trkpt lat="37.5664633" lon="15.1025583"><ele>339.0</ele><time>2026-05-06T13:15:31.036Z</time></trkpt><trkpt lat="37.566555" lon="15.10265"><ele>339.0</ele><time>2026-05-06T13:15:33.036Z</time></trkpt><trkpt lat="37.566635" lon="15.1027283"><ele>339.0</ele><time>2026-05-06T13:15:35.036Z</time></trkpt><trkpt lat="37.56671" lon="15.1027967"><ele>339.0</ele><time>2026-05-06T13:15:37.036Z</time></trkpt><trkpt lat="37.5667767" lon="15.102865"><ele>339.0</ele><time>2026-05-06T13:15:39.036Z</time></trkpt><trkpt lat="37.5668367" lon="15.1029317"><ele>339.0</ele><time>2026-05-06T13:15:41.036Z</time></trkpt><trkpt lat="37.5669167" lon="15.1030083"><ele>339.0</ele><time>2026-05-06T13:15:43.036Z</time></trkpt><trkpt lat="37.5670033" lon="15.1030833"><ele>339.0</ele><time>2026-05-06T13:15:45.036Z</time></trkpt><trkpt lat="37.5670967" lon="15.1031667"><ele>339.0</ele><time>2026-05-06T13:15:47.035Z</time></trkpt><trkpt lat="37.567195" lon="15.103265"><ele>338.79999999999995</ele><time>2026-05-06T13:15:49.036Z</time></trkpt><trkpt lat="37.5672533" lon="15.10333"><ele>338.59999999999997</ele><time>2026-05-06T13:15:50.036Z</time></trkpt><trkpt lat="37.5673167" lon="15.1034"><ele>338.4</ele><time>2026-05-06T13:15:51.036Z</time></trkpt><trkpt lat="37.56739" lon="15.1034733"><ele>338.2</ele><time>2026-05-06T13:15:52.036Z</time></trkpt><trkpt lat="37.5674733" lon="15.10355"><ele>338.0</ele><time>2026-05-06T13:15:53.036Z</time></trkpt><trkpt lat="37.5675683" lon="15.1036283"><ele>338.0</ele><time>2026-05-06T13:15:54.036Z</time></trkpt><trkpt lat="37.5676767" lon="15.103715"><ele>338.0</ele><time>2026-05-06T13:15:55.036Z</time></trkpt><trkpt lat="37.5677883" lon="15.1038067"><ele>338.0</ele><time>2026-05-06T13:15:56.036Z</time></trkpt><trkpt lat="37.5679117" lon="15.1039117"><ele>338.0</ele><time>2026-05-06T13:15:57.036Z</time></trkpt><trkpt lat="37.568055" lon="15.1040333"><ele>336.6666666666667</ele><time>2026-05-06T13:15:58.036Z</time></trkpt><trkpt lat="37.5682117" lon="15.1041717"><ele>335.3333333333333</ele><time>2026-05-06T13:15:59.036Z</time></trkpt><trkpt lat="37.5683783" lon="15.104325"><ele>334.0</ele><time>2026-05-06T13:16:00.036Z</time></trkpt><trkpt lat="37.568555" lon="15.10449"><ele>334.0</ele><time>2026-05-06T13:16:01.036Z</time></trkpt><trkpt lat="37.5687333" lon="15.104665"><ele>334.0</ele><time>2026-05-06T13:16:02.035Z</time></trkpt><trkpt lat="37.568915" lon="15.1048317"><ele>335.0</ele><time>2026-05-06T13:16:03.036Z</time></trkpt><trkpt lat="37.5690983" lon="15.105"><ele>336.0</ele><time>2026-05-06T13:16:04.036Z</time></trkpt><trkpt lat="37.5692817" lon="15.1051717"><ele>336.0</ele><time>2026-05-06T13:16:05.036Z</time></trkpt><trkpt lat="37.5694633" lon="15.1053433"><ele>336.0</ele><time>2026-05-06T13:16:06.036Z</time></trkpt><trkpt lat="37.5696433" lon="15.105515"><ele>335.5</ele><time>2026-05-06T13:16:07.036Z</time></trkpt><trkpt lat="37.5698317" lon="15.1056867"><ele>335.0</ele><time>2026-05-06T13:16:08.036Z</time></trkpt><trkpt lat="37.5700133" lon="15.1058583"><ele>335.0</ele><time>2026-05-06T13:16:09.036Z</time></trkpt><trkpt lat="37.5701967" lon="15.1060317"><ele>335.0</ele><time>2026-05-06T13:16:10.036Z</time></trkpt><trkpt lat="37.5703833" lon="15.1061983"><ele>335.0</ele><time>2026-05-06T13:16:11.036Z</time></trkpt><trkpt lat="37.5705667" lon="15.1063717"><ele>335.0</ele><time>2026-05-06T13:16:12.036Z</time></trkpt><trkpt lat="37.570755" lon="15.1065517"><ele>335.5</ele><time>2026-05-06T13:16:13.036Z</time></trkpt><trkpt lat="37.5709467" lon="15.10673"><ele>336.0</ele><time>2026-05-06T13:16:14.036Z</time></trkpt><trkpt lat="37.5711467" lon="15.1069067"><ele>335.0</ele><time>2026-05-06T13:16:15.036Z</time></trkpt><trkpt lat="37.571335" lon="15.1070833"><ele>334.0</ele><time>2026-05-06T13:16:16.036Z</time></trkpt><trkpt lat="37.5715233" lon="15.1072633"><ele>333.5</ele><time>2026-05-06T13:16:17.036Z</time></trkpt><trkpt lat="37.57172" lon="15.1074433"><ele>333.0</ele><time>2026-05-06T13:16:18.036Z</time></trkpt><trkpt lat="37.5719183" lon="15.1076283"><ele>332.0</ele><time>2026-05-06T13:16:19.036Z</time></trkpt><trkpt lat="37.5721167" lon="15.1078083"><ele>331.0</ele><time>2026-05-06T13:16:20.036Z</time></trkpt><trkpt lat="37.5723117" lon="15.1079917"><ele>331.0</ele><time>2026-05-06T13:16:21.036Z</time></trkpt><trkpt lat="37.572515" lon="15.108175"><ele>331.0</ele><time>2026-05-06T13:16:22.035Z</time></trkpt><trkpt lat="37.5727183" lon="15.1083633"><ele>331.5</ele><time>2026-05-06T13:16:23.036Z</time></trkpt><trkpt lat="37.5729083" lon="15.1085567"><ele>332.0</ele><time>2026-05-06T13:16:24.036Z</time></trkpt><trkpt lat="37.5730983" lon="15.1087467"><ele>332.0</ele><time>2026-05-06T13:16:25.036Z</time></trkpt><trkpt lat="37.5732883" lon="15.1089433"><ele>332.0</ele><time>2026-05-06T13:16:26.036Z</time></trkpt><trkpt lat="37.573475" lon="15.10913"><ele>332.0</ele><time>2026-05-06T13:16:27.036Z</time></trkpt><trkpt lat="37.5736633" lon="15.1093167"><ele>332.0</ele><time>2026-05-06T13:16:28.036Z</time></trkpt><trkpt lat="37.57385" lon="15.1094883"><ele>332.0</ele><time>2026-05-06T13:16:29.036Z</time></trkpt><trkpt lat="37.574035" lon="15.109665"><ele>332.0</ele><time>2026-05-06T13:16:30.036Z</time></trkpt><trkpt lat="37.5742233" lon="15.1098367"><ele>333.0</ele><time>2026-05-06T13:16:31.036Z</time></trkpt><trkpt lat="37.5744017" lon="15.110015"><ele>334.0</ele><time>2026-05-06T13:16:32.036Z</time></trkpt><trkpt lat="37.5745783" lon="15.11019"><ele>334.5</ele><time>2026-05-06T13:16:33.036Z</time></trkpt><trkpt lat="37.5747583" lon="15.1103567"><ele>335.0</ele><time>2026-05-06T13:16:34.036Z</time></trkpt><trkpt lat="37.5749317" lon="15.110545"><ele>335.0</ele><time>2026-05-06T13:16:35.036Z</time></trkpt><trkpt lat="37.5751017" lon="15.1107267"><ele>335.0</ele><time>2026-05-06T13:16:36.036Z</time></trkpt><trkpt lat="37.575265" lon="15.1109167"><ele>335.0</ele><time>2026-05-06T13:16:37.036Z</time></trkpt><trkpt lat="37.5754267" lon="15.1111067"><ele>335.6666666666667</ele><time>2026-05-06T13:16:38.036Z</time></trkpt><trkpt lat="37.575585" lon="15.1112967"><ele>336.3333333333333</ele><time>2026-05-06T13:16:39.036Z</time></trkpt><trkpt lat="37.57574" lon="15.1114917"><ele>337.0</ele><time>2026-05-06T13:16:40.036Z</time></trkpt><trkpt lat="37.575895" lon="15.11169"><ele>337.0</ele><time>2026-05-06T13:16:41.036Z</time></trkpt><trkpt lat="37.5760517" lon="15.1118867"><ele>337.0</ele><time>2026-05-06T13:16:42.036Z</time></trkpt><trkpt lat="37.5762017" lon="15.112085"><ele>337.0</ele><time>2026-05-06T13:16:43.036Z</time></trkpt><trkpt lat="37.5763517" lon="15.112285"><ele>338.0</ele><time>2026-05-06T13:16:44.036Z</time></trkpt><trkpt lat="37.5764933" lon="15.1124933"><ele>339.0</ele><time>2026-05-06T13:16:45.036Z</time></trkpt><trkpt lat="37.576635" lon="15.1127033"><ele>340.0</ele><time>2026-05-06T13:16:46.036Z</time></trkpt><trkpt lat="37.5767717" lon="15.1129133"><ele>340.0</ele><time>2026-05-06T13:16:47.036Z</time></trkpt><trkpt lat="37.5769067" lon="15.11313"><ele>340.0</ele><time>2026-05-06T13:16:48.036Z</time></trkpt><trkpt lat="37.5770367" lon="15.1133467"><ele>340.0</ele><time>2026-05-06T13:16:49.036Z</time></trkpt><trkpt lat="37.5771617" lon="15.1135633"><ele>340.0</ele><time>2026-05-06T13:16:50.036Z</time></trkpt><trkpt lat="37.577285" lon="15.113785"><ele>340.0</ele><time>2026-05-06T13:16:51.036Z</time></trkpt><trkpt lat="37.5774067" lon="15.114005"><ele>340.0</ele><time>2026-05-06T13:16:52.036Z</time></trkpt><trkpt lat="37.577535" lon="15.1142233"><ele>339.3333333333333</ele><time>2026-05-06T13:16:53.036Z</time></trkpt><trkpt lat="37.5776583" lon="15.1144367"><ele>338.6666666666667</ele><time>2026-05-06T13:16:54.036Z</time></trkpt><trkpt lat="37.5777867" lon="15.114655"><ele>338.0</ele><time>2026-05-06T13:16:55.036Z</time></trkpt><trkpt lat="37.5779183" lon="15.114875"><ele>337.6666666666667</ele><time>2026-05-06T13:16:56.036Z</time></trkpt><trkpt lat="37.5780467" lon="15.1151017"><ele>337.3333333333333</ele><time>2026-05-06T13:16:57.035Z</time></trkpt><trkpt lat="37.5781783" lon="15.1153167"><ele>337.0</ele><time>2026-05-06T13:16:58.036Z</time></trkpt><trkpt lat="37.5783017" lon="15.1155433"><ele>336.0</ele><time>2026-05-06T13:16:59.036Z</time></trkpt><trkpt lat="37.5784267" lon="15.11576"><ele>335.0</ele><time>2026-05-06T13:17:00.036Z</time></trkpt><trkpt lat="37.5785467" lon="15.1159667"><ele>334.0</ele><time>2026-05-06T13:17:01.036Z</time></trkpt><trkpt lat="37.578665" lon="15.1161783"><ele>335.0</ele><time>2026-05-06T13:17:02.036Z</time></trkpt><trkpt lat="37.5787833" lon="15.1163833"><ele>336.0</ele><time>2026-05-06T13:17:03.036Z</time></trkpt><trkpt lat="37.5789" lon="15.1165867"><ele>337.0</ele><time>2026-05-06T13:17:04.036Z</time></trkpt><trkpt lat="37.579015" lon="15.1167867"><ele>337.0</ele><time>2026-05-06T13:17:05.036Z</time></trkpt><trkpt lat="37.5791283" lon="15.1169867"><ele>337.0</ele><time>2026-05-06T13:17:06.036Z</time></trkpt><trkpt lat="37.5792417" lon="15.1171867"><ele>337.0</ele><time>2026-05-06T13:17:07.036Z</time></trkpt><trkpt lat="37.5793533" lon="15.1173817"><ele>336.66666666666663</ele><time>2026-05-06T13:17:08.036Z</time></trkpt><trkpt lat="37.5794667" lon="15.11758"><ele>336.3333333333333</ele><time>2026-05-06T13:17:09.036Z</time></trkpt><trkpt lat="37.5795783" lon="15.117775"><ele>336.0</ele><time>2026-05-06T13:17:10.036Z</time></trkpt><trkpt lat="37.5796867" lon="15.11797"><ele>336.3333333333333</ele><time>2026-05-06T13:17:11.036Z</time></trkpt><trkpt lat="37.5798017" lon="15.1181683"><ele>336.66666666666663</ele><time>2026-05-06T13:17:12.035Z</time></trkpt><trkpt lat="37.579915" lon="15.118365"><ele>337.0</ele><time>2026-05-06T13:17:13.035Z</time></trkpt><trkpt lat="37.5800233" lon="15.1185617"><ele>337.0</ele><time>2026-05-06T13:17:14.036Z</time></trkpt><trkpt lat="37.58013" lon="15.11875"><ele>337.0</ele><time>2026-05-06T13:17:15.035Z</time></trkpt><trkpt lat="37.5802417" lon="15.1189317"><ele>337.0</ele><time>2026-05-06T13:17:16.035Z</time></trkpt><trkpt lat="37.5803533" lon="15.1191083"><ele>337.0</ele><time>2026-05-06T13:17:17.036Z</time></trkpt><trkpt lat="37.5804633" lon="15.1192883"><ele>337.0</ele><time>2026-05-06T13:17:18.036Z</time></trkpt><trkpt lat="37.58057" lon="15.1194667"><ele>337.0</ele><time>2026-05-06T13:17:19.036Z</time></trkpt><trkpt lat="37.5806783" lon="15.119645"><ele>337.0</ele><time>2026-05-06T13:17:20.036Z</time></trkpt><trkpt lat="37.580795" lon="15.1198217"><ele>337.0</ele><time>2026-05-06T13:17:21.036Z</time></trkpt><trkpt lat="37.58091" lon="15.1199983"><ele>337.0</ele><time>2026-05-06T13:17:22.036Z</time></trkpt><trkpt lat="37.5810267" lon="15.12018"><ele>335.66666666666663</ele><time>2026-05-06T13:17:23.036Z</time></trkpt><trkpt lat="37.58115" lon="15.1203617"><ele>334.3333333333333</ele><time>2026-05-06T13:17:24.036Z</time></trkpt><trkpt lat="37.581285" lon="15.12055"><ele>333.0</ele><time>2026-05-06T13:17:25.036Z</time></trkpt><trkpt lat="37.5814167" lon="15.1207333"><ele>332.6666666666667</ele><time>2026-05-06T13:17:26.036Z</time></trkpt><trkpt lat="37.5815533" lon="15.1209167"><ele>332.33333333333337</ele><time>2026-05-06T13:17:27.036Z</time></trkpt><trkpt lat="37.581695" lon="15.1211"><ele>332.0</ele><time>2026-05-06T13:17:28.036Z</time></trkpt><trkpt lat="37.5818367" lon="15.1212817"><ele>332.0</ele><time>2026-05-06T13:17:29.036Z</time></trkpt><trkpt lat="37.581985" lon="15.121455"><ele>332.0</ele><time>2026-05-06T13:17:30.036Z</time></trkpt><trkpt lat="37.5821383" lon="15.1216283"><ele>332.0</ele><time>2026-05-06T13:17:31.036Z</time></trkpt><trkpt lat="37.5822867" lon="15.1217967"><ele>333.33333333333337</ele><time>2026-05-06T13:17:32.036Z</time></trkpt><trkpt lat="37.5824317" lon="15.1219533"><ele>334.6666666666667</ele><time>2026-05-06T13:17:33.036Z</time></trkpt><trkpt lat="37.58258" lon="15.1221167"><ele>336.0</ele><time>2026-05-06T13:17:34.036Z</time></trkpt><trkpt lat="37.5827283" lon="15.1222667"><ele>335.3333333333333</ele><time>2026-05-06T13:17:35.036Z</time></trkpt><trkpt lat="37.5828767" lon="15.1224167"><ele>334.66666666666663</ele><time>2026-05-06T13:17:36.036Z</time></trkpt><trkpt lat="37.583025" lon="15.1225683"><ele>334.0</ele><time>2026-05-06T13:17:37.036Z</time></trkpt><trkpt lat="37.5831733" lon="15.1227133"><ele>334.0</ele><time>2026-05-06T13:17:38.036Z</time></trkpt><trkpt lat="37.5833217" lon="15.1228517"><ele>334.0</ele><time>2026-05-06T13:17:39.036Z</time></trkpt><trkpt lat="37.5834683" lon="15.122985"><ele>334.0</ele><time>2026-05-06T13:17:40.036Z</time></trkpt><trkpt lat="37.583615" lon="15.123115"><ele>334.3333333333333</ele><time>2026-05-06T13:17:41.036Z</time></trkpt><trkpt lat="37.5837633" lon="15.123245"><ele>334.6666666666667</ele><time>2026-05-06T13:17:42.036Z</time></trkpt><trkpt lat="37.58391" lon="15.12337"><ele>335.0</ele><time>2026-05-06T13:17:43.036Z</time></trkpt><trkpt lat="37.5840617" lon="15.1234917"><ele>335.0</ele><time>2026-05-06T13:17:44.036Z</time></trkpt><trkpt lat="37.5842033" lon="15.1236167"><ele>335.0</ele><time>2026-05-06T13:17:45.036Z</time></trkpt><trkpt lat="37.5843533" lon="15.1237433"><ele>335.0</ele><time>2026-05-06T13:17:46.036Z</time></trkpt><trkpt lat="37.5845067" lon="15.1238833"><ele>335.33333333333337</ele><time>2026-05-06T13:17:47.036Z</time></trkpt><trkpt lat="37.58466" lon="15.1240117"><ele>335.6666666666667</ele><time>2026-05-06T13:17:48.036Z</time></trkpt><trkpt lat="37.58482" lon="15.1241433"><ele>336.0</ele><time>2026-05-06T13:17:49.036Z</time></trkpt><trkpt lat="37.5849817" lon="15.1242717"><ele>332.6666666666667</ele><time>2026-05-06T13:17:50.035Z</time></trkpt><trkpt lat="37.5851483" lon="15.1244033"><ele>329.33333333333337</ele><time>2026-05-06T13:17:51.036Z</time></trkpt><trkpt lat="37.5853233" lon="15.1245417"><ele>326.0</ele><time>2026-05-06T13:17:52.036Z</time></trkpt><trkpt lat="37.5855" lon="15.1246867"><ele>324.6666666666667</ele><time>2026-05-06T13:17:53.036Z</time></trkpt><trkpt lat="37.5856767" lon="15.1248333"><ele>323.3333333333333</ele><time>2026-05-06T13:17:54.035Z</time></trkpt><trkpt lat="37.585855" lon="15.1249783"><ele>322.0</ele><time>2026-05-06T13:17:55.036Z</time></trkpt><trkpt lat="37.58603" lon="15.1251283"><ele>319.66666666666663</ele><time>2026-05-06T13:17:56.036Z</time></trkpt><trkpt lat="37.5862133" lon="15.12528"><ele>317.3333333333333</ele><time>2026-05-06T13:17:57.036Z</time></trkpt><trkpt lat="37.586395" lon="15.1254433"><ele>315.0</ele><time>2026-05-06T13:17:58.036Z</time></trkpt><trkpt lat="37.5865817" lon="15.125595"><ele>314.6666666666667</ele><time>2026-05-06T13:17:59.036Z</time></trkpt><trkpt lat="37.586765" lon="15.125745"><ele>314.33333333333337</ele><time>2026-05-06T13:18:00.036Z</time></trkpt><trkpt lat="37.58695" lon="15.125895"><ele>314.0</ele><time>2026-05-06T13:18:01.036Z</time></trkpt><trkpt lat="37.5871333" lon="15.12605"><ele>313.6666666666667</ele><time>2026-05-06T13:18:02.036Z</time></trkpt><trkpt lat="37.5873183" lon="15.1261983"><ele>313.3333333333333</ele><time>2026-05-06T13:18:03.036Z</time></trkpt><trkpt lat="37.587505" lon="15.1263467"><ele>313.0</ele><time>2026-05-06T13:18:04.036Z</time></trkpt><trkpt lat="37.5876917" lon="15.1265"><ele>314.3333333333333</ele><time>2026-05-06T13:18:05.036Z</time></trkpt><trkpt lat="37.5878783" lon="15.1266533"><ele>315.6666666666667</ele><time>2026-05-06T13:18:06.035Z</time></trkpt><trkpt lat="37.5880717" lon="15.1268017"><ele>317.0</ele><time>2026-05-06T13:18:07.036Z</time></trkpt><trkpt lat="37.58826" lon="15.1269383"><ele>317.0</ele><time>2026-05-06T13:18:08.035Z</time></trkpt><trkpt lat="37.5884517" lon="15.1270733"><ele>317.0</ele><time>2026-05-06T13:18:09.036Z</time></trkpt><trkpt lat="37.5886367" lon="15.1272017"><ele>317.0</ele><time>2026-05-06T13:18:10.036Z</time></trkpt><trkpt lat="37.588845" lon="15.1273383"><ele>317.5</ele><time>2026-05-06T13:18:11.036Z</time></trkpt><trkpt lat="37.5890667" lon="15.12747"><ele>318.0</ele><time>2026-05-06T13:18:12.036Z</time></trkpt><trkpt lat="37.5893067" lon="15.1276"><ele>319.0</ele><time>2026-05-06T13:18:13.036Z</time></trkpt><trkpt lat="37.5895483" lon="15.1277283"><ele>320.0</ele><time>2026-05-06T13:18:14.036Z</time></trkpt><trkpt lat="37.5898017" lon="15.127855"><ele>320.0</ele><time>2026-05-06T13:18:15.036Z</time></trkpt><trkpt lat="37.5900517" lon="15.1279783"><ele>320.0</ele><time>2026-05-06T13:18:16.035Z</time></trkpt><trkpt lat="37.5902933" lon="15.1281"><ele>320.5</ele><time>2026-05-06T13:18:17.036Z</time></trkpt><trkpt lat="37.5905417" lon="15.128215"><ele>321.0</ele><time>2026-05-06T13:18:18.036Z</time></trkpt><trkpt lat="37.5907883" lon="15.1283283"><ele>318.5</ele><time>2026-05-06T13:18:19.036Z</time></trkpt><trkpt lat="37.5910317" lon="15.1284167"><ele>316.0</ele><time>2026-05-06T13:18:20.036Z</time></trkpt><trkpt lat="37.5912883" lon="15.1285083"><ele>316.0</ele><time>2026-05-06T13:18:21.036Z</time></trkpt><trkpt lat="37.5915467" lon="15.1286017"><ele>316.0</ele><time>2026-05-06T13:18:22.036Z</time></trkpt><trkpt lat="37.59181" lon="15.1286933"><ele>314.5</ele><time>2026-05-06T13:18:23.036Z</time></trkpt><trkpt lat="37.5920717" lon="15.1287717"><ele>313.0</ele><time>2026-05-06T13:18:24.036Z</time></trkpt><trkpt lat="37.5923367" lon="15.12884"><ele>313.0</ele><time>2026-05-06T13:18:25.036Z</time></trkpt><trkpt lat="37.5926033" lon="15.1289067"><ele>313.0</ele><time>2026-05-06T13:18:26.036Z</time></trkpt><trkpt lat="37.5928733" lon="15.1289717"><ele>311.0</ele><time>2026-05-06T13:18:27.036Z</time></trkpt><trkpt lat="37.5931383" lon="15.129025"><ele>309.0</ele><time>2026-05-06T13:18:28.036Z</time></trkpt><trkpt lat="37.5934033" lon="15.1290783"><ele>306.0</ele><time>2026-05-06T13:18:29.036Z</time></trkpt><trkpt lat="37.59367" lon="15.1291233"><ele>303.0</ele><time>2026-05-06T13:18:30.036Z</time></trkpt><trkpt lat="37.5939367" lon="15.1291683"><ele>303.0</ele><time>2026-05-06T13:18:31.036Z</time></trkpt><trkpt lat="37.5942083" lon="15.1292083"><ele>303.0</ele><time>2026-05-06T13:18:32.036Z</time></trkpt><trkpt lat="37.59448" lon="15.1292533"><ele>302.5</ele><time>2026-05-06T13:18:33.036Z</time></trkpt><trkpt lat="37.59475" lon="15.129295"><ele>302.0</ele><time>2026-05-06T13:18:34.036Z</time></trkpt><trkpt lat="37.59502" lon="15.12934"><ele>302.0</ele><time>2026-05-06T13:18:35.036Z</time></trkpt><trkpt lat="37.5952883" lon="15.1293817"><ele>302.0</ele><time>2026-05-06T13:18:36.036Z</time></trkpt><trkpt lat="37.5955567" lon="15.12943"><ele>299.5</ele><time>2026-05-06T13:18:37.036Z</time></trkpt><trkpt lat="37.5958233" lon="15.1294767"><ele>297.0</ele><time>2026-05-06T13:18:38.035Z</time></trkpt><trkpt lat="37.5960967" lon="15.1295183"><ele>297.5</ele><time>2026-05-06T13:18:39.036Z</time></trkpt><trkpt lat="37.5963617" lon="15.12957"><ele>298.0</ele><time>2026-05-06T13:18:40.036Z</time></trkpt><trkpt lat="37.5966283" lon="15.1296233"><ele>298.0</ele><time>2026-05-06T13:18:41.036Z</time></trkpt><trkpt lat="37.5968933" lon="15.12968"><ele>298.0</ele><time>2026-05-06T13:18:42.036Z</time></trkpt><trkpt lat="37.5971517" lon="15.129755"><ele>297.0</ele><time>2026-05-06T13:18:43.035Z</time></trkpt><trkpt lat="37.5974083" lon="15.12984"><ele>296.0</ele><time>2026-05-06T13:18:44.036Z</time></trkpt><trkpt lat="37.5976667" lon="15.1299283"><ele>294.5</ele><time>2026-05-06T13:18:45.036Z</time></trkpt><trkpt lat="37.597925" lon="15.1300133"><ele>293.0</ele><time>2026-05-06T13:18:46.036Z</time></trkpt><trkpt lat="37.5981783" lon="15.1301067"><ele>293.0</ele><time>2026-05-06T13:18:47.036Z</time></trkpt><trkpt lat="37.5984383" lon="15.1302133"><ele>293.0</ele><time>2026-05-06T13:18:48.036Z</time></trkpt><trkpt lat="37.5986967" lon="15.13032"><ele>292.0</ele><time>2026-05-06T13:18:49.036Z</time></trkpt><trkpt lat="37.59895" lon="15.1304383"><ele>291.0</ele><time>2026-05-06T13:18:50.036Z</time></trkpt><trkpt lat="37.599205" lon="15.1305517"><ele>291.0</ele><time>2026-05-06T13:18:51.036Z</time></trkpt><trkpt lat="37.5994583" lon="15.13067"><ele>291.0</ele><time>2026-05-06T13:18:52.036Z</time></trkpt><trkpt lat="37.59971" lon="15.130785"><ele>291.5</ele><time>2026-05-06T13:18:53.036Z</time></trkpt><trkpt lat="37.5999517" lon="15.1308967"><ele>292.0</ele><time>2026-05-06T13:18:54.036Z</time></trkpt><trkpt lat="37.6002033" lon="15.13101"><ele>293.5</ele><time>2026-05-06T13:18:55.036Z</time></trkpt><trkpt lat="37.600435" lon="15.131125"><ele>295.0</ele><time>2026-05-06T13:18:56.036Z</time></trkpt><trkpt lat="37.6006733" lon="15.131235"><ele>295.0</ele><time>2026-05-06T13:18:57.036Z</time></trkpt><trkpt lat="37.600915" lon="15.1313433"><ele>295.0</ele><time>2026-05-06T13:18:58.036Z</time></trkpt><trkpt lat="37.6011667" lon="15.1314567"><ele>294.0</ele><time>2026-05-06T13:18:59.036Z</time></trkpt><trkpt lat="37.6014233" lon="15.131575"><ele>293.0</ele><time>2026-05-06T13:19:00.036Z</time></trkpt><trkpt lat="37.60169" lon="15.1317"><ele>293.0</ele><time>2026-05-06T13:19:01.036Z</time></trkpt><trkpt lat="37.6019617" lon="15.1318283"><ele>293.0</ele><time>2026-05-06T13:19:02.036Z</time></trkpt><trkpt lat="37.6022317" lon="15.1319517"><ele>292.0</ele><time>2026-05-06T13:19:03.036Z</time></trkpt><trkpt lat="37.6024983" lon="15.1320667"><ele>291.0</ele><time>2026-05-06T13:19:04.036Z</time></trkpt><trkpt lat="37.6027533" lon="15.1321867"><ele>288.0</ele><time>2026-05-06T13:19:05.036Z</time></trkpt><trkpt lat="37.6029967" lon="15.1323017"><ele>285.0</ele><time>2026-05-06T13:19:06.036Z</time></trkpt><trkpt lat="37.603235" lon="15.13241"><ele>284.0</ele><time>2026-05-06T13:19:07.036Z</time></trkpt><trkpt lat="37.6034683" lon="15.1325217"><ele>283.0</ele><time>2026-05-06T13:19:08.036Z</time></trkpt><trkpt lat="37.6037017" lon="15.132635"><ele>281.0</ele><time>2026-05-06T13:19:09.036Z</time></trkpt><trkpt lat="37.6039467" lon="15.1327433"><ele>279.0</ele><time>2026-05-06T13:19:10.036Z</time></trkpt><trkpt lat="37.6042033" lon="15.1328617"><ele>279.0</ele><time>2026-05-06T13:19:11.036Z</time></trkpt><trkpt lat="37.60447" lon="15.13298"><ele>279.0</ele><time>2026-05-06T13:19:12.036Z</time></trkpt><trkpt lat="37.6047367" lon="15.133105"><ele>275.5</ele><time>2026-05-06T13:19:13.036Z</time></trkpt><trkpt lat="37.604995" lon="15.1332267"><ele>272.0</ele><time>2026-05-06T13:19:14.036Z</time></trkpt><trkpt lat="37.6052583" lon="15.1333417"><ele>275.0</ele><time>2026-05-06T13:19:15.036Z</time></trkpt><trkpt lat="37.6055117" lon="15.1334633"><ele>278.0</ele><time>2026-05-06T13:19:16.036Z</time></trkpt><trkpt lat="37.6057467" lon="15.1335767"><ele>278.0</ele><time>2026-05-06T13:19:17.035Z</time></trkpt><trkpt lat="37.6059783" lon="15.13368"><ele>278.0</ele><time>2026-05-06T13:19:18.036Z</time></trkpt><trkpt lat="37.6061967" lon="15.1337933"><ele>280.5</ele><time>2026-05-06T13:19:19.036Z</time></trkpt><trkpt lat="37.606415" lon="15.1339"><ele>283.0</ele><time>2026-05-06T13:19:20.036Z</time></trkpt><trkpt lat="37.6066317" lon="15.1339933"><ele>282.3333333333333</ele><time>2026-05-06T13:19:21.036Z</time></trkpt><trkpt lat="37.6068433" lon="15.1340867"><ele>281.6666666666667</ele><time>2026-05-06T13:19:22.035Z</time></trkpt><trkpt lat="37.60705" lon="15.1341717"><ele>281.0</ele><time>2026-05-06T13:19:23.036Z</time></trkpt><trkpt lat="37.607255" lon="15.1342533"><ele>281.0</ele><time>2026-05-06T13:19:24.036Z</time></trkpt><trkpt lat="37.6074583" lon="15.13433"><ele>281.0</ele><time>2026-05-06T13:19:25.036Z</time></trkpt><trkpt lat="37.6076683" lon="15.134385"><ele>281.0</ele><time>2026-05-06T13:19:26.036Z</time></trkpt><trkpt lat="37.60788" lon="15.1344417"><ele>280.6666666666667</ele><time>2026-05-06T13:19:27.036Z</time></trkpt><trkpt lat="37.6080783" lon="15.1344983"><ele>280.3333333333333</ele><time>2026-05-06T13:19:28.036Z</time></trkpt><trkpt lat="37.60828" lon="15.1345433"><ele>280.0</ele><time>2026-05-06T13:19:29.036Z</time></trkpt><trkpt lat="37.6084883" lon="15.1345867"><ele>280.66666666666663</ele><time>2026-05-06T13:19:30.036Z</time></trkpt><trkpt lat="37.608695" lon="15.13462"><ele>281.3333333333333</ele><time>2026-05-06T13:19:31.036Z</time></trkpt><trkpt lat="37.6089" lon="15.1346517"><ele>282.0</ele><time>2026-05-06T13:19:32.036Z</time></trkpt><trkpt lat="37.609105" lon="15.1346633"><ele>282.0</ele><time>2026-05-06T13:19:33.036Z</time></trkpt><trkpt lat="37.6093067" lon="15.134675"><ele>282.0</ele><time>2026-05-06T13:19:34.036Z</time></trkpt><trkpt lat="37.60951" lon="15.1346867"><ele>282.0</ele><time>2026-05-06T13:19:35.036Z</time></trkpt><trkpt lat="37.6097117" lon="15.1346933"><ele>282.3333333333333</ele><time>2026-05-06T13:19:36.036Z</time></trkpt><trkpt lat="37.6099183" lon="15.1346883"><ele>282.66666666666663</ele><time>2026-05-06T13:19:37.036Z</time></trkpt><trkpt lat="37.6101283" lon="15.1346817"><ele>283.0</ele><time>2026-05-06T13:19:38.035Z</time></trkpt><trkpt lat="37.6103483" lon="15.1346683"><ele>285.0</ele><time>2026-05-06T13:19:39.036Z</time></trkpt><trkpt lat="37.6105667" lon="15.1346483"><ele>287.0</ele><time>2026-05-06T13:19:40.036Z</time></trkpt><trkpt lat="37.6108067" lon="15.1346117"><ele>287.0</ele><time>2026-05-06T13:19:41.036Z</time></trkpt><trkpt lat="37.6110567" lon="15.1345667"><ele>287.0</ele><time>2026-05-06T13:19:42.036Z</time></trkpt><trkpt lat="37.6113167" lon="15.1345267"><ele>286.5</ele><time>2026-05-06T13:19:43.036Z</time></trkpt><trkpt lat="37.6116033" lon="15.1344817"><ele>286.0</ele><time>2026-05-06T13:19:44.036Z</time></trkpt><trkpt lat="37.6119" lon="15.1344433"><ele>286.0</ele><time>2026-05-06T13:19:45.036Z</time></trkpt><trkpt lat="37.6122167" lon="15.1343933"><ele>286.0</ele><time>2026-05-06T13:19:46.036Z</time></trkpt><trkpt lat="37.6125483" lon="15.134355"><ele>287.0</ele><time>2026-05-06T13:19:47.036Z</time></trkpt><trkpt lat="37.6128967" lon="15.1343083"><ele>288.0</ele><time>2026-05-06T13:19:48.036Z</time></trkpt><trkpt lat="37.613255" lon="15.1342633"><ele>288.0</ele><time>2026-05-06T13:19:49.036Z</time></trkpt><trkpt lat="37.613635" lon="15.1342333"><ele>288.0</ele><time>2026-05-06T13:19:50.036Z</time></trkpt><trkpt lat="37.6140233" lon="15.1342233"><ele>288.0</ele><time>2026-05-06T13:19:51.036Z</time></trkpt><trkpt lat="37.6143983" lon="15.134235"><ele>288.0</ele><time>2026-05-06T13:19:52.036Z</time></trkpt><trkpt lat="37.6147533" lon="15.13426"><ele>288.0</ele><time>2026-05-06T13:19:53.036Z</time></trkpt><trkpt lat="37.61508" lon="15.1343"><ele>288.0</ele><time>2026-05-06T13:19:54.036Z</time></trkpt><trkpt lat="37.6153967" lon="15.134345"><ele>286.0</ele><time>2026-05-06T13:19:55.036Z</time></trkpt><trkpt lat="37.615695" lon="15.13441"><ele>284.0</ele><time>2026-05-06T13:19:56.036Z</time></trkpt><trkpt lat="37.616" lon="15.1344817"><ele>283.5</ele><time>2026-05-06T13:19:57.036Z</time></trkpt><trkpt lat="37.6163017" lon="15.1345667"><ele>283.0</ele><time>2026-05-06T13:19:58.036Z</time></trkpt><trkpt lat="37.6166" lon="15.1346717"><ele>283.0</ele><time>2026-05-06T13:19:59.036Z</time></trkpt><trkpt lat="37.6168933" lon="15.1347967"><ele>283.0</ele><time>2026-05-06T13:20:00.036Z</time></trkpt><trkpt lat="37.6171867" lon="15.134935"><ele>282.0</ele><time>2026-05-06T13:20:01.036Z</time></trkpt><trkpt lat="37.6174733" lon="15.13507"><ele>281.0</ele><time>2026-05-06T13:20:02.036Z</time></trkpt><trkpt lat="37.6177617" lon="15.135225"><ele>282.0</ele><time>2026-05-06T13:20:03.035Z</time></trkpt><trkpt lat="37.61806" lon="15.1354067"><ele>283.0</ele><time>2026-05-06T13:20:04.036Z</time></trkpt><trkpt lat="37.618355" lon="15.1355967"><ele>283.5</ele><time>2026-05-06T13:20:05.036Z</time></trkpt><trkpt lat="37.6186417" lon="15.1357933"><ele>284.0</ele><time>2026-05-06T13:20:06.036Z</time></trkpt><trkpt lat="37.6189117" lon="15.1360167"><ele>284.0</ele><time>2026-05-06T13:20:07.036Z</time></trkpt><trkpt lat="37.6191733" lon="15.1362283"><ele>284.0</ele><time>2026-05-06T13:20:08.036Z</time></trkpt><trkpt lat="37.6194317" lon="15.13645"><ele>282.5</ele><time>2026-05-06T13:20:09.036Z</time></trkpt><trkpt lat="37.6196733" lon="15.13668"><ele>281.0</ele><time>2026-05-06T13:20:10.036Z</time></trkpt><trkpt lat="37.619905" lon="15.1369167"><ele>281.0</ele><time>2026-05-06T13:20:11.036Z</time></trkpt><trkpt lat="37.6201367" lon="15.137165"><ele>281.0</ele><time>2026-05-06T13:20:12.036Z</time></trkpt><trkpt lat="37.62036" lon="15.137415"><ele>277.5</ele><time>2026-05-06T13:20:13.036Z</time></trkpt><trkpt lat="37.6205767" lon="15.1376583"><ele>274.0</ele><time>2026-05-06T13:20:14.036Z</time></trkpt><trkpt lat="37.6207983" lon="15.1379067"><ele>274.0</ele><time>2026-05-06T13:20:15.036Z</time></trkpt><trkpt lat="37.621015" lon="15.13816"><ele>274.0</ele><time>2026-05-06T13:20:16.036Z</time></trkpt><trkpt lat="37.62124" lon="15.1384067"><ele>276.0</ele><time>2026-05-06T13:20:17.036Z</time></trkpt><trkpt lat="37.6214633" lon="15.1386367"><ele>278.0</ele><time>2026-05-06T13:20:18.036Z</time></trkpt><trkpt lat="37.6216883" lon="15.1388883"><ele>279.0</ele><time>2026-05-06T13:20:19.036Z</time></trkpt><trkpt lat="37.6219317" lon="15.1391517"><ele>280.0</ele><time>2026-05-06T13:20:20.036Z</time></trkpt><trkpt lat="37.6221933" lon="15.1394117"><ele>280.0</ele><time>2026-05-06T13:20:21.036Z</time></trkpt><trkpt lat="37.6224767" lon="15.13966"><ele>280.0</ele><time>2026-05-06T13:20:22.036Z</time></trkpt><trkpt lat="37.6227733" lon="15.1399017"><ele>280.0</ele><time>2026-05-06T13:20:23.036Z</time></trkpt><trkpt lat="37.62309" lon="15.1401433"><ele>280.0</ele><time>2026-05-06T13:20:24.036Z</time></trkpt><trkpt lat="37.623425" lon="15.14037"><ele>280.5</ele><time>2026-05-06T13:20:25.036Z</time></trkpt><trkpt lat="37.6237717" lon="15.1405833"><ele>281.0</ele><time>2026-05-06T13:20:26.036Z</time></trkpt><trkpt lat="37.6241233" lon="15.1407783"><ele>282.5</ele><time>2026-05-06T13:20:27.036Z</time></trkpt><trkpt lat="37.624485" lon="15.14095"><ele>284.0</ele><time>2026-05-06T13:20:28.036Z</time></trkpt><trkpt lat="37.62486" lon="15.1411033"><ele>284.0</ele><time>2026-05-06T13:20:29.036Z</time></trkpt><trkpt lat="37.6252383" lon="15.1412433"><ele>284.0</ele><time>2026-05-06T13:20:30.036Z</time></trkpt><trkpt lat="37.6256067" lon="15.1413583"><ele>285.0</ele><time>2026-05-06T13:20:31.036Z</time></trkpt><trkpt lat="37.6259517" lon="15.1414533"><ele>286.0</ele><time>2026-05-06T13:20:32.036Z</time></trkpt><trkpt lat="37.6262717" lon="15.1415317"><ele>288.0</ele><time>2026-05-06T13:20:33.036Z</time></trkpt><trkpt lat="37.626565" lon="15.1415967"><ele>290.0</ele><time>2026-05-06T13:20:34.036Z</time></trkpt><trkpt lat="37.6268483" lon="15.1416567"><ele>290.5</ele><time>2026-05-06T13:20:35.036Z</time></trkpt><trkpt lat="37.6271233" lon="15.1417233"><ele>291.0</ele><time>2026-05-06T13:20:36.036Z</time></trkpt><trkpt lat="37.6273967" lon="15.1417867"><ele>291.0</ele><time>2026-05-06T13:20:37.036Z</time></trkpt><trkpt lat="37.6276717" lon="15.1418533"><ele>291.0</ele><time>2026-05-06T13:20:38.036Z</time></trkpt><trkpt lat="37.6279217" lon="15.1419267"><ele>291.0</ele><time>2026-05-06T13:20:39.036Z</time></trkpt><trkpt lat="37.6281767" lon="15.1419867"><ele>291.0</ele><time>2026-05-06T13:20:40.035Z</time></trkpt><trkpt lat="37.6284217" lon="15.1420483"><ele>290.5</ele><time>2026-05-06T13:20:41.036Z</time></trkpt><trkpt lat="37.6286683" lon="15.14212"><ele>290.0</ele><time>2026-05-06T13:20:42.036Z</time></trkpt><trkpt lat="37.6289217" lon="15.1422067"><ele>290.0</ele><time>2026-05-06T13:20:43.036Z</time></trkpt><trkpt lat="37.629175" lon="15.1423033"><ele>290.0</ele><time>2026-05-06T13:20:44.036Z</time></trkpt><trkpt lat="37.6294133" lon="15.1423967"><ele>289.0</ele><time>2026-05-06T13:20:45.036Z</time></trkpt><trkpt lat="37.6296467" lon="15.1424917"><ele>288.0</ele><time>2026-05-06T13:20:46.036Z</time></trkpt><trkpt lat="37.6298783" lon="15.1425867"><ele>288.0</ele><time>2026-05-06T13:20:47.036Z</time></trkpt><trkpt lat="37.6301183" lon="15.14269"><ele>288.0</ele><time>2026-05-06T13:20:48.036Z</time></trkpt><trkpt lat="37.6303633" lon="15.1428067"><ele>286.5</ele><time>2026-05-06T13:20:49.036Z</time></trkpt><trkpt lat="37.6306133" lon="15.1429317"><ele>285.0</ele><time>2026-05-06T13:20:50.036Z</time></trkpt><trkpt lat="37.63087" lon="15.143065"><ele>281.5</ele><time>2026-05-06T13:20:51.036Z</time></trkpt><trkpt lat="37.6311483" lon="15.1432167"><ele>278.0</ele><time>2026-05-06T13:20:52.036Z</time></trkpt><trkpt lat="37.63143" lon="15.1433617"><ele>278.0</ele><time>2026-05-06T13:20:53.034Z</time></trkpt><trkpt lat="37.6317217" lon="15.1435017"><ele>278.0</ele><time>2026-05-06T13:20:54.035Z</time></trkpt><trkpt lat="37.632015" lon="15.1436667"><ele>279.0</ele><time>2026-05-06T13:20:55.035Z</time></trkpt><trkpt lat="37.632325" lon="15.1438283"><ele>280.0</ele><time>2026-05-06T13:20:56.035Z</time></trkpt><trkpt lat="37.63264" lon="15.1439767"><ele>281.0</ele><time>2026-05-06T13:20:57.035Z</time></trkpt><trkpt lat="37.63295" lon="15.1441217"><ele>282.0</ele><time>2026-05-06T13:20:58.035Z</time></trkpt><trkpt lat="37.6332683" lon="15.1442517"><ele>282.0</ele><time>2026-05-06T13:20:59.035Z</time></trkpt><trkpt lat="37.6335867" lon="15.144365"><ele>282.0</ele><time>2026-05-06T13:21:00.035Z</time></trkpt><trkpt lat="37.6339167" lon="15.1444567"><ele>283.0</ele><time>2026-05-06T13:21:01.035Z</time></trkpt><trkpt lat="37.63424" lon="15.1445317"><ele>284.0</ele><time>2026-05-06T13:21:02.035Z</time></trkpt><trkpt lat="37.63456" lon="15.14459"><ele>286.0</ele><time>2026-05-06T13:21:03.035Z</time></trkpt><trkpt lat="37.6348783" lon="15.1446467"><ele>288.0</ele><time>2026-05-06T13:21:04.035Z</time></trkpt><trkpt lat="37.6351817" lon="15.1446817"><ele>288.0</ele><time>2026-05-06T13:21:05.035Z</time></trkpt><trkpt lat="37.6354817" lon="15.1447133"><ele>288.0</ele><time>2026-05-06T13:21:06.034Z</time></trkpt><trkpt lat="37.6357733" lon="15.1447317"><ele>288.0</ele><time>2026-05-06T13:21:07.035Z</time></trkpt><trkpt lat="37.6360717" lon="15.1447583"><ele>288.0</ele><time>2026-05-06T13:21:08.035Z</time></trkpt><trkpt lat="37.6363667" lon="15.1447833"><ele>285.5</ele><time>2026-05-06T13:21:09.035Z</time></trkpt><trkpt lat="37.6366517" lon="15.1448083"><ele>283.0</ele><time>2026-05-06T13:21:10.035Z</time></trkpt><trkpt lat="37.6369317" lon="15.144835"><ele>283.0</ele><time>2026-05-06T13:21:11.035Z</time></trkpt><trkpt lat="37.637215" lon="15.14486"><ele>283.0</ele><time>2026-05-06T13:21:12.035Z</time></trkpt><trkpt lat="37.6374983" lon="15.1448883"><ele>280.5</ele><time>2026-05-06T13:21:13.035Z</time></trkpt><trkpt lat="37.6377833" lon="15.1449167"><ele>278.0</ele><time>2026-05-06T13:21:14.034Z</time></trkpt><trkpt lat="37.63808" lon="15.1449517"><ele>275.5</ele><time>2026-05-06T13:21:15.035Z</time></trkpt><trkpt lat="37.6383683" lon="15.1449917"><ele>273.0</ele><time>2026-05-06T13:21:16.035Z</time></trkpt><trkpt lat="37.63866" lon="15.1450483"><ele>271.0</ele><time>2026-05-06T13:21:17.035Z</time></trkpt><trkpt lat="37.638955" lon="15.1451183"><ele>269.0</ele><time>2026-05-06T13:21:18.035Z</time></trkpt><trkpt lat="37.6392483" lon="15.14519"><ele>269.5</ele><time>2026-05-06T13:21:19.035Z</time></trkpt><trkpt lat="37.63955" lon="15.1452733"><ele>270.0</ele><time>2026-05-06T13:21:20.035Z</time></trkpt><trkpt lat="37.6398567" lon="15.1453567"><ele>270.0</ele><time>2026-05-06T13:21:21.035Z</time></trkpt><trkpt lat="37.6401717" lon="15.145465"><ele>270.0</ele><time>2026-05-06T13:21:22.035Z</time></trkpt><trkpt lat="37.640505" lon="15.14557"><ele>267.0</ele><time>2026-05-06T13:21:23.035Z</time></trkpt><trkpt lat="37.6408367" lon="15.1456767"><ele>264.0</ele><time>2026-05-06T13:21:24.035Z</time></trkpt><trkpt lat="37.641165" lon="15.14578"><ele>262.0</ele><time>2026-05-06T13:21:25.035Z</time></trkpt><trkpt lat="37.6414833" lon="15.14589"><ele>260.0</ele><time>2026-05-06T13:21:26.035Z</time></trkpt><trkpt lat="37.641795" lon="15.1459933"><ele>259.5</ele><time>2026-05-06T13:21:27.035Z</time></trkpt><trkpt lat="37.6421133" lon="15.146095"><ele>259.0</ele><time>2026-05-06T13:21:28.035Z</time></trkpt><trkpt lat="37.6424267" lon="15.1461917"><ele>259.0</ele><time>2026-05-06T13:21:29.035Z</time></trkpt><trkpt lat="37.6427367" lon="15.1462917"><ele>259.0</ele><time>2026-05-06T13:21:30.035Z</time></trkpt><trkpt lat="37.6430417" lon="15.1463917"><ele>259.0</ele><time>2026-05-06T13:21:31.035Z</time></trkpt><trkpt lat="37.6433483" lon="15.1464883"><ele>259.0</ele><time>2026-05-06T13:21:32.035Z</time></trkpt><trkpt lat="37.6436583" lon="15.1465883"><ele>259.0</ele><time>2026-05-06T13:21:33.035Z</time></trkpt><trkpt lat="37.64396" lon="15.14668"><ele>259.0</ele><time>2026-05-06T13:21:34.035Z</time></trkpt><trkpt lat="37.644265" lon="15.1467767"><ele>263.0</ele><time>2026-05-06T13:21:35.035Z</time></trkpt><trkpt lat="37.6445733" lon="15.14688"><ele>267.0</ele><time>2026-05-06T13:21:36.035Z</time></trkpt><trkpt lat="37.6448983" lon="15.1469917"><ele>267.0</ele><time>2026-05-06T13:21:37.035Z</time></trkpt><trkpt lat="37.6452367" lon="15.1471183"><ele>267.0</ele><time>2026-05-06T13:21:38.034Z</time></trkpt><trkpt lat="37.6455883" lon="15.147235"><ele>267.5</ele><time>2026-05-06T13:21:39.035Z</time></trkpt><trkpt lat="37.6459267" lon="15.14735"><ele>268.0</ele><time>2026-05-06T13:21:40.035Z</time></trkpt><trkpt lat="37.6462467" lon="15.1474433"><ele>261.5</ele><time>2026-05-06T13:21:41.035Z</time></trkpt><trkpt lat="37.6465633" lon="15.1475417"><ele>255.0</ele><time>2026-05-06T13:21:42.035Z</time></trkpt><trkpt lat="37.6468717" lon="15.1476383"><ele>257.5</ele><time>2026-05-06T13:21:43.035Z</time></trkpt><trkpt lat="37.6471733" lon="15.1477283"><ele>260.0</ele><time>2026-05-06T13:21:44.035Z</time></trkpt><trkpt lat="37.6474717" lon="15.1478283"><ele>260.0</ele><time>2026-05-06T13:21:45.035Z</time></trkpt><trkpt lat="37.64776" lon="15.1479233"><ele>260.0</ele><time>2026-05-06T13:21:46.035Z</time></trkpt><trkpt lat="37.6480583" lon="15.1480233"><ele>260.5</ele><time>2026-05-06T13:21:47.034Z</time></trkpt><trkpt lat="37.6483467" lon="15.1481183"><ele>261.0</ele><time>2026-05-06T13:21:48.035Z</time></trkpt><trkpt lat="37.6486133" lon="15.1482083"><ele>258.0</ele><time>2026-05-06T13:21:49.035Z</time></trkpt><trkpt lat="37.6488717" lon="15.148285"><ele>255.0</ele><time>2026-05-06T13:21:50.035Z</time></trkpt><trkpt lat="37.6491283" lon="15.14837"><ele>255.0</ele><time>2026-05-06T13:21:51.035Z</time></trkpt><trkpt lat="37.6493783" lon="15.1484517"><ele>255.0</ele><time>2026-05-06T13:21:52.035Z</time></trkpt><trkpt lat="37.6496333" lon="15.1485317"><ele>256.0</ele><time>2026-05-06T13:21:53.035Z</time></trkpt><trkpt lat="37.64988" lon="15.14861"><ele>257.0</ele><time>2026-05-06T13:21:54.035Z</time></trkpt><trkpt lat="37.6501283" lon="15.148685"><ele>257.0</ele><time>2026-05-06T13:21:55.035Z</time></trkpt><trkpt lat="37.6503733" lon="15.1487583"><ele>257.0</ele><time>2026-05-06T13:21:56.035Z</time></trkpt><trkpt lat="37.6506117" lon="15.14884"><ele>257.0</ele><time>2026-05-06T13:21:57.035Z</time></trkpt><trkpt lat="37.6508467" lon="15.1489183"><ele>257.0</ele><time>2026-05-06T13:21:58.035Z</time></trkpt><trkpt lat="37.6510783" lon="15.148995"><ele>256.0</ele><time>2026-05-06T13:21:59.035Z</time></trkpt><trkpt lat="37.6513033" lon="15.149065"><ele>255.0</ele><time>2026-05-06T13:22:00.035Z</time></trkpt><trkpt lat="37.65153" lon="15.1491367"><ele>255.0</ele><time>2026-05-06T13:22:01.035Z</time></trkpt><trkpt lat="37.6517583" lon="15.149205"><ele>255.0</ele><time>2026-05-06T13:22:02.034Z</time></trkpt><trkpt lat="37.65199" lon="15.1492767"><ele>255.5</ele><time>2026-05-06T13:22:03.035Z</time></trkpt><trkpt lat="37.6522217" lon="15.1493367"><ele>256.0</ele><time>2026-05-06T13:22:04.035Z</time></trkpt><trkpt lat="37.6524583" lon="15.1493967"><ele>256.0</ele><time>2026-05-06T13:22:05.035Z</time></trkpt><trkpt lat="37.6527" lon="15.1494533"><ele>256.0</ele><time>2026-05-06T13:22:06.035Z</time></trkpt><trkpt lat="37.6529533" lon="15.14951"><ele>257.5</ele><time>2026-05-06T13:22:07.035Z</time></trkpt><trkpt lat="37.6532133" lon="15.1495667"><ele>259.0</ele><time>2026-05-06T13:22:08.035Z</time></trkpt><trkpt lat="37.6534867" lon="15.1496183"><ele>259.5</ele><time>2026-05-06T13:22:09.034Z</time></trkpt><trkpt lat="37.6537583" lon="15.1496617"><ele>260.0</ele><time>2026-05-06T13:22:10.035Z</time></trkpt><trkpt lat="37.6540333" lon="15.1496983"><ele>260.0</ele><time>2026-05-06T13:22:11.035Z</time></trkpt><trkpt lat="37.6543083" lon="15.14973"><ele>260.0</ele><time>2026-05-06T13:22:12.035Z</time></trkpt><trkpt lat="37.65458" lon="15.14976"><ele>257.0</ele><time>2026-05-06T13:22:13.035Z</time></trkpt><trkpt lat="37.6548567" lon="15.1497833"><ele>254.0</ele><time>2026-05-06T13:22:14.035Z</time></trkpt><trkpt lat="37.6551317" lon="15.149795"><ele>254.0</ele><time>2026-05-06T13:22:15.035Z</time></trkpt><trkpt lat="37.655405" lon="15.1498067"><ele>254.0</ele><time>2026-05-06T13:22:16.035Z</time></trkpt><trkpt lat="37.6556817" lon="15.1498183"><ele>254.0</ele><time>2026-05-06T13:22:17.035Z</time></trkpt><trkpt lat="37.6559617" lon="15.149825"><ele>254.0</ele><time>2026-05-06T13:22:18.035Z</time></trkpt><trkpt lat="37.6562383" lon="15.1498367"><ele>251.0</ele><time>2026-05-06T13:22:19.035Z</time></trkpt><trkpt lat="37.6565183" lon="15.1498433"><ele>248.0</ele><time>2026-05-06T13:22:20.035Z</time></trkpt><trkpt lat="37.6568" lon="15.149845"><ele>248.5</ele><time>2026-05-06T13:22:21.035Z</time></trkpt><trkpt lat="37.6570817" lon="15.1498433"><ele>249.0</ele><time>2026-05-06T13:22:22.035Z</time></trkpt><trkpt lat="37.6573617" lon="15.1498483"><ele>249.0</ele><time>2026-05-06T13:22:23.035Z</time></trkpt><trkpt lat="37.6576417" lon="15.149855"><ele>249.0</ele><time>2026-05-06T13:22:24.035Z</time></trkpt><trkpt lat="37.6579233" lon="15.1498567"><ele>249.5</ele><time>2026-05-06T13:22:25.035Z</time></trkpt><trkpt lat="37.6582017" lon="15.1498667"><ele>250.0</ele><time>2026-05-06T13:22:26.035Z</time></trkpt><trkpt lat="37.658485" lon="15.1498817"><ele>249.0</ele><time>2026-05-06T13:22:27.035Z</time></trkpt><trkpt lat="37.6587683" lon="15.1498867"><ele>248.0</ele><time>2026-05-06T13:22:28.035Z</time></trkpt><trkpt lat="37.6590567" lon="15.1498933"><ele>248.0</ele><time>2026-05-06T13:22:29.035Z</time></trkpt><trkpt lat="37.6593483" lon="15.149905"><ele>248.0</ele><time>2026-05-06T13:22:30.035Z</time></trkpt><trkpt lat="37.6596417" lon="15.1499117"><ele>248.0</ele><time>2026-05-06T13:22:31.034Z</time></trkpt><trkpt lat="37.6599367" lon="15.1499167"><ele>248.0</ele><time>2026-05-06T13:22:32.035Z</time></trkpt><trkpt lat="37.6602333" lon="15.1499267"><ele>247.5</ele><time>2026-05-06T13:22:33.035Z</time></trkpt><trkpt lat="37.66053" lon="15.1499267"><ele>247.0</ele><time>2026-05-06T13:22:34.035Z</time></trkpt><trkpt lat="37.66083" lon="15.1499217"><ele>246.5</ele><time>2026-05-06T13:22:35.035Z</time></trkpt><trkpt lat="37.6611467" lon="15.1499183"><ele>246.0</ele><time>2026-05-06T13:22:36.035Z</time></trkpt><trkpt lat="37.6614767" lon="15.1499217"><ele>246.0</ele><time>2026-05-06T13:22:37.035Z</time></trkpt><trkpt lat="37.6618133" lon="15.1499283"><ele>246.0</ele><time>2026-05-06T13:22:38.035Z</time></trkpt><trkpt lat="37.6621433" lon="15.1499367"><ele>245.0</ele><time>2026-05-06T13:22:39.035Z</time></trkpt><trkpt lat="37.6624733" lon="15.14995"><ele>244.0</ele><time>2026-05-06T13:22:40.035Z</time></trkpt><trkpt lat="37.6628017" lon="15.1499583"><ele>241.0</ele><time>2026-05-06T13:22:41.035Z</time></trkpt><trkpt lat="37.6631233" lon="15.1499617"><ele>238.0</ele><time>2026-05-06T13:22:42.035Z</time></trkpt><trkpt lat="37.663445" lon="15.14997"><ele>235.5</ele><time>2026-05-06T13:22:43.035Z</time></trkpt><trkpt lat="37.6637667" lon="15.1499817"><ele>233.0</ele><time>2026-05-06T13:22:44.035Z</time></trkpt><trkpt lat="37.6640917" lon="15.1500067"><ele>233.0</ele><time>2026-05-06T13:22:45.035Z</time></trkpt><trkpt lat="37.66441" lon="15.1500317"><ele>233.0</ele><time>2026-05-06T13:22:46.035Z</time></trkpt><trkpt lat="37.6647317" lon="15.1500683"><ele>231.5</ele><time>2026-05-06T13:22:47.035Z</time></trkpt><trkpt lat="37.6650533" lon="15.15012"><ele>230.0</ele><time>2026-05-06T13:22:48.035Z</time></trkpt><trkpt lat="37.6653683" lon="15.150185"><ele>230.0</ele><time>2026-05-06T13:22:49.035Z</time></trkpt><trkpt lat="37.6656883" lon="15.1502517"><ele>230.0</ele><time>2026-05-06T13:22:50.035Z</time></trkpt><trkpt lat="37.666005" lon="15.15033"><ele>229.5</ele><time>2026-05-06T13:22:51.035Z</time></trkpt><trkpt lat="37.6663217" lon="15.1504133"><ele>229.0</ele><time>2026-05-06T13:22:52.035Z</time></trkpt><trkpt lat="37.6666317" lon="15.1505183"><ele>229.0</ele><time>2026-05-06T13:22:53.035Z</time></trkpt><trkpt lat="37.6669367" lon="15.1506317"><ele>229.0</ele><time>2026-05-06T13:22:54.035Z</time></trkpt><trkpt lat="37.6672433" lon="15.1507517"><ele>226.5</ele><time>2026-05-06T13:22:55.035Z</time></trkpt><trkpt lat="37.6675483" lon="15.15088"><ele>224.0</ele><time>2026-05-06T13:22:56.035Z</time></trkpt><trkpt lat="37.6678433" lon="15.151015"><ele>224.0</ele><time>2026-05-06T13:22:57.035Z</time></trkpt><trkpt lat="37.66814" lon="15.1511533"><ele>224.0</ele><time>2026-05-06T13:22:58.035Z</time></trkpt><trkpt lat="37.6684383" lon="15.151305"><ele>222.5</ele><time>2026-05-06T13:22:59.035Z</time></trkpt><trkpt lat="37.668735" lon="15.1514717"><ele>221.0</ele><time>2026-05-06T13:23:00.035Z</time></trkpt><trkpt lat="37.6690333" lon="15.1516467"><ele>220.0</ele><time>2026-05-06T13:23:01.035Z</time></trkpt><trkpt lat="37.66933" lon="15.1518317"><ele>219.0</ele><time>2026-05-06T13:23:02.035Z</time></trkpt><trkpt lat="37.66963" lon="15.152035"><ele>217.0</ele><time>2026-05-06T13:23:03.035Z</time></trkpt><trkpt lat="37.66993" lon="15.1522467"><ele>215.0</ele><time>2026-05-06T13:23:04.035Z</time></trkpt><trkpt lat="37.670225" lon="15.15247"><ele>213.5</ele><time>2026-05-06T13:23:05.035Z</time></trkpt><trkpt lat="37.6705133" lon="15.1526967"><ele>212.0</ele><time>2026-05-06T13:23:06.035Z</time></trkpt><trkpt lat="37.6708033" lon="15.152925"><ele>212.0</ele><time>2026-05-06T13:23:07.035Z</time></trkpt><trkpt lat="37.6710967" lon="15.1531583"><ele>212.0</ele><time>2026-05-06T13:23:08.035Z</time></trkpt><trkpt lat="37.6713883" lon="15.1533867"><ele>212.0</ele><time>2026-05-06T13:23:09.035Z</time></trkpt><trkpt lat="37.67168" lon="15.1536217"><ele>212.0</ele><time>2026-05-06T13:23:10.035Z</time></trkpt><trkpt lat="37.6719667" lon="15.153855"><ele>210.5</ele><time>2026-05-06T13:23:11.035Z</time></trkpt><trkpt lat="37.6722567" lon="15.1540833"><ele>209.0</ele><time>2026-05-06T13:23:12.035Z</time></trkpt><trkpt lat="37.672545" lon="15.15431"><ele>210.0</ele><time>2026-05-06T13:23:13.035Z</time></trkpt><trkpt lat="37.67283" lon="15.154535"><ele>211.0</ele><time>2026-05-06T13:23:14.035Z</time></trkpt><trkpt lat="37.6731183" lon="15.1547683"><ele>211.5</ele><time>2026-05-06T13:23:15.035Z</time></trkpt><trkpt lat="37.6733983" lon="15.155"><ele>212.0</ele><time>2026-05-06T13:23:16.035Z</time></trkpt><trkpt lat="37.6736783" lon="15.155235"><ele>212.0</ele><time>2026-05-06T13:23:17.035Z</time></trkpt><trkpt lat="37.6739617" lon="15.15546"><ele>212.0</ele><time>2026-05-06T13:23:18.035Z</time></trkpt><trkpt lat="37.6742467" lon="15.1556833"><ele>214.0</ele><time>2026-05-06T13:23:19.035Z</time></trkpt><trkpt lat="37.6745233" lon="15.1559033"><ele>216.0</ele><time>2026-05-06T13:23:20.035Z</time></trkpt><trkpt lat="37.6748033" lon="15.1561183"><ele>216.0</ele><time>2026-05-06T13:23:21.035Z</time></trkpt><trkpt lat="37.67509" lon="15.1563283"><ele>216.0</ele><time>2026-05-06T13:23:22.035Z</time></trkpt><trkpt lat="37.6753867" lon="15.15652"><ele>216.0</ele><time>2026-05-06T13:23:23.035Z</time></trkpt><trkpt lat="37.67569" lon="15.156705"><ele>216.0</ele><time>2026-05-06T13:23:24.035Z</time></trkpt><trkpt lat="37.6760017" lon="15.1568717"><ele>219.0</ele><time>2026-05-06T13:23:25.035Z</time></trkpt><trkpt lat="37.6763217" lon="15.1570283"><ele>222.0</ele><time>2026-05-06T13:23:26.035Z</time></trkpt><trkpt lat="37.676645" lon="15.15717"><ele>222.0</ele><time>2026-05-06T13:23:27.035Z</time></trkpt><trkpt lat="37.676975" lon="15.1572983"><ele>222.0</ele><time>2026-05-06T13:23:28.035Z</time></trkpt><trkpt lat="37.677315" lon="15.157415"><ele>219.5</ele><time>2026-05-06T13:23:29.035Z</time></trkpt><trkpt lat="37.677655" lon="15.1575233"><ele>217.0</ele><time>2026-05-06T13:23:30.035Z</time></trkpt><trkpt lat="37.67799" lon="15.1576317"><ele>217.0</ele><time>2026-05-06T13:23:31.034Z</time></trkpt><trkpt lat="37.6783383" lon="15.157735"><ele>217.0</ele><time>2026-05-06T13:23:32.035Z</time></trkpt><trkpt lat="37.678685" lon="15.1578417"><ele>217.0</ele><time>2026-05-06T13:23:33.035Z</time></trkpt><trkpt lat="37.67904" lon="15.1579567"><ele>217.0</ele><time>2026-05-06T13:23:34.035Z</time></trkpt><trkpt lat="37.6793817" lon="15.1580817"><ele>220.0</ele><time>2026-05-06T13:23:35.035Z</time></trkpt><trkpt lat="37.6797233" lon="15.1582217"><ele>223.0</ele><time>2026-05-06T13:23:36.035Z</time></trkpt><trkpt lat="37.6800583" lon="15.1583767"><ele>226.0</ele><time>2026-05-06T13:23:37.035Z</time></trkpt><trkpt lat="37.680395" lon="15.158545"><ele>229.0</ele><time>2026-05-06T13:23:38.035Z</time></trkpt><trkpt lat="37.6807183" lon="15.1587283"><ele>229.0</ele><time>2026-05-06T13:23:39.035Z</time></trkpt><trkpt lat="37.6810367" lon="15.158915"><ele>229.0</ele><time>2026-05-06T13:23:40.035Z</time></trkpt><trkpt lat="37.6813433" lon="15.1591133"><ele>228.0</ele><time>2026-05-06T13:23:41.035Z</time></trkpt><trkpt lat="37.6816567" lon="15.1593167"><ele>227.0</ele><time>2026-05-06T13:23:42.035Z</time></trkpt><trkpt lat="37.6819617" lon="15.1595217"><ele>227.0</ele><time>2026-05-06T13:23:43.035Z</time></trkpt><trkpt lat="37.6822583" lon="15.1597183"><ele>227.0</ele><time>2026-05-06T13:23:44.035Z</time></trkpt><trkpt lat="37.6825533" lon="15.159915"><ele>225.5</ele><time>2026-05-06T13:23:45.035Z</time></trkpt><trkpt lat="37.6828433" lon="15.1601067"><ele>224.0</ele><time>2026-05-06T13:23:46.035Z</time></trkpt><trkpt lat="37.6831217" lon="15.1602967"><ele>224.0</ele><time>2026-05-06T13:23:47.035Z</time></trkpt><trkpt lat="37.6834033" lon="15.160485"><ele>224.0</ele><time>2026-05-06T13:23:48.035Z</time></trkpt><trkpt lat="37.6836817" lon="15.1606733"><ele>225.0</ele><time>2026-05-06T13:23:49.035Z</time></trkpt><trkpt lat="37.6839533" lon="15.16086"><ele>226.0</ele><time>2026-05-06T13:23:50.035Z</time></trkpt><trkpt lat="37.6842233" lon="15.161045"><ele>222.0</ele><time>2026-05-06T13:23:51.035Z</time></trkpt><trkpt lat="37.6844883" lon="15.161225"><ele>218.0</ele><time>2026-05-06T13:23:52.035Z</time></trkpt><trkpt lat="37.6847517" lon="15.1614083"><ele>216.5</ele><time>2026-05-06T13:23:53.035Z</time></trkpt><trkpt lat="37.6850133" lon="15.1615917"><ele>215.0</ele><time>2026-05-06T13:23:54.035Z</time></trkpt><trkpt lat="37.68528" lon="15.1617667"><ele>215.0</ele><time>2026-05-06T13:23:55.035Z</time></trkpt><trkpt lat="37.6855433" lon="15.1619517"><ele>215.0</ele><time>2026-05-06T13:23:56.035Z</time></trkpt><trkpt lat="37.685805" lon="15.16213"><ele>215.0</ele><time>2026-05-06T13:23:57.035Z</time></trkpt><trkpt lat="37.6860633" lon="15.1623233"><ele>215.0</ele><time>2026-05-06T13:23:58.035Z</time></trkpt><trkpt lat="37.6863267" lon="15.1625117"><ele>216.0</ele><time>2026-05-06T13:23:59.035Z</time></trkpt><trkpt lat="37.6865917" lon="15.1626867"><ele>217.0</ele><time>2026-05-06T13:24:00.035Z</time></trkpt><trkpt lat="37.6868517" lon="15.16286"><ele>218.5</ele><time>2026-05-06T13:24:01.035Z</time></trkpt><trkpt lat="37.6871167" lon="15.1630283"><ele>220.0</ele><time>2026-05-06T13:24:02.035Z</time></trkpt><trkpt lat="37.6873817" lon="15.1631917"><ele>219.0</ele><time>2026-05-06T13:24:03.035Z</time></trkpt><trkpt lat="37.6876483" lon="15.1633583"><ele>218.0</ele><time>2026-05-06T13:24:04.035Z</time></trkpt><trkpt lat="37.6879183" lon="15.1635083"><ele>218.0</ele><time>2026-05-06T13:24:05.035Z</time></trkpt><trkpt lat="37.68819" lon="15.1636483"><ele>218.0</ele><time>2026-05-06T13:24:06.035Z</time></trkpt><trkpt lat="37.6884617" lon="15.1637917"><ele>215.5</ele><time>2026-05-06T13:24:07.035Z</time></trkpt><trkpt lat="37.6887333" lon="15.16392"><ele>213.0</ele><time>2026-05-06T13:24:08.035Z</time></trkpt><trkpt lat="37.689015" lon="15.164055"><ele>212.0</ele><time>2026-05-06T13:24:09.035Z</time></trkpt><trkpt lat="37.6893" lon="15.1641767"><ele>211.0</ele><time>2026-05-06T13:24:10.035Z</time></trkpt><trkpt lat="37.6895833" lon="15.1643033"><ele>209.0</ele><time>2026-05-06T13:24:11.035Z</time></trkpt><trkpt lat="37.6898867" lon="15.16444"><ele>207.0</ele><time>2026-05-06T13:24:12.035Z</time></trkpt><trkpt lat="37.6901983" lon="15.1645767"><ele>208.0</ele><time>2026-05-06T13:24:13.035Z</time></trkpt><trkpt lat="37.6905117" lon="15.1647033"><ele>209.0</ele><time>2026-05-06T13:24:14.035Z</time></trkpt><trkpt lat="37.690825" lon="15.164835"><ele>210.0</ele><time>2026-05-06T13:24:15.035Z</time></trkpt><trkpt lat="37.6911367" lon="15.1649683"><ele>211.0</ele><time>2026-05-06T13:24:16.035Z</time></trkpt><trkpt lat="37.6914567" lon="15.1651017"><ele>211.0</ele><time>2026-05-06T13:24:17.035Z</time></trkpt><trkpt lat="37.6917717" lon="15.1652433"><ele>211.0</ele><time>2026-05-06T13:24:18.034Z</time></trkpt><trkpt lat="37.692085" lon="15.1653917"><ele>209.5</ele><time>2026-05-06T13:24:19.035Z</time></trkpt><trkpt lat="37.6924017" lon="15.16552"><ele>208.0</ele><time>2026-05-06T13:24:20.035Z</time></trkpt><trkpt lat="37.69273" lon="15.1656483"><ele>206.0</ele><time>2026-05-06T13:24:21.035Z</time></trkpt><trkpt lat="37.6930567" lon="15.1657967"><ele>204.0</ele><time>2026-05-06T13:24:22.034Z</time></trkpt><trkpt lat="37.6933783" lon="15.1659367"><ele>204.0</ele><time>2026-05-06T13:24:23.035Z</time></trkpt><trkpt lat="37.693705" lon="15.1660767"><ele>204.0</ele><time>2026-05-06T13:24:24.035Z</time></trkpt><trkpt lat="37.6940317" lon="15.1662183"><ele>204.0</ele><time>2026-05-06T13:24:25.035Z</time></trkpt><trkpt lat="37.6943417" lon="15.1663517"><ele>204.0</ele><time>2026-05-06T13:24:26.035Z</time></trkpt><trkpt lat="37.6946533" lon="15.1664883"><ele>205.0</ele><time>2026-05-06T13:24:27.035Z</time></trkpt><trkpt lat="37.6949483" lon="15.1666083"><ele>206.0</ele><time>2026-05-06T13:24:28.035Z</time></trkpt><trkpt lat="37.6952433" lon="15.1667217"><ele>205.5</ele><time>2026-05-06T13:24:29.035Z</time></trkpt><trkpt lat="37.69554" lon="15.1668183"><ele>205.0</ele><time>2026-05-06T13:24:30.035Z</time></trkpt><trkpt lat="37.695835" lon="15.1669"><ele>208.0</ele><time>2026-05-06T13:24:31.035Z</time></trkpt><trkpt lat="37.6961317" lon="15.166965"><ele>211.0</ele><time>2026-05-06T13:24:32.035Z</time></trkpt><trkpt lat="37.6964267" lon="15.1670217"><ele>211.0</ele><time>2026-05-06T13:24:33.035Z</time></trkpt><trkpt lat="37.6967283" lon="15.1670633"><ele>211.0</ele><time>2026-05-06T13:24:34.035Z</time></trkpt><trkpt lat="37.6970233" lon="15.1670917"><ele>210.0</ele><time>2026-05-06T13:24:35.035Z</time></trkpt><trkpt lat="37.697315" lon="15.16712"><ele>209.0</ele><time>2026-05-06T13:24:36.035Z</time></trkpt><trkpt lat="37.69761" lon="15.1671333"><ele>206.0</ele><time>2026-05-06T13:24:37.035Z</time></trkpt><trkpt lat="37.6979" lon="15.1671283"><ele>203.0</ele><time>2026-05-06T13:24:38.035Z</time></trkpt><trkpt lat="37.6981867" lon="15.1671033"><ele>203.0</ele><time>2026-05-06T13:24:39.035Z</time></trkpt><trkpt lat="37.698475" lon="15.167075"><ele>203.0</ele><time>2026-05-06T13:24:40.035Z</time></trkpt><trkpt lat="37.69876" lon="15.167025"><ele>200.0</ele><time>2026-05-06T13:24:41.035Z</time></trkpt><trkpt lat="37.6990433" lon="15.166965"><ele>197.0</ele><time>2026-05-06T13:24:42.035Z</time></trkpt><trkpt lat="37.6993267" lon="15.1668883"><ele>195.5</ele><time>2026-05-06T13:24:43.035Z</time></trkpt><trkpt lat="37.6996083" lon="15.1668217"><ele>194.0</ele><time>2026-05-06T13:24:44.035Z</time></trkpt><trkpt lat="37.6998933" lon="15.1667517"><ele>194.0</ele><time>2026-05-06T13:24:45.035Z</time></trkpt><trkpt lat="37.700175" lon="15.16668"><ele>194.0</ele><time>2026-05-06T13:24:46.035Z</time></trkpt><trkpt lat="37.7004567" lon="15.16661"><ele>194.5</ele><time>2026-05-06T13:24:47.035Z</time></trkpt><trkpt lat="37.70073" lon="15.16654"><ele>195.0</ele><time>2026-05-06T13:24:48.034Z</time></trkpt><trkpt lat="37.7009917" lon="15.16647"><ele>196.0</ele><time>2026-05-06T13:24:49.035Z</time></trkpt><trkpt lat="37.7012417" lon="15.16641"><ele>197.0</ele><time>2026-05-06T13:24:50.035Z</time></trkpt><trkpt lat="37.7014883" lon="15.1663683"><ele>197.0</ele><time>2026-05-06T13:24:51.035Z</time></trkpt><trkpt lat="37.701725" lon="15.1663283"><ele>197.0</ele><time>2026-05-06T13:24:52.035Z</time></trkpt><trkpt lat="37.7019533" lon="15.1662983"><ele>193.0</ele><time>2026-05-06T13:24:53.035Z</time></trkpt><trkpt lat="37.7021867" lon="15.166275"><ele>189.0</ele><time>2026-05-06T13:24:54.035Z</time></trkpt><trkpt lat="37.702415" lon="15.1662583"><ele>189.0</ele><time>2026-05-06T13:24:55.035Z</time></trkpt><trkpt lat="37.702635" lon="15.1662533"><ele>189.0</ele><time>2026-05-06T13:24:56.035Z</time></trkpt><trkpt lat="37.702845" lon="15.1662633"><ele>189.0</ele><time>2026-05-06T13:24:57.035Z</time></trkpt><trkpt lat="37.7030467" lon="15.16628"><ele>192.33333333333331</ele><time>2026-05-06T13:24:58.035Z</time></trkpt><trkpt lat="37.7032417" lon="15.1663"><ele>195.66666666666666</ele><time>2026-05-06T13:24:59.035Z</time></trkpt><trkpt lat="37.7034267" lon="15.1663317"><ele>199.0</ele><time>2026-05-06T13:25:00.035Z</time></trkpt><trkpt lat="37.7036" lon="15.1663683"><ele>199.33333333333331</ele><time>2026-05-06T13:25:01.035Z</time></trkpt><trkpt lat="37.7037617" lon="15.166405"><ele>199.66666666666669</ele><time>2026-05-06T13:25:02.035Z</time></trkpt><trkpt lat="37.703915" lon="15.1664467"><ele>200.0</ele><time>2026-05-06T13:25:03.035Z</time></trkpt><trkpt lat="37.7040617" lon="15.1664917"><ele>198.25</ele><time>2026-05-06T13:25:04.035Z</time></trkpt><trkpt lat="37.7042033" lon="15.1665533"><ele>196.5</ele><time>2026-05-06T13:25:05.035Z</time></trkpt><trkpt lat="37.7043283" lon="15.1666183"><ele>194.75</ele><time>2026-05-06T13:25:06.035Z</time></trkpt><trkpt lat="37.7044367" lon="15.16671"><ele>193.0</ele><time>2026-05-06T13:25:07.035Z</time></trkpt><trkpt lat="37.70452" lon="15.16682"><ele>192.5</ele><time>2026-05-06T13:25:08.035Z</time></trkpt><trkpt lat="37.704595" lon="15.16696"><ele>192.0</ele><time>2026-05-06T13:25:09.035Z</time></trkpt><trkpt lat="37.7046483" lon="15.16711"><ele>191.5</ele><time>2026-05-06T13:25:10.035Z</time></trkpt><trkpt lat="37.7046883" lon="15.167275"><ele>191.0</ele><time>2026-05-06T13:25:11.035Z</time></trkpt><trkpt lat="37.704695" lon="15.1674317"><ele>190.5</ele><time>2026-05-06T13:25:12.035Z</time></trkpt><trkpt lat="37.7046833" lon="15.1675867"><ele>190.0</ele><time>2026-05-06T13:25:13.035Z</time></trkpt><trkpt lat="37.7046733" lon="15.1677383"><ele>189.5</ele><time>2026-05-06T13:25:14.035Z</time></trkpt><trkpt lat="37.7046517" lon="15.1678883"><ele>189.0</ele><time>2026-05-06T13:25:15.035Z</time></trkpt><trkpt lat="37.7046267" lon="15.1680333"><ele>189.0</ele><time>2026-05-06T13:25:16.035Z</time></trkpt><trkpt lat="37.7046033" lon="15.16816"><ele>189.0</ele><time>2026-05-06T13:25:17.035Z</time></trkpt><trkpt lat="37.70458" lon="15.1682733"><ele>189.0</ele><time>2026-05-06T13:25:18.035Z</time></trkpt><trkpt lat="37.704555" lon="15.1683717"><ele>189.0</ele><time>2026-05-06T13:25:19.035Z</time></trkpt><trkpt lat="37.704535" lon="15.16845"><ele>189.0</ele><time>2026-05-06T13:25:20.035Z</time></trkpt><trkpt lat="37.7045117" lon="15.1685983"><ele>189.0</ele><time>2026-05-06T13:25:22.035Z</time></trkpt><trkpt lat="37.704495" lon="15.16868"><ele>189.0</ele><time>2026-05-06T13:25:23.035Z</time></trkpt><trkpt lat="37.70448" lon="15.1687717"><ele>189.0</ele><time>2026-05-06T13:25:24.035Z</time></trkpt><trkpt lat="37.70446" lon="15.1688667"><ele>189.0</ele><time>2026-05-06T13:25:25.035Z</time></trkpt><trkpt lat="37.7044383" lon="15.16897"><ele>189.0</ele><time>2026-05-06T13:25:26.035Z</time></trkpt><trkpt lat="37.7044133" lon="15.1690767"><ele>189.0</ele><time>2026-05-06T13:25:27.035Z</time></trkpt><trkpt lat="37.70439" lon="15.1691917"><ele>189.0</ele><time>2026-05-06T13:25:28.035Z</time></trkpt><trkpt lat="37.7043733" lon="15.1693117"><ele>189.0</ele><time>2026-05-06T13:25:29.035Z</time></trkpt><trkpt lat="37.7043517" lon="15.16944"><ele>189.0</ele><time>2026-05-06T13:25:30.035Z</time></trkpt><trkpt lat="37.70433" lon="15.16957"><ele>189.0</ele><time>2026-05-06T13:25:31.035Z</time></trkpt><trkpt lat="37.7043133" lon="15.1697017"><ele>189.0</ele><time>2026-05-06T13:25:32.035Z</time></trkpt><trkpt lat="37.704295" lon="15.16983"><ele>188.39999999999998</ele><time>2026-05-06T13:25:33.035Z</time></trkpt><trkpt lat="37.7042767" lon="15.1699567"><ele>187.8</ele><time>2026-05-06T13:25:34.035Z</time></trkpt><trkpt lat="37.70426" lon="15.1700767"><ele>187.2</ele><time>2026-05-06T13:25:35.035Z</time></trkpt><trkpt lat="37.7042417" lon="15.1701917"><ele>186.60000000000002</ele><time>2026-05-06T13:25:36.035Z</time></trkpt><trkpt lat="37.7042217" lon="15.170295"><ele>186.0</ele><time>2026-05-06T13:25:37.035Z</time></trkpt><trkpt lat="37.704195" lon="15.1703867"><ele>186.0</ele><time>2026-05-06T13:25:38.035Z</time></trkpt><trkpt lat="37.70415" lon="15.1704483"><ele>186.0</ele><time>2026-05-06T13:25:39.035Z</time></trkpt><trkpt lat="37.70405" lon="15.1705467"><ele>186.0</ele><time>2026-05-06T13:25:41.035Z</time></trkpt><trkpt lat="37.703965" lon="15.1706483"><ele>186.0</ele><time>2026-05-06T13:25:43.035Z</time></trkpt><trkpt lat="37.7039233" lon="15.170775"><ele>186.0</ele><time>2026-05-06T13:25:45.035Z</time></trkpt><trkpt lat="37.7039267" lon="15.1708883"><ele>185.0</ele><time>2026-05-06T13:25:47.035Z</time></trkpt><trkpt lat="37.70396" lon="15.170975"><ele>184.0</ele><time>2026-05-06T13:25:50.035Z</time></trkpt><trkpt lat="37.70403" lon="15.1710317"><ele>183.0</ele><time>2026-05-06T13:29:06.035Z</time></trkpt><trkpt lat="37.7041383" lon="15.1710233"><ele>182.0</ele><time>2026-05-06T13:29:08.035Z</time></trkpt><trkpt lat="37.704205" lon="15.171015"><ele>181.0</ele><time>2026-05-06T13:29:09.035Z</time></trkpt><trkpt lat="37.7042867" lon="15.1710017"><ele>180.0</ele><time>2026-05-06T13:29:10.035Z</time></trkpt><trkpt lat="37.7043817" lon="15.1709967"><ele>179.8</ele><time>2026-05-06T13:29:11.035Z</time></trkpt><trkpt lat="37.7044733" lon="15.1710167"><ele>179.6</ele><time>2026-05-06T13:29:12.035Z</time></trkpt><trkpt lat="37.7045667" lon="15.1710633"><ele>179.39999999999998</ele><time>2026-05-06T13:29:13.035Z</time></trkpt><trkpt lat="37.7046533" lon="15.1711283"><ele>179.2</ele><time>2026-05-06T13:29:14.035Z</time></trkpt><trkpt lat="37.7047333" lon="15.1711967"><ele>179.0</ele><time>2026-05-06T13:29:15.035Z</time></trkpt><trkpt lat="37.7048083" lon="15.1712667"><ele>179.0</ele><time>2026-05-06T13:29:16.035Z</time></trkpt><trkpt lat="37.704885" lon="15.17134"><ele>179.0</ele><time>2026-05-06T13:29:17.035Z</time></trkpt><trkpt lat="37.70496" lon="15.1714133"><ele>179.0</ele><time>2026-05-06T13:29:18.035Z</time></trkpt><trkpt lat="37.7050267" lon="15.171485"><ele>179.0</ele><time>2026-05-06T13:29:19.035Z</time></trkpt><trkpt lat="37.705095" lon="15.17156"><ele>179.0</ele><time>2026-05-06T13:29:20.035Z</time></trkpt><trkpt lat="37.7051583" lon="15.171635"><ele>179.16666666666666</ele><time>2026-05-06T13:29:21.035Z</time></trkpt><trkpt lat="37.70521" lon="15.171715"><ele>179.33333333333331</ele><time>2026-05-06T13:29:22.035Z</time></trkpt><trkpt lat="37.70526" lon="15.1718"><ele>179.5</ele><time>2026-05-06T13:29:23.035Z</time></trkpt><trkpt lat="37.7052867" lon="15.1718983"><ele>179.66666666666666</ele><time>2026-05-06T13:29:24.035Z</time></trkpt><trkpt lat="37.705315" lon="15.1720067"><ele>179.83333333333334</ele><time>2026-05-06T13:29:25.035Z</time></trkpt><trkpt lat="37.7053567" lon="15.17213"><ele>180.0</ele><time>2026-05-06T13:29:26.035Z</time></trkpt><trkpt lat="37.7054" lon="15.1722717"><ele>179.2</ele><time>2026-05-06T13:29:27.035Z</time></trkpt><trkpt lat="37.7054417" lon="15.172405"><ele>178.4</ele><time>2026-05-06T13:29:28.035Z</time></trkpt><trkpt lat="37.70547" lon="15.1725433"><ele>177.60000000000002</ele><time>2026-05-06T13:29:29.034Z</time></trkpt><trkpt lat="37.7055117" lon="15.1726617"><ele>176.8</ele><time>2026-05-06T13:29:30.035Z</time></trkpt><trkpt lat="37.7055617" lon="15.172775"><ele>176.0</ele><time>2026-05-06T13:29:31.035Z</time></trkpt><trkpt lat="37.705605" lon="15.1728867"><ele>176.0</ele><time>2026-05-06T13:29:32.034Z</time></trkpt><trkpt lat="37.7056567" lon="15.173"><ele>176.0</ele><time>2026-05-06T13:29:33.035Z</time></trkpt><trkpt lat="37.705715" lon="15.1731117"><ele>176.0</ele><time>2026-05-06T13:29:34.035Z</time></trkpt><trkpt lat="37.7057783" lon="15.1732067"><ele>176.0</ele><time>2026-05-06T13:29:35.035Z</time></trkpt><trkpt lat="37.705825" lon="15.1733067"><ele>176.0</ele><time>2026-05-06T13:29:36.034Z</time></trkpt><trkpt lat="37.7058783" lon="15.17339"><ele>175.5</ele><time>2026-05-06T13:29:37.035Z</time></trkpt><trkpt lat="37.70594" lon="15.1734733"><ele>175.0</ele><time>2026-05-06T13:29:38.035Z</time></trkpt><trkpt lat="37.705955" lon="15.1736133"><ele>174.5</ele><time>2026-05-06T13:29:40.035Z</time></trkpt><trkpt lat="37.7059383" lon="15.1737433"><ele>174.0</ele><time>2026-05-06T13:29:42.035Z</time></trkpt><trkpt lat="37.70594" lon="15.1738417"><ele>173.5</ele><time>2026-05-06T13:29:44.035Z</time></trkpt><trkpt lat="37.7059533" lon="15.17392"><ele>173.0</ele><time>2026-05-06T13:29:48.035Z</time></trkpt><trkpt lat="37.7060317" lon="15.1739267"><ele>172.8</ele><time>2026-05-06T13:29:53.035Z</time></trkpt><trkpt lat="37.7061217" lon="15.173945"><ele>172.60000000000002</ele><time>2026-05-06T13:29:55.035Z</time></trkpt><trkpt lat="37.7062083" lon="15.1739567"><ele>172.39999999999998</ele><time>2026-05-06T13:29:57.035Z</time></trkpt><trkpt lat="37.7063067" lon="15.1739883"><ele>172.2</ele><time>2026-05-06T13:29:59.034Z</time></trkpt><trkpt lat="37.7063917" lon="15.1740067"><ele>172.0</ele><time>2026-05-06T13:30:01.035Z</time></trkpt><trkpt lat="37.7064767" lon="15.1740067"><ele>172.0</ele><time>2026-05-06T13:30:03.035Z</time></trkpt><trkpt lat="37.706555" lon="15.17402"><ele>172.0</ele><time>2026-05-06T13:30:05.035Z</time></trkpt><trkpt lat="37.7066683" lon="15.174025"><ele>172.0</ele><time>2026-05-06T13:30:07.035Z</time></trkpt><trkpt lat="37.7067733" lon="15.1740333"><ele>172.0</ele><time>2026-05-06T13:30:09.035Z</time></trkpt><trkpt lat="37.7068733" lon="15.1740483"><ele>172.0</ele><time>2026-05-06T13:30:11.035Z</time></trkpt><trkpt lat="37.7069733" lon="15.1740683"><ele>170.8</ele><time>2026-05-06T13:30:13.035Z</time></trkpt><trkpt lat="37.7070917" lon="15.1740733"><ele>169.6</ele><time>2026-05-06T13:30:15.035Z</time></trkpt><trkpt lat="37.7072217" lon="15.1740617"><ele>168.4</ele><time>2026-05-06T13:30:17.035Z</time></trkpt><trkpt lat="37.7073" lon="15.1740667"><ele>167.20000000000002</ele><time>2026-05-06T13:30:18.035Z</time></trkpt><trkpt lat="37.707405" lon="15.1740617"><ele>166.0</ele><time>2026-05-06T13:30:19.035Z</time></trkpt><trkpt lat="37.7075217" lon="15.1740717"><ele>166.0</ele><time>2026-05-06T13:30:20.035Z</time></trkpt><trkpt lat="37.70764" lon="15.1740717"><ele>166.0</ele><time>2026-05-06T13:30:21.035Z</time></trkpt><trkpt lat="37.7077533" lon="15.1740833"><ele>166.0</ele><time>2026-05-06T13:30:22.035Z</time></trkpt><trkpt lat="37.707855" lon="15.1740967"><ele>166.0</ele><time>2026-05-06T13:30:23.035Z</time></trkpt><trkpt lat="37.7079517" lon="15.1741133"><ele>166.0</ele><time>2026-05-06T13:30:24.035Z</time></trkpt><trkpt lat="37.7080417" lon="15.174135"><ele>165.83333333333334</ele><time>2026-05-06T13:30:25.035Z</time></trkpt><trkpt lat="37.7081283" lon="15.174165"><ele>165.66666666666669</ele><time>2026-05-06T13:30:26.035Z</time></trkpt><trkpt lat="37.7082083" lon="15.1741867"><ele>165.5</ele><time>2026-05-06T13:30:27.035Z</time></trkpt><trkpt lat="37.7083017" lon="15.1742383"><ele>165.33333333333334</ele><time>2026-05-06T13:30:28.034Z</time></trkpt><trkpt lat="37.7083783" lon="15.1742667"><ele>165.16666666666666</ele><time>2026-05-06T13:30:29.035Z</time></trkpt><trkpt lat="37.708455" lon="15.1742917"><ele>165.0</ele><time>2026-05-06T13:30:30.035Z</time></trkpt><trkpt lat="37.708525" lon="15.1743133"><ele>164.42857142857144</ele><time>2026-05-06T13:30:31.035Z</time></trkpt><trkpt lat="37.7085933" lon="15.174335"><ele>163.85714285714286</ele><time>2026-05-06T13:30:32.035Z</time></trkpt><trkpt lat="37.7086617" lon="15.1743717"><ele>163.28571428571428</ele><time>2026-05-06T13:30:33.035Z</time></trkpt><trkpt lat="37.7087383" lon="15.1744067"><ele>162.71428571428572</ele><time>2026-05-06T13:30:34.034Z</time></trkpt><trkpt lat="37.70881" lon="15.174435"><ele>162.14285714285714</ele><time>2026-05-06T13:30:35.035Z</time></trkpt><trkpt lat="37.7088817" lon="15.174455"><ele>161.57142857142858</ele><time>2026-05-06T13:30:36.035Z</time></trkpt><trkpt lat="37.7089533" lon="15.1744783"><ele>161.0</ele><time>2026-05-06T13:30:37.035Z</time></trkpt><trkpt lat="37.709025" lon="15.1744867"><ele>161.0</ele><time>2026-05-06T13:30:38.035Z</time></trkpt><trkpt lat="37.7090967" lon="15.1745"><ele>161.0</ele><time>2026-05-06T13:30:39.035Z</time></trkpt><trkpt lat="37.7091767" lon="15.1745167"><ele>161.0</ele><time>2026-05-06T13:30:40.035Z</time></trkpt><trkpt lat="37.7092617" lon="15.1745217"><ele>161.0</ele><time>2026-05-06T13:30:41.035Z</time></trkpt><trkpt lat="37.70935" lon="15.174525"><ele>161.0</ele><time>2026-05-06T13:30:42.035Z</time></trkpt><trkpt lat="37.7094383" lon="15.174525"><ele>161.0</ele><time>2026-05-06T13:30:43.035Z</time></trkpt><trkpt lat="37.7095367" lon="15.17454"><ele>161.20000000000002</ele><time>2026-05-06T13:30:44.035Z</time></trkpt><trkpt lat="37.7096317" lon="15.1745583"><ele>161.4</ele><time>2026-05-06T13:30:45.035Z</time></trkpt><trkpt lat="37.7097333" lon="15.1745783"><ele>161.6</ele><time>2026-05-06T13:30:46.035Z</time></trkpt><trkpt lat="37.7098383" lon="15.1746067"><ele>161.8</ele><time>2026-05-06T13:30:47.035Z</time></trkpt><trkpt lat="37.709935" lon="15.174635"><ele>162.0</ele><time>2026-05-06T13:30:48.035Z</time></trkpt><trkpt lat="37.710035" lon="15.17467"><ele>162.0</ele><time>2026-05-06T13:30:49.035Z</time></trkpt><trkpt lat="37.7101317" lon="15.1747017"><ele>162.0</ele><time>2026-05-06T13:30:50.034Z</time></trkpt><trkpt lat="37.7102317" lon="15.1747383"><ele>162.0</ele><time>2026-05-06T13:30:51.035Z</time></trkpt><trkpt lat="37.7103333" lon="15.1747717"><ele>162.0</ele><time>2026-05-06T13:30:52.035Z</time></trkpt><trkpt lat="37.7104483" lon="15.174815"><ele>162.0</ele><time>2026-05-06T13:30:53.035Z</time></trkpt><trkpt lat="37.7105583" lon="15.17486"><ele>161.2</ele><time>2026-05-06T13:30:54.035Z</time></trkpt><trkpt lat="37.71066" lon="15.1749033"><ele>160.39999999999998</ele><time>2026-05-06T13:30:55.035Z</time></trkpt><trkpt lat="37.7107583" lon="15.174945"><ele>159.60000000000002</ele><time>2026-05-06T13:30:56.035Z</time></trkpt><trkpt lat="37.7108533" lon="15.174985"><ele>158.8</ele><time>2026-05-06T13:30:57.035Z</time></trkpt><trkpt lat="37.7109467" lon="15.1750217"><ele>158.0</ele><time>2026-05-06T13:30:58.035Z</time></trkpt><trkpt lat="37.7110333" lon="15.175055"><ele>157.66666666666666</ele><time>2026-05-06T13:30:59.035Z</time></trkpt><trkpt lat="37.711115" lon="15.17508"><ele>157.33333333333331</ele><time>2026-05-06T13:31:00.035Z</time></trkpt><trkpt lat="37.7111883" lon="15.175115"><ele>157.0</ele><time>2026-05-06T13:31:01.034Z</time></trkpt><trkpt lat="37.7112683" lon="15.1751383"><ele>156.66666666666666</ele><time>2026-05-06T13:31:02.034Z</time></trkpt><trkpt lat="37.7113583" lon="15.17518"><ele>156.33333333333334</ele><time>2026-05-06T13:31:03.035Z</time></trkpt><trkpt lat="37.7114433" lon="15.17521"><ele>156.0</ele><time>2026-05-06T13:31:04.035Z</time></trkpt><trkpt lat="37.71153" lon="15.1752533"><ele>156.0</ele><time>2026-05-06T13:31:05.035Z</time></trkpt><trkpt lat="37.7116183" lon="15.1752883"><ele>156.0</ele><time>2026-05-06T13:31:06.035Z</time></trkpt><trkpt lat="37.7117067" lon="15.1753267"><ele>156.0</ele><time>2026-05-06T13:31:07.035Z</time></trkpt><trkpt lat="37.71179" lon="15.1753617"><ele>156.0</ele><time>2026-05-06T13:31:08.035Z</time></trkpt><trkpt lat="37.7118667" lon="15.1754017"><ele>156.0</ele><time>2026-05-06T13:31:09.034Z</time></trkpt><trkpt lat="37.711945" lon="15.1754433"><ele>156.0</ele><time>2026-05-06T13:31:10.035Z</time></trkpt><trkpt lat="37.71202" lon="15.175475"><ele>155.42857142857144</ele><time>2026-05-06T13:31:11.035Z</time></trkpt><trkpt lat="37.7120917" lon="15.1755117"><ele>154.85714285714283</ele><time>2026-05-06T13:31:12.035Z</time></trkpt><trkpt lat="37.712165" lon="15.17554"><ele>154.28571428571428</ele><time>2026-05-06T13:31:13.035Z</time></trkpt><trkpt lat="37.7122333" lon="15.1755733"><ele>153.71428571428572</ele><time>2026-05-06T13:31:14.035Z</time></trkpt><trkpt lat="37.7123" lon="15.1756033"><ele>153.14285714285717</ele><time>2026-05-06T13:31:15.035Z</time></trkpt><trkpt lat="37.71237" lon="15.1756383"><ele>152.57142857142856</ele><time>2026-05-06T13:31:16.035Z</time></trkpt><trkpt lat="37.7124367" lon="15.17568"><ele>152.0</ele><time>2026-05-06T13:31:17.035Z</time></trkpt><trkpt lat="37.7124983" lon="15.1757183"><ele>152.0</ele><time>2026-05-06T13:31:18.035Z</time></trkpt><trkpt lat="37.71261" lon="15.17578"><ele>152.0</ele><time>2026-05-06T13:31:20.035Z</time></trkpt><trkpt lat="37.71267" lon="15.1758167"><ele>152.0</ele><time>2026-05-06T13:31:21.035Z</time></trkpt><trkpt lat="37.7127317" lon="15.1758583"><ele>152.0</ele><time>2026-05-06T13:31:22.035Z</time></trkpt><trkpt lat="37.7127983" lon="15.1758883"><ele>152.0</ele><time>2026-05-06T13:31:23.035Z</time></trkpt><trkpt lat="37.7129167" lon="15.1759517"><ele>151.28571428571428</ele><time>2026-05-06T13:31:25.035Z</time></trkpt><trkpt lat="37.7129767" lon="15.1759917"><ele>150.57142857142858</ele><time>2026-05-06T13:31:26.035Z</time></trkpt><trkpt lat="37.7130383" lon="15.17603"><ele>149.85714285714286</ele><time>2026-05-06T13:31:27.035Z</time></trkpt><trkpt lat="37.7130983" lon="15.1760667"><ele>149.14285714285714</ele><time>2026-05-06T13:31:28.035Z</time></trkpt><trkpt lat="37.7131567" lon="15.176105"><ele>148.42857142857144</ele><time>2026-05-06T13:31:29.035Z</time></trkpt><trkpt lat="37.71322" lon="15.1761383"><ele>147.71428571428572</ele><time>2026-05-06T13:31:30.035Z</time></trkpt><trkpt lat="37.713285" lon="15.176175"><ele>147.0</ele><time>2026-05-06T13:31:31.035Z</time></trkpt><trkpt lat="37.713355" lon="15.1762133"><ele>147.0</ele><time>2026-05-06T13:31:32.035Z</time></trkpt><trkpt lat="37.7134283" lon="15.1762567"><ele>147.0</ele><time>2026-05-06T13:31:33.035Z</time></trkpt><trkpt lat="37.7135067" lon="15.1762933"><ele>147.0</ele><time>2026-05-06T13:31:34.035Z</time></trkpt><trkpt lat="37.7135817" lon="15.1763367"><ele>147.0</ele><time>2026-05-06T13:31:35.035Z</time></trkpt><trkpt lat="37.713655" lon="15.1764"><ele>147.0</ele><time>2026-05-06T13:31:36.035Z</time></trkpt><trkpt lat="37.7137217" lon="15.176445"><ele>147.0</ele><time>2026-05-06T13:31:37.035Z</time></trkpt><trkpt lat="37.7137883" lon="15.17647"><ele>147.0</ele><time>2026-05-06T13:31:38.035Z</time></trkpt><trkpt lat="37.7138567" lon="15.1765083"><ele>147.0</ele><time>2026-05-06T13:31:39.034Z</time></trkpt><trkpt lat="37.7139233" lon="15.17655"><ele>147.0</ele><time>2026-05-06T13:31:40.035Z</time></trkpt><trkpt lat="37.7139883" lon="15.1765883"><ele>147.0</ele><time>2026-05-06T13:31:41.035Z</time></trkpt><trkpt lat="37.714055" lon="15.1766283"><ele>147.0</ele><time>2026-05-06T13:31:42.035Z</time></trkpt><trkpt lat="37.71413" lon="15.1766633"><ele>147.0</ele><time>2026-05-06T13:31:43.035Z</time></trkpt><trkpt lat="37.7142067" lon="15.1767017"><ele>146.5</ele><time>2026-05-06T13:31:44.035Z</time></trkpt><trkpt lat="37.714285" lon="15.1767517"><ele>146.0</ele><time>2026-05-06T13:31:45.035Z</time></trkpt><trkpt lat="37.7143533" lon="15.1768033"><ele>145.5</ele><time>2026-05-06T13:31:46.035Z</time></trkpt><trkpt lat="37.7144117" lon="15.176865"><ele>145.0</ele><time>2026-05-06T13:31:47.035Z</time></trkpt><trkpt lat="37.71448" lon="15.17692"><ele>144.5</ele><time>2026-05-06T13:31:48.035Z</time></trkpt><trkpt lat="37.7145467" lon="15.1769783"><ele>144.0</ele><time>2026-05-06T13:31:49.035Z</time></trkpt><trkpt lat="37.71462" lon="15.1770267"><ele>143.5</ele><time>2026-05-06T13:31:50.035Z</time></trkpt><trkpt lat="37.71469" lon="15.1770683"><ele>143.0</ele><time>2026-05-06T13:31:51.035Z</time></trkpt><trkpt lat="37.7147683" lon="15.17711"><ele>142.5</ele><time>2026-05-06T13:31:52.035Z</time></trkpt><trkpt lat="37.7148367" lon="15.1771583"><ele>142.0</ele><time>2026-05-06T13:31:53.035Z</time></trkpt><trkpt lat="37.7148983" lon="15.1772067"><ele>141.5</ele><time>2026-05-06T13:31:54.035Z</time></trkpt><trkpt lat="37.7149633" lon="15.1772517"><ele>141.0</ele><time>2026-05-06T13:31:55.035Z</time></trkpt><trkpt lat="37.7150183" lon="15.17731"><ele>140.4</ele><time>2026-05-06T13:31:56.035Z</time></trkpt><trkpt lat="37.7150667" lon="15.1773617"><ele>139.8</ele><time>2026-05-06T13:31:57.035Z</time></trkpt><trkpt lat="37.7151" lon="15.17744"><ele>139.20000000000002</ele><time>2026-05-06T13:31:58.035Z</time></trkpt><trkpt lat="37.71511" lon="15.1775483"><ele>138.6</ele><time>2026-05-06T13:31:59.035Z</time></trkpt><trkpt lat="37.7151167" lon="15.17768"><ele>138.0</ele><time>2026-05-06T13:32:00.035Z</time></trkpt><trkpt lat="37.7151333" lon="15.1778533"><ele>138.0</ele><time>2026-05-06T13:32:01.035Z</time></trkpt><trkpt lat="37.7151583" lon="15.17806"><ele>138.0</ele><time>2026-05-06T13:32:02.035Z</time></trkpt><trkpt lat="37.71518" lon="15.1782567"><ele>138.0</ele><time>2026-05-06T13:32:03.035Z</time></trkpt><trkpt lat="37.7152033" lon="15.17843"><ele>137.4</ele><time>2026-05-06T13:32:04.035Z</time></trkpt><trkpt lat="37.7152233" lon="15.1785683"><ele>136.8</ele><time>2026-05-06T13:32:05.035Z</time></trkpt><trkpt lat="37.7152267" lon="15.1786917"><ele>136.2</ele><time>2026-05-06T13:32:06.035Z</time></trkpt><trkpt lat="37.7152367" lon="15.1787983"><ele>135.6</ele><time>2026-05-06T13:32:07.035Z</time></trkpt><trkpt lat="37.7152583" lon="15.1788933"><ele>135.0</ele><time>2026-05-06T13:32:08.035Z</time></trkpt><trkpt lat="37.71529" lon="15.178985"><ele>133.75</ele><time>2026-05-06T13:32:09.035Z</time></trkpt><trkpt lat="37.7153417" lon="15.1790683"><ele>132.5</ele><time>2026-05-06T13:32:10.035Z</time></trkpt><trkpt lat="37.71544" lon="15.179145"><ele>131.25</ele><time>2026-05-06T13:32:11.035Z</time></trkpt><trkpt lat="37.7155583" lon="15.1792433"><ele>130.0</ele><time>2026-05-06T13:32:12.035Z</time></trkpt><trkpt lat="37.7156767" lon="15.1793433"><ele>130.0</ele><time>2026-05-06T13:32:13.035Z</time></trkpt><trkpt lat="37.71579" lon="15.1794383"><ele>130.0</ele><time>2026-05-06T13:32:14.035Z</time></trkpt><trkpt lat="37.7159" lon="15.1795367"><ele>130.0</ele><time>2026-05-06T13:32:15.035Z</time></trkpt><trkpt lat="37.716005" lon="15.1796467"><ele>130.0</ele><time>2026-05-06T13:32:16.035Z</time></trkpt><trkpt lat="37.7160967" lon="15.17977"><ele>128.5</ele><time>2026-05-06T13:32:17.035Z</time></trkpt><trkpt lat="37.7161783" lon="15.1798833"><ele>127.0</ele><time>2026-05-06T13:32:18.035Z</time></trkpt><trkpt lat="37.7162517" lon="15.1799967"><ele>125.5</ele><time>2026-05-06T13:32:19.035Z</time></trkpt><trkpt lat="37.7163167" lon="15.1801117"><ele>124.0</ele><time>2026-05-06T13:32:20.034Z</time></trkpt><trkpt lat="37.7163783" lon="15.1802183"><ele>124.0</ele><time>2026-05-06T13:32:21.034Z</time></trkpt><trkpt lat="37.7164333" lon="15.180325"><ele>124.0</ele><time>2026-05-06T13:32:22.035Z</time></trkpt><trkpt lat="37.7164867" lon="15.18043"><ele>124.0</ele><time>2026-05-06T13:32:23.035Z</time></trkpt><trkpt lat="37.7165383" lon="15.1805283"><ele>124.0</ele><time>2026-05-06T13:32:24.035Z</time></trkpt><trkpt lat="37.7165967" lon="15.1806233"><ele>124.0</ele><time>2026-05-06T13:32:25.035Z</time></trkpt><trkpt lat="37.7166517" lon="15.1807117"><ele>123.5</ele><time>2026-05-06T13:32:26.035Z</time></trkpt><trkpt lat="37.7167083" lon="15.1808033"><ele>123.0</ele><time>2026-05-06T13:32:27.035Z</time></trkpt><trkpt lat="37.7167717" lon="15.1809133"><ele>122.5</ele><time>2026-05-06T13:32:28.035Z</time></trkpt><trkpt lat="37.7168483" lon="15.1810317"><ele>122.0</ele><time>2026-05-06T13:32:29.035Z</time></trkpt><trkpt lat="37.7169483" lon="15.18116"><ele>122.0</ele><time>2026-05-06T13:32:30.035Z</time></trkpt><trkpt lat="37.7170617" lon="15.1813283"><ele>122.0</ele><time>2026-05-06T13:32:31.035Z</time></trkpt><trkpt lat="37.7171833" lon="15.181525"><ele>122.0</ele><time>2026-05-06T13:32:32.035Z</time></trkpt><trkpt lat="37.7173167" lon="15.181735"><ele>119.5</ele><time>2026-05-06T13:32:33.035Z</time></trkpt><trkpt lat="37.7174683" lon="15.1819567"><ele>117.0</ele><time>2026-05-06T13:32:34.035Z</time></trkpt><trkpt lat="37.717615" lon="15.1821817"><ele>115.0</ele><time>2026-05-06T13:32:35.035Z</time></trkpt><trkpt lat="37.7177583" lon="15.1823967"><ele>113.0</ele><time>2026-05-06T13:32:36.034Z</time></trkpt><trkpt lat="37.7179067" lon="15.1826067"><ele>111.0</ele><time>2026-05-06T13:32:37.035Z</time></trkpt><trkpt lat="37.7180517" lon="15.1828233"><ele>111.0</ele><time>2026-05-06T13:32:38.035Z</time></trkpt><trkpt lat="37.718185" lon="15.1830533"><ele>111.0</ele><time>2026-05-06T13:32:39.035Z</time></trkpt><trkpt lat="37.71832" lon="15.183295"><ele>108.5</ele><time>2026-05-06T13:32:40.035Z</time></trkpt><trkpt lat="37.71844" lon="15.183545"><ele>106.0</ele><time>2026-05-06T13:32:41.035Z</time></trkpt><trkpt lat="37.718555" lon="15.1837983"><ele>105.0</ele><time>2026-05-06T13:32:42.035Z</time></trkpt><trkpt lat="37.71867" lon="15.18404"><ele>104.0</ele><time>2026-05-06T13:32:43.035Z</time></trkpt><trkpt lat="37.7187783" lon="15.18427"><ele>103.0</ele><time>2026-05-06T13:32:44.035Z</time></trkpt><trkpt lat="37.71889" lon="15.1845033"><ele>103.0</ele><time>2026-05-06T13:32:45.035Z</time></trkpt><trkpt lat="37.718995" lon="15.1847233"><ele>103.0</ele><time>2026-05-06T13:32:46.035Z</time></trkpt><trkpt lat="37.7190983" lon="15.18494"><ele>103.0</ele><time>2026-05-06T13:32:47.035Z</time></trkpt><trkpt lat="37.7191933" lon="15.185145"><ele>101.33333333333334</ele><time>2026-05-06T13:32:48.035Z</time></trkpt><trkpt lat="37.7192933" lon="15.1853517"><ele>99.66666666666666</ele><time>2026-05-06T13:32:49.035Z</time></trkpt><trkpt lat="37.7193917" lon="15.1855483"><ele>98.0</ele><time>2026-05-06T13:32:50.035Z</time></trkpt><trkpt lat="37.7194933" lon="15.18572"><ele>97.25</ele><time>2026-05-06T13:32:51.035Z</time></trkpt><trkpt lat="37.719605" lon="15.1858667"><ele>96.5</ele><time>2026-05-06T13:32:52.034Z</time></trkpt><trkpt lat="37.7197" lon="15.1859883"><ele>95.75</ele><time>2026-05-06T13:32:53.035Z</time></trkpt><trkpt lat="37.7198017" lon="15.1861"><ele>95.0</ele><time>2026-05-06T13:32:54.034Z</time></trkpt><trkpt lat="37.7198917" lon="15.1861983"><ele>95.0</ele><time>2026-05-06T13:32:55.035Z</time></trkpt><trkpt lat="37.7199667" lon="15.1862833"><ele>95.0</ele><time>2026-05-06T13:32:56.035Z</time></trkpt><trkpt lat="37.72004" lon="15.1863433"><ele>95.0</ele><time>2026-05-06T13:32:57.035Z</time></trkpt><trkpt lat="37.7201033" lon="15.1863633"><ele>95.0</ele><time>2026-05-06T13:32:58.035Z</time></trkpt><trkpt lat="37.7201817" lon="15.1863567"><ele>95.0</ele><time>2026-05-06T13:32:59.035Z</time></trkpt><trkpt lat="37.7202633" lon="15.186315"><ele>95.0</ele><time>2026-05-06T13:33:00.035Z</time></trkpt><trkpt lat="37.720345" lon="15.186225"><ele>94.5</ele><time>2026-05-06T13:33:01.035Z</time></trkpt><trkpt lat="37.72045" lon="15.1861017"><ele>94.0</ele><time>2026-05-06T13:33:02.035Z</time></trkpt><trkpt lat="37.7205633" lon="15.1859683"><ele>93.5</ele><time>2026-05-06T13:33:03.034Z</time></trkpt><trkpt lat="37.7206583" lon="15.1858667"><ele>93.0</ele><time>2026-05-06T13:33:04.035Z</time></trkpt><trkpt lat="37.720735" lon="15.1857967"><ele>93.0</ele><time>2026-05-06T13:33:05.035Z</time></trkpt><trkpt lat="37.72079" lon="15.1857533"><ele>93.0</ele><time>2026-05-06T13:33:06.035Z</time></trkpt><trkpt lat="37.72088" lon="15.1857767"><ele>93.0</ele><time>2026-05-06T13:33:08.035Z</time></trkpt><trkpt lat="37.7209233" lon="15.1858383"><ele>93.0</ele><time>2026-05-06T13:33:09.035Z</time></trkpt><trkpt lat="37.7209717" lon="15.1859317"><ele>93.0</ele><time>2026-05-06T13:33:10.035Z</time></trkpt><trkpt lat="37.72103" lon="15.186055"><ele>93.0</ele><time>2026-05-06T13:33:11.035Z</time></trkpt><trkpt lat="37.72111" lon="15.1861883"><ele>93.25</ele><time>2026-05-06T13:33:12.035Z</time></trkpt><trkpt lat="37.721185" lon="15.186325"><ele>93.5</ele><time>2026-05-06T13:33:13.035Z</time></trkpt><trkpt lat="37.7212567" lon="15.1864483"><ele>93.75</ele><time>2026-05-06T13:33:14.035Z</time></trkpt><trkpt lat="37.7213317" lon="15.186565"><ele>94.0</ele><time>2026-05-06T13:33:15.035Z</time></trkpt><trkpt lat="37.7213967" lon="15.18668"><ele>93.66666666666666</ele><time>2026-05-06T13:33:16.035Z</time></trkpt><trkpt lat="37.7214567" lon="15.1867783"><ele>93.33333333333333</ele><time>2026-05-06T13:33:17.035Z</time></trkpt><trkpt lat="37.721505" lon="15.1868583"><ele>93.0</ele><time>2026-05-06T13:33:18.035Z</time></trkpt><trkpt lat="37.7215433" lon="15.1869283"><ele>92.66666666666667</ele><time>2026-05-06T13:33:19.035Z</time></trkpt><trkpt lat="37.7215917" lon="15.1870133"><ele>92.33333333333334</ele><time>2026-05-06T13:33:21.035Z</time></trkpt><trkpt lat="37.7216567" lon="15.1870317"><ele>92.0</ele><time>2026-05-06T13:33:24.035Z</time></trkpt><trkpt lat="37.72176" lon="15.187035"><ele>92.0</ele><time>2026-05-06T13:33:26.035Z</time></trkpt><trkpt lat="37.7218717" lon="15.1871033"><ele>92.0</ele><time>2026-05-06T13:33:28.035Z</time></trkpt><trkpt lat="37.7219317" lon="15.18717"><ele>92.0</ele><time>2026-05-06T13:33:29.035Z</time></trkpt><trkpt lat="37.7219967" lon="15.1872467"><ele>92.0</ele><time>2026-05-06T13:33:30.035Z</time></trkpt><trkpt lat="37.722055" lon="15.18732"><ele>92.0</ele><time>2026-05-06T13:33:31.035Z</time></trkpt><trkpt lat="37.72211" lon="15.1873867"><ele>91.83333333333334</ele><time>2026-05-06T13:33:32.035Z</time></trkpt><trkpt lat="37.7222" lon="15.1874833"><ele>91.66666666666667</ele><time>2026-05-06T13:33:34.035Z</time></trkpt><trkpt lat="37.72226" lon="15.1875117"><ele>91.5</ele><time>2026-05-06T13:33:36.035Z</time></trkpt><trkpt lat="37.7223517" lon="15.187455"><ele>91.33333333333333</ele><time>2026-05-06T13:33:38.035Z</time></trkpt><trkpt lat="37.722395" lon="15.187395"><ele>91.16666666666666</ele><time>2026-05-06T13:33:39.035Z</time></trkpt><trkpt lat="37.7224467" lon="15.18733"><ele>91.0</ele><time>2026-05-06T13:33:40.035Z</time></trkpt><trkpt lat="37.7225383" lon="15.187245"><ele>91.0</ele><time>2026-05-06T13:33:42.035Z</time></trkpt><trkpt lat="37.7226233" lon="15.1872083"><ele>91.0</ele><time>2026-05-06T13:33:44.035Z</time></trkpt><trkpt lat="37.72271" lon="15.18717"><ele>91.0</ele><time>2026-05-06T13:33:47.035Z</time></trkpt><trkpt lat="37.7227967" lon="15.1871383"><ele>91.0</ele><time>2026-05-06T13:33:49.035Z</time></trkpt><trkpt lat="37.72286" lon="15.1871183"><ele>91.0</ele><time>2026-05-06T13:33:50.035Z</time></trkpt><trkpt lat="37.7229367" lon="15.1870967"><ele>91.0</ele><time>2026-05-06T13:33:51.035Z</time></trkpt><trkpt lat="37.7230167" lon="15.1870767"><ele>91.0</ele><time>2026-05-06T13:33:52.035Z</time></trkpt><trkpt lat="37.7230883" lon="15.187055"><ele>91.0</ele><time>2026-05-06T13:33:53.035Z</time></trkpt><trkpt lat="37.72319" lon="15.1870233"><ele>91.0</ele><time>2026-05-06T13:33:55.035Z</time></trkpt><trkpt lat="37.723255" lon="15.1869883"><ele>91.0</ele><time>2026-05-06T13:33:59.035Z</time></trkpt><trkpt lat="37.7233333" lon="15.1869683"><ele>91.0</ele><time>2026-05-06T13:34:03.034Z</time></trkpt><trkpt lat="37.723425" lon="15.1869133"><ele>91.0</ele><time>2026-05-06T13:34:05.035Z</time></trkpt><trkpt lat="37.7235067" lon="15.1868567"><ele>90.5</ele><time>2026-05-06T13:34:07.035Z</time></trkpt><trkpt lat="37.7235867" lon="15.1868133"><ele>90.0</ele><time>2026-05-06T13:34:09.035Z</time></trkpt><trkpt lat="37.72366" lon="15.18676"><ele>89.5</ele><time>2026-05-06T13:34:11.035Z</time></trkpt><trkpt lat="37.7237217" lon="15.186705"><ele>89.0</ele><time>2026-05-06T13:34:15.035Z</time></trkpt><trkpt lat="37.7237933" lon="15.1867067"><ele>88.5</ele><time>2026-05-06T13:34:19.035Z</time></trkpt><trkpt lat="37.7238583" lon="15.1866667"><ele>88.0</ele><time>2026-05-06T13:34:23.035Z</time></trkpt><trkpt lat="37.7239317" lon="15.1866583"><ele>88.0</ele><time>2026-05-06T13:34:26.035Z</time></trkpt><trkpt lat="37.7240567" lon="15.1866183"><ele>88.0</ele><time>2026-05-06T13:34:28.035Z</time></trkpt><trkpt lat="37.7241433" lon="15.1865917"><ele>88.0</ele><time>2026-05-06T13:34:29.034Z</time></trkpt><trkpt lat="37.7242267" lon="15.18656"><ele>88.0</ele><time>2026-05-06T13:34:30.035Z</time></trkpt><trkpt lat="37.72431" lon="15.1865367"><ele>88.0</ele><time>2026-05-06T13:34:31.035Z</time></trkpt><trkpt lat="37.724385" lon="15.1865167"><ele>87.60000000000001</ele><time>2026-05-06T13:34:32.035Z</time></trkpt><trkpt lat="37.7245033" lon="15.18652"><ele>87.2</ele><time>2026-05-06T13:34:34.035Z</time></trkpt><trkpt lat="37.7245633" lon="15.1865933"><ele>86.8</ele><time>2026-05-06T13:34:35.035Z</time></trkpt><trkpt lat="37.72461" lon="15.18665"><ele>86.4</ele><time>2026-05-06T13:34:36.035Z</time></trkpt><trkpt lat="37.7246417" lon="15.1867533"><ele>86.0</ele><time>2026-05-06T13:34:37.035Z</time></trkpt><trkpt lat="37.724645" lon="15.1868833"><ele>86.0</ele><time>2026-05-06T13:34:38.035Z</time></trkpt><trkpt lat="37.72467" lon="15.1869967"><ele>86.0</ele><time>2026-05-06T13:34:39.035Z</time></trkpt><trkpt lat="37.7247033" lon="15.187115"><ele>86.0</ele><time>2026-05-06T13:34:40.034Z</time></trkpt><trkpt lat="37.7247317" lon="15.1872767"><ele>86.0</ele><time>2026-05-06T13:34:41.035Z</time></trkpt><trkpt lat="37.72475" lon="15.1873817"><ele>86.0</ele><time>2026-05-06T13:34:42.035Z</time></trkpt><trkpt lat="37.7247767" lon="15.1875383"><ele>85.5</ele><time>2026-05-06T13:34:44.035Z</time></trkpt><trkpt lat="37.7247933" lon="15.1876317"><ele>85.0</ele><time>2026-05-06T13:34:45.035Z</time></trkpt><trkpt lat="37.7248217" lon="15.1877317"><ele>84.5</ele><time>2026-05-06T13:34:46.035Z</time></trkpt><trkpt lat="37.7248483" lon="15.187835"><ele>84.0</ele><time>2026-05-06T13:34:47.034Z</time></trkpt><trkpt lat="37.7248717" lon="15.18794"><ele>83.5</ele><time>2026-05-06T13:34:48.034Z</time></trkpt><trkpt lat="37.7248983" lon="15.18804"><ele>83.0</ele><time>2026-05-06T13:34:49.035Z</time></trkpt><trkpt lat="37.7249233" lon="15.188145"><ele>82.60000000000001</ele><time>2026-05-06T13:34:50.035Z</time></trkpt><trkpt lat="37.724955" lon="15.188265"><ele>82.2</ele><time>2026-05-06T13:34:51.035Z</time></trkpt><trkpt lat="37.7249733" lon="15.1883917"><ele>81.8</ele><time>2026-05-06T13:34:52.035Z</time></trkpt><trkpt lat="37.724995" lon="15.1885167"><ele>81.4</ele><time>2026-05-06T13:34:53.035Z</time></trkpt><trkpt lat="37.7250267" lon="15.1886267"><ele>81.0</ele><time>2026-05-06T13:34:54.035Z</time></trkpt><trkpt lat="37.72506" lon="15.18874"><ele>81.0</ele><time>2026-05-06T13:34:55.035Z</time></trkpt><trkpt lat="37.7250917" lon="15.1888617"><ele>81.0</ele><time>2026-05-06T13:34:56.035Z</time></trkpt><trkpt lat="37.7251183" lon="15.18898"><ele>81.0</ele><time>2026-05-06T13:34:57.035Z</time></trkpt><trkpt lat="37.72514" lon="15.1891"><ele>81.0</ele><time>2026-05-06T13:34:58.035Z</time></trkpt><trkpt lat="37.7251567" lon="15.1892183"><ele>81.0</ele><time>2026-05-06T13:34:59.035Z</time></trkpt><trkpt lat="37.7251817" lon="15.18933"><ele>80.33333333333333</ele><time>2026-05-06T13:35:00.035Z</time></trkpt><trkpt lat="37.7252133" lon="15.1894367"><ele>79.66666666666667</ele><time>2026-05-06T13:35:01.035Z</time></trkpt><trkpt lat="37.725235" lon="15.1895367"><ele>79.0</ele><time>2026-05-06T13:35:02.035Z</time></trkpt><trkpt lat="37.7252517" lon="15.18964"><ele>78.33333333333334</ele><time>2026-05-06T13:35:03.035Z</time></trkpt><trkpt lat="37.725265" lon="15.1897367"><ele>77.66666666666667</ele><time>2026-05-06T13:35:04.035Z</time></trkpt><trkpt lat="37.7252933" lon="15.1898367"><ele>77.0</ele><time>2026-05-06T13:35:05.035Z</time></trkpt><trkpt lat="37.7253267" lon="15.189945"><ele>76.2</ele><time>2026-05-06T13:35:06.035Z</time></trkpt><trkpt lat="37.72535" lon="15.1900617"><ele>75.4</ele><time>2026-05-06T13:35:07.035Z</time></trkpt><trkpt lat="37.7253767" lon="15.1901867"><ele>74.6</ele><time>2026-05-06T13:35:08.035Z</time></trkpt><trkpt lat="37.7254" lon="15.1903233"><ele>73.8</ele><time>2026-05-06T13:35:09.035Z</time></trkpt><trkpt lat="37.7254383" lon="15.1904633"><ele>73.0</ele><time>2026-05-06T13:35:10.035Z</time></trkpt><trkpt lat="37.7254833" lon="15.1905967"><ele>71.5</ele><time>2026-05-06T13:35:11.035Z</time></trkpt><trkpt lat="37.72552" lon="15.19074"><ele>70.0</ele><time>2026-05-06T13:35:12.035Z</time></trkpt><trkpt lat="37.7255467" lon="15.19088"><ele>68.5</ele><time>2026-05-06T13:35:13.035Z</time></trkpt><trkpt lat="37.72559" lon="15.1910267"><ele>67.0</ele><time>2026-05-06T13:35:14.035Z</time></trkpt><trkpt lat="37.7256167" lon="15.1911717"><ele>67.0</ele><time>2026-05-06T13:35:15.035Z</time></trkpt><trkpt lat="37.725655" lon="15.1913183"><ele>67.0</ele><time>2026-05-06T13:35:16.035Z</time></trkpt><trkpt lat="37.7257" lon="15.1914567"><ele>67.0</ele><time>2026-05-06T13:35:17.035Z</time></trkpt><trkpt lat="37.7257383" lon="15.1915983"><ele>67.0</ele><time>2026-05-06T13:35:18.035Z</time></trkpt><trkpt lat="37.72577" lon="15.1917317"><ele>66.4</ele><time>2026-05-06T13:35:19.035Z</time></trkpt><trkpt lat="37.7258017" lon="15.1918633"><ele>65.80000000000001</ele><time>2026-05-06T13:35:20.035Z</time></trkpt><trkpt lat="37.7258333" lon="15.19199"><ele>65.2</ele><time>2026-05-06T13:35:21.035Z</time></trkpt><trkpt lat="37.7258517" lon="15.1921167"><ele>64.60000000000001</ele><time>2026-05-06T13:35:22.034Z</time></trkpt><trkpt lat="37.72588" lon="15.1922333"><ele>64.0</ele><time>2026-05-06T13:35:23.035Z</time></trkpt><trkpt lat="37.7259017" lon="15.1923283"><ele>63.400000000000006</ele><time>2026-05-06T13:35:24.035Z</time></trkpt><trkpt lat="37.7259267" lon="15.192415"><ele>62.800000000000004</ele><time>2026-05-06T13:35:25.035Z</time></trkpt><trkpt lat="37.7260067" lon="15.1925083"><ele>62.199999999999996</ele><time>2026-05-06T13:35:27.035Z</time></trkpt><trkpt lat="37.7261483" lon="15.1924833"><ele>61.599999999999994</ele><time>2026-05-06T13:35:29.035Z</time></trkpt><trkpt lat="37.72624" lon="15.19244"><ele>61.0</ele><time>2026-05-06T13:35:30.035Z</time></trkpt><trkpt lat="37.7263383" lon="15.1924017"><ele>61.166666666666664</ele><time>2026-05-06T13:35:31.035Z</time></trkpt><trkpt lat="37.7264383" lon="15.1923533"><ele>61.33333333333333</ele><time>2026-05-06T13:35:32.034Z</time></trkpt><trkpt lat="37.726535" lon="15.1923183"><ele>61.5</ele><time>2026-05-06T13:35:33.035Z</time></trkpt><trkpt lat="37.7266233" lon="15.19229"><ele>61.66666666666667</ele><time>2026-05-06T13:35:34.035Z</time></trkpt><trkpt lat="37.7266967" lon="15.1922667"><ele>61.833333333333336</ele><time>2026-05-06T13:35:35.035Z</time></trkpt><trkpt lat="37.7267633" lon="15.1922533"><ele>62.0</ele><time>2026-05-06T13:35:36.035Z</time></trkpt><trkpt lat="37.7268417" lon="15.1922283"><ele>62.00000000000001</ele><time>2026-05-06T13:35:38.035Z</time></trkpt><trkpt lat="37.7269117" lon="15.192205"><ele>62.0</ele><time>2026-05-06T13:35:41.035Z</time></trkpt><trkpt lat="37.7270067" lon="15.192155"><ele>62.0</ele><time>2026-05-06T13:35:44.035Z</time></trkpt><trkpt lat="37.7270683" lon="15.1921167"><ele>62.0</ele><time>2026-05-06T13:35:45.035Z</time></trkpt><trkpt lat="37.72714" lon="15.19207"><ele>62.00000000000001</ele><time>2026-05-06T13:35:46.035Z</time></trkpt><trkpt lat="37.7272283" lon="15.19205"><ele>62.0</ele><time>2026-05-06T13:35:47.035Z</time></trkpt><trkpt lat="37.7273133" lon="15.1920167"><ele>62.0</ele><time>2026-05-06T13:35:48.035Z</time></trkpt><trkpt lat="37.7273917" lon="15.1919817"><ele>62.00000000000001</ele><time>2026-05-06T13:35:49.035Z</time></trkpt><trkpt lat="37.7274633" lon="15.1919567"><ele>62.0</ele><time>2026-05-06T13:35:50.035Z</time></trkpt><trkpt lat="37.7275267" lon="15.1919267"><ele>62.0</ele><time>2026-05-06T13:35:51.035Z</time></trkpt><trkpt lat="37.7275883" lon="15.1919067"><ele>62.00000000000001</ele><time>2026-05-06T13:35:52.035Z</time></trkpt><trkpt lat="37.727655" lon="15.1918833"><ele>62.0</ele><time>2026-05-06T13:35:53.035Z</time></trkpt><trkpt lat="37.727725" lon="15.1918583"><ele>62.0</ele><time>2026-05-06T13:35:54.035Z</time></trkpt><trkpt lat="37.7278" lon="15.191835"><ele>61.16666666666667</ele><time>2026-05-06T13:35:55.035Z</time></trkpt><trkpt lat="37.7278783" lon="15.1918117"><ele>60.333333333333336</ele><time>2026-05-06T13:35:56.035Z</time></trkpt><trkpt lat="37.72796" lon="15.1917867"><ele>59.5</ele><time>2026-05-06T13:35:57.035Z</time></trkpt><trkpt lat="37.7280433" lon="15.19176"><ele>58.66666666666667</ele><time>2026-05-06T13:35:58.035Z</time></trkpt><trkpt lat="37.7281217" lon="15.191725"><ele>57.833333333333336</ele><time>2026-05-06T13:35:59.035Z</time></trkpt><trkpt lat="37.7281933" lon="15.191675"><ele>57.0</ele><time>2026-05-06T13:36:00.035Z</time></trkpt><trkpt lat="37.728265" lon="15.1916367"><ele>57.0</ele><time>2026-05-06T13:36:01.035Z</time></trkpt><trkpt lat="37.7283317" lon="15.1916117"><ele>57.0</ele><time>2026-05-06T13:36:02.035Z</time></trkpt><trkpt lat="37.72844" lon="15.19159"><ele>57.0</ele><time>2026-05-06T13:36:04.035Z</time></trkpt><trkpt lat="37.7285083" lon="15.1915867"><ele>57.0</ele><time>2026-05-06T13:36:06.035Z</time></trkpt><trkpt lat="37.7285683" lon="15.1915583"><ele>57.0</ele><time>2026-05-06T13:36:11.035Z</time></trkpt><trkpt lat="37.7286583" lon="15.1915683"><ele>57.0</ele><time>2026-05-06T13:36:22.035Z</time></trkpt><trkpt lat="37.7287067" lon="15.1916267"><ele>56.6</ele><time>2026-05-06T13:36:24.035Z</time></trkpt><trkpt lat="37.7287667" lon="15.1917483"><ele>56.2</ele><time>2026-05-06T13:36:26.035Z</time></trkpt><trkpt lat="37.72882" lon="15.1918783"><ele>55.8</ele><time>2026-05-06T13:36:28.035Z</time></trkpt><trkpt lat="37.7288433" lon="15.19196"><ele>55.4</ele><time>2026-05-06T13:36:29.035Z</time></trkpt><trkpt lat="37.7288883" lon="15.1920967"><ele>55.0</ele><time>2026-05-06T13:36:31.035Z</time></trkpt><trkpt lat="37.7288983" lon="15.1922417"><ele>54.6</ele><time>2026-05-06T13:36:33.035Z</time></trkpt><trkpt lat="37.72891" lon="15.1923633"><ele>54.2</ele><time>2026-05-06T13:36:35.035Z</time></trkpt><trkpt lat="37.7289283" lon="15.19251"><ele>53.8</ele><time>2026-05-06T13:36:37.035Z</time></trkpt><trkpt lat="37.7289633" lon="15.192655"><ele>53.4</ele><time>2026-05-06T13:36:39.035Z</time></trkpt><trkpt lat="37.72899" lon="15.192795"><ele>53.0</ele><time>2026-05-06T13:36:41.035Z</time></trkpt><trkpt lat="37.72903" lon="15.1929267"><ele>53.0</ele><time>2026-05-06T13:36:43.035Z</time></trkpt><trkpt lat="37.72907" lon="15.193055"><ele>53.0</ele><time>2026-05-06T13:36:45.035Z</time></trkpt><trkpt lat="37.7291" lon="15.19316"><ele>53.0</ele><time>2026-05-06T13:36:47.035Z</time></trkpt><trkpt lat="37.729125" lon="15.1932433"><ele>53.0</ele><time>2026-05-06T13:36:49.035Z</time></trkpt><trkpt lat="37.72905" lon="15.193305"><ele>53.0</ele><time>2026-05-06T13:57:49.034Z</time></trkpt><trkpt lat="37.72923" lon="15.1935067"><ele>52.25</ele><time>2026-05-06T15:13:04.37Z</time></trkpt><trkpt lat="37.7290817" lon="15.1935883"><ele>51.5</ele><time>2026-05-06T15:13:07.371Z</time></trkpt><trkpt lat="37.7290933" lon="15.193365"><ele>50.75</ele><time>2026-05-06T15:13:11.371Z</time></trkpt><trkpt lat="37.7291533" lon="15.193315"><ele>50.0</ele><time>2026-05-06T15:13:14.034Z</time></trkpt><trkpt lat="37.7291167" lon="15.19339"><ele>50.00000000000001</ele><time>2026-05-06T15:13:29.034Z</time></trkpt><trkpt lat="37.7291267" lon="15.1934783"><ele>50.0</ele><time>2026-05-06T15:13:31.034Z</time></trkpt><trkpt lat="37.7291583" lon="15.1936233"><ele>50.0</ele><time>2026-05-06T15:13:33.034Z</time></trkpt><trkpt lat="37.729185" lon="15.1937033"><ele>50.0</ele><time>2026-05-06T15:13:34.034Z</time></trkpt><trkpt lat="37.7292083" lon="15.1937883"><ele>50.00000000000001</ele><time>2026-05-06T15:13:35.034Z</time></trkpt><trkpt lat="37.72923" lon="15.1938733"><ele>50.0</ele><time>2026-05-06T15:13:36.034Z</time></trkpt><trkpt lat="37.729245" lon="15.1939567"><ele>49.4</ele><time>2026-05-06T15:13:37.034Z</time></trkpt><trkpt lat="37.7292883" lon="15.1940933"><ele>48.8</ele><time>2026-05-06T15:13:39.034Z</time></trkpt><trkpt lat="37.72938" lon="15.194135"><ele>48.2</ele><time>2026-05-06T15:13:41.034Z</time></trkpt><trkpt lat="37.7294967" lon="15.1940633"><ele>47.6</ele><time>2026-05-06T15:13:43.034Z</time></trkpt><trkpt lat="37.7295567" lon="15.1939983"><ele>47.0</ele><time>2026-05-06T15:13:44.034Z</time></trkpt><trkpt lat="37.7296183" lon="15.1939367"><ele>47.0</ele><time>2026-05-06T15:13:45.034Z</time></trkpt><trkpt lat="37.7296733" lon="15.19388"><ele>47.0</ele><time>2026-05-06T15:13:46.034Z</time></trkpt><trkpt lat="37.729725" lon="15.19382"><ele>47.0</ele><time>2026-05-06T15:13:47.034Z</time></trkpt><trkpt lat="37.7297733" lon="15.1937017"><ele>47.0</ele><time>2026-05-06T15:13:49.034Z</time></trkpt><trkpt lat="37.7297483" lon="15.1935533"><ele>47.0</ele><time>2026-05-06T15:13:51.034Z</time></trkpt><trkpt lat="37.7297167" lon="15.193475"><ele>47.0</ele><time>2026-05-06T15:13:52.034Z</time></trkpt><trkpt lat="37.729685" lon="15.193395"><ele>47.0</ele><time>2026-05-06T15:13:53.034Z</time></trkpt><trkpt lat="37.7296683" lon="15.19331"><ele>47.0</ele><time>2026-05-06T15:13:54.034Z</time></trkpt><trkpt lat="37.7296217" lon="15.1931767"><ele>47.0</ele><time>2026-05-06T15:13:56.034Z</time></trkpt><trkpt lat="37.7295833" lon="15.193075"><ele>47.0</ele><time>2026-05-06T15:13:58.034Z</time></trkpt><trkpt lat="37.729555" lon="15.1929567"><ele>47.0</ele><time>2026-05-06T15:14:00.034Z</time></trkpt><trkpt lat="37.7295283" lon="15.1928833"><ele>47.0</ele><time>2026-05-06T15:14:01.034Z</time></trkpt><trkpt lat="37.7295017" lon="15.1927817"><ele>47.400000000000006</ele><time>2026-05-06T15:14:02.034Z</time></trkpt><trkpt lat="37.7294767" lon="15.19268"><ele>47.800000000000004</ele><time>2026-05-06T15:14:03.034Z</time></trkpt><trkpt lat="37.72946" lon="15.1925533"><ele>48.2</ele><time>2026-05-06T15:14:04.034Z</time></trkpt><trkpt lat="37.7294283" lon="15.1924033"><ele>48.6</ele><time>2026-05-06T15:14:05.033Z</time></trkpt><trkpt lat="37.72939" lon="15.1922533"><ele>49.0</ele><time>2026-05-06T15:14:06.033Z</time></trkpt><trkpt lat="37.7293567" lon="15.1921033"><ele>50.5</ele><time>2026-05-06T15:14:07.034Z</time></trkpt><trkpt lat="37.7293283" lon="15.191955"><ele>52.0</ele><time>2026-05-06T15:14:08.034Z</time></trkpt><trkpt lat="37.7293033" lon="15.1918117"><ele>53.5</ele><time>2026-05-06T15:14:09.034Z</time></trkpt><trkpt lat="37.7292717" lon="15.1916883"><ele>55.0</ele><time>2026-05-06T15:14:10.034Z</time></trkpt><trkpt lat="37.7292583" lon="15.19154"><ele>56.25</ele><time>2026-05-06T15:14:11.034Z</time></trkpt><trkpt lat="37.7292267" lon="15.1914033"><ele>57.5</ele><time>2026-05-06T15:14:12.034Z</time></trkpt><trkpt lat="37.7291817" lon="15.191265"><ele>58.75</ele><time>2026-05-06T15:14:13.034Z</time></trkpt><trkpt lat="37.7291483" lon="15.1911233"><ele>60.0</ele><time>2026-05-06T15:14:14.034Z</time></trkpt><trkpt lat="37.7291183" lon="15.1909917"><ele>60.0</ele><time>2026-05-06T15:14:15.034Z</time></trkpt><trkpt lat="37.729085" lon="15.1908717"><ele>60.0</ele><time>2026-05-06T15:14:16.034Z</time></trkpt><trkpt lat="37.7290567" lon="15.1907567"><ele>60.0</ele><time>2026-05-06T15:14:17.033Z</time></trkpt><trkpt lat="37.7290367" lon="15.1906567"><ele>60.0</ele><time>2026-05-06T15:14:18.034Z</time></trkpt><trkpt lat="37.7290183" lon="15.1905717"><ele>60.0</ele><time>2026-05-06T15:14:19.034Z</time></trkpt><trkpt lat="37.729" lon="15.190445"><ele>60.0</ele><time>2026-05-06T15:14:21.034Z</time></trkpt><trkpt lat="37.7290583" lon="15.1903533"><ele>59.8</ele><time>2026-05-06T15:14:23.034Z</time></trkpt><trkpt lat="37.7291917" lon="15.190305"><ele>59.6</ele><time>2026-05-06T15:14:25.034Z</time></trkpt><trkpt lat="37.7292817" lon="15.190285"><ele>59.400000000000006</ele><time>2026-05-06T15:14:26.034Z</time></trkpt><trkpt lat="37.7293717" lon="15.1902567"><ele>59.2</ele><time>2026-05-06T15:14:27.034Z</time></trkpt><trkpt lat="37.72947" lon="15.1902267"><ele>59.0</ele><time>2026-05-06T15:14:28.034Z</time></trkpt><trkpt lat="37.72956" lon="15.190205"><ele>59.0</ele><time>2026-05-06T15:14:29.034Z</time></trkpt><trkpt lat="37.7296467" lon="15.19017"><ele>59.00000000000001</ele><time>2026-05-06T15:14:30.034Z</time></trkpt><trkpt lat="37.729735" lon="15.190145"><ele>59.00000000000001</ele><time>2026-05-06T15:14:31.034Z</time></trkpt><trkpt lat="37.7298367" lon="15.190115"><ele>59.0</ele><time>2026-05-06T15:14:32.034Z</time></trkpt><trkpt lat="37.729935" lon="15.190075"><ele>59.0</ele><time>2026-05-06T15:14:33.034Z</time></trkpt><trkpt lat="37.7300233" lon="15.1900367"><ele>59.00000000000001</ele><time>2026-05-06T15:14:34.034Z</time></trkpt><trkpt lat="37.730105" lon="15.1900017"><ele>59.0</ele><time>2026-05-06T15:14:35.034Z</time></trkpt><trkpt lat="37.7301833" lon="15.1899667"><ele>59.0</ele><time>2026-05-06T15:14:36.034Z</time></trkpt><trkpt lat="37.7302517" lon="15.189935"><ele>59.0</ele><time>2026-05-06T15:14:37.034Z</time></trkpt><trkpt lat="37.7303067" lon="15.1898933"><ele>59.00000000000001</ele><time>2026-05-06T15:14:38.034Z</time></trkpt><trkpt lat="37.730355" lon="15.1897883"><ele>59.0</ele><time>2026-05-06T15:14:40.034Z</time></trkpt><trkpt lat="37.7303417" lon="15.1897067"><ele>58.6</ele><time>2026-05-06T15:14:41.034Z</time></trkpt><trkpt lat="37.7303133" lon="15.1896133"><ele>58.2</ele><time>2026-05-06T15:14:42.034Z</time></trkpt><trkpt lat="37.7302733" lon="15.1895033"><ele>57.800000000000004</ele><time>2026-05-06T15:14:43.034Z</time></trkpt><trkpt lat="37.7302383" lon="15.1893867"><ele>57.400000000000006</ele><time>2026-05-06T15:14:44.034Z</time></trkpt><trkpt lat="37.7302083" lon="15.1892733"><ele>57.0</ele><time>2026-05-06T15:14:45.034Z</time></trkpt><trkpt lat="37.7301817" lon="15.1891733"><ele>57.666666666666664</ele><time>2026-05-06T15:14:46.034Z</time></trkpt><trkpt lat="37.7301583" lon="15.1890433"><ele>58.33333333333333</ele><time>2026-05-06T15:14:48.034Z</time></trkpt><trkpt lat="37.730145" lon="15.188955"><ele>59.0</ele><time>2026-05-06T15:14:51.034Z</time></trkpt><trkpt lat="37.7301233" lon="15.1888633"><ele>59.666666666666664</ele><time>2026-05-06T15:14:54.034Z</time></trkpt><trkpt lat="37.730085" lon="15.1887567"><ele>60.33333333333333</ele><time>2026-05-06T15:14:57.034Z</time></trkpt><trkpt lat="37.7300717" lon="15.1886633"><ele>61.0</ele><time>2026-05-06T15:15:00.034Z</time></trkpt><trkpt lat="37.730025" lon="15.18855"><ele>61.33333333333333</ele><time>2026-05-06T15:15:03.034Z</time></trkpt><trkpt lat="37.7299883" lon="15.1883883"><ele>61.666666666666664</ele><time>2026-05-06T15:15:05.034Z</time></trkpt><trkpt lat="37.7299533" lon="15.188315"><ele>62.0</ele><time>2026-05-06T15:15:06.034Z</time></trkpt><trkpt lat="37.7299317" lon="15.1882233"><ele>62.33333333333333</ele><time>2026-05-06T15:15:07.034Z</time></trkpt><trkpt lat="37.7299083" lon="15.1881333"><ele>62.666666666666664</ele><time>2026-05-06T15:15:08.034Z</time></trkpt><trkpt lat="37.7298867" lon="15.1880433"><ele>63.0</ele><time>2026-05-06T15:15:09.034Z</time></trkpt><trkpt lat="37.7298683" lon="15.1879567"><ele>64.0</ele><time>2026-05-06T15:15:10.034Z</time></trkpt><trkpt lat="37.72985" lon="15.1878667"><ele>65.0</ele><time>2026-05-06T15:15:11.034Z</time></trkpt><trkpt lat="37.729835" lon="15.1877717"><ele>66.0</ele><time>2026-05-06T15:15:12.034Z</time></trkpt><trkpt lat="37.72982" lon="15.1876633"><ele>67.0</ele><time>2026-05-06T15:15:13.034Z</time></trkpt><trkpt lat="37.7297917" lon="15.18755"><ele>68.0</ele><time>2026-05-06T15:15:14.034Z</time></trkpt><trkpt lat="37.7297683" lon="15.18742"><ele>69.0</ele><time>2026-05-06T15:15:15.034Z</time></trkpt><trkpt lat="37.7297383" lon="15.18729"><ele>69.2</ele><time>2026-05-06T15:15:16.034Z</time></trkpt><trkpt lat="37.7297067" lon="15.1871667"><ele>69.4</ele><time>2026-05-06T15:15:17.033Z</time></trkpt><trkpt lat="37.7296817" lon="15.18703"><ele>69.6</ele><time>2026-05-06T15:15:18.034Z</time></trkpt><trkpt lat="37.729655" lon="15.1868967"><ele>69.8</ele><time>2026-05-06T15:15:19.034Z</time></trkpt><trkpt lat="37.7296267" lon="15.1867617"><ele>70.0</ele><time>2026-05-06T15:15:20.034Z</time></trkpt><trkpt lat="37.7296017" lon="15.1866317"><ele>70.4</ele><time>2026-05-06T15:15:21.034Z</time></trkpt><trkpt lat="37.72958" lon="15.1865067"><ele>70.8</ele><time>2026-05-06T15:15:22.034Z</time></trkpt><trkpt lat="37.729555" lon="15.1863867"><ele>71.2</ele><time>2026-05-06T15:15:23.034Z</time></trkpt><trkpt lat="37.7295283" lon="15.1862833"><ele>71.6</ele><time>2026-05-06T15:15:24.033Z</time></trkpt><trkpt lat="37.72952" lon="15.18617"><ele>72.0</ele><time>2026-05-06T15:15:25.034Z</time></trkpt><trkpt lat="37.7295" lon="15.1860683"><ele>72.00000000000001</ele><time>2026-05-06T15:15:26.034Z</time></trkpt><trkpt lat="37.729495" lon="15.1859683"><ele>72.0</ele><time>2026-05-06T15:15:27.034Z</time></trkpt><trkpt lat="37.729495" lon="15.1858783"><ele>72.0</ele><time>2026-05-06T15:15:28.034Z</time></trkpt><trkpt lat="37.7295" lon="15.1857983"><ele>72.0</ele><time>2026-05-06T15:15:29.034Z</time></trkpt><trkpt lat="37.7294917" lon="15.1856817"><ele>72.0</ele><time>2026-05-06T15:15:31.034Z</time></trkpt><trkpt lat="37.729495" lon="15.1855883"><ele>72.00000000000001</ele><time>2026-05-06T15:15:33.034Z</time></trkpt><trkpt lat="37.7294917" lon="15.1855017"><ele>72.0</ele><time>2026-05-06T15:15:35.034Z</time></trkpt><trkpt lat="37.72949" lon="15.1854083"><ele>72.0</ele><time>2026-05-06T15:15:37.034Z</time></trkpt><trkpt lat="37.72949" lon="15.1853267"><ele>72.0</ele><time>2026-05-06T15:15:40.034Z</time></trkpt><trkpt lat="37.7295067" lon="15.1852033"><ele>72.0</ele><time>2026-05-06T15:15:43.034Z</time></trkpt><trkpt lat="37.7295133" lon="15.1850917"><ele>72.0</ele><time>2026-05-06T15:15:45.034Z</time></trkpt><trkpt lat="37.7295217" lon="15.1849683"><ele>72.0</ele><time>2026-05-06T15:15:47.034Z</time></trkpt><trkpt lat="37.729515" lon="15.18486"><ele>72.0</ele><time>2026-05-06T15:15:49.034Z</time></trkpt><trkpt lat="37.7295167" lon="15.1847617"><ele>72.0</ele><time>2026-05-06T15:15:52.034Z</time></trkpt><trkpt lat="37.7295317" lon="15.1845917"><ele>72.0</ele><time>2026-05-06T15:16:03.034Z</time></trkpt><trkpt lat="37.7295583" lon="15.1844783"><ele>72.0</ele><time>2026-05-06T15:16:09.034Z</time></trkpt><trkpt lat="37.7295767" lon="15.1843983"><ele>72.0</ele><time>2026-05-06T15:16:14.034Z</time></trkpt><trkpt lat="37.72959" lon="15.1842217"><ele>72.0</ele><time>2026-05-06T15:16:23.034Z</time></trkpt><trkpt lat="37.72951" lon="15.1841917"><ele>72.0</ele><time>2026-05-06T15:16:26.034Z</time></trkpt><trkpt lat="37.72943" lon="15.1841883"><ele>72.0</ele><time>2026-05-06T15:16:29.034Z</time></trkpt><trkpt lat="37.72936" lon="15.184165"><ele>72.0</ele><time>2026-05-06T15:16:31.034Z</time></trkpt><trkpt lat="37.7292733" lon="15.1841367"><ele>72.0</ele><time>2026-05-06T15:16:33.034Z</time></trkpt><trkpt lat="37.7291733" lon="15.1840983"><ele>72.0</ele><time>2026-05-06T15:16:35.034Z</time></trkpt><trkpt lat="37.729055" lon="15.184075"><ele>71.6</ele><time>2026-05-06T15:16:37.034Z</time></trkpt><trkpt lat="37.72899" lon="15.18405"><ele>71.2</ele><time>2026-05-06T15:16:38.034Z</time></trkpt><trkpt lat="37.7288783" lon="15.184005"><ele>70.8</ele><time>2026-05-06T15:16:40.034Z</time></trkpt><trkpt lat="37.7287633" lon="15.18398"><ele>70.4</ele><time>2026-05-06T15:16:42.034Z</time></trkpt><trkpt lat="37.728665" lon="15.1839617"><ele>70.0</ele><time>2026-05-06T15:16:44.034Z</time></trkpt><trkpt lat="37.7285733" lon="15.1839483"><ele>70.83333333333333</ele><time>2026-05-06T15:16:46.033Z</time></trkpt><trkpt lat="37.7285017" lon="15.1839433"><ele>71.66666666666666</ele><time>2026-05-06T15:16:48.033Z</time></trkpt><trkpt lat="37.7284367" lon="15.1839133"><ele>72.5</ele><time>2026-05-06T15:16:50.034Z</time></trkpt><trkpt lat="37.728395" lon="15.18384"><ele>73.33333333333333</ele><time>2026-05-06T15:16:52.034Z</time></trkpt><trkpt lat="37.728335" lon="15.18376"><ele>74.16666666666667</ele><time>2026-05-06T15:16:55.034Z</time></trkpt><trkpt lat="37.7282783" lon="15.1837067"><ele>75.0</ele><time>2026-05-06T15:16:57.034Z</time></trkpt><trkpt lat="37.7281633" lon="15.18369"><ele>75.0</ele><time>2026-05-06T15:16:59.034Z</time></trkpt><trkpt lat="37.7280967" lon="15.1836883"><ele>75.0</ele><time>2026-05-06T15:17:00.034Z</time></trkpt><trkpt lat="37.728005" lon="15.183695"><ele>75.0</ele><time>2026-05-06T15:17:02.034Z</time></trkpt></trkseg></trk></gpx>